<?xml version="1.0" encoding="UTF-8"?>
<gpx xmlns="http://www.topografix.com/GPX/1/1" version="1.1" creator="Nokia Sports Tracker" xmlns:xsi="http://www.w3.org/2001/XMLSchema-instance" xsi:schemaLocation="http://www.topografix.com/GPX/1/1 http://www.topografix.com/GPX/1/1/gpx.xsd">
<metadata>
<name>27.02.2010 10:00</name>
<desc>Nordic Walking on Neue Route</desc>
<author><name>Jörg U.</name></author>
<time>2010-02-27T10:01:08.08</time>
</metadata>
<trk>
<name>27.02.2010 10:00</name>
<trkseg>
<trkpt lat="48.944160" lon="8.662530">
<ele>359.5</ele>
<speed>2.2</speed>
<course>7.6</course>
<desc>Speed 2.2 km/h Distance 0.00 km</desc>
<time>2010-02-27T10:01:11.19</time>
<name>1</name>
</trkpt>
<trkpt lat="48.944242" lon="8.662547">
<ele>359.5</ele>
<speed>3.3</speed>
<course>229.9</course>
<desc>Speed 3.3 km/h Distance 0.01 km</desc>
<time>2010-02-27T10:01:13.19</time>
<name>2</name>
</trkpt>
<trkpt lat="48.944233" lon="8.662532">
<ele>359.5</ele>
<speed>5.7</speed>
<course>224.7</course>
<desc>Speed 5.7 km/h Distance 0.01 km</desc>
<time>2010-02-27T10:01:14.18</time>
<name>3</name>
</trkpt>
<trkpt lat="48.944220" lon="8.662512">
<ele>359.5</ele>
<speed>2.6</speed>
<course>62.6</course>
<desc>Speed 2.6 km/h Distance 0.01 km</desc>
<time>2010-02-27T10:01:15.18</time>
<name>4</name>
</trkpt>
<trkpt lat="48.944222" lon="8.662517">
<ele>359.5</ele>
<speed>6.2</speed>
<course>231.4</course>
<desc>Speed 6.2 km/h Distance 0.01 km</desc>
<time>2010-02-27T10:01:16.18</time>
<name>5</name>
</trkpt>
<trkpt lat="48.944203" lon="8.662482">
<ele>359.5</ele>
<speed>2.2</speed>
<course>227.6</course>
<desc>Speed 2.2 km/h Distance 0.02 km</desc>
<time>2010-02-27T10:01:17.18</time>
<name>6</name>
</trkpt>
<trkpt lat="48.944118" lon="8.662340">
<ele>359.5</ele>
<speed>1.5</speed>
<course>185.0</course>
<desc>Speed 1.5 km/h Distance 0.03 km</desc>
<time>2010-02-27T10:01:20.18</time>
<name>7</name>
</trkpt>
<trkpt lat="48.944110" lon="8.662338">
<ele>359.5</ele>
<speed>0.6</speed>
<course>185.1</course>
<desc>Speed 0.6 km/h Distance 0.03 km</desc>
<time>2010-02-27T10:01:21.18</time>
<name>8</name>
</trkpt>
<trkpt lat="48.944075" lon="8.662333">
<ele>359.5</ele>
<speed>14.1</speed>
<course>228.2</course>
<desc>Speed 14.1 km/h Distance 0.04 km</desc>
<time>2010-02-27T10:01:23.18</time>
<name>9</name>
</trkpt>
<trkpt lat="48.943917" lon="8.662063">
<ele>360.0</ele>
<speed>2.3</speed>
<course>270.0</course>
<desc>Speed 2.3 km/h Distance 0.06 km</desc>
<time>2010-02-27T10:01:26.19</time>
<name>10</name>
</trkpt>
<trkpt lat="48.943917" lon="8.662050">
<ele>360.0</ele>
<speed>2.5</speed>
<course>270.0</course>
<desc>Speed 2.5 km/h Distance 0.06 km</desc>
<time>2010-02-27T10:01:27.20</time>
<name>11</name>
</trkpt>
<trkpt lat="48.943917" lon="8.662032">
<ele>360.0</ele>
<speed>4.0</speed>
<course>270.0</course>
<desc>Speed 4.0 km/h Distance 0.06 km</desc>
<time>2010-02-27T10:01:28.20</time>
<name>12</name>
</trkpt>
<trkpt lat="48.943917" lon="8.662013">
<ele>360.0</ele>
<speed>5.0</speed>
<course>270.0</course>
<desc>Speed 5.0 km/h Distance 0.07 km</desc>
<time>2010-02-27T10:01:29.19</time>
<name>13</name>
</trkpt>
<trkpt lat="48.943917" lon="8.661998">
<ele>360.0</ele>
<speed>3.7</speed>
<course>280.8</course>
<desc>Speed 3.7 km/h Distance 0.07 km</desc>
<time>2010-02-27T10:01:30.19</time>
<name>14</name>
</trkpt>
<trkpt lat="48.943918" lon="8.661985">
<ele>360.0</ele>
<speed>4.9</speed>
<course>293.6</course>
<desc>Speed 4.9 km/h Distance 0.07 km</desc>
<time>2010-02-27T10:01:31.19</time>
<name>15</name>
</trkpt>
<trkpt lat="48.943922" lon="8.661973">
<ele>360.0</ele>
<speed>3.9</speed>
<course>278.7</course>
<desc>Speed 3.9 km/h Distance 0.07 km</desc>
<time>2010-02-27T10:01:32.19</time>
<name>16</name>
</trkpt>
<trkpt lat="48.943923" lon="8.661957">
<ele>360.0</ele>
<speed>5.0</speed>
<course>257.7</course>
<desc>Speed 5.0 km/h Distance 0.07 km</desc>
<time>2010-02-27T10:01:33.18</time>
<name>17</name>
</trkpt>
<trkpt lat="48.943922" lon="8.661945">
<ele>360.0</ele>
<speed>4.8</speed>
<course>284.2</course>
<desc>Speed 4.8 km/h Distance 0.07 km</desc>
<time>2010-02-27T10:01:34.19</time>
<name>18</name>
</trkpt>
<trkpt lat="48.943923" lon="8.661935">
<ele>360.0</ele>
<speed>4.2</speed>
<course>270.0</course>
<desc>Speed 4.2 km/h Distance 0.07 km</desc>
<time>2010-02-27T10:01:35.18</time>
<name>19</name>
</trkpt>
<trkpt lat="48.943923" lon="8.661930">
<ele>360.0</ele>
<speed>2.9</speed>
<course>257.7</course>
<desc>Speed 2.9 km/h Distance 0.07 km</desc>
<time>2010-02-27T10:01:36.19</time>
<name>20</name>
</trkpt>
<trkpt lat="48.943922" lon="8.661918">
<ele>360.0</ele>
<speed>4.4</speed>
<course>251.3</course>
<desc>Speed 4.4 km/h Distance 0.07 km</desc>
<time>2010-02-27T10:01:37.19</time>
<name>21</name>
</trkpt>
<trkpt lat="48.943918" lon="8.661903">
<ele>360.0</ele>
<speed>3.4</speed>
<course>180.0</course>
<desc>Speed 3.4 km/h Distance 0.07 km</desc>
<time>2010-02-27T10:01:38.18</time>
<name>22</name>
</trkpt>
<trkpt lat="48.943898" lon="8.661903">
<ele>360.0</ele>
<speed>8.0</speed>
<course>238.6</course>
<desc>Speed 8.0 km/h Distance 0.08 km</desc>
<time>2010-02-27T10:01:39.18</time>
<name>23</name>
</trkpt>
<trkpt lat="48.943895" lon="8.661895">
<ele>360.0</ele>
<speed>0.8</speed>
<course>246.5</course>
<desc>Speed 0.8 km/h Distance 0.08 km</desc>
<time>2010-02-27T10:01:41.18</time>
<name>24</name>
</trkpt>
<trkpt lat="48.943892" lon="8.661883">
<ele>360.0</ele>
<speed>2.7</speed>
<course>245.5</course>
<desc>Speed 2.7 km/h Distance 0.08 km</desc>
<time>2010-02-27T10:01:42.18</time>
<name>25</name>
</trkpt>
<trkpt lat="48.943887" lon="8.661867">
<ele>360.0</ele>
<speed>4.0</speed>
<course>243.1</course>
<desc>Speed 4.0 km/h Distance 0.08 km</desc>
<time>2010-02-27T10:01:43.18</time>
<name>26</name>
</trkpt>
<trkpt lat="48.943878" lon="8.661842">
<ele>360.0</ele>
<speed>6.2</speed>
<course>251.9</course>
<desc>Speed 6.2 km/h Distance 0.08 km</desc>
<time>2010-02-27T10:01:44.18</time>
<name>27</name>
</trkpt>
<trkpt lat="48.943873" lon="8.661818">
<ele>360.0</ele>
<speed>4.1</speed>
<course>255.8</course>
<desc>Speed 4.1 km/h Distance 0.08 km</desc>
<time>2010-02-27T10:01:45.18</time>
<name>28</name>
</trkpt>
<trkpt lat="48.943870" lon="8.661798">
<ele>360.0</ele>
<speed>3.7</speed>
<course>243.1</course>
<desc>Speed 3.7 km/h Distance 0.08 km</desc>
<time>2010-02-27T10:01:46.18</time>
<name>29</name>
</trkpt>
<trkpt lat="48.943865" lon="8.661783">
<ele>360.0</ele>
<speed>3.2</speed>
<course>61.9</course>
<desc>Speed 3.2 km/h Distance 0.09 km</desc>
<time>2010-02-27T10:01:47.18</time>
<name>30</name>
</trkpt>
<trkpt lat="48.943888" lon="8.661850">
<ele>360.0</ele>
<speed>12.0</speed>
<course>171.9</course>
<desc>Speed 12.0 km/h Distance 0.09 km</desc>
<time>2010-02-27T10:01:49.18</time>
<name>31</name>
</trkpt>
<trkpt lat="48.943883" lon="8.661850">
<ele>360.0</ele>
<speed>1.7</speed>
<course>171.9</course>
<desc>Speed 1.7 km/h Distance 0.09 km</desc>
<time>2010-02-27T10:01:51.18</time>
<name>32</name>
</trkpt>
<trkpt lat="48.943883" lon="8.661850">
<ele>360.0</ele>
<speed>0.2</speed>
<course>90.0</course>
<desc>Speed 0.2 km/h Distance 0.09 km</desc>
<time>2010-02-27T10:01:52.17</time>
<name>33</name>
</trkpt>
<trkpt lat="48.943883" lon="8.661855">
<ele>360.0</ele>
<speed>1.5</speed>
<course>215.5</course>
<desc>Speed 1.5 km/h Distance 0.09 km</desc>
<time>2010-02-27T10:01:53.17</time>
<name>34</name>
</trkpt>
<trkpt lat="48.943880" lon="8.661852">
<ele>360.0</ele>
<speed>1.9</speed>
<course>27.9</course>
<desc>Speed 1.9 km/h Distance 0.09 km</desc>
<time>2010-02-27T10:01:54.16</time>
<name>35</name>
</trkpt>
<trkpt lat="48.943888" lon="8.661858">
<ele>360.0</ele>
<speed>4.0</speed>
<course>213.7</course>
<desc>Speed 4.0 km/h Distance 0.09 km</desc>
<time>2010-02-27T10:01:55.18</time>
<name>36</name>
</trkpt>
<trkpt lat="48.943885" lon="8.661855">
<ele>360.0</ele>
<speed>1.3</speed>
<course>23.8</course>
<desc>Speed 1.3 km/h Distance 0.09 km</desc>
<time>2010-02-27T10:01:56.17</time>
<name>37</name>
</trkpt>
<trkpt lat="48.943890" lon="8.661858">
<ele>360.0</ele>
<speed>2.0</speed>
<course>232.8</course>
<desc>Speed 2.0 km/h Distance 0.09 km</desc>
<time>2010-02-27T10:01:57.16</time>
<name>38</name>
</trkpt>
<trkpt lat="48.943885" lon="8.661848">
<ele>360.0</ele>
<speed>0.5</speed>
<course>224.6</course>
<desc>Speed 0.5 km/h Distance 0.10 km</desc>
<time>2010-02-27T10:01:58.17</time>
<name>39</name>
</trkpt>
<trkpt lat="48.943872" lon="8.661828">
<ele>360.0</ele>
<speed>3.7</speed>
<course>228.5</course>
<desc>Speed 3.7 km/h Distance 0.10 km</desc>
<time>2010-02-27T10:01:59.17</time>
<name>40</name>
</trkpt>
<trkpt lat="48.943842" lon="8.661777">
<ele>360.0</ele>
<speed>2.8</speed>
<course>224.5</course>
<desc>Speed 2.8 km/h Distance 0.10 km</desc>
<time>2010-02-27T10:02:01.17</time>
<name>41</name>
</trkpt>
<trkpt lat="48.943832" lon="8.661762">
<ele>360.0</ele>
<speed>3.4</speed>
<course>217.5</course>
<desc>Speed 3.4 km/h Distance 0.10 km</desc>
<time>2010-02-27T10:02:02.17</time>
<name>42</name>
</trkpt>
<trkpt lat="48.943822" lon="8.661750">
<ele>360.0</ele>
<speed>2.6</speed>
<course>223.3</course>
<desc>Speed 2.6 km/h Distance 0.11 km</desc>
<time>2010-02-27T10:02:03.17</time>
<name>43</name>
</trkpt>
<trkpt lat="48.943810" lon="8.661733">
<ele>360.0</ele>
<speed>2.8</speed>
<course>231.8</course>
<desc>Speed 2.8 km/h Distance 0.11 km</desc>
<time>2010-02-27T10:02:04.17</time>
<name>44</name>
</trkpt>
<trkpt lat="48.943783" lon="8.661682">
<ele>360.0</ele>
<speed>4.0</speed>
<course>238.7</course>
<desc>Speed 4.0 km/h Distance 0.11 km</desc>
<time>2010-02-27T10:02:06.17</time>
<name>45</name>
</trkpt>
<trkpt lat="48.943773" lon="8.661657">
<ele>360.0</ele>
<speed>3.4</speed>
<course>236.9</course>
<desc>Speed 3.4 km/h Distance 0.11 km</desc>
<time>2010-02-27T10:02:07.17</time>
<name>46</name>
</trkpt>
<trkpt lat="48.943763" lon="8.661633">
<ele>360.0</ele>
<speed>3.0</speed>
<course>247.4</course>
<desc>Speed 3.0 km/h Distance 0.12 km</desc>
<time>2010-02-27T10:02:08.17</time>
<name>47</name>
</trkpt>
<trkpt lat="48.943758" lon="8.661615">
<ele>360.0</ele>
<speed>3.8</speed>
<course>244.6</course>
<desc>Speed 3.8 km/h Distance 0.12 km</desc>
<time>2010-02-27T10:02:09.17</time>
<name>48</name>
</trkpt>
<trkpt lat="48.943750" lon="8.661588">
<ele>360.0</ele>
<speed>5.6</speed>
<course>224.5</course>
<desc>Speed 5.6 km/h Distance 0.12 km</desc>
<time>2010-02-27T10:02:10.17</time>
<name>49</name>
</trkpt>
<trkpt lat="48.943743" lon="8.661578">
<ele>360.0</ele>
<speed>2.9</speed>
<course>240.3</course>
<desc>Speed 2.9 km/h Distance 0.12 km</desc>
<time>2010-02-27T10:02:11.16</time>
<name>50</name>
</trkpt>
<trkpt lat="48.943738" lon="8.661565">
<ele>360.0</ele>
<speed>3.6</speed>
<course>270.0</course>
<desc>Speed 3.6 km/h Distance 0.12 km</desc>
<time>2010-02-27T10:02:12.16</time>
<name>51</name>
</trkpt>
<trkpt lat="48.943738" lon="8.661550">
<ele>360.0</ele>
<speed>3.4</speed>
<course>237.1</course>
<desc>Speed 3.4 km/h Distance 0.12 km</desc>
<time>2010-02-27T10:02:13.16</time>
<name>52</name>
</trkpt>
<trkpt lat="48.943733" lon="8.661538">
<ele>360.0</ele>
<speed>3.5</speed>
<course>229.1</course>
<desc>Speed 3.5 km/h Distance 0.12 km</desc>
<time>2010-02-27T10:02:14.16</time>
<name>53</name>
</trkpt>
<trkpt lat="48.943727" lon="8.661527">
<ele>360.0</ele>
<speed>4.1</speed>
<course>232.8</course>
<desc>Speed 4.1 km/h Distance 0.13 km</desc>
<time>2010-02-27T10:02:15.16</time>
<name>54</name>
</trkpt>
<trkpt lat="48.943722" lon="8.661517">
<ele>360.0</ele>
<speed>4.4</speed>
<course>226.6</course>
<desc>Speed 4.4 km/h Distance 0.13 km</desc>
<time>2010-02-27T10:02:16.16</time>
<name>55</name>
</trkpt>
<trkpt lat="48.943713" lon="8.661503">
<ele>360.0</ele>
<speed>4.7</speed>
<course>238.7</course>
<desc>Speed 4.7 km/h Distance 0.13 km</desc>
<time>2010-02-27T10:02:17.16</time>
<name>56</name>
</trkpt>
<trkpt lat="48.943707" lon="8.661487">
<ele>360.0</ele>
<speed>4.8</speed>
<course>230.3</course>
<desc>Speed 4.8 km/h Distance 0.13 km</desc>
<time>2010-02-27T10:02:18.16</time>
<name>57</name>
</trkpt>
<trkpt lat="48.943697" lon="8.661468">
<ele>360.0</ele>
<speed>4.1</speed>
<course>209.8</course>
<desc>Speed 4.1 km/h Distance 0.13 km</desc>
<time>2010-02-27T10:02:19.16</time>
<name>58</name>
</trkpt>
<trkpt lat="48.943683" lon="8.661457">
<ele>360.0</ele>
<speed>3.7</speed>
<course>213.2</course>
<desc>Speed 3.7 km/h Distance 0.13 km</desc>
<time>2010-02-27T10:02:20.16</time>
<name>59</name>
</trkpt>
<trkpt lat="48.943675" lon="8.661448">
<ele>360.0</ele>
<speed>4.0</speed>
<course>219.4</course>
<desc>Speed 4.0 km/h Distance 0.13 km</desc>
<time>2010-02-27T10:02:21.16</time>
<name>60</name>
</trkpt>
<trkpt lat="48.943668" lon="8.661440">
<ele>360.0</ele>
<speed>4.0</speed>
<course>223.3</course>
<desc>Speed 4.0 km/h Distance 0.13 km</desc>
<time>2010-02-27T10:02:22.16</time>
<name>61</name>
</trkpt>
<trkpt lat="48.943657" lon="8.661423">
<ele>360.0</ele>
<speed>6.8</speed>
<course>223.3</course>
<desc>Speed 6.8 km/h Distance 0.14 km</desc>
<time>2010-02-27T10:02:23.16</time>
<name>62</name>
</trkpt>
<trkpt lat="48.943645" lon="8.661407">
<ele>360.0</ele>
<speed>5.9</speed>
<course>229.1</course>
<desc>Speed 5.9 km/h Distance 0.14 km</desc>
<time>2010-02-27T10:02:24.16</time>
<name>63</name>
</trkpt>
<trkpt lat="48.943638" lon="8.661395">
<ele>360.0</ele>
<speed>4.3</speed>
<course>220.2</course>
<desc>Speed 4.3 km/h Distance 0.14 km</desc>
<time>2010-02-27T10:02:25.16</time>
<name>64</name>
</trkpt>
<trkpt lat="48.943627" lon="8.661380">
<ele>360.0</ele>
<speed>6.0</speed>
<course>230.3</course>
<desc>Speed 6.0 km/h Distance 0.14 km</desc>
<time>2010-02-27T10:02:26.16</time>
<name>65</name>
</trkpt>
<trkpt lat="48.943617" lon="8.661362">
<ele>360.0</ele>
<speed>5.8</speed>
<course>229.8</course>
<desc>Speed 5.8 km/h Distance 0.14 km</desc>
<time>2010-02-27T10:02:27.15</time>
<name>66</name>
</trkpt>
<trkpt lat="48.943608" lon="8.661347">
<ele>360.0</ele>
<speed>4.2</speed>
<course>241.0</course>
<desc>Speed 4.2 km/h Distance 0.14 km</desc>
<time>2010-02-27T10:02:28.15</time>
<name>67</name>
</trkpt>
<trkpt lat="48.943602" lon="8.661328">
<ele>360.0</ele>
<speed>5.0</speed>
<course>229.1</course>
<desc>Speed 5.0 km/h Distance 0.15 km</desc>
<time>2010-02-27T10:02:29.15</time>
<name>68</name>
</trkpt>
<trkpt lat="48.943595" lon="8.661317">
<ele>360.0</ele>
<speed>3.7</speed>
<course>232.8</course>
<desc>Speed 3.7 km/h Distance 0.15 km</desc>
<time>2010-02-27T10:02:30.15</time>
<name>69</name>
</trkpt>
<trkpt lat="48.943588" lon="8.661303">
<ele>360.0</ele>
<speed>3.7</speed>
<course>224.5</course>
<desc>Speed 3.7 km/h Distance 0.15 km</desc>
<time>2010-02-27T10:02:31.15</time>
<name>70</name>
</trkpt>
<trkpt lat="48.943578" lon="8.661288">
<ele>360.0</ele>
<speed>4.6</speed>
<course>245.4</course>
<desc>Speed 4.6 km/h Distance 0.15 km</desc>
<time>2010-02-27T10:02:32.16</time>
<name>71</name>
</trkpt>
<trkpt lat="48.943573" lon="8.661272">
<ele>360.0</ele>
<speed>4.0</speed>
<course>219.3</course>
<desc>Speed 4.0 km/h Distance 0.15 km</desc>
<time>2010-02-27T10:02:33.15</time>
<name>72</name>
</trkpt>
<trkpt lat="48.943560" lon="8.661255">
<ele>360.0</ele>
<speed>5.4</speed>
<course>230.2</course>
<desc>Speed 5.4 km/h Distance 0.15 km</desc>
<time>2010-02-27T10:02:34.15</time>
<name>73</name>
</trkpt>
<trkpt lat="48.943550" lon="8.661237">
<ele>360.0</ele>
<speed>5.5</speed>
<course>217.3</course>
<desc>Speed 5.5 km/h Distance 0.15 km</desc>
<time>2010-02-27T10:02:35.15</time>
<name>74</name>
</trkpt>
<trkpt lat="48.943540" lon="8.661225">
<ele>360.0</ele>
<speed>4.1</speed>
<course>225.9</course>
<desc>Speed 4.1 km/h Distance 0.16 km</desc>
<time>2010-02-27T10:02:36.15</time>
<name>75</name>
</trkpt>
<trkpt lat="48.943528" lon="8.661207">
<ele>360.0</ele>
<speed>5.6</speed>
<course>230.3</course>
<desc>Speed 5.6 km/h Distance 0.16 km</desc>
<time>2010-02-27T10:02:37.15</time>
<name>76</name>
</trkpt>
<trkpt lat="48.943518" lon="8.661188">
<ele>360.0</ele>
<speed>4.1</speed>
<course>232.8</course>
<desc>Speed 4.1 km/h Distance 0.16 km</desc>
<time>2010-02-27T10:02:38.15</time>
<name>77</name>
</trkpt>
<trkpt lat="48.943508" lon="8.661168">
<ele>360.0</ele>
<speed>4.0</speed>
<course>229.8</course>
<desc>Speed 4.0 km/h Distance 0.16 km</desc>
<time>2010-02-27T10:02:39.15</time>
<name>78</name>
</trkpt>
<trkpt lat="48.943500" lon="8.661153">
<ele>360.0</ele>
<speed>4.8</speed>
<course>229.1</course>
<desc>Speed 4.8 km/h Distance 0.16 km</desc>
<time>2010-02-27T10:02:40.15</time>
<name>79</name>
</trkpt>
<trkpt lat="48.943493" lon="8.661142">
<ele>360.0</ele>
<speed>3.9</speed>
<course>240.3</course>
<desc>Speed 3.9 km/h Distance 0.16 km</desc>
<time>2010-02-27T10:02:41.15</time>
<name>80</name>
</trkpt>
<trkpt lat="48.943488" lon="8.661128">
<ele>360.0</ele>
<speed>4.1</speed>
<course>213.5</course>
<desc>Speed 4.1 km/h Distance 0.17 km</desc>
<time>2010-02-27T10:02:42.15</time>
<name>81</name>
</trkpt>
<trkpt lat="48.943480" lon="8.661120">
<ele>360.0</ele>
<speed>4.1</speed>
<course>226.5</course>
<desc>Speed 4.1 km/h Distance 0.17 km</desc>
<time>2010-02-27T10:02:43.15</time>
<name>82</name>
</trkpt>
<trkpt lat="48.943472" lon="8.661107">
<ele>360.0</ele>
<speed>4.3</speed>
<course>229.9</course>
<desc>Speed 4.3 km/h Distance 0.17 km</desc>
<time>2010-02-27T10:02:44.15</time>
<name>83</name>
</trkpt>
<trkpt lat="48.943463" lon="8.661092">
<ele>360.0</ele>
<speed>5.1</speed>
<course>229.9</course>
<desc>Speed 5.1 km/h Distance 0.17 km</desc>
<time>2010-02-27T10:02:45.15</time>
<name>84</name>
</trkpt>
<trkpt lat="48.943455" lon="8.661077">
<ele>360.0</ele>
<speed>5.1</speed>
<course>235.3</course>
<desc>Speed 5.1 km/h Distance 0.17 km</desc>
<time>2010-02-27T10:02:46.15</time>
<name>85</name>
</trkpt>
<trkpt lat="48.943447" lon="8.661058">
<ele>360.0</ele>
<speed>5.2</speed>
<course>224.5</course>
<desc>Speed 5.2 km/h Distance 0.17 km</desc>
<time>2010-02-27T10:02:47.15</time>
<name>86</name>
</trkpt>
<trkpt lat="48.943437" lon="8.661043">
<ele>360.0</ele>
<speed>5.3</speed>
<course>235.9</course>
<desc>Speed 5.3 km/h Distance 0.17 km</desc>
<time>2010-02-27T10:02:48.14</time>
<name>87</name>
</trkpt>
<trkpt lat="48.943430" lon="8.661028">
<ele>360.0</ele>
<speed>4.5</speed>
<course>221.2</course>
<desc>Speed 4.5 km/h Distance 0.17 km</desc>
<time>2010-02-27T10:02:49.15</time>
<name>88</name>
</trkpt>
<trkpt lat="48.943420" lon="8.661015">
<ele>360.0</ele>
<speed>4.4</speed>
<course>229.8</course>
<desc>Speed 4.4 km/h Distance 0.18 km</desc>
<time>2010-02-27T10:02:50.14</time>
<name>89</name>
</trkpt>
<trkpt lat="48.943412" lon="8.661000">
<ele>360.0</ele>
<speed>4.8</speed>
<course>227.6</course>
<desc>Speed 4.8 km/h Distance 0.18 km</desc>
<time>2010-02-27T10:02:51.14</time>
<name>90</name>
</trkpt>
<trkpt lat="48.943402" lon="8.660983">
<ele>360.0</ele>
<speed>4.8</speed>
<course>228.4</course>
<desc>Speed 4.8 km/h Distance 0.18 km</desc>
<time>2010-02-27T10:02:52.15</time>
<name>91</name>
</trkpt>
<trkpt lat="48.943390" lon="8.660963">
<ele>360.0</ele>
<speed>4.6</speed>
<course>222.2</course>
<desc>Speed 4.6 km/h Distance 0.18 km</desc>
<time>2010-02-27T10:02:53.14</time>
<name>92</name>
</trkpt>
<trkpt lat="48.943377" lon="8.660945">
<ele>360.0</ele>
<speed>5.5</speed>
<course>224.5</course>
<desc>Speed 5.5 km/h Distance 0.18 km</desc>
<time>2010-02-27T10:02:54.14</time>
<name>93</name>
</trkpt>
<trkpt lat="48.943363" lon="8.660925">
<ele>360.0</ele>
<speed>5.5</speed>
<course>224.5</course>
<desc>Speed 5.5 km/h Distance 0.19 km</desc>
<time>2010-02-27T10:02:55.14</time>
<name>94</name>
</trkpt>
<trkpt lat="48.943350" lon="8.660905">
<ele>360.0</ele>
<speed>5.1</speed>
<course>229.0</course>
<desc>Speed 5.1 km/h Distance 0.19 km</desc>
<time>2010-02-27T10:02:56.14</time>
<name>95</name>
</trkpt>
<trkpt lat="48.943337" lon="8.660882">
<ele>360.0</ele>
<speed>5.8</speed>
<course>226.9</course>
<desc>Speed 5.8 km/h Distance 0.19 km</desc>
<time>2010-02-27T10:02:57.14</time>
<name>96</name>
</trkpt>
<trkpt lat="48.943323" lon="8.660860">
<ele>360.0</ele>
<speed>5.9</speed>
<course>225.9</course>
<desc>Speed 5.9 km/h Distance 0.19 km</desc>
<time>2010-02-27T10:02:58.14</time>
<name>97</name>
</trkpt>
<trkpt lat="48.943312" lon="8.660842">
<ele>360.0</ele>
<speed>6.0</speed>
<course>223.1</course>
<desc>Speed 6.0 km/h Distance 0.19 km</desc>
<time>2010-02-27T10:02:59.14</time>
<name>98</name>
</trkpt>
<trkpt lat="48.943300" lon="8.660825">
<ele>360.0</ele>
<speed>6.0</speed>
<course>227.6</course>
<desc>Speed 6.0 km/h Distance 0.20 km</desc>
<time>2010-02-27T10:03:00.13</time>
<name>99</name>
</trkpt>
<trkpt lat="48.943290" lon="8.660808">
<ele>360.0</ele>
<speed>5.8</speed>
<course>232.7</course>
<desc>Speed 5.8 km/h Distance 0.20 km</desc>
<time>2010-02-27T10:03:01.14</time>
<name>100</name>
</trkpt>
<trkpt lat="48.943280" lon="8.660788">
<ele>360.0</ele>
<speed>5.5</speed>
<course>241.0</course>
<desc>Speed 5.5 km/h Distance 0.20 km</desc>
<time>2010-02-27T10:03:02.14</time>
<name>101</name>
</trkpt>
<trkpt lat="48.943273" lon="8.660770">
<ele>360.0</ele>
<speed>5.2</speed>
<course>238.6</course>
<desc>Speed 5.2 km/h Distance 0.20 km</desc>
<time>2010-02-27T10:03:03.14</time>
<name>102</name>
</trkpt>
<trkpt lat="48.943267" lon="8.660753">
<ele>360.0</ele>
<speed>4.6</speed>
<course>221.2</course>
<desc>Speed 4.6 km/h Distance 0.20 km</desc>
<time>2010-02-27T10:03:04.13</time>
<name>103</name>
</trkpt>
<trkpt lat="48.943257" lon="8.660740">
<ele>360.0</ele>
<speed>4.8</speed>
<course>236.7</course>
<desc>Speed 4.8 km/h Distance 0.20 km</desc>
<time>2010-02-27T10:03:05.13</time>
<name>104</name>
</trkpt>
<trkpt lat="48.943252" lon="8.660728">
<ele>360.0</ele>
<speed>3.5</speed>
<course>232.7</course>
<desc>Speed 3.5 km/h Distance 0.20 km</desc>
<time>2010-02-27T10:03:06.14</time>
<name>105</name>
</trkpt>
<trkpt lat="48.943243" lon="8.660712">
<ele>360.0</ele>
<speed>4.2</speed>
<course>230.3</course>
<desc>Speed 4.2 km/h Distance 0.21 km</desc>
<time>2010-02-27T10:03:07.13</time>
<name>106</name>
</trkpt>
<trkpt lat="48.943233" lon="8.660693">
<ele>360.0</ele>
<speed>6.2</speed>
<course>232.7</course>
<desc>Speed 6.2 km/h Distance 0.21 km</desc>
<time>2010-02-27T10:03:08.13</time>
<name>107</name>
</trkpt>
<trkpt lat="48.943227" lon="8.660680">
<ele>360.0</ele>
<speed>4.4</speed>
<course>222.6</course>
<desc>Speed 4.4 km/h Distance 0.21 km</desc>
<time>2010-02-27T10:03:09.13</time>
<name>108</name>
</trkpt>
<trkpt lat="48.943218" lon="8.660668">
<ele>360.0</ele>
<speed>4.1</speed>
<course>213.2</course>
<desc>Speed 4.1 km/h Distance 0.21 km</desc>
<time>2010-02-27T10:03:10.14</time>
<name>109</name>
</trkpt>
<trkpt lat="48.943210" lon="8.660660">
<ele>359.5</ele>
<speed>3.7</speed>
<course>227.6</course>
<desc>Speed 3.7 km/h Distance 0.21 km</desc>
<time>2010-02-27T10:03:11.13</time>
<name>110</name>
</trkpt>
<trkpt lat="48.943200" lon="8.660643">
<ele>359.5</ele>
<speed>5.3</speed>
<course>232.6</course>
<desc>Speed 5.3 km/h Distance 0.21 km</desc>
<time>2010-02-27T10:03:12.13</time>
<name>111</name>
</trkpt>
<trkpt lat="48.943195" lon="8.660633">
<ele>359.5</ele>
<speed>3.4</speed>
<course>236.7</course>
<desc>Speed 3.4 km/h Distance 0.21 km</desc>
<time>2010-02-27T10:03:13.13</time>
<name>112</name>
</trkpt>
<trkpt lat="48.943190" lon="8.660622">
<ele>359.5</ele>
<speed>4.1</speed>
<course>231.9</course>
<desc>Speed 4.1 km/h Distance 0.22 km</desc>
<time>2010-02-27T10:03:14.13</time>
<name>113</name>
</trkpt>
<trkpt lat="48.943188" lon="8.660618">
<ele>359.5</ele>
<speed>2.3</speed>
<course>226.5</course>
<desc>Speed 2.3 km/h Distance 0.22 km</desc>
<time>2010-02-27T10:03:15.13</time>
<name>114</name>
</trkpt>
<trkpt lat="48.943180" lon="8.660605">
<ele>359.5</ele>
<speed>4.4</speed>
<course>240.3</course>
<desc>Speed 4.4 km/h Distance 0.22 km</desc>
<time>2010-02-27T10:03:16.13</time>
<name>115</name>
</trkpt>
<trkpt lat="48.943175" lon="8.660592">
<ele>359.5</ele>
<speed>4.7</speed>
<course>229.1</course>
<desc>Speed 4.7 km/h Distance 0.22 km</desc>
<time>2010-02-27T10:03:17.13</time>
<name>116</name>
</trkpt>
<trkpt lat="48.943168" lon="8.660580">
<ele>359.5</ele>
<speed>4.6</speed>
<course>213.5</course>
<desc>Speed 4.6 km/h Distance 0.22 km</desc>
<time>2010-02-27T10:03:18.13</time>
<name>117</name>
</trkpt>
<trkpt lat="48.943160" lon="8.660572">
<ele>359.5</ele>
<speed>4.1</speed>
<course>232.8</course>
<desc>Speed 4.1 km/h Distance 0.22 km</desc>
<time>2010-02-27T10:03:19.13</time>
<name>118</name>
</trkpt>
<trkpt lat="48.943153" lon="8.660558">
<ele>359.5</ele>
<speed>4.7</speed>
<course>297.4</course>
<desc>Speed 4.7 km/h Distance 0.22 km</desc>
<time>2010-02-27T10:03:20.13</time>
<name>119</name>
</trkpt>
<trkpt lat="48.943155" lon="8.660553">
<ele>359.5</ele>
<speed>1.5</speed>
<course>326.3</course>
<desc>Speed 1.5 km/h Distance 0.22 km</desc>
<time>2010-02-27T10:03:21.13</time>
<name>120</name>
</trkpt>
<trkpt lat="48.943158" lon="8.660550">
<ele>359.5</ele>
<speed>1.1</speed>
<course>326.3</course>
<desc>Speed 1.1 km/h Distance 0.22 km</desc>
<time>2010-02-27T10:03:22.13</time>
<name>121</name>
</trkpt>
<trkpt lat="48.943158" lon="8.660550">
<ele>359.5</ele>
<speed>0.3</speed>
<course>12.6</course>
<desc>Speed 0.3 km/h Distance 0.22 km</desc>
<time>2010-02-27T10:03:23.13</time>
<name>122</name>
</trkpt>
<trkpt lat="48.943160" lon="8.660550">
<ele>359.5</ele>
<speed>0.7</speed>
<course>12.6</course>
<desc>Speed 0.7 km/h Distance 0.22 km</desc>
<time>2010-02-27T10:03:24.13</time>
<name>123</name>
</trkpt>
<trkpt lat="48.943160" lon="8.660550">
<ele>359.5</ele>
<speed>0.9</speed>
<course>270.0</course>
<desc>Speed 0.9 km/h Distance 0.22 km</desc>
<time>2010-02-27T10:03:25.13</time>
<name>124</name>
</trkpt>
<trkpt lat="48.943160" lon="8.660545">
<ele>359.5</ele>
<speed>0.2</speed>
<course>270.0</course>
<desc>Speed 0.2 km/h Distance 0.22 km</desc>
<time>2010-02-27T10:03:26.13</time>
<name>125</name>
</trkpt>
<trkpt lat="48.943160" lon="8.660543">
<ele>359.5</ele>
<speed>0.5</speed>
<course>270.0</course>
<desc>Speed 0.5 km/h Distance 0.22 km</desc>
<time>2010-02-27T10:03:27.13</time>
<name>126</name>
</trkpt>
<trkpt lat="48.943160" lon="8.660542">
<ele>359.5</ele>
<speed>0.3</speed>
<course>217.2</course>
<desc>Speed 0.3 km/h Distance 0.22 km</desc>
<time>2010-02-27T10:03:28.11</time>
<name>127</name>
</trkpt>
<trkpt lat="48.943158" lon="8.660540">
<ele>359.5</ele>
<speed>0.3</speed>
<course>270.0</course>
<desc>Speed 0.3 km/h Distance 0.22 km</desc>
<time>2010-02-27T10:03:29.11</time>
<name>128</name>
</trkpt>
<trkpt lat="48.943158" lon="8.660538">
<ele>359.5</ele>
<speed>0.4</speed>
<course>167.4</course>
<desc>Speed 0.4 km/h Distance 0.22 km</desc>
<time>2010-02-27T10:03:30.11</time>
<name>129</name>
</trkpt>
<trkpt lat="48.943157" lon="8.660538">
<ele>359.5</ele>
<speed>0.1</speed>
<course>209.2</course>
<desc>Speed 0.1 km/h Distance 0.22 km</desc>
<time>2010-02-27T10:03:31.11</time>
<name>130</name>
</trkpt>
<trkpt lat="48.943155" lon="8.660537">
<ele>359.5</ele>
<speed>1.0</speed>
<course>217.2</course>
<desc>Speed 1.0 km/h Distance 0.22 km</desc>
<time>2010-02-27T10:03:32.12</time>
<name>131</name>
</trkpt>
<trkpt lat="48.943153" lon="8.660535">
<ele>359.5</ele>
<speed>0.8</speed>
<course>37.8</course>
<desc>Speed 0.8 km/h Distance 0.22 km</desc>
<time>2010-02-27T10:03:33.12</time>
<name>132</name>
</trkpt>
<trkpt lat="48.943190" lon="8.660578">
<ele>359.5</ele>
<speed>1.0</speed>
<course>42.6</course>
<desc>Speed 1.0 km/h Distance 0.23 km</desc>
<time>2010-02-27T10:03:35.12</time>
<name>133</name>
</trkpt>
<trkpt lat="48.943232" lon="8.660637">
<ele>359.5</ele>
<speed>1.9</speed>
<course>28.6</course>
<desc>Speed 1.9 km/h Distance 0.24 km</desc>
<time>2010-02-27T10:03:37.12</time>
<name>134</name>
</trkpt>
<trkpt lat="48.943242" lon="8.660645">
<ele>359.5</ele>
<speed>3.6</speed>
<course>41.3</course>
<desc>Speed 3.6 km/h Distance 0.24 km</desc>
<time>2010-02-27T10:03:38.12</time>
<name>135</name>
</trkpt>
<trkpt lat="48.943252" lon="8.660658">
<ele>359.5</ele>
<speed>4.4</speed>
<course>40.2</course>
<desc>Speed 4.4 km/h Distance 0.24 km</desc>
<time>2010-02-27T10:03:39.12</time>
<name>136</name>
</trkpt>
<trkpt lat="48.943263" lon="8.660673">
<ele>359.5</ele>
<speed>4.2</speed>
<course>44.5</course>
<desc>Speed 4.2 km/h Distance 0.24 km</desc>
<time>2010-02-27T10:03:40.12</time>
<name>137</name>
</trkpt>
<trkpt lat="48.943270" lon="8.660683">
<ele>359.5</ele>
<speed>1.9</speed>
<course>36.9</course>
<desc>Speed 1.9 km/h Distance 0.24 km</desc>
<time>2010-02-27T10:03:41.12</time>
<name>138</name>
</trkpt>
<trkpt lat="48.943282" lon="8.660697">
<ele>359.5</ele>
<speed>2.7</speed>
<course>33.3</course>
<desc>Speed 2.7 km/h Distance 0.24 km</desc>
<time>2010-02-27T10:03:42.12</time>
<name>139</name>
</trkpt>
<trkpt lat="48.943298" lon="8.660713">
<ele>359.5</ele>
<speed>3.2</speed>
<course>40.9</course>
<desc>Speed 3.2 km/h Distance 0.24 km</desc>
<time>2010-02-27T10:03:43.12</time>
<name>140</name>
</trkpt>
<trkpt lat="48.943303" lon="8.660720">
<ele>359.5</ele>
<speed>2.5</speed>
<course>27.9</course>
<desc>Speed 2.5 km/h Distance 0.25 km</desc>
<time>2010-02-27T10:03:44.12</time>
<name>141</name>
</trkpt>
<trkpt lat="48.943312" lon="8.660727">
<ele>359.5</ele>
<speed>3.5</speed>
<course>44.5</course>
<desc>Speed 3.5 km/h Distance 0.25 km</desc>
<time>2010-02-27T10:03:45.12</time>
<name>142</name>
</trkpt>
<trkpt lat="48.943322" lon="8.660742">
<ele>359.5</ele>
<speed>5.1</speed>
<course>9.0</course>
<desc>Speed 5.1 km/h Distance 0.25 km</desc>
<time>2010-02-27T10:03:46.12</time>
<name>143</name>
</trkpt>
<trkpt lat="48.943335" lon="8.660745">
<ele>359.5</ele>
<speed>3.8</speed>
<course>17.5</course>
<desc>Speed 3.8 km/h Distance 0.25 km</desc>
<time>2010-02-27T10:03:47.12</time>
<name>144</name>
</trkpt>
<trkpt lat="48.943342" lon="8.660748">
<ele>359.5</ele>
<speed>2.4</speed>
<course>42.6</course>
<desc>Speed 2.4 km/h Distance 0.25 km</desc>
<time>2010-02-27T10:03:48.12</time>
<name>145</name>
</trkpt>
<trkpt lat="48.943350" lon="8.660760">
<ele>359.5</ele>
<speed>3.6</speed>
<course>33.7</course>
<desc>Speed 3.6 km/h Distance 0.25 km</desc>
<time>2010-02-27T10:03:49.12</time>
<name>146</name>
</trkpt>
<trkpt lat="48.943353" lon="8.660763">
<ele>359.5</ele>
<speed>2.1</speed>
<course>34.1</course>
<desc>Speed 2.1 km/h Distance 0.25 km</desc>
<time>2010-02-27T10:03:50.11</time>
<name>147</name>
</trkpt>
<trkpt lat="48.943358" lon="8.660768">
<ele>359.5</ele>
<speed>3.3</speed>
<course>44.5</course>
<desc>Speed 3.3 km/h Distance 0.25 km</desc>
<time>2010-02-27T10:03:51.11</time>
<name>148</name>
</trkpt>
<trkpt lat="48.943362" lon="8.660773">
<ele>359.5</ele>
<speed>2.3</speed>
<course>46.5</course>
<desc>Speed 2.3 km/h Distance 0.25 km</desc>
<time>2010-02-27T10:03:52.11</time>
<name>149</name>
</trkpt>
<trkpt lat="48.943370" lon="8.660787">
<ele>359.5</ele>
<speed>4.6</speed>
<course>44.5</course>
<desc>Speed 4.6 km/h Distance 0.25 km</desc>
<time>2010-02-27T10:03:53.10</time>
<name>150</name>
</trkpt>
<trkpt lat="48.943377" lon="8.660797">
<ele>359.5</ele>
<speed>3.2</speed>
<course>39.4</course>
<desc>Speed 3.2 km/h Distance 0.26 km</desc>
<time>2010-02-27T10:03:54.12</time>
<name>151</name>
</trkpt>
<trkpt lat="48.943383" lon="8.660805">
<ele>359.5</ele>
<speed>3.2</speed>
<course>23.8</course>
<desc>Speed 3.2 km/h Distance 0.26 km</desc>
<time>2010-02-27T10:03:55.11</time>
<name>152</name>
</trkpt>
<trkpt lat="48.943393" lon="8.660812">
<ele>359.5</ele>
<speed>4.4</speed>
<course>25.2</course>
<desc>Speed 4.4 km/h Distance 0.26 km</desc>
<time>2010-02-27T10:03:56.12</time>
<name>153</name>
</trkpt>
<trkpt lat="48.943405" lon="8.660820">
<ele>359.5</ele>
<speed>4.6</speed>
<course>43.3</course>
<desc>Speed 4.6 km/h Distance 0.26 km</desc>
<time>2010-02-27T10:03:57.11</time>
<name>154</name>
</trkpt>
<trkpt lat="48.943417" lon="8.660837">
<ele>359.5</ele>
<speed>6.9</speed>
<course>42.6</course>
<desc>Speed 6.9 km/h Distance 0.26 km</desc>
<time>2010-02-27T10:03:58.11</time>
<name>155</name>
</trkpt>
<trkpt lat="48.943425" lon="8.660848">
<ele>359.5</ele>
<speed>5.0</speed>
<course>27.9</course>
<desc>Speed 5.0 km/h Distance 0.26 km</desc>
<time>2010-02-27T10:03:59.11</time>
<name>156</name>
</trkpt>
<trkpt lat="48.943433" lon="8.660855">
<ele>359.5</ele>
<speed>3.7</speed>
<course>38.1</course>
<desc>Speed 3.7 km/h Distance 0.26 km</desc>
<time>2010-02-27T10:04:00.11</time>
<name>157</name>
</trkpt>
<trkpt lat="48.943442" lon="8.660865">
<ele>359.5</ele>
<speed>5.5</speed>
<course>65.5</course>
<desc>Speed 5.5 km/h Distance 0.26 km</desc>
<time>2010-02-27T10:04:01.11</time>
<name>158</name>
</trkpt>
<trkpt lat="48.943447" lon="8.660882">
<ele>359.5</ele>
<speed>5.1</speed>
<course>63.0</course>
<desc>Speed 5.1 km/h Distance 0.27 km</desc>
<time>2010-02-27T10:04:02.11</time>
<name>159</name>
</trkpt>
<trkpt lat="48.943450" lon="8.660892">
<ele>359.5</ele>
<speed>3.2</speed>
<course>117.4</course>
<desc>Speed 3.2 km/h Distance 0.27 km</desc>
<time>2010-02-27T10:04:03.10</time>
<name>160</name>
</trkpt>
<trkpt lat="48.943448" lon="8.660897">
<ele>359.5</ele>
<speed>1.8</speed>
<course>63.0</course>
<desc>Speed 1.8 km/h Distance 0.27 km</desc>
<time>2010-02-27T10:04:04.11</time>
<name>161</name>
</trkpt>
<trkpt lat="48.943452" lon="8.660907">
<ele>359.5</ele>
<speed>2.9</speed>
<course>33.7</course>
<desc>Speed 2.9 km/h Distance 0.27 km</desc>
<time>2010-02-27T10:04:05.10</time>
<name>162</name>
</trkpt>
<trkpt lat="48.943455" lon="8.660910">
<ele>359.5</ele>
<speed>1.5</speed>
<course>75.8</course>
<desc>Speed 1.5 km/h Distance 0.27 km</desc>
<time>2010-02-27T10:04:06.11</time>
<name>163</name>
</trkpt>
<trkpt lat="48.943462" lon="8.660950">
<ele>359.5</ele>
<speed>6.2</speed>
<course>79.3</course>
<desc>Speed 6.2 km/h Distance 0.27 km</desc>
<time>2010-02-27T10:04:08.11</time>
<name>164</name>
</trkpt>
<trkpt lat="48.943463" lon="8.660963">
<ele>359.5</ele>
<speed>3.3</speed>
<course>67.5</course>
<desc>Speed 3.3 km/h Distance 0.27 km</desc>
<time>2010-02-27T10:04:09.11</time>
<name>165</name>
</trkpt>
<trkpt lat="48.943468" lon="8.660982">
<ele>359.5</ele>
<speed>3.9</speed>
<course>58.6</course>
<desc>Speed 3.9 km/h Distance 0.27 km</desc>
<time>2010-02-27T10:04:10.11</time>
<name>166</name>
</trkpt>
<trkpt lat="48.943475" lon="8.660998">
<ele>359.5</ele>
<speed>3.5</speed>
<course>42.5</course>
<desc>Speed 3.5 km/h Distance 0.28 km</desc>
<time>2010-02-27T10:04:11.10</time>
<name>167</name>
</trkpt>
<trkpt lat="48.943483" lon="8.661010">
<ele>359.5</ele>
<speed>1.1</speed>
<course>41.6</course>
<desc>Speed 1.1 km/h Distance 0.28 km</desc>
<time>2010-02-27T10:04:12.10</time>
<name>168</name>
</trkpt>
<trkpt lat="48.943517" lon="8.661055">
<ele>359.5</ele>
<speed>5.3</speed>
<course>52.7</course>
<desc>Speed 5.3 km/h Distance 0.28 km</desc>
<time>2010-02-27T10:04:14.10</time>
<name>169</name>
</trkpt>
<trkpt lat="48.943525" lon="8.661072">
<ele>359.5</ele>
<speed>4.6</speed>
<course>63.1</course>
<desc>Speed 4.6 km/h Distance 0.28 km</desc>
<time>2010-02-27T10:04:15.10</time>
<name>170</name>
</trkpt>
<trkpt lat="48.943530" lon="8.661087">
<ele>359.5</ele>
<speed>3.4</speed>
<course>23.8</course>
<desc>Speed 3.4 km/h Distance 0.28 km</desc>
<time>2010-02-27T10:04:16.10</time>
<name>171</name>
</trkpt>
<trkpt lat="48.943535" lon="8.661090">
<ele>359.5</ele>
<speed>0.4</speed>
<course>90.0</course>
<desc>Speed 0.4 km/h Distance 0.28 km</desc>
<time>2010-02-27T10:04:17.10</time>
<name>172</name>
</trkpt>
<trkpt lat="48.943535" lon="8.661092">
<ele>359.5</ele>
<speed>0.2</speed>
<course>37.2</course>
<desc>Speed 0.2 km/h Distance 0.28 km</desc>
<time>2010-02-27T10:04:18.10</time>
<name>173</name>
</trkpt>
<trkpt lat="48.943537" lon="8.661093">
<ele>359.5</ele>
<speed>0.6</speed>
<course>142.8</course>
<desc>Speed 0.6 km/h Distance 0.29 km</desc>
<time>2010-02-27T10:04:19.10</time>
<name>174</name>
</trkpt>
<trkpt lat="48.943535" lon="8.661095">
<ele>359.5</ele>
<speed>1.0</speed>
<course>252.9</course>
<desc>Speed 1.0 km/h Distance 0.29 km</desc>
<time>2010-02-27T10:04:20.10</time>
<name>175</name>
</trkpt>
<trkpt lat="48.943533" lon="8.661087">
<ele>359.5</ele>
<speed>3.1</speed>
<course>249.1</course>
<desc>Speed 3.1 km/h Distance 0.29 km</desc>
<time>2010-02-27T10:04:21.10</time>
<name>176</name>
</trkpt>
<trkpt lat="48.943532" lon="8.661080">
<ele>359.5</ele>
<speed>4.0</speed>
<course>226.5</course>
<desc>Speed 4.0 km/h Distance 0.29 km</desc>
<time>2010-02-27T10:04:22.10</time>
<name>177</name>
</trkpt>
<trkpt lat="48.943523" lon="8.661067">
<ele>359.5</ele>
<speed>5.2</speed>
<course>218.1</course>
<desc>Speed 5.2 km/h Distance 0.29 km</desc>
<time>2010-02-27T10:04:23.10</time>
<name>178</name>
</trkpt>
<trkpt lat="48.943515" lon="8.661057">
<ele>359.5</ele>
<speed>5.3</speed>
<course>224.5</course>
<desc>Speed 5.3 km/h Distance 0.29 km</desc>
<time>2010-02-27T10:04:24.10</time>
<name>179</name>
</trkpt>
<trkpt lat="48.943508" lon="8.661047">
<ele>359.5</ele>
<speed>5.1</speed>
<course>221.4</course>
<desc>Speed 5.1 km/h Distance 0.29 km</desc>
<time>2010-02-27T10:04:25.10</time>
<name>180</name>
</trkpt>
<trkpt lat="48.943503" lon="8.661040">
<ele>359.5</ele>
<speed>3.5</speed>
<course>219.4</course>
<desc>Speed 3.5 km/h Distance 0.29 km</desc>
<time>2010-02-27T10:04:26.10</time>
<name>181</name>
</trkpt>
<trkpt lat="48.943497" lon="8.661032">
<ele>359.5</ele>
<speed>4.5</speed>
<course>226.5</course>
<desc>Speed 4.5 km/h Distance 0.29 km</desc>
<time>2010-02-27T10:04:27.10</time>
<name>182</name>
</trkpt>
<trkpt lat="48.943488" lon="8.661018">
<ele>359.5</ele>
<speed>5.3</speed>
<course>232.7</course>
<desc>Speed 5.3 km/h Distance 0.29 km</desc>
<time>2010-02-27T10:04:28.10</time>
<name>183</name>
</trkpt>
<trkpt lat="48.943482" lon="8.661005">
<ele>359.5</ele>
<speed>5.1</speed>
<course>238.7</course>
<desc>Speed 5.1 km/h Distance 0.29 km</desc>
<time>2010-02-27T10:04:29.10</time>
<name>184</name>
</trkpt>
<trkpt lat="48.943475" lon="8.660988">
<ele>359.5</ele>
<speed>5.2</speed>
<course>227.6</course>
<desc>Speed 5.2 km/h Distance 0.30 km</desc>
<time>2010-02-27T10:04:30.10</time>
<name>185</name>
</trkpt>
<trkpt lat="48.943465" lon="8.660972">
<ele>359.5</ele>
<speed>5.3</speed>
<course>217.0</course>
<desc>Speed 5.3 km/h Distance 0.30 km</desc>
<time>2010-02-27T10:04:31.10</time>
<name>186</name>
</trkpt>
<trkpt lat="48.943453" lon="8.660958">
<ele>359.5</ele>
<speed>5.3</speed>
<course>229.9</course>
<desc>Speed 5.3 km/h Distance 0.30 km</desc>
<time>2010-02-27T10:04:32.10</time>
<name>187</name>
</trkpt>
<trkpt lat="48.943445" lon="8.660943">
<ele>359.5</ele>
<speed>4.5</speed>
<course>213.2</course>
<desc>Speed 4.5 km/h Distance 0.30 km</desc>
<time>2010-02-27T10:04:33.10</time>
<name>188</name>
</trkpt>
<trkpt lat="48.943437" lon="8.660935">
<ele>359.5</ele>
<speed>4.0</speed>
<course>220.2</course>
<desc>Speed 4.0 km/h Distance 0.30 km</desc>
<time>2010-02-27T10:04:34.10</time>
<name>189</name>
</trkpt>
<trkpt lat="48.943425" lon="8.660920">
<ele>359.5</ele>
<speed>5.5</speed>
<course>216.9</course>
<desc>Speed 5.5 km/h Distance 0.30 km</desc>
<time>2010-02-27T10:04:35.10</time>
<name>190</name>
</trkpt>
<trkpt lat="48.943413" lon="8.660907">
<ele>359.5</ele>
<speed>5.3</speed>
<course>225.9</course>
<desc>Speed 5.3 km/h Distance 0.30 km</desc>
<time>2010-02-27T10:04:36.09</time>
<name>191</name>
</trkpt>
<trkpt lat="48.943402" lon="8.660888">
<ele>359.5</ele>
<speed>6.4</speed>
<course>220.2</course>
<desc>Speed 6.4 km/h Distance 0.31 km</desc>
<time>2010-02-27T10:04:37.09</time>
<name>192</name>
</trkpt>
<trkpt lat="48.943390" lon="8.660873">
<ele>359.5</ele>
<speed>5.4</speed>
<course>221.3</course>
<desc>Speed 5.4 km/h Distance 0.31 km</desc>
<time>2010-02-27T10:04:38.09</time>
<name>193</name>
</trkpt>
<trkpt lat="48.943380" lon="8.660860">
<ele>359.5</ele>
<speed>4.9</speed>
<course>221.2</course>
<desc>Speed 4.9 km/h Distance 0.31 km</desc>
<time>2010-02-27T10:04:39.09</time>
<name>194</name>
</trkpt>
<trkpt lat="48.943370" lon="8.660847">
<ele>359.5</ele>
<speed>5.3</speed>
<course>218.1</course>
<desc>Speed 5.3 km/h Distance 0.31 km</desc>
<time>2010-02-27T10:04:40.10</time>
<name>195</name>
</trkpt>
<trkpt lat="48.943362" lon="8.660837">
<ele>359.5</ele>
<speed>3.6</speed>
<course>213.2</course>
<desc>Speed 3.6 km/h Distance 0.31 km</desc>
<time>2010-02-27T10:04:41.09</time>
<name>196</name>
</trkpt>
<trkpt lat="48.943352" lon="8.660827">
<ele>359.5</ele>
<speed>4.5</speed>
<course>221.2</course>
<desc>Speed 4.5 km/h Distance 0.31 km</desc>
<time>2010-02-27T10:04:42.09</time>
<name>197</name>
</trkpt>
<trkpt lat="48.943342" lon="8.660813">
<ele>359.5</ele>
<speed>4.9</speed>
<course>218.1</course>
<desc>Speed 4.9 km/h Distance 0.32 km</desc>
<time>2010-02-27T10:04:43.09</time>
<name>198</name>
</trkpt>
<trkpt lat="48.943333" lon="8.660803">
<ele>359.5</ele>
<speed>3.6</speed>
<course>225.6</course>
<desc>Speed 3.6 km/h Distance 0.32 km</desc>
<time>2010-02-27T10:04:44.09</time>
<name>199</name>
</trkpt>
<trkpt lat="48.943318" lon="8.660780">
<ele>359.5</ele>
<speed>7.9</speed>
<course>225.9</course>
<desc>Speed 7.9 km/h Distance 0.32 km</desc>
<time>2010-02-27T10:04:45.09</time>
<name>200</name>
</trkpt>
<trkpt lat="48.943307" lon="8.660762">
<ele>359.5</ele>
<speed>6.1</speed>
<course>223.3</course>
<desc>Speed 6.1 km/h Distance 0.32 km</desc>
<time>2010-02-27T10:04:46.09</time>
<name>201</name>
</trkpt>
<trkpt lat="48.943295" lon="8.660745">
<ele>359.5</ele>
<speed>6.1</speed>
<course>222.6</course>
<desc>Speed 6.1 km/h Distance 0.32 km</desc>
<time>2010-02-27T10:04:47.09</time>
<name>202</name>
</trkpt>
<trkpt lat="48.943287" lon="8.660733">
<ele>359.5</ele>
<speed>4.2</speed>
<course>220.2</course>
<desc>Speed 4.2 km/h Distance 0.32 km</desc>
<time>2010-02-27T10:04:48.09</time>
<name>203</name>
</trkpt>
<trkpt lat="48.943275" lon="8.660718">
<ele>359.5</ele>
<speed>5.7</speed>
<course>220.2</course>
<desc>Speed 5.7 km/h Distance 0.33 km</desc>
<time>2010-02-27T10:04:49.09</time>
<name>204</name>
</trkpt>
<trkpt lat="48.943263" lon="8.660703">
<ele>359.5</ele>
<speed>5.7</speed>
<course>222.1</course>
<desc>Speed 5.7 km/h Distance 0.33 km</desc>
<time>2010-02-27T10:04:50.08</time>
<name>205</name>
</trkpt>
<trkpt lat="48.943250" lon="8.660685">
<ele>359.5</ele>
<speed>6.2</speed>
<course>222.6</course>
<desc>Speed 6.2 km/h Distance 0.33 km</desc>
<time>2010-02-27T10:04:51.09</time>
<name>206</name>
</trkpt>
<trkpt lat="48.943242" lon="8.660673">
<ele>359.5</ele>
<speed>3.9</speed>
<course>218.1</course>
<desc>Speed 3.9 km/h Distance 0.33 km</desc>
<time>2010-02-27T10:04:52.09</time>
<name>207</name>
</trkpt>
<trkpt lat="48.943233" lon="8.660663">
<ele>359.5</ele>
<speed>3.7</speed>
<course>224.5</course>
<desc>Speed 3.7 km/h Distance 0.33 km</desc>
<time>2010-02-27T10:04:53.09</time>
<name>208</name>
</trkpt>
<trkpt lat="48.943227" lon="8.660653">
<ele>359.5</ele>
<speed>3.7</speed>
<course>220.2</course>
<desc>Speed 3.7 km/h Distance 0.33 km</desc>
<time>2010-02-27T10:04:54.09</time>
<name>209</name>
</trkpt>
<trkpt lat="48.943215" lon="8.660638">
<ele>359.5</ele>
<speed>5.5</speed>
<course>216.9</course>
<desc>Speed 5.5 km/h Distance 0.33 km</desc>
<time>2010-02-27T10:04:55.09</time>
<name>210</name>
</trkpt>
<trkpt lat="48.943203" lon="8.660625">
<ele>359.5</ele>
<speed>5.8</speed>
<course>216.0</course>
<desc>Speed 5.8 km/h Distance 0.34 km</desc>
<time>2010-02-27T10:04:56.09</time>
<name>211</name>
</trkpt>
<trkpt lat="48.943188" lon="8.660608">
<ele>359.5</ele>
<speed>6.3</speed>
<course>220.2</course>
<desc>Speed 6.3 km/h Distance 0.34 km</desc>
<time>2010-02-27T10:04:57.09</time>
<name>212</name>
</trkpt>
<trkpt lat="48.943177" lon="8.660593">
<ele>359.5</ele>
<speed>5.1</speed>
<course>222.0</course>
<desc>Speed 5.1 km/h Distance 0.34 km</desc>
<time>2010-02-27T10:04:58.08</time>
<name>213</name>
</trkpt>
<trkpt lat="48.943163" lon="8.660575">
<ele>359.5</ele>
<speed>5.4</speed>
<course>213.3</course>
<desc>Speed 5.4 km/h Distance 0.34 km</desc>
<time>2010-02-27T10:04:59.08</time>
<name>214</name>
</trkpt>
<trkpt lat="48.943152" lon="8.660563">
<ele>359.5</ele>
<speed>4.6</speed>
<course>213.4</course>
<desc>Speed 4.6 km/h Distance 0.34 km</desc>
<time>2010-02-27T10:05:00.09</time>
<name>215</name>
</trkpt>
<trkpt lat="48.943138" lon="8.660550">
<ele>359.5</ele>
<speed>5.5</speed>
<course>216.9</course>
<desc>Speed 5.5 km/h Distance 0.35 km</desc>
<time>2010-02-27T10:05:01.08</time>
<name>216</name>
</trkpt>
<trkpt lat="48.943127" lon="8.660537">
<ele>359.5</ele>
<speed>4.9</speed>
<course>216.9</course>
<desc>Speed 4.9 km/h Distance 0.35 km</desc>
<time>2010-02-27T10:05:02.08</time>
<name>217</name>
</trkpt>
<trkpt lat="48.943115" lon="8.660523">
<ele>359.5</ele>
<speed>4.7</speed>
<course>220.2</course>
<desc>Speed 4.7 km/h Distance 0.35 km</desc>
<time>2010-02-27T10:05:03.08</time>
<name>218</name>
</trkpt>
<trkpt lat="48.943103" lon="8.660508">
<ele>359.5</ele>
<speed>5.5</speed>
<course>220.2</course>
<desc>Speed 5.5 km/h Distance 0.35 km</desc>
<time>2010-02-27T10:05:04.08</time>
<name>219</name>
</trkpt>
<trkpt lat="48.943092" lon="8.660493">
<ele>359.5</ele>
<speed>5.3</speed>
<course>213.2</course>
<desc>Speed 5.3 km/h Distance 0.35 km</desc>
<time>2010-02-27T10:05:05.08</time>
<name>220</name>
</trkpt>
<trkpt lat="48.943078" lon="8.660480">
<ele>359.5</ele>
<speed>6.0</speed>
<course>216.9</course>
<desc>Speed 6.0 km/h Distance 0.35 km</desc>
<time>2010-02-27T10:05:06.08</time>
<name>221</name>
</trkpt>
<trkpt lat="48.943067" lon="8.660467">
<ele>359.5</ele>
<speed>5.4</speed>
<course>216.6</course>
<desc>Speed 5.4 km/h Distance 0.36 km</desc>
<time>2010-02-27T10:05:07.08</time>
<name>222</name>
</trkpt>
<trkpt lat="48.943053" lon="8.660452">
<ele>359.5</ele>
<speed>5.7</speed>
<course>216.2</course>
<desc>Speed 5.7 km/h Distance 0.36 km</desc>
<time>2010-02-27T10:05:08.08</time>
<name>223</name>
</trkpt>
<trkpt lat="48.943038" lon="8.660435">
<ele>359.5</ele>
<speed>6.2</speed>
<course>213.4</course>
<desc>Speed 6.2 km/h Distance 0.36 km</desc>
<time>2010-02-27T10:05:09.08</time>
<name>224</name>
</trkpt>
<trkpt lat="48.943025" lon="8.660422">
<ele>359.5</ele>
<speed>5.2</speed>
<course>223.3</course>
<desc>Speed 5.2 km/h Distance 0.36 km</desc>
<time>2010-02-27T10:05:10.09</time>
<name>225</name>
</trkpt>
<trkpt lat="48.943013" lon="8.660405">
<ele>359.5</ele>
<speed>5.0</speed>
<course>213.4</course>
<desc>Speed 5.0 km/h Distance 0.36 km</desc>
<time>2010-02-27T10:05:11.08</time>
<name>226</name>
</trkpt>
<trkpt lat="48.943000" lon="8.660392">
<ele>359.5</ele>
<speed>5.7</speed>
<course>208.9</course>
<desc>Speed 5.7 km/h Distance 0.36 km</desc>
<time>2010-02-27T10:05:12.08</time>
<name>227</name>
</trkpt>
<trkpt lat="48.942990" lon="8.660383">
<ele>359.5</ele>
<speed>4.7</speed>
<course>217.5</course>
<desc>Speed 4.7 km/h Distance 0.37 km</desc>
<time>2010-02-27T10:05:13.08</time>
<name>228</name>
</trkpt>
<trkpt lat="48.942980" lon="8.660372">
<ele>359.5</ele>
<speed>4.1</speed>
<course>221.4</course>
<desc>Speed 4.1 km/h Distance 0.37 km</desc>
<time>2010-02-27T10:05:14.07</time>
<name>229</name>
</trkpt>
<trkpt lat="48.942975" lon="8.660365">
<ele>359.5</ele>
<speed>2.7</speed>
<course>110.9</course>
<desc>Speed 2.7 km/h Distance 0.37 km</desc>
<time>2010-02-27T10:05:15.08</time>
<name>230</name>
</trkpt>
<trkpt lat="48.942973" lon="8.660372">
<ele>359.5</ele>
<speed>1.8</speed>
<course>90.0</course>
<desc>Speed 1.8 km/h Distance 0.37 km</desc>
<time>2010-02-27T10:05:16.08</time>
<name>231</name>
</trkpt>
<trkpt lat="48.942973" lon="8.660375">
<ele>359.5</ele>
<speed>1.4</speed>
<course>90.0</course>
<desc>Speed 1.4 km/h Distance 0.37 km</desc>
<time>2010-02-27T10:05:17.08</time>
<name>232</name>
</trkpt>
<trkpt lat="48.942973" lon="8.660378">
<ele>359.5</ele>
<speed>0.9</speed>
<course>217.2</course>
<desc>Speed 0.9 km/h Distance 0.37 km</desc>
<time>2010-02-27T10:05:18.08</time>
<name>233</name>
</trkpt>
<trkpt lat="48.942972" lon="8.660377">
<ele>359.5</ele>
<speed>0.4</speed>
<course>198.8</course>
<desc>Speed 0.4 km/h Distance 0.37 km</desc>
<time>2010-02-27T10:05:19.08</time>
<name>234</name>
</trkpt>
<trkpt lat="48.942968" lon="8.660375">
<ele>359.5</ele>
<speed>1.0</speed>
<course>192.6</course>
<desc>Speed 1.0 km/h Distance 0.37 km</desc>
<time>2010-02-27T10:05:20.08</time>
<name>235</name>
</trkpt>
<trkpt lat="48.942965" lon="8.660373">
<ele>359.5</ele>
<speed>1.3</speed>
<course>229.4</course>
<desc>Speed 1.3 km/h Distance 0.37 km</desc>
<time>2010-02-27T10:05:21.08</time>
<name>236</name>
</trkpt>
<trkpt lat="48.942963" lon="8.660370">
<ele>359.5</ele>
<speed>0.9</speed>
<course>220.9</course>
<desc>Speed 0.9 km/h Distance 0.37 km</desc>
<time>2010-02-27T10:05:22.08</time>
<name>237</name>
</trkpt>
<trkpt lat="48.942958" lon="8.660363">
<ele>359.5</ele>
<speed>1.4</speed>
<course>231.9</course>
<desc>Speed 1.4 km/h Distance 0.37 km</desc>
<time>2010-02-27T10:05:23.08</time>
<name>238</name>
</trkpt>
<trkpt lat="48.942957" lon="8.660360">
<ele>359.5</ele>
<speed>0.6</speed>
<course>213.7</course>
<desc>Speed 0.6 km/h Distance 0.37 km</desc>
<time>2010-02-27T10:05:24.08</time>
<name>239</name>
</trkpt>
<trkpt lat="48.942953" lon="8.660357">
<ele>359.5</ele>
<speed>0.3</speed>
<course>213.7</course>
<desc>Speed 0.3 km/h Distance 0.37 km</desc>
<time>2010-02-27T10:05:25.07</time>
<name>240</name>
</trkpt>
<trkpt lat="48.942953" lon="8.660357">
<ele>359.5</ele>
<speed>0.5</speed>
<course>221.2</course>
<desc>Speed 0.5 km/h Distance 0.37 km</desc>
<time>2010-02-27T10:05:26.07</time>
<name>241</name>
</trkpt>
<trkpt lat="48.942943" lon="8.660343">
<ele>359.5</ele>
<speed>4.5</speed>
<course>225.9</course>
<desc>Speed 4.5 km/h Distance 0.37 km</desc>
<time>2010-02-27T10:05:27.08</time>
<name>242</name>
</trkpt>
<trkpt lat="48.942932" lon="8.660325">
<ele>359.5</ele>
<speed>5.8</speed>
<course>207.7</course>
<desc>Speed 5.8 km/h Distance 0.38 km</desc>
<time>2010-02-27T10:05:28.07</time>
<name>243</name>
</trkpt>
<trkpt lat="48.942915" lon="8.660312">
<ele>359.5</ele>
<speed>6.1</speed>
<course>216.4</course>
<desc>Speed 6.1 km/h Distance 0.38 km</desc>
<time>2010-02-27T10:05:29.07</time>
<name>244</name>
</trkpt>
<trkpt lat="48.942902" lon="8.660297">
<ele>359.5</ele>
<speed>5.2</speed>
<course>215.8</course>
<desc>Speed 5.2 km/h Distance 0.38 km</desc>
<time>2010-02-27T10:05:30.07</time>
<name>245</name>
</trkpt>
<trkpt lat="48.942885" lon="8.660278">
<ele>359.5</ele>
<speed>5.5</speed>
<course>215.8</course>
<desc>Speed 5.5 km/h Distance 0.38 km</desc>
<time>2010-02-27T10:05:31.07</time>
<name>246</name>
</trkpt>
<trkpt lat="48.942868" lon="8.660260">
<ele>359.5</ele>
<speed>5.6</speed>
<course>205.5</course>
<desc>Speed 5.6 km/h Distance 0.38 km</desc>
<time>2010-02-27T10:05:32.07</time>
<name>247</name>
</trkpt>
<trkpt lat="48.942850" lon="8.660247">
<ele>359.5</ele>
<speed>5.5</speed>
<course>210.3</course>
<desc>Speed 5.5 km/h Distance 0.39 km</desc>
<time>2010-02-27T10:05:33.07</time>
<name>248</name>
</trkpt>
<trkpt lat="48.942835" lon="8.660233">
<ele>359.5</ele>
<speed>5.2</speed>
<course>213.4</course>
<desc>Speed 5.2 km/h Distance 0.39 km</desc>
<time>2010-02-27T10:05:34.08</time>
<name>249</name>
</trkpt>
<trkpt lat="48.942822" lon="8.660220">
<ele>359.5</ele>
<speed>5.1</speed>
<course>210.6</course>
<desc>Speed 5.1 km/h Distance 0.39 km</desc>
<time>2010-02-27T10:05:35.07</time>
<name>250</name>
</trkpt>
<trkpt lat="48.942805" lon="8.660205">
<ele>359.5</ele>
<speed>5.6</speed>
<course>217.8</course>
<desc>Speed 5.6 km/h Distance 0.39 km</desc>
<time>2010-02-27T10:05:36.07</time>
<name>251</name>
</trkpt>
<trkpt lat="48.942787" lon="8.660183">
<ele>359.5</ele>
<speed>6.0</speed>
<course>217.8</course>
<desc>Speed 6.0 km/h Distance 0.39 km</desc>
<time>2010-02-27T10:05:37.07</time>
<name>252</name>
</trkpt>
<trkpt lat="48.942768" lon="8.660162">
<ele>359.5</ele>
<speed>6.3</speed>
<course>218.3</course>
<desc>Speed 6.3 km/h Distance 0.40 km</desc>
<time>2010-02-27T10:05:38.07</time>
<name>253</name>
</trkpt>
<trkpt lat="48.942752" lon="8.660142">
<ele>359.5</ele>
<speed>5.7</speed>
<course>222.6</course>
<desc>Speed 5.7 km/h Distance 0.40 km</desc>
<time>2010-02-27T10:05:39.07</time>
<name>254</name>
</trkpt>
<trkpt lat="48.942735" lon="8.660118">
<ele>359.5</ele>
<speed>5.8</speed>
<course>213.3</course>
<desc>Speed 5.8 km/h Distance 0.40 km</desc>
<time>2010-02-27T10:05:40.06</time>
<name>255</name>
</trkpt>
<trkpt lat="48.942720" lon="8.660103">
<ele>359.5</ele>
<speed>6.4</speed>
<course>215.8</course>
<desc>Speed 6.4 km/h Distance 0.40 km</desc>
<time>2010-02-27T10:05:41.06</time>
<name>256</name>
</trkpt>
<trkpt lat="48.942703" lon="8.660085">
<ele>359.5</ele>
<speed>6.4</speed>
<course>219.4</course>
<desc>Speed 6.4 km/h Distance 0.41 km</desc>
<time>2010-02-27T10:05:42.06</time>
<name>257</name>
</trkpt>
<trkpt lat="48.942690" lon="8.660068">
<ele>359.5</ele>
<speed>5.8</speed>
<course>215.8</course>
<desc>Speed 5.8 km/h Distance 0.41 km</desc>
<time>2010-02-27T10:05:43.06</time>
<name>258</name>
</trkpt>
<trkpt lat="48.942673" lon="8.660050">
<ele>359.5</ele>
<speed>6.5</speed>
<course>215.8</course>
<desc>Speed 6.5 km/h Distance 0.41 km</desc>
<time>2010-02-27T10:05:44.07</time>
<name>259</name>
</trkpt>
<trkpt lat="48.942657" lon="8.660032">
<ele>359.5</ele>
<speed>6.5</speed>
<course>219.4</course>
<desc>Speed 6.5 km/h Distance 0.41 km</desc>
<time>2010-02-27T10:05:45.06</time>
<name>260</name>
</trkpt>
<trkpt lat="48.942643" lon="8.660015">
<ele>359.5</ele>
<speed>6.2</speed>
<course>207.7</course>
<desc>Speed 6.2 km/h Distance 0.41 km</desc>
<time>2010-02-27T10:05:46.07</time>
<name>261</name>
</trkpt>
<trkpt lat="48.942627" lon="8.660002">
<ele>359.5</ele>
<speed>6.7</speed>
<course>206.4</course>
<desc>Speed 6.7 km/h Distance 0.42 km</desc>
<time>2010-02-27T10:05:47.06</time>
<name>262</name>
</trkpt>
<trkpt lat="48.942613" lon="8.659992">
<ele>359.5</ele>
<speed>5.4</speed>
<course>213.4</course>
<desc>Speed 5.4 km/h Distance 0.42 km</desc>
<time>2010-02-27T10:05:48.07</time>
<name>263</name>
</trkpt>
<trkpt lat="48.942600" lon="8.659978">
<ele>359.5</ele>
<speed>6.0</speed>
<course>210.3</course>
<desc>Speed 6.0 km/h Distance 0.42 km</desc>
<time>2010-02-27T10:05:49.06</time>
<name>264</name>
</trkpt>
<trkpt lat="48.942585" lon="8.659965">
<ele>359.5</ele>
<speed>5.8</speed>
<course>213.3</course>
<desc>Speed 5.8 km/h Distance 0.42 km</desc>
<time>2010-02-27T10:05:50.06</time>
<name>265</name>
</trkpt>
<trkpt lat="48.942570" lon="8.659950">
<ele>359.5</ele>
<speed>6.7</speed>
<course>216.1</course>
<desc>Speed 6.7 km/h Distance 0.42 km</desc>
<time>2010-02-27T10:05:51.06</time>
<name>266</name>
</trkpt>
<trkpt lat="48.942555" lon="8.659933">
<ele>359.5</ele>
<speed>6.1</speed>
<course>209.2</course>
<desc>Speed 6.1 km/h Distance 0.43 km</desc>
<time>2010-02-27T10:05:52.06</time>
<name>267</name>
</trkpt>
<trkpt lat="48.942543" lon="8.659923">
<ele>359.5</ele>
<speed>4.9</speed>
<course>213.2</course>
<desc>Speed 4.9 km/h Distance 0.43 km</desc>
<time>2010-02-27T10:05:53.06</time>
<name>268</name>
</trkpt>
<trkpt lat="48.942530" lon="8.659910">
<ele>359.5</ele>
<speed>6.1</speed>
<course>216.9</course>
<desc>Speed 6.1 km/h Distance 0.43 km</desc>
<time>2010-02-27T10:05:54.06</time>
<name>269</name>
</trkpt>
<trkpt lat="48.942518" lon="8.659897">
<ele>359.5</ele>
<speed>5.1</speed>
<course>216.2</course>
<desc>Speed 5.1 km/h Distance 0.43 km</desc>
<time>2010-02-27T10:05:55.06</time>
<name>270</name>
</trkpt>
<trkpt lat="48.942503" lon="8.659880">
<ele>359.5</ele>
<speed>6.3</speed>
<course>209.8</course>
<desc>Speed 6.3 km/h Distance 0.43 km</desc>
<time>2010-02-27T10:05:56.06</time>
<name>271</name>
</trkpt>
<trkpt lat="48.942490" lon="8.659868">
<ele>359.5</ele>
<speed>5.4</speed>
<course>216.6</course>
<desc>Speed 5.4 km/h Distance 0.43 km</desc>
<time>2010-02-27T10:05:57.06</time>
<name>272</name>
</trkpt>
<trkpt lat="48.942477" lon="8.659853">
<ele>359.5</ele>
<speed>6.4</speed>
<course>216.9</course>
<desc>Speed 6.4 km/h Distance 0.44 km</desc>
<time>2010-02-27T10:05:58.06</time>
<name>273</name>
</trkpt>
<trkpt lat="48.942465" lon="8.659840">
<ele>359.5</ele>
<speed>5.3</speed>
<course>216.6</course>
<desc>Speed 5.3 km/h Distance 0.44 km</desc>
<time>2010-02-27T10:05:59.06</time>
<name>274</name>
</trkpt>
<trkpt lat="48.942452" lon="8.659825">
<ele>359.5</ele>
<speed>6.1</speed>
<course>213.3</course>
<desc>Speed 6.1 km/h Distance 0.44 km</desc>
<time>2010-02-27T10:06:00.06</time>
<name>275</name>
</trkpt>
<trkpt lat="48.942438" lon="8.659812">
<ele>359.5</ele>
<speed>5.5</speed>
<course>220.2</course>
<desc>Speed 5.5 km/h Distance 0.44 km</desc>
<time>2010-02-27T10:06:01.05</time>
<name>276</name>
</trkpt>
<trkpt lat="48.942427" lon="8.659797">
<ele>359.5</ele>
<speed>5.8</speed>
<course>213.4</course>
<desc>Speed 5.8 km/h Distance 0.44 km</desc>
<time>2010-02-27T10:06:02.06</time>
<name>277</name>
</trkpt>
<trkpt lat="48.942415" lon="8.659785">
<ele>359.5</ele>
<speed>5.3</speed>
<course>218.6</course>
<desc>Speed 5.3 km/h Distance 0.45 km</desc>
<time>2010-02-27T10:06:03.05</time>
<name>278</name>
</trkpt>
<trkpt lat="48.942407" lon="8.659775">
<ele>359.5</ele>
<speed>3.9</speed>
<course>224.7</course>
<desc>Speed 3.9 km/h Distance 0.45 km</desc>
<time>2010-02-27T10:06:04.06</time>
<name>279</name>
</trkpt>
<trkpt lat="48.942397" lon="8.659760">
<ele>359.5</ele>
<speed>5.7</speed>
<course>213.4</course>
<desc>Speed 5.7 km/h Distance 0.45 km</desc>
<time>2010-02-27T10:06:05.05</time>
<name>280</name>
</trkpt>
<trkpt lat="48.942385" lon="8.659748">
<ele>359.5</ele>
<speed>5.4</speed>
<course>203.8</course>
<desc>Speed 5.4 km/h Distance 0.45 km</desc>
<time>2010-02-27T10:06:06.06</time>
<name>281</name>
</trkpt>
<trkpt lat="48.942375" lon="8.659742">
<ele>359.5</ele>
<speed>4.9</speed>
<course>200.9</course>
<desc>Speed 4.9 km/h Distance 0.45 km</desc>
<time>2010-02-27T10:06:07.06</time>
<name>282</name>
</trkpt>
<trkpt lat="48.942363" lon="8.659735">
<ele>359.5</ele>
<speed>4.8</speed>
<course>198.2</course>
<desc>Speed 4.8 km/h Distance 0.45 km</desc>
<time>2010-02-27T10:06:08.05</time>
<name>283</name>
</trkpt>
<trkpt lat="48.942353" lon="8.659730">
<ele>359.5</ele>
<speed>4.9</speed>
<course>190.4</course>
<desc>Speed 4.9 km/h Distance 0.45 km</desc>
<time>2010-02-27T10:06:09.05</time>
<name>284</name>
</trkpt>
<trkpt lat="48.942342" lon="8.659727">
<ele>359.5</ele>
<speed>5.1</speed>
<course>190.4</course>
<desc>Speed 5.1 km/h Distance 0.45 km</desc>
<time>2010-02-27T10:06:10.06</time>
<name>285</name>
</trkpt>
<trkpt lat="48.942330" lon="8.659723">
<ele>359.5</ele>
<speed>5.0</speed>
<course>178.8</course>
<desc>Speed 5.0 km/h Distance 0.46 km</desc>
<time>2010-02-27T10:06:11.05</time>
<name>286</name>
</trkpt>
<trkpt lat="48.942317" lon="8.659723">
<ele>359.5</ele>
<speed>4.8</speed>
<course>198.1</course>
<desc>Speed 4.8 km/h Distance 0.46 km</desc>
<time>2010-02-27T10:06:12.05</time>
<name>287</name>
</trkpt>
<trkpt lat="48.942303" lon="8.659717">
<ele>359.5</ele>
<speed>5.5</speed>
<course>192.6</course>
<desc>Speed 5.5 km/h Distance 0.46 km</desc>
<time>2010-02-27T10:06:13.05</time>
<name>288</name>
</trkpt>
<trkpt lat="48.942293" lon="8.659713">
<ele>359.5</ele>
<speed>4.7</speed>
<course>190.4</course>
<desc>Speed 4.7 km/h Distance 0.46 km</desc>
<time>2010-02-27T10:06:14.05</time>
<name>289</name>
</trkpt>
<trkpt lat="48.942282" lon="8.659710">
<ele>359.5</ele>
<speed>4.5</speed>
<course>175.0</course>
<desc>Speed 4.5 km/h Distance 0.46 km</desc>
<time>2010-02-27T10:06:15.05</time>
<name>290</name>
</trkpt>
<trkpt lat="48.942273" lon="8.659712">
<ele>359.5</ele>
<speed>3.8</speed>
<course>191.2</course>
<desc>Speed 3.8 km/h Distance 0.46 km</desc>
<time>2010-02-27T10:06:16.06</time>
<name>291</name>
</trkpt>
<trkpt lat="48.942262" lon="8.659708">
<ele>359.5</ele>
<speed>5.0</speed>
<course>163.4</course>
<desc>Speed 5.0 km/h Distance 0.46 km</desc>
<time>2010-02-27T10:06:17.05</time>
<name>292</name>
</trkpt>
<trkpt lat="48.942243" lon="8.659717">
<ele>359.5</ele>
<speed>7.5</speed>
<course>192.6</course>
<desc>Speed 7.5 km/h Distance 0.47 km</desc>
<time>2010-02-27T10:06:18.05</time>
<name>293</name>
</trkpt>
<trkpt lat="48.942238" lon="8.659715">
<ele>359.5</ele>
<speed>1.7</speed>
<course>161.2</course>
<desc>Speed 1.7 km/h Distance 0.47 km</desc>
<time>2010-02-27T10:06:19.05</time>
<name>294</name>
</trkpt>
<trkpt lat="48.942235" lon="8.659717">
<ele>359.5</ele>
<speed>1.2</speed>
<course>178.8</course>
<desc>Speed 1.2 km/h Distance 0.47 km</desc>
<time>2010-02-27T10:06:20.05</time>
<name>295</name>
</trkpt>
<trkpt lat="48.942222" lon="8.659717">
<ele>359.5</ele>
<speed>5.0</speed>
<course>180.0</course>
<desc>Speed 5.0 km/h Distance 0.47 km</desc>
<time>2010-02-27T10:06:21.05</time>
<name>296</name>
</trkpt>
<trkpt lat="48.942210" lon="8.659717">
<ele>359.5</ele>
<speed>3.6</speed>
<course>167.4</course>
<desc>Speed 3.6 km/h Distance 0.47 km</desc>
<time>2010-02-27T10:06:22.05</time>
<name>297</name>
</trkpt>
<trkpt lat="48.942200" lon="8.659720">
<ele>359.5</ele>
<speed>3.6</speed>
<course>180.0</course>
<desc>Speed 3.6 km/h Distance 0.47 km</desc>
<time>2010-02-27T10:06:23.05</time>
<name>298</name>
</trkpt>
<trkpt lat="48.942190" lon="8.659720">
<ele>359.5</ele>
<speed>3.4</speed>
<course>175.0</course>
<desc>Speed 3.4 km/h Distance 0.47 km</desc>
<time>2010-02-27T10:06:24.05</time>
<name>299</name>
</trkpt>
<trkpt lat="48.942182" lon="8.659722">
<ele>359.5</ele>
<speed>2.5</speed>
<course>160.3</course>
<desc>Speed 2.5 km/h Distance 0.47 km</desc>
<time>2010-02-27T10:06:25.05</time>
<name>300</name>
</trkpt>
<trkpt lat="48.942145" lon="8.659742">
<ele>359.5</ele>
<speed>3.7</speed>
<course>170.2</course>
<desc>Speed 3.7 km/h Distance 0.48 km</desc>
<time>2010-02-27T10:06:27.05</time>
<name>301</name>
</trkpt>
<trkpt lat="48.942127" lon="8.659747">
<ele>359.5</ele>
<speed>4.7</speed>
<course>173.5</course>
<desc>Speed 4.7 km/h Distance 0.48 km</desc>
<time>2010-02-27T10:06:28.05</time>
<name>302</name>
</trkpt>
<trkpt lat="48.942108" lon="8.659750">
<ele>359.5</ele>
<speed>4.4</speed>
<course>172.9</course>
<desc>Speed 4.4 km/h Distance 0.48 km</desc>
<time>2010-02-27T10:06:29.05</time>
<name>303</name>
</trkpt>
<trkpt lat="48.942092" lon="8.659753">
<ele>359.5</ele>
<speed>4.5</speed>
<course>157.7</course>
<desc>Speed 4.5 km/h Distance 0.48 km</desc>
<time>2010-02-27T10:06:30.05</time>
<name>304</name>
</trkpt>
<trkpt lat="48.942078" lon="8.659762">
<ele>359.5</ele>
<speed>3.3</speed>
<course>169.8</course>
<desc>Speed 3.3 km/h Distance 0.48 km</desc>
<time>2010-02-27T10:06:31.05</time>
<name>305</name>
</trkpt>
<trkpt lat="48.942060" lon="8.659767">
<ele>359.5</ele>
<speed>5.3</speed>
<course>168.8</course>
<desc>Speed 5.3 km/h Distance 0.49 km</desc>
<time>2010-02-27T10:06:32.04</time>
<name>306</name>
</trkpt>
<trkpt lat="48.942048" lon="8.659770">
<ele>359.5</ele>
<speed>4.0</speed>
<course>175.6</course>
<desc>Speed 4.0 km/h Distance 0.49 km</desc>
<time>2010-02-27T10:06:33.05</time>
<name>307</name>
</trkpt>
<trkpt lat="48.942038" lon="8.659770">
<ele>359.5</ele>
<speed>3.4</speed>
<course>175.3</course>
<desc>Speed 3.4 km/h Distance 0.49 km</desc>
<time>2010-02-27T10:06:34.05</time>
<name>308</name>
</trkpt>
<trkpt lat="48.942027" lon="8.659772">
<ele>359.5</ele>
<speed>3.4</speed>
<course>185.3</course>
<desc>Speed 3.4 km/h Distance 0.49 km</desc>
<time>2010-02-27T10:06:35.05</time>
<name>309</name>
</trkpt>
<trkpt lat="48.942013" lon="8.659770">
<ele>359.5</ele>
<speed>3.7</speed>
<course>192.6</course>
<desc>Speed 3.7 km/h Distance 0.49 km</desc>
<time>2010-02-27T10:06:36.04</time>
<name>310</name>
</trkpt>
<trkpt lat="48.942003" lon="8.659767">
<ele>359.5</ele>
<speed>3.7</speed>
<course>180.0</course>
<desc>Speed 3.7 km/h Distance 0.49 km</desc>
<time>2010-02-27T10:06:37.04</time>
<name>311</name>
</trkpt>
<trkpt lat="48.941992" lon="8.659767">
<ele>359.0</ele>
<speed>3.6</speed>
<course>173.4</course>
<desc>Speed 3.6 km/h Distance 0.49 km</desc>
<time>2010-02-27T10:06:38.04</time>
<name>312</name>
</trkpt>
<trkpt lat="48.941982" lon="8.659768">
<ele>359.0</ele>
<speed>3.5</speed>
<course>79.8</course>
<desc>Speed 3.5 km/h Distance 0.50 km</desc>
<time>2010-02-27T10:06:39.04</time>
<name>313</name>
</trkpt>
<trkpt lat="48.941985" lon="8.659797">
<ele>359.0</ele>
<speed>7.4</speed>
<course>213.3</course>
<desc>Speed 7.4 km/h Distance 0.50 km</desc>
<time>2010-02-27T10:06:40.04</time>
<name>314</name>
</trkpt>
<trkpt lat="48.941957" lon="8.659768">
<ele>359.0</ele>
<speed>12.5</speed>
<course>194.3</course>
<desc>Speed 12.5 km/h Distance 0.50 km</desc>
<time>2010-02-27T10:06:41.04</time>
<name>315</name>
</trkpt>
<trkpt lat="48.941935" lon="8.659760">
<ele>359.0</ele>
<speed>2.8</speed>
<course>184.7</course>
<desc>Speed 2.8 km/h Distance 0.50 km</desc>
<time>2010-02-27T10:06:43.04</time>
<name>316</name>
</trkpt>
<trkpt lat="48.941923" lon="8.659758">
<ele>359.0</ele>
<speed>3.3</speed>
<course>185.0</course>
<desc>Speed 3.3 km/h Distance 0.51 km</desc>
<time>2010-02-27T10:06:44.04</time>
<name>317</name>
</trkpt>
<trkpt lat="48.941908" lon="8.659757">
<ele>359.0</ele>
<speed>4.8</speed>
<course>192.6</course>
<desc>Speed 4.8 km/h Distance 0.51 km</desc>
<time>2010-02-27T10:06:45.04</time>
<name>318</name>
</trkpt>
<trkpt lat="48.941893" lon="8.659752">
<ele>359.0</ele>
<speed>5.0</speed>
<course>180.0</course>
<desc>Speed 5.0 km/h Distance 0.51 km</desc>
<time>2010-02-27T10:06:46.04</time>
<name>319</name>
</trkpt>
<trkpt lat="48.941878" lon="8.659752">
<ele>359.0</ele>
<speed>4.2</speed>
<course>182.8</course>
<desc>Speed 4.2 km/h Distance 0.51 km</desc>
<time>2010-02-27T10:06:47.04</time>
<name>320</name>
</trkpt>
<trkpt lat="48.941862" lon="8.659750">
<ele>359.0</ele>
<speed>5.3</speed>
<course>166.4</course>
<desc>Speed 5.3 km/h Distance 0.51 km</desc>
<time>2010-02-27T10:06:48.04</time>
<name>321</name>
</trkpt>
<trkpt lat="48.941843" lon="8.659757">
<ele>359.0</ele>
<speed>4.2</speed>
<course>176.1</course>
<desc>Speed 4.2 km/h Distance 0.51 km</desc>
<time>2010-02-27T10:06:49.04</time>
<name>322</name>
</trkpt>
<trkpt lat="48.941830" lon="8.659758">
<ele>359.0</ele>
<speed>3.9</speed>
<course>185.3</course>
<desc>Speed 3.9 km/h Distance 0.52 km</desc>
<time>2010-02-27T10:06:50.04</time>
<name>323</name>
</trkpt>
<trkpt lat="48.941817" lon="8.659757">
<ele>359.0</ele>
<speed>4.8</speed>
<course>177.3</course>
<desc>Speed 4.8 km/h Distance 0.52 km</desc>
<time>2010-02-27T10:06:51.04</time>
<name>324</name>
</trkpt>
<trkpt lat="48.941797" lon="8.659757">
<ele>359.0</ele>
<speed>6.6</speed>
<course>174.7</course>
<desc>Speed 6.6 km/h Distance 0.52 km</desc>
<time>2010-02-27T10:06:52.04</time>
<name>325</name>
</trkpt>
<trkpt lat="48.941783" lon="8.659758">
<ele>359.0</ele>
<speed>4.0</speed>
<course>191.7</course>
<desc>Speed 4.0 km/h Distance 0.52 km</desc>
<time>2010-02-27T10:06:53.04</time>
<name>326</name>
</trkpt>
<trkpt lat="48.941768" lon="8.659753">
<ele>359.0</ele>
<speed>4.4</speed>
<course>189.5</course>
<desc>Speed 4.4 km/h Distance 0.52 km</desc>
<time>2010-02-27T10:06:54.03</time>
<name>327</name>
</trkpt>
<trkpt lat="48.941757" lon="8.659750">
<ele>359.0</ele>
<speed>3.9</speed>
<course>180.0</course>
<desc>Speed 3.9 km/h Distance 0.52 km</desc>
<time>2010-02-27T10:06:55.04</time>
<name>328</name>
</trkpt>
<trkpt lat="48.941735" lon="8.659750">
<ele>359.0</ele>
<speed>6.7</speed>
<course>185.3</course>
<desc>Speed 6.7 km/h Distance 0.53 km</desc>
<time>2010-02-27T10:06:56.03</time>
<name>329</name>
</trkpt>
<trkpt lat="48.941722" lon="8.659748">
<ele>359.0</ele>
<speed>3.5</speed>
<course>176.8</course>
<desc>Speed 3.5 km/h Distance 0.53 km</desc>
<time>2010-02-27T10:06:57.03</time>
<name>330</name>
</trkpt>
<trkpt lat="48.941700" lon="8.659750">
<ele>359.0</ele>
<speed>5.6</speed>
<course>177.2</course>
<desc>Speed 5.6 km/h Distance 0.53 km</desc>
<time>2010-02-27T10:06:58.03</time>
<name>331</name>
</trkpt>
<trkpt lat="48.941683" lon="8.659750">
<ele>359.0</ele>
<speed>4.1</speed>
<course>177.3</course>
<desc>Speed 4.1 km/h Distance 0.53 km</desc>
<time>2010-02-27T10:06:59.03</time>
<name>332</name>
</trkpt>
<trkpt lat="48.941663" lon="8.659752">
<ele>359.0</ele>
<speed>4.8</speed>
<course>182.5</course>
<desc>Speed 4.8 km/h Distance 0.53 km</desc>
<time>2010-02-27T10:07:00.03</time>
<name>333</name>
</trkpt>
<trkpt lat="48.941645" lon="8.659750">
<ele>359.0</ele>
<speed>4.8</speed>
<course>176.1</course>
<desc>Speed 4.8 km/h Distance 0.54 km</desc>
<time>2010-02-27T10:07:01.03</time>
<name>334</name>
</trkpt>
<trkpt lat="48.941632" lon="8.659752">
<ele>359.0</ele>
<speed>3.9</speed>
<course>176.1</course>
<desc>Speed 3.9 km/h Distance 0.54 km</desc>
<time>2010-02-27T10:07:02.04</time>
<name>335</name>
</trkpt>
<trkpt lat="48.941618" lon="8.659753">
<ele>359.0</ele>
<speed>3.9</speed>
<course>190.4</course>
<desc>Speed 3.9 km/h Distance 0.54 km</desc>
<time>2010-02-27T10:07:03.03</time>
<name>336</name>
</trkpt>
<trkpt lat="48.941607" lon="8.659750">
<ele>359.0</ele>
<speed>3.2</speed>
<course>180.0</course>
<desc>Speed 3.2 km/h Distance 0.54 km</desc>
<time>2010-02-27T10:07:04.03</time>
<name>337</name>
</trkpt>
<trkpt lat="48.941588" lon="8.659750">
<ele>359.0</ele>
<speed>4.8</speed>
<course>172.9</course>
<desc>Speed 4.8 km/h Distance 0.54 km</desc>
<time>2010-02-27T10:07:05.03</time>
<name>338</name>
</trkpt>
<trkpt lat="48.941572" lon="8.659753">
<ele>359.0</ele>
<speed>5.0</speed>
<course>171.0</course>
<desc>Speed 5.0 km/h Distance 0.54 km</desc>
<time>2010-02-27T10:07:06.03</time>
<name>339</name>
</trkpt>
<trkpt lat="48.941558" lon="8.659757">
<ele>359.0</ele>
<speed>4.2</speed>
<course>173.5</course>
<desc>Speed 4.2 km/h Distance 0.55 km</desc>
<time>2010-02-27T10:07:07.03</time>
<name>340</name>
</trkpt>
<trkpt lat="48.941542" lon="8.659760">
<ele>359.0</ele>
<speed>4.8</speed>
<course>196.0</course>
<desc>Speed 4.8 km/h Distance 0.55 km</desc>
<time>2010-02-27T10:07:08.03</time>
<name>341</name>
</trkpt>
<trkpt lat="48.941530" lon="8.659755">
<ele>359.0</ele>
<speed>4.4</speed>
<course>186.5</course>
<desc>Speed 4.4 km/h Distance 0.55 km</desc>
<time>2010-02-27T10:07:09.03</time>
<name>342</name>
</trkpt>
<trkpt lat="48.941513" lon="8.659752">
<ele>359.0</ele>
<speed>5.9</speed>
<course>184.1</course>
<desc>Speed 5.9 km/h Distance 0.55 km</desc>
<time>2010-02-27T10:07:10.04</time>
<name>343</name>
</trkpt>
<trkpt lat="48.941497" lon="8.659750">
<ele>359.0</ele>
<speed>6.2</speed>
<course>190.4</course>
<desc>Speed 6.2 km/h Distance 0.55 km</desc>
<time>2010-02-27T10:07:11.03</time>
<name>344</name>
</trkpt>
<trkpt lat="48.941485" lon="8.659747">
<ele>359.0</ele>
<speed>3.5</speed>
<course>180.0</course>
<desc>Speed 3.5 km/h Distance 0.55 km</desc>
<time>2010-02-27T10:07:12.03</time>
<name>345</name>
</trkpt>
<trkpt lat="48.941473" lon="8.659747">
<ele>359.0</ele>
<speed>3.0</speed>
<course>167.4</course>
<desc>Speed 3.0 km/h Distance 0.56 km</desc>
<time>2010-02-27T10:07:13.03</time>
<name>346</name>
</trkpt>
<trkpt lat="48.941463" lon="8.659750">
<ele>359.0</ele>
<speed>2.8</speed>
<course>175.3</course>
<desc>Speed 2.8 km/h Distance 0.56 km</desc>
<time>2010-02-27T10:07:14.03</time>
<name>347</name>
</trkpt>
<trkpt lat="48.941452" lon="8.659752">
<ele>359.0</ele>
<speed>2.9</speed>
<course>180.0</course>
<desc>Speed 2.9 km/h Distance 0.56 km</desc>
<time>2010-02-27T10:07:15.03</time>
<name>348</name>
</trkpt>
<trkpt lat="48.941437" lon="8.659752">
<ele>359.0</ele>
<speed>3.4</speed>
<course>189.8</course>
<desc>Speed 3.4 km/h Distance 0.56 km</desc>
<time>2010-02-27T10:07:16.03</time>
<name>349</name>
</trkpt>
<trkpt lat="48.941418" lon="8.659747">
<ele>359.0</ele>
<speed>5.5</speed>
<course>183.7</course>
<desc>Speed 5.5 km/h Distance 0.56 km</desc>
<time>2010-02-27T10:07:17.02</time>
<name>350</name>
</trkpt>
<trkpt lat="48.941400" lon="8.659745">
<ele>359.0</ele>
<speed>5.1</speed>
<course>175.3</course>
<desc>Speed 5.1 km/h Distance 0.56 km</desc>
<time>2010-02-27T10:07:18.02</time>
<name>351</name>
</trkpt>
<trkpt lat="48.941388" lon="8.659745">
<ele>359.0</ele>
<speed>3.2</speed>
<course>180.0</course>
<desc>Speed 3.2 km/h Distance 0.57 km</desc>
<time>2010-02-27T10:07:19.03</time>
<name>352</name>
</trkpt>
<trkpt lat="48.941373" lon="8.659745">
<ele>359.0</ele>
<speed>3.6</speed>
<course>190.2</course>
<desc>Speed 3.6 km/h Distance 0.57 km</desc>
<time>2010-02-27T10:07:20.02</time>
<name>353</name>
</trkpt>
<trkpt lat="48.941355" lon="8.659740">
<ele>359.0</ele>
<speed>3.4</speed>
<course>189.0</course>
<desc>Speed 3.4 km/h Distance 0.57 km</desc>
<time>2010-02-27T10:07:21.02</time>
<name>354</name>
</trkpt>
<trkpt lat="48.941342" lon="8.659737">
<ele>359.0</ele>
<speed>3.7</speed>
<course>189.0</course>
<desc>Speed 3.7 km/h Distance 0.57 km</desc>
<time>2010-02-27T10:07:22.02</time>
<name>355</name>
</trkpt>
<trkpt lat="48.941328" lon="8.659733">
<ele>359.0</ele>
<speed>3.9</speed>
<course>191.2</course>
<desc>Speed 3.9 km/h Distance 0.57 km</desc>
<time>2010-02-27T10:07:23.03</time>
<name>356</name>
</trkpt>
<trkpt lat="48.941317" lon="8.659730">
<ele>359.0</ele>
<speed>3.9</speed>
<course>192.6</course>
<desc>Speed 3.9 km/h Distance 0.57 km</desc>
<time>2010-02-27T10:07:24.02</time>
<name>357</name>
</trkpt>
<trkpt lat="48.941307" lon="8.659727">
<ele>359.0</ele>
<speed>3.7</speed>
<course>180.0</course>
<desc>Speed 3.7 km/h Distance 0.57 km</desc>
<time>2010-02-27T10:07:25.02</time>
<name>358</name>
</trkpt>
<trkpt lat="48.941295" lon="8.659727">
<ele>359.0</ele>
<speed>3.9</speed>
<course>178.8</course>
<desc>Speed 3.9 km/h Distance 0.58 km</desc>
<time>2010-02-27T10:07:26.02</time>
<name>359</name>
</trkpt>
<trkpt lat="48.941282" lon="8.659728">
<ele>359.0</ele>
<speed>4.2</speed>
<course>180.0</course>
<desc>Speed 4.2 km/h Distance 0.58 km</desc>
<time>2010-02-27T10:07:27.02</time>
<name>360</name>
</trkpt>
<trkpt lat="48.941273" lon="8.659728">
<ele>359.0</ele>
<speed>1.8</speed>
<course>285.4</course>
<desc>Speed 1.8 km/h Distance 0.58 km</desc>
<time>2010-02-27T10:07:28.02</time>
<name>361</name>
</trkpt>
<trkpt lat="48.941277" lon="8.659710">
<ele>359.0</ele>
<speed>4.9</speed>
<course>194.2</course>
<desc>Speed 4.9 km/h Distance 0.58 km</desc>
<time>2010-02-27T10:07:29.02</time>
<name>362</name>
</trkpt>
<trkpt lat="48.941255" lon="8.659702">
<ele>359.0</ele>
<speed>8.7</speed>
<course>201.5</course>
<desc>Speed 8.7 km/h Distance 0.58 km</desc>
<time>2010-02-27T10:07:30.02</time>
<name>363</name>
</trkpt>
<trkpt lat="48.941238" lon="8.659692">
<ele>359.0</ele>
<speed>5.9</speed>
<course>188.8</course>
<desc>Speed 5.9 km/h Distance 0.58 km</desc>
<time>2010-02-27T10:07:31.02</time>
<name>364</name>
</trkpt>
<trkpt lat="48.941223" lon="8.659688">
<ele>359.0</ele>
<speed>4.4</speed>
<course>207.0</course>
<desc>Speed 4.4 km/h Distance 0.59 km</desc>
<time>2010-02-27T10:07:32.02</time>
<name>365</name>
</trkpt>
<trkpt lat="48.941208" lon="8.659677">
<ele>359.0</ele>
<speed>5.1</speed>
<course>201.5</course>
<desc>Speed 5.1 km/h Distance 0.59 km</desc>
<time>2010-02-27T10:07:33.02</time>
<name>366</name>
</trkpt>
<trkpt lat="48.941192" lon="8.659667">
<ele>359.0</ele>
<speed>5.7</speed>
<course>202.3</course>
<desc>Speed 5.7 km/h Distance 0.59 km</desc>
<time>2010-02-27T10:07:34.02</time>
<name>367</name>
</trkpt>
<trkpt lat="48.941178" lon="8.659658">
<ele>359.0</ele>
<speed>4.8</speed>
<course>198.2</course>
<desc>Speed 4.8 km/h Distance 0.59 km</desc>
<time>2010-02-27T10:07:35.02</time>
<name>368</name>
</trkpt>
<trkpt lat="48.941168" lon="8.659653">
<ele>359.0</ele>
<speed>3.4</speed>
<course>201.5</course>
<desc>Speed 3.4 km/h Distance 0.59 km</desc>
<time>2010-02-27T10:07:36.02</time>
<name>369</name>
</trkpt>
<trkpt lat="48.941152" lon="8.659643">
<ele>359.0</ele>
<speed>5.2</speed>
<course>206.2</course>
<desc>Speed 5.2 km/h Distance 0.59 km</desc>
<time>2010-02-27T10:07:37.02</time>
<name>370</name>
</trkpt>
<trkpt lat="48.941132" lon="8.659628">
<ele>359.0</ele>
<speed>6.3</speed>
<course>210.0</course>
<desc>Speed 6.3 km/h Distance 0.60 km</desc>
<time>2010-02-27T10:07:38.02</time>
<name>371</name>
</trkpt>
<trkpt lat="48.941118" lon="8.659617">
<ele>358.5</ele>
<speed>5.3</speed>
<course>217.0</course>
<desc>Speed 5.3 km/h Distance 0.60 km</desc>
<time>2010-02-27T10:07:39.02</time>
<name>372</name>
</trkpt>
<trkpt lat="48.941107" lon="8.659603">
<ele>358.5</ele>
<speed>5.0</speed>
<course>225.9</course>
<desc>Speed 5.0 km/h Distance 0.60 km</desc>
<time>2010-02-27T10:07:40.02</time>
<name>373</name>
</trkpt>
<trkpt lat="48.941095" lon="8.659585">
<ele>358.5</ele>
<speed>5.5</speed>
<course>221.2</course>
<desc>Speed 5.5 km/h Distance 0.60 km</desc>
<time>2010-02-27T10:07:41.02</time>
<name>374</name>
</trkpt>
<trkpt lat="48.941080" lon="8.659565">
<ele>358.5</ele>
<speed>5.6</speed>
<course>234.4</course>
<desc>Speed 5.6 km/h Distance 0.60 km</desc>
<time>2010-02-27T10:07:42.01</time>
<name>375</name>
</trkpt>
<trkpt lat="48.941067" lon="8.659537">
<ele>358.5</ele>
<speed>6.8</speed>
<course>236.3</course>
<desc>Speed 6.8 km/h Distance 0.61 km</desc>
<time>2010-02-27T10:07:43.02</time>
<name>376</name>
</trkpt>
<trkpt lat="48.941055" lon="8.659510">
<ele>358.5</ele>
<speed>5.0</speed>
<course>231.1</course>
<desc>Speed 5.0 km/h Distance 0.61 km</desc>
<time>2010-02-27T10:07:44.02</time>
<name>377</name>
</trkpt>
<trkpt lat="48.941040" lon="8.659482">
<ele>358.5</ele>
<speed>6.2</speed>
<course>243.1</course>
<desc>Speed 6.2 km/h Distance 0.61 km</desc>
<time>2010-02-27T10:07:45.01</time>
<name>378</name>
</trkpt>
<trkpt lat="48.941032" lon="8.659457">
<ele>358.5</ele>
<speed>5.8</speed>
<course>241.4</course>
<desc>Speed 5.8 km/h Distance 0.61 km</desc>
<time>2010-02-27T10:07:46.01</time>
<name>379</name>
</trkpt>
<trkpt lat="48.941023" lon="8.659433">
<ele>358.5</ele>
<speed>4.6</speed>
<course>244.6</course>
<desc>Speed 4.6 km/h Distance 0.62 km</desc>
<time>2010-02-27T10:07:47.01</time>
<name>380</name>
</trkpt>
<trkpt lat="48.941015" lon="8.659407">
<ele>358.5</ele>
<speed>5.2</speed>
<course>241.7</course>
<desc>Speed 5.2 km/h Distance 0.62 km</desc>
<time>2010-02-27T10:07:48.01</time>
<name>381</name>
</trkpt>
<trkpt lat="48.941005" lon="8.659378">
<ele>358.5</ele>
<speed>6.2</speed>
<course>247.9</course>
<desc>Speed 6.2 km/h Distance 0.62 km</desc>
<time>2010-02-27T10:07:49.01</time>
<name>382</name>
</trkpt>
<trkpt lat="48.940998" lon="8.659353">
<ele>358.5</ele>
<speed>4.9</speed>
<course>259.2</course>
<desc>Speed 4.9 km/h Distance 0.62 km</desc>
<time>2010-02-27T10:07:50.01</time>
<name>383</name>
</trkpt>
<trkpt lat="48.940995" lon="8.659327">
<ele>358.5</ele>
<speed>4.6</speed>
<course>247.9</course>
<desc>Speed 4.6 km/h Distance 0.62 km</desc>
<time>2010-02-27T10:07:51.01</time>
<name>384</name>
</trkpt>
<trkpt lat="48.940988" lon="8.659302">
<ele>358.5</ele>
<speed>4.4</speed>
<course>270.0</course>
<desc>Speed 4.4 km/h Distance 0.63 km</desc>
<time>2010-02-27T10:07:52.01</time>
<name>385</name>
</trkpt>
<trkpt lat="48.940988" lon="8.659278">
<ele>358.5</ele>
<speed>5.0</speed>
<course>264.6</course>
<desc>Speed 5.0 km/h Distance 0.63 km</desc>
<time>2010-02-27T10:07:53.01</time>
<name>386</name>
</trkpt>
<trkpt lat="48.940987" lon="8.659252">
<ele>358.5</ele>
<speed>5.6</speed>
<course>262.8</course>
<desc>Speed 5.6 km/h Distance 0.63 km</desc>
<time>2010-02-27T10:07:54.01</time>
<name>387</name>
</trkpt>
<trkpt lat="48.940985" lon="8.659232">
<ele>358.5</ele>
<speed>4.6</speed>
<course>257.7</course>
<desc>Speed 4.6 km/h Distance 0.63 km</desc>
<time>2010-02-27T10:07:55.01</time>
<name>388</name>
</trkpt>
<trkpt lat="48.940982" lon="8.659208">
<ele>358.5</ele>
<speed>5.4</speed>
<course>259.2</course>
<desc>Speed 5.4 km/h Distance 0.63 km</desc>
<time>2010-02-27T10:07:56.01</time>
<name>389</name>
</trkpt>
<trkpt lat="48.940978" lon="8.659182">
<ele>358.5</ele>
<speed>6.4</speed>
<course>263.3</course>
<desc>Speed 6.4 km/h Distance 0.63 km</desc>
<time>2010-02-27T10:07:57.01</time>
<name>390</name>
</trkpt>
<trkpt lat="48.940977" lon="8.659160">
<ele>358.5</ele>
<speed>4.5</speed>
<course>278.7</course>
<desc>Speed 4.5 km/h Distance 0.64 km</desc>
<time>2010-02-27T10:07:58.01</time>
<name>391</name>
</trkpt>
<trkpt lat="48.940978" lon="8.659143">
<ele>358.5</ele>
<speed>5.3</speed>
<course>254.5</course>
<desc>Speed 5.3 km/h Distance 0.64 km</desc>
<time>2010-02-27T10:07:59.01</time>
<name>392</name>
</trkpt>
<trkpt lat="48.940975" lon="8.659125">
<ele>358.5</ele>
<speed>4.8</speed>
<course>270.0</course>
<desc>Speed 4.8 km/h Distance 0.64 km</desc>
<time>2010-02-27T10:08:00.01</time>
<name>393</name>
</trkpt>
<trkpt lat="48.940975" lon="8.659108">
<ele>358.5</ele>
<speed>4.5</speed>
<course>253.1</course>
<desc>Speed 4.5 km/h Distance 0.64 km</desc>
<time>2010-02-27T10:08:01.01</time>
<name>394</name>
</trkpt>
<trkpt lat="48.940972" lon="8.659092">
<ele>358.5</ele>
<speed>4.7</speed>
<course>326.3</course>
<desc>Speed 4.7 km/h Distance 0.64 km</desc>
<time>2010-02-27T10:08:02.01</time>
<name>395</name>
</trkpt>
<trkpt lat="48.940975" lon="8.659088">
<ele>358.5</ele>
<speed>4.8</speed>
<course>240.3</course>
<desc>Speed 4.8 km/h Distance 0.64 km</desc>
<time>2010-02-27T10:08:03.01</time>
<name>396</name>
</trkpt>
<trkpt lat="48.940970" lon="8.659075">
<ele>358.5</ele>
<speed>5.0</speed>
<course>238.6</course>
<desc>Speed 5.0 km/h Distance 0.64 km</desc>
<time>2010-02-27T10:08:04.00</time>
<name>397</name>
</trkpt>
<trkpt lat="48.940963" lon="8.659058">
<ele>358.5</ele>
<speed>5.4</speed>
<course>251.3</course>
<desc>Speed 5.4 km/h Distance 0.64 km</desc>
<time>2010-02-27T10:08:05.00</time>
<name>398</name>
</trkpt>
<trkpt lat="48.940960" lon="8.659043">
<ele>358.5</ele>
<speed>3.9</speed>
<course>241.0</course>
<desc>Speed 3.9 km/h Distance 0.65 km</desc>
<time>2010-02-27T10:08:06.00</time>
<name>399</name>
</trkpt>
<trkpt lat="48.940953" lon="8.659025">
<ele>358.0</ele>
<speed>5.1</speed>
<course>213.2</course>
<desc>Speed 5.1 km/h Distance 0.65 km</desc>
<time>2010-02-27T10:08:07.00</time>
<name>400</name>
</trkpt>
<trkpt lat="48.940940" lon="8.659012">
<ele>358.0</ele>
<speed>4.9</speed>
<course>195.5</course>
<desc>Speed 4.9 km/h Distance 0.65 km</desc>
<time>2010-02-27T10:08:08.00</time>
<name>401</name>
</trkpt>
<trkpt lat="48.940928" lon="8.659007">
<ele>358.0</ele>
<speed>4.7</speed>
<course>192.2</course>
<desc>Speed 4.7 km/h Distance 0.65 km</desc>
<time>2010-02-27T10:08:09.01</time>
<name>402</name>
</trkpt>
<trkpt lat="48.940913" lon="8.659002">
<ele>358.0</ele>
<speed>5.0</speed>
<course>187.7</course>
<desc>Speed 5.0 km/h Distance 0.65 km</desc>
<time>2010-02-27T10:08:10.01</time>
<name>403</name>
</trkpt>
<trkpt lat="48.940897" lon="8.658998">
<ele>358.0</ele>
<speed>5.2</speed>
<course>170.5</course>
<desc>Speed 5.2 km/h Distance 0.65 km</desc>
<time>2010-02-27T10:08:11.01</time>
<name>404</name>
</trkpt>
<trkpt lat="48.940885" lon="8.659002">
<ele>358.0</ele>
<speed>4.4</speed>
<course>176.2</course>
<desc>Speed 4.4 km/h Distance 0.66 km</desc>
<time>2010-02-27T10:08:12.01</time>
<name>405</name>
</trkpt>
<trkpt lat="48.940870" lon="8.659002">
<ele>358.0</ele>
<speed>4.3</speed>
<course>183.8</course>
<desc>Speed 4.3 km/h Distance 0.66 km</desc>
<time>2010-02-27T10:08:13.01</time>
<name>406</name>
</trkpt>
<trkpt lat="48.940855" lon="8.659000">
<ele>358.0</ele>
<speed>4.3</speed>
<course>185.3</course>
<desc>Speed 4.3 km/h Distance 0.66 km</desc>
<time>2010-02-27T10:08:14.00</time>
<name>407</name>
</trkpt>
<trkpt lat="48.940842" lon="8.658998">
<ele>358.0</ele>
<speed>5.3</speed>
<course>188.8</course>
<desc>Speed 5.3 km/h Distance 0.66 km</desc>
<time>2010-02-27T10:08:15.00</time>
<name>408</name>
</trkpt>
<trkpt lat="48.940827" lon="8.658995">
<ele>358.0</ele>
<speed>4.7</speed>
<course>192.2</course>
<desc>Speed 4.7 km/h Distance 0.66 km</desc>
<time>2010-02-27T10:08:16.00</time>
<name>409</name>
</trkpt>
<trkpt lat="48.940812" lon="8.658990">
<ele>358.0</ele>
<speed>5.4</speed>
<course>206.0</course>
<desc>Speed 5.4 km/h Distance 0.66 km</desc>
<time>2010-02-27T10:08:17.00</time>
<name>410</name>
</trkpt>
<trkpt lat="48.940798" lon="8.658980">
<ele>358.0</ele>
<speed>5.4</speed>
<course>213.3</course>
<desc>Speed 5.4 km/h Distance 0.67 km</desc>
<time>2010-02-27T10:08:18.00</time>
<name>411</name>
</trkpt>
<trkpt lat="48.940773" lon="8.658955">
<ele>358.0</ele>
<speed>10.7</speed>
<course>229.7</course>
<desc>Speed 10.7 km/h Distance 0.67 km</desc>
<time>2010-02-27T10:08:19.00</time>
<name>412</name>
</trkpt>
<trkpt lat="48.940765" lon="8.658940">
<ele>358.0</ele>
<speed>5.9</speed>
<course>213.3</course>
<desc>Speed 5.9 km/h Distance 0.67 km</desc>
<time>2010-02-27T10:08:20.00</time>
<name>413</name>
</trkpt>
<trkpt lat="48.940752" lon="8.658927">
<ele>358.0</ele>
<speed>5.8</speed>
<course>213.3</course>
<desc>Speed 5.8 km/h Distance 0.67 km</desc>
<time>2010-02-27T10:08:21.00</time>
<name>414</name>
</trkpt>
<trkpt lat="48.940738" lon="8.658913">
<ele>358.0</ele>
<speed>5.9</speed>
<course>209.8</course>
<desc>Speed 5.9 km/h Distance 0.67 km</desc>
<time>2010-02-27T10:08:21.99</time>
<name>415</name>
</trkpt>
<trkpt lat="48.940725" lon="8.658902">
<ele>358.0</ele>
<speed>5.6</speed>
<course>221.3</course>
<desc>Speed 5.6 km/h Distance 0.68 km</desc>
<time>2010-02-27T10:08:23.00</time>
<name>416</name>
</trkpt>
<trkpt lat="48.940715" lon="8.658888">
<ele>358.0</ele>
<speed>5.5</speed>
<course>232.8</course>
<desc>Speed 5.5 km/h Distance 0.68 km</desc>
<time>2010-02-27T10:08:24.00</time>
<name>417</name>
</trkpt>
<trkpt lat="48.940705" lon="8.658868">
<ele>357.5</ele>
<speed>5.8</speed>
<course>229.8</course>
<desc>Speed 5.8 km/h Distance 0.68 km</desc>
<time>2010-02-27T10:08:25.00</time>
<name>418</name>
</trkpt>
<trkpt lat="48.940697" lon="8.658853">
<ele>357.5</ele>
<speed>5.9</speed>
<course>227.6</course>
<desc>Speed 5.9 km/h Distance 0.68 km</desc>
<time>2010-02-27T10:08:25.99</time>
<name>419</name>
</trkpt>
<trkpt lat="48.940687" lon="8.658837">
<ele>357.5</ele>
<speed>6.4</speed>
<course>216.6</course>
<desc>Speed 6.4 km/h Distance 0.68 km</desc>
<time>2010-02-27T10:08:26.99</time>
<name>420</name>
</trkpt>
<trkpt lat="48.940673" lon="8.658822">
<ele>357.5</ele>
<speed>6.1</speed>
<course>219.4</course>
<desc>Speed 6.1 km/h Distance 0.68 km</desc>
<time>2010-02-27T10:08:27.99</time>
<name>421</name>
</trkpt>
<trkpt lat="48.940660" lon="8.658805">
<ele>357.5</ele>
<speed>6.0</speed>
<course>192.6</course>
<desc>Speed 6.0 km/h Distance 0.69 km</desc>
<time>2010-02-27T10:08:28.99</time>
<name>422</name>
</trkpt>
<trkpt lat="48.940657" lon="8.658803">
<ele>357.5</ele>
<speed>6.1</speed>
<course>217.5</course>
<desc>Speed 6.1 km/h Distance 0.69 km</desc>
<time>2010-02-27T10:08:29.99</time>
<name>423</name>
</trkpt>
<trkpt lat="48.940647" lon="8.658792">
<ele>357.5</ele>
<speed>5.8</speed>
<course>217.5</course>
<desc>Speed 5.8 km/h Distance 0.69 km</desc>
<time>2010-02-27T10:08:30.99</time>
<name>424</name>
</trkpt>
<trkpt lat="48.940637" lon="8.658780">
<ele>357.0</ele>
<speed>6.2</speed>
<course>201.5</course>
<desc>Speed 6.2 km/h Distance 0.69 km</desc>
<time>2010-02-27T10:08:31.99</time>
<name>425</name>
</trkpt>
<trkpt lat="48.940628" lon="8.658775">
<ele>357.0</ele>
<speed>5.8</speed>
<course>192.6</course>
<desc>Speed 5.8 km/h Distance 0.69 km</desc>
<time>2010-02-27T10:08:32.99</time>
<name>426</name>
</trkpt>
<trkpt lat="48.940623" lon="8.658773">
<ele>357.0</ele>
<speed>6.0</speed>
<course>180.0</course>
<desc>Speed 6.0 km/h Distance 0.69 km</desc>
<time>2010-02-27T10:08:33.99</time>
<name>427</name>
</trkpt>
<trkpt lat="48.940620" lon="8.658773">
<ele>357.0</ele>
<speed>6.1</speed>
<course>209.2</course>
<desc>Speed 6.1 km/h Distance 0.69 km</desc>
<time>2010-02-27T10:08:34.99</time>
<name>428</name>
</trkpt>
<trkpt lat="48.940618" lon="8.658772">
<ele>356.5</ele>
<speed>5.9</speed>
<course>150.8</course>
<desc>Speed 5.9 km/h Distance 0.69 km</desc>
<time>2010-02-27T10:08:35.99</time>
<name>429</name>
</trkpt>
<trkpt lat="48.940617" lon="8.658773">
<ele>356.5</ele>
<speed>5.9</speed>
<course>167.4</course>
<desc>Speed 5.9 km/h Distance 0.69 km</desc>
<time>2010-02-27T10:08:36.99</time>
<name>430</name>
</trkpt>
<trkpt lat="48.940615" lon="8.658773">
<ele>356.5</ele>
<speed>5.6</speed>
<course>213.7</course>
<desc>Speed 5.6 km/h Distance 0.69 km</desc>
<time>2010-02-27T10:08:37.99</time>
<name>431</name>
</trkpt>
<trkpt lat="48.940608" lon="8.658767">
<ele>356.5</ele>
<speed>5.9</speed>
<course>220.9</course>
<desc>Speed 5.9 km/h Distance 0.69 km</desc>
<time>2010-02-27T10:08:38.99</time>
<name>432</name>
</trkpt>
<trkpt lat="48.940603" lon="8.658760">
<ele>356.0</ele>
<speed>5.6</speed>
<course>255.9</course>
<desc>Speed 5.6 km/h Distance 0.69 km</desc>
<time>2010-02-27T10:08:39.99</time>
<name>433</name>
</trkpt>
<trkpt lat="48.940602" lon="8.658750">
<ele>356.0</ele>
<speed>5.8</speed>
<course>232.6</course>
<desc>Speed 5.8 km/h Distance 0.69 km</desc>
<time>2010-02-27T10:08:40.99</time>
<name>434</name>
</trkpt>
<trkpt lat="48.940597" lon="8.658740">
<ele>356.0</ele>
<speed>5.8</speed>
<course>238.6</course>
<desc>Speed 5.8 km/h Distance 0.69 km</desc>
<time>2010-02-27T10:08:41.99</time>
<name>435</name>
</trkpt>
<trkpt lat="48.940593" lon="8.658732">
<ele>356.0</ele>
<speed>5.3</speed>
<course>175.9</course>
<desc>Speed 5.3 km/h Distance 0.70 km</desc>
<time>2010-02-27T10:08:42.99</time>
<name>436</name>
</trkpt>
<trkpt lat="48.940577" lon="8.658733">
<ele>355.5</ele>
<speed>8.5</speed>
<course>201.5</course>
<desc>Speed 8.5 km/h Distance 0.70 km</desc>
<time>2010-02-27T10:08:43.99</time>
<name>437</name>
</trkpt>
<trkpt lat="48.940568" lon="8.658728">
<ele>355.5</ele>
<speed>3.6</speed>
<course>180.0</course>
<desc>Speed 3.6 km/h Distance 0.70 km</desc>
<time>2010-02-27T10:08:44.99</time>
<name>438</name>
</trkpt>
<trkpt lat="48.940562" lon="8.658728">
<ele>355.5</ele>
<speed>2.6</speed>
<course>51.9</course>
<desc>Speed 2.6 km/h Distance 0.70 km</desc>
<time>2010-02-27T10:08:45.99</time>
<name>439</name>
</trkpt>
<trkpt lat="48.940563" lon="8.658732">
<ele>355.5</ele>
<speed>0.3</speed>
<course>51.9</course>
<desc>Speed 0.3 km/h Distance 0.70 km</desc>
<time>2010-02-27T10:08:46.99</time>
<name>440</name>
</trkpt>
<trkpt lat="48.940563" lon="8.658732">
<ele>355.5</ele>
<speed>0.1</speed>
<course>0.0</course>
<desc>Speed 0.1 km/h Distance 0.70 km</desc>
<time>2010-02-27T10:08:47.99</time>
<name>441</name>
</trkpt>
<trkpt lat="48.940565" lon="8.658732">
<ele>355.5</ele>
<speed>0.2</speed>
<course>0.0</course>
<desc>Speed 0.2 km/h Distance 0.70 km</desc>
<time>2010-02-27T10:08:48.99</time>
<name>442</name>
</trkpt>
<trkpt lat="48.940565" lon="8.658732">
<ele>355.5</ele>
<speed>0.3</speed>
<course>0.0</course>
<desc>Speed 0.3 km/h Distance 0.70 km</desc>
<time>2010-02-27T10:08:49.98</time>
<name>443</name>
</trkpt>
<trkpt lat="48.940565" lon="8.658732">
<ele>355.5</ele>
<speed>0.1</speed>
<course>12.6</course>
<desc>Speed 0.1 km/h Distance 0.70 km</desc>
<time>2010-02-27T10:08:50.98</time>
<name>444</name>
</trkpt>
<trkpt lat="48.940567" lon="8.658732">
<ele>355.5</ele>
<speed>0.2</speed>
<course>0.0</course>
<desc>Speed 0.2 km/h Distance 0.70 km</desc>
<time>2010-02-27T10:08:51.99</time>
<name>445</name>
</trkpt>
<trkpt lat="48.940568" lon="8.658732">
<ele>355.5</ele>
<speed>0.2</speed>
<course>0.0</course>
<desc>Speed 0.2 km/h Distance 0.70 km</desc>
<time>2010-02-27T10:08:52.98</time>
<name>446</name>
</trkpt>
<trkpt lat="48.940568" lon="8.658732">
<ele>355.5</ele>
<speed>0.1</speed>
<course>0.0</course>
<desc>Speed 0.1 km/h Distance 0.70 km</desc>
<time>2010-02-27T10:08:53.98</time>
<name>447</name>
</trkpt>
<trkpt lat="48.940570" lon="8.658732">
<ele>355.5</ele>
<speed>0.1</speed>
<course>0.0</course>
<desc>Speed 0.1 km/h Distance 0.70 km</desc>
<time>2010-02-27T10:08:54.99</time>
<name>448</name>
</trkpt>
<trkpt lat="48.940570" lon="8.658732">
<ele>355.5</ele>
<speed>0.1</speed>
<course>330.8</course>
<desc>Speed 0.1 km/h Distance 0.70 km</desc>
<time>2010-02-27T10:08:55.99</time>
<name>449</name>
</trkpt>
<trkpt lat="48.940572" lon="8.658730">
<ele>355.5</ele>
<speed>0.1</speed>
<course>330.8</course>
<desc>Speed 0.1 km/h Distance 0.70 km</desc>
<time>2010-02-27T10:08:56.98</time>
<name>450</name>
</trkpt>
<trkpt lat="48.940572" lon="8.658730">
<ele>355.5</ele>
<speed>0.1</speed>
<course>330.8</course>
<desc>Speed 0.1 km/h Distance 0.70 km</desc>
<time>2010-02-27T10:08:57.98</time>
<name>451</name>
</trkpt>
<trkpt lat="48.940572" lon="8.658730">
<ele>355.5</ele>
<speed>0.0</speed>
<course>330.8</course>
<desc>Speed 0.0 km/h Distance 0.70 km</desc>
<time>2010-02-27T10:08:58.98</time>
<name>452</name>
</trkpt>
<trkpt lat="48.940572" lon="8.658730">
<ele>355.5</ele>
<speed>0.1</speed>
<course>330.8</course>
<desc>Speed 0.1 km/h Distance 0.70 km</desc>
<time>2010-02-27T10:08:59.98</time>
<name>453</name>
</trkpt>
<trkpt lat="48.940572" lon="8.658730">
<ele>355.5</ele>
<speed>0.1</speed>
<course>330.8</course>
<desc>Speed 0.1 km/h Distance 0.70 km</desc>
<time>2010-02-27T10:09:00.98</time>
<name>454</name>
</trkpt>
<trkpt lat="48.940572" lon="8.658730">
<ele>355.5</ele>
<speed>0.1</speed>
<course>330.8</course>
<desc>Speed 0.1 km/h Distance 0.70 km</desc>
<time>2010-02-27T10:09:01.98</time>
<name>455</name>
</trkpt>
<trkpt lat="48.940572" lon="8.658728">
<ele>355.5</ele>
<speed>0.1</speed>
<course>330.8</course>
<desc>Speed 0.1 km/h Distance 0.70 km</desc>
<time>2010-02-27T10:09:02.98</time>
<name>456</name>
</trkpt>
<trkpt lat="48.940572" lon="8.658728">
<ele>355.5</ele>
<speed>0.1</speed>
<course>330.8</course>
<desc>Speed 0.1 km/h Distance 0.70 km</desc>
<time>2010-02-27T10:09:03.98</time>
<name>457</name>
</trkpt>
<trkpt lat="48.940572" lon="8.658728">
<ele>355.5</ele>
<speed>0.5</speed>
<course>330.8</course>
<desc>Speed 0.5 km/h Distance 0.70 km</desc>
<time>2010-02-27T10:09:04.98</time>
<name>458</name>
</trkpt>
<trkpt lat="48.940572" lon="8.658728">
<ele>355.5</ele>
<speed>0.1</speed>
<course>330.8</course>
<desc>Speed 0.1 km/h Distance 0.70 km</desc>
<time>2010-02-27T10:09:05.98</time>
<name>459</name>
</trkpt>
<trkpt lat="48.940572" lon="8.658728">
<ele>355.5</ele>
<speed>0.1</speed>
<course>330.8</course>
<desc>Speed 0.1 km/h Distance 0.70 km</desc>
<time>2010-02-27T10:09:06.98</time>
<name>460</name>
</trkpt>
<trkpt lat="48.940572" lon="8.658728">
<ele>355.5</ele>
<speed>0.3</speed>
<course>330.8</course>
<desc>Speed 0.3 km/h Distance 0.70 km</desc>
<time>2010-02-27T10:09:07.97</time>
<name>461</name>
</trkpt>
<trkpt lat="48.940572" lon="8.658728">
<ele>355.5</ele>
<speed>0.1</speed>
<course>330.8</course>
<desc>Speed 0.1 km/h Distance 0.70 km</desc>
<time>2010-02-27T10:09:08.98</time>
<name>462</name>
</trkpt>
<trkpt lat="48.940572" lon="8.658728">
<ele>355.5</ele>
<speed>0.1</speed>
<course>330.8</course>
<desc>Speed 0.1 km/h Distance 0.70 km</desc>
<time>2010-02-27T10:09:09.98</time>
<name>463</name>
</trkpt>
<trkpt lat="48.940572" lon="8.658730">
<ele>355.5</ele>
<speed>0.2</speed>
<course>330.8</course>
<desc>Speed 0.2 km/h Distance 0.70 km</desc>
<time>2010-02-27T10:09:10.98</time>
<name>464</name>
</trkpt>
<trkpt lat="48.940572" lon="8.658728">
<ele>355.5</ele>
<speed>0.0</speed>
<course>330.8</course>
<desc>Speed 0.0 km/h Distance 0.70 km</desc>
<time>2010-02-27T10:09:11.98</time>
<name>465</name>
</trkpt>
<trkpt lat="48.940572" lon="8.658730">
<ele>355.5</ele>
<speed>0.2</speed>
<course>330.8</course>
<desc>Speed 0.2 km/h Distance 0.70 km</desc>
<time>2010-02-27T10:09:12.98</time>
<name>466</name>
</trkpt>
<trkpt lat="48.940572" lon="8.658730">
<ele>355.5</ele>
<speed>0.2</speed>
<course>330.8</course>
<desc>Speed 0.2 km/h Distance 0.70 km</desc>
<time>2010-02-27T10:09:13.98</time>
<name>467</name>
</trkpt>
<trkpt lat="48.940572" lon="8.658730">
<ele>355.5</ele>
<speed>0.3</speed>
<course>330.8</course>
<desc>Speed 0.3 km/h Distance 0.70 km</desc>
<time>2010-02-27T10:09:14.97</time>
<name>468</name>
</trkpt>
<trkpt lat="48.940572" lon="8.658730">
<ele>355.5</ele>
<speed>0.3</speed>
<course>330.8</course>
<desc>Speed 0.3 km/h Distance 0.70 km</desc>
<time>2010-02-27T10:09:15.97</time>
<name>469</name>
</trkpt>
<trkpt lat="48.940572" lon="8.658730">
<ele>355.5</ele>
<speed>0.2</speed>
<course>330.8</course>
<desc>Speed 0.2 km/h Distance 0.70 km</desc>
<time>2010-02-27T10:09:16.97</time>
<name>470</name>
</trkpt>
<trkpt lat="48.940572" lon="8.658730">
<ele>355.5</ele>
<speed>0.3</speed>
<course>330.8</course>
<desc>Speed 0.3 km/h Distance 0.70 km</desc>
<time>2010-02-27T10:09:17.98</time>
<name>471</name>
</trkpt>
<trkpt lat="48.940572" lon="8.658730">
<ele>355.5</ele>
<speed>0.2</speed>
<course>0.0</course>
<desc>Speed 0.2 km/h Distance 0.70 km</desc>
<time>2010-02-27T10:09:18.97</time>
<name>472</name>
</trkpt>
<trkpt lat="48.940573" lon="8.658730">
<ele>355.5</ele>
<speed>0.1</speed>
<course>0.0</course>
<desc>Speed 0.1 km/h Distance 0.70 km</desc>
<time>2010-02-27T10:09:19.97</time>
<name>473</name>
</trkpt>
<trkpt lat="48.940573" lon="8.658730">
<ele>355.5</ele>
<speed>0.1</speed>
<course>0.0</course>
<desc>Speed 0.1 km/h Distance 0.70 km</desc>
<time>2010-02-27T10:09:20.98</time>
<name>474</name>
</trkpt>
<trkpt lat="48.940573" lon="8.658730">
<ele>355.5</ele>
<speed>0.2</speed>
<course>0.0</course>
<desc>Speed 0.2 km/h Distance 0.70 km</desc>
<time>2010-02-27T10:09:21.97</time>
<name>475</name>
</trkpt>
<trkpt lat="48.940573" lon="8.658730">
<ele>355.5</ele>
<speed>0.3</speed>
<course>0.0</course>
<desc>Speed 0.3 km/h Distance 0.70 km</desc>
<time>2010-02-27T10:09:23.00</time>
<name>476</name>
</trkpt>
<trkpt lat="48.940573" lon="8.658730">
<ele>355.5</ele>
<speed>0.2</speed>
<course>12.6</course>
<desc>Speed 0.2 km/h Distance 0.70 km</desc>
<time>2010-02-27T10:09:23.97</time>
<name>477</name>
</trkpt>
<trkpt lat="48.940575" lon="8.658730">
<ele>355.5</ele>
<speed>0.1</speed>
<course>270.0</course>
<desc>Speed 0.1 km/h Distance 0.70 km</desc>
<time>2010-02-27T10:09:24.97</time>
<name>478</name>
</trkpt>
<trkpt lat="48.940575" lon="8.658728">
<ele>355.5</ele>
<speed>0.1</speed>
<course>270.0</course>
<desc>Speed 0.1 km/h Distance 0.70 km</desc>
<time>2010-02-27T10:09:25.97</time>
<name>479</name>
</trkpt>
<trkpt lat="48.940575" lon="8.658728">
<ele>355.5</ele>
<speed>0.4</speed>
<course>270.0</course>
<desc>Speed 0.4 km/h Distance 0.70 km</desc>
<time>2010-02-27T10:09:26.97</time>
<name>480</name>
</trkpt>
<trkpt lat="48.940575" lon="8.658728">
<ele>355.5</ele>
<speed>0.4</speed>
<course>51.9</course>
<desc>Speed 0.4 km/h Distance 0.70 km</desc>
<time>2010-02-27T10:09:27.99</time>
<name>481</name>
</trkpt>
<trkpt lat="48.940577" lon="8.658732">
<ele>355.0</ele>
<speed>1.5</speed>
<course>167.4</course>
<desc>Speed 1.5 km/h Distance 0.70 km</desc>
<time>2010-02-27T10:09:28.97</time>
<name>482</name>
</trkpt>
<trkpt lat="48.940575" lon="8.658732">
<ele>355.0</ele>
<speed>0.1</speed>
<course>1.2</course>
<desc>Speed 0.1 km/h Distance 0.70 km</desc>
<time>2010-02-27T10:09:29.97</time>
<name>483</name>
</trkpt>
<trkpt lat="48.940582" lon="8.658732">
<ele>355.0</ele>
<speed>0.2</speed>
<course>1.2</course>
<desc>Speed 0.2 km/h Distance 0.70 km</desc>
<time>2010-02-27T10:09:30.97</time>
<name>484</name>
</trkpt>
<trkpt lat="48.940582" lon="8.658732">
<ele>355.0</ele>
<speed>0.3</speed>
<course>167.4</course>
<desc>Speed 0.3 km/h Distance 0.70 km</desc>
<time>2010-02-27T10:09:31.97</time>
<name>485</name>
</trkpt>
<trkpt lat="48.940580" lon="8.658732">
<ele>355.0</ele>
<speed>0.2</speed>
<course>167.4</course>
<desc>Speed 0.2 km/h Distance 0.70 km</desc>
<time>2010-02-27T10:09:32.97</time>
<name>486</name>
</trkpt>
<trkpt lat="48.940578" lon="8.658733">
<ele>355.0</ele>
<speed>0.1</speed>
<course>150.8</course>
<desc>Speed 0.1 km/h Distance 0.70 km</desc>
<time>2010-02-27T10:09:33.97</time>
<name>487</name>
</trkpt>
<trkpt lat="48.940577" lon="8.658735">
<ele>354.5</ele>
<speed>0.4</speed>
<course>167.4</course>
<desc>Speed 0.4 km/h Distance 0.70 km</desc>
<time>2010-02-27T10:09:34.99</time>
<name>488</name>
</trkpt>
<trkpt lat="48.940575" lon="8.658735">
<ele>354.5</ele>
<speed>0.3</speed>
<course>128.1</course>
<desc>Speed 0.3 km/h Distance 0.70 km</desc>
<time>2010-02-27T10:09:35.97</time>
<name>489</name>
</trkpt>
<trkpt lat="48.940573" lon="8.658738">
<ele>354.5</ele>
<speed>0.3</speed>
<course>90.0</course>
<desc>Speed 0.3 km/h Distance 0.70 km</desc>
<time>2010-02-27T10:09:36.96</time>
<name>490</name>
</trkpt>
<trkpt lat="48.940573" lon="8.658740">
<ele>354.5</ele>
<speed>0.2</speed>
<course>90.0</course>
<desc>Speed 0.2 km/h Distance 0.70 km</desc>
<time>2010-02-27T10:09:37.97</time>
<name>491</name>
</trkpt>
<trkpt lat="48.940573" lon="8.658742">
<ele>354.5</ele>
<speed>0.1</speed>
<course>180.0</course>
<desc>Speed 0.1 km/h Distance 0.70 km</desc>
<time>2010-02-27T10:09:38.97</time>
<name>492</name>
</trkpt>
<trkpt lat="48.940572" lon="8.658742">
<ele>354.5</ele>
<speed>0.1</speed>
<course>180.0</course>
<desc>Speed 0.1 km/h Distance 0.70 km</desc>
<time>2010-02-27T10:09:39.97</time>
<name>493</name>
</trkpt>
<trkpt lat="48.940572" lon="8.658743">
<ele>354.5</ele>
<speed>0.3</speed>
<course>180.0</course>
<desc>Speed 0.3 km/h Distance 0.70 km</desc>
<time>2010-02-27T10:09:40.97</time>
<name>494</name>
</trkpt>
<trkpt lat="48.940572" lon="8.658743">
<ele>354.5</ele>
<speed>0.3</speed>
<course>180.0</course>
<desc>Speed 0.3 km/h Distance 0.70 km</desc>
<time>2010-02-27T10:09:41.97</time>
<name>495</name>
</trkpt>
<trkpt lat="48.940572" lon="8.658745">
<ele>354.5</ele>
<speed>0.2</speed>
<course>180.0</course>
<desc>Speed 0.2 km/h Distance 0.70 km</desc>
<time>2010-02-27T10:09:42.97</time>
<name>496</name>
</trkpt>
<trkpt lat="48.940572" lon="8.658745">
<ele>354.5</ele>
<speed>0.1</speed>
<course>167.4</course>
<desc>Speed 0.1 km/h Distance 0.70 km</desc>
<time>2010-02-27T10:09:43.97</time>
<name>497</name>
</trkpt>
<trkpt lat="48.940570" lon="8.658745">
<ele>354.5</ele>
<speed>0.3</speed>
<course>12.6</course>
<desc>Speed 0.3 km/h Distance 0.70 km</desc>
<time>2010-02-27T10:09:44.96</time>
<name>498</name>
</trkpt>
<trkpt lat="48.940572" lon="8.658745">
<ele>354.5</ele>
<speed>0.3</speed>
<course>12.6</course>
<desc>Speed 0.3 km/h Distance 0.70 km</desc>
<time>2010-02-27T10:09:45.96</time>
<name>499</name>
</trkpt>
<trkpt lat="48.940572" lon="8.658747">
<ele>354.5</ele>
<speed>0.2</speed>
<course>12.6</course>
<desc>Speed 0.2 km/h Distance 0.70 km</desc>
<time>2010-02-27T10:09:46.98</time>
<name>500</name>
</trkpt>
<trkpt lat="48.940572" lon="8.658747">
<ele>354.5</ele>
<speed>0.1</speed>
<course>12.6</course>
<desc>Speed 0.1 km/h Distance 0.70 km</desc>
<time>2010-02-27T10:09:47.96</time>
<name>501</name>
</trkpt>
<trkpt lat="48.940572" lon="8.658747">
<ele>354.5</ele>
<speed>0.3</speed>
<course>12.6</course>
<desc>Speed 0.3 km/h Distance 0.70 km</desc>
<time>2010-02-27T10:09:48.96</time>
<name>502</name>
</trkpt>
<trkpt lat="48.940572" lon="8.658747">
<ele>354.5</ele>
<speed>0.1</speed>
<course>12.6</course>
<desc>Speed 0.1 km/h Distance 0.70 km</desc>
<time>2010-02-27T10:09:49.96</time>
<name>503</name>
</trkpt>
<trkpt lat="48.940572" lon="8.658747">
<ele>354.5</ele>
<speed>0.1</speed>
<course>12.6</course>
<desc>Speed 0.1 km/h Distance 0.70 km</desc>
<time>2010-02-27T10:09:50.96</time>
<name>504</name>
</trkpt>
<trkpt lat="48.940572" lon="8.658747">
<ele>354.5</ele>
<speed>0.2</speed>
<course>12.6</course>
<desc>Speed 0.2 km/h Distance 0.70 km</desc>
<time>2010-02-27T10:09:51.96</time>
<name>505</name>
</trkpt>
<trkpt lat="48.940572" lon="8.658747">
<ele>354.5</ele>
<speed>0.1</speed>
<course>12.6</course>
<desc>Speed 0.1 km/h Distance 0.70 km</desc>
<time>2010-02-27T10:09:52.96</time>
<name>506</name>
</trkpt>
<trkpt lat="48.940572" lon="8.658747">
<ele>354.5</ele>
<speed>0.2</speed>
<course>12.6</course>
<desc>Speed 0.2 km/h Distance 0.70 km</desc>
<time>2010-02-27T10:09:53.95</time>
<name>507</name>
</trkpt>
<trkpt lat="48.940572" lon="8.658747">
<ele>354.5</ele>
<speed>0.2</speed>
<course>12.6</course>
<desc>Speed 0.2 km/h Distance 0.70 km</desc>
<time>2010-02-27T10:09:54.98</time>
<name>508</name>
</trkpt>
<trkpt lat="48.940572" lon="8.658747">
<ele>354.5</ele>
<speed>0.3</speed>
<course>12.6</course>
<desc>Speed 0.3 km/h Distance 0.70 km</desc>
<time>2010-02-27T10:09:55.96</time>
<name>509</name>
</trkpt>
<trkpt lat="48.940572" lon="8.658747">
<ele>354.5</ele>
<speed>0.2</speed>
<course>12.6</course>
<desc>Speed 0.2 km/h Distance 0.70 km</desc>
<time>2010-02-27T10:09:56.96</time>
<name>510</name>
</trkpt>
<trkpt lat="48.940572" lon="8.658747">
<ele>354.5</ele>
<speed>0.3</speed>
<course>12.6</course>
<desc>Speed 0.3 km/h Distance 0.70 km</desc>
<time>2010-02-27T10:09:57.96</time>
<name>511</name>
</trkpt>
<trkpt lat="48.940572" lon="8.658747">
<ele>354.5</ele>
<speed>0.1</speed>
<course>167.4</course>
<desc>Speed 0.1 km/h Distance 0.70 km</desc>
<time>2010-02-27T10:09:58.96</time>
<name>512</name>
</trkpt>
<trkpt lat="48.940570" lon="8.658747">
<ele>354.5</ele>
<speed>0.2</speed>
<course>90.0</course>
<desc>Speed 0.2 km/h Distance 0.70 km</desc>
<time>2010-02-27T10:09:59.96</time>
<name>513</name>
</trkpt>
<trkpt lat="48.940570" lon="8.658748">
<ele>354.5</ele>
<speed>0.0</speed>
<course>90.0</course>
<desc>Speed 0.0 km/h Distance 0.70 km</desc>
<time>2010-02-27T10:10:00.98</time>
<name>514</name>
</trkpt>
<trkpt lat="48.940570" lon="8.658748">
<ele>354.5</ele>
<speed>0.3</speed>
<course>90.0</course>
<desc>Speed 0.3 km/h Distance 0.70 km</desc>
<time>2010-02-27T10:10:01.95</time>
<name>515</name>
</trkpt>
<trkpt lat="48.940570" lon="8.658748">
<ele>354.5</ele>
<speed>0.3</speed>
<course>90.0</course>
<desc>Speed 0.3 km/h Distance 0.70 km</desc>
<time>2010-02-27T10:10:02.96</time>
<name>516</name>
</trkpt>
<trkpt lat="48.940570" lon="8.658748">
<ele>354.5</ele>
<speed>0.5</speed>
<course>90.0</course>
<desc>Speed 0.5 km/h Distance 0.70 km</desc>
<time>2010-02-27T10:10:03.95</time>
<name>517</name>
</trkpt>
<trkpt lat="48.940570" lon="8.658748">
<ele>354.5</ele>
<speed>0.4</speed>
<course>90.0</course>
<desc>Speed 0.4 km/h Distance 0.70 km</desc>
<time>2010-02-27T10:10:04.95</time>
<name>518</name>
</trkpt>
<trkpt lat="48.940570" lon="8.658750">
<ele>354.5</ele>
<speed>0.3</speed>
<course>90.0</course>
<desc>Speed 0.3 km/h Distance 0.70 km</desc>
<time>2010-02-27T10:10:05.95</time>
<name>519</name>
</trkpt>
<trkpt lat="48.940570" lon="8.658750">
<ele>354.5</ele>
<speed>0.1</speed>
<course>90.0</course>
<desc>Speed 0.1 km/h Distance 0.70 km</desc>
<time>2010-02-27T10:10:06.95</time>
<name>520</name>
</trkpt>
<trkpt lat="48.940570" lon="8.658750">
<ele>354.5</ele>
<speed>0.1</speed>
<course>90.0</course>
<desc>Speed 0.1 km/h Distance 0.70 km</desc>
<time>2010-02-27T10:10:07.95</time>
<name>521</name>
</trkpt>
<trkpt lat="48.940570" lon="8.658750">
<ele>354.5</ele>
<speed>0.1</speed>
<course>180.0</course>
<desc>Speed 0.1 km/h Distance 0.70 km</desc>
<time>2010-02-27T10:10:08.95</time>
<name>522</name>
</trkpt>
<trkpt lat="48.940568" lon="8.658750">
<ele>354.5</ele>
<speed>0.2</speed>
<course>180.0</course>
<desc>Speed 0.2 km/h Distance 0.71 km</desc>
<time>2010-02-27T10:10:09.96</time>
<name>523</name>
</trkpt>
<trkpt lat="48.940568" lon="8.658752">
<ele>354.5</ele>
<speed>0.2</speed>
<course>180.0</course>
<desc>Speed 0.2 km/h Distance 0.71 km</desc>
<time>2010-02-27T10:10:10.95</time>
<name>524</name>
</trkpt>
<trkpt lat="48.940568" lon="8.658752">
<ele>354.0</ele>
<speed>0.3</speed>
<course>180.0</course>
<desc>Speed 0.3 km/h Distance 0.71 km</desc>
<time>2010-02-27T10:10:11.95</time>
<name>525</name>
</trkpt>
<trkpt lat="48.940568" lon="8.658752">
<ele>354.0</ele>
<speed>0.1</speed>
<course>180.0</course>
<desc>Speed 0.1 km/h Distance 0.71 km</desc>
<time>2010-02-27T10:10:12.96</time>
<name>526</name>
</trkpt>
<trkpt lat="48.940568" lon="8.658753">
<ele>354.0</ele>
<speed>0.1</speed>
<course>180.0</course>
<desc>Speed 0.1 km/h Distance 0.71 km</desc>
<time>2010-02-27T10:10:13.95</time>
<name>527</name>
</trkpt>
<trkpt lat="48.940567" lon="8.658753">
<ele>354.0</ele>
<speed>0.2</speed>
<course>180.0</course>
<desc>Speed 0.2 km/h Distance 0.71 km</desc>
<time>2010-02-27T10:10:14.97</time>
<name>528</name>
</trkpt>
<trkpt lat="48.940567" lon="8.658753">
<ele>354.0</ele>
<speed>0.3</speed>
<course>180.0</course>
<desc>Speed 0.3 km/h Distance 0.71 km</desc>
<time>2010-02-27T10:10:15.95</time>
<name>529</name>
</trkpt>
<trkpt lat="48.940567" lon="8.658753">
<ele>354.0</ele>
<speed>0.4</speed>
<course>180.0</course>
<desc>Speed 0.4 km/h Distance 0.71 km</desc>
<time>2010-02-27T10:10:16.94</time>
<name>530</name>
</trkpt>
<trkpt lat="48.940567" lon="8.658753">
<ele>354.0</ele>
<speed>0.0</speed>
<course>167.4</course>
<desc>Speed 0.0 km/h Distance 0.71 km</desc>
<time>2010-02-27T10:10:17.95</time>
<name>531</name>
</trkpt>
<trkpt lat="48.940557" lon="8.658757">
<ele>354.0</ele>
<speed>4.6</speed>
<course>150.8</course>
<desc>Speed 4.6 km/h Distance 0.71 km</desc>
<time>2010-02-27T10:10:18.95</time>
<name>532</name>
</trkpt>
<trkpt lat="48.940555" lon="8.658758">
<ele>354.0</ele>
<speed>0.9</speed>
<course>12.6</course>
<desc>Speed 0.9 km/h Distance 0.71 km</desc>
<time>2010-02-27T10:10:19.95</time>
<name>533</name>
</trkpt>
<trkpt lat="48.940557" lon="8.658758">
<ele>354.0</ele>
<speed>0.8</speed>
<course>12.6</course>
<desc>Speed 0.8 km/h Distance 0.71 km</desc>
<time>2010-02-27T10:10:20.95</time>
<name>534</name>
</trkpt>
<trkpt lat="48.940558" lon="8.658758">
<ele>354.0</ele>
<speed>0.6</speed>
<course>29.2</course>
<desc>Speed 0.6 km/h Distance 0.71 km</desc>
<time>2010-02-27T10:10:21.97</time>
<name>535</name>
</trkpt>
<trkpt lat="48.940560" lon="8.658760">
<ele>354.0</ele>
<speed>0.4</speed>
<course>12.6</course>
<desc>Speed 0.4 km/h Distance 0.71 km</desc>
<time>2010-02-27T10:10:22.95</time>
<name>536</name>
</trkpt>
<trkpt lat="48.940563" lon="8.658762">
<ele>354.0</ele>
<speed>0.1</speed>
<course>58.6</course>
<desc>Speed 0.1 km/h Distance 0.71 km</desc>
<time>2010-02-27T10:10:23.95</time>
<name>537</name>
</trkpt>
<trkpt lat="48.940567" lon="8.658770">
<ele>353.5</ele>
<speed>2.2</speed>
<course>172.6</course>
<desc>Speed 2.2 km/h Distance 0.71 km</desc>
<time>2010-02-27T10:10:24.95</time>
<name>538</name>
</trkpt>
<trkpt lat="48.940560" lon="8.658772">
<ele>353.5</ele>
<speed>3.2</speed>
<course>172.6</course>
<desc>Speed 3.2 km/h Distance 0.71 km</desc>
<time>2010-02-27T10:10:25.95</time>
<name>539</name>
</trkpt>
<trkpt lat="48.940553" lon="8.658773">
<ele>353.0</ele>
<speed>3.5</speed>
<course>180.0</course>
<desc>Speed 3.5 km/h Distance 0.71 km</desc>
<time>2010-02-27T10:10:26.95</time>
<name>540</name>
</trkpt>
<trkpt lat="48.940543" lon="8.658773">
<ele>353.0</ele>
<speed>3.5</speed>
<course>243.0</course>
<desc>Speed 3.5 km/h Distance 0.71 km</desc>
<time>2010-02-27T10:10:27.95</time>
<name>541</name>
</trkpt>
<trkpt lat="48.940540" lon="8.658763">
<ele>353.0</ele>
<speed>3.6</speed>
<course>246.5</course>
<desc>Speed 3.6 km/h Distance 0.71 km</desc>
<time>2010-02-27T10:10:28.95</time>
<name>542</name>
</trkpt>
<trkpt lat="48.940537" lon="8.658752">
<ele>352.5</ele>
<speed>4.7</speed>
<course>206.2</course>
<desc>Speed 4.7 km/h Distance 0.71 km</desc>
<time>2010-02-27T10:10:29.95</time>
<name>543</name>
</trkpt>
<trkpt lat="48.940523" lon="8.658742">
<ele>352.5</ele>
<speed>4.8</speed>
<course>270.0</course>
<desc>Speed 4.8 km/h Distance 0.71 km</desc>
<time>2010-02-27T10:10:30.95</time>
<name>544</name>
</trkpt>
<trkpt lat="48.940523" lon="8.658730">
<ele>352.0</ele>
<speed>4.8</speed>
<course>253.3</course>
<desc>Speed 4.8 km/h Distance 0.72 km</desc>
<time>2010-02-27T10:10:31.95</time>
<name>545</name>
</trkpt>
<trkpt lat="48.940522" lon="8.658722">
<ele>352.0</ele>
<speed>5.0</speed>
<course>192.6</course>
<desc>Speed 5.0 km/h Distance 0.72 km</desc>
<time>2010-02-27T10:10:32.95</time>
<name>546</name>
</trkpt>
<trkpt lat="48.940507" lon="8.658717">
<ele>351.5</ele>
<speed>5.4</speed>
<course>191.2</course>
<desc>Speed 5.4 km/h Distance 0.72 km</desc>
<time>2010-02-27T10:10:33.95</time>
<name>547</name>
</trkpt>
<trkpt lat="48.940490" lon="8.658712">
<ele>351.5</ele>
<speed>5.1</speed>
<course>209.8</course>
<desc>Speed 5.1 km/h Distance 0.72 km</desc>
<time>2010-02-27T10:10:34.95</time>
<name>548</name>
</trkpt>
<trkpt lat="48.940477" lon="8.658700">
<ele>351.0</ele>
<speed>5.3</speed>
<course>189.8</course>
<desc>Speed 5.3 km/h Distance 0.72 km</desc>
<time>2010-02-27T10:10:35.95</time>
<name>549</name>
</trkpt>
<trkpt lat="48.940458" lon="8.658695">
<ele>350.5</ele>
<speed>5.7</speed>
<course>224.5</course>
<desc>Speed 5.7 km/h Distance 0.72 km</desc>
<time>2010-02-27T10:10:36.95</time>
<name>550</name>
</trkpt>
<trkpt lat="48.940448" lon="8.658680">
<ele>350.0</ele>
<speed>5.6</speed>
<course>220.3</course>
<desc>Speed 5.6 km/h Distance 0.73 km</desc>
<time>2010-02-27T10:10:37.95</time>
<name>551</name>
</trkpt>
<trkpt lat="48.940437" lon="8.658665">
<ele>349.5</ele>
<speed>5.5</speed>
<course>209.4</course>
<desc>Speed 5.5 km/h Distance 0.73 km</desc>
<time>2010-02-27T10:10:38.95</time>
<name>552</name>
</trkpt>
<trkpt lat="48.940425" lon="8.658655">
<ele>349.0</ele>
<speed>5.1</speed>
<course>194.9</course>
<desc>Speed 5.1 km/h Distance 0.73 km</desc>
<time>2010-02-27T10:10:39.95</time>
<name>553</name>
</trkpt>
<trkpt lat="48.940408" lon="8.658648">
<ele>348.0</ele>
<speed>5.4</speed>
<course>187.7</course>
<desc>Speed 5.4 km/h Distance 0.73 km</desc>
<time>2010-02-27T10:10:40.95</time>
<name>554</name>
</trkpt>
<trkpt lat="48.940392" lon="8.658645">
<ele>347.5</ele>
<speed>5.4</speed>
<course>194.3</course>
<desc>Speed 5.4 km/h Distance 0.73 km</desc>
<time>2010-02-27T10:10:41.95</time>
<name>555</name>
</trkpt>
<trkpt lat="48.940375" lon="8.658638">
<ele>346.5</ele>
<speed>5.5</speed>
<course>213.2</course>
<desc>Speed 5.5 km/h Distance 0.73 km</desc>
<time>2010-02-27T10:10:42.95</time>
<name>556</name>
</trkpt>
<trkpt lat="48.940365" lon="8.658628">
<ele>346.0</ele>
<speed>5.3</speed>
<course>221.2</course>
<desc>Speed 5.3 km/h Distance 0.74 km</desc>
<time>2010-02-27T10:10:43.95</time>
<name>557</name>
</trkpt>
<trkpt lat="48.940355" lon="8.658615">
<ele>345.5</ele>
<speed>5.1</speed>
<course>209.4</course>
<desc>Speed 5.1 km/h Distance 0.74 km</desc>
<time>2010-02-27T10:10:44.95</time>
<name>558</name>
</trkpt>
<trkpt lat="48.940343" lon="8.658605">
<ele>345.0</ele>
<speed>5.1</speed>
<course>217.3</course>
<desc>Speed 5.1 km/h Distance 0.74 km</desc>
<time>2010-02-27T10:10:45.95</time>
<name>559</name>
</trkpt>
<trkpt lat="48.940333" lon="8.658593">
<ele>344.5</ele>
<speed>5.1</speed>
<course>221.2</course>
<desc>Speed 5.1 km/h Distance 0.74 km</desc>
<time>2010-02-27T10:10:46.95</time>
<name>560</name>
</trkpt>
<trkpt lat="48.940323" lon="8.658580">
<ele>344.0</ele>
<speed>5.1</speed>
<course>221.2</course>
<desc>Speed 5.1 km/h Distance 0.74 km</desc>
<time>2010-02-27T10:10:47.95</time>
<name>561</name>
</trkpt>
<trkpt lat="48.940313" lon="8.658567">
<ele>343.0</ele>
<speed>5.1</speed>
<course>226.4</course>
<desc>Speed 5.1 km/h Distance 0.74 km</desc>
<time>2010-02-27T10:10:48.95</time>
<name>562</name>
</trkpt>
<trkpt lat="48.940305" lon="8.658553">
<ele>342.5</ele>
<speed>5.2</speed>
<course>221.2</course>
<desc>Speed 5.2 km/h Distance 0.74 km</desc>
<time>2010-02-27T10:10:49.95</time>
<name>563</name>
</trkpt>
<trkpt lat="48.940295" lon="8.658540">
<ele>342.0</ele>
<speed>5.1</speed>
<course>235.9</course>
<desc>Speed 5.1 km/h Distance 0.75 km</desc>
<time>2010-02-27T10:10:50.95</time>
<name>564</name>
</trkpt>
<trkpt lat="48.940288" lon="8.658525">
<ele>341.5</ele>
<speed>5.3</speed>
<course>206.0</course>
<desc>Speed 5.3 km/h Distance 0.75 km</desc>
<time>2010-02-27T10:10:51.95</time>
<name>565</name>
</trkpt>
<trkpt lat="48.940275" lon="8.658515">
<ele>341.0</ele>
<speed>5.2</speed>
<course>213.2</course>
<desc>Speed 5.2 km/h Distance 0.75 km</desc>
<time>2010-02-27T10:10:52.95</time>
<name>566</name>
</trkpt>
<trkpt lat="48.940265" lon="8.658505">
<ele>341.0</ele>
<speed>5.3</speed>
<course>238.7</course>
<desc>Speed 5.3 km/h Distance 0.75 km</desc>
<time>2010-02-27T10:10:53.95</time>
<name>567</name>
</trkpt>
<trkpt lat="48.940258" lon="8.658488">
<ele>340.5</ele>
<speed>5.3</speed>
<course>217.5</course>
<desc>Speed 5.3 km/h Distance 0.75 km</desc>
<time>2010-02-27T10:10:54.95</time>
<name>568</name>
</trkpt>
<trkpt lat="48.940248" lon="8.658477">
<ele>340.0</ele>
<speed>5.1</speed>
<course>217.3</course>
<desc>Speed 5.1 km/h Distance 0.75 km</desc>
<time>2010-02-27T10:10:55.95</time>
<name>569</name>
</trkpt>
<trkpt lat="48.940238" lon="8.658465">
<ele>339.5</ele>
<speed>5.2</speed>
<course>217.5</course>
<desc>Speed 5.2 km/h Distance 0.75 km</desc>
<time>2010-02-27T10:10:56.95</time>
<name>570</name>
</trkpt>
<trkpt lat="48.940228" lon="8.658453">
<ele>339.0</ele>
<speed>5.3</speed>
<course>217.5</course>
<desc>Speed 5.3 km/h Distance 0.76 km</desc>
<time>2010-02-27T10:10:57.95</time>
<name>571</name>
</trkpt>
<trkpt lat="48.940218" lon="8.658442">
<ele>338.5</ele>
<speed>5.1</speed>
<course>217.3</course>
<desc>Speed 5.1 km/h Distance 0.76 km</desc>
<time>2010-02-27T10:10:58.95</time>
<name>572</name>
</trkpt>
<trkpt lat="48.940208" lon="8.658430">
<ele>338.0</ele>
<speed>5.2</speed>
<course>217.5</course>
<desc>Speed 5.2 km/h Distance 0.76 km</desc>
<time>2010-02-27T10:10:59.95</time>
<name>573</name>
</trkpt>
<trkpt lat="48.940198" lon="8.658418">
<ele>337.5</ele>
<speed>5.0</speed>
<course>255.9</course>
<desc>Speed 5.0 km/h Distance 0.76 km</desc>
<time>2010-02-27T10:11:00.95</time>
<name>574</name>
</trkpt>
<trkpt lat="48.940197" lon="8.658408">
<ele>336.0</ele>
<speed>5.1</speed>
<course>221.3</course>
<desc>Speed 5.1 km/h Distance 0.76 km</desc>
<time>2010-02-27T10:11:01.95</time>
<name>575</name>
</trkpt>
<trkpt lat="48.940187" lon="8.658395">
<ele>335.5</ele>
<speed>5.1</speed>
<course>218.1</course>
<desc>Speed 5.1 km/h Distance 0.76 km</desc>
<time>2010-02-27T10:11:02.95</time>
<name>576</name>
</trkpt>
<trkpt lat="48.940178" lon="8.658385">
<ele>335.5</ele>
<speed>4.9</speed>
<course>221.4</course>
<desc>Speed 4.9 km/h Distance 0.76 km</desc>
<time>2010-02-27T10:11:03.95</time>
<name>577</name>
</trkpt>
<trkpt lat="48.940168" lon="8.658372">
<ele>334.5</ele>
<speed>5.2</speed>
<course>226.5</course>
<desc>Speed 5.2 km/h Distance 0.76 km</desc>
<time>2010-02-27T10:11:04.95</time>
<name>578</name>
</trkpt>
<trkpt lat="48.940160" lon="8.658358">
<ele>334.5</ele>
<speed>5.1</speed>
<course>217.5</course>
<desc>Speed 5.1 km/h Distance 0.77 km</desc>
<time>2010-02-27T10:11:05.95</time>
<name>579</name>
</trkpt>
<trkpt lat="48.940150" lon="8.658347">
<ele>334.0</ele>
<speed>5.0</speed>
<course>221.2</course>
<desc>Speed 5.0 km/h Distance 0.77 km</desc>
<time>2010-02-27T10:11:06.95</time>
<name>580</name>
</trkpt>
<trkpt lat="48.940140" lon="8.658333">
<ele>333.5</ele>
<speed>5.1</speed>
<course>226.5</course>
<desc>Speed 5.1 km/h Distance 0.77 km</desc>
<time>2010-02-27T10:11:07.95</time>
<name>581</name>
</trkpt>
<trkpt lat="48.940132" lon="8.658320">
<ele>333.0</ele>
<speed>5.0</speed>
<course>217.5</course>
<desc>Speed 5.0 km/h Distance 0.77 km</desc>
<time>2010-02-27T10:11:08.95</time>
<name>582</name>
</trkpt>
<trkpt lat="48.940122" lon="8.658308">
<ele>332.5</ele>
<speed>5.0</speed>
<course>222.5</course>
<desc>Speed 5.0 km/h Distance 0.77 km</desc>
<time>2010-02-27T10:11:09.95</time>
<name>583</name>
</trkpt>
<trkpt lat="48.940113" lon="8.658297">
<ele>332.0</ele>
<speed>4.8</speed>
<course>217.5</course>
<desc>Speed 4.8 km/h Distance 0.77 km</desc>
<time>2010-02-27T10:11:10.95</time>
<name>584</name>
</trkpt>
<trkpt lat="48.940103" lon="8.658285">
<ele>331.5</ele>
<speed>5.0</speed>
<course>222.6</course>
<desc>Speed 5.0 km/h Distance 0.77 km</desc>
<time>2010-02-27T10:11:11.95</time>
<name>585</name>
</trkpt>
<trkpt lat="48.940095" lon="8.658273">
<ele>331.0</ele>
<speed>5.0</speed>
<course>221.2</course>
<desc>Speed 5.0 km/h Distance 0.78 km</desc>
<time>2010-02-27T10:11:12.95</time>
<name>586</name>
</trkpt>
<trkpt lat="48.940085" lon="8.658260">
<ele>330.0</ele>
<speed>5.1</speed>
<course>221.2</course>
<desc>Speed 5.1 km/h Distance 0.78 km</desc>
<time>2010-02-27T10:11:13.95</time>
<name>587</name>
</trkpt>
<trkpt lat="48.940075" lon="8.658247">
<ele>329.5</ele>
<speed>5.1</speed>
<course>221.2</course>
<desc>Speed 5.1 km/h Distance 0.78 km</desc>
<time>2010-02-27T10:11:14.95</time>
<name>588</name>
</trkpt>
<trkpt lat="48.940065" lon="8.658233">
<ele>329.0</ele>
<speed>5.1</speed>
<course>221.4</course>
<desc>Speed 5.1 km/h Distance 0.78 km</desc>
<time>2010-02-27T10:11:15.95</time>
<name>589</name>
</trkpt>
<trkpt lat="48.940055" lon="8.658220">
<ele>328.5</ele>
<speed>5.1</speed>
<course>243.1</course>
<desc>Speed 5.1 km/h Distance 0.78 km</desc>
<time>2010-02-27T10:11:16.95</time>
<name>590</name>
</trkpt>
<trkpt lat="48.940050" lon="8.658205">
<ele>327.5</ele>
<speed>5.1</speed>
<course>217.2</course>
<desc>Speed 5.1 km/h Distance 0.78 km</desc>
<time>2010-02-27T10:11:17.95</time>
<name>591</name>
</trkpt>
<trkpt lat="48.940040" lon="8.658193">
<ele>327.0</ele>
<speed>4.8</speed>
<course>222.6</course>
<desc>Speed 4.8 km/h Distance 0.78 km</desc>
<time>2010-02-27T10:11:18.95</time>
<name>592</name>
</trkpt>
<trkpt lat="48.940032" lon="8.658182">
<ele>326.5</ele>
<speed>4.9</speed>
<course>217.5</course>
<desc>Speed 4.9 km/h Distance 0.79 km</desc>
<time>2010-02-27T10:11:19.95</time>
<name>593</name>
</trkpt>
<trkpt lat="48.940022" lon="8.658170">
<ele>326.0</ele>
<speed>4.9</speed>
<course>222.6</course>
<desc>Speed 4.9 km/h Distance 0.79 km</desc>
<time>2010-02-27T10:11:20.95</time>
<name>594</name>
</trkpt>
<trkpt lat="48.940013" lon="8.658158">
<ele>325.5</ele>
<speed>4.6</speed>
<course>232.8</course>
<desc>Speed 4.6 km/h Distance 0.79 km</desc>
<time>2010-02-27T10:11:21.95</time>
<name>595</name>
</trkpt>
<trkpt lat="48.940007" lon="8.658145">
<ele>325.0</ele>
<speed>4.8</speed>
<course>226.4</course>
<desc>Speed 4.8 km/h Distance 0.79 km</desc>
<time>2010-02-27T10:11:22.95</time>
<name>596</name>
</trkpt>
<trkpt lat="48.939998" lon="8.658132">
<ele>324.5</ele>
<speed>4.8</speed>
<course>222.5</course>
<desc>Speed 4.8 km/h Distance 0.79 km</desc>
<time>2010-02-27T10:11:23.95</time>
<name>597</name>
</trkpt>
<trkpt lat="48.939990" lon="8.658120">
<ele>324.0</ele>
<speed>4.6</speed>
<course>232.7</course>
<desc>Speed 4.6 km/h Distance 0.79 km</desc>
<time>2010-02-27T10:11:24.95</time>
<name>598</name>
</trkpt>
<trkpt lat="48.939983" lon="8.658107">
<ele>323.5</ele>
<speed>4.5</speed>
<course>222.6</course>
<desc>Speed 4.5 km/h Distance 0.79 km</desc>
<time>2010-02-27T10:11:25.95</time>
<name>599</name>
</trkpt>
<trkpt lat="48.939975" lon="8.658095">
<ele>323.0</ele>
<speed>4.5</speed>
<course>222.6</course>
<desc>Speed 4.5 km/h Distance 0.79 km</desc>
<time>2010-02-27T10:11:26.95</time>
<name>600</name>
</trkpt>
<trkpt lat="48.939967" lon="8.658083">
<ele>322.5</ele>
<speed>4.6</speed>
<course>222.6</course>
<desc>Speed 4.6 km/h Distance 0.80 km</desc>
<time>2010-02-27T10:11:27.95</time>
<name>601</name>
</trkpt>
<trkpt lat="48.939958" lon="8.658072">
<ele>322.0</ele>
<speed>4.6</speed>
<course>243.1</course>
<desc>Speed 4.6 km/h Distance 0.80 km</desc>
<time>2010-02-27T10:11:28.95</time>
<name>602</name>
</trkpt>
<trkpt lat="48.939953" lon="8.658057">
<ele>321.5</ele>
<speed>4.7</speed>
<course>217.7</course>
<desc>Speed 4.7 km/h Distance 0.80 km</desc>
<time>2010-02-27T10:11:29.95</time>
<name>603</name>
</trkpt>
<trkpt lat="48.939943" lon="8.658045">
<ele>321.5</ele>
<speed>4.8</speed>
<course>226.6</course>
<desc>Speed 4.8 km/h Distance 0.80 km</desc>
<time>2010-02-27T10:11:30.95</time>
<name>604</name>
</trkpt>
<trkpt lat="48.939935" lon="8.658032">
<ele>321.0</ele>
<speed>5.0</speed>
<course>226.4</course>
<desc>Speed 5.0 km/h Distance 0.80 km</desc>
<time>2010-02-27T10:11:31.95</time>
<name>605</name>
</trkpt>
<trkpt lat="48.939927" lon="8.658018">
<ele>320.0</ele>
<speed>4.6</speed>
<course>240.3</course>
<desc>Speed 4.6 km/h Distance 0.80 km</desc>
<time>2010-02-27T10:11:32.95</time>
<name>606</name>
</trkpt>
<trkpt lat="48.939922" lon="8.658005">
<ele>319.5</ele>
<speed>4.5</speed>
<course>217.5</course>
<desc>Speed 4.5 km/h Distance 0.80 km</desc>
<time>2010-02-27T10:11:33.95</time>
<name>607</name>
</trkpt>
<trkpt lat="48.939912" lon="8.657993">
<ele>319.5</ele>
<speed>4.8</speed>
<course>222.6</course>
<desc>Speed 4.8 km/h Distance 0.80 km</desc>
<time>2010-02-27T10:11:34.95</time>
<name>608</name>
</trkpt>
<trkpt lat="48.939903" lon="8.657982">
<ele>319.5</ele>
<speed>4.8</speed>
<course>213.4</course>
<desc>Speed 4.8 km/h Distance 0.81 km</desc>
<time>2010-02-27T10:11:35.95</time>
<name>609</name>
</trkpt>
<trkpt lat="48.939893" lon="8.657972">
<ele>319.0</ele>
<speed>4.7</speed>
<course>229.1</course>
<desc>Speed 4.7 km/h Distance 0.81 km</desc>
<time>2010-02-27T10:11:36.95</time>
<name>610</name>
</trkpt>
<trkpt lat="48.939887" lon="8.657960">
<ele>319.0</ele>
<speed>4.6</speed>
<course>236.7</course>
<desc>Speed 4.6 km/h Distance 0.81 km</desc>
<time>2010-02-27T10:11:37.95</time>
<name>611</name>
</trkpt>
<trkpt lat="48.939882" lon="8.657948">
<ele>318.0</ele>
<speed>4.5</speed>
<course>232.7</course>
<desc>Speed 4.5 km/h Distance 0.81 km</desc>
<time>2010-02-27T10:11:38.95</time>
<name>612</name>
</trkpt>
<trkpt lat="48.939875" lon="8.657935">
<ele>317.5</ele>
<speed>4.7</speed>
<course>213.4</course>
<desc>Speed 4.7 km/h Distance 0.81 km</desc>
<time>2010-02-27T10:11:39.95</time>
<name>613</name>
</trkpt>
<trkpt lat="48.939865" lon="8.657925">
<ele>317.0</ele>
<speed>4.7</speed>
<course>229.1</course>
<desc>Speed 4.7 km/h Distance 0.81 km</desc>
<time>2010-02-27T10:11:40.95</time>
<name>614</name>
</trkpt>
<trkpt lat="48.939858" lon="8.657913">
<ele>317.0</ele>
<speed>4.4</speed>
<course>228.9</course>
<desc>Speed 4.4 km/h Distance 0.81 km</desc>
<time>2010-02-27T10:11:41.95</time>
<name>615</name>
</trkpt>
<trkpt lat="48.939852" lon="8.657902">
<ele>316.5</ele>
<speed>4.8</speed>
<course>222.6</course>
<desc>Speed 4.8 km/h Distance 0.81 km</desc>
<time>2010-02-27T10:11:42.95</time>
<name>616</name>
</trkpt>
<trkpt lat="48.939843" lon="8.657890">
<ele>316.0</ele>
<speed>4.8</speed>
<course>228.9</course>
<desc>Speed 4.8 km/h Distance 0.82 km</desc>
<time>2010-02-27T10:11:43.95</time>
<name>617</name>
</trkpt>
<trkpt lat="48.939837" lon="8.657878">
<ele>315.5</ele>
<speed>4.8</speed>
<course>226.5</course>
<desc>Speed 4.8 km/h Distance 0.82 km</desc>
<time>2010-02-27T10:11:44.95</time>
<name>618</name>
</trkpt>
<trkpt lat="48.939828" lon="8.657865">
<ele>315.5</ele>
<speed>4.4</speed>
<course>226.6</course>
<desc>Speed 4.4 km/h Distance 0.82 km</desc>
<time>2010-02-27T10:11:45.95</time>
<name>619</name>
</trkpt>
<trkpt lat="48.939820" lon="8.657852">
<ele>315.0</ele>
<speed>4.8</speed>
<course>222.6</course>
<desc>Speed 4.8 km/h Distance 0.82 km</desc>
<time>2010-02-27T10:11:46.95</time>
<name>620</name>
</trkpt>
<trkpt lat="48.939812" lon="8.657840">
<ele>314.5</ele>
<speed>4.8</speed>
<course>226.5</course>
<desc>Speed 4.8 km/h Distance 0.82 km</desc>
<time>2010-02-27T10:11:47.95</time>
<name>621</name>
</trkpt>
<trkpt lat="48.939803" lon="8.657827">
<ele>314.5</ele>
<speed>4.4</speed>
<course>222.6</course>
<desc>Speed 4.4 km/h Distance 0.82 km</desc>
<time>2010-02-27T10:11:48.95</time>
<name>622</name>
</trkpt>
<trkpt lat="48.939795" lon="8.657815">
<ele>314.5</ele>
<speed>4.5</speed>
<course>217.5</course>
<desc>Speed 4.5 km/h Distance 0.82 km</desc>
<time>2010-02-27T10:11:49.95</time>
<name>623</name>
</trkpt>
<trkpt lat="48.939785" lon="8.657803">
<ele>314.5</ele>
<speed>4.7</speed>
<course>222.6</course>
<desc>Speed 4.7 km/h Distance 0.82 km</desc>
<time>2010-02-27T10:11:50.95</time>
<name>624</name>
</trkpt>
<trkpt lat="48.939777" lon="8.657792">
<ele>314.0</ele>
<speed>4.9</speed>
<course>226.5</course>
<desc>Speed 4.9 km/h Distance 0.83 km</desc>
<time>2010-02-27T10:11:51.95</time>
<name>625</name>
</trkpt>
<trkpt lat="48.939768" lon="8.657778">
<ele>313.5</ele>
<speed>4.7</speed>
<course>222.6</course>
<desc>Speed 4.7 km/h Distance 0.83 km</desc>
<time>2010-02-27T10:11:52.95</time>
<name>626</name>
</trkpt>
<trkpt lat="48.939760" lon="8.657767">
<ele>313.5</ele>
<speed>4.5</speed>
<course>232.7</course>
<desc>Speed 4.5 km/h Distance 0.83 km</desc>
<time>2010-02-27T10:11:53.95</time>
<name>627</name>
</trkpt>
<trkpt lat="48.939753" lon="8.657753">
<ele>313.5</ele>
<speed>4.7</speed>
<course>229.8</course>
<desc>Speed 4.7 km/h Distance 0.83 km</desc>
<time>2010-02-27T10:11:54.95</time>
<name>628</name>
</trkpt>
<trkpt lat="48.939745" lon="8.657738">
<ele>313.0</ele>
<speed>4.7</speed>
<course>222.6</course>
<desc>Speed 4.7 km/h Distance 0.83 km</desc>
<time>2010-02-27T10:11:55.95</time>
<name>629</name>
</trkpt>
<trkpt lat="48.939737" lon="8.657727">
<ele>312.5</ele>
<speed>4.6</speed>
<course>222.6</course>
<desc>Speed 4.6 km/h Distance 0.83 km</desc>
<time>2010-02-27T10:11:56.95</time>
<name>630</name>
</trkpt>
<trkpt lat="48.939728" lon="8.657715">
<ele>312.0</ele>
<speed>4.7</speed>
<course>221.3</course>
<desc>Speed 4.7 km/h Distance 0.83 km</desc>
<time>2010-02-27T10:11:57.95</time>
<name>631</name>
</trkpt>
<trkpt lat="48.939718" lon="8.657702">
<ele>311.5</ele>
<speed>5.0</speed>
<course>238.7</course>
<desc>Speed 5.0 km/h Distance 0.84 km</desc>
<time>2010-02-27T10:11:58.95</time>
<name>632</name>
</trkpt>
<trkpt lat="48.939712" lon="8.657685">
<ele>311.0</ele>
<speed>5.0</speed>
<course>235.9</course>
<desc>Speed 5.0 km/h Distance 0.84 km</desc>
<time>2010-02-27T10:11:59.95</time>
<name>633</name>
</trkpt>
<trkpt lat="48.939705" lon="8.657670">
<ele>310.5</ele>
<speed>4.7</speed>
<course>222.6</course>
<desc>Speed 4.7 km/h Distance 0.84 km</desc>
<time>2010-02-27T10:12:00.95</time>
<name>634</name>
</trkpt>
<trkpt lat="48.939697" lon="8.657658">
<ele>310.5</ele>
<speed>4.8</speed>
<course>222.5</course>
<desc>Speed 4.8 km/h Distance 0.84 km</desc>
<time>2010-02-27T10:12:01.95</time>
<name>635</name>
</trkpt>
<trkpt lat="48.939688" lon="8.657647">
<ele>310.0</ele>
<speed>4.9</speed>
<course>217.3</course>
<desc>Speed 4.9 km/h Distance 0.84 km</desc>
<time>2010-02-27T10:12:02.95</time>
<name>636</name>
</trkpt>
<trkpt lat="48.939678" lon="8.657635">
<ele>309.5</ele>
<speed>4.8</speed>
<course>213.2</course>
<desc>Speed 4.8 km/h Distance 0.84 km</desc>
<time>2010-02-27T10:12:03.95</time>
<name>637</name>
</trkpt>
<trkpt lat="48.939668" lon="8.657625">
<ele>309.5</ele>
<speed>4.7</speed>
<course>222.6</course>
<desc>Speed 4.7 km/h Distance 0.84 km</desc>
<time>2010-02-27T10:12:04.95</time>
<name>638</name>
</trkpt>
<trkpt lat="48.939660" lon="8.657613">
<ele>309.5</ele>
<speed>4.7</speed>
<course>217.5</course>
<desc>Speed 4.7 km/h Distance 0.84 km</desc>
<time>2010-02-27T10:12:05.95</time>
<name>639</name>
</trkpt>
<trkpt lat="48.939650" lon="8.657602">
<ele>309.0</ele>
<speed>4.9</speed>
<course>226.4</course>
<desc>Speed 4.9 km/h Distance 0.85 km</desc>
<time>2010-02-27T10:12:06.95</time>
<name>640</name>
</trkpt>
<trkpt lat="48.939642" lon="8.657588">
<ele>309.0</ele>
<speed>4.8</speed>
<course>235.9</course>
<desc>Speed 4.8 km/h Distance 0.85 km</desc>
<time>2010-02-27T10:12:07.95</time>
<name>641</name>
</trkpt>
<trkpt lat="48.939635" lon="8.657573">
<ele>308.5</ele>
<speed>5.0</speed>
<course>229.7</course>
<desc>Speed 5.0 km/h Distance 0.85 km</desc>
<time>2010-02-27T10:12:08.95</time>
<name>642</name>
</trkpt>
<trkpt lat="48.939627" lon="8.657558">
<ele>308.5</ele>
<speed>4.9</speed>
<course>226.4</course>
<desc>Speed 4.9 km/h Distance 0.85 km</desc>
<time>2010-02-27T10:12:09.95</time>
<name>643</name>
</trkpt>
<trkpt lat="48.939618" lon="8.657545">
<ele>308.5</ele>
<speed>5.0</speed>
<course>224.5</course>
<desc>Speed 5.0 km/h Distance 0.85 km</desc>
<time>2010-02-27T10:12:10.95</time>
<name>644</name>
</trkpt>
<trkpt lat="48.939608" lon="8.657530">
<ele>308.0</ele>
<speed>5.0</speed>
<course>213.2</course>
<desc>Speed 5.0 km/h Distance 0.85 km</desc>
<time>2010-02-27T10:12:11.95</time>
<name>645</name>
</trkpt>
<trkpt lat="48.939598" lon="8.657520">
<ele>308.0</ele>
<speed>4.9</speed>
<course>213.2</course>
<desc>Speed 4.9 km/h Distance 0.85 km</desc>
<time>2010-02-27T10:12:12.95</time>
<name>646</name>
</trkpt>
<trkpt lat="48.939588" lon="8.657510">
<ele>307.5</ele>
<speed>4.8</speed>
<course>217.5</course>
<desc>Speed 4.8 km/h Distance 0.86 km</desc>
<time>2010-02-27T10:12:13.95</time>
<name>647</name>
</trkpt>
<trkpt lat="48.939578" lon="8.657498">
<ele>307.5</ele>
<speed>5.0</speed>
<course>213.2</course>
<desc>Speed 5.0 km/h Distance 0.86 km</desc>
<time>2010-02-27T10:12:14.95</time>
<name>648</name>
</trkpt>
<trkpt lat="48.939568" lon="8.657488">
<ele>307.5</ele>
<speed>5.0</speed>
<course>213.2</course>
<desc>Speed 5.0 km/h Distance 0.86 km</desc>
<time>2010-02-27T10:12:15.95</time>
<name>649</name>
</trkpt>
<trkpt lat="48.939558" lon="8.657478">
<ele>307.5</ele>
<speed>4.9</speed>
<course>213.0</course>
<desc>Speed 4.9 km/h Distance 0.86 km</desc>
<time>2010-02-27T10:12:16.95</time>
<name>650</name>
</trkpt>
<trkpt lat="48.939548" lon="8.657468">
<ele>307.5</ele>
<speed>4.8</speed>
<course>213.2</course>
<desc>Speed 4.8 km/h Distance 0.86 km</desc>
<time>2010-02-27T10:12:17.95</time>
<name>651</name>
</trkpt>
<trkpt lat="48.939538" lon="8.657458">
<ele>307.5</ele>
<speed>4.8</speed>
<course>213.2</course>
<desc>Speed 4.8 km/h Distance 0.86 km</desc>
<time>2010-02-27T10:12:18.95</time>
<name>652</name>
</trkpt>
<trkpt lat="48.939528" lon="8.657448">
<ele>307.0</ele>
<speed>5.0</speed>
<course>217.5</course>
<desc>Speed 5.0 km/h Distance 0.86 km</desc>
<time>2010-02-27T10:12:19.95</time>
<name>653</name>
</trkpt>
<trkpt lat="48.939518" lon="8.657437">
<ele>307.0</ele>
<speed>5.1</speed>
<course>204.9</course>
<desc>Speed 5.1 km/h Distance 0.86 km</desc>
<time>2010-02-27T10:12:20.95</time>
<name>654</name>
</trkpt>
<trkpt lat="48.939507" lon="8.657428">
<ele>307.0</ele>
<speed>5.1</speed>
<course>222.6</course>
<desc>Speed 5.1 km/h Distance 0.87 km</desc>
<time>2010-02-27T10:12:21.95</time>
<name>655</name>
</trkpt>
<trkpt lat="48.939498" lon="8.657417">
<ele>306.5</ele>
<speed>5.0</speed>
<course>221.2</course>
<desc>Speed 5.0 km/h Distance 0.87 km</desc>
<time>2010-02-27T10:12:22.95</time>
<name>656</name>
</trkpt>
<trkpt lat="48.939488" lon="8.657403">
<ele>306.5</ele>
<speed>5.1</speed>
<course>217.2</course>
<desc>Speed 5.1 km/h Distance 0.87 km</desc>
<time>2010-02-27T10:12:23.95</time>
<name>657</name>
</trkpt>
<trkpt lat="48.939478" lon="8.657392">
<ele>306.0</ele>
<speed>5.3</speed>
<course>222.6</course>
<desc>Speed 5.3 km/h Distance 0.87 km</desc>
<time>2010-02-27T10:12:24.95</time>
<name>658</name>
</trkpt>
<trkpt lat="48.939470" lon="8.657380">
<ele>306.0</ele>
<speed>5.0</speed>
<course>217.5</course>
<desc>Speed 5.0 km/h Distance 0.87 km</desc>
<time>2010-02-27T10:12:25.95</time>
<name>659</name>
</trkpt>
<trkpt lat="48.939460" lon="8.657368">
<ele>306.0</ele>
<speed>5.0</speed>
<course>226.4</course>
<desc>Speed 5.0 km/h Distance 0.87 km</desc>
<time>2010-02-27T10:12:26.95</time>
<name>660</name>
</trkpt>
<trkpt lat="48.939452" lon="8.657355">
<ele>306.0</ele>
<speed>5.2</speed>
<course>213.3</course>
<desc>Speed 5.2 km/h Distance 0.87 km</desc>
<time>2010-02-27T10:12:27.95</time>
<name>661</name>
</trkpt>
<trkpt lat="48.939440" lon="8.657343">
<ele>306.0</ele>
<speed>5.3</speed>
<course>221.2</course>
<desc>Speed 5.3 km/h Distance 0.88 km</desc>
<time>2010-02-27T10:12:28.95</time>
<name>662</name>
</trkpt>
<trkpt lat="48.939430" lon="8.657330">
<ele>306.0</ele>
<speed>5.4</speed>
<course>221.2</course>
<desc>Speed 5.4 km/h Distance 0.88 km</desc>
<time>2010-02-27T10:12:29.95</time>
<name>663</name>
</trkpt>
<trkpt lat="48.939420" lon="8.657317">
<ele>306.0</ele>
<speed>5.3</speed>
<course>229.8</course>
<desc>Speed 5.3 km/h Distance 0.88 km</desc>
<time>2010-02-27T10:12:30.95</time>
<name>664</name>
</trkpt>
<trkpt lat="48.939412" lon="8.657302">
<ele>306.0</ele>
<speed>5.3</speed>
<course>229.9</course>
<desc>Speed 5.3 km/h Distance 0.88 km</desc>
<time>2010-02-27T10:12:31.95</time>
<name>665</name>
</trkpt>
<trkpt lat="48.939403" lon="8.657287">
<ele>306.0</ele>
<speed>5.2</speed>
<course>229.9</course>
<desc>Speed 5.2 km/h Distance 0.88 km</desc>
<time>2010-02-27T10:12:32.95</time>
<name>666</name>
</trkpt>
<trkpt lat="48.939395" lon="8.657272">
<ele>305.5</ele>
<speed>5.3</speed>
<course>229.7</course>
<desc>Speed 5.3 km/h Distance 0.88 km</desc>
<time>2010-02-27T10:12:33.95</time>
<name>667</name>
</trkpt>
<trkpt lat="48.939387" lon="8.657257">
<ele>305.5</ele>
<speed>5.2</speed>
<course>232.7</course>
<desc>Speed 5.2 km/h Distance 0.88 km</desc>
<time>2010-02-27T10:12:34.95</time>
<name>668</name>
</trkpt>
<trkpt lat="48.939378" lon="8.657240">
<ele>305.5</ele>
<speed>5.5</speed>
<course>224.5</course>
<desc>Speed 5.5 km/h Distance 0.89 km</desc>
<time>2010-02-27T10:12:35.95</time>
<name>669</name>
</trkpt>
<trkpt lat="48.939368" lon="8.657225">
<ele>305.5</ele>
<speed>5.4</speed>
<course>217.5</course>
<desc>Speed 5.4 km/h Distance 0.89 km</desc>
<time>2010-02-27T10:12:36.95</time>
<name>670</name>
</trkpt>
<trkpt lat="48.939358" lon="8.657213">
<ele>305.0</ele>
<speed>5.3</speed>
<course>221.3</course>
<desc>Speed 5.3 km/h Distance 0.89 km</desc>
<time>2010-02-27T10:12:37.95</time>
<name>671</name>
</trkpt>
<trkpt lat="48.939348" lon="8.657200">
<ele>305.0</ele>
<speed>5.1</speed>
<course>213.2</course>
<desc>Speed 5.1 km/h Distance 0.89 km</desc>
<time>2010-02-27T10:12:38.95</time>
<name>672</name>
</trkpt>
<trkpt lat="48.939338" lon="8.657190">
<ele>305.0</ele>
<speed>4.9</speed>
<course>217.5</course>
<desc>Speed 4.9 km/h Distance 0.89 km</desc>
<time>2010-02-27T10:12:39.95</time>
<name>673</name>
</trkpt>
<trkpt lat="48.939328" lon="8.657178">
<ele>305.0</ele>
<speed>4.9</speed>
<course>213.2</course>
<desc>Speed 4.9 km/h Distance 0.89 km</desc>
<time>2010-02-27T10:12:40.95</time>
<name>674</name>
</trkpt>
<trkpt lat="48.939318" lon="8.657168">
<ele>305.0</ele>
<speed>4.8</speed>
<course>222.6</course>
<desc>Speed 4.8 km/h Distance 0.89 km</desc>
<time>2010-02-27T10:12:41.95</time>
<name>675</name>
</trkpt>
<trkpt lat="48.939310" lon="8.657157">
<ele>305.5</ele>
<speed>4.6</speed>
<course>217.5</course>
<desc>Speed 4.6 km/h Distance 0.90 km</desc>
<time>2010-02-27T10:12:42.95</time>
<name>676</name>
</trkpt>
<trkpt lat="48.939300" lon="8.657145">
<ele>305.0</ele>
<speed>4.9</speed>
<course>222.6</course>
<desc>Speed 4.9 km/h Distance 0.90 km</desc>
<time>2010-02-27T10:12:43.95</time>
<name>677</name>
</trkpt>
<trkpt lat="48.939292" lon="8.657133">
<ele>305.0</ele>
<speed>4.6</speed>
<course>217.2</course>
<desc>Speed 4.6 km/h Distance 0.90 km</desc>
<time>2010-02-27T10:12:44.95</time>
<name>678</name>
</trkpt>
<trkpt lat="48.939282" lon="8.657122">
<ele>305.5</ele>
<speed>4.9</speed>
<course>226.4</course>
<desc>Speed 4.9 km/h Distance 0.90 km</desc>
<time>2010-02-27T10:12:45.95</time>
<name>679</name>
</trkpt>
<trkpt lat="48.939273" lon="8.657108">
<ele>305.5</ele>
<speed>4.9</speed>
<course>221.3</course>
<desc>Speed 4.9 km/h Distance 0.90 km</desc>
<time>2010-02-27T10:12:46.98</time>
<name>680</name>
</trkpt>
<trkpt lat="48.939263" lon="8.657095">
<ele>305.0</ele>
<speed>5.0</speed>
<course>226.6</course>
<desc>Speed 5.0 km/h Distance 0.90 km</desc>
<time>2010-02-27T10:12:47.98</time>
<name>681</name>
</trkpt>
<trkpt lat="48.939255" lon="8.657082">
<ele>305.5</ele>
<speed>4.8</speed>
<course>217.5</course>
<desc>Speed 4.8 km/h Distance 0.90 km</desc>
<time>2010-02-27T10:12:48.98</time>
<name>682</name>
</trkpt>
<trkpt lat="48.939245" lon="8.657070">
<ele>305.5</ele>
<speed>5.0</speed>
<course>221.3</course>
<desc>Speed 5.0 km/h Distance 0.91 km</desc>
<time>2010-02-27T10:12:49.98</time>
<name>683</name>
</trkpt>
<trkpt lat="48.939235" lon="8.657057">
<ele>306.0</ele>
<speed>4.9</speed>
<course>221.2</course>
<desc>Speed 4.9 km/h Distance 0.91 km</desc>
<time>2010-02-27T10:12:50.98</time>
<name>684</name>
</trkpt>
<trkpt lat="48.939225" lon="8.657043">
<ele>306.0</ele>
<speed>5.0</speed>
<course>222.6</course>
<desc>Speed 5.0 km/h Distance 0.91 km</desc>
<time>2010-02-27T10:12:51.98</time>
<name>685</name>
</trkpt>
<trkpt lat="48.939217" lon="8.657032">
<ele>306.0</ele>
<speed>4.9</speed>
<course>226.4</course>
<desc>Speed 4.9 km/h Distance 0.91 km</desc>
<time>2010-02-27T10:12:52.98</time>
<name>686</name>
</trkpt>
<trkpt lat="48.939208" lon="8.657018">
<ele>306.0</ele>
<speed>4.4</speed>
<course>222.6</course>
<desc>Speed 4.4 km/h Distance 0.91 km</desc>
<time>2010-02-27T10:12:53.98</time>
<name>687</name>
</trkpt>
<trkpt lat="48.939200" lon="8.657007">
<ele>306.0</ele>
<speed>4.6</speed>
<course>232.7</course>
<desc>Speed 4.6 km/h Distance 0.91 km</desc>
<time>2010-02-27T10:12:54.98</time>
<name>688</name>
</trkpt>
<trkpt lat="48.939193" lon="8.656993">
<ele>306.0</ele>
<speed>4.5</speed>
<course>226.4</course>
<desc>Speed 4.5 km/h Distance 0.91 km</desc>
<time>2010-02-27T10:12:55.98</time>
<name>689</name>
</trkpt>
<trkpt lat="48.939185" lon="8.656980">
<ele>305.5</ele>
<speed>4.5</speed>
<course>229.7</course>
<desc>Speed 4.5 km/h Distance 0.92 km</desc>
<time>2010-02-27T10:12:56.98</time>
<name>690</name>
</trkpt>
<trkpt lat="48.939177" lon="8.656965">
<ele>305.5</ele>
<speed>5.1</speed>
<course>226.4</course>
<desc>Speed 5.1 km/h Distance 0.92 km</desc>
<time>2010-02-27T10:12:57.98</time>
<name>691</name>
</trkpt>
<trkpt lat="48.939168" lon="8.656952">
<ele>305.5</ele>
<speed>4.8</speed>
<course>222.6</course>
<desc>Speed 4.8 km/h Distance 0.92 km</desc>
<time>2010-02-27T10:12:58.98</time>
<name>692</name>
</trkpt>
<trkpt lat="48.939160" lon="8.656940">
<ele>306.0</ele>
<speed>4.7</speed>
<course>226.5</course>
<desc>Speed 4.7 km/h Distance 0.92 km</desc>
<time>2010-02-27T10:12:59.98</time>
<name>693</name>
</trkpt>
<trkpt lat="48.939152" lon="8.656927">
<ele>306.5</ele>
<speed>4.6</speed>
<course>221.3</course>
<desc>Speed 4.6 km/h Distance 0.92 km</desc>
<time>2010-02-27T10:13:00.98</time>
<name>694</name>
</trkpt>
<trkpt lat="48.939142" lon="8.656913">
<ele>306.5</ele>
<speed>5.0</speed>
<course>222.6</course>
<desc>Speed 5.0 km/h Distance 0.92 km</desc>
<time>2010-02-27T10:13:01.98</time>
<name>695</name>
</trkpt>
<trkpt lat="48.939133" lon="8.656902">
<ele>307.0</ele>
<speed>4.6</speed>
<course>224.5</course>
<desc>Speed 4.6 km/h Distance 0.92 km</desc>
<time>2010-02-27T10:13:02.98</time>
<name>696</name>
</trkpt>
<trkpt lat="48.939123" lon="8.656887">
<ele>307.0</ele>
<speed>4.9</speed>
<course>217.5</course>
<desc>Speed 4.9 km/h Distance 0.92 km</desc>
<time>2010-02-27T10:13:03.98</time>
<name>697</name>
</trkpt>
<trkpt lat="48.939113" lon="8.656875">
<ele>307.0</ele>
<speed>5.0</speed>
<course>224.6</course>
<desc>Speed 5.0 km/h Distance 0.93 km</desc>
<time>2010-02-27T10:13:04.98</time>
<name>698</name>
</trkpt>
<trkpt lat="48.939103" lon="8.656860">
<ele>307.0</ele>
<speed>5.1</speed>
<course>217.3</course>
<desc>Speed 5.1 km/h Distance 0.93 km</desc>
<time>2010-02-27T10:13:05.98</time>
<name>699</name>
</trkpt>
<trkpt lat="48.939093" lon="8.656848">
<ele>307.0</ele>
<speed>4.9</speed>
<course>221.2</course>
<desc>Speed 4.9 km/h Distance 0.93 km</desc>
<time>2010-02-27T10:13:06.98</time>
<name>700</name>
</trkpt>
<trkpt lat="48.939083" lon="8.656835">
<ele>307.0</ele>
<speed>4.9</speed>
<course>229.7</course>
<desc>Speed 4.9 km/h Distance 0.93 km</desc>
<time>2010-02-27T10:13:07.98</time>
<name>701</name>
</trkpt>
<trkpt lat="48.939075" lon="8.656820">
<ele>307.0</ele>
<speed>5.1</speed>
<course>224.5</course>
<desc>Speed 5.1 km/h Distance 0.93 km</desc>
<time>2010-02-27T10:13:08.98</time>
<name>702</name>
</trkpt>
<trkpt lat="48.939065" lon="8.656805">
<ele>307.0</ele>
<speed>5.2</speed>
<course>221.3</course>
<desc>Speed 5.2 km/h Distance 0.93 km</desc>
<time>2010-02-27T10:13:09.98</time>
<name>703</name>
</trkpt>
<trkpt lat="48.939055" lon="8.656792">
<ele>307.0</ele>
<speed>5.2</speed>
<course>224.6</course>
<desc>Speed 5.2 km/h Distance 0.94 km</desc>
<time>2010-02-27T10:13:10.98</time>
<name>704</name>
</trkpt>
<trkpt lat="48.939045" lon="8.656777">
<ele>307.0</ele>
<speed>5.3</speed>
<course>224.5</course>
<desc>Speed 5.3 km/h Distance 0.94 km</desc>
<time>2010-02-27T10:13:11.98</time>
<name>705</name>
</trkpt>
<trkpt lat="48.939035" lon="8.656762">
<ele>307.0</ele>
<speed>5.3</speed>
<course>224.6</course>
<desc>Speed 5.3 km/h Distance 0.94 km</desc>
<time>2010-02-27T10:13:12.98</time>
<name>706</name>
</trkpt>
<trkpt lat="48.939025" lon="8.656747">
<ele>307.0</ele>
<speed>5.2</speed>
<course>229.8</course>
<desc>Speed 5.2 km/h Distance 0.94 km</desc>
<time>2010-02-27T10:13:13.98</time>
<name>707</name>
</trkpt>
<trkpt lat="48.939017" lon="8.656732">
<ele>307.5</ele>
<speed>5.1</speed>
<course>229.8</course>
<desc>Speed 5.1 km/h Distance 0.94 km</desc>
<time>2010-02-27T10:13:14.98</time>
<name>708</name>
</trkpt>
<trkpt lat="48.939008" lon="8.656717">
<ele>307.5</ele>
<speed>5.2</speed>
<course>229.8</course>
<desc>Speed 5.2 km/h Distance 0.94 km</desc>
<time>2010-02-27T10:13:15.98</time>
<name>709</name>
</trkpt>
<trkpt lat="48.939000" lon="8.656702">
<ele>307.5</ele>
<speed>5.2</speed>
<course>232.7</course>
<desc>Speed 5.2 km/h Distance 0.94 km</desc>
<time>2010-02-27T10:13:16.98</time>
<name>710</name>
</trkpt>
<trkpt lat="48.938992" lon="8.656685">
<ele>307.5</ele>
<speed>5.2</speed>
<course>229.8</course>
<desc>Speed 5.2 km/h Distance 0.95 km</desc>
<time>2010-02-27T10:13:17.98</time>
<name>711</name>
</trkpt>
<trkpt lat="48.938983" lon="8.656670">
<ele>307.5</ele>
<speed>5.0</speed>
<course>238.7</course>
<desc>Speed 5.0 km/h Distance 0.95 km</desc>
<time>2010-02-27T10:13:18.98</time>
<name>712</name>
</trkpt>
<trkpt lat="48.938977" lon="8.656653">
<ele>307.5</ele>
<speed>5.0</speed>
<course>235.9</course>
<desc>Speed 5.0 km/h Distance 0.95 km</desc>
<time>2010-02-27T10:13:19.98</time>
<name>713</name>
</trkpt>
<trkpt lat="48.938970" lon="8.656638">
<ele>307.5</ele>
<speed>4.9</speed>
<course>241.0</course>
<desc>Speed 4.9 km/h Distance 0.95 km</desc>
<time>2010-02-27T10:13:20.98</time>
<name>714</name>
</trkpt>
<trkpt lat="48.938963" lon="8.656620">
<ele>308.0</ele>
<speed>5.1</speed>
<course>228.9</course>
<desc>Speed 5.1 km/h Distance 0.95 km</desc>
<time>2010-02-27T10:13:21.98</time>
<name>715</name>
</trkpt>
<trkpt lat="48.938957" lon="8.656608">
<ele>308.0</ele>
<speed>4.5</speed>
<course>226.4</course>
<desc>Speed 4.5 km/h Distance 0.95 km</desc>
<time>2010-02-27T10:13:22.98</time>
<name>716</name>
</trkpt>
<trkpt lat="48.938948" lon="8.656595">
<ele>308.0</ele>
<speed>4.8</speed>
<course>226.6</course>
<desc>Speed 4.8 km/h Distance 0.95 km</desc>
<time>2010-02-27T10:13:23.98</time>
<name>717</name>
</trkpt>
<trkpt lat="48.938940" lon="8.656582">
<ele>308.5</ele>
<speed>4.7</speed>
<course>226.5</course>
<desc>Speed 4.7 km/h Distance 0.96 km</desc>
<time>2010-02-27T10:13:24.98</time>
<name>718</name>
</trkpt>
<trkpt lat="48.938932" lon="8.656568">
<ele>308.0</ele>
<speed>4.8</speed>
<course>229.8</course>
<desc>Speed 4.8 km/h Distance 0.96 km</desc>
<time>2010-02-27T10:13:25.98</time>
<name>719</name>
</trkpt>
<trkpt lat="48.938923" lon="8.656553">
<ele>308.5</ele>
<speed>4.6</speed>
<course>243.1</course>
<desc>Speed 4.6 km/h Distance 0.96 km</desc>
<time>2010-02-27T10:13:26.98</time>
<name>720</name>
</trkpt>
<trkpt lat="48.938918" lon="8.656538">
<ele>308.5</ele>
<speed>4.7</speed>
<course>229.1</course>
<desc>Speed 4.7 km/h Distance 0.96 km</desc>
<time>2010-02-27T10:13:27.98</time>
<name>721</name>
</trkpt>
<trkpt lat="48.938912" lon="8.656527">
<ele>309.0</ele>
<speed>4.2</speed>
<course>232.7</course>
<desc>Speed 4.2 km/h Distance 0.96 km</desc>
<time>2010-02-27T10:13:28.98</time>
<name>722</name>
</trkpt>
<trkpt lat="48.938905" lon="8.656513">
<ele>309.5</ele>
<speed>4.4</speed>
<course>232.7</course>
<desc>Speed 4.4 km/h Distance 0.96 km</desc>
<time>2010-02-27T10:13:29.98</time>
<name>723</name>
</trkpt>
<trkpt lat="48.938898" lon="8.656500">
<ele>310.0</ele>
<speed>4.0</speed>
<course>229.1</course>
<desc>Speed 4.0 km/h Distance 0.96 km</desc>
<time>2010-02-27T10:13:30.98</time>
<name>724</name>
</trkpt>
<trkpt lat="48.938892" lon="8.656488">
<ele>310.0</ele>
<speed>4.0</speed>
<course>245.5</course>
<desc>Speed 4.0 km/h Distance 0.96 km</desc>
<time>2010-02-27T10:13:31.98</time>
<name>725</name>
</trkpt>
<trkpt lat="48.938887" lon="8.656472">
<ele>310.0</ele>
<speed>4.6</speed>
<course>247.5</course>
<desc>Speed 4.6 km/h Distance 0.97 km</desc>
<time>2010-02-27T10:13:32.98</time>
<name>726</name>
</trkpt>
<trkpt lat="48.938882" lon="8.656453">
<ele>310.0</ele>
<speed>4.8</speed>
<course>245.4</course>
<desc>Speed 4.8 km/h Distance 0.97 km</desc>
<time>2010-02-27T10:13:33.98</time>
<name>727</name>
</trkpt>
<trkpt lat="48.938877" lon="8.656437">
<ele>310.0</ele>
<speed>4.6</speed>
<course>245.5</course>
<desc>Speed 4.6 km/h Distance 0.97 km</desc>
<time>2010-02-27T10:13:34.98</time>
<name>728</name>
</trkpt>
<trkpt lat="48.938872" lon="8.656420">
<ele>311.0</ele>
<speed>4.8</speed>
<course>232.8</course>
<desc>Speed 4.8 km/h Distance 0.97 km</desc>
<time>2010-02-27T10:13:35.98</time>
<name>729</name>
</trkpt>
<trkpt lat="48.938865" lon="8.656407">
<ele>311.0</ele>
<speed>4.2</speed>
<course>228.9</course>
<desc>Speed 4.2 km/h Distance 0.97 km</desc>
<time>2010-02-27T10:13:36.98</time>
<name>730</name>
</trkpt>
<trkpt lat="48.938858" lon="8.656395">
<ele>311.5</ele>
<speed>4.0</speed>
<course>235.9</course>
<desc>Speed 4.0 km/h Distance 0.97 km</desc>
<time>2010-02-27T10:13:37.98</time>
<name>731</name>
</trkpt>
<trkpt lat="48.938852" lon="8.656380">
<ele>311.5</ele>
<speed>4.4</speed>
<course>236.0</course>
<desc>Speed 4.4 km/h Distance 0.97 km</desc>
<time>2010-02-27T10:13:38.98</time>
<name>732</name>
</trkpt>
<trkpt lat="48.938845" lon="8.656365">
<ele>312.0</ele>
<speed>4.6</speed>
<course>218.1</course>
<desc>Speed 4.6 km/h Distance 0.97 km</desc>
<time>2010-02-27T10:13:39.98</time>
<name>733</name>
</trkpt>
<trkpt lat="48.938837" lon="8.656355">
<ele>312.5</ele>
<speed>3.9</speed>
<course>224.5</course>
<desc>Speed 3.9 km/h Distance 0.98 km</desc>
<time>2010-02-27T10:13:40.98</time>
<name>734</name>
</trkpt>
<trkpt lat="48.938830" lon="8.656345">
<ele>313.0</ele>
<speed>3.9</speed>
<course>219.4</course>
<desc>Speed 3.9 km/h Distance 0.98 km</desc>
<time>2010-02-27T10:13:41.98</time>
<name>735</name>
</trkpt>
<trkpt lat="48.938823" lon="8.656337">
<ele>313.5</ele>
<speed>3.3</speed>
<course>222.6</course>
<desc>Speed 3.3 km/h Distance 0.98 km</desc>
<time>2010-02-27T10:13:42.98</time>
<name>736</name>
</trkpt>
<trkpt lat="48.938815" lon="8.656325">
<ele>314.0</ele>
<speed>4.6</speed>
<course>224.8</course>
<desc>Speed 4.6 km/h Distance 0.98 km</desc>
<time>2010-02-27T10:13:43.98</time>
<name>737</name>
</trkpt>
<trkpt lat="48.938808" lon="8.656315">
<ele>314.0</ele>
<speed>3.9</speed>
<course>229.9</course>
<desc>Speed 3.9 km/h Distance 0.98 km</desc>
<time>2010-02-27T10:13:44.98</time>
<name>738</name>
</trkpt>
<trkpt lat="48.938800" lon="8.656300">
<ele>314.5</ele>
<speed>4.4</speed>
<course>236.1</course>
<desc>Speed 4.4 km/h Distance 0.98 km</desc>
<time>2010-02-27T10:13:45.98</time>
<name>739</name>
</trkpt>
<trkpt lat="48.938793" lon="8.656285">
<ele>314.5</ele>
<speed>4.4</speed>
<course>232.7</course>
<desc>Speed 4.4 km/h Distance 0.98 km</desc>
<time>2010-02-27T10:13:46.98</time>
<name>740</name>
</trkpt>
<trkpt lat="48.938787" lon="8.656272">
<ele>315.0</ele>
<speed>4.0</speed>
<course>232.7</course>
<desc>Speed 4.0 km/h Distance 0.98 km</desc>
<time>2010-02-27T10:13:47.98</time>
<name>741</name>
</trkpt>
<trkpt lat="48.938780" lon="8.656258">
<ele>315.0</ele>
<speed>3.5</speed>
<course>235.9</course>
<desc>Speed 3.5 km/h Distance 0.99 km</desc>
<time>2010-02-27T10:13:48.98</time>
<name>742</name>
</trkpt>
<trkpt lat="48.938773" lon="8.656243">
<ele>315.5</ele>
<speed>4.4</speed>
<course>228.9</course>
<desc>Speed 4.4 km/h Distance 0.99 km</desc>
<time>2010-02-27T10:13:49.98</time>
<name>743</name>
</trkpt>
<trkpt lat="48.938767" lon="8.656232">
<ele>315.5</ele>
<speed>3.2</speed>
<course>240.3</course>
<desc>Speed 3.2 km/h Distance 0.99 km</desc>
<time>2010-02-27T10:13:50.98</time>
<name>744</name>
</trkpt>
<trkpt lat="48.938762" lon="8.656218">
<ele>315.0</ele>
<speed>3.3</speed>
<course>224.5</course>
<desc>Speed 3.3 km/h Distance 0.99 km</desc>
<time>2010-02-27T10:13:51.98</time>
<name>745</name>
</trkpt>
<trkpt lat="48.938755" lon="8.656208">
<ele>316.0</ele>
<speed>3.3</speed>
<course>224.5</course>
<desc>Speed 3.3 km/h Distance 0.99 km</desc>
<time>2010-02-27T10:13:52.98</time>
<name>746</name>
</trkpt>
<trkpt lat="48.938748" lon="8.656198">
<ele>316.5</ele>
<speed>4.2</speed>
<course>232.7</course>
<desc>Speed 4.2 km/h Distance 0.99 km</desc>
<time>2010-02-27T10:13:53.98</time>
<name>747</name>
</trkpt>
<trkpt lat="48.938742" lon="8.656185">
<ele>316.0</ele>
<speed>3.7</speed>
<course>243.0</course>
<desc>Speed 3.7 km/h Distance 0.99 km</desc>
<time>2010-02-27T10:13:54.98</time>
<name>748</name>
</trkpt>
<trkpt lat="48.938738" lon="8.656175">
<ele>316.5</ele>
<speed>3.1</speed>
<course>232.7</course>
<desc>Speed 3.1 km/h Distance 0.99 km</desc>
<time>2010-02-27T10:13:55.98</time>
<name>749</name>
</trkpt>
<trkpt lat="48.938732" lon="8.656162">
<ele>316.0</ele>
<speed>4.0</speed>
<course>228.7</course>
<desc>Speed 4.0 km/h Distance 0.99 km</desc>
<time>2010-02-27T10:13:56.98</time>
<name>750</name>
</trkpt>
<trkpt lat="48.938725" lon="8.656150">
<ele>316.0</ele>
<speed>4.0</speed>
<course>224.7</course>
<desc>Speed 4.0 km/h Distance 1.00 km</desc>
<time>2010-02-27T10:13:57.98</time>
<name>751</name>
</trkpt>
<trkpt lat="48.938715" lon="8.656135">
<ele>316.5</ele>
<speed>3.5</speed>
<course>229.1</course>
<desc>Speed 3.5 km/h Distance 1.00 km</desc>
<time>2010-02-27T10:13:58.98</time>
<name>752</name>
</trkpt>
<trkpt lat="48.938708" lon="8.656123">
<ele>317.0</ele>
<speed>3.6</speed>
<course>222.6</course>
<desc>Speed 3.6 km/h Distance 1.00 km</desc>
<time>2010-02-27T10:13:59.98</time>
<name>753</name>
</trkpt>
<trkpt lat="48.938700" lon="8.656112">
<ele>317.0</ele>
<speed>3.7</speed>
<course>218.6</course>
<desc>Speed 3.7 km/h Distance 1.00 km</desc>
<time>2010-02-27T10:14:00.98</time>
<name>754</name>
</trkpt>
<trkpt lat="48.938692" lon="8.656102">
<ele>317.5</ele>
<speed>4.1</speed>
<course>226.6</course>
<desc>Speed 4.1 km/h Distance 1.00 km</desc>
<time>2010-02-27T10:14:01.98</time>
<name>755</name>
</trkpt>
<trkpt lat="48.938683" lon="8.656088">
<ele>317.5</ele>
<speed>4.2</speed>
<course>238.7</course>
<desc>Speed 4.2 km/h Distance 1.00 km</desc>
<time>2010-02-27T10:14:02.98</time>
<name>756</name>
</trkpt>
<trkpt lat="48.938677" lon="8.656072">
<ele>317.5</ele>
<speed>4.6</speed>
<course>236.7</course>
<desc>Speed 4.6 km/h Distance 1.00 km</desc>
<time>2010-02-27T10:14:03.98</time>
<name>757</name>
</trkpt>
<trkpt lat="48.938672" lon="8.656060">
<ele>317.5</ele>
<speed>3.7</speed>
<course>232.8</course>
<desc>Speed 3.7 km/h Distance 1.00 km</desc>
<time>2010-02-27T10:14:04.98</time>
<name>758</name>
</trkpt>
<trkpt lat="48.938665" lon="8.656047">
<ele>317.5</ele>
<speed>4.2</speed>
<course>241.0</course>
<desc>Speed 4.2 km/h Distance 1.01 km</desc>
<time>2010-02-27T10:14:05.98</time>
<name>759</name>
</trkpt>
<trkpt lat="48.938658" lon="8.656028">
<ele>317.5</ele>
<speed>4.8</speed>
<course>236.0</course>
<desc>Speed 4.8 km/h Distance 1.01 km</desc>
<time>2010-02-27T10:14:06.98</time>
<name>760</name>
</trkpt>
<trkpt lat="48.938652" lon="8.656013">
<ele>317.5</ele>
<speed>4.4</speed>
<course>232.7</course>
<desc>Speed 4.4 km/h Distance 1.01 km</desc>
<time>2010-02-27T10:14:07.98</time>
<name>761</name>
</trkpt>
<trkpt lat="48.938645" lon="8.656000">
<ele>318.0</ele>
<speed>4.3</speed>
<course>222.6</course>
<desc>Speed 4.3 km/h Distance 1.01 km</desc>
<time>2010-02-27T10:14:08.98</time>
<name>762</name>
</trkpt>
<trkpt lat="48.938637" lon="8.655988">
<ele>318.5</ele>
<speed>4.1</speed>
<course>223.2</course>
<desc>Speed 4.1 km/h Distance 1.01 km</desc>
<time>2010-02-27T10:14:09.98</time>
<name>763</name>
</trkpt>
<trkpt lat="48.938625" lon="8.655972">
<ele>318.5</ele>
<speed>4.5</speed>
<course>218.1</course>
<desc>Speed 4.5 km/h Distance 1.01 km</desc>
<time>2010-02-27T10:14:10.98</time>
<name>764</name>
</trkpt>
<trkpt lat="48.938617" lon="8.655962">
<ele>318.5</ele>
<speed>4.1</speed>
<course>221.4</course>
<desc>Speed 4.1 km/h Distance 1.01 km</desc>
<time>2010-02-27T10:14:11.98</time>
<name>765</name>
</trkpt>
<trkpt lat="48.938607" lon="8.655948">
<ele>319.5</ele>
<speed>4.0</speed>
<course>221.2</course>
<desc>Speed 4.0 km/h Distance 1.02 km</desc>
<time>2010-02-27T10:14:12.98</time>
<name>766</name>
</trkpt>
<trkpt lat="48.938597" lon="8.655935">
<ele>320.0</ele>
<speed>4.6</speed>
<course>220.2</course>
<desc>Speed 4.6 km/h Distance 1.02 km</desc>
<time>2010-02-27T10:14:13.98</time>
<name>767</name>
</trkpt>
<trkpt lat="48.938585" lon="8.655920">
<ele>320.5</ele>
<speed>4.5</speed>
<course>221.2</course>
<desc>Speed 4.5 km/h Distance 1.02 km</desc>
<time>2010-02-27T10:14:14.98</time>
<name>768</name>
</trkpt>
<trkpt lat="48.938575" lon="8.655907">
<ele>320.5</ele>
<speed>4.5</speed>
<course>226.5</course>
<desc>Speed 4.5 km/h Distance 1.02 km</desc>
<time>2010-02-27T10:14:15.98</time>
<name>769</name>
</trkpt>
<trkpt lat="48.938567" lon="8.655893">
<ele>320.5</ele>
<speed>4.1</speed>
<course>232.7</course>
<desc>Speed 4.1 km/h Distance 1.02 km</desc>
<time>2010-02-27T10:14:16.98</time>
<name>770</name>
</trkpt>
<trkpt lat="48.938560" lon="8.655880">
<ele>321.0</ele>
<speed>4.2</speed>
<course>232.8</course>
<desc>Speed 4.2 km/h Distance 1.02 km</desc>
<time>2010-02-27T10:14:17.98</time>
<name>771</name>
</trkpt>
<trkpt lat="48.938553" lon="8.655867">
<ele>320.5</ele>
<speed>4.1</speed>
<course>243.1</course>
<desc>Speed 4.1 km/h Distance 1.02 km</desc>
<time>2010-02-27T10:14:18.98</time>
<name>772</name>
</trkpt>
<trkpt lat="48.938548" lon="8.655852">
<ele>320.5</ele>
<speed>4.4</speed>
<course>236.9</course>
<desc>Speed 4.4 km/h Distance 1.02 km</desc>
<time>2010-02-27T10:14:19.98</time>
<name>773</name>
</trkpt>
<trkpt lat="48.938543" lon="8.655840">
<ele>320.5</ele>
<speed>3.3</speed>
<course>229.8</course>
<desc>Speed 3.3 km/h Distance 1.03 km</desc>
<time>2010-02-27T10:14:20.98</time>
<name>774</name>
</trkpt>
<trkpt lat="48.938535" lon="8.655825">
<ele>320.0</ele>
<speed>3.9</speed>
<course>229.1</course>
<desc>Speed 3.9 km/h Distance 1.03 km</desc>
<time>2010-02-27T10:14:21.98</time>
<name>775</name>
</trkpt>
<trkpt lat="48.938528" lon="8.655813">
<ele>320.0</ele>
<speed>3.5</speed>
<course>222.6</course>
<desc>Speed 3.5 km/h Distance 1.03 km</desc>
<time>2010-02-27T10:14:22.98</time>
<name>776</name>
</trkpt>
<trkpt lat="48.938520" lon="8.655802">
<ele>320.5</ele>
<speed>4.0</speed>
<course>213.4</course>
<desc>Speed 4.0 km/h Distance 1.03 km</desc>
<time>2010-02-27T10:14:23.98</time>
<name>777</name>
</trkpt>
<trkpt lat="48.938510" lon="8.655792">
<ele>320.5</ele>
<speed>4.0</speed>
<course>222.6</course>
<desc>Speed 4.0 km/h Distance 1.03 km</desc>
<time>2010-02-27T10:14:24.98</time>
<name>778</name>
</trkpt>
<trkpt lat="48.938502" lon="8.655780">
<ele>320.5</ele>
<speed>4.6</speed>
<course>217.5</course>
<desc>Speed 4.6 km/h Distance 1.03 km</desc>
<time>2010-02-27T10:14:25.98</time>
<name>779</name>
</trkpt>
<trkpt lat="48.938492" lon="8.655768">
<ele>320.5</ele>
<speed>4.4</speed>
<course>213.2</course>
<desc>Speed 4.4 km/h Distance 1.03 km</desc>
<time>2010-02-27T10:14:26.98</time>
<name>780</name>
</trkpt>
<trkpt lat="48.938482" lon="8.655758">
<ele>321.0</ele>
<speed>4.2</speed>
<course>222.6</course>
<desc>Speed 4.2 km/h Distance 1.03 km</desc>
<time>2010-02-27T10:14:27.98</time>
<name>781</name>
</trkpt>
<trkpt lat="48.938473" lon="8.655747">
<ele>322.0</ele>
<speed>3.9</speed>
<course>230.3</course>
<desc>Speed 3.9 km/h Distance 1.04 km</desc>
<time>2010-02-27T10:14:28.98</time>
<name>782</name>
</trkpt>
<trkpt lat="48.938463" lon="8.655728">
<ele>321.5</ele>
<speed>4.4</speed>
<course>221.2</course>
<desc>Speed 4.4 km/h Distance 1.04 km</desc>
<time>2010-02-27T10:14:29.98</time>
<name>783</name>
</trkpt>
<trkpt lat="48.938453" lon="8.655715">
<ele>321.0</ele>
<speed>4.7</speed>
<course>232.8</course>
<desc>Speed 4.7 km/h Distance 1.04 km</desc>
<time>2010-02-27T10:14:30.98</time>
<name>784</name>
</trkpt>
<trkpt lat="48.938447" lon="8.655702">
<ele>321.0</ele>
<speed>4.3</speed>
<course>224.5</course>
<desc>Speed 4.3 km/h Distance 1.04 km</desc>
<time>2010-02-27T10:14:31.98</time>
<name>785</name>
</trkpt>
<trkpt lat="48.938440" lon="8.655692">
<ele>321.5</ele>
<speed>3.9</speed>
<course>220.2</course>
<desc>Speed 3.9 km/h Distance 1.04 km</desc>
<time>2010-02-27T10:14:32.98</time>
<name>786</name>
</trkpt>
<trkpt lat="48.938428" lon="8.655677">
<ele>322.0</ele>
<speed>4.3</speed>
<course>226.5</course>
<desc>Speed 4.3 km/h Distance 1.04 km</desc>
<time>2010-02-27T10:14:33.98</time>
<name>787</name>
</trkpt>
<trkpt lat="48.938420" lon="8.655663">
<ele>322.5</ele>
<speed>4.5</speed>
<course>226.6</course>
<desc>Speed 4.5 km/h Distance 1.04 km</desc>
<time>2010-02-27T10:14:34.98</time>
<name>788</name>
</trkpt>
<trkpt lat="48.938412" lon="8.655650">
<ele>323.0</ele>
<speed>4.4</speed>
<course>226.6</course>
<desc>Speed 4.4 km/h Distance 1.05 km</desc>
<time>2010-02-27T10:14:35.98</time>
<name>789</name>
</trkpt>
<trkpt lat="48.938403" lon="8.655637">
<ele>323.0</ele>
<speed>4.2</speed>
<course>226.4</course>
<desc>Speed 4.2 km/h Distance 1.05 km</desc>
<time>2010-02-27T10:14:36.98</time>
<name>790</name>
</trkpt>
<trkpt lat="48.938395" lon="8.655623">
<ele>323.0</ele>
<speed>4.5</speed>
<course>224.5</course>
<desc>Speed 4.5 km/h Distance 1.05 km</desc>
<time>2010-02-27T10:14:37.98</time>
<name>791</name>
</trkpt>
<trkpt lat="48.938385" lon="8.655608">
<ele>323.5</ele>
<speed>4.7</speed>
<course>218.1</course>
<desc>Speed 4.7 km/h Distance 1.05 km</desc>
<time>2010-02-27T10:14:38.98</time>
<name>792</name>
</trkpt>
<trkpt lat="48.938377" lon="8.655598">
<ele>323.5</ele>
<speed>4.6</speed>
<course>227.6</course>
<desc>Speed 4.6 km/h Distance 1.05 km</desc>
<time>2010-02-27T10:14:39.98</time>
<name>793</name>
</trkpt>
<trkpt lat="48.938367" lon="8.655582">
<ele>323.5</ele>
<speed>4.4</speed>
<course>226.5</course>
<desc>Speed 4.4 km/h Distance 1.05 km</desc>
<time>2010-02-27T10:14:40.98</time>
<name>794</name>
</trkpt>
<trkpt lat="48.938358" lon="8.655568">
<ele>323.5</ele>
<speed>4.3</speed>
<course>236.0</course>
<desc>Speed 4.3 km/h Distance 1.05 km</desc>
<time>2010-02-27T10:14:41.98</time>
<name>795</name>
</trkpt>
<trkpt lat="48.938352" lon="8.655553">
<ele>323.5</ele>
<speed>4.4</speed>
<course>229.9</course>
<desc>Speed 4.4 km/h Distance 1.06 km</desc>
<time>2010-02-27T10:14:42.98</time>
<name>796</name>
</trkpt>
<trkpt lat="48.938343" lon="8.655538">
<ele>323.0</ele>
<speed>4.5</speed>
<course>232.7</course>
<desc>Speed 4.5 km/h Distance 1.06 km</desc>
<time>2010-02-27T10:14:43.98</time>
<name>797</name>
</trkpt>
<trkpt lat="48.938335" lon="8.655522">
<ele>323.0</ele>
<speed>4.6</speed>
<course>235.3</course>
<desc>Speed 4.6 km/h Distance 1.06 km</desc>
<time>2010-02-27T10:14:44.98</time>
<name>798</name>
</trkpt>
<trkpt lat="48.938327" lon="8.655503">
<ele>323.0</ele>
<speed>4.9</speed>
<course>238.7</course>
<desc>Speed 4.9 km/h Distance 1.06 km</desc>
<time>2010-02-27T10:14:45.98</time>
<name>799</name>
</trkpt>
<trkpt lat="48.938320" lon="8.655487">
<ele>323.0</ele>
<speed>4.6</speed>
<course>247.4</course>
<desc>Speed 4.6 km/h Distance 1.06 km</desc>
<time>2010-02-27T10:14:46.98</time>
<name>800</name>
</trkpt>
<trkpt lat="48.938315" lon="8.655468">
<ele>323.0</ele>
<speed>4.5</speed>
<course>236.9</course>
<desc>Speed 4.5 km/h Distance 1.06 km</desc>
<time>2010-02-27T10:14:47.98</time>
<name>801</name>
</trkpt>
<trkpt lat="48.938305" lon="8.655445">
<ele>323.0</ele>
<speed>4.6</speed>
<course>249.2</course>
<desc>Speed 4.6 km/h Distance 1.07 km</desc>
<time>2010-02-27T10:14:48.98</time>
<name>802</name>
</trkpt>
<trkpt lat="48.938300" lon="8.655425">
<ele>323.5</ele>
<speed>4.8</speed>
<course>244.9</course>
<desc>Speed 4.8 km/h Distance 1.07 km</desc>
<time>2010-02-27T10:14:49.98</time>
<name>803</name>
</trkpt>
<trkpt lat="48.938293" lon="8.655403">
<ele>323.5</ele>
<speed>4.7</speed>
<course>237.6</course>
<desc>Speed 4.7 km/h Distance 1.07 km</desc>
<time>2010-02-27T10:14:50.98</time>
<name>804</name>
</trkpt>
<trkpt lat="48.938285" lon="8.655383">
<ele>323.5</ele>
<speed>4.6</speed>
<course>249.2</course>
<desc>Speed 4.6 km/h Distance 1.07 km</desc>
<time>2010-02-27T10:14:51.98</time>
<name>805</name>
</trkpt>
<trkpt lat="48.938280" lon="8.655363">
<ele>324.0</ele>
<speed>4.6</speed>
<course>249.1</course>
<desc>Speed 4.6 km/h Distance 1.07 km</desc>
<time>2010-02-27T10:14:52.98</time>
<name>806</name>
</trkpt>
<trkpt lat="48.938275" lon="8.655343">
<ele>324.0</ele>
<speed>5.0</speed>
<course>241.0</course>
<desc>Speed 5.0 km/h Distance 1.07 km</desc>
<time>2010-02-27T10:14:53.98</time>
<name>807</name>
</trkpt>
<trkpt lat="48.938268" lon="8.655325">
<ele>324.0</ele>
<speed>4.5</speed>
<course>250.6</course>
<desc>Speed 4.5 km/h Distance 1.08 km</desc>
<time>2010-02-27T10:14:54.98</time>
<name>808</name>
</trkpt>
<trkpt lat="48.938263" lon="8.655303">
<ele>323.5</ele>
<speed>4.8</speed>
<course>249.2</course>
<desc>Speed 4.8 km/h Distance 1.08 km</desc>
<time>2010-02-27T10:14:55.98</time>
<name>809</name>
</trkpt>
<trkpt lat="48.938258" lon="8.655283">
<ele>323.5</ele>
<speed>4.6</speed>
<course>255.8</course>
<desc>Speed 4.6 km/h Distance 1.08 km</desc>
<time>2010-02-27T10:14:56.98</time>
<name>810</name>
</trkpt>
<trkpt lat="48.938255" lon="8.655263">
<ele>323.5</ele>
<speed>4.3</speed>
<course>247.5</course>
<desc>Speed 4.3 km/h Distance 1.08 km</desc>
<time>2010-02-27T10:14:57.98</time>
<name>811</name>
</trkpt>
<trkpt lat="48.938250" lon="8.655245">
<ele>323.5</ele>
<speed>4.5</speed>
<course>253.1</course>
<desc>Speed 4.5 km/h Distance 1.08 km</desc>
<time>2010-02-27T10:14:58.98</time>
<name>812</name>
</trkpt>
<trkpt lat="48.938247" lon="8.655228">
<ele>323.5</ele>
<speed>4.2</speed>
<course>253.1</course>
<desc>Speed 4.2 km/h Distance 1.08 km</desc>
<time>2010-02-27T10:14:59.98</time>
<name>813</name>
</trkpt>
<trkpt lat="48.938243" lon="8.655212">
<ele>324.0</ele>
<speed>4.0</speed>
<course>262.1</course>
<desc>Speed 4.0 km/h Distance 1.08 km</desc>
<time>2010-02-27T10:15:00.98</time>
<name>814</name>
</trkpt>
<trkpt lat="48.938242" lon="8.655193">
<ele>323.5</ele>
<speed>4.5</speed>
<course>255.8</course>
<desc>Speed 4.5 km/h Distance 1.09 km</desc>
<time>2010-02-27T10:15:01.98</time>
<name>815</name>
</trkpt>
<trkpt lat="48.938238" lon="8.655173">
<ele>324.0</ele>
<speed>4.1</speed>
<course>259.2</course>
<desc>Speed 4.1 km/h Distance 1.09 km</desc>
<time>2010-02-27T10:15:02.98</time>
<name>816</name>
</trkpt>
<trkpt lat="48.938237" lon="8.655160">
<ele>324.5</ele>
<speed>3.7</speed>
<course>262.1</course>
<desc>Speed 3.7 km/h Distance 1.09 km</desc>
<time>2010-02-27T10:15:03.98</time>
<name>817</name>
</trkpt>
<trkpt lat="48.938235" lon="8.655142">
<ele>324.0</ele>
<speed>4.5</speed>
<course>247.4</course>
<desc>Speed 4.5 km/h Distance 1.09 km</desc>
<time>2010-02-27T10:15:04.98</time>
<name>818</name>
</trkpt>
<trkpt lat="48.938230" lon="8.655123">
<ele>323.5</ele>
<speed>4.4</speed>
<course>261.3</course>
<desc>Speed 4.4 km/h Distance 1.09 km</desc>
<time>2010-02-27T10:15:05.98</time>
<name>819</name>
</trkpt>
<trkpt lat="48.938228" lon="8.655107">
<ele>324.0</ele>
<speed>4.2</speed>
<course>254.5</course>
<desc>Speed 4.2 km/h Distance 1.09 km</desc>
<time>2010-02-27T10:15:06.98</time>
<name>820</name>
</trkpt>
<trkpt lat="48.938225" lon="8.655088">
<ele>324.0</ele>
<speed>4.6</speed>
<course>262.8</course>
<desc>Speed 4.6 km/h Distance 1.09 km</desc>
<time>2010-02-27T10:15:07.98</time>
<name>821</name>
</trkpt>
<trkpt lat="48.938223" lon="8.655068">
<ele>324.0</ele>
<speed>4.9</speed>
<course>263.3</course>
<desc>Speed 4.9 km/h Distance 1.09 km</desc>
<time>2010-02-27T10:15:08.98</time>
<name>822</name>
</trkpt>
<trkpt lat="48.938222" lon="8.655047">
<ele>324.0</ele>
<speed>5.0</speed>
<course>256.8</course>
<desc>Speed 5.0 km/h Distance 1.10 km</desc>
<time>2010-02-27T10:15:09.98</time>
<name>823</name>
</trkpt>
<trkpt lat="48.938218" lon="8.655025">
<ele>324.5</ele>
<speed>5.1</speed>
<course>263.3</course>
<desc>Speed 5.1 km/h Distance 1.10 km</desc>
<time>2010-02-27T10:15:10.98</time>
<name>824</name>
</trkpt>
<trkpt lat="48.938217" lon="8.655003">
<ele>325.0</ele>
<speed>5.1</speed>
<course>270.0</course>
<desc>Speed 5.1 km/h Distance 1.10 km</desc>
<time>2010-02-27T10:15:11.98</time>
<name>825</name>
</trkpt>
<trkpt lat="48.938217" lon="8.654982">
<ele>325.0</ele>
<speed>5.2</speed>
<course>270.0</course>
<desc>Speed 5.2 km/h Distance 1.10 km</desc>
<time>2010-02-27T10:15:12.98</time>
<name>826</name>
</trkpt>
<trkpt lat="48.938217" lon="8.654962">
<ele>325.0</ele>
<speed>5.3</speed>
<course>263.3</course>
<desc>Speed 5.3 km/h Distance 1.10 km</desc>
<time>2010-02-27T10:15:14.01</time>
<name>827</name>
</trkpt>
<trkpt lat="48.938215" lon="8.654940">
<ele>325.0</ele>
<speed>5.1</speed>
<course>270.0</course>
<desc>Speed 5.1 km/h Distance 1.10 km</desc>
<time>2010-02-27T10:15:15.01</time>
<name>828</name>
</trkpt>
<trkpt lat="48.938215" lon="8.654920">
<ele>325.0</ele>
<speed>4.9</speed>
<course>263.8</course>
<desc>Speed 4.9 km/h Distance 1.11 km</desc>
<time>2010-02-27T10:15:16.01</time>
<name>829</name>
</trkpt>
<trkpt lat="48.938213" lon="8.654897">
<ele>325.0</ele>
<speed>5.4</speed>
<course>262.8</course>
<desc>Speed 5.4 km/h Distance 1.11 km</desc>
<time>2010-02-27T10:15:17.01</time>
<name>830</name>
</trkpt>
<trkpt lat="48.938212" lon="8.654877">
<ele>325.0</ele>
<speed>4.5</speed>
<course>262.8</course>
<desc>Speed 4.5 km/h Distance 1.11 km</desc>
<time>2010-02-27T10:15:18.01</time>
<name>831</name>
</trkpt>
<trkpt lat="48.938210" lon="8.654857">
<ele>324.5</ele>
<speed>4.8</speed>
<course>255.8</course>
<desc>Speed 4.8 km/h Distance 1.11 km</desc>
<time>2010-02-27T10:15:19.01</time>
<name>832</name>
</trkpt>
<trkpt lat="48.938207" lon="8.654837">
<ele>324.5</ele>
<speed>5.0</speed>
<course>254.5</course>
<desc>Speed 5.0 km/h Distance 1.11 km</desc>
<time>2010-02-27T10:15:20.01</time>
<name>833</name>
</trkpt>
<trkpt lat="48.938203" lon="8.654818">
<ele>324.5</ele>
<speed>4.7</speed>
<course>261.3</course>
<desc>Speed 4.7 km/h Distance 1.11 km</desc>
<time>2010-02-27T10:15:21.01</time>
<name>834</name>
</trkpt>
<trkpt lat="48.938202" lon="8.654802">
<ele>324.5</ele>
<speed>3.9</speed>
<course>249.2</course>
<desc>Speed 3.9 km/h Distance 1.11 km</desc>
<time>2010-02-27T10:15:22.01</time>
<name>835</name>
</trkpt>
<trkpt lat="48.938197" lon="8.654782">
<ele>324.5</ele>
<speed>4.2</speed>
<course>261.3</course>
<desc>Speed 4.2 km/h Distance 1.12 km</desc>
<time>2010-02-27T10:15:23.01</time>
<name>836</name>
</trkpt>
<trkpt lat="48.938195" lon="8.654765">
<ele>324.5</ele>
<speed>4.6</speed>
<course>270.0</course>
<desc>Speed 4.6 km/h Distance 1.12 km</desc>
<time>2010-02-27T10:15:24.01</time>
<name>837</name>
</trkpt>
<trkpt lat="48.938195" lon="8.654748">
<ele>324.5</ele>
<speed>4.2</speed>
<course>255.8</course>
<desc>Speed 4.2 km/h Distance 1.12 km</desc>
<time>2010-02-27T10:15:25.01</time>
<name>838</name>
</trkpt>
<trkpt lat="48.938192" lon="8.654728">
<ele>325.0</ele>
<speed>4.0</speed>
<course>255.8</course>
<desc>Speed 4.0 km/h Distance 1.12 km</desc>
<time>2010-02-27T10:15:26.01</time>
<name>839</name>
</trkpt>
<trkpt lat="48.938188" lon="8.654708">
<ele>325.0</ele>
<speed>4.5</speed>
<course>261.3</course>
<desc>Speed 4.5 km/h Distance 1.12 km</desc>
<time>2010-02-27T10:15:27.01</time>
<name>840</name>
</trkpt>
<trkpt lat="48.938187" lon="8.654692">
<ele>325.0</ele>
<speed>4.4</speed>
<course>257.7</course>
<desc>Speed 4.4 km/h Distance 1.12 km</desc>
<time>2010-02-27T10:15:28.01</time>
<name>841</name>
</trkpt>
<trkpt lat="48.938183" lon="8.654668">
<ele>325.5</ele>
<speed>4.9</speed>
<course>250.6</course>
<desc>Speed 4.9 km/h Distance 1.12 km</desc>
<time>2010-02-27T10:15:29.01</time>
<name>842</name>
</trkpt>
<trkpt lat="48.938178" lon="8.654647">
<ele>325.5</ele>
<speed>4.6</speed>
<course>262.1</course>
<desc>Speed 4.6 km/h Distance 1.13 km</desc>
<time>2010-02-27T10:15:30.01</time>
<name>843</name>
</trkpt>
<trkpt lat="48.938177" lon="8.654628">
<ele>325.5</ele>
<speed>4.5</speed>
<course>247.5</course>
<desc>Speed 4.5 km/h Distance 1.13 km</desc>
<time>2010-02-27T10:15:31.01</time>
<name>844</name>
</trkpt>
<trkpt lat="48.938172" lon="8.654610">
<ele>325.5</ele>
<speed>4.2</speed>
<course>270.0</course>
<desc>Speed 4.2 km/h Distance 1.13 km</desc>
<time>2010-02-27T10:15:32.01</time>
<name>845</name>
</trkpt>
<trkpt lat="48.938172" lon="8.654592">
<ele>325.5</ele>
<speed>4.2</speed>
<course>262.1</course>
<desc>Speed 4.2 km/h Distance 1.13 km</desc>
<time>2010-02-27T10:15:33.01</time>
<name>846</name>
</trkpt>
<trkpt lat="48.938170" lon="8.654573">
<ele>325.5</ele>
<speed>4.3</speed>
<course>270.0</course>
<desc>Speed 4.3 km/h Distance 1.13 km</desc>
<time>2010-02-27T10:15:34.01</time>
<name>847</name>
</trkpt>
<trkpt lat="48.938170" lon="8.654553">
<ele>325.5</ele>
<speed>4.3</speed>
<course>270.0</course>
<desc>Speed 4.3 km/h Distance 1.13 km</desc>
<time>2010-02-27T10:15:35.01</time>
<name>848</name>
</trkpt>
<trkpt lat="48.938170" lon="8.654537">
<ele>326.0</ele>
<speed>4.1</speed>
<course>270.0</course>
<desc>Speed 4.1 km/h Distance 1.13 km</desc>
<time>2010-02-27T10:15:36.01</time>
<name>849</name>
</trkpt>
<trkpt lat="48.938170" lon="8.654520">
<ele>326.0</ele>
<speed>3.7</speed>
<course>270.0</course>
<desc>Speed 3.7 km/h Distance 1.14 km</desc>
<time>2010-02-27T10:15:37.01</time>
<name>850</name>
</trkpt>
<trkpt lat="48.938170" lon="8.654503">
<ele>326.0</ele>
<speed>4.2</speed>
<course>278.7</course>
<desc>Speed 4.2 km/h Distance 1.14 km</desc>
<time>2010-02-27T10:15:38.01</time>
<name>851</name>
</trkpt>
<trkpt lat="48.938172" lon="8.654487">
<ele>326.0</ele>
<speed>4.2</speed>
<course>270.0</course>
<desc>Speed 4.2 km/h Distance 1.14 km</desc>
<time>2010-02-27T10:15:39.01</time>
<name>852</name>
</trkpt>
<trkpt lat="48.938172" lon="8.654472">
<ele>326.0</ele>
<speed>3.8</speed>
<course>277.9</course>
<desc>Speed 3.8 km/h Distance 1.14 km</desc>
<time>2010-02-27T10:15:40.01</time>
<name>853</name>
</trkpt>
<trkpt lat="48.938173" lon="8.654453">
<ele>326.5</ele>
<speed>4.3</speed>
<course>254.5</course>
<desc>Speed 4.3 km/h Distance 1.14 km</desc>
<time>2010-02-27T10:15:41.01</time>
<name>854</name>
</trkpt>
<trkpt lat="48.938170" lon="8.654435">
<ele>326.5</ele>
<speed>4.2</speed>
<course>270.0</course>
<desc>Speed 4.2 km/h Distance 1.14 km</desc>
<time>2010-02-27T10:15:42.01</time>
<name>855</name>
</trkpt>
<trkpt lat="48.938170" lon="8.654418">
<ele>326.5</ele>
<speed>3.7</speed>
<course>253.1</course>
<desc>Speed 3.7 km/h Distance 1.14 km</desc>
<time>2010-02-27T10:15:43.01</time>
<name>856</name>
</trkpt>
<trkpt lat="48.938167" lon="8.654402">
<ele>326.5</ele>
<speed>4.2</speed>
<course>256.8</course>
<desc>Speed 4.2 km/h Distance 1.14 km</desc>
<time>2010-02-27T10:15:44.01</time>
<name>857</name>
</trkpt>
<trkpt lat="48.938163" lon="8.654380">
<ele>327.0</ele>
<speed>4.6</speed>
<course>262.1</course>
<desc>Speed 4.6 km/h Distance 1.15 km</desc>
<time>2010-02-27T10:15:45.01</time>
<name>858</name>
</trkpt>
<trkpt lat="48.938162" lon="8.654362">
<ele>327.5</ele>
<speed>4.5</speed>
<course>262.1</course>
<desc>Speed 4.5 km/h Distance 1.15 km</desc>
<time>2010-02-27T10:15:46.01</time>
<name>859</name>
</trkpt>
<trkpt lat="48.938160" lon="8.654343">
<ele>328.0</ele>
<speed>4.5</speed>
<course>262.8</course>
<desc>Speed 4.5 km/h Distance 1.15 km</desc>
<time>2010-02-27T10:15:47.01</time>
<name>860</name>
</trkpt>
<trkpt lat="48.938158" lon="8.654323">
<ele>328.0</ele>
<speed>4.5</speed>
<course>261.3</course>
<desc>Speed 4.5 km/h Distance 1.15 km</desc>
<time>2010-02-27T10:15:48.01</time>
<name>861</name>
</trkpt>
<trkpt lat="48.938157" lon="8.654307">
<ele>328.5</ele>
<speed>4.6</speed>
<course>262.1</course>
<desc>Speed 4.6 km/h Distance 1.15 km</desc>
<time>2010-02-27T10:15:49.01</time>
<name>862</name>
</trkpt>
<trkpt lat="48.938155" lon="8.654288">
<ele>328.5</ele>
<speed>4.8</speed>
<course>254.5</course>
<desc>Speed 4.8 km/h Distance 1.15 km</desc>
<time>2010-02-27T10:15:50.01</time>
<name>863</name>
</trkpt>
<trkpt lat="48.938152" lon="8.654270">
<ele>328.5</ele>
<speed>4.1</speed>
<course>253.0</course>
<desc>Speed 4.1 km/h Distance 1.15 km</desc>
<time>2010-02-27T10:15:51.01</time>
<name>864</name>
</trkpt>
<trkpt lat="48.938148" lon="8.654253">
<ele>328.5</ele>
<speed>4.2</speed>
<course>254.5</course>
<desc>Speed 4.2 km/h Distance 1.16 km</desc>
<time>2010-02-27T10:15:52.01</time>
<name>865</name>
</trkpt>
<trkpt lat="48.938145" lon="8.654235">
<ele>329.0</ele>
<speed>4.5</speed>
<course>262.8</course>
<desc>Speed 4.5 km/h Distance 1.16 km</desc>
<time>2010-02-27T10:15:53.01</time>
<name>866</name>
</trkpt>
<trkpt lat="48.938143" lon="8.654215">
<ele>328.5</ele>
<speed>4.1</speed>
<course>247.4</course>
<desc>Speed 4.1 km/h Distance 1.16 km</desc>
<time>2010-02-27T10:15:54.01</time>
<name>867</name>
</trkpt>
<trkpt lat="48.938138" lon="8.654197">
<ele>328.5</ele>
<speed>4.1</speed>
<course>261.3</course>
<desc>Speed 4.1 km/h Distance 1.16 km</desc>
<time>2010-02-27T10:15:55.01</time>
<name>868</name>
</trkpt>
<trkpt lat="48.938137" lon="8.654180">
<ele>328.5</ele>
<speed>4.0</speed>
<course>262.8</course>
<desc>Speed 4.0 km/h Distance 1.16 km</desc>
<time>2010-02-27T10:15:56.01</time>
<name>869</name>
</trkpt>
<trkpt lat="48.938135" lon="8.654160">
<ele>328.5</ele>
<speed>4.3</speed>
<course>270.0</course>
<desc>Speed 4.3 km/h Distance 1.16 km</desc>
<time>2010-02-27T10:15:57.01</time>
<name>870</name>
</trkpt>
<trkpt lat="48.938135" lon="8.654140">
<ele>328.5</ele>
<speed>4.2</speed>
<course>253.1</course>
<desc>Speed 4.2 km/h Distance 1.16 km</desc>
<time>2010-02-27T10:15:58.01</time>
<name>871</name>
</trkpt>
<trkpt lat="48.938132" lon="8.654123">
<ele>329.0</ele>
<speed>3.9</speed>
<course>262.1</course>
<desc>Speed 3.9 km/h Distance 1.16 km</desc>
<time>2010-02-27T10:15:59.01</time>
<name>872</name>
</trkpt>
<trkpt lat="48.938130" lon="8.654105">
<ele>329.5</ele>
<speed>4.2</speed>
<course>270.0</course>
<desc>Speed 4.2 km/h Distance 1.17 km</desc>
<time>2010-02-27T10:16:00.01</time>
<name>873</name>
</trkpt>
<trkpt lat="48.938130" lon="8.654087">
<ele>329.5</ele>
<speed>4.3</speed>
<course>270.0</course>
<desc>Speed 4.3 km/h Distance 1.17 km</desc>
<time>2010-02-27T10:16:01.01</time>
<name>874</name>
</trkpt>
<trkpt lat="48.938130" lon="8.654068">
<ele>329.5</ele>
<speed>4.2</speed>
<course>270.0</course>
<desc>Speed 4.2 km/h Distance 1.17 km</desc>
<time>2010-02-27T10:16:02.01</time>
<name>875</name>
</trkpt>
<trkpt lat="48.938130" lon="8.654050">
<ele>330.0</ele>
<speed>4.6</speed>
<course>262.1</course>
<desc>Speed 4.6 km/h Distance 1.17 km</desc>
<time>2010-02-27T10:16:03.01</time>
<name>876</name>
</trkpt>
<trkpt lat="48.938128" lon="8.654032">
<ele>330.5</ele>
<speed>4.7</speed>
<course>262.8</course>
<desc>Speed 4.7 km/h Distance 1.17 km</desc>
<time>2010-02-27T10:16:04.01</time>
<name>877</name>
</trkpt>
<trkpt lat="48.938127" lon="8.654012">
<ele>331.0</ele>
<speed>4.8</speed>
<course>256.8</course>
<desc>Speed 4.8 km/h Distance 1.17 km</desc>
<time>2010-02-27T10:16:05.01</time>
<name>878</name>
</trkpt>
<trkpt lat="48.938123" lon="8.653990">
<ele>331.5</ele>
<speed>5.0</speed>
<course>255.8</course>
<desc>Speed 5.0 km/h Distance 1.17 km</desc>
<time>2010-02-27T10:16:06.01</time>
<name>879</name>
</trkpt>
<trkpt lat="48.938120" lon="8.653970">
<ele>331.5</ele>
<speed>4.9</speed>
<course>255.8</course>
<desc>Speed 4.9 km/h Distance 1.18 km</desc>
<time>2010-02-27T10:16:07.01</time>
<name>880</name>
</trkpt>
<trkpt lat="48.938117" lon="8.653950">
<ele>332.0</ele>
<speed>5.0</speed>
<course>262.1</course>
<desc>Speed 5.0 km/h Distance 1.18 km</desc>
<time>2010-02-27T10:16:08.01</time>
<name>881</name>
</trkpt>
<trkpt lat="48.938115" lon="8.653932">
<ele>332.0</ele>
<speed>4.7</speed>
<course>254.5</course>
<desc>Speed 4.7 km/h Distance 1.18 km</desc>
<time>2010-02-27T10:16:09.01</time>
<name>882</name>
</trkpt>
<trkpt lat="48.938112" lon="8.653913">
<ele>332.5</ele>
<speed>5.1</speed>
<course>262.8</course>
<desc>Speed 5.1 km/h Distance 1.18 km</desc>
<time>2010-02-27T10:16:10.01</time>
<name>883</name>
</trkpt>
<trkpt lat="48.938110" lon="8.653893">
<ele>333.0</ele>
<speed>5.0</speed>
<course>263.3</course>
<desc>Speed 5.0 km/h Distance 1.18 km</desc>
<time>2010-02-27T10:16:11.01</time>
<name>884</name>
</trkpt>
<trkpt lat="48.938108" lon="8.653872">
<ele>332.5</ele>
<speed>5.0</speed>
<course>262.8</course>
<desc>Speed 5.0 km/h Distance 1.18 km</desc>
<time>2010-02-27T10:16:12.01</time>
<name>885</name>
</trkpt>
<trkpt lat="48.938107" lon="8.653852">
<ele>333.0</ele>
<speed>4.9</speed>
<course>262.8</course>
<desc>Speed 4.9 km/h Distance 1.19 km</desc>
<time>2010-02-27T10:16:13.01</time>
<name>886</name>
</trkpt>
<trkpt lat="48.938105" lon="8.653832">
<ele>333.0</ele>
<speed>4.7</speed>
<course>262.8</course>
<desc>Speed 4.7 km/h Distance 1.19 km</desc>
<time>2010-02-27T10:16:14.01</time>
<name>887</name>
</trkpt>
<trkpt lat="48.938103" lon="8.653812">
<ele>333.5</ele>
<speed>4.9</speed>
<course>255.8</course>
<desc>Speed 4.9 km/h Distance 1.19 km</desc>
<time>2010-02-27T10:16:15.01</time>
<name>888</name>
</trkpt>
<trkpt lat="48.938100" lon="8.653792">
<ele>333.5</ele>
<speed>4.8</speed>
<course>255.8</course>
<desc>Speed 4.8 km/h Distance 1.19 km</desc>
<time>2010-02-27T10:16:16.01</time>
<name>889</name>
</trkpt>
<trkpt lat="48.938097" lon="8.653772">
<ele>333.5</ele>
<speed>4.7</speed>
<course>262.1</course>
<desc>Speed 4.7 km/h Distance 1.19 km</desc>
<time>2010-02-27T10:16:17.01</time>
<name>890</name>
</trkpt>
<trkpt lat="48.938095" lon="8.653753">
<ele>334.0</ele>
<speed>4.6</speed>
<course>253.1</course>
<desc>Speed 4.6 km/h Distance 1.19 km</desc>
<time>2010-02-27T10:16:18.01</time>
<name>891</name>
</trkpt>
<trkpt lat="48.938092" lon="8.653737">
<ele>334.0</ele>
<speed>4.5</speed>
<course>262.8</course>
<desc>Speed 4.5 km/h Distance 1.19 km</desc>
<time>2010-02-27T10:16:19.01</time>
<name>892</name>
</trkpt>
<trkpt lat="48.938090" lon="8.653717">
<ele>334.5</ele>
<speed>4.7</speed>
<course>262.1</course>
<desc>Speed 4.7 km/h Distance 1.20 km</desc>
<time>2010-02-27T10:16:20.01</time>
<name>893</name>
</trkpt>
<trkpt lat="48.938088" lon="8.653698">
<ele>334.5</ele>
<speed>4.6</speed>
<course>255.8</course>
<desc>Speed 4.6 km/h Distance 1.20 km</desc>
<time>2010-02-27T10:16:21.01</time>
<name>894</name>
</trkpt>
<trkpt lat="48.938085" lon="8.653678">
<ele>335.0</ele>
<speed>4.5</speed>
<course>255.8</course>
<desc>Speed 4.5 km/h Distance 1.20 km</desc>
<time>2010-02-27T10:16:22.01</time>
<name>895</name>
</trkpt>
<trkpt lat="48.938082" lon="8.653658">
<ele>335.5</ele>
<speed>4.8</speed>
<course>270.0</course>
<desc>Speed 4.8 km/h Distance 1.20 km</desc>
<time>2010-02-27T10:16:23.01</time>
<name>896</name>
</trkpt>
<trkpt lat="48.938082" lon="8.653638">
<ele>335.5</ele>
<speed>4.7</speed>
<course>261.3</course>
<desc>Speed 4.7 km/h Distance 1.20 km</desc>
<time>2010-02-27T10:16:24.01</time>
<name>897</name>
</trkpt>
<trkpt lat="48.938080" lon="8.653622">
<ele>335.5</ele>
<speed>4.4</speed>
<course>270.0</course>
<desc>Speed 4.4 km/h Distance 1.20 km</desc>
<time>2010-02-27T10:16:25.01</time>
<name>898</name>
</trkpt>
<trkpt lat="48.938080" lon="8.653602">
<ele>335.5</ele>
<speed>4.7</speed>
<course>255.8</course>
<desc>Speed 4.7 km/h Distance 1.20 km</desc>
<time>2010-02-27T10:16:26.01</time>
<name>899</name>
</trkpt>
<trkpt lat="48.938077" lon="8.653582">
<ele>336.0</ele>
<speed>4.9</speed>
<course>262.8</course>
<desc>Speed 4.9 km/h Distance 1.21 km</desc>
<time>2010-02-27T10:16:27.01</time>
<name>900</name>
</trkpt>
<trkpt lat="48.938075" lon="8.653562">
<ele>336.0</ele>
<speed>4.9</speed>
<course>270.0</course>
<desc>Speed 4.9 km/h Distance 1.21 km</desc>
<time>2010-02-27T10:16:28.01</time>
<name>901</name>
</trkpt>
<trkpt lat="48.938075" lon="8.653542">
<ele>336.5</ele>
<speed>4.9</speed>
<course>270.0</course>
<desc>Speed 4.9 km/h Distance 1.21 km</desc>
<time>2010-02-27T10:16:29.01</time>
<name>902</name>
</trkpt>
<trkpt lat="48.938075" lon="8.653523">
<ele>336.5</ele>
<speed>4.5</speed>
<course>262.1</course>
<desc>Speed 4.5 km/h Distance 1.21 km</desc>
<time>2010-02-27T10:16:30.01</time>
<name>903</name>
</trkpt>
<trkpt lat="48.938073" lon="8.653505">
<ele>336.5</ele>
<speed>4.5</speed>
<course>262.1</course>
<desc>Speed 4.5 km/h Distance 1.21 km</desc>
<time>2010-02-27T10:16:31.01</time>
<name>904</name>
</trkpt>
<trkpt lat="48.938072" lon="8.653487">
<ele>336.5</ele>
<speed>4.8</speed>
<course>262.1</course>
<desc>Speed 4.8 km/h Distance 1.21 km</desc>
<time>2010-02-27T10:16:32.01</time>
<name>905</name>
</trkpt>
<trkpt lat="48.938070" lon="8.653468">
<ele>336.5</ele>
<speed>4.4</speed>
<course>262.1</course>
<desc>Speed 4.4 km/h Distance 1.21 km</desc>
<time>2010-02-27T10:16:33.01</time>
<name>906</name>
</trkpt>
<trkpt lat="48.938068" lon="8.653450">
<ele>336.5</ele>
<speed>4.5</speed>
<course>262.8</course>
<desc>Speed 4.5 km/h Distance 1.21 km</desc>
<time>2010-02-27T10:16:34.01</time>
<name>907</name>
</trkpt>
<trkpt lat="48.938067" lon="8.653430">
<ele>337.0</ele>
<speed>4.8</speed>
<course>270.0</course>
<desc>Speed 4.8 km/h Distance 1.22 km</desc>
<time>2010-02-27T10:16:35.01</time>
<name>908</name>
</trkpt>
<trkpt lat="48.938067" lon="8.653412">
<ele>337.0</ele>
<speed>4.5</speed>
<course>262.1</course>
<desc>Speed 4.5 km/h Distance 1.22 km</desc>
<time>2010-02-27T10:16:36.01</time>
<name>909</name>
</trkpt>
<trkpt lat="48.938065" lon="8.653393">
<ele>337.0</ele>
<speed>4.6</speed>
<course>254.5</course>
<desc>Speed 4.6 km/h Distance 1.22 km</desc>
<time>2010-02-27T10:16:37.01</time>
<name>910</name>
</trkpt>
<trkpt lat="48.938062" lon="8.653375">
<ele>337.0</ele>
<speed>4.5</speed>
<course>254.5</course>
<desc>Speed 4.5 km/h Distance 1.22 km</desc>
<time>2010-02-27T10:16:38.01</time>
<name>911</name>
</trkpt>
<trkpt lat="48.938058" lon="8.653357">
<ele>337.0</ele>
<speed>4.9</speed>
<course>255.8</course>
<desc>Speed 4.9 km/h Distance 1.22 km</desc>
<time>2010-02-27T10:16:39.01</time>
<name>912</name>
</trkpt>
<trkpt lat="48.938055" lon="8.653337">
<ele>337.0</ele>
<speed>4.9</speed>
<course>254.6</course>
<desc>Speed 4.9 km/h Distance 1.22 km</desc>
<time>2010-02-27T10:16:40.01</time>
<name>913</name>
</trkpt>
<trkpt lat="48.938052" lon="8.653318">
<ele>337.5</ele>
<speed>4.9</speed>
<course>262.1</course>
<desc>Speed 4.9 km/h Distance 1.22 km</desc>
<time>2010-02-27T10:16:41.01</time>
<name>914</name>
</trkpt>
<trkpt lat="48.938050" lon="8.653300">
<ele>338.0</ele>
<speed>4.5</speed>
<course>261.3</course>
<desc>Speed 4.5 km/h Distance 1.23 km</desc>
<time>2010-02-27T10:16:42.01</time>
<name>915</name>
</trkpt>
<trkpt lat="48.938048" lon="8.653283">
<ele>338.0</ele>
<speed>4.4</speed>
<course>254.6</course>
<desc>Speed 4.4 km/h Distance 1.23 km</desc>
<time>2010-02-27T10:16:43.01</time>
<name>916</name>
</trkpt>
<trkpt lat="48.938045" lon="8.653265">
<ele>338.0</ele>
<speed>4.5</speed>
<course>261.3</course>
<desc>Speed 4.5 km/h Distance 1.23 km</desc>
<time>2010-02-27T10:16:44.01</time>
<name>917</name>
</trkpt>
<trkpt lat="48.938043" lon="8.653248">
<ele>338.0</ele>
<speed>4.5</speed>
<course>270.0</course>
<desc>Speed 4.5 km/h Distance 1.23 km</desc>
<time>2010-02-27T10:16:45.01</time>
<name>918</name>
</trkpt>
<trkpt lat="48.938043" lon="8.653230">
<ele>338.5</ele>
<speed>4.4</speed>
<course>270.0</course>
<desc>Speed 4.4 km/h Distance 1.23 km</desc>
<time>2010-02-27T10:16:46.01</time>
<name>919</name>
</trkpt>
<trkpt lat="48.938043" lon="8.653213">
<ele>339.0</ele>
<speed>4.4</speed>
<course>278.7</course>
<desc>Speed 4.4 km/h Distance 1.23 km</desc>
<time>2010-02-27T10:16:47.01</time>
<name>920</name>
</trkpt>
<trkpt lat="48.938045" lon="8.653197">
<ele>339.5</ele>
<speed>4.1</speed>
<course>270.0</course>
<desc>Speed 4.1 km/h Distance 1.23 km</desc>
<time>2010-02-27T10:16:48.01</time>
<name>921</name>
</trkpt>
<trkpt lat="48.938045" lon="8.653180">
<ele>340.0</ele>
<speed>4.2</speed>
<course>270.0</course>
<desc>Speed 4.2 km/h Distance 1.23 km</desc>
<time>2010-02-27T10:16:49.01</time>
<name>922</name>
</trkpt>
<trkpt lat="48.938045" lon="8.653162">
<ele>339.5</ele>
<speed>4.7</speed>
<course>270.0</course>
<desc>Speed 4.7 km/h Distance 1.24 km</desc>
<time>2010-02-27T10:16:50.01</time>
<name>923</name>
</trkpt>
<trkpt lat="48.938045" lon="8.653145">
<ele>340.0</ele>
<speed>4.4</speed>
<course>262.1</course>
<desc>Speed 4.4 km/h Distance 1.24 km</desc>
<time>2010-02-27T10:16:51.01</time>
<name>924</name>
</trkpt>
<trkpt lat="48.938043" lon="8.653127">
<ele>339.5</ele>
<speed>4.5</speed>
<course>270.0</course>
<desc>Speed 4.5 km/h Distance 1.24 km</desc>
<time>2010-02-27T10:16:52.01</time>
<name>925</name>
</trkpt>
<trkpt lat="48.938043" lon="8.653107">
<ele>340.0</ele>
<speed>5.1</speed>
<course>261.3</course>
<desc>Speed 5.1 km/h Distance 1.24 km</desc>
<time>2010-02-27T10:16:53.01</time>
<name>926</name>
</trkpt>
<trkpt lat="48.938042" lon="8.653090">
<ele>339.0</ele>
<speed>4.4</speed>
<course>292.1</course>
<desc>Speed 4.4 km/h Distance 1.24 km</desc>
<time>2010-02-27T10:16:54.01</time>
<name>927</name>
</trkpt>
<trkpt lat="48.938048" lon="8.653065">
<ele>339.0</ele>
<speed>6.7</speed>
<course>277.2</course>
<desc>Speed 6.7 km/h Distance 1.24 km</desc>
<time>2010-02-27T10:16:55.01</time>
<name>928</name>
</trkpt>
<trkpt lat="48.938050" lon="8.653045">
<ele>339.5</ele>
<speed>5.1</speed>
<course>270.0</course>
<desc>Speed 5.1 km/h Distance 1.25 km</desc>
<time>2010-02-27T10:16:56.01</time>
<name>929</name>
</trkpt>
<trkpt lat="48.938050" lon="8.653025">
<ele>339.5</ele>
<speed>5.0</speed>
<course>270.0</course>
<desc>Speed 5.0 km/h Distance 1.25 km</desc>
<time>2010-02-27T10:16:57.01</time>
<name>930</name>
</trkpt>
<trkpt lat="48.938050" lon="8.653007">
<ele>340.0</ele>
<speed>4.6</speed>
<course>270.0</course>
<desc>Speed 4.6 km/h Distance 1.25 km</desc>
<time>2010-02-27T10:16:58.01</time>
<name>931</name>
</trkpt>
<trkpt lat="48.938050" lon="8.652988">
<ele>340.5</ele>
<speed>4.6</speed>
<course>277.9</course>
<desc>Speed 4.6 km/h Distance 1.25 km</desc>
<time>2010-02-27T10:16:59.01</time>
<name>932</name>
</trkpt>
<trkpt lat="48.938052" lon="8.652970">
<ele>341.0</ele>
<speed>4.6</speed>
<course>278.7</course>
<desc>Speed 4.6 km/h Distance 1.25 km</desc>
<time>2010-02-27T10:17:00.01</time>
<name>933</name>
</trkpt>
<trkpt lat="48.938053" lon="8.652953">
<ele>341.0</ele>
<speed>4.3</speed>
<course>270.0</course>
<desc>Speed 4.3 km/h Distance 1.25 km</desc>
<time>2010-02-27T10:17:01.01</time>
<name>934</name>
</trkpt>
<trkpt lat="48.938053" lon="8.652937">
<ele>341.0</ele>
<speed>4.2</speed>
<course>278.7</course>
<desc>Speed 4.2 km/h Distance 1.25 km</desc>
<time>2010-02-27T10:17:02.01</time>
<name>935</name>
</trkpt>
<trkpt lat="48.938055" lon="8.652920">
<ele>341.5</ele>
<speed>4.0</speed>
<course>270.0</course>
<desc>Speed 4.0 km/h Distance 1.25 km</desc>
<time>2010-02-27T10:17:03.01</time>
<name>936</name>
</trkpt>
<trkpt lat="48.938055" lon="8.652903">
<ele>341.5</ele>
<speed>4.2</speed>
<course>261.3</course>
<desc>Speed 4.2 km/h Distance 1.26 km</desc>
<time>2010-02-27T10:17:04.01</time>
<name>937</name>
</trkpt>
<trkpt lat="48.938053" lon="8.652887">
<ele>341.5</ele>
<speed>4.1</speed>
<course>270.0</course>
<desc>Speed 4.1 km/h Distance 1.26 km</desc>
<time>2010-02-27T10:17:05.01</time>
<name>938</name>
</trkpt>
<trkpt lat="48.938053" lon="8.652872">
<ele>342.0</ele>
<speed>3.9</speed>
<course>277.9</course>
<desc>Speed 3.9 km/h Distance 1.26 km</desc>
<time>2010-02-27T10:17:06.01</time>
<name>939</name>
</trkpt>
<trkpt lat="48.938055" lon="8.652853">
<ele>342.5</ele>
<speed>4.5</speed>
<course>278.6</course>
<desc>Speed 4.5 km/h Distance 1.26 km</desc>
<time>2010-02-27T10:17:07.01</time>
<name>940</name>
</trkpt>
<trkpt lat="48.938057" lon="8.652837">
<ele>342.5</ele>
<speed>4.4</speed>
<course>278.7</course>
<desc>Speed 4.4 km/h Distance 1.26 km</desc>
<time>2010-02-27T10:17:08.01</time>
<name>941</name>
</trkpt>
<trkpt lat="48.938058" lon="8.652820">
<ele>342.5</ele>
<speed>4.1</speed>
<course>279.6</course>
<desc>Speed 4.1 km/h Distance 1.26 km</desc>
<time>2010-02-27T10:17:09.01</time>
<name>942</name>
</trkpt>
<trkpt lat="48.938060" lon="8.652805">
<ele>343.0</ele>
<speed>4.0</speed>
<course>286.9</course>
<desc>Speed 4.0 km/h Distance 1.26 km</desc>
<time>2010-02-27T10:17:10.01</time>
<name>943</name>
</trkpt>
<trkpt lat="48.938063" lon="8.652788">
<ele>343.0</ele>
<speed>4.1</speed>
<course>288.7</course>
<desc>Speed 4.1 km/h Distance 1.26 km</desc>
<time>2010-02-27T10:17:11.01</time>
<name>944</name>
</trkpt>
<trkpt lat="48.938067" lon="8.652773">
<ele>343.0</ele>
<speed>4.0</speed>
<course>285.5</course>
<desc>Speed 4.0 km/h Distance 1.27 km</desc>
<time>2010-02-27T10:17:12.01</time>
<name>945</name>
</trkpt>
<trkpt lat="48.938070" lon="8.652755">
<ele>343.0</ele>
<speed>4.6</speed>
<course>270.0</course>
<desc>Speed 4.6 km/h Distance 1.27 km</desc>
<time>2010-02-27T10:17:13.01</time>
<name>946</name>
</trkpt>
<trkpt lat="48.938070" lon="8.652737">
<ele>343.5</ele>
<speed>5.0</speed>
<course>286.9</course>
<desc>Speed 5.0 km/h Distance 1.27 km</desc>
<time>2010-02-27T10:17:14.01</time>
<name>947</name>
</trkpt>
<trkpt lat="48.938073" lon="8.652720">
<ele>343.5</ele>
<speed>4.1</speed>
<course>299.7</course>
<desc>Speed 4.1 km/h Distance 1.27 km</desc>
<time>2010-02-27T10:17:15.01</time>
<name>948</name>
</trkpt>
<trkpt lat="48.938078" lon="8.652707">
<ele>343.5</ele>
<speed>4.0</speed>
<course>288.6</course>
<desc>Speed 4.0 km/h Distance 1.27 km</desc>
<time>2010-02-27T10:17:16.01</time>
<name>949</name>
</trkpt>
<trkpt lat="48.938082" lon="8.652692">
<ele>343.5</ele>
<speed>4.0</speed>
<course>299.7</course>
<desc>Speed 4.0 km/h Distance 1.27 km</desc>
<time>2010-02-27T10:17:17.01</time>
<name>950</name>
</trkpt>
<trkpt lat="48.938087" lon="8.652678">
<ele>343.5</ele>
<speed>4.1</speed>
<course>285.5</course>
<desc>Speed 4.1 km/h Distance 1.27 km</desc>
<time>2010-02-27T10:17:18.01</time>
<name>951</name>
</trkpt>
<trkpt lat="48.938090" lon="8.652660">
<ele>343.5</ele>
<speed>4.4</speed>
<course>286.9</course>
<desc>Speed 4.4 km/h Distance 1.27 km</desc>
<time>2010-02-27T10:17:19.01</time>
<name>952</name>
</trkpt>
<trkpt lat="48.938093" lon="8.652643">
<ele>343.5</ele>
<speed>4.3</speed>
<course>288.7</course>
<desc>Speed 4.3 km/h Distance 1.28 km</desc>
<time>2010-02-27T10:17:20.01</time>
<name>953</name>
</trkpt>
<trkpt lat="48.938097" lon="8.652628">
<ele>343.5</ele>
<speed>3.7</speed>
<course>286.9</course>
<desc>Speed 3.7 km/h Distance 1.28 km</desc>
<time>2010-02-27T10:17:21.01</time>
<name>954</name>
</trkpt>
<trkpt lat="48.938100" lon="8.652612">
<ele>343.0</ele>
<speed>4.0</speed>
<course>296.9</course>
<desc>Speed 4.0 km/h Distance 1.28 km</desc>
<time>2010-02-27T10:17:22.01</time>
<name>955</name>
</trkpt>
<trkpt lat="48.938105" lon="8.652597">
<ele>343.0</ele>
<speed>4.2</speed>
<course>296.9</course>
<desc>Speed 4.2 km/h Distance 1.28 km</desc>
<time>2010-02-27T10:17:23.01</time>
<name>956</name>
</trkpt>
<trkpt lat="48.938110" lon="8.652582">
<ele>343.0</ele>
<speed>4.2</speed>
<course>286.9</course>
<desc>Speed 4.2 km/h Distance 1.28 km</desc>
<time>2010-02-27T10:17:24.01</time>
<name>957</name>
</trkpt>
<trkpt lat="48.938113" lon="8.652565">
<ele>343.5</ele>
<speed>4.5</speed>
<course>285.5</course>
<desc>Speed 4.5 km/h Distance 1.28 km</desc>
<time>2010-02-27T10:17:25.01</time>
<name>958</name>
</trkpt>
<trkpt lat="48.938117" lon="8.652547">
<ele>343.5</ele>
<speed>4.7</speed>
<course>294.5</course>
<desc>Speed 4.7 km/h Distance 1.28 km</desc>
<time>2010-02-27T10:17:26.01</time>
<name>959</name>
</trkpt>
<trkpt lat="48.938122" lon="8.652530">
<ele>343.5</ele>
<speed>4.6</speed>
<course>286.9</course>
<desc>Speed 4.6 km/h Distance 1.28 km</desc>
<time>2010-02-27T10:17:27.01</time>
<name>960</name>
</trkpt>
<trkpt lat="48.938125" lon="8.652513">
<ele>344.0</ele>
<speed>4.5</speed>
<course>277.9</course>
<desc>Speed 4.5 km/h Distance 1.29 km</desc>
<time>2010-02-27T10:17:28.01</time>
<name>961</name>
</trkpt>
<trkpt lat="48.938127" lon="8.652495">
<ele>344.0</ele>
<speed>4.4</speed>
<course>278.7</course>
<desc>Speed 4.4 km/h Distance 1.29 km</desc>
<time>2010-02-27T10:17:29.01</time>
<name>962</name>
</trkpt>
<trkpt lat="48.938128" lon="8.652478">
<ele>344.0</ele>
<speed>4.3</speed>
<course>287.0</course>
<desc>Speed 4.3 km/h Distance 1.29 km</desc>
<time>2010-02-27T10:17:30.01</time>
<name>963</name>
</trkpt>
<trkpt lat="48.938132" lon="8.652462">
<ele>344.5</ele>
<speed>4.2</speed>
<course>296.9</course>
<desc>Speed 4.2 km/h Distance 1.29 km</desc>
<time>2010-02-27T10:17:31.01</time>
<name>964</name>
</trkpt>
<trkpt lat="48.938137" lon="8.652447">
<ele>344.5</ele>
<speed>4.4</speed>
<course>287.0</course>
<desc>Speed 4.4 km/h Distance 1.29 km</desc>
<time>2010-02-27T10:17:32.01</time>
<name>965</name>
</trkpt>
<trkpt lat="48.938140" lon="8.652430">
<ele>344.5</ele>
<speed>4.4</speed>
<course>278.7</course>
<desc>Speed 4.4 km/h Distance 1.29 km</desc>
<time>2010-02-27T10:17:33.01</time>
<name>966</name>
</trkpt>
<trkpt lat="48.938142" lon="8.652413">
<ele>345.0</ele>
<speed>4.1</speed>
<course>290.8</course>
<desc>Speed 4.1 km/h Distance 1.29 km</desc>
<time>2010-02-27T10:17:34.01</time>
<name>967</name>
</trkpt>
<trkpt lat="48.938145" lon="8.652400">
<ele>345.0</ele>
<speed>3.9</speed>
<course>270.0</course>
<desc>Speed 3.9 km/h Distance 1.29 km</desc>
<time>2010-02-27T10:17:35.01</time>
<name>968</name>
</trkpt>
<trkpt lat="48.938145" lon="8.652385">
<ele>345.0</ele>
<speed>3.7</speed>
<course>286.9</course>
<desc>Speed 3.7 km/h Distance 1.30 km</desc>
<time>2010-02-27T10:17:36.01</time>
<name>969</name>
</trkpt>
<trkpt lat="48.938148" lon="8.652368">
<ele>345.0</ele>
<speed>4.0</speed>
<course>280.7</course>
<desc>Speed 4.0 km/h Distance 1.30 km</desc>
<time>2010-02-27T10:17:37.01</time>
<name>970</name>
</trkpt>
<trkpt lat="48.938150" lon="8.652355">
<ele>345.0</ele>
<speed>3.7</speed>
<course>290.8</course>
<desc>Speed 3.7 km/h Distance 1.30 km</desc>
<time>2010-02-27T10:17:38.01</time>
<name>971</name>
</trkpt>
<trkpt lat="48.938153" lon="8.652342">
<ele>345.5</ele>
<speed>3.7</speed>
<course>296.9</course>
<desc>Speed 3.7 km/h Distance 1.30 km</desc>
<time>2010-02-27T10:17:39.01</time>
<name>972</name>
</trkpt>
<trkpt lat="48.938158" lon="8.652327">
<ele>345.5</ele>
<speed>3.7</speed>
<course>284.4</course>
<desc>Speed 3.7 km/h Distance 1.30 km</desc>
<time>2010-02-27T10:17:40.01</time>
<name>973</name>
</trkpt>
<trkpt lat="48.938160" lon="8.652317">
<ele>345.5</ele>
<speed>3.0</speed>
<course>288.7</course>
<desc>Speed 3.0 km/h Distance 1.30 km</desc>
<time>2010-02-27T10:17:41.04</time>
<name>974</name>
</trkpt>
<trkpt lat="48.938163" lon="8.652302">
<ele>345.5</ele>
<speed>3.7</speed>
<course>310.9</course>
<desc>Speed 3.7 km/h Distance 1.30 km</desc>
<time>2010-02-27T10:17:42.04</time>
<name>975</name>
</trkpt>
<trkpt lat="48.938170" lon="8.652290">
<ele>345.5</ele>
<speed>3.7</speed>
<course>290.9</course>
<desc>Speed 3.7 km/h Distance 1.30 km</desc>
<time>2010-02-27T10:17:43.04</time>
<name>976</name>
</trkpt>
<trkpt lat="48.938173" lon="8.652277">
<ele>345.0</ele>
<speed>3.6</speed>
<course>299.7</course>
<desc>Speed 3.6 km/h Distance 1.30 km</desc>
<time>2010-02-27T10:17:44.04</time>
<name>977</name>
</trkpt>
<trkpt lat="48.938178" lon="8.652263">
<ele>345.0</ele>
<speed>3.8</speed>
<course>299.7</course>
<desc>Speed 3.8 km/h Distance 1.30 km</desc>
<time>2010-02-27T10:17:45.04</time>
<name>978</name>
</trkpt>
<trkpt lat="48.938183" lon="8.652250">
<ele>345.5</ele>
<speed>3.8</speed>
<course>277.9</course>
<desc>Speed 3.8 km/h Distance 1.31 km</desc>
<time>2010-02-27T10:17:46.04</time>
<name>979</name>
</trkpt>
<trkpt lat="48.938185" lon="8.652232">
<ele>345.5</ele>
<speed>4.3</speed>
<course>290.9</course>
<desc>Speed 4.3 km/h Distance 1.31 km</desc>
<time>2010-02-27T10:17:47.04</time>
<name>980</name>
</trkpt>
<trkpt lat="48.938188" lon="8.652218">
<ele>345.5</ele>
<speed>3.5</speed>
<course>288.7</course>
<desc>Speed 3.5 km/h Distance 1.31 km</desc>
<time>2010-02-27T10:17:48.04</time>
<name>981</name>
</trkpt>
<trkpt lat="48.938192" lon="8.652203">
<ele>345.5</ele>
<speed>3.7</speed>
<course>304.1</course>
<desc>Speed 3.7 km/h Distance 1.31 km</desc>
<time>2010-02-27T10:17:49.04</time>
<name>982</name>
</trkpt>
<trkpt lat="48.938198" lon="8.652188">
<ele>346.0</ele>
<speed>4.0</speed>
<course>288.7</course>
<desc>Speed 4.0 km/h Distance 1.31 km</desc>
<time>2010-02-27T10:17:50.04</time>
<name>983</name>
</trkpt>
<trkpt lat="48.938202" lon="8.652173">
<ele>346.0</ele>
<speed>3.7</speed>
<course>270.0</course>
<desc>Speed 3.7 km/h Distance 1.31 km</desc>
<time>2010-02-27T10:17:51.04</time>
<name>984</name>
</trkpt>
<trkpt lat="48.938202" lon="8.652153">
<ele>346.0</ele>
<speed>4.9</speed>
<course>270.0</course>
<desc>Speed 4.9 km/h Distance 1.31 km</desc>
<time>2010-02-27T10:17:52.04</time>
<name>985</name>
</trkpt>
<trkpt lat="48.938202" lon="8.652133">
<ele>346.5</ele>
<speed>4.8</speed>
<course>263.8</course>
<desc>Speed 4.8 km/h Distance 1.31 km</desc>
<time>2010-02-27T10:17:53.04</time>
<name>986</name>
</trkpt>
<trkpt lat="48.938200" lon="8.652110">
<ele>346.5</ele>
<speed>4.8</speed>
<course>263.3</course>
<desc>Speed 4.8 km/h Distance 1.32 km</desc>
<time>2010-02-27T10:17:54.04</time>
<name>987</name>
</trkpt>
<trkpt lat="48.938198" lon="8.652088">
<ele>346.5</ele>
<speed>4.8</speed>
<course>270.0</course>
<desc>Speed 4.8 km/h Distance 1.32 km</desc>
<time>2010-02-27T10:17:55.04</time>
<name>988</name>
</trkpt>
<trkpt lat="48.938198" lon="8.652067">
<ele>346.5</ele>
<speed>4.9</speed>
<course>262.8</course>
<desc>Speed 4.9 km/h Distance 1.32 km</desc>
<time>2010-02-27T10:17:56.04</time>
<name>989</name>
</trkpt>
<trkpt lat="48.938197" lon="8.652047">
<ele>346.5</ele>
<speed>4.8</speed>
<course>270.0</course>
<desc>Speed 4.8 km/h Distance 1.32 km</desc>
<time>2010-02-27T10:17:57.04</time>
<name>990</name>
</trkpt>
<trkpt lat="48.938197" lon="8.652025">
<ele>347.0</ele>
<speed>4.7</speed>
<course>270.0</course>
<desc>Speed 4.7 km/h Distance 1.32 km</desc>
<time>2010-02-27T10:17:58.04</time>
<name>991</name>
</trkpt>
<trkpt lat="48.938197" lon="8.652005">
<ele>347.5</ele>
<speed>4.9</speed>
<course>270.0</course>
<desc>Speed 4.9 km/h Distance 1.32 km</desc>
<time>2010-02-27T10:17:59.04</time>
<name>992</name>
</trkpt>
<trkpt lat="48.938197" lon="8.651983">
<ele>347.5</ele>
<speed>4.8</speed>
<course>262.8</course>
<desc>Speed 4.8 km/h Distance 1.33 km</desc>
<time>2010-02-27T10:18:00.04</time>
<name>993</name>
</trkpt>
<trkpt lat="48.938195" lon="8.651963">
<ele>348.0</ele>
<speed>4.8</speed>
<course>262.8</course>
<desc>Speed 4.8 km/h Distance 1.33 km</desc>
<time>2010-02-27T10:18:01.04</time>
<name>994</name>
</trkpt>
<trkpt lat="48.938193" lon="8.651943">
<ele>348.5</ele>
<speed>4.7</speed>
<course>254.5</course>
<desc>Speed 4.7 km/h Distance 1.33 km</desc>
<time>2010-02-27T10:18:02.04</time>
<name>995</name>
</trkpt>
<trkpt lat="48.938190" lon="8.651925">
<ele>348.5</ele>
<speed>4.8</speed>
<course>255.8</course>
<desc>Speed 4.8 km/h Distance 1.33 km</desc>
<time>2010-02-27T10:18:03.04</time>
<name>996</name>
</trkpt>
<trkpt lat="48.938187" lon="8.651905">
<ele>349.0</ele>
<speed>4.7</speed>
<course>249.1</course>
<desc>Speed 4.7 km/h Distance 1.33 km</desc>
<time>2010-02-27T10:18:04.04</time>
<name>997</name>
</trkpt>
<trkpt lat="48.938182" lon="8.651885">
<ele>349.0</ele>
<speed>4.8</speed>
<course>255.8</course>
<desc>Speed 4.8 km/h Distance 1.33 km</desc>
<time>2010-02-27T10:18:05.04</time>
<name>998</name>
</trkpt>
<trkpt lat="48.938178" lon="8.651865">
<ele>349.0</ele>
<speed>5.0</speed>
<course>250.6</course>
<desc>Speed 5.0 km/h Distance 1.33 km</desc>
<time>2010-02-27T10:18:06.04</time>
<name>999</name>
</trkpt>
<trkpt lat="48.938173" lon="8.651843">
<ele>349.5</ele>
<speed>5.3</speed>
<course>255.8</course>
<desc>Speed 5.3 km/h Distance 1.34 km</desc>
<time>2010-02-27T10:18:07.04</time>
<name>1000</name>
</trkpt>
<trkpt lat="48.938170" lon="8.651823">
<ele>349.5</ele>
<speed>5.3</speed>
<course>255.8</course>
<desc>Speed 5.3 km/h Distance 1.34 km</desc>
<time>2010-02-27T10:18:08.04</time>
<name>1001</name>
</trkpt>
<trkpt lat="48.938167" lon="8.651803">
<ele>349.5</ele>
<speed>5.1</speed>
<course>262.8</course>
<desc>Speed 5.1 km/h Distance 1.34 km</desc>
<time>2010-02-27T10:18:09.04</time>
<name>1002</name>
</trkpt>
<trkpt lat="48.938165" lon="8.651783">
<ele>349.5</ele>
<speed>5.3</speed>
<course>255.8</course>
<desc>Speed 5.3 km/h Distance 1.34 km</desc>
<time>2010-02-27T10:18:10.04</time>
<name>1003</name>
</trkpt>
<trkpt lat="48.938162" lon="8.651763">
<ele>350.0</ele>
<speed>5.3</speed>
<course>255.8</course>
<desc>Speed 5.3 km/h Distance 1.34 km</desc>
<time>2010-02-27T10:18:11.04</time>
<name>1004</name>
</trkpt>
<trkpt lat="48.938158" lon="8.651743">
<ele>350.0</ele>
<speed>5.3</speed>
<course>262.1</course>
<desc>Speed 5.3 km/h Distance 1.34 km</desc>
<time>2010-02-27T10:18:12.04</time>
<name>1005</name>
</trkpt>
<trkpt lat="48.938157" lon="8.651725">
<ele>350.0</ele>
<speed>5.0</speed>
<course>263.3</course>
<desc>Speed 5.0 km/h Distance 1.35 km</desc>
<time>2010-02-27T10:18:13.04</time>
<name>1006</name>
</trkpt>
<trkpt lat="48.938155" lon="8.651703">
<ele>349.5</ele>
<speed>5.3</speed>
<course>260.4</course>
<desc>Speed 5.3 km/h Distance 1.35 km</desc>
<time>2010-02-27T10:18:14.04</time>
<name>1007</name>
</trkpt>
<trkpt lat="48.938153" lon="8.651688">
<ele>349.5</ele>
<speed>4.2</speed>
<course>260.4</course>
<desc>Speed 4.2 km/h Distance 1.35 km</desc>
<time>2010-02-27T10:18:15.08</time>
<name>1008</name>
</trkpt>
<trkpt lat="48.938152" lon="8.651673">
<ele>350.0</ele>
<speed>3.6</speed>
<course>251.3</course>
<desc>Speed 3.6 km/h Distance 1.35 km</desc>
<time>2010-02-27T10:18:16.06</time>
<name>1009</name>
</trkpt>
<trkpt lat="48.938148" lon="8.651658">
<ele>350.0</ele>
<speed>4.2</speed>
<course>246.5</course>
<desc>Speed 4.2 km/h Distance 1.35 km</desc>
<time>2010-02-27T10:18:17.06</time>
<name>1010</name>
</trkpt>
<trkpt lat="48.938145" lon="8.651647">
<ele>350.0</ele>
<speed>3.1</speed>
<course>251.3</course>
<desc>Speed 3.1 km/h Distance 1.35 km</desc>
<time>2010-02-27T10:18:18.06</time>
<name>1011</name>
</trkpt>
<trkpt lat="48.938142" lon="8.651632">
<ele>349.5</ele>
<speed>3.9</speed>
<course>254.6</course>
<desc>Speed 3.9 km/h Distance 1.35 km</desc>
<time>2010-02-27T10:18:19.06</time>
<name>1012</name>
</trkpt>
<trkpt lat="48.938138" lon="8.651613">
<ele>350.0</ele>
<speed>4.8</speed>
<course>246.5</course>
<desc>Speed 4.8 km/h Distance 1.35 km</desc>
<time>2010-02-27T10:18:20.06</time>
<name>1013</name>
</trkpt>
<trkpt lat="48.938132" lon="8.651590">
<ele>348.5</ele>
<speed>6.2</speed>
<course>255.8</course>
<desc>Speed 6.2 km/h Distance 1.36 km</desc>
<time>2010-02-27T10:18:21.23</time>
<name>1014</name>
</trkpt>
<trkpt lat="48.938128" lon="8.651570">
<ele>348.0</ele>
<speed>5.3</speed>
<course>249.2</course>
<desc>Speed 5.3 km/h Distance 1.36 km</desc>
<time>2010-02-27T10:18:22.10</time>
<name>1015</name>
</trkpt>
<trkpt lat="48.938123" lon="8.651550">
<ele>347.5</ele>
<speed>4.4</speed>
<course>253.1</course>
<desc>Speed 4.4 km/h Distance 1.36 km</desc>
<time>2010-02-27T10:18:23.10</time>
<name>1016</name>
</trkpt>
<trkpt lat="48.938120" lon="8.651533">
<ele>347.5</ele>
<speed>3.9</speed>
<course>249.2</course>
<desc>Speed 3.9 km/h Distance 1.36 km</desc>
<time>2010-02-27T10:18:24.10</time>
<name>1017</name>
</trkpt>
<trkpt lat="48.938093" lon="8.651427">
<ele>337.0</ele>
<speed>0.8</speed>
<course>249.5</course>
<desc>Speed 0.8 km/h Distance 1.36 km</desc>
<time>2010-02-27T10:18:27.60</time>
<name>1018</name>
</trkpt>
<trkpt lat="48.938092" lon="8.651420">
<ele>336.5</ele>
<speed>1.9</speed>
<course>260.4</course>
<desc>Speed 1.9 km/h Distance 1.36 km</desc>
<time>2010-02-27T10:18:28.15</time>
<name>1019</name>
</trkpt>
<trkpt lat="48.938090" lon="8.651405">
<ele>336.5</ele>
<speed>4.5</speed>
<course>262.8</course>
<desc>Speed 4.5 km/h Distance 1.36 km</desc>
<time>2010-02-27T10:18:29.18</time>
<name>1020</name>
</trkpt>
<trkpt lat="48.938088" lon="8.651385">
<ele>336.5</ele>
<speed>4.8</speed>
<course>286.9</course>
<desc>Speed 4.8 km/h Distance 1.36 km</desc>
<time>2010-02-27T10:18:30.16</time>
<name>1021</name>
</trkpt>
<trkpt lat="48.938092" lon="8.651368">
<ele>336.5</ele>
<speed>4.8</speed>
<course>349.2</course>
<desc>Speed 4.8 km/h Distance 1.36 km</desc>
<time>2010-02-27T10:18:31.16</time>
<name>1022</name>
</trkpt>
<trkpt lat="48.938108" lon="8.651363">
<ele>337.0</ele>
<speed>3.2</speed>
<course>355.6</course>
<desc>Speed 3.2 km/h Distance 1.37 km</desc>
<time>2010-02-27T10:18:32.17</time>
<name>1023</name>
</trkpt>
<trkpt lat="48.938118" lon="8.651362">
<ele>337.5</ele>
<speed>3.5</speed>
<course>3.9</course>
<desc>Speed 3.5 km/h Distance 1.37 km</desc>
<time>2010-02-27T10:18:33.19</time>
<name>1024</name>
</trkpt>
<trkpt lat="48.938132" lon="8.651363">
<ele>338.0</ele>
<speed>4.0</speed>
<course>41.2</course>
<desc>Speed 4.0 km/h Distance 1.37 km</desc>
<time>2010-02-27T10:18:34.24</time>
<name>1025</name>
</trkpt>
<trkpt lat="48.938142" lon="8.651377">
<ele>338.5</ele>
<speed>2.8</speed>
<course>5.0</course>
<desc>Speed 2.8 km/h Distance 1.37 km</desc>
<time>2010-02-27T10:18:35.21</time>
<name>1026</name>
</trkpt>
<trkpt lat="48.938150" lon="8.651377">
<ele>337.0</ele>
<speed>2.7</speed>
<course>2.2</course>
<desc>Speed 2.7 km/h Distance 1.37 km</desc>
<time>2010-02-27T10:18:36.21</time>
<name>1027</name>
</trkpt>
<trkpt lat="48.938162" lon="8.651377">
<ele>336.0</ele>
<speed>4.1</speed>
<course>3.2</course>
<desc>Speed 4.1 km/h Distance 1.37 km</desc>
<time>2010-02-27T10:18:37.21</time>
<name>1028</name>
</trkpt>
<trkpt lat="48.938183" lon="8.651378">
<ele>337.5</ele>
<speed>5.2</speed>
<course>353.5</course>
<desc>Speed 5.2 km/h Distance 1.38 km</desc>
<time>2010-02-27T10:18:38.21</time>
<name>1029</name>
</trkpt>
<trkpt lat="48.938202" lon="8.651375">
<ele>338.0</ele>
<speed>5.1</speed>
<course>355.3</course>
<desc>Speed 5.1 km/h Distance 1.38 km</desc>
<time>2010-02-27T10:18:39.21</time>
<name>1030</name>
</trkpt>
<trkpt lat="48.938213" lon="8.651373">
<ele>338.0</ele>
<speed>2.7</speed>
<course>357.2</course>
<desc>Speed 2.7 km/h Distance 1.38 km</desc>
<time>2010-02-27T10:18:40.21</time>
<name>1031</name>
</trkpt>
<trkpt lat="48.938230" lon="8.651372">
<ele>338.5</ele>
<speed>5.1</speed>
<course>3.8</course>
<desc>Speed 5.1 km/h Distance 1.38 km</desc>
<time>2010-02-27T10:18:41.21</time>
<name>1032</name>
</trkpt>
<trkpt lat="48.938245" lon="8.651373">
<ele>338.0</ele>
<speed>4.6</speed>
<course>110.9</course>
<desc>Speed 4.6 km/h Distance 1.38 km</desc>
<time>2010-02-27T10:18:42.21</time>
<name>1033</name>
</trkpt>
<trkpt lat="48.938243" lon="8.651380">
<ele>338.0</ele>
<speed>1.8</speed>
<course>355.0</course>
<desc>Speed 1.8 km/h Distance 1.38 km</desc>
<time>2010-02-27T10:18:43.21</time>
<name>1034</name>
</trkpt>
<trkpt lat="48.938252" lon="8.651378">
<ele>337.5</ele>
<speed>3.0</speed>
<course>355.6</course>
<desc>Speed 3.0 km/h Distance 1.38 km</desc>
<time>2010-02-27T10:18:44.21</time>
<name>1035</name>
</trkpt>
<trkpt lat="48.938262" lon="8.651377">
<ele>336.5</ele>
<speed>3.6</speed>
<course>355.3</course>
<desc>Speed 3.6 km/h Distance 1.38 km</desc>
<time>2010-02-27T10:18:45.21</time>
<name>1036</name>
</trkpt>
<trkpt lat="48.938273" lon="8.651375">
<ele>336.5</ele>
<speed>4.0</speed>
<course>351.2</course>
<desc>Speed 4.0 km/h Distance 1.39 km</desc>
<time>2010-02-27T10:18:46.21</time>
<name>1037</name>
</trkpt>
<trkpt lat="48.938288" lon="8.651372">
<ele>336.5</ele>
<speed>4.6</speed>
<course>355.9</course>
<desc>Speed 4.6 km/h Distance 1.39 km</desc>
<time>2010-02-27T10:18:47.21</time>
<name>1038</name>
</trkpt>
<trkpt lat="48.938305" lon="8.651370">
<ele>336.0</ele>
<speed>4.0</speed>
<course>355.6</course>
<desc>Speed 4.0 km/h Distance 1.39 km</desc>
<time>2010-02-27T10:18:48.21</time>
<name>1039</name>
</trkpt>
<trkpt lat="48.938315" lon="8.651368">
<ele>335.5</ele>
<speed>3.1</speed>
<course>342.5</course>
<desc>Speed 3.1 km/h Distance 1.39 km</desc>
<time>2010-02-27T10:18:49.21</time>
<name>1040</name>
</trkpt>
<trkpt lat="48.938322" lon="8.651365">
<ele>334.0</ele>
<speed>3.1</speed>
<course>356.1</course>
<desc>Speed 3.1 km/h Distance 1.39 km</desc>
<time>2010-02-27T10:18:50.21</time>
<name>1041</name>
</trkpt>
<trkpt lat="48.938335" lon="8.651363">
<ele>334.5</ele>
<speed>3.2</speed>
<course>1.2</course>
<desc>Speed 3.2 km/h Distance 1.39 km</desc>
<time>2010-02-27T10:18:51.21</time>
<name>1042</name>
</trkpt>
<trkpt lat="48.938348" lon="8.651363">
<ele>334.5</ele>
<speed>3.5</speed>
<course>353.7</course>
<desc>Speed 3.5 km/h Distance 1.39 km</desc>
<time>2010-02-27T10:18:52.21</time>
<name>1043</name>
</trkpt>
<trkpt lat="48.938360" lon="8.651362">
<ele>334.0</ele>
<speed>4.0</speed>
<course>353.7</course>
<desc>Speed 4.0 km/h Distance 1.40 km</desc>
<time>2010-02-27T10:18:53.21</time>
<name>1044</name>
</trkpt>
<trkpt lat="48.938372" lon="8.651360">
<ele>333.5</ele>
<speed>3.6</speed>
<course>347.4</course>
<desc>Speed 3.6 km/h Distance 1.40 km</desc>
<time>2010-02-27T10:18:54.21</time>
<name>1045</name>
</trkpt>
<trkpt lat="48.938382" lon="8.651357">
<ele>333.0</ele>
<speed>4.0</speed>
<course>4.7</course>
<desc>Speed 4.0 km/h Distance 1.40 km</desc>
<time>2010-02-27T10:18:55.21</time>
<name>1046</name>
</trkpt>
<trkpt lat="48.938393" lon="8.651358">
<ele>332.5</ele>
<speed>4.1</speed>
<course>7.1</course>
<desc>Speed 4.1 km/h Distance 1.40 km</desc>
<time>2010-02-27T10:18:56.21</time>
<name>1047</name>
</trkpt>
<trkpt lat="48.938410" lon="8.651362">
<ele>333.5</ele>
<speed>4.8</speed>
<course>355.3</course>
<desc>Speed 4.8 km/h Distance 1.40 km</desc>
<time>2010-02-27T10:18:57.21</time>
<name>1048</name>
</trkpt>
<trkpt lat="48.938422" lon="8.651360">
<ele>334.0</ele>
<speed>4.4</speed>
<course>354.7</course>
<desc>Speed 4.4 km/h Distance 1.40 km</desc>
<time>2010-02-27T10:18:58.21</time>
<name>1049</name>
</trkpt>
<trkpt lat="48.938435" lon="8.651358">
<ele>334.0</ele>
<speed>5.2</speed>
<course>348.8</course>
<desc>Speed 5.2 km/h Distance 1.40 km</desc>
<time>2010-02-27T10:18:59.21</time>
<name>1050</name>
</trkpt>
<trkpt lat="48.938447" lon="8.651355">
<ele>335.0</ele>
<speed>4.2</speed>
<course>351.9</course>
<desc>Speed 4.2 km/h Distance 1.41 km</desc>
<time>2010-02-27T10:19:00.21</time>
<name>1051</name>
</trkpt>
<trkpt lat="48.938462" lon="8.651352">
<ele>336.0</ele>
<speed>4.2</speed>
<course>354.7</course>
<desc>Speed 4.2 km/h Distance 1.41 km</desc>
<time>2010-02-27T10:19:01.21</time>
<name>1052</name>
</trkpt>
<trkpt lat="48.938475" lon="8.651350">
<ele>337.5</ele>
<speed>2.7</speed>
<course>337.0</course>
<desc>Speed 2.7 km/h Distance 1.41 km</desc>
<time>2010-02-27T10:19:02.21</time>
<name>1053</name>
</trkpt>
<trkpt lat="48.938478" lon="8.651348">
<ele>338.0</ele>
<speed>0.1</speed>
<course>270.0</course>
<desc>Speed 0.1 km/h Distance 1.41 km</desc>
<time>2010-02-27T10:19:03.21</time>
<name>1054</name>
</trkpt>
<trkpt lat="48.938478" lon="8.651347">
<ele>338.5</ele>
<speed>0.6</speed>
<course>12.6</course>
<desc>Speed 0.6 km/h Distance 1.41 km</desc>
<time>2010-02-27T10:19:04.21</time>
<name>1055</name>
</trkpt>
<trkpt lat="48.938480" lon="8.651347">
<ele>339.0</ele>
<speed>0.2</speed>
<course>337.8</course>
<desc>Speed 0.2 km/h Distance 1.41 km</desc>
<time>2010-02-27T10:19:05.21</time>
<name>1056</name>
</trkpt>
<trkpt lat="48.938485" lon="8.651343">
<ele>339.0</ele>
<speed>1.3</speed>
<course>340.4</course>
<desc>Speed 1.3 km/h Distance 1.41 km</desc>
<time>2010-02-27T10:19:06.21</time>
<name>1057</name>
</trkpt>
<trkpt lat="48.938500" lon="8.651335">
<ele>337.5</ele>
<speed>6.1</speed>
<course>7.5</course>
<desc>Speed 6.1 km/h Distance 1.41 km</desc>
<time>2010-02-27T10:19:07.21</time>
<name>1058</name>
</trkpt>
<trkpt lat="48.938515" lon="8.651338">
<ele>340.0</ele>
<speed>4.6</speed>
<course>347.8</course>
<desc>Speed 4.6 km/h Distance 1.41 km</desc>
<time>2010-02-27T10:19:08.21</time>
<name>1059</name>
</trkpt>
<trkpt lat="48.938530" lon="8.651333">
<ele>340.0</ele>
<speed>5.5</speed>
<course>352.3</course>
<desc>Speed 5.5 km/h Distance 1.41 km</desc>
<time>2010-02-27T10:19:09.21</time>
<name>1060</name>
</trkpt>
<trkpt lat="48.938547" lon="8.651330">
<ele>340.0</ele>
<speed>5.3</speed>
<course>356.2</course>
<desc>Speed 5.3 km/h Distance 1.42 km</desc>
<time>2010-02-27T10:19:10.21</time>
<name>1061</name>
</trkpt>
<trkpt lat="48.938562" lon="8.651328">
<ele>340.5</ele>
<speed>5.7</speed>
<course>347.8</course>
<desc>Speed 5.7 km/h Distance 1.42 km</desc>
<time>2010-02-27T10:19:11.21</time>
<name>1062</name>
</trkpt>
<trkpt lat="48.938577" lon="8.651323">
<ele>340.5</ele>
<speed>5.5</speed>
<course>351.9</course>
<desc>Speed 5.5 km/h Distance 1.42 km</desc>
<time>2010-02-27T10:19:12.21</time>
<name>1063</name>
</trkpt>
<trkpt lat="48.938592" lon="8.651320">
<ele>340.5</ele>
<speed>5.6</speed>
<course>348.8</course>
<desc>Speed 5.6 km/h Distance 1.42 km</desc>
<time>2010-02-27T10:19:13.21</time>
<name>1064</name>
</trkpt>
<trkpt lat="48.938608" lon="8.651315">
<ele>340.0</ele>
<speed>5.8</speed>
<course>353.0</course>
<desc>Speed 5.8 km/h Distance 1.42 km</desc>
<time>2010-02-27T10:19:14.21</time>
<name>1065</name>
</trkpt>
<trkpt lat="48.938627" lon="8.651312">
<ele>340.5</ele>
<speed>5.7</speed>
<course>352.5</course>
<desc>Speed 5.7 km/h Distance 1.43 km</desc>
<time>2010-02-27T10:19:15.21</time>
<name>1066</name>
</trkpt>
<trkpt lat="48.938642" lon="8.651308">
<ele>341.0</ele>
<speed>5.5</speed>
<course>357.5</course>
<desc>Speed 5.5 km/h Distance 1.43 km</desc>
<time>2010-02-27T10:19:16.21</time>
<name>1067</name>
</trkpt>
<trkpt lat="48.938660" lon="8.651307">
<ele>341.0</ele>
<speed>5.5</speed>
<course>2.8</course>
<desc>Speed 5.5 km/h Distance 1.43 km</desc>
<time>2010-02-27T10:19:17.21</time>
<name>1068</name>
</trkpt>
<trkpt lat="48.938677" lon="8.651307">
<ele>341.5</ele>
<speed>5.5</speed>
<course>0.0</course>
<desc>Speed 5.5 km/h Distance 1.43 km</desc>
<time>2010-02-27T10:19:18.21</time>
<name>1069</name>
</trkpt>
<trkpt lat="48.938693" lon="8.651307">
<ele>342.0</ele>
<speed>5.3</speed>
<course>352.3</course>
<desc>Speed 5.3 km/h Distance 1.43 km</desc>
<time>2010-02-27T10:19:19.21</time>
<name>1070</name>
</trkpt>
<trkpt lat="48.938710" lon="8.651303">
<ele>342.5</ele>
<speed>5.6</speed>
<course>352.3</course>
<desc>Speed 5.6 km/h Distance 1.44 km</desc>
<time>2010-02-27T10:19:20.21</time>
<name>1071</name>
</trkpt>
<trkpt lat="48.938727" lon="8.651300">
<ele>343.5</ele>
<speed>5.5</speed>
<course>353.5</course>
<desc>Speed 5.5 km/h Distance 1.44 km</desc>
<time>2010-02-27T10:19:21.21</time>
<name>1072</name>
</trkpt>
<trkpt lat="48.938743" lon="8.651297">
<ele>343.5</ele>
<speed>5.4</speed>
<course>356.2</course>
<desc>Speed 5.4 km/h Distance 1.44 km</desc>
<time>2010-02-27T10:19:22.21</time>
<name>1073</name>
</trkpt>
<trkpt lat="48.938758" lon="8.651295">
<ele>344.0</ele>
<speed>5.7</speed>
<course>357.2</course>
<desc>Speed 5.7 km/h Distance 1.44 km</desc>
<time>2010-02-27T10:19:23.21</time>
<name>1074</name>
</trkpt>
<trkpt lat="48.938775" lon="8.651293">
<ele>344.5</ele>
<speed>5.5</speed>
<course>1.9</course>
<desc>Speed 5.5 km/h Distance 1.44 km</desc>
<time>2010-02-27T10:19:24.21</time>
<name>1075</name>
</trkpt>
<trkpt lat="48.938790" lon="8.651293">
<ele>344.5</ele>
<speed>5.8</speed>
<course>0.0</course>
<desc>Speed 5.8 km/h Distance 1.44 km</desc>
<time>2010-02-27T10:19:25.21</time>
<name>1076</name>
</trkpt>
<trkpt lat="48.938805" lon="8.651293">
<ele>344.5</ele>
<speed>5.7</speed>
<course>356.2</course>
<desc>Speed 5.7 km/h Distance 1.45 km</desc>
<time>2010-02-27T10:19:26.21</time>
<name>1077</name>
</trkpt>
<trkpt lat="48.938820" lon="8.651292">
<ele>345.0</ele>
<speed>5.4</speed>
<course>355.9</course>
<desc>Speed 5.4 km/h Distance 1.45 km</desc>
<time>2010-02-27T10:19:27.21</time>
<name>1078</name>
</trkpt>
<trkpt lat="48.938837" lon="8.651290">
<ele>345.5</ele>
<speed>5.4</speed>
<course>1.2</course>
<desc>Speed 5.4 km/h Distance 1.45 km</desc>
<time>2010-02-27T10:19:28.21</time>
<name>1079</name>
</trkpt>
<trkpt lat="48.938850" lon="8.651290">
<ele>345.5</ele>
<speed>5.5</speed>
<course>3.8</course>
<desc>Speed 5.5 km/h Distance 1.45 km</desc>
<time>2010-02-27T10:19:29.21</time>
<name>1080</name>
</trkpt>
<trkpt lat="48.938865" lon="8.651290">
<ele>345.5</ele>
<speed>5.6</speed>
<course>347.4</course>
<desc>Speed 5.6 km/h Distance 1.45 km</desc>
<time>2010-02-27T10:19:30.21</time>
<name>1081</name>
</trkpt>
<trkpt lat="48.938880" lon="8.651285">
<ele>346.0</ele>
<speed>5.6</speed>
<course>347.4</course>
<desc>Speed 5.6 km/h Distance 1.45 km</desc>
<time>2010-02-27T10:19:31.21</time>
<name>1082</name>
</trkpt>
<trkpt lat="48.938895" lon="8.651280">
<ele>346.0</ele>
<speed>5.7</speed>
<course>345.1</course>
<desc>Speed 5.7 km/h Distance 1.46 km</desc>
<time>2010-02-27T10:19:32.21</time>
<name>1083</name>
</trkpt>
<trkpt lat="48.938912" lon="8.651273">
<ele>346.5</ele>
<speed>5.8</speed>
<course>353.5</course>
<desc>Speed 5.8 km/h Distance 1.46 km</desc>
<time>2010-02-27T10:19:33.21</time>
<name>1084</name>
</trkpt>
<trkpt lat="48.938928" lon="8.651270">
<ele>347.0</ele>
<speed>5.8</speed>
<course>353.5</course>
<desc>Speed 5.8 km/h Distance 1.46 km</desc>
<time>2010-02-27T10:19:34.21</time>
<name>1085</name>
</trkpt>
<trkpt lat="48.938945" lon="8.651267">
<ele>347.5</ele>
<speed>5.7</speed>
<course>354.7</course>
<desc>Speed 5.7 km/h Distance 1.46 km</desc>
<time>2010-02-27T10:19:35.21</time>
<name>1086</name>
</trkpt>
<trkpt lat="48.938958" lon="8.651265">
<ele>347.5</ele>
<speed>5.4</speed>
<course>351.0</course>
<desc>Speed 5.4 km/h Distance 1.46 km</desc>
<time>2010-02-27T10:19:36.21</time>
<name>1087</name>
</trkpt>
<trkpt lat="48.938972" lon="8.651262">
<ele>348.0</ele>
<speed>4.7</speed>
<course>350.5</course>
<desc>Speed 4.7 km/h Distance 1.46 km</desc>
<time>2010-02-27T10:19:37.21</time>
<name>1088</name>
</trkpt>
<trkpt lat="48.938983" lon="8.651258">
<ele>348.0</ele>
<speed>4.7</speed>
<course>351.0</course>
<desc>Speed 4.7 km/h Distance 1.47 km</desc>
<time>2010-02-27T10:19:38.21</time>
<name>1089</name>
</trkpt>
<trkpt lat="48.938997" lon="8.651255">
<ele>348.0</ele>
<speed>5.1</speed>
<course>352.5</course>
<desc>Speed 5.1 km/h Distance 1.47 km</desc>
<time>2010-02-27T10:19:39.21</time>
<name>1090</name>
</trkpt>
<trkpt lat="48.939008" lon="8.651253">
<ele>348.5</ele>
<speed>4.4</speed>
<course>1.2</course>
<desc>Speed 4.4 km/h Distance 1.47 km</desc>
<time>2010-02-27T10:19:40.21</time>
<name>1091</name>
</trkpt>
<trkpt lat="48.939022" lon="8.651253">
<ele>348.5</ele>
<speed>4.5</speed>
<course>348.8</course>
<desc>Speed 4.5 km/h Distance 1.47 km</desc>
<time>2010-02-27T10:19:41.21</time>
<name>1092</name>
</trkpt>
<trkpt lat="48.939033" lon="8.651250">
<ele>348.5</ele>
<speed>4.6</speed>
<course>351.9</course>
<desc>Speed 4.6 km/h Distance 1.47 km</desc>
<time>2010-02-27T10:19:42.21</time>
<name>1093</name>
</trkpt>
<trkpt lat="48.939043" lon="8.651248">
<ele>348.5</ele>
<speed>4.0</speed>
<course>348.8</course>
<desc>Speed 4.0 km/h Distance 1.47 km</desc>
<time>2010-02-27T10:19:43.21</time>
<name>1094</name>
</trkpt>
<trkpt lat="48.939055" lon="8.651245">
<ele>348.5</ele>
<speed>4.1</speed>
<course>355.3</course>
<desc>Speed 4.1 km/h Distance 1.47 km</desc>
<time>2010-02-27T10:19:44.21</time>
<name>1095</name>
</trkpt>
<trkpt lat="48.939067" lon="8.651243">
<ele>348.5</ele>
<speed>4.4</speed>
<course>2.2</course>
<desc>Speed 4.4 km/h Distance 1.48 km</desc>
<time>2010-02-27T10:19:45.21</time>
<name>1096</name>
</trkpt>
<trkpt lat="48.939078" lon="8.651243">
<ele>348.5</ele>
<speed>4.2</speed>
<course>5.0</course>
<desc>Speed 4.2 km/h Distance 1.48 km</desc>
<time>2010-02-27T10:19:46.21</time>
<name>1097</name>
</trkpt>
<trkpt lat="48.939087" lon="8.651245">
<ele>349.0</ele>
<speed>3.9</speed>
<course>355.3</course>
<desc>Speed 3.9 km/h Distance 1.48 km</desc>
<time>2010-02-27T10:19:47.21</time>
<name>1098</name>
</trkpt>
<trkpt lat="48.939098" lon="8.651243">
<ele>349.0</ele>
<speed>4.7</speed>
<course>345.1</course>
<desc>Speed 4.7 km/h Distance 1.48 km</desc>
<time>2010-02-27T10:19:48.21</time>
<name>1099</name>
</trkpt>
<trkpt lat="48.939107" lon="8.651240">
<ele>349.0</ele>
<speed>3.1</speed>
<course>320.6</course>
<desc>Speed 3.1 km/h Distance 1.48 km</desc>
<time>2010-02-27T10:19:49.21</time>
<name>1100</name>
</trkpt>
<trkpt lat="48.939113" lon="8.651232">
<ele>349.0</ele>
<speed>3.5</speed>
<course>326.6</course>
<desc>Speed 3.5 km/h Distance 1.48 km</desc>
<time>2010-02-27T10:19:50.21</time>
<name>1101</name>
</trkpt>
<trkpt lat="48.939123" lon="8.651222">
<ele>349.5</ele>
<speed>4.1</speed>
<course>336.2</course>
<desc>Speed 4.1 km/h Distance 1.48 km</desc>
<time>2010-02-27T10:19:51.21</time>
<name>1102</name>
</trkpt>
<trkpt lat="48.939133" lon="8.651215">
<ele>349.5</ele>
<speed>4.4</speed>
<course>353.7</course>
<desc>Speed 4.4 km/h Distance 1.48 km</desc>
<time>2010-02-27T10:19:52.21</time>
<name>1103</name>
</trkpt>
<trkpt lat="48.939145" lon="8.651213">
<ele>349.5</ele>
<speed>4.6</speed>
<course>3.9</course>
<desc>Speed 4.6 km/h Distance 1.48 km</desc>
<time>2010-02-27T10:19:53.21</time>
<name>1104</name>
</trkpt>
<trkpt lat="48.939158" lon="8.651213">
<ele>349.5</ele>
<speed>4.8</speed>
<course>348.8</course>
<desc>Speed 4.8 km/h Distance 1.49 km</desc>
<time>2010-02-27T10:19:54.21</time>
<name>1105</name>
</trkpt>
<trkpt lat="48.939170" lon="8.651210">
<ele>349.5</ele>
<speed>5.1</speed>
<course>351.9</course>
<desc>Speed 5.1 km/h Distance 1.49 km</desc>
<time>2010-02-27T10:19:55.21</time>
<name>1106</name>
</trkpt>
<trkpt lat="48.939185" lon="8.651207">
<ele>349.5</ele>
<speed>5.4</speed>
<course>339.1</course>
<desc>Speed 5.4 km/h Distance 1.49 km</desc>
<time>2010-02-27T10:19:56.21</time>
<name>1107</name>
</trkpt>
<trkpt lat="48.939197" lon="8.651200">
<ele>349.5</ele>
<speed>5.1</speed>
<course>9.0</course>
<desc>Speed 5.1 km/h Distance 1.49 km</desc>
<time>2010-02-27T10:19:57.21</time>
<name>1108</name>
</trkpt>
<trkpt lat="48.939210" lon="8.651203">
<ele>349.0</ele>
<speed>5.5</speed>
<course>18.1</course>
<desc>Speed 5.5 km/h Distance 1.49 km</desc>
<time>2010-02-27T10:19:58.21</time>
<name>1109</name>
</trkpt>
<trkpt lat="48.939223" lon="8.651210">
<ele>349.0</ele>
<speed>5.6</speed>
<course>0.0</course>
<desc>Speed 5.6 km/h Distance 1.49 km</desc>
<time>2010-02-27T10:19:59.21</time>
<name>1110</name>
</trkpt>
<trkpt lat="48.939238" lon="8.651210">
<ele>349.0</ele>
<speed>5.4</speed>
<course>1.2</course>
<desc>Speed 5.4 km/h Distance 1.50 km</desc>
<time>2010-02-27T10:20:00.21</time>
<name>1111</name>
</trkpt>
<trkpt lat="48.939252" lon="8.651210">
<ele>349.0</ele>
<speed>5.5</speed>
<course>3.8</course>
<desc>Speed 5.5 km/h Distance 1.50 km</desc>
<time>2010-02-27T10:20:01.21</time>
<name>1112</name>
</trkpt>
<trkpt lat="48.939267" lon="8.651210">
<ele>349.0</ele>
<speed>5.7</speed>
<course>3.8</course>
<desc>Speed 5.7 km/h Distance 1.50 km</desc>
<time>2010-02-27T10:20:02.21</time>
<name>1113</name>
</trkpt>
<trkpt lat="48.939282" lon="8.651212">
<ele>349.0</ele>
<speed>5.7</speed>
<course>5.3</course>
<desc>Speed 5.7 km/h Distance 1.50 km</desc>
<time>2010-02-27T10:20:03.21</time>
<name>1114</name>
</trkpt>
<trkpt lat="48.939295" lon="8.651213">
<ele>349.0</ele>
<speed>5.5</speed>
<course>7.7</course>
<desc>Speed 5.5 km/h Distance 1.50 km</desc>
<time>2010-02-27T10:20:04.21</time>
<name>1115</name>
</trkpt>
<trkpt lat="48.939312" lon="8.651217">
<ele>349.0</ele>
<speed>6.0</speed>
<course>7.5</course>
<desc>Speed 6.0 km/h Distance 1.50 km</desc>
<time>2010-02-27T10:20:05.21</time>
<name>1116</name>
</trkpt>
<trkpt lat="48.939327" lon="8.651220">
<ele>349.0</ele>
<speed>5.5</speed>
<course>1.2</course>
<desc>Speed 5.5 km/h Distance 1.51 km</desc>
<time>2010-02-27T10:20:06.21</time>
<name>1117</name>
</trkpt>
<trkpt lat="48.939340" lon="8.651222">
<ele>348.5</ele>
<speed>5.5</speed>
<course>7.5</course>
<desc>Speed 5.5 km/h Distance 1.51 km</desc>
<time>2010-02-27T10:20:07.21</time>
<name>1118</name>
</trkpt>
<trkpt lat="48.939355" lon="8.651225">
<ele>348.0</ele>
<speed>5.7</speed>
<course>9.0</course>
<desc>Speed 5.7 km/h Distance 1.51 km</desc>
<time>2010-02-27T10:20:08.21</time>
<name>1119</name>
</trkpt>
<trkpt lat="48.939368" lon="8.651228">
<ele>348.5</ele>
<speed>5.9</speed>
<course>10.4</course>
<desc>Speed 5.9 km/h Distance 1.51 km</desc>
<time>2010-02-27T10:20:09.21</time>
<name>1120</name>
</trkpt>
<trkpt lat="48.939385" lon="8.651233">
<ele>348.5</ele>
<speed>6.0</speed>
<course>1.2</course>
<desc>Speed 6.0 km/h Distance 1.51 km</desc>
<time>2010-02-27T10:20:10.21</time>
<name>1121</name>
</trkpt>
<trkpt lat="48.939398" lon="8.651235">
<ele>348.0</ele>
<speed>5.5</speed>
<course>27.9</course>
<desc>Speed 5.5 km/h Distance 1.51 km</desc>
<time>2010-02-27T10:20:11.21</time>
<name>1122</name>
</trkpt>
<trkpt lat="48.939407" lon="8.651242">
<ele>348.0</ele>
<speed>3.9</speed>
<course>27.9</course>
<desc>Speed 3.9 km/h Distance 1.51 km</desc>
<time>2010-02-27T10:20:12.21</time>
<name>1123</name>
</trkpt>
<trkpt lat="48.939407" lon="8.651242">
<ele>348.0</ele>
<speed>0.4</speed>
<course>27.9</course>
<desc>Speed 0.4 km/h Distance 1.51 km</desc>
<time>2010-02-27T10:20:13.21</time>
<name>1124</name>
</trkpt>
<trkpt lat="48.939407" lon="8.651242">
<ele>348.0</ele>
<speed>0.5</speed>
<course>27.9</course>
<desc>Speed 0.5 km/h Distance 1.51 km</desc>
<time>2010-02-27T10:20:14.21</time>
<name>1125</name>
</trkpt>
<trkpt lat="48.939407" lon="8.651242">
<ele>348.0</ele>
<speed>0.5</speed>
<course>29.2</course>
<desc>Speed 0.5 km/h Distance 1.51 km</desc>
<time>2010-02-27T10:20:15.21</time>
<name>1126</name>
</trkpt>
<trkpt lat="48.939408" lon="8.651243">
<ele>348.5</ele>
<speed>1.0</speed>
<course>69.5</course>
<desc>Speed 1.0 km/h Distance 1.51 km</desc>
<time>2010-02-27T10:20:16.21</time>
<name>1127</name>
</trkpt>
<trkpt lat="48.939410" lon="8.651250">
<ele>349.5</ele>
<speed>1.8</speed>
<course>33.2</course>
<desc>Speed 1.8 km/h Distance 1.51 km</desc>
<time>2010-02-27T10:20:17.21</time>
<name>1128</name>
</trkpt>
<trkpt lat="48.939418" lon="8.651258">
<ele>350.0</ele>
<speed>3.7</speed>
<course>15.5</course>
<desc>Speed 3.7 km/h Distance 1.52 km</desc>
<time>2010-02-27T10:20:18.21</time>
<name>1129</name>
</trkpt>
<trkpt lat="48.939430" lon="8.651263">
<ele>350.0</ele>
<speed>4.5</speed>
<course>9.0</course>
<desc>Speed 4.5 km/h Distance 1.52 km</desc>
<time>2010-02-27T10:20:19.21</time>
<name>1130</name>
</trkpt>
<trkpt lat="48.939443" lon="8.651267">
<ele>350.0</ele>
<speed>5.0</speed>
<course>0.0</course>
<desc>Speed 5.0 km/h Distance 1.52 km</desc>
<time>2010-02-27T10:20:20.21</time>
<name>1131</name>
</trkpt>
<trkpt lat="48.939453" lon="8.651267">
<ele>349.5</ele>
<speed>3.7</speed>
<course>12.6</course>
<desc>Speed 3.7 km/h Distance 1.52 km</desc>
<time>2010-02-27T10:20:21.21</time>
<name>1132</name>
</trkpt>
<trkpt lat="48.939463" lon="8.651270">
<ele>349.5</ele>
<speed>3.8</speed>
<course>33.7</course>
<desc>Speed 3.8 km/h Distance 1.52 km</desc>
<time>2010-02-27T10:20:22.21</time>
<name>1133</name>
</trkpt>
<trkpt lat="48.939470" lon="8.651277">
<ele>349.0</ele>
<speed>3.3</speed>
<course>29.4</course>
<desc>Speed 3.3 km/h Distance 1.52 km</desc>
<time>2010-02-27T10:20:23.21</time>
<name>1134</name>
</trkpt>
<trkpt lat="48.939482" lon="8.651287">
<ele>349.0</ele>
<speed>5.0</speed>
<course>26.0</course>
<desc>Speed 5.0 km/h Distance 1.52 km</desc>
<time>2010-02-27T10:20:24.21</time>
<name>1135</name>
</trkpt>
<trkpt lat="48.939495" lon="8.651297">
<ele>349.0</ele>
<speed>5.6</speed>
<course>7.5</course>
<desc>Speed 5.6 km/h Distance 1.53 km</desc>
<time>2010-02-27T10:20:25.21</time>
<name>1136</name>
</trkpt>
<trkpt lat="48.939510" lon="8.651300">
<ele>349.0</ele>
<speed>5.4</speed>
<course>2.8</course>
<desc>Speed 5.4 km/h Distance 1.53 km</desc>
<time>2010-02-27T10:20:26.21</time>
<name>1137</name>
</trkpt>
<trkpt lat="48.939527" lon="8.651302">
<ele>349.0</ele>
<speed>5.8</speed>
<course>8.1</course>
<desc>Speed 5.8 km/h Distance 1.53 km</desc>
<time>2010-02-27T10:20:27.21</time>
<name>1138</name>
</trkpt>
<trkpt lat="48.939542" lon="8.651305">
<ele>348.5</ele>
<speed>5.7</speed>
<course>13.5</course>
<desc>Speed 5.7 km/h Distance 1.53 km</desc>
<time>2010-02-27T10:20:28.21</time>
<name>1139</name>
</trkpt>
<trkpt lat="48.939555" lon="8.651310">
<ele>348.0</ele>
<speed>5.5</speed>
<course>16.6</course>
<desc>Speed 5.5 km/h Distance 1.53 km</desc>
<time>2010-02-27T10:20:29.21</time>
<name>1140</name>
</trkpt>
<trkpt lat="48.939570" lon="8.651317">
<ele>348.5</ele>
<speed>5.7</speed>
<course>18.1</course>
<desc>Speed 5.7 km/h Distance 1.53 km</desc>
<time>2010-02-27T10:20:30.21</time>
<name>1141</name>
</trkpt>
<trkpt lat="48.939583" lon="8.651323">
<ele>348.5</ele>
<speed>5.7</speed>
<course>16.3</course>
<desc>Speed 5.7 km/h Distance 1.54 km</desc>
<time>2010-02-27T10:20:31.21</time>
<name>1142</name>
</trkpt>
<trkpt lat="48.939598" lon="8.651330">
<ele>348.5</ele>
<speed>5.5</speed>
<course>18.1</course>
<desc>Speed 5.5 km/h Distance 1.54 km</desc>
<time>2010-02-27T10:20:32.21</time>
<name>1143</name>
</trkpt>
<trkpt lat="48.939612" lon="8.651337">
<ele>350.0</ele>
<speed>5.4</speed>
<course>14.0</course>
<desc>Speed 5.4 km/h Distance 1.54 km</desc>
<time>2010-02-27T10:20:33.21</time>
<name>1144</name>
</trkpt>
<trkpt lat="48.939625" lon="8.651342">
<ele>349.5</ele>
<speed>5.9</speed>
<course>9.0</course>
<desc>Speed 5.9 km/h Distance 1.54 km</desc>
<time>2010-02-27T10:20:34.21</time>
<name>1145</name>
</trkpt>
<trkpt lat="48.939638" lon="8.651345">
<ele>349.5</ele>
<speed>4.9</speed>
<course>28.6</course>
<desc>Speed 4.9 km/h Distance 1.54 km</desc>
<time>2010-02-27T10:20:35.21</time>
<name>1146</name>
</trkpt>
<trkpt lat="48.939648" lon="8.651353">
<ele>349.0</ele>
<speed>4.9</speed>
<course>18.2</course>
<desc>Speed 4.9 km/h Distance 1.54 km</desc>
<time>2010-02-27T10:20:36.21</time>
<name>1147</name>
</trkpt>
<trkpt lat="48.939658" lon="8.651358">
<ele>349.0</ele>
<speed>4.3</speed>
<course>8.1</course>
<desc>Speed 4.3 km/h Distance 1.54 km</desc>
<time>2010-02-27T10:20:37.21</time>
<name>1148</name>
</trkpt>
<trkpt lat="48.939663" lon="8.651358">
<ele>349.0</ele>
<speed>2.0</speed>
<course>21.5</course>
<desc>Speed 2.0 km/h Distance 1.54 km</desc>
<time>2010-02-27T10:20:38.21</time>
<name>1149</name>
</trkpt>
<trkpt lat="48.939672" lon="8.651363">
<ele>349.0</ele>
<speed>3.4</speed>
<course>20.9</course>
<desc>Speed 3.4 km/h Distance 1.55 km</desc>
<time>2010-02-27T10:20:39.21</time>
<name>1150</name>
</trkpt>
<trkpt lat="48.939683" lon="8.651370">
<ele>349.5</ele>
<speed>4.7</speed>
<course>28.6</course>
<desc>Speed 4.7 km/h Distance 1.55 km</desc>
<time>2010-02-27T10:20:40.21</time>
<name>1151</name>
</trkpt>
<trkpt lat="48.939693" lon="8.651378">
<ele>350.0</ele>
<speed>4.0</speed>
<course>18.2</course>
<desc>Speed 4.0 km/h Distance 1.55 km</desc>
<time>2010-02-27T10:20:41.21</time>
<name>1152</name>
</trkpt>
<trkpt lat="48.939703" lon="8.651383">
<ele>349.5</ele>
<speed>4.3</speed>
<course>9.0</course>
<desc>Speed 4.3 km/h Distance 1.55 km</desc>
<time>2010-02-27T10:20:42.21</time>
<name>1153</name>
</trkpt>
<trkpt lat="48.939717" lon="8.651387">
<ele>350.0</ele>
<speed>5.5</speed>
<course>18.8</course>
<desc>Speed 5.5 km/h Distance 1.55 km</desc>
<time>2010-02-27T10:20:43.21</time>
<name>1154</name>
</trkpt>
<trkpt lat="48.939727" lon="8.651392">
<ele>349.5</ele>
<speed>4.0</speed>
<course>14.9</course>
<desc>Speed 4.0 km/h Distance 1.55 km</desc>
<time>2010-02-27T10:20:44.21</time>
<name>1155</name>
</trkpt>
<trkpt lat="48.939735" lon="8.651395">
<ele>349.0</ele>
<speed>3.6</speed>
<course>355.3</course>
<desc>Speed 3.6 km/h Distance 1.55 km</desc>
<time>2010-02-27T10:20:45.21</time>
<name>1156</name>
</trkpt>
<trkpt lat="48.939747" lon="8.651393">
<ele>349.0</ele>
<speed>4.7</speed>
<course>11.6</course>
<desc>Speed 4.7 km/h Distance 1.55 km</desc>
<time>2010-02-27T10:20:46.21</time>
<name>1157</name>
</trkpt>
<trkpt lat="48.939757" lon="8.651397">
<ele>349.0</ele>
<speed>4.0</speed>
<course>18.2</course>
<desc>Speed 4.0 km/h Distance 1.56 km</desc>
<time>2010-02-27T10:20:47.21</time>
<name>1158</name>
</trkpt>
<trkpt lat="48.939767" lon="8.651402">
<ele>348.5</ele>
<speed>3.9</speed>
<course>6.6</course>
<desc>Speed 3.9 km/h Distance 1.56 km</desc>
<time>2010-02-27T10:20:48.21</time>
<name>1159</name>
</trkpt>
<trkpt lat="48.939777" lon="8.651403">
<ele>348.0</ele>
<speed>3.9</speed>
<course>14.9</course>
<desc>Speed 3.9 km/h Distance 1.56 km</desc>
<time>2010-02-27T10:20:49.21</time>
<name>1160</name>
</trkpt>
<trkpt lat="48.939785" lon="8.651407">
<ele>348.0</ele>
<speed>3.2</speed>
<course>12.6</course>
<desc>Speed 3.2 km/h Distance 1.56 km</desc>
<time>2010-02-27T10:20:50.21</time>
<name>1161</name>
</trkpt>
<trkpt lat="48.939790" lon="8.651408">
<ele>348.0</ele>
<speed>1.4</speed>
<course>12.6</course>
<desc>Speed 1.4 km/h Distance 1.56 km</desc>
<time>2010-02-27T10:20:51.21</time>
<name>1162</name>
</trkpt>
<trkpt lat="48.939792" lon="8.651408">
<ele>348.0</ele>
<speed>0.0</speed>
<course>322.8</course>
<desc>Speed 0.0 km/h Distance 1.56 km</desc>
<time>2010-02-27T10:20:52.21</time>
<name>1163</name>
</trkpt>
<trkpt lat="48.939793" lon="8.651407">
<ele>348.0</ele>
<speed>0.3</speed>
<course>33.2</course>
<desc>Speed 0.3 km/h Distance 1.56 km</desc>
<time>2010-02-27T10:20:53.21</time>
<name>1164</name>
</trkpt>
<trkpt lat="48.939802" lon="8.651415">
<ele>348.0</ele>
<speed>4.0</speed>
<course>46.5</course>
<desc>Speed 4.0 km/h Distance 1.56 km</desc>
<time>2010-02-27T10:20:54.21</time>
<name>1165</name>
</trkpt>
<trkpt lat="48.939810" lon="8.651428">
<ele>348.0</ele>
<speed>5.1</speed>
<course>29.4</course>
<desc>Speed 5.1 km/h Distance 1.56 km</desc>
<time>2010-02-27T10:20:55.21</time>
<name>1166</name>
</trkpt>
<trkpt lat="48.939822" lon="8.651438">
<ele>348.0</ele>
<speed>4.7</speed>
<course>9.0</course>
<desc>Speed 4.7 km/h Distance 1.56 km</desc>
<time>2010-02-27T10:20:56.21</time>
<name>1167</name>
</trkpt>
<trkpt lat="48.939835" lon="8.651442">
<ele>347.5</ele>
<speed>4.8</speed>
<course>11.2</course>
<desc>Speed 4.8 km/h Distance 1.57 km</desc>
<time>2010-02-27T10:20:57.21</time>
<name>1168</name>
</trkpt>
<trkpt lat="48.939847" lon="8.651445">
<ele>347.0</ele>
<speed>4.8</speed>
<course>18.8</course>
<desc>Speed 4.8 km/h Distance 1.57 km</desc>
<time>2010-02-27T10:20:58.21</time>
<name>1169</name>
</trkpt>
<trkpt lat="48.939860" lon="8.651452">
<ele>347.0</ele>
<speed>5.3</speed>
<course>13.5</course>
<desc>Speed 5.3 km/h Distance 1.57 km</desc>
<time>2010-02-27T10:20:59.21</time>
<name>1170</name>
</trkpt>
<trkpt lat="48.939873" lon="8.651457">
<ele>347.5</ele>
<speed>5.0</speed>
<course>5.3</course>
<desc>Speed 5.0 km/h Distance 1.57 km</desc>
<time>2010-02-27T10:21:00.21</time>
<name>1171</name>
</trkpt>
<trkpt lat="48.939887" lon="8.651458">
<ele>348.0</ele>
<speed>5.2</speed>
<course>356.1</course>
<desc>Speed 5.2 km/h Distance 1.57 km</desc>
<time>2010-02-27T10:21:01.21</time>
<name>1172</name>
</trkpt>
<trkpt lat="48.939900" lon="8.651457">
<ele>347.5</ele>
<speed>5.1</speed>
<course>1.2</course>
<desc>Speed 5.1 km/h Distance 1.57 km</desc>
<time>2010-02-27T10:21:02.21</time>
<name>1173</name>
</trkpt>
<trkpt lat="48.939913" lon="8.651457">
<ele>347.5</ele>
<speed>4.6</speed>
<course>0.0</course>
<desc>Speed 4.6 km/h Distance 1.57 km</desc>
<time>2010-02-27T10:21:03.21</time>
<name>1174</name>
</trkpt>
<trkpt lat="48.939925" lon="8.651457">
<ele>347.0</ele>
<speed>4.4</speed>
<course>347.4</course>
<desc>Speed 4.4 km/h Distance 1.58 km</desc>
<time>2010-02-27T10:21:04.21</time>
<name>1175</name>
</trkpt>
<trkpt lat="48.939935" lon="8.651453">
<ele>347.0</ele>
<speed>4.4</speed>
<course>349.6</course>
<desc>Speed 4.4 km/h Distance 1.58 km</desc>
<time>2010-02-27T10:21:05.21</time>
<name>1176</name>
</trkpt>
<trkpt lat="48.939947" lon="8.651450">
<ele>347.0</ele>
<speed>4.4</speed>
<course>336.6</course>
<desc>Speed 4.4 km/h Distance 1.58 km</desc>
<time>2010-02-27T10:21:06.21</time>
<name>1177</name>
</trkpt>
<trkpt lat="48.939957" lon="8.651443">
<ele>347.5</ele>
<speed>4.0</speed>
<course>357.2</course>
<desc>Speed 4.0 km/h Distance 1.58 km</desc>
<time>2010-02-27T10:21:07.21</time>
<name>1178</name>
</trkpt>
<trkpt lat="48.939973" lon="8.651442">
<ele>347.5</ele>
<speed>5.5</speed>
<course>355.0</course>
<desc>Speed 5.5 km/h Distance 1.58 km</desc>
<time>2010-02-27T10:21:08.21</time>
<name>1179</name>
</trkpt>
<trkpt lat="48.939988" lon="8.651440">
<ele>348.0</ele>
<speed>5.2</speed>
<course>5.3</course>
<desc>Speed 5.2 km/h Distance 1.58 km</desc>
<time>2010-02-27T10:21:09.21</time>
<name>1180</name>
</trkpt>
<trkpt lat="48.940002" lon="8.651440">
<ele>348.0</ele>
<speed>4.9</speed>
<course>354.7</course>
<desc>Speed 4.9 km/h Distance 1.58 km</desc>
<time>2010-02-27T10:21:10.21</time>
<name>1181</name>
</trkpt>
<trkpt lat="48.940015" lon="8.651438">
<ele>348.0</ele>
<speed>5.0</speed>
<course>356.2</course>
<desc>Speed 5.0 km/h Distance 1.59 km</desc>
<time>2010-02-27T10:21:11.21</time>
<name>1182</name>
</trkpt>
<trkpt lat="48.940030" lon="8.651437">
<ele>348.5</ele>
<speed>5.3</speed>
<course>356.1</course>
<desc>Speed 5.3 km/h Distance 1.59 km</desc>
<time>2010-02-27T10:21:12.21</time>
<name>1183</name>
</trkpt>
<trkpt lat="48.940043" lon="8.651435">
<ele>348.0</ele>
<speed>5.0</speed>
<course>0.0</course>
<desc>Speed 5.0 km/h Distance 1.59 km</desc>
<time>2010-02-27T10:21:13.21</time>
<name>1184</name>
</trkpt>
<trkpt lat="48.940060" lon="8.651435">
<ele>348.0</ele>
<speed>5.4</speed>
<course>352.5</course>
<desc>Speed 5.4 km/h Distance 1.59 km</desc>
<time>2010-02-27T10:21:14.21</time>
<name>1185</name>
</trkpt>
<trkpt lat="48.940075" lon="8.651432">
<ele>348.0</ele>
<speed>5.2</speed>
<course>358.1</course>
<desc>Speed 5.2 km/h Distance 1.59 km</desc>
<time>2010-02-27T10:21:15.21</time>
<name>1186</name>
</trkpt>
<trkpt lat="48.940090" lon="8.651430">
<ele>348.0</ele>
<speed>5.3</speed>
<course>358.8</course>
<desc>Speed 5.3 km/h Distance 1.59 km</desc>
<time>2010-02-27T10:21:16.21</time>
<name>1187</name>
</trkpt>
<trkpt lat="48.940103" lon="8.651428">
<ele>348.0</ele>
<speed>4.9</speed>
<course>1.2</course>
<desc>Speed 4.9 km/h Distance 1.60 km</desc>
<time>2010-02-27T10:21:17.21</time>
<name>1188</name>
</trkpt>
<trkpt lat="48.940117" lon="8.651428">
<ele>348.0</ele>
<speed>5.2</speed>
<course>354.7</course>
<desc>Speed 5.2 km/h Distance 1.60 km</desc>
<time>2010-02-27T10:21:18.21</time>
<name>1189</name>
</trkpt>
<trkpt lat="48.940130" lon="8.651427">
<ele>347.5</ele>
<speed>4.6</speed>
<course>354.7</course>
<desc>Speed 4.6 km/h Distance 1.60 km</desc>
<time>2010-02-27T10:21:19.21</time>
<name>1190</name>
</trkpt>
<trkpt lat="48.940143" lon="8.651425">
<ele>347.5</ele>
<speed>5.5</speed>
<course>345.6</course>
<desc>Speed 5.5 km/h Distance 1.60 km</desc>
<time>2010-02-27T10:21:20.21</time>
<name>1191</name>
</trkpt>
<trkpt lat="48.940157" lon="8.651420">
<ele>347.5</ele>
<speed>5.4</speed>
<course>351.0</course>
<desc>Speed 5.4 km/h Distance 1.60 km</desc>
<time>2010-02-27T10:21:21.21</time>
<name>1192</name>
</trkpt>
<trkpt lat="48.940170" lon="8.651417">
<ele>347.5</ele>
<speed>5.2</speed>
<course>351.0</course>
<desc>Speed 5.2 km/h Distance 1.60 km</desc>
<time>2010-02-27T10:21:22.21</time>
<name>1193</name>
</trkpt>
<trkpt lat="48.940183" lon="8.651413">
<ele>347.0</ele>
<speed>5.4</speed>
<course>354.7</course>
<desc>Speed 5.4 km/h Distance 1.60 km</desc>
<time>2010-02-27T10:21:23.21</time>
<name>1194</name>
</trkpt>
<trkpt lat="48.940197" lon="8.651412">
<ele>346.5</ele>
<speed>5.1</speed>
<course>354.7</course>
<desc>Speed 5.1 km/h Distance 1.61 km</desc>
<time>2010-02-27T10:21:24.21</time>
<name>1195</name>
</trkpt>
<trkpt lat="48.940210" lon="8.651410">
<ele>346.5</ele>
<speed>4.8</speed>
<course>355.3</course>
<desc>Speed 4.8 km/h Distance 1.61 km</desc>
<time>2010-02-27T10:21:25.21</time>
<name>1196</name>
</trkpt>
<trkpt lat="48.940222" lon="8.651408">
<ele>345.5</ele>
<speed>5.1</speed>
<course>0.0</course>
<desc>Speed 5.1 km/h Distance 1.61 km</desc>
<time>2010-02-27T10:21:26.21</time>
<name>1197</name>
</trkpt>
<trkpt lat="48.940235" lon="8.651408">
<ele>345.0</ele>
<speed>5.2</speed>
<course>351.0</course>
<desc>Speed 5.2 km/h Distance 1.61 km</desc>
<time>2010-02-27T10:21:27.21</time>
<name>1198</name>
</trkpt>
<trkpt lat="48.940248" lon="8.651405">
<ele>344.5</ele>
<speed>5.0</speed>
<course>356.1</course>
<desc>Speed 5.0 km/h Distance 1.61 km</desc>
<time>2010-02-27T10:21:28.21</time>
<name>1199</name>
</trkpt>
<trkpt lat="48.940262" lon="8.651403">
<ele>344.0</ele>
<speed>5.1</speed>
<course>350.3</course>
<desc>Speed 5.1 km/h Distance 1.61 km</desc>
<time>2010-02-27T10:21:29.21</time>
<name>1200</name>
</trkpt>
<trkpt lat="48.940275" lon="8.651400">
<ele>343.5</ele>
<speed>5.2</speed>
<course>351.0</course>
<desc>Speed 5.2 km/h Distance 1.61 km</desc>
<time>2010-02-27T10:21:30.21</time>
<name>1201</name>
</trkpt>
<trkpt lat="48.940288" lon="8.651397">
<ele>343.0</ele>
<speed>5.5</speed>
<course>7.5</course>
<desc>Speed 5.5 km/h Distance 1.62 km</desc>
<time>2010-02-27T10:21:31.21</time>
<name>1202</name>
</trkpt>
<trkpt lat="48.940303" lon="8.651400">
<ele>343.0</ele>
<speed>5.5</speed>
<course>18.1</course>
<desc>Speed 5.5 km/h Distance 1.62 km</desc>
<time>2010-02-27T10:21:32.21</time>
<name>1203</name>
</trkpt>
<trkpt lat="48.940317" lon="8.651407">
<ele>342.5</ele>
<speed>5.0</speed>
<course>356.1</course>
<desc>Speed 5.0 km/h Distance 1.62 km</desc>
<time>2010-02-27T10:21:33.21</time>
<name>1204</name>
</trkpt>
<trkpt lat="48.940330" lon="8.651405">
<ele>342.5</ele>
<speed>5.0</speed>
<course>347.4</course>
<desc>Speed 5.0 km/h Distance 1.62 km</desc>
<time>2010-02-27T10:21:34.21</time>
<name>1205</name>
</trkpt>
<trkpt lat="48.940345" lon="8.651400">
<ele>342.5</ele>
<speed>5.5</speed>
<course>351.9</course>
<desc>Speed 5.5 km/h Distance 1.62 km</desc>
<time>2010-02-27T10:21:35.21</time>
<name>1206</name>
</trkpt>
<trkpt lat="48.940360" lon="8.651397">
<ele>343.0</ele>
<speed>5.8</speed>
<course>347.8</course>
<desc>Speed 5.8 km/h Distance 1.62 km</desc>
<time>2010-02-27T10:21:36.21</time>
<name>1207</name>
</trkpt>
<trkpt lat="48.940375" lon="8.651392">
<ele>343.0</ele>
<speed>5.5</speed>
<course>0.0</course>
<desc>Speed 5.5 km/h Distance 1.63 km</desc>
<time>2010-02-27T10:21:37.21</time>
<name>1208</name>
</trkpt>
<trkpt lat="48.940388" lon="8.651392">
<ele>343.0</ele>
<speed>5.2</speed>
<course>29.2</course>
<desc>Speed 5.2 km/h Distance 1.63 km</desc>
<time>2010-02-27T10:21:38.21</time>
<name>1209</name>
</trkpt>
<trkpt lat="48.940400" lon="8.651402">
<ele>342.5</ele>
<speed>5.2</speed>
<course>33.2</course>
<desc>Speed 5.2 km/h Distance 1.63 km</desc>
<time>2010-02-27T10:21:39.21</time>
<name>1210</name>
</trkpt>
<trkpt lat="48.940410" lon="8.651412">
<ele>342.0</ele>
<speed>5.1</speed>
<course>22.1</course>
<desc>Speed 5.1 km/h Distance 1.63 km</desc>
<time>2010-02-27T10:21:40.21</time>
<name>1211</name>
</trkpt>
<trkpt lat="48.940423" lon="8.651420">
<ele>341.5</ele>
<speed>5.0</speed>
<course>13.5</course>
<desc>Speed 5.0 km/h Distance 1.63 km</desc>
<time>2010-02-27T10:21:41.21</time>
<name>1212</name>
</trkpt>
<trkpt lat="48.940437" lon="8.651425">
<ele>341.5</ele>
<speed>5.7</speed>
<course>1.9</course>
<desc>Speed 5.7 km/h Distance 1.63 km</desc>
<time>2010-02-27T10:21:42.21</time>
<name>1213</name>
</trkpt>
<trkpt lat="48.940452" lon="8.651425">
<ele>341.5</ele>
<speed>5.3</speed>
<course>347.8</course>
<desc>Speed 5.3 km/h Distance 1.64 km</desc>
<time>2010-02-27T10:21:43.21</time>
<name>1214</name>
</trkpt>
<trkpt lat="48.940467" lon="8.651420">
<ele>341.0</ele>
<speed>5.7</speed>
<course>356.2</course>
<desc>Speed 5.7 km/h Distance 1.64 km</desc>
<time>2010-02-27T10:21:44.21</time>
<name>1215</name>
</trkpt>
<trkpt lat="48.940482" lon="8.651418">
<ele>341.0</ele>
<speed>5.8</speed>
<course>352.5</course>
<desc>Speed 5.8 km/h Distance 1.64 km</desc>
<time>2010-02-27T10:21:45.21</time>
<name>1216</name>
</trkpt>
<trkpt lat="48.940497" lon="8.651415">
<ele>341.0</ele>
<speed>5.5</speed>
<course>347.8</course>
<desc>Speed 5.5 km/h Distance 1.64 km</desc>
<time>2010-02-27T10:21:46.21</time>
<name>1217</name>
</trkpt>
<trkpt lat="48.940512" lon="8.651410">
<ele>341.5</ele>
<speed>5.4</speed>
<course>334.0</course>
<desc>Speed 5.4 km/h Distance 1.64 km</desc>
<time>2010-02-27T10:21:47.21</time>
<name>1218</name>
</trkpt>
<trkpt lat="48.940525" lon="8.651400">
<ele>341.0</ele>
<speed>5.8</speed>
<course>333.8</course>
<desc>Speed 5.8 km/h Distance 1.64 km</desc>
<time>2010-02-27T10:21:48.21</time>
<name>1219</name>
</trkpt>
<trkpt lat="48.940538" lon="8.651390">
<ele>341.0</ele>
<speed>5.7</speed>
<course>333.8</course>
<desc>Speed 5.7 km/h Distance 1.65 km</desc>
<time>2010-02-27T10:21:49.21</time>
<name>1220</name>
</trkpt>
<trkpt lat="48.940552" lon="8.651380">
<ele>341.5</ele>
<speed>5.4</speed>
<course>330.6</course>
<desc>Speed 5.4 km/h Distance 1.65 km</desc>
<time>2010-02-27T10:21:50.21</time>
<name>1221</name>
</trkpt>
<trkpt lat="48.940563" lon="8.651370">
<ele>341.5</ele>
<speed>5.1</speed>
<course>330.6</course>
<desc>Speed 5.1 km/h Distance 1.65 km</desc>
<time>2010-02-27T10:21:51.21</time>
<name>1222</name>
</trkpt>
<trkpt lat="48.940575" lon="8.651360">
<ele>341.5</ele>
<speed>4.9</speed>
<course>318.8</course>
<desc>Speed 4.9 km/h Distance 1.65 km</desc>
<time>2010-02-27T10:21:52.21</time>
<name>1223</name>
</trkpt>
<trkpt lat="48.940585" lon="8.651347">
<ele>341.0</ele>
<speed>4.8</speed>
<course>304.1</course>
<desc>Speed 4.8 km/h Distance 1.65 km</desc>
<time>2010-02-27T10:21:53.21</time>
<name>1224</name>
</trkpt>
<trkpt lat="48.940592" lon="8.651332">
<ele>340.5</ele>
<speed>4.5</speed>
<course>285.5</course>
<desc>Speed 4.5 km/h Distance 1.65 km</desc>
<time>2010-02-27T10:21:54.21</time>
<name>1225</name>
</trkpt>
<trkpt lat="48.940595" lon="8.651313">
<ele>340.0</ele>
<speed>4.6</speed>
<course>299.0</course>
<desc>Speed 4.6 km/h Distance 1.65 km</desc>
<time>2010-02-27T10:21:55.21</time>
<name>1226</name>
</trkpt>
<trkpt lat="48.940602" lon="8.651295">
<ele>339.5</ele>
<speed>4.8</speed>
<course>307.3</course>
<desc>Speed 4.8 km/h Distance 1.66 km</desc>
<time>2010-02-27T10:21:56.21</time>
<name>1227</name>
</trkpt>
<trkpt lat="48.940610" lon="8.651278">
<ele>339.5</ele>
<speed>5.3</speed>
<course>330.6</course>
<desc>Speed 5.3 km/h Distance 1.66 km</desc>
<time>2010-02-27T10:21:57.21</time>
<name>1228</name>
</trkpt>
<trkpt lat="48.940622" lon="8.651268">
<ele>339.5</ele>
<speed>5.3</speed>
<course>326.7</course>
<desc>Speed 5.3 km/h Distance 1.66 km</desc>
<time>2010-02-27T10:21:58.21</time>
<name>1229</name>
</trkpt>
<trkpt lat="48.940633" lon="8.651257">
<ele>339.5</ele>
<speed>5.1</speed>
<course>326.9</course>
<desc>Speed 5.1 km/h Distance 1.66 km</desc>
<time>2010-02-27T10:21:59.21</time>
<name>1230</name>
</trkpt>
<trkpt lat="48.940645" lon="8.651245">
<ele>340.0</ele>
<speed>5.0</speed>
<course>339.1</course>
<desc>Speed 5.0 km/h Distance 1.66 km</desc>
<time>2010-02-27T10:22:00.21</time>
<name>1231</name>
</trkpt>
<trkpt lat="48.940657" lon="8.651238">
<ele>340.0</ele>
<speed>4.1</speed>
<course>341.9</course>
<desc>Speed 4.1 km/h Distance 1.66 km</desc>
<time>2010-02-27T10:22:01.21</time>
<name>1232</name>
</trkpt>
<trkpt lat="48.940670" lon="8.651232">
<ele>340.0</ele>
<speed>4.9</speed>
<course>336.3</course>
<desc>Speed 4.9 km/h Distance 1.66 km</desc>
<time>2010-02-27T10:22:02.21</time>
<name>1233</name>
</trkpt>
<trkpt lat="48.940685" lon="8.651222">
<ele>340.5</ele>
<speed>5.1</speed>
<course>337.7</course>
<desc>Speed 5.1 km/h Distance 1.67 km</desc>
<time>2010-02-27T10:22:03.21</time>
<name>1234</name>
</trkpt>
<trkpt lat="48.940698" lon="8.651213">
<ele>340.5</ele>
<speed>4.9</speed>
<course>330.2</course>
<desc>Speed 4.9 km/h Distance 1.67 km</desc>
<time>2010-02-27T10:22:04.21</time>
<name>1235</name>
</trkpt>
<trkpt lat="48.940712" lon="8.651202">
<ele>340.5</ele>
<speed>5.7</speed>
<course>330.8</course>
<desc>Speed 5.7 km/h Distance 1.67 km</desc>
<time>2010-02-27T10:22:05.21</time>
<name>1236</name>
</trkpt>
<trkpt lat="48.940723" lon="8.651192">
<ele>341.0</ele>
<speed>5.2</speed>
<course>334.0</course>
<desc>Speed 5.2 km/h Distance 1.67 km</desc>
<time>2010-02-27T10:22:06.21</time>
<name>1237</name>
</trkpt>
<trkpt lat="48.940737" lon="8.651182">
<ele>341.0</ele>
<speed>5.3</speed>
<course>330.6</course>
<desc>Speed 5.3 km/h Distance 1.67 km</desc>
<time>2010-02-27T10:22:07.21</time>
<name>1238</name>
</trkpt>
<trkpt lat="48.940748" lon="8.651172">
<ele>341.0</ele>
<speed>5.0</speed>
<course>334.0</course>
<desc>Speed 5.0 km/h Distance 1.67 km</desc>
<time>2010-02-27T10:22:08.21</time>
<name>1239</name>
</trkpt>
<trkpt lat="48.940762" lon="8.651162">
<ele>341.0</ele>
<speed>5.1</speed>
<course>318.8</course>
<desc>Speed 5.1 km/h Distance 1.68 km</desc>
<time>2010-02-27T10:22:09.21</time>
<name>1240</name>
</trkpt>
<trkpt lat="48.940772" lon="8.651148">
<ele>341.5</ele>
<speed>5.1</speed>
<course>323.2</course>
<desc>Speed 5.1 km/h Distance 1.68 km</desc>
<time>2010-02-27T10:22:10.21</time>
<name>1241</name>
</trkpt>
<trkpt lat="48.940783" lon="8.651135">
<ele>341.5</ele>
<speed>5.2</speed>
<course>323.1</course>
<desc>Speed 5.2 km/h Distance 1.68 km</desc>
<time>2010-02-27T10:22:11.21</time>
<name>1242</name>
</trkpt>
<trkpt lat="48.940795" lon="8.651122">
<ele>341.5</ele>
<speed>5.1</speed>
<course>326.6</course>
<desc>Speed 5.1 km/h Distance 1.68 km</desc>
<time>2010-02-27T10:22:12.21</time>
<name>1243</name>
</trkpt>
<trkpt lat="48.940807" lon="8.651110">
<ele>341.0</ele>
<speed>5.4</speed>
<course>334.8</course>
<desc>Speed 5.4 km/h Distance 1.68 km</desc>
<time>2010-02-27T10:22:13.21</time>
<name>1244</name>
</trkpt>
<trkpt lat="48.940818" lon="8.651102">
<ele>341.0</ele>
<speed>5.3</speed>
<course>337.9</course>
<desc>Speed 5.3 km/h Distance 1.68 km</desc>
<time>2010-02-27T10:22:14.21</time>
<name>1245</name>
</trkpt>
<trkpt lat="48.940832" lon="8.651093">
<ele>341.0</ele>
<speed>5.3</speed>
<course>326.6</course>
<desc>Speed 5.3 km/h Distance 1.69 km</desc>
<time>2010-02-27T10:22:15.21</time>
<name>1246</name>
</trkpt>
<trkpt lat="48.940843" lon="8.651082">
<ele>340.5</ele>
<speed>5.1</speed>
<course>326.6</course>
<desc>Speed 5.1 km/h Distance 1.69 km</desc>
<time>2010-02-27T10:22:16.21</time>
<name>1247</name>
</trkpt>
<trkpt lat="48.940855" lon="8.651070">
<ele>340.5</ele>
<speed>5.4</speed>
<course>326.7</course>
<desc>Speed 5.4 km/h Distance 1.69 km</desc>
<time>2010-02-27T10:22:17.21</time>
<name>1248</name>
</trkpt>
<trkpt lat="48.940867" lon="8.651058">
<ele>340.0</ele>
<speed>5.4</speed>
<course>330.6</course>
<desc>Speed 5.4 km/h Distance 1.69 km</desc>
<time>2010-02-27T10:22:18.21</time>
<name>1249</name>
</trkpt>
<trkpt lat="48.940878" lon="8.651048">
<ele>340.0</ele>
<speed>5.1</speed>
<course>330.8</course>
<desc>Speed 5.1 km/h Distance 1.69 km</desc>
<time>2010-02-27T10:22:19.21</time>
<name>1250</name>
</trkpt>
<trkpt lat="48.940890" lon="8.651038">
<ele>339.5</ele>
<speed>5.5</speed>
<course>333.8</course>
<desc>Speed 5.5 km/h Distance 1.69 km</desc>
<time>2010-02-27T10:22:20.21</time>
<name>1251</name>
</trkpt>
<trkpt lat="48.940903" lon="8.651028">
<ele>339.5</ele>
<speed>5.4</speed>
<course>323.1</course>
<desc>Speed 5.4 km/h Distance 1.69 km</desc>
<time>2010-02-27T10:22:21.21</time>
<name>1252</name>
</trkpt>
<trkpt lat="48.940915" lon="8.651015">
<ele>339.0</ele>
<speed>5.4</speed>
<course>318.8</course>
<desc>Speed 5.4 km/h Distance 1.70 km</desc>
<time>2010-02-27T10:22:22.21</time>
<name>1253</name>
</trkpt>
<trkpt lat="48.940925" lon="8.651002">
<ele>339.0</ele>
<speed>5.4</speed>
<course>334.0</course>
<desc>Speed 5.4 km/h Distance 1.70 km</desc>
<time>2010-02-27T10:22:23.21</time>
<name>1254</name>
</trkpt>
<trkpt lat="48.940938" lon="8.650992">
<ele>339.0</ele>
<speed>5.5</speed>
<course>318.7</course>
<desc>Speed 5.5 km/h Distance 1.70 km</desc>
<time>2010-02-27T10:22:24.21</time>
<name>1255</name>
</trkpt>
<trkpt lat="48.940948" lon="8.650978">
<ele>338.5</ele>
<speed>5.1</speed>
<course>310.1</course>
<desc>Speed 5.1 km/h Distance 1.70 km</desc>
<time>2010-02-27T10:22:25.21</time>
<name>1256</name>
</trkpt>
<trkpt lat="48.940957" lon="8.650963">
<ele>338.5</ele>
<speed>5.0</speed>
<course>309.7</course>
<desc>Speed 5.0 km/h Distance 1.70 km</desc>
<time>2010-02-27T10:22:26.21</time>
<name>1257</name>
</trkpt>
<trkpt lat="48.940967" lon="8.650945">
<ele>338.5</ele>
<speed>5.9</speed>
<course>318.8</course>
<desc>Speed 5.9 km/h Distance 1.70 km</desc>
<time>2010-02-27T10:22:27.21</time>
<name>1258</name>
</trkpt>
<trkpt lat="48.940977" lon="8.650932">
<ele>338.0</ele>
<speed>5.6</speed>
<course>330.2</course>
<desc>Speed 5.6 km/h Distance 1.71 km</desc>
<time>2010-02-27T10:22:28.21</time>
<name>1259</name>
</trkpt>
<trkpt lat="48.940990" lon="8.650920">
<ele>338.0</ele>
<speed>5.7</speed>
<course>326.6</course>
<desc>Speed 5.7 km/h Distance 1.71 km</desc>
<time>2010-02-27T10:22:29.21</time>
<name>1260</name>
</trkpt>
<trkpt lat="48.941002" lon="8.650908">
<ele>338.0</ele>
<speed>5.5</speed>
<course>319.8</course>
<desc>Speed 5.5 km/h Distance 1.71 km</desc>
<time>2010-02-27T10:22:30.21</time>
<name>1261</name>
</trkpt>
<trkpt lat="48.941013" lon="8.650893">
<ele>337.5</ele>
<speed>5.7</speed>
<course>318.8</course>
<desc>Speed 5.7 km/h Distance 1.71 km</desc>
<time>2010-02-27T10:22:31.21</time>
<name>1262</name>
</trkpt>
<trkpt lat="48.941023" lon="8.650880">
<ele>337.0</ele>
<speed>5.5</speed>
<course>337.9</course>
<desc>Speed 5.5 km/h Distance 1.71 km</desc>
<time>2010-02-27T10:22:32.21</time>
<name>1263</name>
</trkpt>
<trkpt lat="48.941037" lon="8.650872">
<ele>336.5</ele>
<speed>5.4</speed>
<course>341.9</course>
<desc>Speed 5.4 km/h Distance 1.71 km</desc>
<time>2010-02-27T10:22:33.21</time>
<name>1264</name>
</trkpt>
<trkpt lat="48.941050" lon="8.650865">
<ele>336.0</ele>
<speed>5.1</speed>
<course>356.1</course>
<desc>Speed 5.1 km/h Distance 1.72 km</desc>
<time>2010-02-27T10:22:34.21</time>
<name>1265</name>
</trkpt>
<trkpt lat="48.941063" lon="8.650863">
<ele>336.0</ele>
<speed>5.3</speed>
<course>344.5</course>
<desc>Speed 5.3 km/h Distance 1.72 km</desc>
<time>2010-02-27T10:22:35.21</time>
<name>1266</name>
</trkpt>
<trkpt lat="48.941075" lon="8.650858">
<ele>335.5</ele>
<speed>5.3</speed>
<course>341.6</course>
<desc>Speed 5.3 km/h Distance 1.72 km</desc>
<time>2010-02-27T10:22:36.21</time>
<name>1267</name>
</trkpt>
<trkpt lat="48.941088" lon="8.650852">
<ele>335.5</ele>
<speed>5.2</speed>
<course>337.4</course>
<desc>Speed 5.2 km/h Distance 1.72 km</desc>
<time>2010-02-27T10:22:37.21</time>
<name>1268</name>
</trkpt>
<trkpt lat="48.941102" lon="8.650843">
<ele>335.5</ele>
<speed>5.5</speed>
<course>355.0</course>
<desc>Speed 5.5 km/h Distance 1.72 km</desc>
<time>2010-02-27T10:22:38.21</time>
<name>1269</name>
</trkpt>
<trkpt lat="48.941117" lon="8.650842">
<ele>335.0</ele>
<speed>5.9</speed>
<course>346.5</course>
<desc>Speed 5.9 km/h Distance 1.72 km</desc>
<time>2010-02-27T10:22:39.21</time>
<name>1270</name>
</trkpt>
<trkpt lat="48.941130" lon="8.650837">
<ele>335.0</ele>
<speed>5.5</speed>
<course>344.0</course>
<desc>Speed 5.5 km/h Distance 1.72 km</desc>
<time>2010-02-27T10:22:40.21</time>
<name>1271</name>
</trkpt>
<trkpt lat="48.941145" lon="8.650830">
<ele>334.5</ele>
<speed>5.8</speed>
<course>326.8</course>
<desc>Speed 5.8 km/h Distance 1.73 km</desc>
<time>2010-02-27T10:22:41.21</time>
<name>1272</name>
</trkpt>
<trkpt lat="48.941155" lon="8.650820">
<ele>334.5</ele>
<speed>5.1</speed>
<course>347.4</course>
<desc>Speed 5.1 km/h Distance 1.73 km</desc>
<time>2010-02-27T10:22:42.21</time>
<name>1273</name>
</trkpt>
<trkpt lat="48.941170" lon="8.650815">
<ele>334.5</ele>
<speed>6.1</speed>
<course>346.5</course>
<desc>Speed 6.1 km/h Distance 1.73 km</desc>
<time>2010-02-27T10:22:43.21</time>
<name>1274</name>
</trkpt>
<trkpt lat="48.941183" lon="8.650810">
<ele>334.0</ele>
<speed>5.3</speed>
<course>341.9</course>
<desc>Speed 5.3 km/h Distance 1.73 km</desc>
<time>2010-02-27T10:22:44.21</time>
<name>1275</name>
</trkpt>
<trkpt lat="48.941197" lon="8.650803">
<ele>333.5</ele>
<speed>5.5</speed>
<course>333.8</course>
<desc>Speed 5.5 km/h Distance 1.73 km</desc>
<time>2010-02-27T10:22:45.21</time>
<name>1276</name>
</trkpt>
<trkpt lat="48.941210" lon="8.650793">
<ele>333.5</ele>
<speed>5.6</speed>
<course>335.1</course>
<desc>Speed 5.6 km/h Distance 1.73 km</desc>
<time>2010-02-27T10:22:46.21</time>
<name>1277</name>
</trkpt>
<trkpt lat="48.941222" lon="8.650785">
<ele>333.5</ele>
<speed>5.5</speed>
<course>334.0</course>
<desc>Speed 5.5 km/h Distance 1.74 km</desc>
<time>2010-02-27T10:22:47.21</time>
<name>1278</name>
</trkpt>
<trkpt lat="48.941235" lon="8.650775">
<ele>333.5</ele>
<speed>5.7</speed>
<course>334.0</course>
<desc>Speed 5.7 km/h Distance 1.74 km</desc>
<time>2010-02-27T10:22:48.21</time>
<name>1279</name>
</trkpt>
<trkpt lat="48.941248" lon="8.650765">
<ele>333.0</ele>
<speed>5.4</speed>
<course>330.6</course>
<desc>Speed 5.4 km/h Distance 1.74 km</desc>
<time>2010-02-27T10:22:49.21</time>
<name>1280</name>
</trkpt>
<trkpt lat="48.941260" lon="8.650755">
<ele>332.5</ele>
<speed>5.3</speed>
<course>335.1</course>
<desc>Speed 5.3 km/h Distance 1.74 km</desc>
<time>2010-02-27T10:22:50.21</time>
<name>1281</name>
</trkpt>
<trkpt lat="48.941272" lon="8.650747">
<ele>332.5</ele>
<speed>5.4</speed>
<course>326.8</course>
<desc>Speed 5.4 km/h Distance 1.74 km</desc>
<time>2010-02-27T10:22:51.21</time>
<name>1282</name>
</trkpt>
<trkpt lat="48.941282" lon="8.650737">
<ele>332.0</ele>
<speed>4.7</speed>
<course>334.0</course>
<desc>Speed 4.7 km/h Distance 1.74 km</desc>
<time>2010-02-27T10:22:52.21</time>
<name>1283</name>
</trkpt>
<trkpt lat="48.941295" lon="8.650727">
<ele>331.5</ele>
<speed>5.7</speed>
<course>337.9</course>
<desc>Speed 5.7 km/h Distance 1.74 km</desc>
<time>2010-02-27T10:22:53.21</time>
<name>1284</name>
</trkpt>
<trkpt lat="48.941308" lon="8.650718">
<ele>331.5</ele>
<speed>5.6</speed>
<course>335.4</course>
<desc>Speed 5.6 km/h Distance 1.75 km</desc>
<time>2010-02-27T10:22:54.21</time>
<name>1285</name>
</trkpt>
<trkpt lat="48.941320" lon="8.650710">
<ele>331.0</ele>
<speed>5.3</speed>
<course>339.8</course>
<desc>Speed 5.3 km/h Distance 1.75 km</desc>
<time>2010-02-27T10:22:55.21</time>
<name>1286</name>
</trkpt>
<trkpt lat="48.941332" lon="8.650703">
<ele>331.0</ele>
<speed>5.2</speed>
<course>333.8</course>
<desc>Speed 5.2 km/h Distance 1.75 km</desc>
<time>2010-02-27T10:22:56.21</time>
<name>1287</name>
</trkpt>
<trkpt lat="48.941345" lon="8.650693">
<ele>331.0</ele>
<speed>5.8</speed>
<course>347.8</course>
<desc>Speed 5.8 km/h Distance 1.75 km</desc>
<time>2010-02-27T10:22:57.21</time>
<name>1288</name>
</trkpt>
<trkpt lat="48.941360" lon="8.650688">
<ele>331.0</ele>
<speed>5.4</speed>
<course>346.5</course>
<desc>Speed 5.4 km/h Distance 1.75 km</desc>
<time>2010-02-27T10:22:58.21</time>
<name>1289</name>
</trkpt>
<trkpt lat="48.941373" lon="8.650683">
<ele>331.5</ele>
<speed>5.3</speed>
<course>354.7</course>
<desc>Speed 5.3 km/h Distance 1.75 km</desc>
<time>2010-02-27T10:22:59.21</time>
<name>1290</name>
</trkpt>
<trkpt lat="48.941387" lon="8.650682">
<ele>331.0</ele>
<speed>5.1</speed>
<course>341.2</course>
<desc>Speed 5.1 km/h Distance 1.76 km</desc>
<time>2010-02-27T10:23:00.21</time>
<name>1291</name>
</trkpt>
<trkpt lat="48.941400" lon="8.650675">
<ele>329.5</ele>
<speed>5.3</speed>
<course>1.2</course>
<desc>Speed 5.3 km/h Distance 1.76 km</desc>
<time>2010-02-27T10:23:01.21</time>
<name>1292</name>
</trkpt>
<trkpt lat="48.941413" lon="8.650675">
<ele>329.5</ele>
<speed>5.6</speed>
<course>3.9</course>
<desc>Speed 5.6 km/h Distance 1.76 km</desc>
<time>2010-02-27T10:23:02.21</time>
<name>1293</name>
</trkpt>
<trkpt lat="48.941427" lon="8.650677">
<ele>330.0</ele>
<speed>5.4</speed>
<course>16.0</course>
<desc>Speed 5.4 km/h Distance 1.76 km</desc>
<time>2010-02-27T10:23:03.21</time>
<name>1294</name>
</trkpt>
<trkpt lat="48.941438" lon="8.650682">
<ele>330.5</ele>
<speed>5.0</speed>
<course>9.0</course>
<desc>Speed 5.0 km/h Distance 1.76 km</desc>
<time>2010-02-27T10:23:04.21</time>
<name>1295</name>
</trkpt>
<trkpt lat="48.941452" lon="8.650685">
<ele>331.0</ele>
<speed>5.1</speed>
<course>18.2</course>
<desc>Speed 5.1 km/h Distance 1.76 km</desc>
<time>2010-02-27T10:23:05.21</time>
<name>1296</name>
</trkpt>
<trkpt lat="48.941462" lon="8.650690">
<ele>330.5</ele>
<speed>4.6</speed>
<course>16.0</course>
<desc>Speed 4.6 km/h Distance 1.76 km</desc>
<time>2010-02-27T10:23:06.21</time>
<name>1297</name>
</trkpt>
<trkpt lat="48.941473" lon="8.650695">
<ele>330.0</ele>
<speed>5.3</speed>
<course>18.1</course>
<desc>Speed 5.3 km/h Distance 1.77 km</desc>
<time>2010-02-27T10:23:07.21</time>
<name>1298</name>
</trkpt>
<trkpt lat="48.941487" lon="8.650702">
<ele>330.0</ele>
<speed>5.5</speed>
<course>33.4</course>
<desc>Speed 5.5 km/h Distance 1.77 km</desc>
<time>2010-02-27T10:23:08.21</time>
<name>1299</name>
</trkpt>
<trkpt lat="48.941497" lon="8.650712">
<ele>330.0</ele>
<speed>5.0</speed>
<course>29.4</course>
<desc>Speed 5.0 km/h Distance 1.77 km</desc>
<time>2010-02-27T10:23:09.21</time>
<name>1300</name>
</trkpt>
<trkpt lat="48.941508" lon="8.650722">
<ele>328.5</ele>
<speed>4.9</speed>
<course>16.6</course>
<desc>Speed 4.9 km/h Distance 1.77 km</desc>
<time>2010-02-27T10:23:10.21</time>
<name>1301</name>
</trkpt>
<trkpt lat="48.941523" lon="8.650728">
<ele>329.5</ele>
<speed>6.2</speed>
<course>13.5</course>
<desc>Speed 6.2 km/h Distance 1.77 km</desc>
<time>2010-02-27T10:23:11.21</time>
<name>1302</name>
</trkpt>
<trkpt lat="48.941537" lon="8.650733">
<ele>330.0</ele>
<speed>5.9</speed>
<course>22.1</course>
<desc>Speed 5.9 km/h Distance 1.77 km</desc>
<time>2010-02-27T10:23:12.21</time>
<name>1303</name>
</trkpt>
<trkpt lat="48.941550" lon="8.650742">
<ele>330.5</ele>
<speed>5.8</speed>
<course>12.2</course>
<desc>Speed 5.8 km/h Distance 1.77 km</desc>
<time>2010-02-27T10:23:13.21</time>
<name>1304</name>
</trkpt>
<trkpt lat="48.941565" lon="8.650747">
<ele>331.0</ele>
<speed>5.9</speed>
<course>39.4</course>
<desc>Speed 5.9 km/h Distance 1.78 km</desc>
<time>2010-02-27T10:23:14.21</time>
<name>1305</name>
</trkpt>
<trkpt lat="48.941572" lon="8.650755">
<ele>330.5</ele>
<speed>3.6</speed>
<course>14.9</course>
<desc>Speed 3.6 km/h Distance 1.78 km</desc>
<time>2010-02-27T10:23:15.21</time>
<name>1306</name>
</trkpt>
<trkpt lat="48.941580" lon="8.650758">
<ele>329.5</ele>
<speed>3.7</speed>
<course>11.2</course>
<desc>Speed 3.7 km/h Distance 1.78 km</desc>
<time>2010-02-27T10:23:16.21</time>
<name>1307</name>
</trkpt>
<trkpt lat="48.941592" lon="8.650762">
<ele>329.0</ele>
<speed>4.2</speed>
<course>353.4</course>
<desc>Speed 4.2 km/h Distance 1.78 km</desc>
<time>2010-02-27T10:23:17.21</time>
<name>1308</name>
</trkpt>
<trkpt lat="48.941612" lon="8.650758">
<ele>330.5</ele>
<speed>8.1</speed>
<course>353.4</course>
<desc>Speed 8.1 km/h Distance 1.78 km</desc>
<time>2010-02-27T10:23:18.21</time>
<name>1309</name>
</trkpt>
<trkpt lat="48.941622" lon="8.650757">
<ele>329.5</ele>
<speed>4.0</speed>
<course>341.8</course>
<desc>Speed 4.0 km/h Distance 1.78 km</desc>
<time>2010-02-27T10:23:19.21</time>
<name>1310</name>
</trkpt>
<trkpt lat="48.941632" lon="8.650752">
<ele>328.5</ele>
<speed>4.3</speed>
<course>343.0</course>
<desc>Speed 4.3 km/h Distance 1.78 km</desc>
<time>2010-02-27T10:23:20.21</time>
<name>1311</name>
</trkpt>
<trkpt lat="48.941642" lon="8.650747">
<ele>328.0</ele>
<speed>3.7</speed>
<course>346.5</course>
<desc>Speed 3.7 km/h Distance 1.79 km</desc>
<time>2010-02-27T10:23:21.21</time>
<name>1312</name>
</trkpt>
<trkpt lat="48.941655" lon="8.650742">
<ele>327.5</ele>
<speed>4.6</speed>
<course>331.4</course>
<desc>Speed 4.6 km/h Distance 1.79 km</desc>
<time>2010-02-27T10:23:22.21</time>
<name>1313</name>
</trkpt>
<trkpt lat="48.941665" lon="8.650733">
<ele>326.5</ele>
<speed>4.9</speed>
<course>330.6</course>
<desc>Speed 4.9 km/h Distance 1.79 km</desc>
<time>2010-02-27T10:23:23.21</time>
<name>1314</name>
</trkpt>
<trkpt lat="48.941677" lon="8.650723">
<ele>326.0</ele>
<speed>5.1</speed>
<course>334.8</course>
<desc>Speed 5.1 km/h Distance 1.79 km</desc>
<time>2010-02-27T10:23:24.21</time>
<name>1315</name>
</trkpt>
<trkpt lat="48.941688" lon="8.650715">
<ele>326.0</ele>
<speed>4.8</speed>
<course>341.9</course>
<desc>Speed 4.8 km/h Distance 1.79 km</desc>
<time>2010-02-27T10:23:25.21</time>
<name>1316</name>
</trkpt>
<trkpt lat="48.941702" lon="8.650708">
<ele>326.5</ele>
<speed>4.6</speed>
<course>346.5</course>
<desc>Speed 4.6 km/h Distance 1.79 km</desc>
<time>2010-02-27T10:23:26.21</time>
<name>1317</name>
</trkpt>
<trkpt lat="48.941715" lon="8.650703">
<ele>327.0</ele>
<speed>5.0</speed>
<course>336.5</course>
<desc>Speed 5.0 km/h Distance 1.79 km</desc>
<time>2010-02-27T10:23:27.21</time>
<name>1318</name>
</trkpt>
<trkpt lat="48.941730" lon="8.650693">
<ele>327.0</ele>
<speed>6.0</speed>
<course>341.9</course>
<desc>Speed 6.0 km/h Distance 1.80 km</desc>
<time>2010-02-27T10:23:28.21</time>
<name>1319</name>
</trkpt>
<trkpt lat="48.941743" lon="8.650687">
<ele>327.0</ele>
<speed>5.3</speed>
<course>337.4</course>
<desc>Speed 5.3 km/h Distance 1.80 km</desc>
<time>2010-02-27T10:23:29.21</time>
<name>1320</name>
</trkpt>
<trkpt lat="48.941757" lon="8.650678">
<ele>327.0</ele>
<speed>5.1</speed>
<course>341.9</course>
<desc>Speed 5.1 km/h Distance 1.80 km</desc>
<time>2010-02-27T10:23:30.21</time>
<name>1321</name>
</trkpt>
<trkpt lat="48.941770" lon="8.650672">
<ele>326.0</ele>
<speed>5.2</speed>
<course>4.4</course>
<desc>Speed 5.2 km/h Distance 1.80 km</desc>
<time>2010-02-27T10:23:31.21</time>
<name>1322</name>
</trkpt>
<trkpt lat="48.941780" lon="8.650672">
<ele>325.0</ele>
<speed>3.9</speed>
<course>350.4</course>
<desc>Speed 3.9 km/h Distance 1.80 km</desc>
<time>2010-02-27T10:23:32.21</time>
<name>1323</name>
</trkpt>
<trkpt lat="48.941788" lon="8.650670">
<ele>324.5</ele>
<speed>4.0</speed>
<course>5.0</course>
<desc>Speed 4.0 km/h Distance 1.80 km</desc>
<time>2010-02-27T10:23:33.21</time>
<name>1324</name>
</trkpt>
<trkpt lat="48.941797" lon="8.650670">
<ele>323.5</ele>
<speed>3.2</speed>
<course>4.4</course>
<desc>Speed 3.2 km/h Distance 1.80 km</desc>
<time>2010-02-27T10:23:34.21</time>
<name>1325</name>
</trkpt>
<trkpt lat="48.941807" lon="8.650670">
<ele>324.5</ele>
<speed>4.6</speed>
<course>18.2</course>
<desc>Speed 4.6 km/h Distance 1.80 km</desc>
<time>2010-02-27T10:23:35.21</time>
<name>1326</name>
</trkpt>
<trkpt lat="48.941817" lon="8.650675">
<ele>325.0</ele>
<speed>4.6</speed>
<course>21.5</course>
<desc>Speed 4.6 km/h Distance 1.81 km</desc>
<time>2010-02-27T10:23:36.21</time>
<name>1327</name>
</trkpt>
<trkpt lat="48.941833" lon="8.650685">
<ele>324.5</ele>
<speed>6.9</speed>
<course>5.0</course>
<desc>Speed 6.9 km/h Distance 1.81 km</desc>
<time>2010-02-27T10:23:37.21</time>
<name>1328</name>
</trkpt>
<trkpt lat="48.941848" lon="8.650687">
<ele>324.5</ele>
<speed>6.6</speed>
<course>9.6</course>
<desc>Speed 6.6 km/h Distance 1.81 km</desc>
<time>2010-02-27T10:23:38.21</time>
<name>1329</name>
</trkpt>
<trkpt lat="48.941857" lon="8.650688">
<ele>323.5</ele>
<speed>3.7</speed>
<course>5.3</course>
<desc>Speed 3.7 km/h Distance 1.81 km</desc>
<time>2010-02-27T10:23:39.21</time>
<name>1330</name>
</trkpt>
<trkpt lat="48.941870" lon="8.650690">
<ele>323.5</ele>
<speed>5.1</speed>
<course>21.5</course>
<desc>Speed 5.1 km/h Distance 1.81 km</desc>
<time>2010-02-27T10:23:40.21</time>
<name>1331</name>
</trkpt>
<trkpt lat="48.941878" lon="8.650695">
<ele>323.5</ele>
<speed>4.2</speed>
<course>25.6</course>
<desc>Speed 4.2 km/h Distance 1.81 km</desc>
<time>2010-02-27T10:23:41.21</time>
<name>1332</name>
</trkpt>
<trkpt lat="48.941885" lon="8.650700">
<ele>322.5</ele>
<speed>2.8</speed>
<course>21.5</course>
<desc>Speed 2.8 km/h Distance 1.81 km</desc>
<time>2010-02-27T10:23:42.21</time>
<name>1333</name>
</trkpt>
<trkpt lat="48.941893" lon="8.650705">
<ele>322.5</ele>
<speed>3.7</speed>
<course>20.6</course>
<desc>Speed 3.7 km/h Distance 1.81 km</desc>
<time>2010-02-27T10:23:43.21</time>
<name>1334</name>
</trkpt>
<trkpt lat="48.941905" lon="8.650712">
<ele>322.0</ele>
<speed>5.1</speed>
<course>28.6</course>
<desc>Speed 5.1 km/h Distance 1.82 km</desc>
<time>2010-02-27T10:23:44.21</time>
<name>1335</name>
</trkpt>
<trkpt lat="48.941915" lon="8.650720">
<ele>322.0</ele>
<speed>4.2</speed>
<course>18.1</course>
<desc>Speed 4.2 km/h Distance 1.82 km</desc>
<time>2010-02-27T10:23:45.21</time>
<name>1336</name>
</trkpt>
<trkpt lat="48.941928" lon="8.650727">
<ele>322.0</ele>
<speed>5.0</speed>
<course>12.6</course>
<desc>Speed 5.0 km/h Distance 1.82 km</desc>
<time>2010-02-27T10:23:46.21</time>
<name>1337</name>
</trkpt>
<trkpt lat="48.941938" lon="8.650730">
<ele>322.0</ele>
<speed>4.0</speed>
<course>10.4</course>
<desc>Speed 4.0 km/h Distance 1.82 km</desc>
<time>2010-02-27T10:23:47.21</time>
<name>1338</name>
</trkpt>
<trkpt lat="48.941950" lon="8.650733">
<ele>322.0</ele>
<speed>4.5</speed>
<course>20.2</course>
<desc>Speed 4.5 km/h Distance 1.82 km</desc>
<time>2010-02-27T10:23:48.21</time>
<name>1339</name>
</trkpt>
<trkpt lat="48.941962" lon="8.650740">
<ele>323.5</ele>
<speed>5.0</speed>
<course>18.4</course>
<desc>Speed 5.0 km/h Distance 1.82 km</desc>
<time>2010-02-27T10:23:49.21</time>
<name>1340</name>
</trkpt>
<trkpt lat="48.941975" lon="8.650747">
<ele>324.0</ele>
<speed>5.3</speed>
<course>23.4</course>
<desc>Speed 5.3 km/h Distance 1.82 km</desc>
<time>2010-02-27T10:23:50.21</time>
<name>1341</name>
</trkpt>
<trkpt lat="48.941985" lon="8.650753">
<ele>324.0</ele>
<speed>4.0</speed>
<course>26.2</course>
<desc>Speed 4.0 km/h Distance 1.83 km</desc>
<time>2010-02-27T10:23:51.21</time>
<name>1342</name>
</trkpt>
<trkpt lat="48.941998" lon="8.650763">
<ele>325.5</ele>
<speed>5.0</speed>
<course>20.9</course>
<desc>Speed 5.0 km/h Distance 1.83 km</desc>
<time>2010-02-27T10:23:52.21</time>
<name>1343</name>
</trkpt>
<trkpt lat="48.942010" lon="8.650770">
<ele>325.5</ele>
<speed>5.0</speed>
<course>20.9</course>
<desc>Speed 5.0 km/h Distance 1.83 km</desc>
<time>2010-02-27T10:23:53.21</time>
<name>1344</name>
</trkpt>
<trkpt lat="48.942022" lon="8.650777">
<ele>325.5</ele>
<speed>4.6</speed>
<course>18.1</course>
<desc>Speed 4.6 km/h Distance 1.83 km</desc>
<time>2010-02-27T10:23:54.21</time>
<name>1345</name>
</trkpt>
<trkpt lat="48.942035" lon="8.650783">
<ele>325.5</ele>
<speed>5.5</speed>
<course>12.2</course>
<desc>Speed 5.5 km/h Distance 1.83 km</desc>
<time>2010-02-27T10:23:55.21</time>
<name>1346</name>
</trkpt>
<trkpt lat="48.942050" lon="8.650788">
<ele>325.5</ele>
<speed>5.5</speed>
<course>16.3</course>
<desc>Speed 5.5 km/h Distance 1.83 km</desc>
<time>2010-02-27T10:23:56.21</time>
<name>1347</name>
</trkpt>
<trkpt lat="48.942065" lon="8.650795">
<ele>325.5</ele>
<speed>6.1</speed>
<course>18.1</course>
<desc>Speed 6.1 km/h Distance 1.83 km</desc>
<time>2010-02-27T10:23:57.21</time>
<name>1348</name>
</trkpt>
<trkpt lat="48.942078" lon="8.650802">
<ele>325.5</ele>
<speed>5.6</speed>
<course>25.2</course>
<desc>Speed 5.6 km/h Distance 1.84 km</desc>
<time>2010-02-27T10:23:58.21</time>
<name>1349</name>
</trkpt>
<trkpt lat="48.942090" lon="8.650810">
<ele>325.5</ele>
<speed>5.3</speed>
<course>33.3</course>
<desc>Speed 5.3 km/h Distance 1.84 km</desc>
<time>2010-02-27T10:23:59.21</time>
<name>1350</name>
</trkpt>
<trkpt lat="48.942108" lon="8.650828">
<ele>326.0</ele>
<speed>8.4</speed>
<course>347.4</course>
<desc>Speed 8.4 km/h Distance 1.84 km</desc>
<time>2010-02-27T10:24:00.21</time>
<name>1351</name>
</trkpt>
<trkpt lat="48.942118" lon="8.650825">
<ele>326.0</ele>
<speed>3.6</speed>
<course>16.0</course>
<desc>Speed 3.6 km/h Distance 1.84 km</desc>
<time>2010-02-27T10:24:01.21</time>
<name>1352</name>
</trkpt>
<trkpt lat="48.942130" lon="8.650830">
<ele>326.5</ele>
<speed>4.5</speed>
<course>3.8</course>
<desc>Speed 4.5 km/h Distance 1.84 km</desc>
<time>2010-02-27T10:24:02.21</time>
<name>1353</name>
</trkpt>
<trkpt lat="48.942145" lon="8.650832">
<ele>326.5</ele>
<speed>5.0</speed>
<course>10.4</course>
<desc>Speed 5.0 km/h Distance 1.84 km</desc>
<time>2010-02-27T10:24:03.21</time>
<name>1354</name>
</trkpt>
<trkpt lat="48.942162" lon="8.650837">
<ele>327.0</ele>
<speed>5.9</speed>
<course>28.3</course>
<desc>Speed 5.9 km/h Distance 1.85 km</desc>
<time>2010-02-27T10:24:04.21</time>
<name>1355</name>
</trkpt>
<trkpt lat="48.942172" lon="8.650845">
<ele>327.0</ele>
<speed>4.4</speed>
<course>7.1</course>
<desc>Speed 4.4 km/h Distance 1.85 km</desc>
<time>2010-02-27T10:24:05.21</time>
<name>1356</name>
</trkpt>
<trkpt lat="48.942188" lon="8.650848">
<ele>327.0</ele>
<speed>6.6</speed>
<course>2.2</course>
<desc>Speed 6.6 km/h Distance 1.85 km</desc>
<time>2010-02-27T10:24:06.21</time>
<name>1357</name>
</trkpt>
<trkpt lat="48.942200" lon="8.650848">
<ele>326.5</ele>
<speed>4.8</speed>
<course>3.9</course>
<desc>Speed 4.8 km/h Distance 1.85 km</desc>
<time>2010-02-27T10:24:07.21</time>
<name>1358</name>
</trkpt>
<trkpt lat="48.942213" lon="8.650850">
<ele>326.5</ele>
<speed>5.5</speed>
<course>5.3</course>
<desc>Speed 5.5 km/h Distance 1.85 km</desc>
<time>2010-02-27T10:24:08.21</time>
<name>1359</name>
</trkpt>
<trkpt lat="48.942227" lon="8.650852">
<ele>326.5</ele>
<speed>5.2</speed>
<course>6.3</course>
<desc>Speed 5.2 km/h Distance 1.85 km</desc>
<time>2010-02-27T10:24:09.21</time>
<name>1360</name>
</trkpt>
<trkpt lat="48.942238" lon="8.650853">
<ele>325.0</ele>
<speed>4.2</speed>
<course>344.0</course>
<desc>Speed 4.2 km/h Distance 1.86 km</desc>
<time>2010-02-27T10:24:10.21</time>
<name>1361</name>
</trkpt>
<trkpt lat="48.942250" lon="8.650848">
<ele>325.5</ele>
<speed>5.0</speed>
<course>346.5</course>
<desc>Speed 5.0 km/h Distance 1.86 km</desc>
<time>2010-02-27T10:24:11.21</time>
<name>1362</name>
</trkpt>
<trkpt lat="48.942263" lon="8.650843">
<ele>326.5</ele>
<speed>4.7</speed>
<course>307.2</course>
<desc>Speed 4.7 km/h Distance 1.86 km</desc>
<time>2010-02-27T10:24:12.21</time>
<name>1363</name>
</trkpt>
<trkpt lat="48.942268" lon="8.650833">
<ele>324.5</ele>
<speed>3.5</speed>
<course>336.2</course>
<desc>Speed 3.5 km/h Distance 1.86 km</desc>
<time>2010-02-27T10:24:13.21</time>
<name>1364</name>
</trkpt>
<trkpt lat="48.942278" lon="8.650827">
<ele>323.0</ele>
<speed>4.0</speed>
<course>284.2</course>
<desc>Speed 4.0 km/h Distance 1.86 km</desc>
<time>2010-02-27T10:24:14.21</time>
<name>1365</name>
</trkpt>
<trkpt lat="48.942282" lon="8.650807">
<ele>323.0</ele>
<speed>5.3</speed>
<course>299.0</course>
<desc>Speed 5.3 km/h Distance 1.86 km</desc>
<time>2010-02-27T10:24:15.21</time>
<name>1366</name>
</trkpt>
<trkpt lat="48.942288" lon="8.650788">
<ele>322.5</ele>
<speed>5.4</speed>
<course>339.4</course>
<desc>Speed 5.4 km/h Distance 1.86 km</desc>
<time>2010-02-27T10:24:16.21</time>
<name>1367</name>
</trkpt>
<trkpt lat="48.942300" lon="8.650782">
<ele>322.0</ele>
<speed>4.3</speed>
<course>350.3</course>
<desc>Speed 4.3 km/h Distance 1.86 km</desc>
<time>2010-02-27T10:24:17.21</time>
<name>1368</name>
</trkpt>
<trkpt lat="48.942313" lon="8.650778">
<ele>322.0</ele>
<speed>4.6</speed>
<course>326.2</course>
<desc>Speed 4.6 km/h Distance 1.87 km</desc>
<time>2010-02-27T10:24:18.21</time>
<name>1369</name>
</trkpt>
<trkpt lat="48.942322" lon="8.650770">
<ele>321.5</ele>
<speed>3.5</speed>
<course>313.5</course>
<desc>Speed 3.5 km/h Distance 1.87 km</desc>
<time>2010-02-27T10:24:19.21</time>
<name>1370</name>
</trkpt>
<trkpt lat="48.942330" lon="8.650757">
<ele>321.5</ele>
<speed>5.0</speed>
<course>289.4</course>
<desc>Speed 5.0 km/h Distance 1.87 km</desc>
<time>2010-02-27T10:24:20.21</time>
<name>1371</name>
</trkpt>
<trkpt lat="48.942335" lon="8.650735">
<ele>321.5</ele>
<speed>5.7</speed>
<course>343.0</course>
<desc>Speed 5.7 km/h Distance 1.87 km</desc>
<time>2010-02-27T10:24:21.21</time>
<name>1372</name>
</trkpt>
<trkpt lat="48.942357" lon="8.650725">
<ele>322.0</ele>
<speed>8.0</speed>
<course>318.6</course>
<desc>Speed 8.0 km/h Distance 1.87 km</desc>
<time>2010-02-27T10:24:22.21</time>
<name>1373</name>
</trkpt>
<trkpt lat="48.942367" lon="8.650712">
<ele>323.0</ele>
<speed>5.0</speed>
<course>282.3</course>
<desc>Speed 5.0 km/h Distance 1.87 km</desc>
<time>2010-02-27T10:24:23.21</time>
<name>1374</name>
</trkpt>
<trkpt lat="48.942370" lon="8.650688">
<ele>323.0</ele>
<speed>6.6</speed>
<course>300.4</course>
<desc>Speed 6.6 km/h Distance 1.88 km</desc>
<time>2010-02-27T10:24:24.22</time>
<name>1375</name>
</trkpt>
<trkpt lat="48.942378" lon="8.650667">
<ele>325.0</ele>
<speed>5.6</speed>
<course>307.3</course>
<desc>Speed 5.6 km/h Distance 1.88 km</desc>
<time>2010-02-27T10:24:25.21</time>
<name>1376</name>
</trkpt>
<trkpt lat="48.942385" lon="8.650653">
<ele>324.0</ele>
<speed>4.5</speed>
<course>307.3</course>
<desc>Speed 4.5 km/h Distance 1.88 km</desc>
<time>2010-02-27T10:24:26.21</time>
<name>1377</name>
</trkpt>
<trkpt lat="48.942393" lon="8.650637">
<ele>324.0</ele>
<speed>4.6</speed>
<course>322.5</course>
<desc>Speed 4.6 km/h Distance 1.88 km</desc>
<time>2010-02-27T10:24:27.21</time>
<name>1378</name>
</trkpt>
<trkpt lat="48.942403" lon="8.650625">
<ele>324.0</ele>
<speed>4.3</speed>
<course>358.2</course>
<desc>Speed 4.3 km/h Distance 1.88 km</desc>
<time>2010-02-27T10:24:28.21</time>
<name>1379</name>
</trkpt>
<trkpt lat="48.942435" lon="8.650623">
<ele>323.5</ele>
<speed>3.7</speed>
<course>310.1</course>
<desc>Speed 3.7 km/h Distance 1.89 km</desc>
<time>2010-02-27T10:24:30.21</time>
<name>1380</name>
</trkpt>
<trkpt lat="48.942443" lon="8.650608">
<ele>323.0</ele>
<speed>4.5</speed>
<course>44.6</course>
<desc>Speed 4.5 km/h Distance 1.89 km</desc>
<time>2010-02-27T10:24:31.21</time>
<name>1381</name>
</trkpt>
<trkpt lat="48.942463" lon="8.650638">
<ele>324.5</ele>
<speed>11.3</speed>
<course>345.8</course>
<desc>Speed 11.3 km/h Distance 1.89 km</desc>
<time>2010-02-27T10:24:32.21</time>
<name>1382</name>
</trkpt>
<trkpt lat="48.942507" lon="8.650622">
<ele>324.0</ele>
<speed>4.4</speed>
<course>295.1</course>
<desc>Speed 4.4 km/h Distance 1.90 km</desc>
<time>2010-02-27T10:24:34.21</time>
<name>1383</name>
</trkpt>
<trkpt lat="48.942513" lon="8.650600">
<ele>324.0</ele>
<speed>6.0</speed>
<course>302.4</course>
<desc>Speed 6.0 km/h Distance 1.90 km</desc>
<time>2010-02-27T10:24:35.21</time>
<name>1384</name>
</trkpt>
<trkpt lat="48.942522" lon="8.650580">
<ele>324.0</ele>
<speed>5.5</speed>
<course>285.1</course>
<desc>Speed 5.5 km/h Distance 1.90 km</desc>
<time>2010-02-27T10:24:36.21</time>
<name>1385</name>
</trkpt>
<trkpt lat="48.942527" lon="8.650552">
<ele>323.5</ele>
<speed>5.6</speed>
<course>280.2</course>
<desc>Speed 5.6 km/h Distance 1.90 km</desc>
<time>2010-02-27T10:24:37.21</time>
<name>1386</name>
</trkpt>
<trkpt lat="48.942530" lon="8.650523">
<ele>324.5</ele>
<speed>4.8</speed>
<course>302.4</course>
<desc>Speed 4.8 km/h Distance 1.90 km</desc>
<time>2010-02-27T10:24:38.21</time>
<name>1387</name>
</trkpt>
<trkpt lat="48.942538" lon="8.650503">
<ele>325.0</ele>
<speed>4.9</speed>
<course>282.3</course>
<desc>Speed 4.9 km/h Distance 1.90 km</desc>
<time>2010-02-27T10:24:39.21</time>
<name>1388</name>
</trkpt>
<trkpt lat="48.942542" lon="8.650480">
<ele>323.5</ele>
<speed>4.4</speed>
<course>288.7</course>
<desc>Speed 4.4 km/h Distance 1.91 km</desc>
<time>2010-02-27T10:24:40.21</time>
<name>1389</name>
</trkpt>
<trkpt lat="48.942545" lon="8.650465">
<ele>321.0</ele>
<speed>3.7</speed>
<course>320.3</course>
<desc>Speed 3.7 km/h Distance 1.91 km</desc>
<time>2010-02-27T10:24:41.21</time>
<name>1390</name>
</trkpt>
<trkpt lat="48.942552" lon="8.650457">
<ele>319.5</ele>
<speed>3.6</speed>
<course>323.4</course>
<desc>Speed 3.6 km/h Distance 1.91 km</desc>
<time>2010-02-27T10:24:42.21</time>
<name>1391</name>
</trkpt>
<trkpt lat="48.942565" lon="8.650442">
<ele>318.5</ele>
<speed>4.4</speed>
<course>304.7</course>
<desc>Speed 4.4 km/h Distance 1.91 km</desc>
<time>2010-02-27T10:24:43.21</time>
<name>1392</name>
</trkpt>
<trkpt lat="48.942573" lon="8.650423">
<ele>316.0</ele>
<speed>3.7</speed>
<course>283.2</course>
<desc>Speed 3.7 km/h Distance 1.91 km</desc>
<time>2010-02-27T10:24:44.21</time>
<name>1393</name>
</trkpt>
<trkpt lat="48.942577" lon="8.650402">
<ele>315.0</ele>
<speed>4.1</speed>
<course>322.5</course>
<desc>Speed 4.1 km/h Distance 1.91 km</desc>
<time>2010-02-27T10:24:45.21</time>
<name>1394</name>
</trkpt>
<trkpt lat="48.942587" lon="8.650390">
<ele>315.0</ele>
<speed>3.7</speed>
<course>332.3</course>
<desc>Speed 3.7 km/h Distance 1.91 km</desc>
<time>2010-02-27T10:24:46.21</time>
<name>1395</name>
</trkpt>
<trkpt lat="48.942603" lon="8.650377">
<ele>316.0</ele>
<speed>5.1</speed>
<course>326.7</course>
<desc>Speed 5.1 km/h Distance 1.92 km</desc>
<time>2010-02-27T10:24:47.21</time>
<name>1396</name>
</trkpt>
<trkpt lat="48.942622" lon="8.650358">
<ele>317.5</ele>
<speed>5.0</speed>
<course>298.5</course>
<desc>Speed 5.0 km/h Distance 1.92 km</desc>
<time>2010-02-27T10:24:48.21</time>
<name>1397</name>
</trkpt>
<trkpt lat="48.942630" lon="8.650335">
<ele>317.5</ele>
<speed>4.2</speed>
<course>304.7</course>
<desc>Speed 4.2 km/h Distance 1.92 km</desc>
<time>2010-02-27T10:24:49.21</time>
<name>1398</name>
</trkpt>
<trkpt lat="48.942638" lon="8.650317">
<ele>317.5</ele>
<speed>4.8</speed>
<course>265.6</course>
<desc>Speed 4.8 km/h Distance 1.92 km</desc>
<time>2010-02-27T10:24:50.21</time>
<name>1399</name>
</trkpt>
<trkpt lat="48.942637" lon="8.650283">
<ele>319.0</ele>
<speed>8.6</speed>
<course>336.5</course>
<desc>Speed 8.6 km/h Distance 1.93 km</desc>
<time>2010-02-27T10:24:51.21</time>
<name>1400</name>
</trkpt>
<trkpt lat="48.942652" lon="8.650273">
<ele>319.5</ele>
<speed>5.3</speed>
<course>337.7</course>
<desc>Speed 5.3 km/h Distance 1.93 km</desc>
<time>2010-02-27T10:24:52.21</time>
<name>1401</name>
</trkpt>
<trkpt lat="48.942665" lon="8.650265">
<ele>320.0</ele>
<speed>4.5</speed>
<course>320.6</course>
<desc>Speed 4.5 km/h Distance 1.93 km</desc>
<time>2010-02-27T10:24:53.21</time>
<name>1402</name>
</trkpt>
<trkpt lat="48.942678" lon="8.650248">
<ele>321.0</ele>
<speed>4.9</speed>
<course>326.8</course>
<desc>Speed 4.9 km/h Distance 1.93 km</desc>
<time>2010-02-27T10:24:54.21</time>
<name>1403</name>
</trkpt>
<trkpt lat="48.942688" lon="8.650238">
<ele>320.5</ele>
<speed>4.5</speed>
<course>317.4</course>
<desc>Speed 4.5 km/h Distance 1.93 km</desc>
<time>2010-02-27T10:24:55.21</time>
<name>1404</name>
</trkpt>
<trkpt lat="48.942697" lon="8.650227">
<ele>320.5</ele>
<speed>4.5</speed>
<course>341.9</course>
<desc>Speed 4.5 km/h Distance 1.93 km</desc>
<time>2010-02-27T10:24:56.21</time>
<name>1405</name>
</trkpt>
<trkpt lat="48.942710" lon="8.650220">
<ele>319.5</ele>
<speed>4.4</speed>
<course>313.6</course>
<desc>Speed 4.4 km/h Distance 1.93 km</desc>
<time>2010-02-27T10:24:57.21</time>
<name>1406</name>
</trkpt>
<trkpt lat="48.942718" lon="8.650207">
<ele>320.0</ele>
<speed>4.0</speed>
<course>344.5</course>
<desc>Speed 4.0 km/h Distance 1.94 km</desc>
<time>2010-02-27T10:24:58.21</time>
<name>1407</name>
</trkpt>
<trkpt lat="48.942730" lon="8.650202">
<ele>319.5</ele>
<speed>4.9</speed>
<course>307.0</course>
<desc>Speed 4.9 km/h Distance 1.94 km</desc>
<time>2010-02-27T10:24:59.21</time>
<name>1408</name>
</trkpt>
<trkpt lat="48.942737" lon="8.650188">
<ele>319.5</ele>
<speed>4.0</speed>
<course>322.3</course>
<desc>Speed 4.0 km/h Distance 1.94 km</desc>
<time>2010-02-27T10:25:00.21</time>
<name>1409</name>
</trkpt>
<trkpt lat="48.942747" lon="8.650177">
<ele>319.0</ele>
<speed>4.4</speed>
<course>275.8</course>
<desc>Speed 4.4 km/h Distance 1.94 km</desc>
<time>2010-02-27T10:25:01.21</time>
<name>1410</name>
</trkpt>
<trkpt lat="48.942748" lon="8.650152">
<ele>319.5</ele>
<speed>5.8</speed>
<course>330.4</course>
<desc>Speed 5.8 km/h Distance 1.94 km</desc>
<time>2010-02-27T10:25:02.21</time>
<name>1411</name>
</trkpt>
<trkpt lat="48.942760" lon="8.650142">
<ele>319.5</ele>
<speed>4.9</speed>
<course>334.8</course>
<desc>Speed 4.9 km/h Distance 1.94 km</desc>
<time>2010-02-27T10:25:03.21</time>
<name>1412</name>
</trkpt>
<trkpt lat="48.942772" lon="8.650133">
<ele>320.0</ele>
<speed>4.8</speed>
<course>326.7</course>
<desc>Speed 4.8 km/h Distance 1.95 km</desc>
<time>2010-02-27T10:25:04.21</time>
<name>1413</name>
</trkpt>
<trkpt lat="48.942783" lon="8.650122">
<ele>320.5</ele>
<speed>3.7</speed>
<course>341.9</course>
<desc>Speed 3.7 km/h Distance 1.95 km</desc>
<time>2010-02-27T10:25:05.21</time>
<name>1414</name>
</trkpt>
<trkpt lat="48.942800" lon="8.650113">
<ele>320.0</ele>
<speed>5.4</speed>
<course>354.7</course>
<desc>Speed 5.4 km/h Distance 1.95 km</desc>
<time>2010-02-27T10:25:06.21</time>
<name>1415</name>
</trkpt>
<trkpt lat="48.942813" lon="8.650112">
<ele>320.5</ele>
<speed>4.8</speed>
<course>354.7</course>
<desc>Speed 4.8 km/h Distance 1.95 km</desc>
<time>2010-02-27T10:25:07.21</time>
<name>1416</name>
</trkpt>
<trkpt lat="48.942827" lon="8.650110">
<ele>321.0</ele>
<speed>5.2</speed>
<course>351.9</course>
<desc>Speed 5.2 km/h Distance 1.95 km</desc>
<time>2010-02-27T10:25:08.21</time>
<name>1417</name>
</trkpt>
<trkpt lat="48.942850" lon="8.650105">
<ele>322.5</ele>
<speed>5.4</speed>
<course>6.6</course>
<desc>Speed 5.4 km/h Distance 1.95 km</desc>
<time>2010-02-27T10:25:09.21</time>
<name>1418</name>
</trkpt>
<trkpt lat="48.942870" lon="8.650108">
<ele>323.0</ele>
<speed>6.1</speed>
<course>276.7</course>
<desc>Speed 6.1 km/h Distance 1.96 km</desc>
<time>2010-02-27T10:25:10.21</time>
<name>1419</name>
</trkpt>
<trkpt lat="48.942872" lon="8.650087">
<ele>323.0</ele>
<speed>6.0</speed>
<course>326.6</course>
<desc>Speed 6.0 km/h Distance 1.96 km</desc>
<time>2010-02-27T10:25:11.21</time>
<name>1420</name>
</trkpt>
<trkpt lat="48.942883" lon="8.650075">
<ele>323.5</ele>
<speed>4.2</speed>
<course>317.4</course>
<desc>Speed 4.2 km/h Distance 1.96 km</desc>
<time>2010-02-27T10:25:12.21</time>
<name>1421</name>
</trkpt>
<trkpt lat="48.942892" lon="8.650063">
<ele>323.5</ele>
<speed>4.2</speed>
<course>322.5</course>
<desc>Speed 4.2 km/h Distance 1.96 km</desc>
<time>2010-02-27T10:25:13.21</time>
<name>1422</name>
</trkpt>
<trkpt lat="48.942902" lon="8.650052">
<ele>324.5</ele>
<speed>4.3</speed>
<course>351.0</course>
<desc>Speed 4.3 km/h Distance 1.96 km</desc>
<time>2010-02-27T10:25:14.21</time>
<name>1423</name>
</trkpt>
<trkpt lat="48.942915" lon="8.650048">
<ele>324.5</ele>
<speed>4.9</speed>
<course>10.2</course>
<desc>Speed 4.9 km/h Distance 1.96 km</desc>
<time>2010-02-27T10:25:15.21</time>
<name>1424</name>
</trkpt>
<trkpt lat="48.942933" lon="8.650053">
<ele>322.5</ele>
<speed>4.7</speed>
<course>326.8</course>
<desc>Speed 4.7 km/h Distance 1.97 km</desc>
<time>2010-02-27T10:25:16.21</time>
<name>1425</name>
</trkpt>
<trkpt lat="48.942942" lon="8.650045">
<ele>321.0</ele>
<speed>3.7</speed>
<course>338.5</course>
<desc>Speed 3.7 km/h Distance 1.97 km</desc>
<time>2010-02-27T10:25:17.21</time>
<name>1426</name>
</trkpt>
<trkpt lat="48.942950" lon="8.650040">
<ele>320.0</ele>
<speed>3.1</speed>
<course>352.5</course>
<desc>Speed 3.1 km/h Distance 1.97 km</desc>
<time>2010-02-27T10:25:18.21</time>
<name>1427</name>
</trkpt>
<trkpt lat="48.942965" lon="8.650037">
<ele>319.5</ele>
<speed>4.8</speed>
<course>349.6</course>
<desc>Speed 4.8 km/h Distance 1.97 km</desc>
<time>2010-02-27T10:25:19.21</time>
<name>1428</name>
</trkpt>
<trkpt lat="48.942982" lon="8.650032">
<ele>320.0</ele>
<speed>4.9</speed>
<course>341.8</course>
<desc>Speed 4.9 km/h Distance 1.97 km</desc>
<time>2010-02-27T10:25:20.21</time>
<name>1429</name>
</trkpt>
<trkpt lat="48.942992" lon="8.650027">
<ele>320.0</ele>
<speed>3.8</speed>
<course>344.0</course>
<desc>Speed 3.8 km/h Distance 1.97 km</desc>
<time>2010-02-27T10:25:21.23</time>
<name>1430</name>
</trkpt>
<trkpt lat="48.943003" lon="8.650022">
<ele>320.0</ele>
<speed>2.2</speed>
<course>5.0</course>
<desc>Speed 2.2 km/h Distance 1.97 km</desc>
<time>2010-02-27T10:25:22.23</time>
<name>1431</name>
</trkpt>
<trkpt lat="48.943012" lon="8.650022">
<ele>319.5</ele>
<speed>2.6</speed>
<course>317.4</course>
<desc>Speed 2.6 km/h Distance 1.97 km</desc>
<time>2010-02-27T10:25:23.23</time>
<name>1432</name>
</trkpt>
<trkpt lat="48.943020" lon="8.650010">
<ele>320.0</ele>
<speed>3.7</speed>
<course>349.0</course>
<desc>Speed 3.7 km/h Distance 1.98 km</desc>
<time>2010-02-27T10:25:24.36</time>
<name>1433</name>
</trkpt>
<trkpt lat="48.943122" lon="8.649980">
<ele>325.5</ele>
<speed>0.1</speed>
<course>350.3</course>
<desc>Speed 0.1 km/h Distance 1.98 km</desc>
<time>2010-02-27T10:25:25.69</time>
<name>1434</name>
</trkpt>
<trkpt lat="48.943160" lon="8.649970">
<ele>326.0</ele>
<speed>4.1</speed>
<course>294.5</course>
<desc>Speed 4.1 km/h Distance 1.98 km</desc>
<time>2010-02-27T10:25:27.91</time>
<name>1435</name>
</trkpt>
<trkpt lat="48.943165" lon="8.649953">
<ele>326.5</ele>
<speed>3.5</speed>
<course>319.1</course>
<desc>Speed 3.5 km/h Distance 1.98 km</desc>
<time>2010-02-27T10:25:28.91</time>
<name>1436</name>
</trkpt>
<trkpt lat="48.943170" lon="8.649947">
<ele>326.5</ele>
<speed>2.2</speed>
<course>290.9</course>
<desc>Speed 2.2 km/h Distance 1.98 km</desc>
<time>2010-02-27T10:25:30.06</time>
<name>1437</name>
</trkpt>
<trkpt lat="48.943173" lon="8.649933">
<ele>327.0</ele>
<speed>2.4</speed>
<course>326.3</course>
<desc>Speed 2.4 km/h Distance 1.98 km</desc>
<time>2010-02-27T10:25:30.93</time>
<name>1438</name>
</trkpt>
<trkpt lat="48.943180" lon="8.649927">
<ele>328.0</ele>
<speed>2.1</speed>
<course>344.0</course>
<desc>Speed 2.1 km/h Distance 1.98 km</desc>
<time>2010-02-27T10:25:32.05</time>
<name>1439</name>
</trkpt>
<trkpt lat="48.943192" lon="8.649922">
<ele>328.5</ele>
<speed>1.8</speed>
<course>313.5</course>
<desc>Speed 1.8 km/h Distance 1.99 km</desc>
<time>2010-02-27T10:25:32.91</time>
<name>1440</name>
</trkpt>
<trkpt lat="48.943200" lon="8.649908">
<ele>329.5</ele>
<speed>3.0</speed>
<course>296.9</course>
<desc>Speed 3.0 km/h Distance 1.99 km</desc>
<time>2010-02-27T10:25:33.91</time>
<name>1441</name>
</trkpt>
<trkpt lat="48.943205" lon="8.649893">
<ele>329.5</ele>
<speed>3.2</speed>
<course>285.5</course>
<desc>Speed 3.2 km/h Distance 1.99 km</desc>
<time>2010-02-27T10:25:34.91</time>
<name>1442</name>
</trkpt>
<trkpt lat="48.943208" lon="8.649875">
<ele>329.5</ele>
<speed>3.3</speed>
<course>304.7</course>
<desc>Speed 3.3 km/h Distance 1.99 km</desc>
<time>2010-02-27T10:25:35.90</time>
<name>1443</name>
</trkpt>
<trkpt lat="48.943217" lon="8.649857">
<ele>329.0</ele>
<speed>2.9</speed>
<course>277.2</course>
<desc>Speed 2.9 km/h Distance 1.99 km</desc>
<time>2010-02-27T10:25:36.90</time>
<name>1444</name>
</trkpt>
<trkpt lat="48.943218" lon="8.649837">
<ele>327.0</ele>
<speed>3.1</speed>
<course>312.2</course>
<desc>Speed 3.1 km/h Distance 1.99 km</desc>
<time>2010-02-27T10:25:37.90</time>
<name>1445</name>
</trkpt>
<trkpt lat="48.943223" lon="8.649828">
<ele>327.0</ele>
<speed>1.9</speed>
<course>319.1</course>
<desc>Speed 1.9 km/h Distance 1.99 km</desc>
<time>2010-02-27T10:25:38.90</time>
<name>1446</name>
</trkpt>
<trkpt lat="48.943228" lon="8.649822">
<ele>329.5</ele>
<speed>1.4</speed>
<course>287.0</course>
<desc>Speed 1.4 km/h Distance 1.99 km</desc>
<time>2010-02-27T10:25:39.94</time>
<name>1447</name>
</trkpt>
<trkpt lat="48.943232" lon="8.649805">
<ele>328.0</ele>
<speed>3.5</speed>
<course>270.0</course>
<desc>Speed 3.5 km/h Distance 2.00 km</desc>
<time>2010-02-27T10:25:40.90</time>
<name>1448</name>
</trkpt>
<trkpt lat="48.943232" lon="8.649782">
<ele>328.0</ele>
<speed>4.1</speed>
<course>346.0</course>
<desc>Speed 4.1 km/h Distance 2.00 km</desc>
<time>2010-02-27T10:25:41.90</time>
<name>1449</name>
</trkpt>
<trkpt lat="48.943253" lon="8.649773">
<ele>328.0</ele>
<speed>8.7</speed>
<course>287.0</course>
<desc>Speed 8.7 km/h Distance 2.00 km</desc>
<time>2010-02-27T10:25:42.90</time>
<name>1450</name>
</trkpt>
<trkpt lat="48.943257" lon="8.649757">
<ele>328.0</ele>
<speed>4.0</speed>
<course>302.4</course>
<desc>Speed 4.0 km/h Distance 2.00 km</desc>
<time>2010-02-27T10:25:43.90</time>
<name>1451</name>
</trkpt>
<trkpt lat="48.943265" lon="8.649737">
<ele>328.0</ele>
<speed>5.3</speed>
<course>282.3</course>
<desc>Speed 5.3 km/h Distance 2.00 km</desc>
<time>2010-02-27T10:25:44.90</time>
<name>1452</name>
</trkpt>
<trkpt lat="48.943268" lon="8.649713">
<ele>328.0</ele>
<speed>5.7</speed>
<course>270.0</course>
<desc>Speed 5.7 km/h Distance 2.00 km</desc>
<time>2010-02-27T10:25:45.89</time>
<name>1453</name>
</trkpt>
<trkpt lat="48.943268" lon="8.649695">
<ele>328.0</ele>
<speed>3.9</speed>
<course>276.7</course>
<desc>Speed 3.9 km/h Distance 2.01 km</desc>
<time>2010-02-27T10:25:46.90</time>
<name>1454</name>
</trkpt>
<trkpt lat="48.943270" lon="8.649673">
<ele>326.5</ele>
<speed>3.7</speed>
<course>275.4</course>
<desc>Speed 3.7 km/h Distance 2.01 km</desc>
<time>2010-02-27T10:25:47.89</time>
<name>1455</name>
</trkpt>
<trkpt lat="48.943272" lon="8.649647">
<ele>326.5</ele>
<speed>4.8</speed>
<course>284.2</course>
<desc>Speed 4.8 km/h Distance 2.01 km</desc>
<time>2010-02-27T10:25:48.90</time>
<name>1456</name>
</trkpt>
<trkpt lat="48.943275" lon="8.649627">
<ele>326.0</ele>
<speed>4.4</speed>
<course>254.1</course>
<desc>Speed 4.4 km/h Distance 2.01 km</desc>
<time>2010-02-27T10:25:49.89</time>
<name>1457</name>
</trkpt>
<trkpt lat="48.943270" lon="8.649600">
<ele>326.0</ele>
<speed>6.7</speed>
<course>270.0</course>
<desc>Speed 6.7 km/h Distance 2.01 km</desc>
<time>2010-02-27T10:25:50.89</time>
<name>1458</name>
</trkpt>
<trkpt lat="48.943270" lon="8.649580">
<ele>326.5</ele>
<speed>3.3</speed>
<course>270.0</course>
<desc>Speed 3.3 km/h Distance 2.01 km</desc>
<time>2010-02-27T10:25:51.89</time>
<name>1459</name>
</trkpt>
<trkpt lat="48.943270" lon="8.649563">
<ele>326.5</ele>
<speed>3.0</speed>
<course>12.6</course>
<desc>Speed 3.0 km/h Distance 2.02 km</desc>
<time>2010-02-27T10:25:53.02</time>
<name>1460</name>
</trkpt>
<trkpt lat="48.943285" lon="8.649568">
<ele>327.0</ele>
<speed>7.5</speed>
<course>237.9</course>
<desc>Speed 7.5 km/h Distance 2.02 km</desc>
<time>2010-02-27T10:25:53.89</time>
<name>1461</name>
</trkpt>
<trkpt lat="48.943273" lon="8.649540">
<ele>325.5</ele>
<speed>8.2</speed>
<course>265.2</course>
<desc>Speed 8.2 km/h Distance 2.02 km</desc>
<time>2010-02-27T10:25:54.89</time>
<name>1462</name>
</trkpt>
<trkpt lat="48.943272" lon="8.649510">
<ele>325.5</ele>
<speed>4.0</speed>
<course>277.9</course>
<desc>Speed 4.0 km/h Distance 2.02 km</desc>
<time>2010-02-27T10:25:55.89</time>
<name>1463</name>
</trkpt>
<trkpt lat="48.943273" lon="8.649492">
<ele>325.0</ele>
<speed>3.6</speed>
<course>270.0</course>
<desc>Speed 3.6 km/h Distance 2.02 km</desc>
<time>2010-02-27T10:25:56.89</time>
<name>1464</name>
</trkpt>
<trkpt lat="48.943273" lon="8.649472">
<ele>325.0</ele>
<speed>3.5</speed>
<course>270.0</course>
<desc>Speed 3.5 km/h Distance 2.02 km</desc>
<time>2010-02-27T10:25:57.89</time>
<name>1465</name>
</trkpt>
<trkpt lat="48.943273" lon="8.649447">
<ele>324.0</ele>
<speed>3.9</speed>
<course>288.7</course>
<desc>Speed 3.9 km/h Distance 2.03 km</desc>
<time>2010-02-27T10:25:58.89</time>
<name>1466</name>
</trkpt>
<trkpt lat="48.943277" lon="8.649432">
<ele>324.5</ele>
<speed>4.2</speed>
<course>286.9</course>
<desc>Speed 4.2 km/h Distance 2.03 km</desc>
<time>2010-02-27T10:25:59.89</time>
<name>1467</name>
</trkpt>
<trkpt lat="48.943280" lon="8.649415">
<ele>324.0</ele>
<speed>4.1</speed>
<course>283.2</course>
<desc>Speed 4.1 km/h Distance 2.03 km</desc>
<time>2010-02-27T10:26:00.88</time>
<name>1468</name>
</trkpt>
<trkpt lat="48.943283" lon="8.649393">
<ele>324.0</ele>
<speed>4.9</speed>
<course>293.5</course>
<desc>Speed 4.9 km/h Distance 2.03 km</desc>
<time>2010-02-27T10:26:01.88</time>
<name>1469</name>
</trkpt>
<trkpt lat="48.943287" lon="8.649382">
<ele>323.5</ele>
<speed>3.1</speed>
<course>270.0</course>
<desc>Speed 3.1 km/h Distance 2.03 km</desc>
<time>2010-02-27T10:26:02.88</time>
<name>1470</name>
</trkpt>
<trkpt lat="48.943287" lon="8.649365">
<ele>322.5</ele>
<speed>3.8</speed>
<course>270.0</course>
<desc>Speed 3.8 km/h Distance 2.03 km</desc>
<time>2010-02-27T10:26:03.88</time>
<name>1471</name>
</trkpt>
<trkpt lat="48.943287" lon="8.649345">
<ele>322.0</ele>
<speed>5.0</speed>
<course>258.8</course>
<desc>Speed 5.0 km/h Distance 2.03 km</desc>
<time>2010-02-27T10:26:04.88</time>
<name>1472</name>
</trkpt>
<trkpt lat="48.943282" lon="8.649307">
<ele>322.0</ele>
<speed>4.2</speed>
<course>280.7</course>
<desc>Speed 4.2 km/h Distance 2.04 km</desc>
<time>2010-02-27T10:26:05.88</time>
<name>1473</name>
</trkpt>
<trkpt lat="48.943283" lon="8.649293">
<ele>321.0</ele>
<speed>3.6</speed>
<course>255.2</course>
<desc>Speed 3.6 km/h Distance 2.04 km</desc>
<time>2010-02-27T10:26:06.88</time>
<name>1474</name>
</trkpt>
<trkpt lat="48.943277" lon="8.649255">
<ele>321.0</ele>
<speed>10.6</speed>
<course>276.7</course>
<desc>Speed 10.6 km/h Distance 2.04 km</desc>
<time>2010-02-27T10:26:07.88</time>
<name>1475</name>
</trkpt>
<trkpt lat="48.943278" lon="8.649233">
<ele>320.5</ele>
<speed>5.3</speed>
<course>276.7</course>
<desc>Speed 5.3 km/h Distance 2.04 km</desc>
<time>2010-02-27T10:26:08.88</time>
<name>1476</name>
</trkpt>
<trkpt lat="48.943280" lon="8.649212">
<ele>319.5</ele>
<speed>5.0</speed>
<course>289.4</course>
<desc>Speed 5.0 km/h Distance 2.04 km</desc>
<time>2010-02-27T10:26:09.88</time>
<name>1477</name>
</trkpt>
<trkpt lat="48.943285" lon="8.649190">
<ele>319.0</ele>
<speed>4.8</speed>
<course>305.0</course>
<desc>Speed 4.8 km/h Distance 2.05 km</desc>
<time>2010-02-27T10:26:10.88</time>
<name>1478</name>
</trkpt>
<trkpt lat="48.943295" lon="8.649168">
<ele>319.0</ele>
<speed>4.6</speed>
<course>288.1</course>
<desc>Speed 4.6 km/h Distance 2.05 km</desc>
<time>2010-02-27T10:26:11.88</time>
<name>1479</name>
</trkpt>
<trkpt lat="48.943300" lon="8.649145">
<ele>318.5</ele>
<speed>4.9</speed>
<course>299.0</course>
<desc>Speed 4.9 km/h Distance 2.05 km</desc>
<time>2010-02-27T10:26:12.88</time>
<name>1480</name>
</trkpt>
<trkpt lat="48.943307" lon="8.649127">
<ele>318.0</ele>
<speed>4.8</speed>
<course>270.0</course>
<desc>Speed 4.8 km/h Distance 2.05 km</desc>
<time>2010-02-27T10:26:13.87</time>
<name>1481</name>
</trkpt>
<trkpt lat="48.943307" lon="8.649108">
<ele>318.0</ele>
<speed>4.8</speed>
<course>302.4</course>
<desc>Speed 4.8 km/h Distance 2.05 km</desc>
<time>2010-02-27T10:26:14.87</time>
<name>1482</name>
</trkpt>
<trkpt lat="48.943315" lon="8.649088">
<ele>318.5</ele>
<speed>4.0</speed>
<course>270.0</course>
<desc>Speed 4.0 km/h Distance 2.05 km</desc>
<time>2010-02-27T10:26:15.87</time>
<name>1483</name>
</trkpt>
<trkpt lat="48.943315" lon="8.649067">
<ele>317.0</ele>
<speed>5.1</speed>
<course>289.4</course>
<desc>Speed 5.1 km/h Distance 2.06 km</desc>
<time>2010-02-27T10:26:16.88</time>
<name>1484</name>
</trkpt>
<trkpt lat="48.943320" lon="8.649045">
<ele>316.5</ele>
<speed>4.9</speed>
<course>301.3</course>
<desc>Speed 4.9 km/h Distance 2.06 km</desc>
<time>2010-02-27T10:26:17.87</time>
<name>1485</name>
</trkpt>
<trkpt lat="48.943327" lon="8.649028">
<ele>316.0</ele>
<speed>4.3</speed>
<course>270.0</course>
<desc>Speed 4.3 km/h Distance 2.06 km</desc>
<time>2010-02-27T10:26:18.86</time>
<name>1486</name>
</trkpt>
<trkpt lat="48.943327" lon="8.649012">
<ele>315.0</ele>
<speed>4.6</speed>
<course>296.9</course>
<desc>Speed 4.6 km/h Distance 2.06 km</desc>
<time>2010-02-27T10:26:19.87</time>
<name>1487</name>
</trkpt>
<trkpt lat="48.943333" lon="8.648992">
<ele>317.0</ele>
<speed>5.2</speed>
<course>285.5</course>
<desc>Speed 5.2 km/h Distance 2.06 km</desc>
<time>2010-02-27T10:26:20.87</time>
<name>1488</name>
</trkpt>
<trkpt lat="48.943337" lon="8.648973">
<ele>317.0</ele>
<speed>4.8</speed>
<course>290.9</course>
<desc>Speed 4.8 km/h Distance 2.06 km</desc>
<time>2010-02-27T10:26:21.87</time>
<name>1489</name>
</trkpt>
<trkpt lat="48.943340" lon="8.648960">
<ele>316.5</ele>
<speed>4.3</speed>
<course>286.9</course>
<desc>Speed 4.3 km/h Distance 2.06 km</desc>
<time>2010-02-27T10:26:22.87</time>
<name>1490</name>
</trkpt>
<trkpt lat="48.943343" lon="8.648943">
<ele>316.0</ele>
<speed>4.0</speed>
<course>285.5</course>
<desc>Speed 4.0 km/h Distance 2.07 km</desc>
<time>2010-02-27T10:26:23.86</time>
<name>1491</name>
</trkpt>
<trkpt lat="48.943347" lon="8.648925">
<ele>315.5</ele>
<speed>4.4</speed>
<course>270.0</course>
<desc>Speed 4.4 km/h Distance 2.07 km</desc>
<time>2010-02-27T10:26:24.86</time>
<name>1492</name>
</trkpt>
<trkpt lat="48.943347" lon="8.648902">
<ele>315.0</ele>
<speed>5.5</speed>
<course>286.9</course>
<desc>Speed 5.5 km/h Distance 2.07 km</desc>
<time>2010-02-27T10:26:25.86</time>
<name>1493</name>
</trkpt>
<trkpt lat="48.943350" lon="8.648885">
<ele>315.0</ele>
<speed>4.0</speed>
<course>342.5</course>
<desc>Speed 4.0 km/h Distance 2.07 km</desc>
<time>2010-02-27T10:26:26.87</time>
<name>1494</name>
</trkpt>
<trkpt lat="48.943357" lon="8.648882">
<ele>313.0</ele>
<speed>2.0</speed>
<course>256.7</course>
<desc>Speed 2.0 km/h Distance 2.07 km</desc>
<time>2010-02-27T10:26:27.87</time>
<name>1495</name>
</trkpt>
<trkpt lat="48.943345" lon="8.648807">
<ele>313.0</ele>
<speed>4.7</speed>
<course>275.8</course>
<desc>Speed 4.7 km/h Distance 2.08 km</desc>
<time>2010-02-27T10:26:29.86</time>
<name>1496</name>
</trkpt>
<trkpt lat="48.943347" lon="8.648782">
<ele>313.0</ele>
<speed>5.3</speed>
<course>249.6</course>
<desc>Speed 5.3 km/h Distance 2.08 km</desc>
<time>2010-02-27T10:26:30.87</time>
<name>1497</name>
</trkpt>
<trkpt lat="48.943328" lon="8.648707">
<ele>312.5</ele>
<speed>4.9</speed>
<course>247.9</course>
<desc>Speed 4.9 km/h Distance 2.08 km</desc>
<time>2010-02-27T10:26:32.85</time>
<name>1498</name>
</trkpt>
<trkpt lat="48.943322" lon="8.648682">
<ele>313.0</ele>
<speed>5.3</speed>
<course>257.7</course>
<desc>Speed 5.3 km/h Distance 2.09 km</desc>
<time>2010-02-27T10:26:33.85</time>
<name>1499</name>
</trkpt>
<trkpt lat="48.943318" lon="8.648658">
<ele>313.0</ele>
<speed>5.4</speed>
<course>250.1</course>
<desc>Speed 5.4 km/h Distance 2.09 km</desc>
<time>2010-02-27T10:26:34.86</time>
<name>1500</name>
</trkpt>
<trkpt lat="48.943310" lon="8.648623">
<ele>312.5</ele>
<speed>5.5</speed>
<course>251.3</course>
<desc>Speed 5.5 km/h Distance 2.09 km</desc>
<time>2010-02-27T10:26:35.86</time>
<name>1501</name>
</trkpt>
<trkpt lat="48.943303" lon="8.648593">
<ele>312.5</ele>
<speed>5.1</speed>
<course>257.7</course>
<desc>Speed 5.1 km/h Distance 2.09 km</desc>
<time>2010-02-27T10:26:36.86</time>
<name>1502</name>
</trkpt>
<trkpt lat="48.943300" lon="8.648570">
<ele>313.0</ele>
<speed>4.6</speed>
<course>258.5</course>
<desc>Speed 4.6 km/h Distance 2.09 km</desc>
<time>2010-02-27T10:26:37.86</time>
<name>1503</name>
</trkpt>
<trkpt lat="48.943297" lon="8.648545">
<ele>313.5</ele>
<speed>4.9</speed>
<course>260.4</course>
<desc>Speed 4.9 km/h Distance 2.10 km</desc>
<time>2010-02-27T10:26:38.85</time>
<name>1504</name>
</trkpt>
<trkpt lat="48.943295" lon="8.648530">
<ele>314.0</ele>
<speed>2.5</speed>
<course>322.8</course>
<desc>Speed 2.5 km/h Distance 2.10 km</desc>
<time>2010-02-27T10:26:39.86</time>
<name>1505</name>
</trkpt>
<trkpt lat="48.943297" lon="8.648528">
<ele>314.0</ele>
<speed>1.7</speed>
<course>90.0</course>
<desc>Speed 1.7 km/h Distance 2.10 km</desc>
<time>2010-02-27T10:26:40.86</time>
<name>1506</name>
</trkpt>
<trkpt lat="48.943297" lon="8.648530">
<ele>314.5</ele>
<speed>0.8</speed>
<course>356.1</course>
<desc>Speed 0.8 km/h Distance 2.10 km</desc>
<time>2010-02-27T10:26:41.85</time>
<name>1507</name>
</trkpt>
<trkpt lat="48.943310" lon="8.648528">
<ele>314.5</ele>
<speed>6.2</speed>
<course>209.2</course>
<desc>Speed 6.2 km/h Distance 2.10 km</desc>
<time>2010-02-27T10:26:42.85</time>
<name>1508</name>
</trkpt>
<trkpt lat="48.943308" lon="8.648527">
<ele>314.5</ele>
<speed>0.1</speed>
<course>209.2</course>
<desc>Speed 0.1 km/h Distance 2.10 km</desc>
<time>2010-02-27T10:26:43.86</time>
<name>1509</name>
</trkpt>
<trkpt lat="48.943308" lon="8.648527">
<ele>315.0</ele>
<speed>0.3</speed>
<course>207.5</course>
<desc>Speed 0.3 km/h Distance 2.10 km</desc>
<time>2010-02-27T10:26:44.86</time>
<name>1510</name>
</trkpt>
<trkpt lat="48.943300" lon="8.648520">
<ele>316.5</ele>
<speed>1.7</speed>
<course>247.4</course>
<desc>Speed 1.7 km/h Distance 2.10 km</desc>
<time>2010-02-27T10:26:45.86</time>
<name>1511</name>
</trkpt>
<trkpt lat="48.943295" lon="8.648502">
<ele>316.0</ele>
<speed>4.3</speed>
<course>241.5</course>
<desc>Speed 4.3 km/h Distance 2.10 km</desc>
<time>2010-02-27T10:26:46.85</time>
<name>1512</name>
</trkpt>
<trkpt lat="48.943287" lon="8.648478">
<ele>317.0</ele>
<speed>5.0</speed>
<course>262.8</course>
<desc>Speed 5.0 km/h Distance 2.10 km</desc>
<time>2010-02-27T10:26:47.86</time>
<name>1513</name>
</trkpt>
<trkpt lat="48.943285" lon="8.648458">
<ele>317.0</ele>
<speed>5.5</speed>
<course>253.1</course>
<desc>Speed 5.5 km/h Distance 2.11 km</desc>
<time>2010-02-27T10:26:48.86</time>
<name>1514</name>
</trkpt>
<trkpt lat="48.943282" lon="8.648442">
<ele>318.5</ele>
<speed>5.3</speed>
<course>253.1</course>
<desc>Speed 5.3 km/h Distance 2.11 km</desc>
<time>2010-02-27T10:26:49.86</time>
<name>1515</name>
</trkpt>
<trkpt lat="48.943278" lon="8.648425">
<ele>319.5</ele>
<speed>4.6</speed>
<course>228.5</course>
<desc>Speed 4.6 km/h Distance 2.11 km</desc>
<time>2010-02-27T10:26:50.86</time>
<name>1516</name>
</trkpt>
<trkpt lat="48.943267" lon="8.648405">
<ele>319.0</ele>
<speed>5.1</speed>
<course>245.4</course>
<desc>Speed 5.1 km/h Distance 2.11 km</desc>
<time>2010-02-27T10:26:51.86</time>
<name>1517</name>
</trkpt>
<trkpt lat="48.943262" lon="8.648388">
<ele>318.0</ele>
<speed>4.4</speed>
<course>270.0</course>
<desc>Speed 4.4 km/h Distance 2.11 km</desc>
<time>2010-02-27T10:26:52.86</time>
<name>1518</name>
</trkpt>
<trkpt lat="48.943262" lon="8.648368">
<ele>316.5</ele>
<speed>4.3</speed>
<course>243.1</course>
<desc>Speed 4.3 km/h Distance 2.11 km</desc>
<time>2010-02-27T10:26:53.86</time>
<name>1519</name>
</trkpt>
<trkpt lat="48.943255" lon="8.648348">
<ele>316.0</ele>
<speed>4.9</speed>
<course>236.0</course>
<desc>Speed 4.9 km/h Distance 2.11 km</desc>
<time>2010-02-27T10:26:54.85</time>
<name>1520</name>
</trkpt>
<trkpt lat="48.943248" lon="8.648333">
<ele>315.5</ele>
<speed>4.5</speed>
<course>229.1</course>
<desc>Speed 4.5 km/h Distance 2.12 km</desc>
<time>2010-02-27T10:26:55.85</time>
<name>1521</name>
</trkpt>
<trkpt lat="48.943242" lon="8.648322">
<ele>314.5</ele>
<speed>3.7</speed>
<course>227.6</course>
<desc>Speed 3.7 km/h Distance 2.12 km</desc>
<time>2010-02-27T10:26:56.85</time>
<name>1522</name>
</trkpt>
<trkpt lat="48.943232" lon="8.648305">
<ele>313.0</ele>
<speed>4.9</speed>
<course>224.5</course>
<desc>Speed 4.9 km/h Distance 2.12 km</desc>
<time>2010-02-27T10:26:57.85</time>
<name>1523</name>
</trkpt>
<trkpt lat="48.943225" lon="8.648295">
<ele>313.0</ele>
<speed>4.0</speed>
<course>219.4</course>
<desc>Speed 4.0 km/h Distance 2.12 km</desc>
<time>2010-02-27T10:26:58.85</time>
<name>1524</name>
</trkpt>
<trkpt lat="48.943212" lon="8.648278">
<ele>313.0</ele>
<speed>4.8</speed>
<course>240.3</course>
<desc>Speed 4.8 km/h Distance 2.12 km</desc>
<time>2010-02-27T10:26:59.85</time>
<name>1525</name>
</trkpt>
<trkpt lat="48.943207" lon="8.648265">
<ele>313.5</ele>
<speed>4.2</speed>
<course>232.8</course>
<desc>Speed 4.2 km/h Distance 2.12 km</desc>
<time>2010-02-27T10:27:00.85</time>
<name>1526</name>
</trkpt>
<trkpt lat="48.943202" lon="8.648255">
<ele>314.5</ele>
<speed>3.9</speed>
<course>215.8</course>
<desc>Speed 3.9 km/h Distance 2.12 km</desc>
<time>2010-02-27T10:27:01.85</time>
<name>1527</name>
</trkpt>
<trkpt lat="48.943185" lon="8.648237">
<ele>314.0</ele>
<speed>7.0</speed>
<course>217.5</course>
<desc>Speed 7.0 km/h Distance 2.13 km</desc>
<time>2010-02-27T10:27:02.85</time>
<name>1528</name>
</trkpt>
<trkpt lat="48.943175" lon="8.648225">
<ele>314.0</ele>
<speed>3.9</speed>
<course>216.5</course>
<desc>Speed 3.9 km/h Distance 2.13 km</desc>
<time>2010-02-27T10:27:03.85</time>
<name>1529</name>
</trkpt>
<trkpt lat="48.943162" lon="8.648210">
<ele>313.0</ele>
<speed>4.8</speed>
<course>206.0</course>
<desc>Speed 4.8 km/h Distance 2.13 km</desc>
<time>2010-02-27T10:27:04.85</time>
<name>1530</name>
</trkpt>
<trkpt lat="48.943148" lon="8.648200">
<ele>313.0</ele>
<speed>5.1</speed>
<course>213.2</course>
<desc>Speed 5.1 km/h Distance 2.13 km</desc>
<time>2010-02-27T10:27:05.85</time>
<name>1531</name>
</trkpt>
<trkpt lat="48.943140" lon="8.648192">
<ele>314.5</ele>
<speed>4.3</speed>
<course>208.6</course>
<desc>Speed 4.3 km/h Distance 2.13 km</desc>
<time>2010-02-27T10:27:06.85</time>
<name>1532</name>
</trkpt>
<trkpt lat="48.943130" lon="8.648183">
<ele>315.0</ele>
<speed>4.0</speed>
<course>219.9</course>
<desc>Speed 4.0 km/h Distance 2.13 km</desc>
<time>2010-02-27T10:27:07.85</time>
<name>1533</name>
</trkpt>
<trkpt lat="48.943112" lon="8.648160">
<ele>314.0</ele>
<speed>5.4</speed>
<course>222.5</course>
<desc>Speed 5.4 km/h Distance 2.14 km</desc>
<time>2010-02-27T10:27:08.85</time>
<name>1534</name>
</trkpt>
<trkpt lat="48.943103" lon="8.648148">
<ele>315.0</ele>
<speed>5.0</speed>
<course>209.4</course>
<desc>Speed 5.0 km/h Distance 2.14 km</desc>
<time>2010-02-27T10:27:09.85</time>
<name>1535</name>
</trkpt>
<trkpt lat="48.943092" lon="8.648138">
<ele>314.5</ele>
<speed>4.6</speed>
<course>213.3</course>
<desc>Speed 4.6 km/h Distance 2.14 km</desc>
<time>2010-02-27T10:27:10.85</time>
<name>1536</name>
</trkpt>
<trkpt lat="48.943080" lon="8.648127">
<ele>314.0</ele>
<speed>4.9</speed>
<course>207.9</course>
<desc>Speed 4.9 km/h Distance 2.14 km</desc>
<time>2010-02-27T10:27:11.85</time>
<name>1537</name>
</trkpt>
<trkpt lat="48.943072" lon="8.648120">
<ele>313.5</ele>
<speed>3.7</speed>
<course>193.5</course>
<desc>Speed 3.7 km/h Distance 2.14 km</desc>
<time>2010-02-27T10:27:12.85</time>
<name>1538</name>
</trkpt>
<trkpt lat="48.943058" lon="8.648115">
<ele>313.0</ele>
<speed>5.0</speed>
<course>204.7</course>
<desc>Speed 5.0 km/h Distance 2.14 km</desc>
<time>2010-02-27T10:27:13.85</time>
<name>1539</name>
</trkpt>
<trkpt lat="48.943042" lon="8.648103">
<ele>313.5</ele>
<speed>5.2</speed>
<course>210.8</course>
<desc>Speed 5.2 km/h Distance 2.14 km</desc>
<time>2010-02-27T10:27:14.85</time>
<name>1540</name>
</trkpt>
<trkpt lat="48.943025" lon="8.648088">
<ele>312.0</ele>
<speed>4.4</speed>
<course>213.4</course>
<desc>Speed 4.4 km/h Distance 2.15 km</desc>
<time>2010-02-27T10:27:15.84</time>
<name>1541</name>
</trkpt>
<trkpt lat="48.943013" lon="8.648077">
<ele>310.0</ele>
<speed>4.8</speed>
<course>216.6</course>
<desc>Speed 4.8 km/h Distance 2.15 km</desc>
<time>2010-02-27T10:27:16.84</time>
<name>1542</name>
</trkpt>
<trkpt lat="48.943000" lon="8.648062">
<ele>309.0</ele>
<speed>5.3</speed>
<course>225.9</course>
<desc>Speed 5.3 km/h Distance 2.15 km</desc>
<time>2010-02-27T10:27:17.84</time>
<name>1543</name>
</trkpt>
<trkpt lat="48.942988" lon="8.648043">
<ele>309.0</ele>
<speed>4.8</speed>
<course>222.6</course>
<desc>Speed 4.8 km/h Distance 2.15 km</desc>
<time>2010-02-27T10:27:18.85</time>
<name>1544</name>
</trkpt>
<trkpt lat="48.942980" lon="8.648032">
<ele>308.5</ele>
<speed>4.5</speed>
<course>217.5</course>
<desc>Speed 4.5 km/h Distance 2.15 km</desc>
<time>2010-02-27T10:27:19.84</time>
<name>1545</name>
</trkpt>
<trkpt lat="48.942970" lon="8.648020">
<ele>308.0</ele>
<speed>4.2</speed>
<course>218.1</course>
<desc>Speed 4.2 km/h Distance 2.15 km</desc>
<time>2010-02-27T10:27:20.84</time>
<name>1546</name>
</trkpt>
<trkpt lat="48.942962" lon="8.648010">
<ele>309.0</ele>
<speed>3.8</speed>
<course>187.4</course>
<desc>Speed 3.8 km/h Distance 2.16 km</desc>
<time>2010-02-27T10:27:21.84</time>
<name>1547</name>
</trkpt>
<trkpt lat="48.942955" lon="8.648008">
<ele>307.5</ele>
<speed>2.4</speed>
<course>322.8</course>
<desc>Speed 2.4 km/h Distance 2.16 km</desc>
<time>2010-02-27T10:27:22.84</time>
<name>1548</name>
</trkpt>
<trkpt lat="48.942957" lon="8.648007">
<ele>307.5</ele>
<speed>0.3</speed>
<course>246.5</course>
<desc>Speed 0.3 km/h Distance 2.16 km</desc>
<time>2010-02-27T10:27:23.84</time>
<name>1549</name>
</trkpt>
<trkpt lat="48.942953" lon="8.647995">
<ele>306.5</ele>
<speed>2.6</speed>
<course>235.9</course>
<desc>Speed 2.6 km/h Distance 2.16 km</desc>
<time>2010-02-27T10:27:24.84</time>
<name>1550</name>
</trkpt>
<trkpt lat="48.942947" lon="8.647980">
<ele>307.0</ele>
<speed>4.0</speed>
<course>232.4</course>
<desc>Speed 4.0 km/h Distance 2.16 km</desc>
<time>2010-02-27T10:27:25.84</time>
<name>1551</name>
</trkpt>
<trkpt lat="48.942942" lon="8.647970">
<ele>307.5</ele>
<speed>3.4</speed>
<course>213.2</course>
<desc>Speed 3.4 km/h Distance 2.16 km</desc>
<time>2010-02-27T10:27:26.84</time>
<name>1552</name>
</trkpt>
<trkpt lat="48.942932" lon="8.647960">
<ele>306.5</ele>
<speed>5.2</speed>
<course>219.4</course>
<desc>Speed 5.2 km/h Distance 2.16 km</desc>
<time>2010-02-27T10:27:27.84</time>
<name>1553</name>
</trkpt>
<trkpt lat="48.942925" lon="8.647952">
<ele>307.0</ele>
<speed>3.9</speed>
<course>208.6</course>
<desc>Speed 3.9 km/h Distance 2.16 km</desc>
<time>2010-02-27T10:27:28.84</time>
<name>1554</name>
</trkpt>
<trkpt lat="48.942915" lon="8.647943">
<ele>307.0</ele>
<speed>4.8</speed>
<course>225.6</course>
<desc>Speed 4.8 km/h Distance 2.16 km</desc>
<time>2010-02-27T10:27:29.84</time>
<name>1555</name>
</trkpt>
<trkpt lat="48.942900" lon="8.647920">
<ele>306.5</ele>
<speed>8.1</speed>
<course>217.0</course>
<desc>Speed 8.1 km/h Distance 2.17 km</desc>
<time>2010-02-27T10:27:30.85</time>
<name>1556</name>
</trkpt>
<trkpt lat="48.942888" lon="8.647907">
<ele>306.0</ele>
<speed>5.2</speed>
<course>213.2</course>
<desc>Speed 5.2 km/h Distance 2.17 km</desc>
<time>2010-02-27T10:27:31.84</time>
<name>1557</name>
</trkpt>
<trkpt lat="48.942880" lon="8.647898">
<ele>305.5</ele>
<speed>3.9</speed>
<course>224.5</course>
<desc>Speed 3.9 km/h Distance 2.17 km</desc>
<time>2010-02-27T10:27:32.84</time>
<name>1558</name>
</trkpt>
<trkpt lat="48.942873" lon="8.647888">
<ele>306.5</ele>
<speed>4.2</speed>
<course>207.9</course>
<desc>Speed 4.2 km/h Distance 2.17 km</desc>
<time>2010-02-27T10:27:33.84</time>
<name>1559</name>
</trkpt>
<trkpt lat="48.942865" lon="8.647882">
<ele>307.5</ele>
<speed>4.0</speed>
<course>219.4</course>
<desc>Speed 4.0 km/h Distance 2.17 km</desc>
<time>2010-02-27T10:27:34.84</time>
<name>1560</name>
</trkpt>
<trkpt lat="48.942858" lon="8.647873">
<ele>307.0</ele>
<speed>3.5</speed>
<course>218.1</course>
<desc>Speed 3.5 km/h Distance 2.17 km</desc>
<time>2010-02-27T10:27:35.84</time>
<name>1561</name>
</trkpt>
<trkpt lat="48.942850" lon="8.647863">
<ele>307.5</ele>
<speed>3.7</speed>
<course>208.6</course>
<desc>Speed 3.7 km/h Distance 2.17 km</desc>
<time>2010-02-27T10:27:36.84</time>
<name>1562</name>
</trkpt>
<trkpt lat="48.942840" lon="8.647855">
<ele>308.0</ele>
<speed>4.7</speed>
<course>217.3</course>
<desc>Speed 4.7 km/h Distance 2.17 km</desc>
<time>2010-02-27T10:27:37.83</time>
<name>1563</name>
</trkpt>
<trkpt lat="48.942830" lon="8.647843">
<ele>307.5</ele>
<speed>4.0</speed>
<course>218.1</course>
<desc>Speed 4.0 km/h Distance 2.18 km</desc>
<time>2010-02-27T10:27:38.84</time>
<name>1564</name>
</trkpt>
<trkpt lat="48.942822" lon="8.647833">
<ele>307.0</ele>
<speed>3.3</speed>
<course>208.6</course>
<desc>Speed 3.3 km/h Distance 2.18 km</desc>
<time>2010-02-27T10:27:39.83</time>
<name>1565</name>
</trkpt>
<trkpt lat="48.942812" lon="8.647825">
<ele>306.0</ele>
<speed>3.4</speed>
<course>218.1</course>
<desc>Speed 3.4 km/h Distance 2.18 km</desc>
<time>2010-02-27T10:27:40.83</time>
<name>1566</name>
</trkpt>
<trkpt lat="48.942803" lon="8.647815">
<ele>305.5</ele>
<speed>2.6</speed>
<course>220.2</course>
<desc>Speed 2.6 km/h Distance 2.18 km</desc>
<time>2010-02-27T10:27:41.83</time>
<name>1567</name>
</trkpt>
<trkpt lat="48.942792" lon="8.647800">
<ele>304.5</ele>
<speed>4.3</speed>
<course>224.5</course>
<desc>Speed 4.3 km/h Distance 2.18 km</desc>
<time>2010-02-27T10:27:42.83</time>
<name>1568</name>
</trkpt>
<trkpt lat="48.942785" lon="8.647790">
<ele>304.0</ele>
<speed>3.0</speed>
<course>202.2</course>
<desc>Speed 3.0 km/h Distance 2.18 km</desc>
<time>2010-02-27T10:27:43.82</time>
<name>1569</name>
</trkpt>
<trkpt lat="48.942780" lon="8.647787">
<ele>305.0</ele>
<speed>2.3</speed>
<course>208.6</course>
<desc>Speed 2.3 km/h Distance 2.18 km</desc>
<time>2010-02-27T10:27:44.82</time>
<name>1570</name>
</trkpt>
<trkpt lat="48.942770" lon="8.647778">
<ele>304.5</ele>
<speed>3.8</speed>
<course>208.6</course>
<desc>Speed 3.8 km/h Distance 2.18 km</desc>
<time>2010-02-27T10:27:45.83</time>
<name>1571</name>
</trkpt>
<trkpt lat="48.942760" lon="8.647770">
<ele>304.5</ele>
<speed>4.9</speed>
<course>188.1</course>
<desc>Speed 4.9 km/h Distance 2.19 km</desc>
<time>2010-02-27T10:27:46.83</time>
<name>1572</name>
</trkpt>
<trkpt lat="48.942750" lon="8.647768">
<ele>305.0</ele>
<speed>3.5</speed>
<course>198.8</course>
<desc>Speed 3.5 km/h Distance 2.19 km</desc>
<time>2010-02-27T10:27:47.83</time>
<name>1573</name>
</trkpt>
<trkpt lat="48.942740" lon="8.647763">
<ele>304.5</ele>
<speed>3.7</speed>
<course>189.6</course>
<desc>Speed 3.7 km/h Distance 2.19 km</desc>
<time>2010-02-27T10:27:48.83</time>
<name>1574</name>
</trkpt>
<trkpt lat="48.942732" lon="8.647762">
<ele>306.5</ele>
<speed>3.3</speed>
<course>220.5</course>
<desc>Speed 3.3 km/h Distance 2.19 km</desc>
<time>2010-02-27T10:27:49.83</time>
<name>1575</name>
</trkpt>
<trkpt lat="48.942715" lon="8.647740">
<ele>306.5</ele>
<speed>8.0</speed>
<course>208.6</course>
<desc>Speed 8.0 km/h Distance 2.19 km</desc>
<time>2010-02-27T10:27:50.82</time>
<name>1576</name>
</trkpt>
<trkpt lat="48.942705" lon="8.647732">
<ele>307.0</ele>
<speed>4.4</speed>
<course>218.1</course>
<desc>Speed 4.4 km/h Distance 2.19 km</desc>
<time>2010-02-27T10:27:51.83</time>
<name>1577</name>
</trkpt>
<trkpt lat="48.942697" lon="8.647722">
<ele>307.0</ele>
<speed>3.8</speed>
<course>213.2</course>
<desc>Speed 3.8 km/h Distance 2.19 km</desc>
<time>2010-02-27T10:27:52.83</time>
<name>1578</name>
</trkpt>
<trkpt lat="48.942687" lon="8.647712">
<ele>307.0</ele>
<speed>4.1</speed>
<course>218.4</course>
<desc>Speed 4.1 km/h Distance 2.19 km</desc>
<time>2010-02-27T10:27:53.83</time>
<name>1579</name>
</trkpt>
<trkpt lat="48.942678" lon="8.647702">
<ele>306.0</ele>
<speed>3.2</speed>
<course>208.6</course>
<desc>Speed 3.2 km/h Distance 2.20 km</desc>
<time>2010-02-27T10:27:54.83</time>
<name>1580</name>
</trkpt>
<trkpt lat="48.942668" lon="8.647693">
<ele>305.5</ele>
<speed>3.2</speed>
<course>207.9</course>
<desc>Speed 3.2 km/h Distance 2.20 km</desc>
<time>2010-02-27T10:27:55.82</time>
<name>1581</name>
</trkpt>
<trkpt lat="48.942660" lon="8.647687">
<ele>305.0</ele>
<speed>3.0</speed>
<course>194.9</course>
<desc>Speed 3.0 km/h Distance 2.20 km</desc>
<time>2010-02-27T10:27:56.82</time>
<name>1582</name>
</trkpt>
<trkpt lat="48.942652" lon="8.647683">
<ele>305.5</ele>
<speed>2.8</speed>
<course>213.4</course>
<desc>Speed 2.8 km/h Distance 2.20 km</desc>
<time>2010-02-27T10:27:57.82</time>
<name>1583</name>
</trkpt>
<trkpt lat="48.942638" lon="8.647670">
<ele>305.5</ele>
<speed>4.1</speed>
<course>224.7</course>
<desc>Speed 4.1 km/h Distance 2.20 km</desc>
<time>2010-02-27T10:27:58.82</time>
<name>1584</name>
</trkpt>
<trkpt lat="48.942628" lon="8.647655">
<ele>305.0</ele>
<speed>4.7</speed>
<course>221.3</course>
<desc>Speed 4.7 km/h Distance 2.20 km</desc>
<time>2010-02-27T10:27:59.82</time>
<name>1585</name>
</trkpt>
<trkpt lat="48.942618" lon="8.647642">
<ele>305.0</ele>
<speed>4.2</speed>
<course>214.1</course>
<desc>Speed 4.2 km/h Distance 2.20 km</desc>
<time>2010-02-27T10:28:00.82</time>
<name>1586</name>
</trkpt>
<trkpt lat="48.942613" lon="8.647637">
<ele>304.5</ele>
<speed>2.1</speed>
<course>217.5</course>
<desc>Speed 2.1 km/h Distance 2.20 km</desc>
<time>2010-02-27T10:28:01.82</time>
<name>1587</name>
</trkpt>
<trkpt lat="48.942603" lon="8.647625">
<ele>305.0</ele>
<speed>4.8</speed>
<course>206.0</course>
<desc>Speed 4.8 km/h Distance 2.21 km</desc>
<time>2010-02-27T10:28:02.82</time>
<name>1588</name>
</trkpt>
<trkpt lat="48.942590" lon="8.647615">
<ele>305.0</ele>
<speed>5.3</speed>
<course>205.2</course>
<desc>Speed 5.3 km/h Distance 2.21 km</desc>
<time>2010-02-27T10:28:03.81</time>
<name>1589</name>
</trkpt>
<trkpt lat="48.942578" lon="8.647607">
<ele>305.5</ele>
<speed>4.2</speed>
<course>209.4</course>
<desc>Speed 4.2 km/h Distance 2.21 km</desc>
<time>2010-02-27T10:28:04.81</time>
<name>1590</name>
</trkpt>
<trkpt lat="48.942567" lon="8.647597">
<ele>305.5</ele>
<speed>3.5</speed>
<course>218.1</course>
<desc>Speed 3.5 km/h Distance 2.21 km</desc>
<time>2010-02-27T10:28:05.82</time>
<name>1591</name>
</trkpt>
<trkpt lat="48.942558" lon="8.647587">
<ele>305.0</ele>
<speed>3.3</speed>
<course>203.8</course>
<desc>Speed 3.3 km/h Distance 2.21 km</desc>
<time>2010-02-27T10:28:06.81</time>
<name>1592</name>
</trkpt>
<trkpt lat="48.942548" lon="8.647580">
<ele>305.5</ele>
<speed>3.3</speed>
<course>213.2</course>
<desc>Speed 3.3 km/h Distance 2.21 km</desc>
<time>2010-02-27T10:28:07.82</time>
<name>1593</name>
</trkpt>
<trkpt lat="48.942542" lon="8.647573">
<ele>305.5</ele>
<speed>2.5</speed>
<course>213.2</course>
<desc>Speed 2.5 km/h Distance 2.21 km</desc>
<time>2010-02-27T10:28:08.82</time>
<name>1594</name>
</trkpt>
<trkpt lat="48.942533" lon="8.647565">
<ele>306.0</ele>
<speed>3.1</speed>
<course>213.7</course>
<desc>Speed 3.1 km/h Distance 2.22 km</desc>
<time>2010-02-27T10:28:09.85</time>
<name>1595</name>
</trkpt>
<trkpt lat="48.942527" lon="8.647558">
<ele>306.0</ele>
<speed>2.2</speed>
<course>233.6</course>
<desc>Speed 2.2 km/h Distance 2.22 km</desc>
<time>2010-02-27T10:28:10.82</time>
<name>1596</name>
</trkpt>
<trkpt lat="48.942502" lon="8.647507">
<ele>305.0</ele>
<speed>4.8</speed>
<course>222.6</course>
<desc>Speed 4.8 km/h Distance 2.22 km</desc>
<time>2010-02-27T10:28:12.82</time>
<name>1597</name>
</trkpt>
<trkpt lat="48.942493" lon="8.647495">
<ele>304.5</ele>
<speed>3.6</speed>
<course>226.4</course>
<desc>Speed 3.6 km/h Distance 2.22 km</desc>
<time>2010-02-27T10:28:13.82</time>
<name>1598</name>
</trkpt>
<trkpt lat="48.942485" lon="8.647482">
<ele>304.5</ele>
<speed>4.9</speed>
<course>235.9</course>
<desc>Speed 4.9 km/h Distance 2.22 km</desc>
<time>2010-02-27T10:28:14.82</time>
<name>1599</name>
</trkpt>
<trkpt lat="48.942478" lon="8.647467">
<ele>305.0</ele>
<speed>4.0</speed>
<course>238.7</course>
<desc>Speed 4.0 km/h Distance 2.22 km</desc>
<time>2010-02-27T10:28:15.81</time>
<name>1600</name>
</trkpt>
<trkpt lat="48.942472" lon="8.647450">
<ele>304.5</ele>
<speed>3.9</speed>
<course>251.3</course>
<desc>Speed 3.9 km/h Distance 2.23 km</desc>
<time>2010-02-27T10:28:16.81</time>
<name>1601</name>
</trkpt>
<trkpt lat="48.942468" lon="8.647435">
<ele>304.0</ele>
<speed>3.2</speed>
<course>270.0</course>
<desc>Speed 3.2 km/h Distance 2.23 km</desc>
<time>2010-02-27T10:28:17.81</time>
<name>1602</name>
</trkpt>
<trkpt lat="48.942468" lon="8.647422">
<ele>304.5</ele>
<speed>2.7</speed>
<course>270.0</course>
<desc>Speed 2.7 km/h Distance 2.23 km</desc>
<time>2010-02-27T10:28:18.81</time>
<name>1603</name>
</trkpt>
<trkpt lat="48.942468" lon="8.647407">
<ele>304.0</ele>
<speed>2.8</speed>
<course>270.0</course>
<desc>Speed 2.8 km/h Distance 2.23 km</desc>
<time>2010-02-27T10:28:19.81</time>
<name>1604</name>
</trkpt>
<trkpt lat="48.942468" lon="8.647385">
<ele>303.0</ele>
<speed>3.9</speed>
<course>263.8</course>
<desc>Speed 3.9 km/h Distance 2.23 km</desc>
<time>2010-02-27T10:28:20.82</time>
<name>1605</name>
</trkpt>
<trkpt lat="48.942467" lon="8.647362">
<ele>302.0</ele>
<speed>3.5</speed>
<course>270.0</course>
<desc>Speed 3.5 km/h Distance 2.23 km</desc>
<time>2010-02-27T10:28:21.81</time>
<name>1606</name>
</trkpt>
<trkpt lat="48.942467" lon="8.647343">
<ele>301.5</ele>
<speed>4.3</speed>
<course>262.8</course>
<desc>Speed 4.3 km/h Distance 2.23 km</desc>
<time>2010-02-27T10:28:22.81</time>
<name>1607</name>
</trkpt>
<trkpt lat="48.942465" lon="8.647323">
<ele>301.0</ele>
<speed>4.6</speed>
<course>262.8</course>
<desc>Speed 4.6 km/h Distance 2.24 km</desc>
<time>2010-02-27T10:28:23.81</time>
<name>1608</name>
</trkpt>
<trkpt lat="48.942463" lon="8.647303">
<ele>300.5</ele>
<speed>4.1</speed>
<course>262.8</course>
<desc>Speed 4.1 km/h Distance 2.24 km</desc>
<time>2010-02-27T10:28:24.81</time>
<name>1609</name>
</trkpt>
<trkpt lat="48.942462" lon="8.647283">
<ele>300.0</ele>
<speed>4.2</speed>
<course>263.8</course>
<desc>Speed 4.2 km/h Distance 2.24 km</desc>
<time>2010-02-27T10:28:25.81</time>
<name>1610</name>
</trkpt>
<trkpt lat="48.942460" lon="8.647260">
<ele>298.5</ele>
<speed>5.1</speed>
<course>250.2</course>
<desc>Speed 5.1 km/h Distance 2.24 km</desc>
<time>2010-02-27T10:28:26.81</time>
<name>1611</name>
</trkpt>
<trkpt lat="48.942445" lon="8.647197">
<ele>296.5</ele>
<speed>4.9</speed>
<course>239.3</course>
<desc>Speed 4.9 km/h Distance 2.24 km</desc>
<time>2010-02-27T10:28:28.80</time>
<name>1612</name>
</trkpt>
<trkpt lat="48.942407" lon="8.647098">
<ele>297.5</ele>
<speed>7.1</speed>
<course>258.3</course>
<desc>Speed 7.1 km/h Distance 2.25 km</desc>
<time>2010-02-27T10:28:30.82</time>
<name>1613</name>
</trkpt>
<trkpt lat="48.942402" lon="8.647062">
<ele>296.5</ele>
<speed>5.3</speed>
<course>247.9</course>
<desc>Speed 5.3 km/h Distance 2.26 km</desc>
<time>2010-02-27T10:28:31.81</time>
<name>1614</name>
</trkpt>
<trkpt lat="48.942395" lon="8.647037">
<ele>295.5</ele>
<speed>5.2</speed>
<course>259.2</course>
<desc>Speed 5.2 km/h Distance 2.26 km</desc>
<time>2010-02-27T10:28:32.80</time>
<name>1615</name>
</trkpt>
<trkpt lat="48.942392" lon="8.647010">
<ele>295.5</ele>
<speed>5.3</speed>
<course>255.8</course>
<desc>Speed 5.3 km/h Distance 2.26 km</desc>
<time>2010-02-27T10:28:33.80</time>
<name>1616</name>
</trkpt>
<trkpt lat="48.942387" lon="8.646980">
<ele>296.5</ele>
<speed>5.3</speed>
<course>255.8</course>
<desc>Speed 5.3 km/h Distance 2.26 km</desc>
<time>2010-02-27T10:28:34.80</time>
<name>1617</name>
</trkpt>
<trkpt lat="48.942383" lon="8.646960">
<ele>296.5</ele>
<speed>5.0</speed>
<course>244.3</course>
<desc>Speed 5.0 km/h Distance 2.26 km</desc>
<time>2010-02-27T10:28:35.80</time>
<name>1618</name>
</trkpt>
<trkpt lat="48.942373" lon="8.646928">
<ele>296.0</ele>
<speed>5.0</speed>
<course>253.1</course>
<desc>Speed 5.0 km/h Distance 2.27 km</desc>
<time>2010-02-27T10:28:36.81</time>
<name>1619</name>
</trkpt>
<trkpt lat="48.942367" lon="8.646895">
<ele>296.5</ele>
<speed>5.1</speed>
<course>262.8</course>
<desc>Speed 5.1 km/h Distance 2.27 km</desc>
<time>2010-02-27T10:28:37.80</time>
<name>1620</name>
</trkpt>
<trkpt lat="48.942365" lon="8.646875">
<ele>295.5</ele>
<speed>5.0</speed>
<course>257.7</course>
<desc>Speed 5.0 km/h Distance 2.27 km</desc>
<time>2010-02-27T10:28:38.80</time>
<name>1621</name>
</trkpt>
<trkpt lat="48.942362" lon="8.646852">
<ele>295.5</ele>
<speed>4.9</speed>
<course>256.8</course>
<desc>Speed 4.9 km/h Distance 2.27 km</desc>
<time>2010-02-27T10:28:39.80</time>
<name>1622</name>
</trkpt>
<trkpt lat="48.942358" lon="8.646830">
<ele>296.0</ele>
<speed>4.6</speed>
<course>258.5</course>
<desc>Speed 4.6 km/h Distance 2.27 km</desc>
<time>2010-02-27T10:28:40.80</time>
<name>1623</name>
</trkpt>
<trkpt lat="48.942355" lon="8.646805">
<ele>296.0</ele>
<speed>4.4</speed>
<course>245.9</course>
<desc>Speed 4.4 km/h Distance 2.28 km</desc>
<time>2010-02-27T10:28:41.80</time>
<name>1624</name>
</trkpt>
<trkpt lat="48.942347" lon="8.646777">
<ele>295.5</ele>
<speed>5.0</speed>
<course>244.3</course>
<desc>Speed 5.0 km/h Distance 2.28 km</desc>
<time>2010-02-27T10:28:42.79</time>
<name>1625</name>
</trkpt>
<trkpt lat="48.942337" lon="8.646745">
<ele>295.5</ele>
<speed>5.9</speed>
<course>254.0</course>
<desc>Speed 5.9 km/h Distance 2.28 km</desc>
<time>2010-02-27T10:28:43.79</time>
<name>1626</name>
</trkpt>
<trkpt lat="48.942332" lon="8.646718">
<ele>296.0</ele>
<speed>5.4</speed>
<course>263.3</course>
<desc>Speed 5.4 km/h Distance 2.28 km</desc>
<time>2010-02-27T10:28:44.80</time>
<name>1627</name>
</trkpt>
<trkpt lat="48.942330" lon="8.646697">
<ele>297.0</ele>
<speed>5.8</speed>
<course>270.0</course>
<desc>Speed 5.8 km/h Distance 2.28 km</desc>
<time>2010-02-27T10:28:45.80</time>
<name>1628</name>
</trkpt>
<trkpt lat="48.942330" lon="8.646673">
<ele>297.5</ele>
<speed>5.0</speed>
<course>263.3</course>
<desc>Speed 5.0 km/h Distance 2.29 km</desc>
<time>2010-02-27T10:28:46.79</time>
<name>1629</name>
</trkpt>
<trkpt lat="48.942328" lon="8.646652">
<ele>297.5</ele>
<speed>4.6</speed>
<course>263.8</course>
<desc>Speed 4.6 km/h Distance 2.29 km</desc>
<time>2010-02-27T10:28:47.80</time>
<name>1630</name>
</trkpt>
<trkpt lat="48.942327" lon="8.646628">
<ele>297.0</ele>
<speed>5.5</speed>
<course>262.8</course>
<desc>Speed 5.5 km/h Distance 2.29 km</desc>
<time>2010-02-27T10:28:48.80</time>
<name>1631</name>
</trkpt>
<trkpt lat="48.942325" lon="8.646608">
<ele>297.0</ele>
<speed>5.1</speed>
<course>282.3</course>
<desc>Speed 5.1 km/h Distance 2.29 km</desc>
<time>2010-02-27T10:28:49.80</time>
<name>1632</name>
</trkpt>
<trkpt lat="48.942327" lon="8.646597">
<ele>298.0</ele>
<speed>3.6</speed>
<course>302.4</course>
<desc>Speed 3.6 km/h Distance 2.29 km</desc>
<time>2010-02-27T10:28:50.80</time>
<name>1633</name>
</trkpt>
<trkpt lat="48.942335" lon="8.646577">
<ele>299.0</ele>
<speed>4.9</speed>
<course>313.6</course>
<desc>Speed 4.9 km/h Distance 2.29 km</desc>
<time>2010-02-27T10:28:51.80</time>
<name>1634</name>
</trkpt>
<trkpt lat="48.942343" lon="8.646563">
<ele>299.5</ele>
<speed>4.5</speed>
<course>299.0</course>
<desc>Speed 4.5 km/h Distance 2.29 km</desc>
<time>2010-02-27T10:28:52.79</time>
<name>1635</name>
</trkpt>
<trkpt lat="48.942350" lon="8.646545">
<ele>299.5</ele>
<speed>4.7</speed>
<course>301.3</course>
<desc>Speed 4.7 km/h Distance 2.30 km</desc>
<time>2010-02-27T10:28:53.79</time>
<name>1636</name>
</trkpt>
<trkpt lat="48.942357" lon="8.646528">
<ele>300.0</ele>
<speed>4.6</speed>
<course>310.3</course>
<desc>Speed 4.6 km/h Distance 2.30 km</desc>
<time>2010-02-27T10:28:54.80</time>
<name>1637</name>
</trkpt>
<trkpt lat="48.942365" lon="8.646513">
<ele>300.0</ele>
<speed>4.6</speed>
<course>326.7</course>
<desc>Speed 4.6 km/h Distance 2.30 km</desc>
<time>2010-02-27T10:28:55.79</time>
<name>1638</name>
</trkpt>
<trkpt lat="48.942377" lon="8.646502">
<ele>299.5</ele>
<speed>4.4</speed>
<course>339.4</course>
<desc>Speed 4.4 km/h Distance 2.30 km</desc>
<time>2010-02-27T10:28:56.79</time>
<name>1639</name>
</trkpt>
<trkpt lat="48.942388" lon="8.646495">
<ele>300.0</ele>
<speed>4.5</speed>
<course>2.2</course>
<desc>Speed 4.5 km/h Distance 2.30 km</desc>
<time>2010-02-27T10:28:57.79</time>
<name>1640</name>
</trkpt>
<trkpt lat="48.942400" lon="8.646495">
<ele>300.0</ele>
<speed>4.2</speed>
<course>336.2</course>
<desc>Speed 4.2 km/h Distance 2.30 km</desc>
<time>2010-02-27T10:28:58.80</time>
<name>1641</name>
</trkpt>
<trkpt lat="48.942410" lon="8.646488">
<ele>300.0</ele>
<speed>4.4</speed>
<course>335.1</course>
<desc>Speed 4.4 km/h Distance 2.30 km</desc>
<time>2010-02-27T10:28:59.78</time>
<name>1642</name>
</trkpt>
<trkpt lat="48.942422" lon="8.646480">
<ele>300.5</ele>
<speed>4.7</speed>
<course>7.5</course>
<desc>Speed 4.7 km/h Distance 2.31 km</desc>
<time>2010-02-27T10:29:00.78</time>
<name>1643</name>
</trkpt>
<trkpt lat="48.942437" lon="8.646483">
<ele>300.5</ele>
<speed>5.4</speed>
<course>12.6</course>
<desc>Speed 5.4 km/h Distance 2.31 km</desc>
<time>2010-02-27T10:29:01.79</time>
<name>1644</name>
</trkpt>
<trkpt lat="48.942447" lon="8.646487">
<ele>302.0</ele>
<speed>3.9</speed>
<course>318.7</course>
<desc>Speed 3.9 km/h Distance 2.31 km</desc>
<time>2010-02-27T10:29:02.79</time>
<name>1645</name>
</trkpt>
<trkpt lat="48.942457" lon="8.646473">
<ele>302.5</ele>
<speed>4.4</speed>
<course>354.7</course>
<desc>Speed 4.4 km/h Distance 2.31 km</desc>
<time>2010-02-27T10:29:03.79</time>
<name>1646</name>
</trkpt>
<trkpt lat="48.942470" lon="8.646472">
<ele>303.0</ele>
<speed>4.8</speed>
<course>341.2</course>
<desc>Speed 4.8 km/h Distance 2.31 km</desc>
<time>2010-02-27T10:29:04.79</time>
<name>1647</name>
</trkpt>
<trkpt lat="48.942483" lon="8.646465">
<ele>302.0</ele>
<speed>4.8</speed>
<course>320.6</course>
<desc>Speed 4.8 km/h Distance 2.31 km</desc>
<time>2010-02-27T10:29:05.79</time>
<name>1648</name>
</trkpt>
<trkpt lat="48.942490" lon="8.646457">
<ele>302.0</ele>
<speed>4.4</speed>
<course>341.9</course>
<desc>Speed 4.4 km/h Distance 2.31 km</desc>
<time>2010-02-27T10:29:06.79</time>
<name>1649</name>
</trkpt>
<trkpt lat="48.942503" lon="8.646450">
<ele>302.0</ele>
<speed>5.8</speed>
<course>346.5</course>
<desc>Speed 5.8 km/h Distance 2.32 km</desc>
<time>2010-02-27T10:29:07.79</time>
<name>1650</name>
</trkpt>
<trkpt lat="48.942517" lon="8.646445">
<ele>302.5</ele>
<speed>5.0</speed>
<course>331.4</course>
<desc>Speed 5.0 km/h Distance 2.32 km</desc>
<time>2010-02-27T10:29:08.79</time>
<name>1651</name>
</trkpt>
<trkpt lat="48.942527" lon="8.646437">
<ele>301.5</ele>
<speed>5.2</speed>
<course>336.2</course>
<desc>Speed 5.2 km/h Distance 2.32 km</desc>
<time>2010-02-27T10:29:09.79</time>
<name>1652</name>
</trkpt>
<trkpt lat="48.942537" lon="8.646430">
<ele>301.5</ele>
<speed>5.1</speed>
<course>326.7</course>
<desc>Speed 5.1 km/h Distance 2.32 km</desc>
<time>2010-02-27T10:29:10.79</time>
<name>1653</name>
</trkpt>
<trkpt lat="48.942548" lon="8.646418">
<ele>302.0</ele>
<speed>5.8</speed>
<course>355.3</course>
<desc>Speed 5.8 km/h Distance 2.32 km</desc>
<time>2010-02-27T10:29:11.78</time>
<name>1654</name>
</trkpt>
<trkpt lat="48.942560" lon="8.646417">
<ele>301.0</ele>
<speed>4.9</speed>
<course>0.0</course>
<desc>Speed 4.9 km/h Distance 2.32 km</desc>
<time>2010-02-27T10:29:12.78</time>
<name>1655</name>
</trkpt>
<trkpt lat="48.942570" lon="8.646417">
<ele>300.5</ele>
<speed>4.6</speed>
<course>4.4</course>
<desc>Speed 4.6 km/h Distance 2.32 km</desc>
<time>2010-02-27T10:29:13.79</time>
<name>1656</name>
</trkpt>
<trkpt lat="48.942580" lon="8.646417">
<ele>301.5</ele>
<speed>5.2</speed>
<course>355.6</course>
<desc>Speed 5.2 km/h Distance 2.32 km</desc>
<time>2010-02-27T10:29:14.78</time>
<name>1657</name>
</trkpt>
<trkpt lat="48.942590" lon="8.646415">
<ele>301.5</ele>
<speed>4.6</speed>
<course>352.3</course>
<desc>Speed 4.6 km/h Distance 2.33 km</desc>
<time>2010-02-27T10:29:15.78</time>
<name>1658</name>
</trkpt>
<trkpt lat="48.942598" lon="8.646413">
<ele>302.0</ele>
<speed>4.4</speed>
<course>350.5</course>
<desc>Speed 4.4 km/h Distance 2.33 km</desc>
<time>2010-02-27T10:29:16.78</time>
<name>1659</name>
</trkpt>
<trkpt lat="48.942610" lon="8.646410">
<ele>303.0</ele>
<speed>5.2</speed>
<course>355.6</course>
<desc>Speed 5.2 km/h Distance 2.33 km</desc>
<time>2010-02-27T10:29:17.77</time>
<name>1660</name>
</trkpt>
<trkpt lat="48.942620" lon="8.646408">
<ele>302.5</ele>
<speed>4.9</speed>
<course>7.5</course>
<desc>Speed 4.9 km/h Distance 2.33 km</desc>
<time>2010-02-27T10:29:18.77</time>
<name>1661</name>
</trkpt>
<trkpt lat="48.942632" lon="8.646410">
<ele>302.5</ele>
<speed>4.5</speed>
<course>347.4</course>
<desc>Speed 4.5 km/h Distance 2.33 km</desc>
<time>2010-02-27T10:29:19.77</time>
<name>1662</name>
</trkpt>
<trkpt lat="48.942642" lon="8.646407">
<ele>301.0</ele>
<speed>3.8</speed>
<course>354.7</course>
<desc>Speed 3.8 km/h Distance 2.33 km</desc>
<time>2010-02-27T10:29:20.77</time>
<name>1663</name>
</trkpt>
<trkpt lat="48.942655" lon="8.646405">
<ele>301.5</ele>
<speed>5.4</speed>
<course>0.0</course>
<desc>Speed 5.4 km/h Distance 2.33 km</desc>
<time>2010-02-27T10:29:21.77</time>
<name>1664</name>
</trkpt>
<trkpt lat="48.942670" lon="8.646405">
<ele>302.0</ele>
<speed>5.3</speed>
<course>2.2</course>
<desc>Speed 5.3 km/h Distance 2.33 km</desc>
<time>2010-02-27T10:29:22.77</time>
<name>1665</name>
</trkpt>
<trkpt lat="48.942682" lon="8.646405">
<ele>302.5</ele>
<speed>5.1</speed>
<course>1.9</course>
<desc>Speed 5.1 km/h Distance 2.34 km</desc>
<time>2010-02-27T10:29:23.79</time>
<name>1666</name>
</trkpt>
<trkpt lat="48.942697" lon="8.646405">
<ele>302.5</ele>
<speed>5.7</speed>
<course>0.0</course>
<desc>Speed 5.7 km/h Distance 2.34 km</desc>
<time>2010-02-27T10:29:24.78</time>
<name>1667</name>
</trkpt>
<trkpt lat="48.942707" lon="8.646405">
<ele>302.0</ele>
<speed>3.8</speed>
<course>347.4</course>
<desc>Speed 3.8 km/h Distance 2.34 km</desc>
<time>2010-02-27T10:29:25.78</time>
<name>1668</name>
</trkpt>
<trkpt lat="48.942717" lon="8.646402">
<ele>300.5</ele>
<speed>4.4</speed>
<course>0.0</course>
<desc>Speed 4.4 km/h Distance 2.34 km</desc>
<time>2010-02-27T10:29:26.77</time>
<name>1669</name>
</trkpt>
<trkpt lat="48.942725" lon="8.646402">
<ele>299.5</ele>
<speed>3.1</speed>
<course>4.4</course>
<desc>Speed 3.1 km/h Distance 2.34 km</desc>
<time>2010-02-27T10:29:27.77</time>
<name>1670</name>
</trkpt>
<trkpt lat="48.942735" lon="8.646403">
<ele>298.0</ele>
<speed>3.5</speed>
<course>10.3</course>
<desc>Speed 3.5 km/h Distance 2.34 km</desc>
<time>2010-02-27T10:29:28.78</time>
<name>1671</name>
</trkpt>
<trkpt lat="48.942748" lon="8.646407">
<ele>298.5</ele>
<speed>5.2</speed>
<course>16.0</course>
<desc>Speed 5.2 km/h Distance 2.34 km</desc>
<time>2010-02-27T10:29:29.78</time>
<name>1672</name>
</trkpt>
<trkpt lat="48.942760" lon="8.646412">
<ele>299.0</ele>
<speed>5.1</speed>
<course>1.2</course>
<desc>Speed 5.1 km/h Distance 2.35 km</desc>
<time>2010-02-27T10:29:30.79</time>
<name>1673</name>
</trkpt>
<trkpt lat="48.942773" lon="8.646412">
<ele>299.0</ele>
<speed>4.8</speed>
<course>0.0</course>
<desc>Speed 4.8 km/h Distance 2.35 km</desc>
<time>2010-02-27T10:29:31.78</time>
<name>1674</name>
</trkpt>
<trkpt lat="48.942788" lon="8.646412">
<ele>299.5</ele>
<speed>6.0</speed>
<course>348.4</course>
<desc>Speed 6.0 km/h Distance 2.35 km</desc>
<time>2010-02-27T10:29:32.78</time>
<name>1675</name>
</trkpt>
<trkpt lat="48.942798" lon="8.646408">
<ele>298.0</ele>
<speed>3.6</speed>
<course>0.0</course>
<desc>Speed 3.6 km/h Distance 2.35 km</desc>
<time>2010-02-27T10:29:33.78</time>
<name>1676</name>
</trkpt>
<trkpt lat="48.942808" lon="8.646408">
<ele>297.5</ele>
<speed>3.5</speed>
<course>355.3</course>
<desc>Speed 3.5 km/h Distance 2.35 km</desc>
<time>2010-02-27T10:29:34.78</time>
<name>1677</name>
</trkpt>
<trkpt lat="48.942820" lon="8.646407">
<ele>296.5</ele>
<speed>3.9</speed>
<course>346.5</course>
<desc>Speed 3.9 km/h Distance 2.35 km</desc>
<time>2010-02-27T10:29:35.77</time>
<name>1678</name>
</trkpt>
<trkpt lat="48.942833" lon="8.646402">
<ele>296.0</ele>
<speed>4.4</speed>
<course>13.5</course>
<desc>Speed 4.4 km/h Distance 2.35 km</desc>
<time>2010-02-27T10:29:36.78</time>
<name>1679</name>
</trkpt>
<trkpt lat="48.942847" lon="8.646407">
<ele>296.0</ele>
<speed>4.9</speed>
<course>341.8</course>
<desc>Speed 4.9 km/h Distance 2.35 km</desc>
<time>2010-02-27T10:29:37.77</time>
<name>1680</name>
</trkpt>
<trkpt lat="48.942857" lon="8.646402">
<ele>294.0</ele>
<speed>3.0</speed>
<course>1.2</course>
<desc>Speed 3.0 km/h Distance 2.36 km</desc>
<time>2010-02-27T10:29:38.76</time>
<name>1681</name>
</trkpt>
<trkpt lat="48.942870" lon="8.646402">
<ele>293.0</ele>
<speed>4.3</speed>
<course>351.0</course>
<desc>Speed 4.3 km/h Distance 2.36 km</desc>
<time>2010-02-27T10:29:39.77</time>
<name>1682</name>
</trkpt>
<trkpt lat="48.942883" lon="8.646398">
<ele>292.5</ele>
<speed>4.6</speed>
<course>351.0</course>
<desc>Speed 4.6 km/h Distance 2.36 km</desc>
<time>2010-02-27T10:29:40.78</time>
<name>1683</name>
</trkpt>
<trkpt lat="48.942897" lon="8.646395">
<ele>291.5</ele>
<speed>3.9</speed>
<course>0.0</course>
<desc>Speed 3.9 km/h Distance 2.36 km</desc>
<time>2010-02-27T10:29:41.77</time>
<name>1684</name>
</trkpt>
<trkpt lat="48.942912" lon="8.646395">
<ele>291.5</ele>
<speed>5.3</speed>
<course>346.5</course>
<desc>Speed 5.3 km/h Distance 2.36 km</desc>
<time>2010-02-27T10:29:42.77</time>
<name>1685</name>
</trkpt>
<trkpt lat="48.942925" lon="8.646390">
<ele>290.5</ele>
<speed>4.7</speed>
<course>356.2</course>
<desc>Speed 4.7 km/h Distance 2.36 km</desc>
<time>2010-02-27T10:29:43.77</time>
<name>1686</name>
</trkpt>
<trkpt lat="48.942940" lon="8.646388">
<ele>290.5</ele>
<speed>5.8</speed>
<course>355.9</course>
<desc>Speed 5.8 km/h Distance 2.37 km</desc>
<time>2010-02-27T10:29:44.77</time>
<name>1687</name>
</trkpt>
<trkpt lat="48.942957" lon="8.646387">
<ele>291.0</ele>
<speed>5.7</speed>
<course>1.2</course>
<desc>Speed 5.7 km/h Distance 2.37 km</desc>
<time>2010-02-27T10:29:45.77</time>
<name>1688</name>
</trkpt>
<trkpt lat="48.942970" lon="8.646387">
<ele>291.0</ele>
<speed>4.9</speed>
<course>1.2</course>
<desc>Speed 4.9 km/h Distance 2.37 km</desc>
<time>2010-02-27T10:29:46.77</time>
<name>1689</name>
</trkpt>
<trkpt lat="48.942983" lon="8.646387">
<ele>290.5</ele>
<speed>4.9</speed>
<course>1.2</course>
<desc>Speed 4.9 km/h Distance 2.37 km</desc>
<time>2010-02-27T10:29:47.77</time>
<name>1690</name>
</trkpt>
<trkpt lat="48.942997" lon="8.646387">
<ele>290.0</ele>
<speed>5.4</speed>
<course>348.8</course>
<desc>Speed 5.4 km/h Distance 2.37 km</desc>
<time>2010-02-27T10:29:48.77</time>
<name>1691</name>
</trkpt>
<trkpt lat="48.943013" lon="8.646382">
<ele>290.0</ele>
<speed>5.8</speed>
<course>354.7</course>
<desc>Speed 5.8 km/h Distance 2.37 km</desc>
<time>2010-02-27T10:29:49.77</time>
<name>1692</name>
</trkpt>
<trkpt lat="48.943027" lon="8.646380">
<ele>290.0</ele>
<speed>5.4</speed>
<course>349.6</course>
<desc>Speed 5.4 km/h Distance 2.38 km</desc>
<time>2010-02-27T10:29:50.77</time>
<name>1693</name>
</trkpt>
<trkpt lat="48.943038" lon="8.646377">
<ele>290.0</ele>
<speed>3.5</speed>
<course>5.3</course>
<desc>Speed 3.5 km/h Distance 2.38 km</desc>
<time>2010-02-27T10:29:51.76</time>
<name>1694</name>
</trkpt>
<trkpt lat="48.943052" lon="8.646378">
<ele>290.5</ele>
<speed>5.1</speed>
<course>346.0</course>
<desc>Speed 5.1 km/h Distance 2.38 km</desc>
<time>2010-02-27T10:29:52.76</time>
<name>1695</name>
</trkpt>
<trkpt lat="48.943065" lon="8.646373">
<ele>289.5</ele>
<speed>4.4</speed>
<course>1.2</course>
<desc>Speed 4.4 km/h Distance 2.38 km</desc>
<time>2010-02-27T10:29:53.77</time>
<name>1696</name>
</trkpt>
<trkpt lat="48.943078" lon="8.646373">
<ele>289.5</ele>
<speed>4.9</speed>
<course>345.1</course>
<desc>Speed 4.9 km/h Distance 2.38 km</desc>
<time>2010-02-27T10:29:54.77</time>
<name>1697</name>
</trkpt>
<trkpt lat="48.943095" lon="8.646367">
<ele>288.5</ele>
<speed>5.3</speed>
<course>352.6</course>
<desc>Speed 5.3 km/h Distance 2.38 km</desc>
<time>2010-02-27T10:29:55.77</time>
<name>1698</name>
</trkpt>
<trkpt lat="48.943102" lon="8.646365">
<ele>287.0</ele>
<speed>3.0</speed>
<course>7.0</course>
<desc>Speed 3.0 km/h Distance 2.38 km</desc>
<time>2010-02-27T10:29:56.76</time>
<name>1699</name>
</trkpt>
<trkpt lat="48.943120" lon="8.646368">
<ele>289.0</ele>
<speed>4.4</speed>
<course>355.3</course>
<desc>Speed 4.4 km/h Distance 2.39 km</desc>
<time>2010-02-27T10:29:57.76</time>
<name>1700</name>
</trkpt>
<trkpt lat="48.943132" lon="8.646367">
<ele>288.0</ele>
<speed>4.0</speed>
<course>344.0</course>
<desc>Speed 4.0 km/h Distance 2.39 km</desc>
<time>2010-02-27T10:29:58.76</time>
<name>1701</name>
</trkpt>
<trkpt lat="48.943143" lon="8.646362">
<ele>287.5</ele>
<speed>3.7</speed>
<course>4.7</course>
<desc>Speed 3.7 km/h Distance 2.39 km</desc>
<time>2010-02-27T10:29:59.76</time>
<name>1702</name>
</trkpt>
<trkpt lat="48.943155" lon="8.646363">
<ele>288.5</ele>
<speed>5.0</speed>
<course>1.2</course>
<desc>Speed 5.0 km/h Distance 2.39 km</desc>
<time>2010-02-27T10:30:00.76</time>
<name>1703</name>
</trkpt>
<trkpt lat="48.943168" lon="8.646363">
<ele>288.5</ele>
<speed>4.6</speed>
<course>0.0</course>
<desc>Speed 4.6 km/h Distance 2.39 km</desc>
<time>2010-02-27T10:30:01.76</time>
<name>1704</name>
</trkpt>
<trkpt lat="48.943178" lon="8.646363">
<ele>286.5</ele>
<speed>3.2</speed>
<course>341.6</course>
<desc>Speed 3.2 km/h Distance 2.39 km</desc>
<time>2010-02-27T10:30:02.76</time>
<name>1705</name>
</trkpt>
<trkpt lat="48.943192" lon="8.646357">
<ele>286.0</ele>
<speed>4.9</speed>
<course>0.0</course>
<desc>Speed 4.9 km/h Distance 2.39 km</desc>
<time>2010-02-27T10:30:03.76</time>
<name>1706</name>
</trkpt>
<trkpt lat="48.943203" lon="8.646357">
<ele>286.0</ele>
<speed>4.6</speed>
<course>343.0</course>
<desc>Speed 4.6 km/h Distance 2.39 km</desc>
<time>2010-02-27T10:30:04.76</time>
<name>1707</name>
</trkpt>
<trkpt lat="48.943213" lon="8.646352">
<ele>284.5</ele>
<speed>3.1</speed>
<course>326.8</course>
<desc>Speed 3.1 km/h Distance 2.40 km</desc>
<time>2010-02-27T10:30:05.75</time>
<name>1708</name>
</trkpt>
<trkpt lat="48.943222" lon="8.646343">
<ele>282.5</ele>
<speed>3.6</speed>
<course>351.0</course>
<desc>Speed 3.6 km/h Distance 2.40 km</desc>
<time>2010-02-27T10:30:06.76</time>
<name>1709</name>
</trkpt>
<trkpt lat="48.943235" lon="8.646340">
<ele>281.5</ele>
<speed>4.2</speed>
<course>0.0</course>
<desc>Speed 4.2 km/h Distance 2.40 km</desc>
<time>2010-02-27T10:30:07.76</time>
<name>1710</name>
</trkpt>
<trkpt lat="48.943257" lon="8.646340">
<ele>282.5</ele>
<speed>4.0</speed>
<course>351.0</course>
<desc>Speed 4.0 km/h Distance 2.40 km</desc>
<time>2010-02-27T10:30:08.76</time>
<name>1711</name>
</trkpt>
<trkpt lat="48.943270" lon="8.646337">
<ele>282.0</ele>
<speed>4.0</speed>
<course>349.6</course>
<desc>Speed 4.0 km/h Distance 2.40 km</desc>
<time>2010-02-27T10:30:09.76</time>
<name>1712</name>
</trkpt>
<trkpt lat="48.943282" lon="8.646333">
<ele>281.0</ele>
<speed>3.7</speed>
<course>348.8</course>
<desc>Speed 3.7 km/h Distance 2.40 km</desc>
<time>2010-02-27T10:30:10.76</time>
<name>1713</name>
</trkpt>
<trkpt lat="48.943298" lon="8.646328">
<ele>282.0</ele>
<speed>5.9</speed>
<course>354.7</course>
<desc>Speed 5.9 km/h Distance 2.41 km</desc>
<time>2010-02-27T10:30:11.76</time>
<name>1714</name>
</trkpt>
<trkpt lat="48.943312" lon="8.646327">
<ele>282.0</ele>
<speed>4.7</speed>
<course>341.8</course>
<desc>Speed 4.7 km/h Distance 2.41 km</desc>
<time>2010-02-27T10:30:12.76</time>
<name>1715</name>
</trkpt>
<trkpt lat="48.943322" lon="8.646322">
<ele>280.5</ele>
<speed>3.2</speed>
<course>343.7</course>
<desc>Speed 3.2 km/h Distance 2.41 km</desc>
<time>2010-02-27T10:30:13.76</time>
<name>1716</name>
</trkpt>
<trkpt lat="48.943337" lon="8.646315">
<ele>280.0</ele>
<speed>3.9</speed>
<course>344.0</course>
<desc>Speed 3.9 km/h Distance 2.41 km</desc>
<time>2010-02-27T10:30:14.76</time>
<name>1717</name>
</trkpt>
<trkpt lat="48.943352" lon="8.646308">
<ele>281.0</ele>
<speed>5.3</speed>
<course>346.5</course>
<desc>Speed 5.3 km/h Distance 2.41 km</desc>
<time>2010-02-27T10:30:15.76</time>
<name>1718</name>
</trkpt>
<trkpt lat="48.943365" lon="8.646303">
<ele>279.5</ele>
<speed>4.6</speed>
<course>331.7</course>
<desc>Speed 4.6 km/h Distance 2.41 km</desc>
<time>2010-02-27T10:30:16.76</time>
<name>1719</name>
</trkpt>
<trkpt lat="48.943375" lon="8.646295">
<ele>277.5</ele>
<speed>4.0</speed>
<course>339.1</course>
<desc>Speed 4.0 km/h Distance 2.41 km</desc>
<time>2010-02-27T10:30:17.75</time>
<name>1720</name>
</trkpt>
<trkpt lat="48.943387" lon="8.646288">
<ele>277.0</ele>
<speed>4.5</speed>
<course>1.2</course>
<desc>Speed 4.5 km/h Distance 2.42 km</desc>
<time>2010-02-27T10:30:18.75</time>
<name>1721</name>
</trkpt>
<trkpt lat="48.943400" lon="8.646288">
<ele>277.0</ele>
<speed>3.9</speed>
<course>342.4</course>
<desc>Speed 3.9 km/h Distance 2.42 km</desc>
<time>2010-02-27T10:30:19.75</time>
<name>1722</name>
</trkpt>
<trkpt lat="48.943410" lon="8.646283">
<ele>276.0</ele>
<speed>4.0</speed>
<course>321.9</course>
<desc>Speed 4.0 km/h Distance 2.42 km</desc>
<time>2010-02-27T10:30:20.75</time>
<name>1723</name>
</trkpt>
<trkpt lat="48.943418" lon="8.646273">
<ele>274.5</ele>
<speed>4.2</speed>
<course>339.1</course>
<desc>Speed 4.2 km/h Distance 2.42 km</desc>
<time>2010-02-27T10:30:21.75</time>
<name>1724</name>
</trkpt>
<trkpt lat="48.943430" lon="8.646267">
<ele>273.5</ele>
<speed>4.3</speed>
<course>4.4</course>
<desc>Speed 4.3 km/h Distance 2.42 km</desc>
<time>2010-02-27T10:30:22.75</time>
<name>1725</name>
</trkpt>
<trkpt lat="48.943440" lon="8.646268">
<ele>272.5</ele>
<speed>3.3</speed>
<course>357.2</course>
<desc>Speed 3.3 km/h Distance 2.42 km</desc>
<time>2010-02-27T10:30:23.75</time>
<name>1726</name>
</trkpt>
<trkpt lat="48.943457" lon="8.646267">
<ele>272.0</ele>
<speed>5.7</speed>
<course>2.8</course>
<desc>Speed 5.7 km/h Distance 2.42 km</desc>
<time>2010-02-27T10:30:24.75</time>
<name>1727</name>
</trkpt>
<trkpt lat="48.943473" lon="8.646268">
<ele>273.0</ele>
<speed>6.2</speed>
<course>9.0</course>
<desc>Speed 6.2 km/h Distance 2.43 km</desc>
<time>2010-02-27T10:30:25.75</time>
<name>1728</name>
</trkpt>
<trkpt lat="48.943487" lon="8.646272">
<ele>274.0</ele>
<speed>4.4</speed>
<course>356.2</course>
<desc>Speed 4.4 km/h Distance 2.43 km</desc>
<time>2010-02-27T10:30:26.74</time>
<name>1729</name>
</trkpt>
<trkpt lat="48.943502" lon="8.646270">
<ele>274.5</ele>
<speed>6.2</speed>
<course>357.2</course>
<desc>Speed 6.2 km/h Distance 2.43 km</desc>
<time>2010-02-27T10:30:27.75</time>
<name>1730</name>
</trkpt>
<trkpt lat="48.943518" lon="8.646268">
<ele>275.0</ele>
<speed>5.9</speed>
<course>4.4</course>
<desc>Speed 5.9 km/h Distance 2.43 km</desc>
<time>2010-02-27T10:30:28.74</time>
<name>1731</name>
</trkpt>
<trkpt lat="48.943528" lon="8.646270">
<ele>275.0</ele>
<speed>4.0</speed>
<course>347.4</course>
<desc>Speed 4.0 km/h Distance 2.43 km</desc>
<time>2010-02-27T10:30:29.74</time>
<name>1732</name>
</trkpt>
<trkpt lat="48.943538" lon="8.646267">
<ele>273.5</ele>
<speed>4.2</speed>
<course>352.3</course>
<desc>Speed 4.2 km/h Distance 2.43 km</desc>
<time>2010-02-27T10:30:30.75</time>
<name>1733</name>
</trkpt>
<trkpt lat="48.943547" lon="8.646265">
<ele>272.0</ele>
<speed>2.9</speed>
<course>355.3</course>
<desc>Speed 2.9 km/h Distance 2.43 km</desc>
<time>2010-02-27T10:30:31.74</time>
<name>1734</name>
</trkpt>
<trkpt lat="48.943558" lon="8.646263">
<ele>271.5</ele>
<speed>4.5</speed>
<course>355.0</course>
<desc>Speed 4.5 km/h Distance 2.44 km</desc>
<time>2010-02-27T10:30:32.75</time>
<name>1735</name>
</trkpt>
<trkpt lat="48.943567" lon="8.646262">
<ele>270.5</ele>
<speed>3.7</speed>
<course>0.0</course>
<desc>Speed 3.7 km/h Distance 2.44 km</desc>
<time>2010-02-27T10:30:33.75</time>
<name>1736</name>
</trkpt>
<trkpt lat="48.943573" lon="8.646262">
<ele>270.0</ele>
<speed>2.8</speed>
<course>354.7</course>
<desc>Speed 2.8 km/h Distance 2.44 km</desc>
<time>2010-02-27T10:30:34.74</time>
<name>1737</name>
</trkpt>
<trkpt lat="48.943587" lon="8.646260">
<ele>269.0</ele>
<speed>5.0</speed>
<course>6.6</course>
<desc>Speed 5.0 km/h Distance 2.44 km</desc>
<time>2010-02-27T10:30:35.74</time>
<name>1738</name>
</trkpt>
<trkpt lat="48.943597" lon="8.646262">
<ele>268.5</ele>
<speed>4.0</speed>
<course>355.6</course>
<desc>Speed 4.0 km/h Distance 2.44 km</desc>
<time>2010-02-27T10:30:36.74</time>
<name>1739</name>
</trkpt>
<trkpt lat="48.943607" lon="8.646260">
<ele>267.5</ele>
<speed>3.9</speed>
<course>0.0</course>
<desc>Speed 3.9 km/h Distance 2.44 km</desc>
<time>2010-02-27T10:30:37.74</time>
<name>1740</name>
</trkpt>
<trkpt lat="48.943617" lon="8.646260">
<ele>266.5</ele>
<speed>3.5</speed>
<course>18.1</course>
<desc>Speed 3.5 km/h Distance 2.44 km</desc>
<time>2010-02-27T10:30:38.74</time>
<name>1741</name>
</trkpt>
<trkpt lat="48.943630" lon="8.646267">
<ele>267.5</ele>
<speed>5.1</speed>
<course>9.5</course>
<desc>Speed 5.1 km/h Distance 2.44 km</desc>
<time>2010-02-27T10:30:39.73</time>
<name>1742</name>
</trkpt>
<trkpt lat="48.943642" lon="8.646270">
<ele>268.0</ele>
<speed>5.4</speed>
<course>15.5</course>
<desc>Speed 5.4 km/h Distance 2.45 km</desc>
<time>2010-02-27T10:30:40.75</time>
<name>1743</name>
</trkpt>
<trkpt lat="48.943653" lon="8.646275">
<ele>267.5</ele>
<speed>4.5</speed>
<course>356.1</course>
<desc>Speed 4.5 km/h Distance 2.45 km</desc>
<time>2010-02-27T10:30:41.74</time>
<name>1744</name>
</trkpt>
<trkpt lat="48.943667" lon="8.646273">
<ele>267.0</ele>
<speed>5.0</speed>
<course>11.2</course>
<desc>Speed 5.0 km/h Distance 2.45 km</desc>
<time>2010-02-27T10:30:42.74</time>
<name>1745</name>
</trkpt>
<trkpt lat="48.943678" lon="8.646277">
<ele>268.0</ele>
<speed>4.2</speed>
<course>117.4</course>
<desc>Speed 4.2 km/h Distance 2.45 km</desc>
<time>2010-02-27T10:30:43.74</time>
<name>1746</name>
</trkpt>
<trkpt lat="48.943677" lon="8.646282">
<ele>266.5</ele>
<speed>1.2</speed>
<course>355.6</course>
<desc>Speed 1.2 km/h Distance 2.45 km</desc>
<time>2010-02-27T10:30:44.74</time>
<name>1747</name>
</trkpt>
<trkpt lat="48.943687" lon="8.646280">
<ele>266.0</ele>
<speed>3.7</speed>
<course>12.6</course>
<desc>Speed 3.7 km/h Distance 2.45 km</desc>
<time>2010-02-27T10:30:45.74</time>
<name>1748</name>
</trkpt>
<trkpt lat="48.943688" lon="8.646280">
<ele>266.0</ele>
<speed>0.1</speed>
<course>12.6</course>
<desc>Speed 0.1 km/h Distance 2.45 km</desc>
<time>2010-02-27T10:30:46.74</time>
<name>1749</name>
</trkpt>
<trkpt lat="48.943690" lon="8.646280">
<ele>266.5</ele>
<speed>0.3</speed>
<course>167.4</course>
<desc>Speed 0.3 km/h Distance 2.45 km</desc>
<time>2010-02-27T10:30:47.74</time>
<name>1750</name>
</trkpt>
<trkpt lat="48.943688" lon="8.646280">
<ele>266.0</ele>
<speed>0.2</speed>
<course>167.4</course>
<desc>Speed 0.2 km/h Distance 2.45 km</desc>
<time>2010-02-27T10:30:48.74</time>
<name>1751</name>
</trkpt>
<trkpt lat="48.943688" lon="8.646280">
<ele>265.0</ele>
<speed>0.6</speed>
<course>167.4</course>
<desc>Speed 0.6 km/h Distance 2.45 km</desc>
<time>2010-02-27T10:30:49.77</time>
<name>1752</name>
</trkpt>
<trkpt lat="48.943688" lon="8.646280">
<ele>265.0</ele>
<speed>0.3</speed>
<course>355.0</course>
<desc>Speed 0.3 km/h Distance 2.45 km</desc>
<time>2010-02-27T10:30:50.73</time>
<name>1753</name>
</trkpt>
<trkpt lat="48.943697" lon="8.646278">
<ele>264.5</ele>
<speed>3.0</speed>
<course>4.4</course>
<desc>Speed 3.0 km/h Distance 2.45 km</desc>
<time>2010-02-27T10:30:51.73</time>
<name>1754</name>
</trkpt>
<trkpt lat="48.943707" lon="8.646278">
<ele>264.0</ele>
<speed>3.2</speed>
<course>4.7</course>
<desc>Speed 3.2 km/h Distance 2.45 km</desc>
<time>2010-02-27T10:30:52.74</time>
<name>1755</name>
</trkpt>
<trkpt lat="48.943718" lon="8.646280">
<ele>263.5</ele>
<speed>3.4</speed>
<course>30.6</course>
<desc>Speed 3.4 km/h Distance 2.45 km</desc>
<time>2010-02-27T10:30:53.74</time>
<name>1756</name>
</trkpt>
<trkpt lat="48.943735" lon="8.646295">
<ele>265.5</ele>
<speed>4.8</speed>
<course>347.4</course>
<desc>Speed 4.8 km/h Distance 2.46 km</desc>
<time>2010-02-27T10:30:54.74</time>
<name>1757</name>
</trkpt>
<trkpt lat="48.943745" lon="8.646292">
<ele>264.0</ele>
<speed>4.7</speed>
<course>334.6</course>
<desc>Speed 4.7 km/h Distance 2.46 km</desc>
<time>2010-02-27T10:30:55.74</time>
<name>1758</name>
</trkpt>
<trkpt lat="48.943750" lon="8.646288">
<ele>261.5</ele>
<speed>2.8</speed>
<course>3.8</course>
<desc>Speed 2.8 km/h Distance 2.46 km</desc>
<time>2010-02-27T10:30:56.73</time>
<name>1759</name>
</trkpt>
<trkpt lat="48.943765" lon="8.646288">
<ele>262.5</ele>
<speed>5.1</speed>
<course>357.3</course>
<desc>Speed 5.1 km/h Distance 2.46 km</desc>
<time>2010-02-27T10:30:57.73</time>
<name>1760</name>
</trkpt>
<trkpt lat="48.943785" lon="8.646287">
<ele>264.5</ele>
<speed>5.6</speed>
<course>0.0</course>
<desc>Speed 5.6 km/h Distance 2.46 km</desc>
<time>2010-02-27T10:30:58.73</time>
<name>1761</name>
</trkpt>
<trkpt lat="48.943803" lon="8.646287">
<ele>265.0</ele>
<speed>5.3</speed>
<course>357.3</course>
<desc>Speed 5.3 km/h Distance 2.46 km</desc>
<time>2010-02-27T10:30:59.73</time>
<name>1762</name>
</trkpt>
<trkpt lat="48.943823" lon="8.646285">
<ele>265.5</ele>
<speed>5.7</speed>
<course>345.1</course>
<desc>Speed 5.7 km/h Distance 2.47 km</desc>
<time>2010-02-27T10:31:00.74</time>
<name>1763</name>
</trkpt>
<trkpt lat="48.943840" lon="8.646278">
<ele>265.0</ele>
<speed>4.8</speed>
<course>0.0</course>
<desc>Speed 4.8 km/h Distance 2.47 km</desc>
<time>2010-02-27T10:31:01.72</time>
<name>1764</name>
</trkpt>
<trkpt lat="48.943855" lon="8.646278">
<ele>265.5</ele>
<speed>3.6</speed>
<course>346.5</course>
<desc>Speed 3.6 km/h Distance 2.47 km</desc>
<time>2010-02-27T10:31:02.73</time>
<name>1765</name>
</trkpt>
<trkpt lat="48.943868" lon="8.646273">
<ele>264.5</ele>
<speed>4.6</speed>
<course>5.0</course>
<desc>Speed 4.6 km/h Distance 2.47 km</desc>
<time>2010-02-27T10:31:03.73</time>
<name>1766</name>
</trkpt>
<trkpt lat="48.943883" lon="8.646275">
<ele>265.5</ele>
<speed>4.3</speed>
<course>4.4</course>
<desc>Speed 4.3 km/h Distance 2.47 km</desc>
<time>2010-02-27T10:31:04.72</time>
<name>1767</name>
</trkpt>
<trkpt lat="48.943893" lon="8.646275">
<ele>264.0</ele>
<speed>2.6</speed>
<course>336.2</course>
<desc>Speed 2.6 km/h Distance 2.47 km</desc>
<time>2010-02-27T10:31:05.72</time>
<name>1768</name>
</trkpt>
<trkpt lat="48.943903" lon="8.646268">
<ele>262.5</ele>
<speed>3.9</speed>
<course>345.1</course>
<desc>Speed 3.9 km/h Distance 2.48 km</desc>
<time>2010-02-27T10:31:06.72</time>
<name>1769</name>
</trkpt>
<trkpt lat="48.943915" lon="8.646263">
<ele>261.5</ele>
<speed>4.0</speed>
<course>358.8</course>
<desc>Speed 4.0 km/h Distance 2.48 km</desc>
<time>2010-02-27T10:31:07.72</time>
<name>1770</name>
</trkpt>
<trkpt lat="48.943928" lon="8.646262">
<ele>261.5</ele>
<speed>4.9</speed>
<course>355.0</course>
<desc>Speed 4.9 km/h Distance 2.48 km</desc>
<time>2010-02-27T10:31:08.73</time>
<name>1771</name>
</trkpt>
<trkpt lat="48.943943" lon="8.646260">
<ele>261.0</ele>
<speed>4.5</speed>
<course>351.2</course>
<desc>Speed 4.5 km/h Distance 2.48 km</desc>
<time>2010-02-27T10:31:09.72</time>
<name>1772</name>
</trkpt>
<trkpt lat="48.943958" lon="8.646257">
<ele>260.5</ele>
<speed>4.0</speed>
<course>9.2</course>
<desc>Speed 4.0 km/h Distance 2.48 km</desc>
<time>2010-02-27T10:31:10.72</time>
<name>1773</name>
</trkpt>
<trkpt lat="48.943978" lon="8.646262">
<ele>264.0</ele>
<speed>2.4</speed>
<course>51.9</course>
<desc>Speed 2.4 km/h Distance 2.48 km</desc>
<time>2010-02-27T10:31:11.72</time>
<name>1774</name>
</trkpt>
<trkpt lat="48.943980" lon="8.646265">
<ele>263.0</ele>
<speed>0.8</speed>
<course>12.6</course>
<desc>Speed 0.8 km/h Distance 2.48 km</desc>
<time>2010-02-27T10:31:12.72</time>
<name>1775</name>
</trkpt>
<trkpt lat="48.943982" lon="8.646265">
<ele>263.0</ele>
<speed>0.3</speed>
<course>23.0</course>
<desc>Speed 0.3 km/h Distance 2.48 km</desc>
<time>2010-02-27T10:31:13.80</time>
<name>1776</name>
</trkpt>
<trkpt lat="48.943985" lon="8.646267">
<ele>263.0</ele>
<speed>0.0</speed>
<course>18.8</course>
<desc>Speed 0.0 km/h Distance 2.49 km</desc>
<time>2010-02-27T10:31:14.73</time>
<name>1777</name>
</trkpt>
<trkpt lat="48.943988" lon="8.646268">
<ele>263.0</ele>
<speed>0.5</speed>
<course>18.8</course>
<desc>Speed 0.5 km/h Distance 2.49 km</desc>
<time>2010-02-27T10:31:16.02</time>
<name>1778</name>
</trkpt>
<trkpt lat="48.943992" lon="8.646270">
<ele>263.5</ele>
<speed>0.2</speed>
<course>12.6</course>
<desc>Speed 0.2 km/h Distance 2.49 km</desc>
<time>2010-02-27T10:31:16.72</time>
<name>1779</name>
</trkpt>
<trkpt lat="48.943993" lon="8.646270">
<ele>263.5</ele>
<speed>0.1</speed>
<course>12.6</course>
<desc>Speed 0.1 km/h Distance 2.49 km</desc>
<time>2010-02-27T10:31:17.72</time>
<name>1780</name>
</trkpt>
<trkpt lat="48.943993" lon="8.646270">
<ele>263.5</ele>
<speed>0.3</speed>
<course>12.6</course>
<desc>Speed 0.3 km/h Distance 2.49 km</desc>
<time>2010-02-27T10:31:18.77</time>
<name>1781</name>
</trkpt>
<trkpt lat="48.943993" lon="8.646272">
<ele>263.5</ele>
<speed>0.7</speed>
<course>12.6</course>
<desc>Speed 0.7 km/h Distance 2.49 km</desc>
<time>2010-02-27T10:31:19.72</time>
<name>1782</name>
</trkpt>
<trkpt lat="48.943993" lon="8.646272">
<ele>263.5</ele>
<speed>0.7</speed>
<course>90.0</course>
<desc>Speed 0.7 km/h Distance 2.49 km</desc>
<time>2010-02-27T10:31:20.72</time>
<name>1783</name>
</trkpt>
<trkpt lat="48.943993" lon="8.646275">
<ele>263.0</ele>
<speed>0.9</speed>
<course>26.0</course>
<desc>Speed 0.9 km/h Distance 2.49 km</desc>
<time>2010-02-27T10:31:21.71</time>
<name>1784</name>
</trkpt>
<trkpt lat="48.944007" lon="8.646285">
<ele>268.0</ele>
<speed>1.1</speed>
<course>150.8</course>
<desc>Speed 1.1 km/h Distance 2.49 km</desc>
<time>2010-02-27T10:31:22.71</time>
<name>1785</name>
</trkpt>
<trkpt lat="48.944005" lon="8.646287">
<ele>267.5</ele>
<speed>0.9</speed>
<course>36.2</course>
<desc>Speed 0.9 km/h Distance 2.49 km</desc>
<time>2010-02-27T10:31:23.71</time>
<name>1786</name>
</trkpt>
<trkpt lat="48.944020" lon="8.646303">
<ele>272.0</ele>
<speed>2.6</speed>
<course>75.6</course>
<desc>Speed 2.6 km/h Distance 2.49 km</desc>
<time>2010-02-27T10:31:24.71</time>
<name>1787</name>
</trkpt>
<trkpt lat="48.944022" lon="8.646313">
<ele>273.0</ele>
<speed>2.6</speed>
<course>17.5</course>
<desc>Speed 2.6 km/h Distance 2.49 km</desc>
<time>2010-02-27T10:31:25.71</time>
<name>1788</name>
</trkpt>
<trkpt lat="48.944028" lon="8.646317">
<ele>273.5</ele>
<speed>0.8</speed>
<course>23.8</course>
<desc>Speed 0.8 km/h Distance 2.49 km</desc>
<time>2010-02-27T10:31:26.71</time>
<name>1789</name>
</trkpt>
<trkpt lat="48.944033" lon="8.646320">
<ele>274.5</ele>
<speed>0.4</speed>
<course>12.6</course>
<desc>Speed 0.4 km/h Distance 2.49 km</desc>
<time>2010-02-27T10:31:27.70</time>
<name>1790</name>
</trkpt>
<trkpt lat="48.944037" lon="8.646322">
<ele>274.5</ele>
<speed>0.3</speed>
<course>51.9</course>
<desc>Speed 0.3 km/h Distance 2.49 km</desc>
<time>2010-02-27T10:31:28.70</time>
<name>1791</name>
</trkpt>
<trkpt lat="48.944038" lon="8.646325">
<ele>274.0</ele>
<speed>0.3</speed>
<course>69.1</course>
<desc>Speed 0.3 km/h Distance 2.49 km</desc>
<time>2010-02-27T10:31:29.70</time>
<name>1792</name>
</trkpt>
<trkpt lat="48.944040" lon="8.646332">
<ele>273.0</ele>
<speed>1.3</speed>
<course>90.0</course>
<desc>Speed 1.3 km/h Distance 2.49 km</desc>
<time>2010-02-27T10:31:30.71</time>
<name>1793</name>
</trkpt>
<trkpt lat="48.944040" lon="8.646352">
<ele>275.0</ele>
<speed>1.0</speed>
<course>90.0</course>
<desc>Speed 1.0 km/h Distance 2.50 km</desc>
<time>2010-02-27T10:31:31.70</time>
<name>1794</name>
</trkpt>
<trkpt lat="48.944040" lon="8.646352">
<ele>275.0</ele>
<speed>0.1</speed>
<course>90.0</course>
<desc>Speed 0.1 km/h Distance 2.50 km</desc>
<time>2010-02-27T10:31:32.69</time>
<name>1795</name>
</trkpt>
<trkpt lat="48.944040" lon="8.646352">
<ele>275.0</ele>
<speed>0.4</speed>
<course>62.6</course>
<desc>Speed 0.4 km/h Distance 2.50 km</desc>
<time>2010-02-27T10:31:33.69</time>
<name>1796</name>
</trkpt>
<trkpt lat="48.944042" lon="8.646357">
<ele>275.0</ele>
<speed>0.3</speed>
<course>255.6</course>
<desc>Speed 0.3 km/h Distance 2.50 km</desc>
<time>2010-02-27T10:31:34.70</time>
<name>1797</name>
</trkpt>
<trkpt lat="48.944040" lon="8.646347">
<ele>274.0</ele>
<speed>2.4</speed>
<course>341.2</course>
<desc>Speed 2.4 km/h Distance 2.50 km</desc>
<time>2010-02-27T10:31:35.96</time>
<name>1798</name>
</trkpt>
<trkpt lat="48.944043" lon="8.646345">
<ele>274.0</ele>
<speed>0.7</speed>
<course>90.0</course>
<desc>Speed 0.7 km/h Distance 2.50 km</desc>
<time>2010-02-27T10:31:36.73</time>
<name>1799</name>
</trkpt>
<trkpt lat="48.944043" lon="8.646348">
<ele>274.5</ele>
<speed>0.3</speed>
<course>308.1</course>
<desc>Speed 0.3 km/h Distance 2.50 km</desc>
<time>2010-02-27T10:31:37.77</time>
<name>1800</name>
</trkpt>
<trkpt lat="48.944045" lon="8.646345">
<ele>274.5</ele>
<speed>0.9</speed>
<course>0.0</course>
<desc>Speed 0.9 km/h Distance 2.50 km</desc>
<time>2010-02-27T10:31:39.22</time>
<name>1801</name>
</trkpt>
<trkpt lat="48.944050" lon="8.646345">
<ele>275.0</ele>
<speed>1.7</speed>
<course>301.4</course>
<desc>Speed 1.7 km/h Distance 2.50 km</desc>
<time>2010-02-27T10:31:39.74</time>
<name>1802</name>
</trkpt>
<trkpt lat="48.944053" lon="8.646337">
<ele>275.0</ele>
<speed>2.3</speed>
<course>333.6</course>
<desc>Speed 2.3 km/h Distance 2.50 km</desc>
<time>2010-02-27T10:31:40.75</time>
<name>1803</name>
</trkpt>
<trkpt lat="48.944060" lon="8.646332">
<ele>275.0</ele>
<speed>3.1</speed>
<course>307.0</course>
<desc>Speed 3.1 km/h Distance 2.50 km</desc>
<time>2010-02-27T10:31:41.74</time>
<name>1804</name>
</trkpt>
<trkpt lat="48.944063" lon="8.646325">
<ele>275.0</ele>
<speed>1.9</speed>
<course>290.5</course>
<desc>Speed 1.9 km/h Distance 2.50 km</desc>
<time>2010-02-27T10:31:43.36</time>
<name>1805</name>
</trkpt>
<trkpt lat="48.944065" lon="8.646318">
<ele>275.5</ele>
<speed>1.7</speed>
<course>315.5</course>
<desc>Speed 1.7 km/h Distance 2.50 km</desc>
<time>2010-02-27T10:31:43.79</time>
<name>1806</name>
</trkpt>
<trkpt lat="48.944068" lon="8.646313">
<ele>275.5</ele>
<speed>1.7</speed>
<course>310.9</course>
<desc>Speed 1.7 km/h Distance 2.50 km</desc>
<time>2010-02-27T10:31:44.79</time>
<name>1807</name>
</trkpt>
<trkpt lat="48.944075" lon="8.646302">
<ele>276.0</ele>
<speed>2.7</speed>
<course>310.9</course>
<desc>Speed 2.7 km/h Distance 2.50 km</desc>
<time>2010-02-27T10:31:45.79</time>
<name>1808</name>
</trkpt>
<trkpt lat="48.944082" lon="8.646290">
<ele>276.0</ele>
<speed>2.0</speed>
<course>317.4</course>
<desc>Speed 2.0 km/h Distance 2.50 km</desc>
<time>2010-02-27T10:31:46.79</time>
<name>1809</name>
</trkpt>
<trkpt lat="48.944090" lon="8.646278">
<ele>276.5</ele>
<speed>1.9</speed>
<course>25.6</course>
<desc>Speed 1.9 km/h Distance 2.50 km</desc>
<time>2010-02-27T10:31:47.79</time>
<name>1810</name>
</trkpt>
<trkpt lat="48.944097" lon="8.646283">
<ele>277.5</ele>
<speed>0.6</speed>
<course>341.2</course>
<desc>Speed 0.6 km/h Distance 2.51 km</desc>
<time>2010-02-27T10:31:49.79</time>
<name>1811</name>
</trkpt>
<trkpt lat="48.944100" lon="8.646282">
<ele>277.5</ele>
<speed>0.2</speed>
<course>297.2</course>
<desc>Speed 0.2 km/h Distance 2.51 km</desc>
<time>2010-02-27T10:31:50.79</time>
<name>1812</name>
</trkpt>
<trkpt lat="48.944103" lon="8.646272">
<ele>277.0</ele>
<speed>2.1</speed>
<course>294.6</course>
<desc>Speed 2.1 km/h Distance 2.51 km</desc>
<time>2010-02-27T10:31:52.97</time>
<name>1813</name>
</trkpt>
<trkpt lat="48.944108" lon="8.646255">
<ele>275.5</ele>
<speed>2.1</speed>
<course>33.7</course>
<desc>Speed 2.1 km/h Distance 2.51 km</desc>
<time>2010-02-27T10:31:53.81</time>
<name>1814</name>
</trkpt>
<trkpt lat="48.944112" lon="8.646258">
<ele>275.5</ele>
<speed>1.6</speed>
<course>167.4</course>
<desc>Speed 1.6 km/h Distance 2.51 km</desc>
<time>2010-02-27T10:31:54.81</time>
<name>1815</name>
</trkpt>
<trkpt lat="48.944110" lon="8.646258">
<ele>275.5</ele>
<speed>1.3</speed>
<course>290.8</course>
<desc>Speed 1.3 km/h Distance 2.51 km</desc>
<time>2010-02-27T10:31:57.84</time>
<name>1816</name>
</trkpt>
<trkpt lat="48.944113" lon="8.646245">
<ele>274.5</ele>
<speed>0.7</speed>
<course>1.2</course>
<desc>Speed 0.7 km/h Distance 2.51 km</desc>
<time>2010-02-27T10:31:58.85</time>
<name>1817</name>
</trkpt>
<trkpt lat="48.944120" lon="8.646245">
<ele>274.5</ele>
<speed>1.5</speed>
<course>12.6</course>
<desc>Speed 1.5 km/h Distance 2.51 km</desc>
<time>2010-02-27T10:31:59.90</time>
<name>1818</name>
</trkpt>
<trkpt lat="48.944130" lon="8.646248">
<ele>274.5</ele>
<speed>2.0</speed>
<course>344.1</course>
<desc>Speed 2.0 km/h Distance 2.51 km</desc>
<time>2010-02-27T10:32:00.85</time>
<name>1819</name>
</trkpt>
<trkpt lat="48.944138" lon="8.646245">
<ele>274.5</ele>
<speed>0.5</speed>
<course>344.1</course>
<desc>Speed 0.5 km/h Distance 2.51 km</desc>
<time>2010-02-27T10:32:01.86</time>
<name>1820</name>
</trkpt>
<trkpt lat="48.944138" lon="8.646245">
<ele>274.5</ele>
<speed>0.6</speed>
<course>51.9</course>
<desc>Speed 0.6 km/h Distance 2.51 km</desc>
<time>2010-02-27T10:32:03.00</time>
<name>1821</name>
</trkpt>
<trkpt lat="48.944140" lon="8.646248">
<ele>274.5</ele>
<speed>0.4</speed>
<course>22.3</course>
<desc>Speed 0.4 km/h Distance 2.51 km</desc>
<time>2010-02-27T10:32:03.97</time>
<name>1822</name>
</trkpt>
<trkpt lat="48.944153" lon="8.646257">
<ele>274.5</ele>
<speed>4.7</speed>
<course>20.6</course>
<desc>Speed 4.7 km/h Distance 2.51 km</desc>
<time>2010-02-27T10:32:04.93</time>
<name>1823</name>
</trkpt>
<trkpt lat="48.944165" lon="8.646263">
<ele>274.5</ele>
<speed>4.4</speed>
<course>301.4</course>
<desc>Speed 4.4 km/h Distance 2.52 km</desc>
<time>2010-02-27T10:32:05.98</time>
<name>1824</name>
</trkpt>
<trkpt lat="48.944168" lon="8.646255">
<ele>275.0</ele>
<speed>3.1</speed>
<course>342.5</course>
<desc>Speed 3.1 km/h Distance 2.52 km</desc>
<time>2010-02-27T10:32:06.95</time>
<name>1825</name>
</trkpt>
<trkpt lat="48.944175" lon="8.646252">
<ele>275.0</ele>
<speed>2.5</speed>
<course>347.4</course>
<desc>Speed 2.5 km/h Distance 2.52 km</desc>
<time>2010-02-27T10:32:08.34</time>
<name>1826</name>
</trkpt>
<trkpt lat="48.944178" lon="8.646250">
<ele>275.0</ele>
<speed>2.5</speed>
<course>357.2</course>
<desc>Speed 2.5 km/h Distance 2.52 km</desc>
<time>2010-02-27T10:32:08.96</time>
<name>1827</name>
</trkpt>
<trkpt lat="48.944195" lon="8.646248">
<ele>275.5</ele>
<speed>3.0</speed>
<course>340.3</course>
<desc>Speed 3.0 km/h Distance 2.52 km</desc>
<time>2010-02-27T10:32:09.96</time>
<name>1828</name>
</trkpt>
<trkpt lat="48.944213" lon="8.646238">
<ele>276.0</ele>
<speed>4.1</speed>
<course>3.7</course>
<desc>Speed 4.1 km/h Distance 2.52 km</desc>
<time>2010-02-27T10:32:10.97</time>
<name>1829</name>
</trkpt>
<trkpt lat="48.944232" lon="8.646240">
<ele>276.5</ele>
<speed>4.5</speed>
<course>2.7</course>
<desc>Speed 4.5 km/h Distance 2.52 km</desc>
<time>2010-02-27T10:32:11.98</time>
<name>1830</name>
</trkpt>
<trkpt lat="48.944252" lon="8.646242">
<ele>277.0</ele>
<speed>4.5</speed>
<course>19.3</course>
<desc>Speed 4.5 km/h Distance 2.53 km</desc>
<time>2010-02-27T10:32:12.98</time>
<name>1831</name>
</trkpt>
<trkpt lat="48.944277" lon="8.646255">
<ele>277.5</ele>
<speed>6.6</speed>
<course>345.1</course>
<desc>Speed 6.6 km/h Distance 2.53 km</desc>
<time>2010-02-27T10:32:13.98</time>
<name>1832</name>
</trkpt>
<trkpt lat="48.944293" lon="8.646248">
<ele>277.5</ele>
<speed>6.2</speed>
<course>348.8</course>
<desc>Speed 6.2 km/h Distance 2.53 km</desc>
<time>2010-02-27T10:32:14.98</time>
<name>1833</name>
</trkpt>
<trkpt lat="48.944310" lon="8.646243">
<ele>277.5</ele>
<speed>5.7</speed>
<course>357.2</course>
<desc>Speed 5.7 km/h Distance 2.53 km</desc>
<time>2010-02-27T10:32:15.98</time>
<name>1834</name>
</trkpt>
<trkpt lat="48.944375" lon="8.646238">
<ele>280.0</ele>
<speed>9.6</speed>
<course>169.6</course>
<desc>Speed 9.6 km/h Distance 2.54 km</desc>
<time>2010-02-27T10:32:17.98</time>
<name>1835</name>
</trkpt>
<trkpt lat="48.944345" lon="8.646247">
<ele>280.5</ele>
<speed>11.3</speed>
<course>157.4</course>
<desc>Speed 11.3 km/h Distance 2.54 km</desc>
<time>2010-02-27T10:32:19.22</time>
<name>1836</name>
</trkpt>
<trkpt lat="48.944332" lon="8.646255">
<ele>282.0</ele>
<speed>5.0</speed>
<course>198.2</course>
<desc>Speed 5.0 km/h Distance 2.55 km</desc>
<time>2010-02-27T10:32:20.98</time>
<name>1837</name>
</trkpt>
<trkpt lat="48.944322" lon="8.646250">
<ele>283.0</ele>
<speed>5.0</speed>
<course>287.0</course>
<desc>Speed 5.0 km/h Distance 2.55 km</desc>
<time>2010-02-27T10:32:21.98</time>
<name>1838</name>
</trkpt>
<trkpt lat="48.944325" lon="8.646233">
<ele>283.0</ele>
<speed>2.6</speed>
<course>315.5</course>
<desc>Speed 2.6 km/h Distance 2.55 km</desc>
<time>2010-02-27T10:32:22.98</time>
<name>1839</name>
</trkpt>
<trkpt lat="48.944332" lon="8.646223">
<ele>283.0</ele>
<speed>3.2</speed>
<course>20.9</course>
<desc>Speed 3.2 km/h Distance 2.55 km</desc>
<time>2010-02-27T10:32:23.98</time>
<name>1840</name>
</trkpt>
<trkpt lat="48.944343" lon="8.646230">
<ele>285.0</ele>
<speed>5.4</speed>
<course>331.4</course>
<desc>Speed 5.4 km/h Distance 2.55 km</desc>
<time>2010-02-27T10:32:24.98</time>
<name>1841</name>
</trkpt>
<trkpt lat="48.944353" lon="8.646222">
<ele>284.5</ele>
<speed>4.2</speed>
<course>0.0</course>
<desc>Speed 4.2 km/h Distance 2.55 km</desc>
<time>2010-02-27T10:32:25.98</time>
<name>1842</name>
</trkpt>
<trkpt lat="48.944362" lon="8.646222">
<ele>284.5</ele>
<speed>2.6</speed>
<course>356.1</course>
<desc>Speed 2.6 km/h Distance 2.55 km</desc>
<time>2010-02-27T10:32:26.98</time>
<name>1843</name>
</trkpt>
<trkpt lat="48.944375" lon="8.646220">
<ele>284.5</ele>
<speed>3.7</speed>
<course>3.8</course>
<desc>Speed 3.7 km/h Distance 2.55 km</desc>
<time>2010-02-27T10:32:27.98</time>
<name>1844</name>
</trkpt>
<trkpt lat="48.944390" lon="8.646222">
<ele>285.0</ele>
<speed>4.3</speed>
<course>352.3</course>
<desc>Speed 4.3 km/h Distance 2.56 km</desc>
<time>2010-02-27T10:32:28.98</time>
<name>1845</name>
</trkpt>
<trkpt lat="48.944407" lon="8.646218">
<ele>285.0</ele>
<speed>4.0</speed>
<course>9.6</course>
<desc>Speed 4.0 km/h Distance 2.56 km</desc>
<time>2010-02-27T10:32:29.98</time>
<name>1846</name>
</trkpt>
<trkpt lat="48.944415" lon="8.646220">
<ele>285.5</ele>
<speed>3.6</speed>
<course>355.0</course>
<desc>Speed 3.6 km/h Distance 2.56 km</desc>
<time>2010-02-27T10:32:30.98</time>
<name>1847</name>
</trkpt>
<trkpt lat="48.944423" lon="8.646218">
<ele>285.0</ele>
<speed>2.2</speed>
<course>24.8</course>
<desc>Speed 2.2 km/h Distance 2.56 km</desc>
<time>2010-02-27T10:32:31.98</time>
<name>1848</name>
</trkpt>
<trkpt lat="48.944430" lon="8.646223">
<ele>284.5</ele>
<speed>1.2</speed>
<course>11.6</course>
<desc>Speed 1.2 km/h Distance 2.56 km</desc>
<time>2010-02-27T10:32:32.98</time>
<name>1849</name>
</trkpt>
<trkpt lat="48.944440" lon="8.646227">
<ele>284.0</ele>
<speed>1.2</speed>
<course>14.9</course>
<desc>Speed 1.2 km/h Distance 2.56 km</desc>
<time>2010-02-27T10:32:33.98</time>
<name>1850</name>
</trkpt>
<trkpt lat="48.944448" lon="8.646230">
<ele>283.0</ele>
<speed>2.0</speed>
<course>11.7</course>
<desc>Speed 2.0 km/h Distance 2.56 km</desc>
<time>2010-02-27T10:32:34.98</time>
<name>1851</name>
</trkpt>
<trkpt lat="48.944463" lon="8.646235">
<ele>283.0</ele>
<speed>4.1</speed>
<course>4.4</course>
<desc>Speed 4.1 km/h Distance 2.56 km</desc>
<time>2010-02-27T10:32:35.98</time>
<name>1852</name>
</trkpt>
<trkpt lat="48.944473" lon="8.646237">
<ele>283.0</ele>
<speed>3.6</speed>
<course>66.5</course>
<desc>Speed 3.6 km/h Distance 2.56 km</desc>
<time>2010-02-27T10:32:36.98</time>
<name>1853</name>
</trkpt>
<trkpt lat="48.944477" lon="8.646248">
<ele>281.0</ele>
<speed>2.2</speed>
<course>23.3</course>
<desc>Speed 2.2 km/h Distance 2.57 km</desc>
<time>2010-02-27T10:32:37.98</time>
<name>1854</name>
</trkpt>
<trkpt lat="48.944530" lon="8.646283">
<ele>289.0</ele>
<speed>3.3</speed>
<course>23.7</course>
<desc>Speed 3.3 km/h Distance 2.57 km</desc>
<time>2010-02-27T10:32:39.98</time>
<name>1855</name>
</trkpt>
<trkpt lat="48.944545" lon="8.646293">
<ele>288.0</ele>
<speed>2.6</speed>
<course>3.9</course>
<desc>Speed 2.6 km/h Distance 2.57 km</desc>
<time>2010-02-27T10:32:40.98</time>
<name>1856</name>
</trkpt>
<trkpt lat="48.944558" lon="8.646295">
<ele>285.5</ele>
<speed>2.5</speed>
<course>19.9</course>
<desc>Speed 2.5 km/h Distance 2.58 km</desc>
<time>2010-02-27T10:32:41.98</time>
<name>1857</name>
</trkpt>
<trkpt lat="48.944573" lon="8.646303">
<ele>284.5</ele>
<speed>2.4</speed>
<course>47.6</course>
<desc>Speed 2.4 km/h Distance 2.58 km</desc>
<time>2010-02-27T10:32:42.98</time>
<name>1858</name>
</trkpt>
<trkpt lat="48.944583" lon="8.646320">
<ele>284.0</ele>
<speed>2.7</speed>
<course>24.7</course>
<desc>Speed 2.7 km/h Distance 2.58 km</desc>
<time>2010-02-27T10:32:43.98</time>
<name>1859</name>
</trkpt>
<trkpt lat="48.944600" lon="8.646332">
<ele>283.0</ele>
<speed>2.6</speed>
<course>21.6</course>
<desc>Speed 2.6 km/h Distance 2.58 km</desc>
<time>2010-02-27T10:32:44.98</time>
<name>1860</name>
</trkpt>
<trkpt lat="48.944617" lon="8.646342">
<ele>283.5</ele>
<speed>3.2</speed>
<course>22.3</course>
<desc>Speed 3.2 km/h Distance 2.58 km</desc>
<time>2010-02-27T10:32:45.98</time>
<name>1861</name>
</trkpt>
<trkpt lat="48.944630" lon="8.646350">
<ele>282.5</ele>
<speed>3.2</speed>
<course>12.6</course>
<desc>Speed 3.2 km/h Distance 2.58 km</desc>
<time>2010-02-27T10:32:46.98</time>
<name>1862</name>
</trkpt>
<trkpt lat="48.944645" lon="8.646355">
<ele>281.5</ele>
<speed>2.7</speed>
<course>2.2</course>
<desc>Speed 2.7 km/h Distance 2.59 km</desc>
<time>2010-02-27T10:32:47.98</time>
<name>1863</name>
</trkpt>
<trkpt lat="48.944657" lon="8.646355">
<ele>279.5</ele>
<speed>3.2</speed>
<course>3.8</course>
<desc>Speed 3.2 km/h Distance 2.59 km</desc>
<time>2010-02-27T10:32:48.98</time>
<name>1864</name>
</trkpt>
<trkpt lat="48.944672" lon="8.646357">
<ele>278.5</ele>
<speed>3.9</speed>
<course>0.0</course>
<desc>Speed 3.9 km/h Distance 2.59 km</desc>
<time>2010-02-27T10:32:49.98</time>
<name>1865</name>
</trkpt>
<trkpt lat="48.944697" lon="8.646357">
<ele>280.0</ele>
<speed>4.1</speed>
<course>13.5</course>
<desc>Speed 4.1 km/h Distance 2.59 km</desc>
<time>2010-02-27T10:32:50.98</time>
<name>1866</name>
</trkpt>
<trkpt lat="48.944710" lon="8.646362">
<ele>280.5</ele>
<speed>4.0</speed>
<course>9.7</course>
<desc>Speed 4.0 km/h Distance 2.59 km</desc>
<time>2010-02-27T10:32:51.98</time>
<name>1867</name>
</trkpt>
<trkpt lat="48.944723" lon="8.646365">
<ele>280.5</ele>
<speed>4.1</speed>
<course>350.4</course>
<desc>Speed 4.1 km/h Distance 2.60 km</desc>
<time>2010-02-27T10:32:52.98</time>
<name>1868</name>
</trkpt>
<trkpt lat="48.944732" lon="8.646363">
<ele>279.0</ele>
<speed>2.1</speed>
<course>4.4</course>
<desc>Speed 2.1 km/h Distance 2.60 km</desc>
<time>2010-02-27T10:32:53.98</time>
<name>1869</name>
</trkpt>
<trkpt lat="48.944742" lon="8.646363">
<ele>277.5</ele>
<speed>2.7</speed>
<course>341.8</course>
<desc>Speed 2.7 km/h Distance 2.60 km</desc>
<time>2010-02-27T10:32:54.98</time>
<name>1870</name>
</trkpt>
<trkpt lat="48.944752" lon="8.646358">
<ele>276.0</ele>
<speed>2.6</speed>
<course>5.0</course>
<desc>Speed 2.6 km/h Distance 2.60 km</desc>
<time>2010-02-27T10:32:55.98</time>
<name>1871</name>
</trkpt>
<trkpt lat="48.944760" lon="8.646360">
<ele>274.5</ele>
<speed>2.3</speed>
<course>18.2</course>
<desc>Speed 2.3 km/h Distance 2.60 km</desc>
<time>2010-02-27T10:32:56.98</time>
<name>1872</name>
</trkpt>
<trkpt lat="48.944770" lon="8.646365">
<ele>274.5</ele>
<speed>3.7</speed>
<course>6.6</course>
<desc>Speed 3.7 km/h Distance 2.60 km</desc>
<time>2010-02-27T10:32:57.98</time>
<name>1873</name>
</trkpt>
<trkpt lat="48.944780" lon="8.646367">
<ele>274.0</ele>
<speed>2.9</speed>
<course>14.9</course>
<desc>Speed 2.9 km/h Distance 2.60 km</desc>
<time>2010-02-27T10:32:58.98</time>
<name>1874</name>
</trkpt>
<trkpt lat="48.944788" lon="8.646370">
<ele>273.0</ele>
<speed>2.9</speed>
<course>29.2</course>
<desc>Speed 2.9 km/h Distance 2.60 km</desc>
<time>2010-02-27T10:32:59.98</time>
<name>1875</name>
</trkpt>
<trkpt lat="48.944800" lon="8.646380">
<ele>274.5</ele>
<speed>4.5</speed>
<course>14.3</course>
<desc>Speed 4.5 km/h Distance 2.60 km</desc>
<time>2010-02-27T10:33:00.98</time>
<name>1876</name>
</trkpt>
<trkpt lat="48.944817" lon="8.646387">
<ele>276.0</ele>
<speed>5.3</speed>
<course>18.2</course>
<desc>Speed 5.3 km/h Distance 2.61 km</desc>
<time>2010-02-27T10:33:01.98</time>
<name>1877</name>
</trkpt>
<trkpt lat="48.944827" lon="8.646392">
<ele>276.5</ele>
<speed>4.0</speed>
<course>36.1</course>
<desc>Speed 4.0 km/h Distance 2.61 km</desc>
<time>2010-02-27T10:33:02.98</time>
<name>1878</name>
</trkpt>
<trkpt lat="48.944842" lon="8.646408">
<ele>278.0</ele>
<speed>6.8</speed>
<course>39.4</course>
<desc>Speed 6.8 km/h Distance 2.61 km</desc>
<time>2010-02-27T10:33:03.98</time>
<name>1879</name>
</trkpt>
<trkpt lat="48.944855" lon="8.646425">
<ele>280.0</ele>
<speed>5.0</speed>
<course>28.6</course>
<desc>Speed 5.0 km/h Distance 2.61 km</desc>
<time>2010-02-27T10:33:04.98</time>
<name>1880</name>
</trkpt>
<trkpt lat="48.944865" lon="8.646433">
<ele>280.5</ele>
<speed>4.0</speed>
<course>16.0</course>
<desc>Speed 4.0 km/h Distance 2.61 km</desc>
<time>2010-02-27T10:33:05.98</time>
<name>1881</name>
</trkpt>
<trkpt lat="48.944877" lon="8.646438">
<ele>280.0</ele>
<speed>3.2</speed>
<course>12.6</course>
<desc>Speed 3.2 km/h Distance 2.61 km</desc>
<time>2010-02-27T10:33:06.98</time>
<name>1882</name>
</trkpt>
<trkpt lat="48.944887" lon="8.646442">
<ele>279.5</ele>
<speed>3.4</speed>
<course>28.9</course>
<desc>Speed 3.4 km/h Distance 2.61 km</desc>
<time>2010-02-27T10:33:07.98</time>
<name>1883</name>
</trkpt>
<trkpt lat="48.944897" lon="8.646450">
<ele>278.0</ele>
<speed>3.1</speed>
<course>22.6</course>
<desc>Speed 3.1 km/h Distance 2.62 km</desc>
<time>2010-02-27T10:33:08.98</time>
<name>1884</name>
</trkpt>
<trkpt lat="48.944910" lon="8.646458">
<ele>278.0</ele>
<speed>4.4</speed>
<course>14.9</course>
<desc>Speed 4.4 km/h Distance 2.62 km</desc>
<time>2010-02-27T10:33:09.98</time>
<name>1885</name>
</trkpt>
<trkpt lat="48.944927" lon="8.646465">
<ele>278.5</ele>
<speed>5.9</speed>
<course>2.8</course>
<desc>Speed 5.9 km/h Distance 2.62 km</desc>
<time>2010-02-27T10:33:10.98</time>
<name>1886</name>
</trkpt>
<trkpt lat="48.944943" lon="8.646467">
<ele>279.0</ele>
<speed>5.8</speed>
<course>4.7</course>
<desc>Speed 5.8 km/h Distance 2.62 km</desc>
<time>2010-02-27T10:33:11.98</time>
<name>1887</name>
</trkpt>
<trkpt lat="48.944955" lon="8.646468">
<ele>278.0</ele>
<speed>4.4</speed>
<course>0.0</course>
<desc>Speed 4.4 km/h Distance 2.62 km</desc>
<time>2010-02-27T10:33:12.98</time>
<name>1888</name>
</trkpt>
<trkpt lat="48.944963" lon="8.646468">
<ele>276.5</ele>
<speed>2.8</speed>
<course>20.1</course>
<desc>Speed 2.8 km/h Distance 2.62 km</desc>
<time>2010-02-27T10:33:13.98</time>
<name>1889</name>
</trkpt>
<trkpt lat="48.944972" lon="8.646473">
<ele>275.0</ele>
<speed>3.7</speed>
<course>9.0</course>
<desc>Speed 3.7 km/h Distance 2.62 km</desc>
<time>2010-02-27T10:33:14.98</time>
<name>1890</name>
</trkpt>
<trkpt lat="48.944985" lon="8.646477">
<ele>274.5</ele>
<speed>4.7</speed>
<course>13.5</course>
<desc>Speed 4.7 km/h Distance 2.63 km</desc>
<time>2010-02-27T10:33:15.98</time>
<name>1891</name>
</trkpt>
<trkpt lat="48.944998" lon="8.646482">
<ele>274.0</ele>
<speed>5.1</speed>
<course>10.8</course>
<desc>Speed 5.1 km/h Distance 2.63 km</desc>
<time>2010-02-27T10:33:16.98</time>
<name>1892</name>
</trkpt>
<trkpt lat="48.945015" lon="8.646487">
<ele>274.5</ele>
<speed>6.5</speed>
<course>18.1</course>
<desc>Speed 6.5 km/h Distance 2.63 km</desc>
<time>2010-02-27T10:33:17.98</time>
<name>1893</name>
</trkpt>
<trkpt lat="48.945028" lon="8.646493">
<ele>275.0</ele>
<speed>5.0</speed>
<course>11.2</course>
<desc>Speed 5.0 km/h Distance 2.63 km</desc>
<time>2010-02-27T10:33:18.98</time>
<name>1894</name>
</trkpt>
<trkpt lat="48.945045" lon="8.646498">
<ele>275.5</ele>
<speed>5.6</speed>
<course>13.5</course>
<desc>Speed 5.6 km/h Distance 2.63 km</desc>
<time>2010-02-27T10:33:19.98</time>
<name>1895</name>
</trkpt>
<trkpt lat="48.945058" lon="8.646503">
<ele>275.5</ele>
<speed>5.5</speed>
<course>13.5</course>
<desc>Speed 5.5 km/h Distance 2.63 km</desc>
<time>2010-02-27T10:33:20.98</time>
<name>1896</name>
</trkpt>
<trkpt lat="48.945072" lon="8.646508">
<ele>274.5</ele>
<speed>3.9</speed>
<course>7.7</course>
<desc>Speed 3.9 km/h Distance 2.64 km</desc>
<time>2010-02-27T10:33:21.98</time>
<name>1897</name>
</trkpt>
<trkpt lat="48.945088" lon="8.646512">
<ele>274.5</ele>
<speed>5.9</speed>
<course>11.2</course>
<desc>Speed 5.9 km/h Distance 2.64 km</desc>
<time>2010-02-27T10:33:22.98</time>
<name>1898</name>
</trkpt>
<trkpt lat="48.945100" lon="8.646515">
<ele>274.0</ele>
<speed>4.8</speed>
<course>1.2</course>
<desc>Speed 4.8 km/h Distance 2.64 km</desc>
<time>2010-02-27T10:33:23.98</time>
<name>1899</name>
</trkpt>
<trkpt lat="48.945113" lon="8.646517">
<ele>273.5</ele>
<speed>4.8</speed>
<course>4.7</course>
<desc>Speed 4.8 km/h Distance 2.64 km</desc>
<time>2010-02-27T10:33:24.98</time>
<name>1900</name>
</trkpt>
<trkpt lat="48.945125" lon="8.646518">
<ele>272.5</ele>
<speed>4.8</speed>
<course>12.2</course>
<desc>Speed 4.8 km/h Distance 2.64 km</desc>
<time>2010-02-27T10:33:25.98</time>
<name>1901</name>
</trkpt>
<trkpt lat="48.945140" lon="8.646523">
<ele>273.0</ele>
<speed>4.9</speed>
<course>7.5</course>
<desc>Speed 4.9 km/h Distance 2.64 km</desc>
<time>2010-02-27T10:33:26.98</time>
<name>1902</name>
</trkpt>
<trkpt lat="48.945155" lon="8.646527">
<ele>274.0</ele>
<speed>5.6</speed>
<course>4.7</course>
<desc>Speed 5.6 km/h Distance 2.65 km</desc>
<time>2010-02-27T10:33:27.98</time>
<name>1903</name>
</trkpt>
<trkpt lat="48.945167" lon="8.646528">
<ele>273.5</ele>
<speed>4.1</speed>
<course>13.8</course>
<desc>Speed 4.1 km/h Distance 2.65 km</desc>
<time>2010-02-27T10:33:28.98</time>
<name>1904</name>
</trkpt>
<trkpt lat="48.945175" lon="8.646532">
<ele>273.5</ele>
<speed>3.3</speed>
<course>47.8</course>
<desc>Speed 3.3 km/h Distance 2.65 km</desc>
<time>2010-02-27T10:33:29.98</time>
<name>1905</name>
</trkpt>
<trkpt lat="48.945180" lon="8.646540">
<ele>274.5</ele>
<speed>1.5</speed>
<course>90.0</course>
<desc>Speed 1.5 km/h Distance 2.65 km</desc>
<time>2010-02-27T10:33:30.98</time>
<name>1906</name>
</trkpt>
<trkpt lat="48.945180" lon="8.646543">
<ele>274.5</ele>
<speed>1.1</speed>
<course>90.0</course>
<desc>Speed 1.1 km/h Distance 2.65 km</desc>
<time>2010-02-27T10:33:31.98</time>
<name>1907</name>
</trkpt>
<trkpt lat="48.945180" lon="8.646547">
<ele>275.0</ele>
<speed>0.3</speed>
<course>246.6</course>
<desc>Speed 0.3 km/h Distance 2.65 km</desc>
<time>2010-02-27T10:33:32.98</time>
<name>1908</name>
</trkpt>
<trkpt lat="48.945177" lon="8.646535">
<ele>274.0</ele>
<speed>3.7</speed>
<course>41.9</course>
<desc>Speed 3.7 km/h Distance 2.65 km</desc>
<time>2010-02-27T10:33:33.98</time>
<name>1909</name>
</trkpt>
<trkpt lat="48.945182" lon="8.646542">
<ele>273.0</ele>
<speed>2.2</speed>
<course>116.6</course>
<desc>Speed 2.2 km/h Distance 2.65 km</desc>
<time>2010-02-27T10:33:34.98</time>
<name>1910</name>
</trkpt>
<trkpt lat="48.945180" lon="8.646547">
<ele>272.5</ele>
<speed>1.4</speed>
<course>90.0</course>
<desc>Speed 1.4 km/h Distance 2.65 km</desc>
<time>2010-02-27T10:33:35.98</time>
<name>1911</name>
</trkpt>
<trkpt lat="48.945180" lon="8.646552">
<ele>273.0</ele>
<speed>1.4</speed>
<course>18.8</course>
<desc>Speed 1.4 km/h Distance 2.65 km</desc>
<time>2010-02-27T10:33:36.98</time>
<name>1912</name>
</trkpt>
<trkpt lat="48.945183" lon="8.646553">
<ele>274.0</ele>
<speed>0.7</speed>
<course>18.8</course>
<desc>Speed 0.7 km/h Distance 2.65 km</desc>
<time>2010-02-27T10:33:37.98</time>
<name>1913</name>
</trkpt>
<trkpt lat="48.945187" lon="8.646555">
<ele>275.0</ele>
<speed>0.3</speed>
<course>18.8</course>
<desc>Speed 0.3 km/h Distance 2.65 km</desc>
<time>2010-02-27T10:33:38.98</time>
<name>1914</name>
</trkpt>
<trkpt lat="48.945187" lon="8.646555">
<ele>275.0</ele>
<speed>0.1</speed>
<course>12.6</course>
<desc>Speed 0.1 km/h Distance 2.65 km</desc>
<time>2010-02-27T10:33:39.98</time>
<name>1915</name>
</trkpt>
<trkpt lat="48.945192" lon="8.646557">
<ele>276.5</ele>
<speed>0.1</speed>
<course>29.2</course>
<desc>Speed 0.1 km/h Distance 2.65 km</desc>
<time>2010-02-27T10:33:40.98</time>
<name>1916</name>
</trkpt>
<trkpt lat="48.945193" lon="8.646558">
<ele>277.0</ele>
<speed>0.3</speed>
<course>270.0</course>
<desc>Speed 0.3 km/h Distance 2.65 km</desc>
<time>2010-02-27T10:33:41.98</time>
<name>1917</name>
</trkpt>
<trkpt lat="48.945193" lon="8.646557">
<ele>277.5</ele>
<speed>0.4</speed>
<course>29.2</course>
<desc>Speed 0.4 km/h Distance 2.65 km</desc>
<time>2010-02-27T10:33:42.98</time>
<name>1918</name>
</trkpt>
<trkpt lat="48.945195" lon="8.646558">
<ele>277.5</ele>
<speed>0.1</speed>
<course>0.0</course>
<desc>Speed 0.1 km/h Distance 2.65 km</desc>
<time>2010-02-27T10:33:43.98</time>
<name>1919</name>
</trkpt>
<trkpt lat="48.945197" lon="8.646558">
<ele>278.0</ele>
<speed>0.6</speed>
<course>2.8</course>
<desc>Speed 0.6 km/h Distance 2.65 km</desc>
<time>2010-02-27T10:33:44.98</time>
<name>1920</name>
</trkpt>
<trkpt lat="48.945213" lon="8.646560">
<ele>282.5</ele>
<speed>0.9</speed>
<course>32.3</course>
<desc>Speed 0.9 km/h Distance 2.66 km</desc>
<time>2010-02-27T10:33:45.98</time>
<name>1921</name>
</trkpt>
<trkpt lat="48.945218" lon="8.646565">
<ele>283.0</ele>
<speed>2.1</speed>
<course>18.1</course>
<desc>Speed 2.1 km/h Distance 2.66 km</desc>
<time>2010-02-27T10:33:46.98</time>
<name>1922</name>
</trkpt>
<trkpt lat="48.945232" lon="8.646572">
<ele>284.0</ele>
<speed>2.7</speed>
<course>0.0</course>
<desc>Speed 2.7 km/h Distance 2.66 km</desc>
<time>2010-02-27T10:33:47.98</time>
<name>1923</name>
</trkpt>
<trkpt lat="48.945242" lon="8.646572">
<ele>284.0</ele>
<speed>3.7</speed>
<course>12.6</course>
<desc>Speed 3.7 km/h Distance 2.66 km</desc>
<time>2010-02-27T10:33:48.98</time>
<name>1924</name>
</trkpt>
<trkpt lat="48.945252" lon="8.646575">
<ele>284.0</ele>
<speed>3.5</speed>
<course>7.5</course>
<desc>Speed 3.5 km/h Distance 2.66 km</desc>
<time>2010-02-27T10:33:49.98</time>
<name>1925</name>
</trkpt>
<trkpt lat="48.945267" lon="8.646578">
<ele>285.5</ele>
<speed>4.1</speed>
<course>15.5</course>
<desc>Speed 4.1 km/h Distance 2.66 km</desc>
<time>2010-02-27T10:33:50.98</time>
<name>1926</name>
</trkpt>
<trkpt lat="48.945278" lon="8.646583">
<ele>285.5</ele>
<speed>4.1</speed>
<course>4.4</course>
<desc>Speed 4.1 km/h Distance 2.66 km</desc>
<time>2010-02-27T10:33:51.98</time>
<name>1927</name>
</trkpt>
<trkpt lat="48.945288" lon="8.646585">
<ele>285.0</ele>
<speed>3.9</speed>
<course>0.0</course>
<desc>Speed 3.9 km/h Distance 2.66 km</desc>
<time>2010-02-27T10:33:52.98</time>
<name>1928</name>
</trkpt>
<trkpt lat="48.945300" lon="8.646585">
<ele>284.5</ele>
<speed>4.1</speed>
<course>11.2</course>
<desc>Speed 4.1 km/h Distance 2.67 km</desc>
<time>2010-02-27T10:33:53.98</time>
<name>1929</name>
</trkpt>
<trkpt lat="48.945312" lon="8.646588">
<ele>285.0</ele>
<speed>4.6</speed>
<course>4.7</course>
<desc>Speed 4.6 km/h Distance 2.67 km</desc>
<time>2010-02-27T10:33:54.98</time>
<name>1930</name>
</trkpt>
<trkpt lat="48.945323" lon="8.646590">
<ele>285.0</ele>
<speed>4.2</speed>
<course>12.6</course>
<desc>Speed 4.2 km/h Distance 2.67 km</desc>
<time>2010-02-27T10:33:55.98</time>
<name>1931</name>
</trkpt>
<trkpt lat="48.945343" lon="8.646597">
<ele>286.5</ele>
<speed>4.4</speed>
<course>1.2</course>
<desc>Speed 4.4 km/h Distance 2.67 km</desc>
<time>2010-02-27T10:33:56.98</time>
<name>1932</name>
</trkpt>
<trkpt lat="48.945357" lon="8.646597">
<ele>286.5</ele>
<speed>3.9</speed>
<course>9.0</course>
<desc>Speed 3.9 km/h Distance 2.67 km</desc>
<time>2010-02-27T10:33:57.98</time>
<name>1933</name>
</trkpt>
<trkpt lat="48.945370" lon="8.646600">
<ele>286.5</ele>
<speed>4.2</speed>
<course>16.0</course>
<desc>Speed 4.2 km/h Distance 2.67 km</desc>
<time>2010-02-27T10:33:58.98</time>
<name>1934</name>
</trkpt>
<trkpt lat="48.945385" lon="8.646607">
<ele>287.0</ele>
<speed>4.6</speed>
<course>6.3</course>
<desc>Speed 4.6 km/h Distance 2.68 km</desc>
<time>2010-02-27T10:33:59.98</time>
<name>1935</name>
</trkpt>
<trkpt lat="48.945397" lon="8.646608">
<ele>286.5</ele>
<speed>4.2</speed>
<course>11.2</course>
<desc>Speed 4.2 km/h Distance 2.68 km</desc>
<time>2010-02-27T10:34:00.98</time>
<name>1936</name>
</trkpt>
<trkpt lat="48.945408" lon="8.646612">
<ele>286.0</ele>
<speed>4.3</speed>
<course>353.4</course>
<desc>Speed 4.3 km/h Distance 2.68 km</desc>
<time>2010-02-27T10:34:01.98</time>
<name>1937</name>
</trkpt>
<trkpt lat="48.945418" lon="8.646610">
<ele>286.0</ele>
<speed>4.0</speed>
<course>2.2</course>
<desc>Speed 4.0 km/h Distance 2.68 km</desc>
<time>2010-02-27T10:34:02.98</time>
<name>1938</name>
</trkpt>
<trkpt lat="48.945430" lon="8.646610">
<ele>286.0</ele>
<speed>4.5</speed>
<course>4.4</course>
<desc>Speed 4.5 km/h Distance 2.68 km</desc>
<time>2010-02-27T10:34:03.98</time>
<name>1939</name>
</trkpt>
<trkpt lat="48.945440" lon="8.646612">
<ele>285.5</ele>
<speed>4.2</speed>
<course>10.4</course>
<desc>Speed 4.2 km/h Distance 2.68 km</desc>
<time>2010-02-27T10:34:04.98</time>
<name>1940</name>
</trkpt>
<trkpt lat="48.945457" lon="8.646617">
<ele>287.0</ele>
<speed>4.5</speed>
<course>2.8</course>
<desc>Speed 4.5 km/h Distance 2.68 km</desc>
<time>2010-02-27T10:34:05.98</time>
<name>1941</name>
</trkpt>
<trkpt lat="48.945473" lon="8.646618">
<ele>288.5</ele>
<speed>4.4</speed>
<course>0.0</course>
<desc>Speed 4.4 km/h Distance 2.69 km</desc>
<time>2010-02-27T10:34:06.98</time>
<name>1942</name>
</trkpt>
<trkpt lat="48.945490" lon="8.646618">
<ele>289.0</ele>
<speed>4.9</speed>
<course>2.8</course>
<desc>Speed 4.9 km/h Distance 2.69 km</desc>
<time>2010-02-27T10:34:07.98</time>
<name>1943</name>
</trkpt>
<trkpt lat="48.945507" lon="8.646620">
<ele>289.5</ele>
<speed>4.6</speed>
<course>12.2</course>
<desc>Speed 4.6 km/h Distance 2.69 km</desc>
<time>2010-02-27T10:34:08.98</time>
<name>1944</name>
</trkpt>
<trkpt lat="48.945522" lon="8.646625">
<ele>290.5</ele>
<speed>5.1</speed>
<course>0.0</course>
<desc>Speed 5.1 km/h Distance 2.69 km</desc>
<time>2010-02-27T10:34:09.98</time>
<name>1945</name>
</trkpt>
<trkpt lat="48.945540" lon="8.646625">
<ele>292.0</ele>
<speed>5.2</speed>
<course>351.0</course>
<desc>Speed 5.2 km/h Distance 2.69 km</desc>
<time>2010-02-27T10:34:10.98</time>
<name>1946</name>
</trkpt>
<trkpt lat="48.945553" lon="8.646622">
<ele>292.0</ele>
<speed>4.8</speed>
<course>1.2</course>
<desc>Speed 4.8 km/h Distance 2.69 km</desc>
<time>2010-02-27T10:34:11.98</time>
<name>1947</name>
</trkpt>
<trkpt lat="48.945567" lon="8.646622">
<ele>292.5</ele>
<speed>5.0</speed>
<course>356.1</course>
<desc>Speed 5.0 km/h Distance 2.70 km</desc>
<time>2010-02-27T10:34:12.98</time>
<name>1948</name>
</trkpt>
<trkpt lat="48.945580" lon="8.646620">
<ele>292.5</ele>
<speed>4.8</speed>
<course>3.8</course>
<desc>Speed 4.8 km/h Distance 2.70 km</desc>
<time>2010-02-27T10:34:13.98</time>
<name>1949</name>
</trkpt>
<trkpt lat="48.945595" lon="8.646620">
<ele>293.5</ele>
<speed>4.9</speed>
<course>2.2</course>
<desc>Speed 4.9 km/h Distance 2.70 km</desc>
<time>2010-02-27T10:34:14.98</time>
<name>1950</name>
</trkpt>
<trkpt lat="48.945607" lon="8.646620">
<ele>293.5</ele>
<speed>4.5</speed>
<course>339.4</course>
<desc>Speed 4.5 km/h Distance 2.70 km</desc>
<time>2010-02-27T10:34:15.98</time>
<name>1951</name>
</trkpt>
<trkpt lat="48.945618" lon="8.646613">
<ele>293.0</ele>
<speed>4.6</speed>
<course>355.3</course>
<desc>Speed 4.6 km/h Distance 2.70 km</desc>
<time>2010-02-27T10:34:16.98</time>
<name>1952</name>
</trkpt>
<trkpt lat="48.945630" lon="8.646612">
<ele>293.5</ele>
<speed>4.8</speed>
<course>339.4</course>
<desc>Speed 4.8 km/h Distance 2.70 km</desc>
<time>2010-02-27T10:34:17.98</time>
<name>1953</name>
</trkpt>
<trkpt lat="48.945642" lon="8.646605">
<ele>293.5</ele>
<speed>4.8</speed>
<course>336.2</course>
<desc>Speed 4.8 km/h Distance 2.70 km</desc>
<time>2010-02-27T10:34:18.98</time>
<name>1954</name>
</trkpt>
<trkpt lat="48.945652" lon="8.646598">
<ele>293.5</ele>
<speed>4.9</speed>
<course>346.5</course>
<desc>Speed 4.9 km/h Distance 2.71 km</desc>
<time>2010-02-27T10:34:19.98</time>
<name>1955</name>
</trkpt>
<trkpt lat="48.945665" lon="8.646593">
<ele>293.5</ele>
<speed>5.3</speed>
<course>339.1</course>
<desc>Speed 5.3 km/h Distance 2.71 km</desc>
<time>2010-02-27T10:34:20.98</time>
<name>1956</name>
</trkpt>
<trkpt lat="48.945677" lon="8.646587">
<ele>293.5</ele>
<speed>4.9</speed>
<course>334.8</course>
<desc>Speed 4.9 km/h Distance 2.71 km</desc>
<time>2010-02-27T10:34:21.98</time>
<name>1957</name>
</trkpt>
<trkpt lat="48.945688" lon="8.646578">
<ele>294.0</ele>
<speed>4.9</speed>
<course>318.8</course>
<desc>Speed 4.9 km/h Distance 2.71 km</desc>
<time>2010-02-27T10:34:22.98</time>
<name>1958</name>
</trkpt>
<trkpt lat="48.945698" lon="8.646565">
<ele>293.5</ele>
<speed>5.3</speed>
<course>346.5</course>
<desc>Speed 5.3 km/h Distance 2.71 km</desc>
<time>2010-02-27T10:34:23.98</time>
<name>1959</name>
</trkpt>
<trkpt lat="48.945712" lon="8.646560">
<ele>293.5</ele>
<speed>5.0</speed>
<course>344.0</course>
<desc>Speed 5.0 km/h Distance 2.71 km</desc>
<time>2010-02-27T10:34:24.98</time>
<name>1960</name>
</trkpt>
<trkpt lat="48.945723" lon="8.646555">
<ele>294.0</ele>
<speed>5.3</speed>
<course>344.5</course>
<desc>Speed 5.3 km/h Distance 2.71 km</desc>
<time>2010-02-27T10:34:25.98</time>
<name>1961</name>
</trkpt>
<trkpt lat="48.945735" lon="8.646550">
<ele>294.5</ele>
<speed>4.9</speed>
<course>339.1</course>
<desc>Speed 4.9 km/h Distance 2.72 km</desc>
<time>2010-02-27T10:34:26.98</time>
<name>1962</name>
</trkpt>
<trkpt lat="48.945747" lon="8.646543">
<ele>295.0</ele>
<speed>4.9</speed>
<course>355.3</course>
<desc>Speed 4.9 km/h Distance 2.72 km</desc>
<time>2010-02-27T10:34:27.98</time>
<name>1963</name>
</trkpt>
<trkpt lat="48.945758" lon="8.646542">
<ele>295.5</ele>
<speed>4.4</speed>
<course>13.5</course>
<desc>Speed 4.4 km/h Distance 2.72 km</desc>
<time>2010-02-27T10:34:28.98</time>
<name>1964</name>
</trkpt>
<trkpt lat="48.945772" lon="8.646547">
<ele>296.0</ele>
<speed>4.7</speed>
<course>20.9</course>
<desc>Speed 4.7 km/h Distance 2.72 km</desc>
<time>2010-02-27T10:34:29.98</time>
<name>1965</name>
</trkpt>
<trkpt lat="48.945783" lon="8.646553">
<ele>297.0</ele>
<speed>4.7</speed>
<course>16.0</course>
<desc>Speed 4.7 km/h Distance 2.72 km</desc>
<time>2010-02-27T10:34:30.98</time>
<name>1966</name>
</trkpt>
<trkpt lat="48.945795" lon="8.646558">
<ele>297.0</ele>
<speed>3.9</speed>
<course>5.0</course>
<desc>Speed 3.9 km/h Distance 2.72 km</desc>
<time>2010-02-27T10:34:31.98</time>
<name>1967</name>
</trkpt>
<trkpt lat="48.945803" lon="8.646558">
<ele>297.0</ele>
<speed>2.9</speed>
<course>0.0</course>
<desc>Speed 2.9 km/h Distance 2.72 km</desc>
<time>2010-02-27T10:34:32.98</time>
<name>1968</name>
</trkpt>
<trkpt lat="48.945808" lon="8.646558">
<ele>296.5</ele>
<speed>2.1</speed>
<course>29.2</course>
<desc>Speed 2.1 km/h Distance 2.72 km</desc>
<time>2010-02-27T10:34:33.98</time>
<name>1969</name>
</trkpt>
<trkpt lat="48.945810" lon="8.646560">
<ele>297.0</ele>
<speed>0.3</speed>
<course>29.2</course>
<desc>Speed 0.3 km/h Distance 2.72 km</desc>
<time>2010-02-27T10:34:34.98</time>
<name>1970</name>
</trkpt>
<trkpt lat="48.945810" lon="8.646560">
<ele>297.0</ele>
<speed>0.4</speed>
<course>37.2</course>
<desc>Speed 0.4 km/h Distance 2.72 km</desc>
<time>2010-02-27T10:34:35.98</time>
<name>1971</name>
</trkpt>
<trkpt lat="48.945812" lon="8.646562">
<ele>297.5</ele>
<speed>0.3</speed>
<course>37.2</course>
<desc>Speed 0.3 km/h Distance 2.72 km</desc>
<time>2010-02-27T10:34:36.98</time>
<name>1972</name>
</trkpt>
<trkpt lat="48.945812" lon="8.646562">
<ele>297.5</ele>
<speed>0.0</speed>
<course>12.6</course>
<desc>Speed 0.0 km/h Distance 2.72 km</desc>
<time>2010-02-27T10:34:37.98</time>
<name>1973</name>
</trkpt>
<trkpt lat="48.945813" lon="8.646562">
<ele>298.0</ele>
<speed>0.3</speed>
<course>12.6</course>
<desc>Speed 0.3 km/h Distance 2.72 km</desc>
<time>2010-02-27T10:34:38.98</time>
<name>1974</name>
</trkpt>
<trkpt lat="48.945813" lon="8.646562">
<ele>298.0</ele>
<speed>0.1</speed>
<course>12.6</course>
<desc>Speed 0.1 km/h Distance 2.72 km</desc>
<time>2010-02-27T10:34:39.98</time>
<name>1975</name>
</trkpt>
<trkpt lat="48.945813" lon="8.646562">
<ele>298.0</ele>
<speed>0.1</speed>
<course>12.6</course>
<desc>Speed 0.1 km/h Distance 2.72 km</desc>
<time>2010-02-27T10:34:40.98</time>
<name>1976</name>
</trkpt>
<trkpt lat="48.945813" lon="8.646562">
<ele>298.5</ele>
<speed>0.1</speed>
<course>12.6</course>
<desc>Speed 0.1 km/h Distance 2.72 km</desc>
<time>2010-02-27T10:34:41.98</time>
<name>1977</name>
</trkpt>
<trkpt lat="48.945815" lon="8.646562">
<ele>298.5</ele>
<speed>0.2</speed>
<course>12.6</course>
<desc>Speed 0.2 km/h Distance 2.72 km</desc>
<time>2010-02-27T10:34:42.98</time>
<name>1978</name>
</trkpt>
<trkpt lat="48.945815" lon="8.646562">
<ele>298.5</ele>
<speed>0.2</speed>
<course>12.6</course>
<desc>Speed 0.2 km/h Distance 2.72 km</desc>
<time>2010-02-27T10:34:43.98</time>
<name>1979</name>
</trkpt>
<trkpt lat="48.945815" lon="8.646562">
<ele>298.5</ele>
<speed>0.1</speed>
<course>12.6</course>
<desc>Speed 0.1 km/h Distance 2.72 km</desc>
<time>2010-02-27T10:34:44.98</time>
<name>1980</name>
</trkpt>
<trkpt lat="48.945815" lon="8.646562">
<ele>298.5</ele>
<speed>0.1</speed>
<course>12.6</course>
<desc>Speed 0.1 km/h Distance 2.72 km</desc>
<time>2010-02-27T10:34:45.98</time>
<name>1981</name>
</trkpt>
<trkpt lat="48.945815" lon="8.646562">
<ele>298.5</ele>
<speed>0.4</speed>
<course>12.6</course>
<desc>Speed 0.4 km/h Distance 2.72 km</desc>
<time>2010-02-27T10:34:46.98</time>
<name>1982</name>
</trkpt>
<trkpt lat="48.945815" lon="8.646562">
<ele>298.5</ele>
<speed>0.1</speed>
<course>12.6</course>
<desc>Speed 0.1 km/h Distance 2.72 km</desc>
<time>2010-02-27T10:34:47.98</time>
<name>1983</name>
</trkpt>
<trkpt lat="48.945815" lon="8.646562">
<ele>298.5</ele>
<speed>0.3</speed>
<course>12.6</course>
<desc>Speed 0.3 km/h Distance 2.72 km</desc>
<time>2010-02-27T10:34:48.98</time>
<name>1984</name>
</trkpt>
<trkpt lat="48.945815" lon="8.646562">
<ele>298.5</ele>
<speed>0.3</speed>
<course>12.6</course>
<desc>Speed 0.3 km/h Distance 2.72 km</desc>
<time>2010-02-27T10:34:49.98</time>
<name>1985</name>
</trkpt>
<trkpt lat="48.945815" lon="8.646562">
<ele>298.5</ele>
<speed>0.0</speed>
<course>12.6</course>
<desc>Speed 0.0 km/h Distance 2.72 km</desc>
<time>2010-02-27T10:34:50.98</time>
<name>1986</name>
</trkpt>
<trkpt lat="48.945815" lon="8.646562">
<ele>298.5</ele>
<speed>0.1</speed>
<course>353.4</course>
<desc>Speed 0.1 km/h Distance 2.72 km</desc>
<time>2010-02-27T10:34:51.98</time>
<name>1987</name>
</trkpt>
<trkpt lat="48.945825" lon="8.646560">
<ele>299.0</ele>
<speed>0.7</speed>
<course>347.4</course>
<desc>Speed 0.7 km/h Distance 2.72 km</desc>
<time>2010-02-27T10:34:53.07</time>
<name>1988</name>
</trkpt>
<trkpt lat="48.945828" lon="8.646558">
<ele>299.5</ele>
<speed>0.2</speed>
<course>347.4</course>
<desc>Speed 0.2 km/h Distance 2.73 km</desc>
<time>2010-02-27T10:34:53.86</time>
<name>1989</name>
</trkpt>
<trkpt lat="48.945828" lon="8.646558">
<ele>299.5</ele>
<speed>0.5</speed>
<course>22.2</course>
<desc>Speed 0.5 km/h Distance 2.73 km</desc>
<time>2010-02-27T10:34:54.86</time>
<name>1990</name>
</trkpt>
<trkpt lat="48.945833" lon="8.646562">
<ele>299.5</ele>
<speed>1.4</speed>
<course>56.9</course>
<desc>Speed 1.4 km/h Distance 2.73 km</desc>
<time>2010-02-27T10:34:55.86</time>
<name>1991</name>
</trkpt>
<trkpt lat="48.945838" lon="8.646573">
<ele>299.5</ele>
<speed>2.4</speed>
<course>60.1</course>
<desc>Speed 2.4 km/h Distance 2.73 km</desc>
<time>2010-02-27T10:34:56.86</time>
<name>1992</name>
</trkpt>
<trkpt lat="48.945843" lon="8.646587">
<ele>299.0</ele>
<speed>3.2</speed>
<course>50.3</course>
<desc>Speed 3.2 km/h Distance 2.73 km</desc>
<time>2010-02-27T10:34:57.86</time>
<name>1993</name>
</trkpt>
<trkpt lat="48.945853" lon="8.646605">
<ele>299.0</ele>
<speed>4.1</speed>
<course>18.8</course>
<desc>Speed 4.1 km/h Distance 2.73 km</desc>
<time>2010-02-27T10:34:58.86</time>
<name>1994</name>
</trkpt>
<trkpt lat="48.945863" lon="8.646610">
<ele>297.0</ele>
<speed>2.9</speed>
<course>53.0</course>
<desc>Speed 2.9 km/h Distance 2.73 km</desc>
<time>2010-02-27T10:34:59.86</time>
<name>1995</name>
</trkpt>
<trkpt lat="48.945867" lon="8.646617">
<ele>295.0</ele>
<speed>1.9</speed>
<course>17.5</course>
<desc>Speed 1.9 km/h Distance 2.73 km</desc>
<time>2010-02-27T10:35:00.86</time>
<name>1996</name>
</trkpt>
<trkpt lat="48.945873" lon="8.646620">
<ele>293.5</ele>
<speed>1.9</speed>
<course>39.4</course>
<desc>Speed 1.9 km/h Distance 2.73 km</desc>
<time>2010-02-27T10:35:01.86</time>
<name>1997</name>
</trkpt>
<trkpt lat="48.945880" lon="8.646628">
<ele>292.5</ele>
<speed>2.9</speed>
<course>49.1</course>
<desc>Speed 2.9 km/h Distance 2.73 km</desc>
<time>2010-02-27T10:35:02.86</time>
<name>1998</name>
</trkpt>
<trkpt lat="48.945887" lon="8.646640">
<ele>291.5</ele>
<speed>3.5</speed>
<course>29.2</course>
<desc>Speed 3.5 km/h Distance 2.73 km</desc>
<time>2010-02-27T10:35:03.86</time>
<name>1999</name>
</trkpt>
<trkpt lat="48.945898" lon="8.646650">
<ele>291.5</ele>
<speed>4.2</speed>
<course>44.5</course>
<desc>Speed 4.2 km/h Distance 2.74 km</desc>
<time>2010-02-27T10:35:04.86</time>
<name>2000</name>
</trkpt>
<trkpt lat="48.945905" lon="8.646660">
<ele>290.0</ele>
<speed>2.9</speed>
<course>18.1</course>
<desc>Speed 2.9 km/h Distance 2.74 km</desc>
<time>2010-02-27T10:35:05.86</time>
<name>2001</name>
</trkpt>
<trkpt lat="48.945918" lon="8.646667">
<ele>289.5</ele>
<speed>4.5</speed>
<course>47.1</course>
<desc>Speed 4.5 km/h Distance 2.74 km</desc>
<time>2010-02-27T10:35:06.86</time>
<name>2002</name>
</trkpt>
<trkpt lat="48.945937" lon="8.646697">
<ele>290.0</ele>
<speed>3.9</speed>
<course>37.5</course>
<desc>Speed 3.9 km/h Distance 2.74 km</desc>
<time>2010-02-27T10:35:08.36</time>
<name>2003</name>
</trkpt>
<trkpt lat="48.945947" lon="8.646708">
<ele>289.0</ele>
<speed>4.2</speed>
<course>36.9</course>
<desc>Speed 4.2 km/h Distance 2.74 km</desc>
<time>2010-02-27T10:35:09.36</time>
<name>2004</name>
</trkpt>
<trkpt lat="48.945958" lon="8.646722">
<ele>288.5</ele>
<speed>5.0</speed>
<course>33.4</course>
<desc>Speed 5.0 km/h Distance 2.74 km</desc>
<time>2010-02-27T10:35:10.37</time>
<name>2005</name>
</trkpt>
<trkpt lat="48.945970" lon="8.646733">
<ele>288.0</ele>
<speed>5.0</speed>
<course>35.1</course>
<desc>Speed 5.0 km/h Distance 2.75 km</desc>
<time>2010-02-27T10:35:11.86</time>
<name>2006</name>
</trkpt>
<trkpt lat="48.945993" lon="8.646758">
<ele>288.0</ele>
<speed>5.4</speed>
<course>27.7</course>
<desc>Speed 5.4 km/h Distance 2.75 km</desc>
<time>2010-02-27T10:35:13.37</time>
<name>2007</name>
</trkpt>
<trkpt lat="48.946018" lon="8.646778">
<ele>288.0</ele>
<speed>4.5</speed>
<course>13.5</course>
<desc>Speed 4.5 km/h Distance 2.75 km</desc>
<time>2010-02-27T10:35:15.35</time>
<name>2008</name>
</trkpt>
<trkpt lat="48.946032" lon="8.646783">
<ele>287.5</ele>
<speed>5.0</speed>
<course>7.5</course>
<desc>Speed 5.0 km/h Distance 2.75 km</desc>
<time>2010-02-27T10:35:16.35</time>
<name>2009</name>
</trkpt>
<trkpt lat="48.946047" lon="8.646787">
<ele>287.5</ele>
<speed>4.6</speed>
<course>11.2</course>
<desc>Speed 4.6 km/h Distance 2.76 km</desc>
<time>2010-02-27T10:35:17.35</time>
<name>2010</name>
</trkpt>
<trkpt lat="48.946063" lon="8.646792">
<ele>288.0</ele>
<speed>5.3</speed>
<course>8.1</course>
<desc>Speed 5.3 km/h Distance 2.76 km</desc>
<time>2010-02-27T10:35:18.36</time>
<name>2011</name>
</trkpt>
<trkpt lat="48.946078" lon="8.646795">
<ele>288.0</ele>
<speed>4.5</speed>
<course>3.7</course>
<desc>Speed 4.5 km/h Distance 2.76 km</desc>
<time>2010-02-27T10:35:19.36</time>
<name>2012</name>
</trkpt>
<trkpt lat="48.946097" lon="8.646797">
<ele>288.5</ele>
<speed>5.1</speed>
<course>8.8</course>
<desc>Speed 5.1 km/h Distance 2.76 km</desc>
<time>2010-02-27T10:35:20.36</time>
<name>2013</name>
</trkpt>
<trkpt lat="48.946112" lon="8.646800">
<ele>288.0</ele>
<speed>4.5</speed>
<course>13.5</course>
<desc>Speed 4.5 km/h Distance 2.76 km</desc>
<time>2010-02-27T10:35:21.36</time>
<name>2014</name>
</trkpt>
<trkpt lat="48.946125" lon="8.646805">
<ele>288.5</ele>
<speed>5.1</speed>
<course>3.9</course>
<desc>Speed 5.1 km/h Distance 2.76 km</desc>
<time>2010-02-27T10:35:22.36</time>
<name>2015</name>
</trkpt>
<trkpt lat="48.946138" lon="8.646807">
<ele>288.0</ele>
<speed>5.0</speed>
<course>1.2</course>
<desc>Speed 5.0 km/h Distance 2.77 km</desc>
<time>2010-02-27T10:35:23.35</time>
<name>2016</name>
</trkpt>
<trkpt lat="48.946152" lon="8.646807">
<ele>287.5</ele>
<speed>5.3</speed>
<course>3.9</course>
<desc>Speed 5.3 km/h Distance 2.77 km</desc>
<time>2010-02-27T10:35:24.36</time>
<name>2017</name>
</trkpt>
<trkpt lat="48.946165" lon="8.646808">
<ele>287.5</ele>
<speed>5.1</speed>
<course>5.3</course>
<desc>Speed 5.1 km/h Distance 2.77 km</desc>
<time>2010-02-27T10:35:25.35</time>
<name>2018</name>
</trkpt>
<trkpt lat="48.946178" lon="8.646810">
<ele>287.5</ele>
<speed>5.2</speed>
<course>0.0</course>
<desc>Speed 5.2 km/h Distance 2.77 km</desc>
<time>2010-02-27T10:35:26.35</time>
<name>2019</name>
</trkpt>
<trkpt lat="48.946192" lon="8.646810">
<ele>287.0</ele>
<speed>5.1</speed>
<course>358.8</course>
<desc>Speed 5.1 km/h Distance 2.77 km</desc>
<time>2010-02-27T10:35:27.35</time>
<name>2020</name>
</trkpt>
<trkpt lat="48.946205" lon="8.646808">
<ele>287.5</ele>
<speed>4.8</speed>
<course>356.2</course>
<desc>Speed 4.8 km/h Distance 2.77 km</desc>
<time>2010-02-27T10:35:28.35</time>
<name>2021</name>
</trkpt>
<trkpt lat="48.946220" lon="8.646807">
<ele>287.5</ele>
<speed>5.3</speed>
<course>353.7</course>
<desc>Speed 5.3 km/h Distance 2.77 km</desc>
<time>2010-02-27T10:35:29.35</time>
<name>2022</name>
</trkpt>
<trkpt lat="48.946232" lon="8.646805">
<ele>287.5</ele>
<speed>4.3</speed>
<course>356.2</course>
<desc>Speed 4.3 km/h Distance 2.78 km</desc>
<time>2010-02-27T10:35:30.34</time>
<name>2023</name>
</trkpt>
<trkpt lat="48.946247" lon="8.646803">
<ele>288.0</ele>
<speed>4.6</speed>
<course>346.5</course>
<desc>Speed 4.6 km/h Distance 2.78 km</desc>
<time>2010-02-27T10:35:31.35</time>
<name>2024</name>
</trkpt>
<trkpt lat="48.946260" lon="8.646798">
<ele>288.5</ele>
<speed>5.2</speed>
<course>351.0</course>
<desc>Speed 5.2 km/h Distance 2.78 km</desc>
<time>2010-02-27T10:35:32.35</time>
<name>2025</name>
</trkpt>
<trkpt lat="48.946273" lon="8.646795">
<ele>288.5</ele>
<speed>4.8</speed>
<course>339.4</course>
<desc>Speed 4.8 km/h Distance 2.78 km</desc>
<time>2010-02-27T10:35:33.35</time>
<name>2026</name>
</trkpt>
<trkpt lat="48.946285" lon="8.646788">
<ele>289.0</ele>
<speed>5.3</speed>
<course>337.7</course>
<desc>Speed 5.3 km/h Distance 2.78 km</desc>
<time>2010-02-27T10:35:34.34</time>
<name>2027</name>
</trkpt>
<trkpt lat="48.946298" lon="8.646780">
<ele>289.5</ele>
<speed>5.0</speed>
<course>331.4</course>
<desc>Speed 5.0 km/h Distance 2.78 km</desc>
<time>2010-02-27T10:35:35.34</time>
<name>2028</name>
</trkpt>
<trkpt lat="48.946308" lon="8.646772">
<ele>289.5</ele>
<speed>5.1</speed>
<course>339.1</course>
<desc>Speed 5.1 km/h Distance 2.79 km</desc>
<time>2010-02-27T10:35:36.34</time>
<name>2029</name>
</trkpt>
<trkpt lat="48.946320" lon="8.646765">
<ele>289.5</ele>
<speed>4.9</speed>
<course>339.1</course>
<desc>Speed 4.9 km/h Distance 2.79 km</desc>
<time>2010-02-27T10:35:37.34</time>
<name>2030</name>
</trkpt>
<trkpt lat="48.946332" lon="8.646758">
<ele>289.5</ele>
<speed>5.0</speed>
<course>337.9</course>
<desc>Speed 5.0 km/h Distance 2.79 km</desc>
<time>2010-02-27T10:35:38.34</time>
<name>2031</name>
</trkpt>
<trkpt lat="48.946345" lon="8.646750">
<ele>289.5</ele>
<speed>5.7</speed>
<course>336.2</course>
<desc>Speed 5.7 km/h Distance 2.79 km</desc>
<time>2010-02-27T10:35:39.34</time>
<name>2032</name>
</trkpt>
<trkpt lat="48.946355" lon="8.646743">
<ele>289.0</ele>
<speed>5.0</speed>
<course>330.6</course>
<desc>Speed 5.0 km/h Distance 2.79 km</desc>
<time>2010-02-27T10:35:40.35</time>
<name>2033</name>
</trkpt>
<trkpt lat="48.946367" lon="8.646733">
<ele>289.0</ele>
<speed>5.1</speed>
<course>330.6</course>
<desc>Speed 5.1 km/h Distance 2.79 km</desc>
<time>2010-02-27T10:35:41.34</time>
<name>2034</name>
</trkpt>
<trkpt lat="48.946378" lon="8.646723">
<ele>289.0</ele>
<speed>5.2</speed>
<course>318.8</course>
<desc>Speed 5.2 km/h Distance 2.79 km</desc>
<time>2010-02-27T10:35:42.34</time>
<name>2035</name>
</trkpt>
<trkpt lat="48.946388" lon="8.646710">
<ele>288.0</ele>
<speed>4.5</speed>
<course>339.4</course>
<desc>Speed 4.5 km/h Distance 2.80 km</desc>
<time>2010-02-27T10:35:43.35</time>
<name>2036</name>
</trkpt>
<trkpt lat="48.946400" lon="8.646703">
<ele>287.5</ele>
<speed>4.8</speed>
<course>330.6</course>
<desc>Speed 4.8 km/h Distance 2.80 km</desc>
<time>2010-02-27T10:35:44.35</time>
<name>2037</name>
</trkpt>
<trkpt lat="48.946412" lon="8.646693">
<ele>287.5</ele>
<speed>5.0</speed>
<course>341.6</course>
<desc>Speed 5.0 km/h Distance 2.80 km</desc>
<time>2010-02-27T10:35:45.35</time>
<name>2038</name>
</trkpt>
<trkpt lat="48.946425" lon="8.646687">
<ele>287.5</ele>
<speed>4.7</speed>
<course>326.6</course>
<desc>Speed 4.7 km/h Distance 2.80 km</desc>
<time>2010-02-27T10:35:46.34</time>
<name>2039</name>
</trkpt>
<trkpt lat="48.946437" lon="8.646675">
<ele>287.5</ele>
<speed>5.2</speed>
<course>323.1</course>
<desc>Speed 5.2 km/h Distance 2.80 km</desc>
<time>2010-02-27T10:35:47.34</time>
<name>2040</name>
</trkpt>
<trkpt lat="48.946448" lon="8.646662">
<ele>287.5</ele>
<speed>5.0</speed>
<course>323.2</course>
<desc>Speed 5.0 km/h Distance 2.80 km</desc>
<time>2010-02-27T10:35:48.35</time>
<name>2041</name>
</trkpt>
<trkpt lat="48.946460" lon="8.646648">
<ele>288.0</ele>
<speed>5.0</speed>
<course>310.3</course>
<desc>Speed 5.0 km/h Distance 2.80 km</desc>
<time>2010-02-27T10:35:49.34</time>
<name>2042</name>
</trkpt>
<trkpt lat="48.946468" lon="8.646633">
<ele>288.0</ele>
<speed>4.4</speed>
<course>330.6</course>
<desc>Speed 4.4 km/h Distance 2.81 km</desc>
<time>2010-02-27T10:35:50.35</time>
<name>2043</name>
</trkpt>
<trkpt lat="48.946480" lon="8.646623">
<ele>288.0</ele>
<speed>4.5</speed>
<course>317.4</course>
<desc>Speed 4.5 km/h Distance 2.81 km</desc>
<time>2010-02-27T10:35:51.35</time>
<name>2044</name>
</trkpt>
<trkpt lat="48.946488" lon="8.646612">
<ele>288.5</ele>
<speed>4.6</speed>
<course>313.6</course>
<desc>Speed 4.6 km/h Distance 2.81 km</desc>
<time>2010-02-27T10:35:52.35</time>
<name>2045</name>
</trkpt>
<trkpt lat="48.946497" lon="8.646598">
<ele>288.5</ele>
<speed>4.5</speed>
<course>313.6</course>
<desc>Speed 4.5 km/h Distance 2.81 km</desc>
<time>2010-02-27T10:35:53.35</time>
<name>2046</name>
</trkpt>
<trkpt lat="48.946505" lon="8.646585">
<ele>289.0</ele>
<speed>4.5</speed>
<course>317.5</course>
<desc>Speed 4.5 km/h Distance 2.81 km</desc>
<time>2010-02-27T10:35:54.35</time>
<name>2047</name>
</trkpt>
<trkpt lat="48.946513" lon="8.646573">
<ele>289.5</ele>
<speed>4.1</speed>
<course>326.8</course>
<desc>Speed 4.1 km/h Distance 2.81 km</desc>
<time>2010-02-27T10:35:55.34</time>
<name>2048</name>
</trkpt>
<trkpt lat="48.946523" lon="8.646563">
<ele>290.0</ele>
<speed>4.3</speed>
<course>307.3</course>
<desc>Speed 4.3 km/h Distance 2.81 km</desc>
<time>2010-02-27T10:35:56.34</time>
<name>2049</name>
</trkpt>
<trkpt lat="48.946530" lon="8.646550">
<ele>290.5</ele>
<speed>4.3</speed>
<course>318.8</course>
<desc>Speed 4.3 km/h Distance 2.82 km</desc>
<time>2010-02-27T10:35:57.34</time>
<name>2050</name>
</trkpt>
<trkpt lat="48.946540" lon="8.646537">
<ele>291.0</ele>
<speed>4.4</speed>
<course>313.6</course>
<desc>Speed 4.4 km/h Distance 2.82 km</desc>
<time>2010-02-27T10:35:58.33</time>
<name>2051</name>
</trkpt>
<trkpt lat="48.946548" lon="8.646523">
<ele>291.0</ele>
<speed>4.4</speed>
<course>317.4</course>
<desc>Speed 4.4 km/h Distance 2.82 km</desc>
<time>2010-02-27T10:35:59.34</time>
<name>2052</name>
</trkpt>
<trkpt lat="48.946557" lon="8.646512">
<ele>290.0</ele>
<speed>4.6</speed>
<course>326.7</course>
<desc>Speed 4.6 km/h Distance 2.82 km</desc>
<time>2010-02-27T10:36:00.34</time>
<name>2053</name>
</trkpt>
<trkpt lat="48.946568" lon="8.646500">
<ele>290.0</ele>
<speed>5.1</speed>
<course>317.4</course>
<desc>Speed 5.1 km/h Distance 2.82 km</desc>
<time>2010-02-27T10:36:01.34</time>
<name>2054</name>
</trkpt>
<trkpt lat="48.946577" lon="8.646488">
<ele>290.0</ele>
<speed>4.4</speed>
<course>313.5</course>
<desc>Speed 4.4 km/h Distance 2.82 km</desc>
<time>2010-02-27T10:36:02.34</time>
<name>2055</name>
</trkpt>
<trkpt lat="48.946585" lon="8.646475">
<ele>290.5</ele>
<speed>4.1</speed>
<course>311.1</course>
<desc>Speed 4.1 km/h Distance 2.82 km</desc>
<time>2010-02-27T10:36:03.34</time>
<name>2056</name>
</trkpt>
<trkpt lat="48.946592" lon="8.646463">
<ele>290.5</ele>
<speed>4.2</speed>
<course>310.2</course>
<desc>Speed 4.2 km/h Distance 2.82 km</desc>
<time>2010-02-27T10:36:04.33</time>
<name>2057</name>
</trkpt>
<trkpt lat="48.946600" lon="8.646448">
<ele>290.5</ele>
<speed>4.7</speed>
<course>307.3</course>
<desc>Speed 4.7 km/h Distance 2.83 km</desc>
<time>2010-02-27T10:36:05.34</time>
<name>2058</name>
</trkpt>
<trkpt lat="48.946608" lon="8.646432">
<ele>290.5</ele>
<speed>4.8</speed>
<course>310.3</course>
<desc>Speed 4.8 km/h Distance 2.83 km</desc>
<time>2010-02-27T10:36:06.34</time>
<name>2059</name>
</trkpt>
<trkpt lat="48.946617" lon="8.646417">
<ele>290.5</ele>
<speed>4.7</speed>
<course>313.6</course>
<desc>Speed 4.7 km/h Distance 2.83 km</desc>
<time>2010-02-27T10:36:07.34</time>
<name>2060</name>
</trkpt>
<trkpt lat="48.946625" lon="8.646403">
<ele>291.0</ele>
<speed>4.5</speed>
<course>304.0</course>
<desc>Speed 4.5 km/h Distance 2.83 km</desc>
<time>2010-02-27T10:36:08.33</time>
<name>2061</name>
</trkpt>
<trkpt lat="48.946632" lon="8.646388">
<ele>291.0</ele>
<speed>4.5</speed>
<course>294.5</course>
<desc>Speed 4.5 km/h Distance 2.83 km</desc>
<time>2010-02-27T10:36:09.33</time>
<name>2062</name>
</trkpt>
<trkpt lat="48.946637" lon="8.646372">
<ele>290.5</ele>
<speed>4.2</speed>
<course>304.1</course>
<desc>Speed 4.2 km/h Distance 2.83 km</desc>
<time>2010-02-27T10:36:10.33</time>
<name>2063</name>
</trkpt>
<trkpt lat="48.946643" lon="8.646357">
<ele>290.5</ele>
<speed>4.6</speed>
<course>310.3</course>
<desc>Speed 4.6 km/h Distance 2.83 km</desc>
<time>2010-02-27T10:36:11.33</time>
<name>2064</name>
</trkpt>
<trkpt lat="48.946652" lon="8.646342">
<ele>290.0</ele>
<speed>4.7</speed>
<course>310.2</course>
<desc>Speed 4.7 km/h Distance 2.84 km</desc>
<time>2010-02-27T10:36:12.34</time>
<name>2065</name>
</trkpt>
<trkpt lat="48.946660" lon="8.646327">
<ele>290.0</ele>
<speed>4.6</speed>
<course>307.3</course>
<desc>Speed 4.6 km/h Distance 2.84 km</desc>
<time>2010-02-27T10:36:13.34</time>
<name>2066</name>
</trkpt>
<trkpt lat="48.946668" lon="8.646310">
<ele>290.5</ele>
<speed>5.2</speed>
<course>290.8</course>
<desc>Speed 5.2 km/h Distance 2.84 km</desc>
<time>2010-02-27T10:36:14.33</time>
<name>2067</name>
</trkpt>
<trkpt lat="48.946673" lon="8.646290">
<ele>290.0</ele>
<speed>5.0</speed>
<course>307.3</course>
<desc>Speed 5.0 km/h Distance 2.84 km</desc>
<time>2010-02-27T10:36:15.33</time>
<name>2068</name>
</trkpt>
<trkpt lat="48.946680" lon="8.646277">
<ele>290.0</ele>
<speed>4.4</speed>
<course>310.3</course>
<desc>Speed 4.4 km/h Distance 2.84 km</desc>
<time>2010-02-27T10:36:16.33</time>
<name>2069</name>
</trkpt>
<trkpt lat="48.946688" lon="8.646262">
<ele>290.0</ele>
<speed>4.4</speed>
<course>313.6</course>
<desc>Speed 4.4 km/h Distance 2.84 km</desc>
<time>2010-02-27T10:36:17.32</time>
<name>2070</name>
</trkpt>
<trkpt lat="48.946697" lon="8.646248">
<ele>291.0</ele>
<speed>4.7</speed>
<course>304.8</course>
<desc>Speed 4.7 km/h Distance 2.84 km</desc>
<time>2010-02-27T10:36:18.33</time>
<name>2071</name>
</trkpt>
<trkpt lat="48.946705" lon="8.646230">
<ele>291.5</ele>
<speed>5.0</speed>
<course>292.6</course>
<desc>Speed 5.0 km/h Distance 2.85 km</desc>
<time>2010-02-27T10:36:19.33</time>
<name>2072</name>
</trkpt>
<trkpt lat="48.946710" lon="8.646212">
<ele>291.5</ele>
<speed>4.8</speed>
<course>301.4</course>
<desc>Speed 4.8 km/h Distance 2.85 km</desc>
<time>2010-02-27T10:36:20.33</time>
<name>2073</name>
</trkpt>
<trkpt lat="48.946717" lon="8.646195">
<ele>291.5</ele>
<speed>4.2</speed>
<course>299.9</course>
<desc>Speed 4.2 km/h Distance 2.85 km</desc>
<time>2010-02-27T10:36:21.33</time>
<name>2074</name>
</trkpt>
<trkpt lat="48.946722" lon="8.646182">
<ele>291.0</ele>
<speed>3.5</speed>
<course>299.8</course>
<desc>Speed 3.5 km/h Distance 2.85 km</desc>
<time>2010-02-27T10:36:22.33</time>
<name>2075</name>
</trkpt>
<trkpt lat="48.946727" lon="8.646168">
<ele>291.0</ele>
<speed>3.9</speed>
<course>285.5</course>
<desc>Speed 3.9 km/h Distance 2.85 km</desc>
<time>2010-02-27T10:36:23.33</time>
<name>2076</name>
</trkpt>
<trkpt lat="48.946730" lon="8.646150">
<ele>290.0</ele>
<speed>4.8</speed>
<course>276.7</course>
<desc>Speed 4.8 km/h Distance 2.85 km</desc>
<time>2010-02-27T10:36:24.34</time>
<name>2077</name>
</trkpt>
<trkpt lat="48.946732" lon="8.646128">
<ele>291.0</ele>
<speed>5.8</speed>
<course>270.0</course>
<desc>Speed 5.8 km/h Distance 2.85 km</desc>
<time>2010-02-27T10:36:25.33</time>
<name>2078</name>
</trkpt>
<trkpt lat="48.946732" lon="8.646110">
<ele>291.0</ele>
<speed>4.6</speed>
<course>285.5</course>
<desc>Speed 4.6 km/h Distance 2.86 km</desc>
<time>2010-02-27T10:36:26.33</time>
<name>2079</name>
</trkpt>
<trkpt lat="48.946735" lon="8.646092">
<ele>291.0</ele>
<speed>4.8</speed>
<course>277.2</course>
<desc>Speed 4.8 km/h Distance 2.86 km</desc>
<time>2010-02-27T10:36:27.33</time>
<name>2080</name>
</trkpt>
<trkpt lat="48.946737" lon="8.646072">
<ele>291.0</ele>
<speed>5.1</speed>
<course>277.2</course>
<desc>Speed 5.1 km/h Distance 2.86 km</desc>
<time>2010-02-27T10:36:28.33</time>
<name>2081</name>
</trkpt>
<trkpt lat="48.946738" lon="8.646052">
<ele>290.5</ele>
<speed>5.1</speed>
<course>270.0</course>
<desc>Speed 5.1 km/h Distance 2.86 km</desc>
<time>2010-02-27T10:36:29.33</time>
<name>2082</name>
</trkpt>
<trkpt lat="48.946738" lon="8.646030">
<ele>290.5</ele>
<speed>5.0</speed>
<course>277.9</course>
<desc>Speed 5.0 km/h Distance 2.86 km</desc>
<time>2010-02-27T10:36:30.33</time>
<name>2083</name>
</trkpt>
<trkpt lat="48.946740" lon="8.646012">
<ele>290.5</ele>
<speed>4.9</speed>
<course>278.7</course>
<desc>Speed 4.9 km/h Distance 2.86 km</desc>
<time>2010-02-27T10:36:31.33</time>
<name>2084</name>
</trkpt>
<trkpt lat="48.946742" lon="8.645995">
<ele>290.0</ele>
<speed>4.4</speed>
<course>284.2</course>
<desc>Speed 4.4 km/h Distance 2.86 km</desc>
<time>2010-02-27T10:36:32.32</time>
<name>2085</name>
</trkpt>
<trkpt lat="48.946745" lon="8.645975">
<ele>289.5</ele>
<speed>4.8</speed>
<course>277.2</course>
<desc>Speed 4.8 km/h Distance 2.87 km</desc>
<time>2010-02-27T10:36:33.32</time>
<name>2086</name>
</trkpt>
<trkpt lat="48.946747" lon="8.645955">
<ele>288.5</ele>
<speed>4.9</speed>
<course>284.2</course>
<desc>Speed 4.9 km/h Distance 2.87 km</desc>
<time>2010-02-27T10:36:34.32</time>
<name>2087</name>
</trkpt>
<trkpt lat="48.946750" lon="8.645935">
<ele>288.5</ele>
<speed>5.2</speed>
<course>277.9</course>
<desc>Speed 5.2 km/h Distance 2.87 km</desc>
<time>2010-02-27T10:36:35.33</time>
<name>2088</name>
</trkpt>
<trkpt lat="48.946752" lon="8.645917">
<ele>288.0</ele>
<speed>4.7</speed>
<course>277.2</course>
<desc>Speed 4.7 km/h Distance 2.87 km</desc>
<time>2010-02-27T10:36:36.32</time>
<name>2089</name>
</trkpt>
<trkpt lat="48.946753" lon="8.645897">
<ele>287.5</ele>
<speed>4.8</speed>
<course>270.0</course>
<desc>Speed 4.8 km/h Distance 2.87 km</desc>
<time>2010-02-27T10:36:37.33</time>
<name>2090</name>
</trkpt>
<trkpt lat="48.946753" lon="8.645877">
<ele>287.0</ele>
<speed>5.0</speed>
<course>270.0</course>
<desc>Speed 5.0 km/h Distance 2.87 km</desc>
<time>2010-02-27T10:36:38.33</time>
<name>2091</name>
</trkpt>
<trkpt lat="48.946753" lon="8.645855">
<ele>287.5</ele>
<speed>4.6</speed>
<course>262.8</course>
<desc>Speed 4.6 km/h Distance 2.87 km</desc>
<time>2010-02-27T10:36:39.33</time>
<name>2092</name>
</trkpt>
<trkpt lat="48.946752" lon="8.645835">
<ele>287.5</ele>
<speed>4.6</speed>
<course>270.0</course>
<desc>Speed 4.6 km/h Distance 2.88 km</desc>
<time>2010-02-27T10:36:40.33</time>
<name>2093</name>
</trkpt>
<trkpt lat="48.946752" lon="8.645815">
<ele>287.5</ele>
<speed>4.8</speed>
<course>255.8</course>
<desc>Speed 4.8 km/h Distance 2.88 km</desc>
<time>2010-02-27T10:36:41.33</time>
<name>2094</name>
</trkpt>
<trkpt lat="48.946748" lon="8.645795">
<ele>287.5</ele>
<speed>4.9</speed>
<course>256.8</course>
<desc>Speed 4.9 km/h Distance 2.88 km</desc>
<time>2010-02-27T10:36:42.32</time>
<name>2095</name>
</trkpt>
<trkpt lat="48.946745" lon="8.645773">
<ele>287.0</ele>
<speed>4.8</speed>
<course>256.8</course>
<desc>Speed 4.8 km/h Distance 2.88 km</desc>
<time>2010-02-27T10:36:43.33</time>
<name>2096</name>
</trkpt>
<trkpt lat="48.946742" lon="8.645752">
<ele>286.5</ele>
<speed>5.3</speed>
<course>270.0</course>
<desc>Speed 5.3 km/h Distance 2.88 km</desc>
<time>2010-02-27T10:36:44.32</time>
<name>2097</name>
</trkpt>
<trkpt lat="48.946742" lon="8.645730">
<ele>286.5</ele>
<speed>4.9</speed>
<course>256.8</course>
<desc>Speed 4.9 km/h Distance 2.88 km</desc>
<time>2010-02-27T10:36:45.32</time>
<name>2098</name>
</trkpt>
<trkpt lat="48.946738" lon="8.645708">
<ele>286.5</ele>
<speed>4.7</speed>
<course>270.0</course>
<desc>Speed 4.7 km/h Distance 2.89 km</desc>
<time>2010-02-27T10:36:46.32</time>
<name>2099</name>
</trkpt>
<trkpt lat="48.946738" lon="8.645690">
<ele>286.5</ele>
<speed>4.2</speed>
<course>262.8</course>
<desc>Speed 4.2 km/h Distance 2.89 km</desc>
<time>2010-02-27T10:36:47.32</time>
<name>2100</name>
</trkpt>
<trkpt lat="48.946737" lon="8.645670">
<ele>286.5</ele>
<speed>5.1</speed>
<course>262.8</course>
<desc>Speed 5.1 km/h Distance 2.89 km</desc>
<time>2010-02-27T10:36:48.32</time>
<name>2101</name>
</trkpt>
<trkpt lat="48.946735" lon="8.645650">
<ele>286.0</ele>
<speed>4.8</speed>
<course>254.5</course>
<desc>Speed 4.8 km/h Distance 2.89 km</desc>
<time>2010-02-27T10:36:49.32</time>
<name>2102</name>
</trkpt>
<trkpt lat="48.946732" lon="8.645632">
<ele>285.5</ele>
<speed>4.6</speed>
<course>261.3</course>
<desc>Speed 4.6 km/h Distance 2.89 km</desc>
<time>2010-02-27T10:36:50.32</time>
<name>2103</name>
</trkpt>
<trkpt lat="48.946730" lon="8.645615">
<ele>285.5</ele>
<speed>4.3</speed>
<course>251.3</course>
<desc>Speed 4.3 km/h Distance 2.89 km</desc>
<time>2010-02-27T10:36:51.32</time>
<name>2104</name>
</trkpt>
<trkpt lat="48.946727" lon="8.645600">
<ele>285.0</ele>
<speed>3.9</speed>
<course>251.3</course>
<desc>Speed 3.9 km/h Distance 2.89 km</desc>
<time>2010-02-27T10:36:52.32</time>
<name>2105</name>
</trkpt>
<trkpt lat="48.946723" lon="8.645585">
<ele>285.0</ele>
<speed>4.2</speed>
<course>243.1</course>
<desc>Speed 4.2 km/h Distance 2.89 km</desc>
<time>2010-02-27T10:36:53.32</time>
<name>2106</name>
</trkpt>
<trkpt lat="48.946717" lon="8.645565">
<ele>284.5</ele>
<speed>5.2</speed>
<course>249.2</course>
<desc>Speed 5.2 km/h Distance 2.90 km</desc>
<time>2010-02-27T10:36:54.31</time>
<name>2107</name>
</trkpt>
<trkpt lat="48.946712" lon="8.645545">
<ele>283.5</ele>
<speed>5.3</speed>
<course>254.5</course>
<desc>Speed 5.3 km/h Distance 2.90 km</desc>
<time>2010-02-27T10:36:55.31</time>
<name>2108</name>
</trkpt>
<trkpt lat="48.946708" lon="8.645527">
<ele>284.0</ele>
<speed>4.8</speed>
<course>238.6</course>
<desc>Speed 4.8 km/h Distance 2.90 km</desc>
<time>2010-02-27T10:36:56.31</time>
<name>2109</name>
</trkpt>
<trkpt lat="48.946702" lon="8.645510">
<ele>283.0</ele>
<speed>5.0</speed>
<course>232.7</course>
<desc>Speed 5.0 km/h Distance 2.90 km</desc>
<time>2010-02-27T10:36:57.31</time>
<name>2110</name>
</trkpt>
<trkpt lat="48.946693" lon="8.645493">
<ele>282.0</ele>
<speed>4.9</speed>
<course>239.7</course>
<desc>Speed 4.9 km/h Distance 2.90 km</desc>
<time>2010-02-27T10:36:58.31</time>
<name>2111</name>
</trkpt>
<trkpt lat="48.946685" lon="8.645472">
<ele>283.5</ele>
<speed>6.6</speed>
<course>247.4</course>
<desc>Speed 6.6 km/h Distance 2.90 km</desc>
<time>2010-02-27T10:36:59.31</time>
<name>2112</name>
</trkpt>
<trkpt lat="48.946680" lon="8.645453">
<ele>283.5</ele>
<speed>4.9</speed>
<course>241.0</course>
<desc>Speed 4.9 km/h Distance 2.91 km</desc>
<time>2010-02-27T10:37:00.32</time>
<name>2113</name>
</trkpt>
<trkpt lat="48.946673" lon="8.645435">
<ele>284.5</ele>
<speed>5.0</speed>
<course>247.4</course>
<desc>Speed 5.0 km/h Distance 2.91 km</desc>
<time>2010-02-27T10:37:01.31</time>
<name>2114</name>
</trkpt>
<trkpt lat="48.946668" lon="8.645417">
<ele>284.5</ele>
<speed>5.0</speed>
<course>232.7</course>
<desc>Speed 5.0 km/h Distance 2.91 km</desc>
<time>2010-02-27T10:37:02.32</time>
<name>2115</name>
</trkpt>
<trkpt lat="48.946660" lon="8.645400">
<ele>285.0</ele>
<speed>4.8</speed>
<course>241.0</course>
<desc>Speed 4.8 km/h Distance 2.91 km</desc>
<time>2010-02-27T10:37:03.32</time>
<name>2116</name>
</trkpt>
<trkpt lat="48.946653" lon="8.645382">
<ele>285.0</ele>
<speed>5.1</speed>
<course>247.5</course>
<desc>Speed 5.1 km/h Distance 2.91 km</desc>
<time>2010-02-27T10:37:04.32</time>
<name>2117</name>
</trkpt>
<trkpt lat="48.946648" lon="8.645363">
<ele>284.5</ele>
<speed>5.2</speed>
<course>239.6</course>
<desc>Speed 5.2 km/h Distance 2.91 km</desc>
<time>2010-02-27T10:37:05.32</time>
<name>2118</name>
</trkpt>
<trkpt lat="48.946640" lon="8.645342">
<ele>284.5</ele>
<speed>5.0</speed>
<course>243.1</course>
<desc>Speed 5.0 km/h Distance 2.91 km</desc>
<time>2010-02-27T10:37:06.32</time>
<name>2119</name>
</trkpt>
<trkpt lat="48.946633" lon="8.645322">
<ele>284.0</ele>
<speed>4.9</speed>
<course>253.1</course>
<desc>Speed 4.9 km/h Distance 2.92 km</desc>
<time>2010-02-27T10:37:07.32</time>
<name>2120</name>
</trkpt>
<trkpt lat="48.946630" lon="8.645305">
<ele>283.0</ele>
<speed>3.7</speed>
<course>232.7</course>
<desc>Speed 3.7 km/h Distance 2.92 km</desc>
<time>2010-02-27T10:37:08.31</time>
<name>2121</name>
</trkpt>
<trkpt lat="48.946623" lon="8.645292">
<ele>282.5</ele>
<speed>4.1</speed>
<course>241.0</course>
<desc>Speed 4.1 km/h Distance 2.92 km</desc>
<time>2010-02-27T10:37:09.31</time>
<name>2122</name>
</trkpt>
<trkpt lat="48.946617" lon="8.645273">
<ele>282.0</ele>
<speed>5.0</speed>
<course>247.4</course>
<desc>Speed 5.0 km/h Distance 2.92 km</desc>
<time>2010-02-27T10:37:10.32</time>
<name>2123</name>
</trkpt>
<trkpt lat="48.946612" lon="8.645255">
<ele>282.0</ele>
<speed>5.5</speed>
<course>245.4</course>
<desc>Speed 5.5 km/h Distance 2.92 km</desc>
<time>2010-02-27T10:37:11.32</time>
<name>2124</name>
</trkpt>
<trkpt lat="48.946607" lon="8.645238">
<ele>281.5</ele>
<speed>5.1</speed>
<course>262.1</course>
<desc>Speed 5.1 km/h Distance 2.92 km</desc>
<time>2010-02-27T10:37:12.32</time>
<name>2125</name>
</trkpt>
<trkpt lat="48.946605" lon="8.645220">
<ele>281.5</ele>
<speed>4.6</speed>
<course>255.8</course>
<desc>Speed 4.6 km/h Distance 2.92 km</desc>
<time>2010-02-27T10:37:13.32</time>
<name>2126</name>
</trkpt>
<trkpt lat="48.946602" lon="8.645200">
<ele>282.0</ele>
<speed>5.4</speed>
<course>241.0</course>
<desc>Speed 5.4 km/h Distance 2.93 km</desc>
<time>2010-02-27T10:37:14.32</time>
<name>2127</name>
</trkpt>
<trkpt lat="48.946595" lon="8.645182">
<ele>281.5</ele>
<speed>5.2</speed>
<course>238.7</course>
<desc>Speed 5.2 km/h Distance 2.93 km</desc>
<time>2010-02-27T10:37:15.32</time>
<name>2128</name>
</trkpt>
<trkpt lat="48.946588" lon="8.645165">
<ele>281.5</ele>
<speed>5.1</speed>
<course>243.1</course>
<desc>Speed 5.1 km/h Distance 2.93 km</desc>
<time>2010-02-27T10:37:16.31</time>
<name>2129</name>
</trkpt>
<trkpt lat="48.946582" lon="8.645145">
<ele>282.5</ele>
<speed>5.4</speed>
<course>240.1</course>
<desc>Speed 5.4 km/h Distance 2.93 km</desc>
<time>2010-02-27T10:37:17.31</time>
<name>2130</name>
</trkpt>
<trkpt lat="48.946577" lon="8.645132">
<ele>283.0</ele>
<speed>4.5</speed>
<course>224.6</course>
<desc>Speed 4.5 km/h Distance 2.93 km</desc>
<time>2010-02-27T10:37:18.31</time>
<name>2131</name>
</trkpt>
<trkpt lat="48.946567" lon="8.645117">
<ele>283.0</ele>
<speed>5.2</speed>
<course>235.9</course>
<desc>Speed 5.2 km/h Distance 2.93 km</desc>
<time>2010-02-27T10:37:19.31</time>
<name>2132</name>
</trkpt>
<trkpt lat="48.946560" lon="8.645102">
<ele>283.5</ele>
<speed>4.5</speed>
<course>251.3</course>
<desc>Speed 4.5 km/h Distance 2.93 km</desc>
<time>2010-02-27T10:37:20.31</time>
<name>2133</name>
</trkpt>
<trkpt lat="48.946557" lon="8.645087">
<ele>284.5</ele>
<speed>3.9</speed>
<course>243.1</course>
<desc>Speed 3.9 km/h Distance 2.94 km</desc>
<time>2010-02-27T10:37:21.34</time>
<name>2134</name>
</trkpt>
<trkpt lat="48.946552" lon="8.645072">
<ele>285.0</ele>
<speed>4.6</speed>
<course>238.6</course>
<desc>Speed 4.6 km/h Distance 2.94 km</desc>
<time>2010-02-27T10:37:22.31</time>
<name>2135</name>
</trkpt>
<trkpt lat="48.946545" lon="8.645055">
<ele>285.0</ele>
<speed>5.0</speed>
<course>237.6</course>
<desc>Speed 5.0 km/h Distance 2.94 km</desc>
<time>2010-02-27T10:37:23.31</time>
<name>2136</name>
</trkpt>
<trkpt lat="48.946537" lon="8.645035">
<ele>285.0</ele>
<speed>5.6</speed>
<course>249.2</course>
<desc>Speed 5.6 km/h Distance 2.94 km</desc>
<time>2010-02-27T10:37:24.32</time>
<name>2137</name>
</trkpt>
<trkpt lat="48.946532" lon="8.645015">
<ele>285.0</ele>
<speed>5.0</speed>
<course>250.6</course>
<desc>Speed 5.0 km/h Distance 2.94 km</desc>
<time>2010-02-27T10:37:25.31</time>
<name>2138</name>
</trkpt>
<trkpt lat="48.946527" lon="8.644993">
<ele>285.0</ele>
<speed>5.3</speed>
<course>247.4</course>
<desc>Speed 5.3 km/h Distance 2.94 km</desc>
<time>2010-02-27T10:37:26.31</time>
<name>2139</name>
</trkpt>
<trkpt lat="48.946522" lon="8.644975">
<ele>285.0</ele>
<speed>4.4</speed>
<course>243.1</course>
<desc>Speed 4.4 km/h Distance 2.94 km</desc>
<time>2010-02-27T10:37:27.30</time>
<name>2140</name>
</trkpt>
<trkpt lat="48.946515" lon="8.644955">
<ele>285.5</ele>
<speed>5.1</speed>
<course>235.3</course>
<desc>Speed 5.1 km/h Distance 2.95 km</desc>
<time>2010-02-27T10:37:28.30</time>
<name>2141</name>
</trkpt>
<trkpt lat="48.946507" lon="8.644937">
<ele>285.0</ele>
<speed>5.3</speed>
<course>239.7</course>
<desc>Speed 5.3 km/h Distance 2.95 km</desc>
<time>2010-02-27T10:37:29.30</time>
<name>2142</name>
</trkpt>
<trkpt lat="48.946498" lon="8.644915">
<ele>284.5</ele>
<speed>5.7</speed>
<course>247.5</course>
<desc>Speed 5.7 km/h Distance 2.95 km</desc>
<time>2010-02-27T10:37:30.31</time>
<name>2143</name>
</trkpt>
<trkpt lat="48.946493" lon="8.644897">
<ele>285.0</ele>
<speed>5.2</speed>
<course>227.7</course>
<desc>Speed 5.2 km/h Distance 2.95 km</desc>
<time>2010-02-27T10:37:31.31</time>
<name>2144</name>
</trkpt>
<trkpt lat="48.946483" lon="8.644880">
<ele>285.0</ele>
<speed>5.1</speed>
<course>245.5</course>
<desc>Speed 5.1 km/h Distance 2.95 km</desc>
<time>2010-02-27T10:37:32.30</time>
<name>2145</name>
</trkpt>
<trkpt lat="48.946478" lon="8.644863">
<ele>285.0</ele>
<speed>5.0</speed>
<course>250.6</course>
<desc>Speed 5.0 km/h Distance 2.95 km</desc>
<time>2010-02-27T10:37:33.30</time>
<name>2146</name>
</trkpt>
<trkpt lat="48.946473" lon="8.644842">
<ele>286.0</ele>
<speed>5.6</speed>
<course>243.2</course>
<desc>Speed 5.6 km/h Distance 2.96 km</desc>
<time>2010-02-27T10:37:34.31</time>
<name>2147</name>
</trkpt>
<trkpt lat="48.946467" lon="8.644822">
<ele>287.0</ele>
<speed>5.5</speed>
<course>249.2</course>
<desc>Speed 5.5 km/h Distance 2.96 km</desc>
<time>2010-02-27T10:37:35.29</time>
<name>2148</name>
</trkpt>
<trkpt lat="48.946462" lon="8.644802">
<ele>288.0</ele>
<speed>5.2</speed>
<course>227.6</course>
<desc>Speed 5.2 km/h Distance 2.96 km</desc>
<time>2010-02-27T10:37:36.29</time>
<name>2149</name>
</trkpt>
<trkpt lat="48.946452" lon="8.644785">
<ele>287.0</ele>
<speed>5.4</speed>
<course>235.3</course>
<desc>Speed 5.4 km/h Distance 2.96 km</desc>
<time>2010-02-27T10:37:37.29</time>
<name>2150</name>
</trkpt>
<trkpt lat="48.946443" lon="8.644767">
<ele>287.0</ele>
<speed>5.1</speed>
<course>245.4</course>
<desc>Speed 5.1 km/h Distance 2.96 km</desc>
<time>2010-02-27T10:37:38.30</time>
<name>2151</name>
</trkpt>
<trkpt lat="48.946438" lon="8.644750">
<ele>287.5</ele>
<speed>4.8</speed>
<course>229.7</course>
<desc>Speed 4.8 km/h Distance 2.96 km</desc>
<time>2010-02-27T10:37:39.31</time>
<name>2152</name>
</trkpt>
<trkpt lat="48.946430" lon="8.644735">
<ele>287.5</ele>
<speed>4.8</speed>
<course>238.7</course>
<desc>Speed 4.8 km/h Distance 2.97 km</desc>
<time>2010-02-27T10:37:40.29</time>
<name>2153</name>
</trkpt>
<trkpt lat="48.946423" lon="8.644718">
<ele>287.5</ele>
<speed>5.3</speed>
<course>232.7</course>
<desc>Speed 5.3 km/h Distance 2.97 km</desc>
<time>2010-02-27T10:37:41.30</time>
<name>2154</name>
</trkpt>
<trkpt lat="48.946415" lon="8.644702">
<ele>287.0</ele>
<speed>4.8</speed>
<course>247.4</course>
<desc>Speed 4.8 km/h Distance 2.97 km</desc>
<time>2010-02-27T10:37:42.31</time>
<name>2155</name>
</trkpt>
<trkpt lat="48.946410" lon="8.644683">
<ele>287.0</ele>
<speed>5.0</speed>
<course>243.1</course>
<desc>Speed 5.0 km/h Distance 2.97 km</desc>
<time>2010-02-27T10:37:43.29</time>
<name>2156</name>
</trkpt>
<trkpt lat="48.946405" lon="8.644668">
<ele>286.5</ele>
<speed>4.6</speed>
<course>238.7</course>
<desc>Speed 4.6 km/h Distance 2.97 km</desc>
<time>2010-02-27T10:37:44.30</time>
<name>2157</name>
</trkpt>
<trkpt lat="48.946398" lon="8.644652">
<ele>286.5</ele>
<speed>5.0</speed>
<course>235.9</course>
<desc>Speed 5.0 km/h Distance 2.97 km</desc>
<time>2010-02-27T10:37:45.30</time>
<name>2158</name>
</trkpt>
<trkpt lat="48.946392" lon="8.644637">
<ele>287.0</ele>
<speed>4.9</speed>
<course>260.4</course>
<desc>Speed 4.9 km/h Distance 2.97 km</desc>
<time>2010-02-27T10:37:46.30</time>
<name>2159</name>
</trkpt>
<trkpt lat="48.946390" lon="8.644622">
<ele>288.0</ele>
<speed>4.0</speed>
<course>251.4</course>
<desc>Speed 4.0 km/h Distance 2.97 km</desc>
<time>2010-02-27T10:37:47.30</time>
<name>2160</name>
</trkpt>
<trkpt lat="48.946387" lon="8.644607">
<ele>288.0</ele>
<speed>3.8</speed>
<course>262.8</course>
<desc>Speed 3.8 km/h Distance 2.98 km</desc>
<time>2010-02-27T10:37:48.29</time>
<name>2161</name>
</trkpt>
<trkpt lat="48.946385" lon="8.644587">
<ele>288.5</ele>
<speed>5.4</speed>
<course>259.2</course>
<desc>Speed 5.4 km/h Distance 2.98 km</desc>
<time>2010-02-27T10:37:49.30</time>
<name>2162</name>
</trkpt>
<trkpt lat="48.946382" lon="8.644560">
<ele>287.5</ele>
<speed>6.9</speed>
<course>255.8</course>
<desc>Speed 6.9 km/h Distance 2.98 km</desc>
<time>2010-02-27T10:37:50.30</time>
<name>2163</name>
</trkpt>
<trkpt lat="48.946378" lon="8.644540">
<ele>287.0</ele>
<speed>5.2</speed>
<course>254.5</course>
<desc>Speed 5.2 km/h Distance 2.98 km</desc>
<time>2010-02-27T10:37:51.30</time>
<name>2164</name>
</trkpt>
<trkpt lat="48.946375" lon="8.644522">
<ele>287.5</ele>
<speed>4.4</speed>
<course>246.5</course>
<desc>Speed 4.4 km/h Distance 2.98 km</desc>
<time>2010-02-27T10:37:52.30</time>
<name>2165</name>
</trkpt>
<trkpt lat="48.946368" lon="8.644498">
<ele>286.0</ele>
<speed>5.9</speed>
<course>244.9</course>
<desc>Speed 5.9 km/h Distance 2.98 km</desc>
<time>2010-02-27T10:37:53.29</time>
<name>2166</name>
</trkpt>
<trkpt lat="48.946362" lon="8.644477">
<ele>286.0</ele>
<speed>5.5</speed>
<course>249.2</course>
<desc>Speed 5.5 km/h Distance 2.99 km</desc>
<time>2010-02-27T10:37:54.29</time>
<name>2167</name>
</trkpt>
<trkpt lat="48.946357" lon="8.644457">
<ele>285.0</ele>
<speed>5.1</speed>
<course>228.9</course>
<desc>Speed 5.1 km/h Distance 2.99 km</desc>
<time>2010-02-27T10:37:55.29</time>
<name>2168</name>
</trkpt>
<trkpt lat="48.946350" lon="8.644445">
<ele>285.5</ele>
<speed>4.1</speed>
<course>243.1</course>
<desc>Speed 4.1 km/h Distance 2.99 km</desc>
<time>2010-02-27T10:37:56.29</time>
<name>2169</name>
</trkpt>
<trkpt lat="48.946343" lon="8.644425">
<ele>284.0</ele>
<speed>5.5</speed>
<course>250.6</course>
<desc>Speed 5.5 km/h Distance 2.99 km</desc>
<time>2010-02-27T10:37:57.29</time>
<name>2170</name>
</trkpt>
<trkpt lat="48.946338" lon="8.644403">
<ele>283.0</ele>
<speed>5.8</speed>
<course>243.1</course>
<desc>Speed 5.8 km/h Distance 2.99 km</desc>
<time>2010-02-27T10:37:58.29</time>
<name>2171</name>
</trkpt>
<trkpt lat="48.946332" lon="8.644383">
<ele>282.0</ele>
<speed>5.4</speed>
<course>237.6</course>
<desc>Speed 5.4 km/h Distance 2.99 km</desc>
<time>2010-02-27T10:37:59.30</time>
<name>2172</name>
</trkpt>
<trkpt lat="48.946323" lon="8.644363">
<ele>281.0</ele>
<speed>5.6</speed>
<course>249.2</course>
<desc>Speed 5.6 km/h Distance 3.00 km</desc>
<time>2010-02-27T10:38:00.29</time>
<name>2173</name>
</trkpt>
<trkpt lat="48.946318" lon="8.644343">
<ele>280.5</ele>
<speed>5.1</speed>
<course>245.5</course>
<desc>Speed 5.1 km/h Distance 3.00 km</desc>
<time>2010-02-27T10:38:01.29</time>
<name>2174</name>
</trkpt>
<trkpt lat="48.946313" lon="8.644327">
<ele>281.0</ele>
<speed>5.2</speed>
<course>249.2</course>
<desc>Speed 5.2 km/h Distance 3.00 km</desc>
<time>2010-02-27T10:38:02.29</time>
<name>2175</name>
</trkpt>
<trkpt lat="48.946308" lon="8.644307">
<ele>281.0</ele>
<speed>5.4</speed>
<course>249.2</course>
<desc>Speed 5.4 km/h Distance 3.00 km</desc>
<time>2010-02-27T10:38:03.29</time>
<name>2176</name>
</trkpt>
<trkpt lat="48.946303" lon="8.644287">
<ele>280.0</ele>
<speed>5.1</speed>
<course>238.6</course>
<desc>Speed 5.1 km/h Distance 3.00 km</desc>
<time>2010-02-27T10:38:04.29</time>
<name>2177</name>
</trkpt>
<trkpt lat="48.946297" lon="8.644270">
<ele>280.5</ele>
<speed>5.5</speed>
<course>232.7</course>
<desc>Speed 5.5 km/h Distance 3.00 km</desc>
<time>2010-02-27T10:38:05.29</time>
<name>2178</name>
</trkpt>
<trkpt lat="48.946290" lon="8.644257">
<ele>281.0</ele>
<speed>4.6</speed>
<course>238.6</course>
<desc>Speed 4.6 km/h Distance 3.00 km</desc>
<time>2010-02-27T10:38:06.29</time>
<name>2179</name>
</trkpt>
<trkpt lat="48.946283" lon="8.644240">
<ele>281.5</ele>
<speed>4.8</speed>
<course>243.2</course>
<desc>Speed 4.8 km/h Distance 3.01 km</desc>
<time>2010-02-27T10:38:07.28</time>
<name>2180</name>
</trkpt>
<trkpt lat="48.946277" lon="8.644220">
<ele>282.0</ele>
<speed>5.9</speed>
<course>247.5</course>
<desc>Speed 5.9 km/h Distance 3.01 km</desc>
<time>2010-02-27T10:38:08.29</time>
<name>2181</name>
</trkpt>
<trkpt lat="48.946272" lon="8.644202">
<ele>282.5</ele>
<speed>5.8</speed>
<course>263.3</course>
<desc>Speed 5.8 km/h Distance 3.01 km</desc>
<time>2010-02-27T10:38:09.29</time>
<name>2182</name>
</trkpt>
<trkpt lat="48.946270" lon="8.644180">
<ele>283.0</ele>
<speed>5.4</speed>
<course>254.5</course>
<desc>Speed 5.4 km/h Distance 3.01 km</desc>
<time>2010-02-27T10:38:10.29</time>
<name>2183</name>
</trkpt>
<trkpt lat="48.946267" lon="8.644162">
<ele>283.5</ele>
<speed>5.0</speed>
<course>257.7</course>
<desc>Speed 5.0 km/h Distance 3.01 km</desc>
<time>2010-02-27T10:38:11.28</time>
<name>2184</name>
</trkpt>
<trkpt lat="48.946263" lon="8.644138">
<ele>283.5</ele>
<speed>6.4</speed>
<course>243.1</course>
<desc>Speed 6.4 km/h Distance 3.01 km</desc>
<time>2010-02-27T10:38:12.28</time>
<name>2185</name>
</trkpt>
<trkpt lat="48.946258" lon="8.644123">
<ele>285.0</ele>
<speed>4.6</speed>
<course>241.0</course>
<desc>Speed 4.6 km/h Distance 3.01 km</desc>
<time>2010-02-27T10:38:13.28</time>
<name>2186</name>
</trkpt>
<trkpt lat="48.946252" lon="8.644105">
<ele>285.0</ele>
<speed>5.6</speed>
<course>236.0</course>
<desc>Speed 5.6 km/h Distance 3.02 km</desc>
<time>2010-02-27T10:38:14.28</time>
<name>2187</name>
</trkpt>
<trkpt lat="48.946245" lon="8.644090">
<ele>285.5</ele>
<speed>4.9</speed>
<course>227.8</course>
<desc>Speed 4.9 km/h Distance 3.02 km</desc>
<time>2010-02-27T10:38:15.29</time>
<name>2188</name>
</trkpt>
<trkpt lat="48.946240" lon="8.644082">
<ele>287.5</ele>
<speed>3.5</speed>
<course>224.5</course>
<desc>Speed 3.5 km/h Distance 3.02 km</desc>
<time>2010-02-27T10:38:16.28</time>
<name>2189</name>
</trkpt>
<trkpt lat="48.946230" lon="8.644067">
<ele>288.5</ele>
<speed>5.5</speed>
<course>241.0</course>
<desc>Speed 5.5 km/h Distance 3.02 km</desc>
<time>2010-02-27T10:38:17.29</time>
<name>2190</name>
</trkpt>
<trkpt lat="48.946223" lon="8.644048">
<ele>288.5</ele>
<speed>5.7</speed>
<course>238.7</course>
<desc>Speed 5.7 km/h Distance 3.02 km</desc>
<time>2010-02-27T10:38:18.29</time>
<name>2191</name>
</trkpt>
<trkpt lat="48.946217" lon="8.644032">
<ele>290.0</ele>
<speed>4.9</speed>
<course>236.1</course>
<desc>Speed 4.9 km/h Distance 3.02 km</desc>
<time>2010-02-27T10:38:19.29</time>
<name>2192</name>
</trkpt>
<trkpt lat="48.946210" lon="8.644017">
<ele>290.5</ele>
<speed>4.4</speed>
<course>238.7</course>
<desc>Speed 4.4 km/h Distance 3.02 km</desc>
<time>2010-02-27T10:38:20.29</time>
<name>2193</name>
</trkpt>
<trkpt lat="48.946203" lon="8.644000">
<ele>291.0</ele>
<speed>4.7</speed>
<course>238.7</course>
<desc>Speed 4.7 km/h Distance 3.03 km</desc>
<time>2010-02-27T10:38:21.29</time>
<name>2194</name>
</trkpt>
<trkpt lat="48.946197" lon="8.643983">
<ele>291.5</ele>
<speed>5.4</speed>
<course>232.7</course>
<desc>Speed 5.4 km/h Distance 3.03 km</desc>
<time>2010-02-27T10:38:22.28</time>
<name>2195</name>
</trkpt>
<trkpt lat="48.946188" lon="8.643967">
<ele>291.0</ele>
<speed>5.1</speed>
<course>232.7</course>
<desc>Speed 5.1 km/h Distance 3.03 km</desc>
<time>2010-02-27T10:38:23.28</time>
<name>2196</name>
</trkpt>
<trkpt lat="48.946180" lon="8.643950">
<ele>290.5</ele>
<speed>5.4</speed>
<course>235.9</course>
<desc>Speed 5.4 km/h Distance 3.03 km</desc>
<time>2010-02-27T10:38:24.29</time>
<name>2197</name>
</trkpt>
<trkpt lat="48.946173" lon="8.643935">
<ele>291.0</ele>
<speed>4.6</speed>
<course>223.1</course>
<desc>Speed 4.6 km/h Distance 3.03 km</desc>
<time>2010-02-27T10:38:25.29</time>
<name>2198</name>
</trkpt>
<trkpt lat="48.946162" lon="8.643918">
<ele>290.5</ele>
<speed>5.9</speed>
<course>226.4</course>
<desc>Speed 5.9 km/h Distance 3.03 km</desc>
<time>2010-02-27T10:38:26.31</time>
<name>2199</name>
</trkpt>
<trkpt lat="48.946153" lon="8.643905">
<ele>292.0</ele>
<speed>4.5</speed>
<course>229.7</course>
<desc>Speed 4.5 km/h Distance 3.03 km</desc>
<time>2010-02-27T10:38:27.28</time>
<name>2200</name>
</trkpt>
<trkpt lat="48.946145" lon="8.643890">
<ele>292.0</ele>
<speed>5.0</speed>
<course>249.2</course>
<desc>Speed 5.0 km/h Distance 3.04 km</desc>
<time>2010-02-27T10:38:28.28</time>
<name>2201</name>
</trkpt>
<trkpt lat="48.946140" lon="8.643870">
<ele>292.0</ele>
<speed>5.1</speed>
<course>246.5</course>
<desc>Speed 5.1 km/h Distance 3.04 km</desc>
<time>2010-02-27T10:38:29.31</time>
<name>2202</name>
</trkpt>
<trkpt lat="48.946137" lon="8.643858">
<ele>292.0</ele>
<speed>3.3</speed>
<course>332.1</course>
<desc>Speed 3.3 km/h Distance 3.04 km</desc>
<time>2010-02-27T10:38:30.28</time>
<name>2203</name>
</trkpt>
<trkpt lat="48.946145" lon="8.643852">
<ele>296.0</ele>
<speed>0.9</speed>
<course>352.6</course>
<desc>Speed 0.9 km/h Distance 3.04 km</desc>
<time>2010-02-27T10:38:32.28</time>
<name>2204</name>
</trkpt>
<trkpt lat="48.946152" lon="8.643850">
<ele>296.5</ele>
<speed>2.6</speed>
<course>307.6</course>
<desc>Speed 2.6 km/h Distance 3.04 km</desc>
<time>2010-02-27T10:38:33.68</time>
<name>2205</name>
</trkpt>
<trkpt lat="48.946155" lon="8.643843">
<ele>296.5</ele>
<speed>1.6</speed>
<course>62.6</course>
<desc>Speed 1.6 km/h Distance 3.04 km</desc>
<time>2010-02-27T10:38:34.28</time>
<name>2206</name>
</trkpt>
<trkpt lat="48.946157" lon="8.643848">
<ele>297.5</ele>
<speed>1.1</speed>
<course>64.9</course>
<desc>Speed 1.1 km/h Distance 3.04 km</desc>
<time>2010-02-27T10:38:35.59</time>
<name>2207</name>
</trkpt>
<trkpt lat="48.946163" lon="8.643870">
<ele>298.0</ele>
<speed>6.3</speed>
<course>6.6</course>
<desc>Speed 6.3 km/h Distance 3.04 km</desc>
<time>2010-02-27T10:38:36.49</time>
<name>2208</name>
</trkpt>
<trkpt lat="48.946183" lon="8.643873">
<ele>301.0</ele>
<speed>7.7</speed>
<course>18.2</course>
<desc>Speed 7.7 km/h Distance 3.04 km</desc>
<time>2010-02-27T10:38:37.49</time>
<name>2209</name>
</trkpt>
<trkpt lat="48.946193" lon="8.643878">
<ele>301.5</ele>
<speed>4.3</speed>
<course>352.6</course>
<desc>Speed 4.3 km/h Distance 3.05 km</desc>
<time>2010-02-27T10:38:38.67</time>
<name>2210</name>
</trkpt>
<trkpt lat="48.946200" lon="8.643877">
<ele>299.5</ele>
<speed>2.2</speed>
<course>5.0</course>
<desc>Speed 2.2 km/h Distance 3.05 km</desc>
<time>2010-02-27T10:38:39.49</time>
<name>2211</name>
</trkpt>
<trkpt lat="48.946208" lon="8.643877">
<ele>300.0</ele>
<speed>2.8</speed>
<course>24.8</course>
<desc>Speed 2.8 km/h Distance 3.05 km</desc>
<time>2010-02-27T10:38:40.49</time>
<name>2212</name>
</trkpt>
<trkpt lat="48.946215" lon="8.643882">
<ele>299.5</ele>
<speed>3.5</speed>
<course>345.1</course>
<desc>Speed 3.5 km/h Distance 3.05 km</desc>
<time>2010-02-27T10:38:41.50</time>
<name>2213</name>
</trkpt>
<trkpt lat="48.946223" lon="8.643878">
<ele>299.0</ele>
<speed>2.6</speed>
<course>336.2</course>
<desc>Speed 2.6 km/h Distance 3.05 km</desc>
<time>2010-02-27T10:38:42.50</time>
<name>2214</name>
</trkpt>
<trkpt lat="48.946228" lon="8.643875">
<ele>297.5</ele>
<speed>1.0</speed>
<course>4.4</course>
<desc>Speed 1.0 km/h Distance 3.05 km</desc>
<time>2010-02-27T10:38:43.49</time>
<name>2215</name>
</trkpt>
<trkpt lat="48.946238" lon="8.643877">
<ele>297.5</ele>
<speed>3.6</speed>
<course>12.6</course>
<desc>Speed 3.6 km/h Distance 3.05 km</desc>
<time>2010-02-27T10:38:44.49</time>
<name>2216</name>
</trkpt>
<trkpt lat="48.946242" lon="8.643878">
<ele>296.0</ele>
<speed>1.5</speed>
<course>4.4</course>
<desc>Speed 1.5 km/h Distance 3.05 km</desc>
<time>2010-02-27T10:38:45.52</time>
<name>2217</name>
</trkpt>
<trkpt lat="48.946252" lon="8.643880">
<ele>296.5</ele>
<speed>3.4</speed>
<course>12.6</course>
<desc>Speed 3.4 km/h Distance 3.05 km</desc>
<time>2010-02-27T10:38:46.49</time>
<name>2218</name>
</trkpt>
<trkpt lat="48.946262" lon="8.643883">
<ele>296.0</ele>
<speed>4.7</speed>
<course>1.2</course>
<desc>Speed 4.7 km/h Distance 3.05 km</desc>
<time>2010-02-27T10:38:47.48</time>
<name>2219</name>
</trkpt>
<trkpt lat="48.946275" lon="8.643883">
<ele>295.5</ele>
<speed>4.1</speed>
<course>4.4</course>
<desc>Speed 4.1 km/h Distance 3.06 km</desc>
<time>2010-02-27T10:38:48.48</time>
<name>2220</name>
</trkpt>
<trkpt lat="48.946285" lon="8.643885">
<ele>296.5</ele>
<speed>3.2</speed>
<course>5.3</course>
<desc>Speed 3.2 km/h Distance 3.06 km</desc>
<time>2010-02-27T10:38:49.49</time>
<name>2221</name>
</trkpt>
<trkpt lat="48.946298" lon="8.643887">
<ele>298.0</ele>
<speed>3.5</speed>
<course>334.5</course>
<desc>Speed 3.5 km/h Distance 3.06 km</desc>
<time>2010-02-27T10:38:50.49</time>
<name>2222</name>
</trkpt>
<trkpt lat="48.946317" lon="8.643873">
<ele>298.5</ele>
<speed>6.6</speed>
<course>4.4</course>
<desc>Speed 6.6 km/h Distance 3.06 km</desc>
<time>2010-02-27T10:38:51.50</time>
<name>2223</name>
</trkpt>
<trkpt lat="48.946327" lon="8.643873">
<ele>300.5</ele>
<speed>3.7</speed>
<course>345.4</course>
<desc>Speed 3.7 km/h Distance 3.06 km</desc>
<time>2010-02-27T10:38:52.52</time>
<name>2224</name>
</trkpt>
<trkpt lat="48.946352" lon="8.643863">
<ele>300.5</ele>
<speed>7.2</speed>
<course>4.4</course>
<desc>Speed 7.2 km/h Distance 3.06 km</desc>
<time>2010-02-27T10:38:53.49</time>
<name>2225</name>
</trkpt>
<trkpt lat="48.946362" lon="8.643865">
<ele>299.5</ele>
<speed>4.2</speed>
<course>33.5</course>
<desc>Speed 4.2 km/h Distance 3.06 km</desc>
<time>2010-02-27T10:38:54.48</time>
<name>2226</name>
</trkpt>
<trkpt lat="48.946370" lon="8.643873">
<ele>299.5</ele>
<speed>3.7</speed>
<course>28.6</course>
<desc>Speed 3.7 km/h Distance 3.07 km</desc>
<time>2010-02-27T10:38:55.47</time>
<name>2227</name>
</trkpt>
<trkpt lat="48.946380" lon="8.643882">
<ele>300.0</ele>
<speed>4.2</speed>
<course>22.6</course>
<desc>Speed 4.2 km/h Distance 3.07 km</desc>
<time>2010-02-27T10:38:56.47</time>
<name>2228</name>
</trkpt>
<trkpt lat="48.946393" lon="8.643890">
<ele>300.5</ele>
<speed>5.1</speed>
<course>27.9</course>
<desc>Speed 5.1 km/h Distance 3.07 km</desc>
<time>2010-02-27T10:38:57.48</time>
<name>2229</name>
</trkpt>
<trkpt lat="48.946402" lon="8.643897">
<ele>299.5</ele>
<speed>4.2</speed>
<course>26.4</course>
<desc>Speed 4.2 km/h Distance 3.07 km</desc>
<time>2010-02-27T10:38:58.47</time>
<name>2230</name>
</trkpt>
<trkpt lat="48.946415" lon="8.643907">
<ele>299.5</ele>
<speed>5.6</speed>
<course>11.2</course>
<desc>Speed 5.6 km/h Distance 3.07 km</desc>
<time>2010-02-27T10:38:59.47</time>
<name>2231</name>
</trkpt>
<trkpt lat="48.946427" lon="8.643910">
<ele>298.5</ele>
<speed>4.7</speed>
<course>19.7</course>
<desc>Speed 4.7 km/h Distance 3.07 km</desc>
<time>2010-02-27T10:39:00.48</time>
<name>2232</name>
</trkpt>
<trkpt lat="48.946445" lon="8.643920">
<ele>300.0</ele>
<speed>5.8</speed>
<course>22.6</course>
<desc>Speed 5.8 km/h Distance 3.08 km</desc>
<time>2010-02-27T10:39:01.48</time>
<name>2233</name>
</trkpt>
<trkpt lat="48.946458" lon="8.643928">
<ele>300.0</ele>
<speed>5.7</speed>
<course>38.4</course>
<desc>Speed 5.7 km/h Distance 3.08 km</desc>
<time>2010-02-27T10:39:02.47</time>
<name>2234</name>
</trkpt>
<trkpt lat="48.946467" lon="8.643938">
<ele>299.0</ele>
<speed>3.9</speed>
<course>25.2</course>
<desc>Speed 3.9 km/h Distance 3.08 km</desc>
<time>2010-02-27T10:39:03.47</time>
<name>2235</name>
</trkpt>
<trkpt lat="48.946478" lon="8.643947">
<ele>299.0</ele>
<speed>5.5</speed>
<course>14.9</course>
<desc>Speed 5.5 km/h Distance 3.08 km</desc>
<time>2010-02-27T10:39:04.47</time>
<name>2236</name>
</trkpt>
<trkpt lat="48.946490" lon="8.643952">
<ele>298.0</ele>
<speed>4.8</speed>
<course>20.6</course>
<desc>Speed 4.8 km/h Distance 3.08 km</desc>
<time>2010-02-27T10:39:05.48</time>
<name>2237</name>
</trkpt>
<trkpt lat="48.946502" lon="8.643958">
<ele>297.5</ele>
<speed>4.5</speed>
<course>18.1</course>
<desc>Speed 4.5 km/h Distance 3.08 km</desc>
<time>2010-02-27T10:39:06.47</time>
<name>2238</name>
</trkpt>
<trkpt lat="48.946515" lon="8.643965">
<ele>297.0</ele>
<speed>5.6</speed>
<course>20.6</course>
<desc>Speed 5.6 km/h Distance 3.08 km</desc>
<time>2010-02-27T10:39:07.47</time>
<name>2239</name>
</trkpt>
<trkpt lat="48.946527" lon="8.643972">
<ele>296.0</ele>
<speed>5.1</speed>
<course>36.8</course>
<desc>Speed 5.1 km/h Distance 3.09 km</desc>
<time>2010-02-27T10:39:08.47</time>
<name>2240</name>
</trkpt>
<trkpt lat="48.946538" lon="8.643985">
<ele>296.5</ele>
<speed>6.2</speed>
<course>29.4</course>
<desc>Speed 6.2 km/h Distance 3.09 km</desc>
<time>2010-02-27T10:39:09.47</time>
<name>2241</name>
</trkpt>
<trkpt lat="48.946550" lon="8.643995">
<ele>296.0</ele>
<speed>5.4</speed>
<course>25.2</course>
<desc>Speed 5.4 km/h Distance 3.09 km</desc>
<time>2010-02-27T10:39:10.47</time>
<name>2242</name>
</trkpt>
<trkpt lat="48.946562" lon="8.644003">
<ele>296.0</ele>
<speed>5.9</speed>
<course>29.4</course>
<desc>Speed 5.9 km/h Distance 3.09 km</desc>
<time>2010-02-27T10:39:11.47</time>
<name>2243</name>
</trkpt>
<trkpt lat="48.946573" lon="8.644013">
<ele>295.5</ele>
<speed>5.1</speed>
<course>29.4</course>
<desc>Speed 5.1 km/h Distance 3.09 km</desc>
<time>2010-02-27T10:39:12.47</time>
<name>2244</name>
</trkpt>
<trkpt lat="48.946585" lon="8.644023">
<ele>295.0</ele>
<speed>6.0</speed>
<course>23.8</course>
<desc>Speed 6.0 km/h Distance 3.09 km</desc>
<time>2010-02-27T10:39:13.47</time>
<name>2245</name>
</trkpt>
<trkpt lat="48.946595" lon="8.644030">
<ele>295.0</ele>
<speed>4.8</speed>
<course>29.4</course>
<desc>Speed 4.8 km/h Distance 3.09 km</desc>
<time>2010-02-27T10:39:14.47</time>
<name>2246</name>
</trkpt>
<trkpt lat="48.946607" lon="8.644040">
<ele>294.5</ele>
<speed>5.8</speed>
<course>37.3</course>
<desc>Speed 5.8 km/h Distance 3.10 km</desc>
<time>2010-02-27T10:39:15.47</time>
<name>2247</name>
</trkpt>
<trkpt lat="48.946617" lon="8.644052">
<ele>294.5</ele>
<speed>4.7</speed>
<course>38.1</course>
<desc>Speed 4.7 km/h Distance 3.10 km</desc>
<time>2010-02-27T10:39:16.47</time>
<name>2248</name>
</trkpt>
<trkpt lat="48.946625" lon="8.644062">
<ele>294.0</ele>
<speed>4.9</speed>
<course>27.9</course>
<desc>Speed 4.9 km/h Distance 3.10 km</desc>
<time>2010-02-27T10:39:17.47</time>
<name>2249</name>
</trkpt>
<trkpt lat="48.946633" lon="8.644068">
<ele>292.5</ele>
<speed>3.9</speed>
<course>33.1</course>
<desc>Speed 3.9 km/h Distance 3.10 km</desc>
<time>2010-02-27T10:39:18.47</time>
<name>2250</name>
</trkpt>
<trkpt lat="48.946645" lon="8.644080">
<ele>292.5</ele>
<speed>5.7</speed>
<course>28.6</course>
<desc>Speed 5.7 km/h Distance 3.10 km</desc>
<time>2010-02-27T10:39:19.47</time>
<name>2251</name>
</trkpt>
<trkpt lat="48.946655" lon="8.644088">
<ele>291.5</ele>
<speed>4.3</speed>
<course>12.6</course>
<desc>Speed 4.3 km/h Distance 3.10 km</desc>
<time>2010-02-27T10:39:20.47</time>
<name>2252</name>
</trkpt>
<trkpt lat="48.946665" lon="8.644092">
<ele>290.5</ele>
<speed>4.3</speed>
<course>20.2</course>
<desc>Speed 4.3 km/h Distance 3.10 km</desc>
<time>2010-02-27T10:39:21.46</time>
<name>2253</name>
</trkpt>
<trkpt lat="48.946677" lon="8.644098">
<ele>289.5</ele>
<speed>5.0</speed>
<course>23.4</course>
<desc>Speed 5.0 km/h Distance 3.10 km</desc>
<time>2010-02-27T10:39:22.47</time>
<name>2254</name>
</trkpt>
<trkpt lat="48.946687" lon="8.644105">
<ele>289.0</ele>
<speed>4.9</speed>
<course>21.5</course>
<desc>Speed 4.9 km/h Distance 3.11 km</desc>
<time>2010-02-27T10:39:23.46</time>
<name>2255</name>
</trkpt>
<trkpt lat="48.946695" lon="8.644110">
<ele>287.5</ele>
<speed>3.3</speed>
<course>39.4</course>
<desc>Speed 3.3 km/h Distance 3.11 km</desc>
<time>2010-02-27T10:39:24.46</time>
<name>2256</name>
</trkpt>
<trkpt lat="48.946702" lon="8.644118">
<ele>287.0</ele>
<speed>3.6</speed>
<course>18.2</course>
<desc>Speed 3.6 km/h Distance 3.11 km</desc>
<time>2010-02-27T10:39:25.46</time>
<name>2257</name>
</trkpt>
<trkpt lat="48.946712" lon="8.644123">
<ele>286.0</ele>
<speed>3.9</speed>
<course>23.8</course>
<desc>Speed 3.9 km/h Distance 3.11 km</desc>
<time>2010-02-27T10:39:26.46</time>
<name>2258</name>
</trkpt>
<trkpt lat="48.946722" lon="8.644130">
<ele>285.5</ele>
<speed>4.4</speed>
<course>28.6</course>
<desc>Speed 4.4 km/h Distance 3.11 km</desc>
<time>2010-02-27T10:39:27.46</time>
<name>2259</name>
</trkpt>
<trkpt lat="48.946732" lon="8.644138">
<ele>284.5</ele>
<speed>4.2</speed>
<course>33.4</course>
<desc>Speed 4.2 km/h Distance 3.11 km</desc>
<time>2010-02-27T10:39:28.46</time>
<name>2260</name>
</trkpt>
<trkpt lat="48.946745" lon="8.644152">
<ele>284.5</ele>
<speed>5.7</speed>
<course>25.4</course>
<desc>Speed 5.7 km/h Distance 3.11 km</desc>
<time>2010-02-27T10:39:29.46</time>
<name>2261</name>
</trkpt>
<trkpt lat="48.946757" lon="8.644160">
<ele>284.0</ele>
<speed>5.8</speed>
<course>41.2</course>
<desc>Speed 5.8 km/h Distance 3.11 km</desc>
<time>2010-02-27T10:39:30.46</time>
<name>2262</name>
</trkpt>
<trkpt lat="48.946767" lon="8.644173">
<ele>284.0</ele>
<speed>5.2</speed>
<course>36.9</course>
<desc>Speed 5.2 km/h Distance 3.12 km</desc>
<time>2010-02-27T10:39:31.45</time>
<name>2263</name>
</trkpt>
<trkpt lat="48.946778" lon="8.644187">
<ele>283.5</ele>
<speed>5.4</speed>
<course>50.4</course>
<desc>Speed 5.4 km/h Distance 3.12 km</desc>
<time>2010-02-27T10:39:32.46</time>
<name>2264</name>
</trkpt>
<trkpt lat="48.946788" lon="8.644205">
<ele>283.5</ele>
<speed>5.0</speed>
<course>33.4</course>
<desc>Speed 5.0 km/h Distance 3.12 km</desc>
<time>2010-02-27T10:39:33.46</time>
<name>2265</name>
</trkpt>
<trkpt lat="48.946800" lon="8.644217">
<ele>283.0</ele>
<speed>5.2</speed>
<course>36.6</course>
<desc>Speed 5.2 km/h Distance 3.12 km</desc>
<time>2010-02-27T10:39:34.46</time>
<name>2266</name>
</trkpt>
<trkpt lat="48.946813" lon="8.644232">
<ele>283.0</ele>
<speed>6.0</speed>
<course>21.5</course>
<desc>Speed 6.0 km/h Distance 3.12 km</desc>
<time>2010-02-27T10:39:35.46</time>
<name>2267</name>
</trkpt>
<trkpt lat="48.946830" lon="8.644242">
<ele>283.5</ele>
<speed>6.2</speed>
<course>24.7</course>
<desc>Speed 6.2 km/h Distance 3.12 km</desc>
<time>2010-02-27T10:39:36.46</time>
<name>2268</name>
</trkpt>
<trkpt lat="48.946847" lon="8.644253">
<ele>283.0</ele>
<speed>5.8</speed>
<course>33.3</course>
<desc>Speed 5.8 km/h Distance 3.13 km</desc>
<time>2010-02-27T10:39:37.45</time>
<name>2269</name>
</trkpt>
<trkpt lat="48.946858" lon="8.644265">
<ele>282.5</ele>
<speed>5.1</speed>
<course>25.2</course>
<desc>Speed 5.1 km/h Distance 3.13 km</desc>
<time>2010-02-27T10:39:38.45</time>
<name>2270</name>
</trkpt>
<trkpt lat="48.946870" lon="8.644273">
<ele>282.5</ele>
<speed>4.9</speed>
<course>20.2</course>
<desc>Speed 4.9 km/h Distance 3.13 km</desc>
<time>2010-02-27T10:39:39.46</time>
<name>2271</name>
</trkpt>
<trkpt lat="48.946882" lon="8.644280">
<ele>281.5</ele>
<speed>4.8</speed>
<course>15.5</course>
<desc>Speed 4.8 km/h Distance 3.13 km</desc>
<time>2010-02-27T10:39:40.45</time>
<name>2272</name>
</trkpt>
<trkpt lat="48.946893" lon="8.644285">
<ele>280.5</ele>
<speed>4.4</speed>
<course>33.2</course>
<desc>Speed 4.4 km/h Distance 3.13 km</desc>
<time>2010-02-27T10:39:41.45</time>
<name>2273</name>
</trkpt>
<trkpt lat="48.946907" lon="8.644298">
<ele>281.0</ele>
<speed>5.8</speed>
<course>25.2</course>
<desc>Speed 5.8 km/h Distance 3.13 km</desc>
<time>2010-02-27T10:39:42.46</time>
<name>2274</name>
</trkpt>
<trkpt lat="48.946918" lon="8.644307">
<ele>280.0</ele>
<speed>4.8</speed>
<course>24.7</course>
<desc>Speed 4.8 km/h Distance 3.14 km</desc>
<time>2010-02-27T10:39:43.45</time>
<name>2275</name>
</trkpt>
<trkpt lat="48.946935" lon="8.644318">
<ele>280.5</ele>
<speed>6.8</speed>
<course>30.0</course>
<desc>Speed 6.8 km/h Distance 3.14 km</desc>
<time>2010-02-27T10:39:44.46</time>
<name>2276</name>
</trkpt>
<trkpt lat="48.946948" lon="8.644330">
<ele>281.0</ele>
<speed>6.3</speed>
<course>36.9</course>
<desc>Speed 6.3 km/h Distance 3.14 km</desc>
<time>2010-02-27T10:39:45.45</time>
<name>2277</name>
</trkpt>
<trkpt lat="48.946960" lon="8.644343">
<ele>281.0</ele>
<speed>5.4</speed>
<course>23.7</course>
<desc>Speed 5.4 km/h Distance 3.14 km</desc>
<time>2010-02-27T10:39:46.45</time>
<name>2278</name>
</trkpt>
<trkpt lat="48.946980" lon="8.644357">
<ele>281.5</ele>
<speed>7.6</speed>
<course>42.0</course>
<desc>Speed 7.6 km/h Distance 3.14 km</desc>
<time>2010-02-27T10:39:47.45</time>
<name>2279</name>
</trkpt>
<trkpt lat="48.946993" lon="8.644375">
<ele>282.5</ele>
<speed>6.5</speed>
<course>39.4</course>
<desc>Speed 6.5 km/h Distance 3.15 km</desc>
<time>2010-02-27T10:39:48.44</time>
<name>2280</name>
</trkpt>
<trkpt lat="48.947007" lon="8.644392">
<ele>283.5</ele>
<speed>6.1</speed>
<course>40.2</course>
<desc>Speed 6.1 km/h Distance 3.15 km</desc>
<time>2010-02-27T10:39:49.45</time>
<name>2281</name>
</trkpt>
<trkpt lat="48.947018" lon="8.644407">
<ele>283.0</ele>
<speed>5.0</speed>
<course>33.2</course>
<desc>Speed 5.0 km/h Distance 3.15 km</desc>
<time>2010-02-27T10:39:50.44</time>
<name>2282</name>
</trkpt>
<trkpt lat="48.947028" lon="8.644417">
<ele>282.5</ele>
<speed>4.9</speed>
<course>30.3</course>
<desc>Speed 4.9 km/h Distance 3.15 km</desc>
<time>2010-02-27T10:39:51.45</time>
<name>2283</name>
</trkpt>
<trkpt lat="48.947043" lon="8.644430">
<ele>283.0</ele>
<speed>5.9</speed>
<course>36.6</course>
<desc>Speed 5.9 km/h Distance 3.15 km</desc>
<time>2010-02-27T10:39:52.45</time>
<name>2284</name>
</trkpt>
<trkpt lat="48.947057" lon="8.644445">
<ele>283.5</ele>
<speed>5.9</speed>
<course>42.2</course>
<desc>Speed 5.9 km/h Distance 3.15 km</desc>
<time>2010-02-27T10:39:53.53</time>
<name>2285</name>
</trkpt>
<trkpt lat="48.947070" lon="8.644463">
<ele>283.5</ele>
<speed>5.7</speed>
<course>33.4</course>
<desc>Speed 5.7 km/h Distance 3.16 km</desc>
<time>2010-02-27T10:39:54.45</time>
<name>2286</name>
</trkpt>
<trkpt lat="48.947085" lon="8.644478">
<ele>284.0</ele>
<speed>5.7</speed>
<course>39.4</course>
<desc>Speed 5.7 km/h Distance 3.16 km</desc>
<time>2010-02-27T10:39:55.44</time>
<name>2287</name>
</trkpt>
<trkpt lat="48.947098" lon="8.644495">
<ele>284.5</ele>
<speed>5.5</speed>
<course>33.3</course>
<desc>Speed 5.5 km/h Distance 3.16 km</desc>
<time>2010-02-27T10:39:56.44</time>
<name>2288</name>
</trkpt>
<trkpt lat="48.947115" lon="8.644512">
<ele>286.0</ele>
<speed>7.3</speed>
<course>30.6</course>
<desc>Speed 7.3 km/h Distance 3.16 km</desc>
<time>2010-02-27T10:39:57.44</time>
<name>2289</name>
</trkpt>
<trkpt lat="48.947132" lon="8.644527">
<ele>287.0</ele>
<speed>6.6</speed>
<course>47.5</course>
<desc>Speed 6.6 km/h Distance 3.16 km</desc>
<time>2010-02-27T10:39:58.44</time>
<name>2290</name>
</trkpt>
<trkpt lat="48.947142" lon="8.644543">
<ele>287.0</ele>
<speed>5.6</speed>
<course>29.4</course>
<desc>Speed 5.6 km/h Distance 3.17 km</desc>
<time>2010-02-27T10:39:59.44</time>
<name>2291</name>
</trkpt>
<trkpt lat="48.947153" lon="8.644553">
<ele>286.0</ele>
<speed>4.8</speed>
<course>33.2</course>
<desc>Speed 4.8 km/h Distance 3.17 km</desc>
<time>2010-02-27T10:40:00.44</time>
<name>2292</name>
</trkpt>
<trkpt lat="48.947163" lon="8.644563">
<ele>285.5</ele>
<speed>5.2</speed>
<course>29.8</course>
<desc>Speed 5.2 km/h Distance 3.17 km</desc>
<time>2010-02-27T10:40:01.45</time>
<name>2293</name>
</trkpt>
<trkpt lat="48.947177" lon="8.644575">
<ele>285.0</ele>
<speed>5.1</speed>
<course>23.8</course>
<desc>Speed 5.1 km/h Distance 3.17 km</desc>
<time>2010-02-27T10:40:02.44</time>
<name>2294</name>
</trkpt>
<trkpt lat="48.947187" lon="8.644582">
<ele>284.0</ele>
<speed>4.8</speed>
<course>23.4</course>
<desc>Speed 4.8 km/h Distance 3.17 km</desc>
<time>2010-02-27T10:40:03.44</time>
<name>2295</name>
</trkpt>
<trkpt lat="48.947197" lon="8.644588">
<ele>282.5</ele>
<speed>4.1</speed>
<course>16.3</course>
<desc>Speed 4.1 km/h Distance 3.17 km</desc>
<time>2010-02-27T10:40:04.44</time>
<name>2296</name>
</trkpt>
<trkpt lat="48.947212" lon="8.644595">
<ele>282.0</ele>
<speed>5.5</speed>
<course>13.5</course>
<desc>Speed 5.5 km/h Distance 3.17 km</desc>
<time>2010-02-27T10:40:05.44</time>
<name>2297</name>
</trkpt>
<trkpt lat="48.947225" lon="8.644600">
<ele>281.5</ele>
<speed>5.1</speed>
<course>29.8</course>
<desc>Speed 5.1 km/h Distance 3.18 km</desc>
<time>2010-02-27T10:40:06.44</time>
<name>2298</name>
</trkpt>
<trkpt lat="48.947238" lon="8.644612">
<ele>281.0</ele>
<speed>5.8</speed>
<course>46.9</course>
<desc>Speed 5.8 km/h Distance 3.18 km</desc>
<time>2010-02-27T10:40:07.44</time>
<name>2299</name>
</trkpt>
<trkpt lat="48.947252" lon="8.644633">
<ele>282.5</ele>
<speed>6.7</speed>
<course>39.5</course>
<desc>Speed 6.7 km/h Distance 3.18 km</desc>
<time>2010-02-27T10:40:08.43</time>
<name>2300</name>
</trkpt>
<trkpt lat="48.947265" lon="8.644650">
<ele>283.0</ele>
<speed>5.7</speed>
<course>48.4</course>
<desc>Speed 5.7 km/h Distance 3.18 km</desc>
<time>2010-02-27T10:40:09.44</time>
<name>2301</name>
</trkpt>
<trkpt lat="48.947277" lon="8.644670">
<ele>284.0</ele>
<speed>5.0</speed>
<course>42.6</course>
<desc>Speed 5.0 km/h Distance 3.18 km</desc>
<time>2010-02-27T10:40:10.44</time>
<name>2302</name>
</trkpt>
<trkpt lat="48.947285" lon="8.644682">
<ele>283.0</ele>
<speed>4.2</speed>
<course>46.5</course>
<desc>Speed 4.2 km/h Distance 3.19 km</desc>
<time>2010-02-27T10:40:11.44</time>
<name>2303</name>
</trkpt>
<trkpt lat="48.947293" lon="8.644695">
<ele>283.0</ele>
<speed>4.4</speed>
<course>55.4</course>
<desc>Speed 4.4 km/h Distance 3.19 km</desc>
<time>2010-02-27T10:40:12.44</time>
<name>2304</name>
</trkpt>
<trkpt lat="48.947302" lon="8.644713">
<ele>283.0</ele>
<speed>5.1</speed>
<course>43.2</course>
<desc>Speed 5.1 km/h Distance 3.19 km</desc>
<time>2010-02-27T10:40:13.44</time>
<name>2305</name>
</trkpt>
<trkpt lat="48.947313" lon="8.644730">
<ele>284.0</ele>
<speed>5.2</speed>
<course>47.6</course>
<desc>Speed 5.2 km/h Distance 3.19 km</desc>
<time>2010-02-27T10:40:14.44</time>
<name>2306</name>
</trkpt>
<trkpt lat="48.947323" lon="8.644747">
<ele>284.5</ele>
<speed>5.3</speed>
<course>37.5</course>
<desc>Speed 5.3 km/h Distance 3.19 km</desc>
<time>2010-02-27T10:40:15.44</time>
<name>2307</name>
</trkpt>
<trkpt lat="48.947333" lon="8.644758">
<ele>284.0</ele>
<speed>5.1</speed>
<course>42.3</course>
<desc>Speed 5.1 km/h Distance 3.19 km</desc>
<time>2010-02-27T10:40:16.44</time>
<name>2308</name>
</trkpt>
<trkpt lat="48.947342" lon="8.644770">
<ele>284.0</ele>
<speed>4.6</speed>
<course>36.8</course>
<desc>Speed 4.6 km/h Distance 3.19 km</desc>
<time>2010-02-27T10:40:17.44</time>
<name>2309</name>
</trkpt>
<trkpt lat="48.947353" lon="8.644783">
<ele>284.5</ele>
<speed>5.7</speed>
<course>44.6</course>
<desc>Speed 5.7 km/h Distance 3.20 km</desc>
<time>2010-02-27T10:40:18.44</time>
<name>2310</name>
</trkpt>
<trkpt lat="48.947363" lon="8.644798">
<ele>285.0</ele>
<speed>5.1</speed>
<course>44.6</course>
<desc>Speed 5.1 km/h Distance 3.20 km</desc>
<time>2010-02-27T10:40:19.44</time>
<name>2311</name>
</trkpt>
<trkpt lat="48.947373" lon="8.644813">
<ele>285.0</ele>
<speed>5.1</speed>
<course>39.4</course>
<desc>Speed 5.1 km/h Distance 3.20 km</desc>
<time>2010-02-27T10:40:20.43</time>
<name>2312</name>
</trkpt>
<trkpt lat="48.947387" lon="8.644830">
<ele>286.5</ele>
<speed>5.8</speed>
<course>13.5</course>
<desc>Speed 5.8 km/h Distance 3.20 km</desc>
<time>2010-02-27T10:40:21.43</time>
<name>2313</name>
</trkpt>
<trkpt lat="48.947400" lon="8.644835">
<ele>285.5</ele>
<speed>4.4</speed>
<course>24.9</course>
<desc>Speed 4.4 km/h Distance 3.20 km</desc>
<time>2010-02-27T10:40:22.44</time>
<name>2314</name>
</trkpt>
<trkpt lat="48.947412" lon="8.644843">
<ele>286.0</ele>
<speed>5.0</speed>
<course>17.8</course>
<desc>Speed 5.0 km/h Distance 3.20 km</desc>
<time>2010-02-27T10:40:23.45</time>
<name>2315</name>
</trkpt>
<trkpt lat="48.947425" lon="8.644850">
<ele>287.0</ele>
<speed>5.3</speed>
<course>26.2</course>
<desc>Speed 5.3 km/h Distance 3.21 km</desc>
<time>2010-02-27T10:40:24.43</time>
<name>2316</name>
</trkpt>
<trkpt lat="48.947438" lon="8.644860">
<ele>288.0</ele>
<speed>6.0</speed>
<course>38.1</course>
<desc>Speed 6.0 km/h Distance 3.21 km</desc>
<time>2010-02-27T10:40:25.43</time>
<name>2317</name>
</trkpt>
<trkpt lat="48.947447" lon="8.644870">
<ele>288.0</ele>
<speed>4.1</speed>
<course>22.1</course>
<desc>Speed 4.1 km/h Distance 3.21 km</desc>
<time>2010-02-27T10:40:26.46</time>
<name>2318</name>
</trkpt>
<trkpt lat="48.947460" lon="8.644878">
<ele>288.5</ele>
<speed>5.1</speed>
<course>9.5</course>
<desc>Speed 5.1 km/h Distance 3.21 km</desc>
<time>2010-02-27T10:40:27.43</time>
<name>2319</name>
</trkpt>
<trkpt lat="48.947472" lon="8.644882">
<ele>288.5</ele>
<speed>4.5</speed>
<course>16.0</course>
<desc>Speed 4.5 km/h Distance 3.21 km</desc>
<time>2010-02-27T10:40:28.45</time>
<name>2320</name>
</trkpt>
<trkpt lat="48.947487" lon="8.644888">
<ele>289.0</ele>
<speed>5.8</speed>
<course>33.3</course>
<desc>Speed 5.8 km/h Distance 3.21 km</desc>
<time>2010-02-27T10:40:29.45</time>
<name>2321</name>
</trkpt>
<trkpt lat="48.947500" lon="8.644902">
<ele>290.0</ele>
<speed>5.5</speed>
<course>13.5</course>
<desc>Speed 5.5 km/h Distance 3.21 km</desc>
<time>2010-02-27T10:40:30.43</time>
<name>2322</name>
</trkpt>
<trkpt lat="48.947513" lon="8.644907">
<ele>290.5</ele>
<speed>4.8</speed>
<course>355.6</course>
<desc>Speed 4.8 km/h Distance 3.22 km</desc>
<time>2010-02-27T10:40:31.43</time>
<name>2323</name>
</trkpt>
<trkpt lat="48.947523" lon="8.644905">
<ele>290.0</ele>
<speed>3.6</speed>
<course>341.2</course>
<desc>Speed 3.6 km/h Distance 3.22 km</desc>
<time>2010-02-27T10:40:32.44</time>
<name>2324</name>
</trkpt>
<trkpt lat="48.947527" lon="8.644903">
<ele>290.5</ele>
<speed>1.3</speed>
<course>297.0</course>
<desc>Speed 1.3 km/h Distance 3.22 km</desc>
<time>2010-02-27T10:40:33.64</time>
<name>2325</name>
</trkpt>
<trkpt lat="48.947530" lon="8.644893">
<ele>289.5</ele>
<speed>0.9</speed>
<course>44.5</course>
<desc>Speed 0.9 km/h Distance 3.22 km</desc>
<time>2010-02-27T10:40:34.26</time>
<name>2326</name>
</trkpt>
<trkpt lat="48.947533" lon="8.644898">
<ele>289.0</ele>
<speed>2.4</speed>
<course>334.6</course>
<desc>Speed 2.4 km/h Distance 3.22 km</desc>
<time>2010-02-27T10:40:35.15</time>
<name>2327</name>
</trkpt>
<trkpt lat="48.947538" lon="8.644895">
<ele>288.5</ele>
<speed>2.3</speed>
<course>332.1</course>
<desc>Speed 2.3 km/h Distance 3.22 km</desc>
<time>2010-02-27T10:40:36.16</time>
<name>2328</name>
</trkpt>
<trkpt lat="48.947547" lon="8.644888">
<ele>287.0</ele>
<speed>4.4</speed>
<course>346.5</course>
<desc>Speed 4.4 km/h Distance 3.22 km</desc>
<time>2010-02-27T10:40:37.34</time>
<name>2329</name>
</trkpt>
<trkpt lat="48.947560" lon="8.644883">
<ele>287.0</ele>
<speed>5.1</speed>
<course>1.2</course>
<desc>Speed 5.1 km/h Distance 3.22 km</desc>
<time>2010-02-27T10:40:38.23</time>
<name>2330</name>
</trkpt>
<trkpt lat="48.947573" lon="8.644883">
<ele>287.5</ele>
<speed>4.6</speed>
<course>33.2</course>
<desc>Speed 4.6 km/h Distance 3.22 km</desc>
<time>2010-02-27T10:40:39.15</time>
<name>2331</name>
</trkpt>
<trkpt lat="48.947583" lon="8.644893">
<ele>288.5</ele>
<speed>2.4</speed>
<course>11.7</course>
<desc>Speed 2.4 km/h Distance 3.22 km</desc>
<time>2010-02-27T10:40:40.15</time>
<name>2332</name>
</trkpt>
<trkpt lat="48.947598" lon="8.644898">
<ele>287.5</ele>
<speed>7.5</speed>
<course>27.7</course>
<desc>Speed 7.5 km/h Distance 3.23 km</desc>
<time>2010-02-27T10:40:41.18</time>
<name>2333</name>
</trkpt>
<trkpt lat="48.947615" lon="8.644912">
<ele>287.5</ele>
<speed>8.3</speed>
<course>18.2</course>
<desc>Speed 8.3 km/h Distance 3.23 km</desc>
<time>2010-02-27T10:40:42.15</time>
<name>2334</name>
</trkpt>
<trkpt lat="48.947625" lon="8.644917">
<ele>287.0</ele>
<speed>3.0</speed>
<course>29.2</course>
<desc>Speed 3.0 km/h Distance 3.23 km</desc>
<time>2010-02-27T10:40:43.15</time>
<name>2335</name>
</trkpt>
<trkpt lat="48.947627" lon="8.644918">
<ele>286.0</ele>
<speed>0.5</speed>
<course>14.9</course>
<desc>Speed 0.5 km/h Distance 3.23 km</desc>
<time>2010-02-27T10:40:44.14</time>
<name>2336</name>
</trkpt>
<trkpt lat="48.947635" lon="8.644922">
<ele>286.5</ele>
<speed>1.8</speed>
<course>33.7</course>
<desc>Speed 1.8 km/h Distance 3.23 km</desc>
<time>2010-02-27T10:40:45.14</time>
<name>2337</name>
</trkpt>
<trkpt lat="48.947642" lon="8.644928">
<ele>286.0</ele>
<speed>1.5</speed>
<course>23.8</course>
<desc>Speed 1.5 km/h Distance 3.23 km</desc>
<time>2010-02-27T10:40:46.14</time>
<name>2338</name>
</trkpt>
<trkpt lat="48.947652" lon="8.644935">
<ele>285.5</ele>
<speed>1.8</speed>
<course>14.9</course>
<desc>Speed 1.8 km/h Distance 3.23 km</desc>
<time>2010-02-27T10:40:47.17</time>
<name>2339</name>
</trkpt>
<trkpt lat="48.947660" lon="8.644938">
<ele>283.0</ele>
<speed>2.6</speed>
<course>325.9</course>
<desc>Speed 2.6 km/h Distance 3.23 km</desc>
<time>2010-02-27T10:40:48.14</time>
<name>2340</name>
</trkpt>
<trkpt lat="48.947665" lon="8.644933">
<ele>280.5</ele>
<speed>2.2</speed>
<course>344.5</course>
<desc>Speed 2.2 km/h Distance 3.23 km</desc>
<time>2010-02-27T10:40:49.16</time>
<name>2341</name>
</trkpt>
<trkpt lat="48.947677" lon="8.644928">
<ele>280.0</ele>
<speed>2.5</speed>
<course>0.0</course>
<desc>Speed 2.5 km/h Distance 3.24 km</desc>
<time>2010-02-27T10:40:50.17</time>
<name>2342</name>
</trkpt>
<trkpt lat="48.947685" lon="8.644928">
<ele>278.5</ele>
<speed>2.7</speed>
<course>18.2</course>
<desc>Speed 2.7 km/h Distance 3.24 km</desc>
<time>2010-02-27T10:40:51.14</time>
<name>2343</name>
</trkpt>
<trkpt lat="48.947695" lon="8.644933">
<ele>278.0</ele>
<speed>4.2</speed>
<course>6.6</course>
<desc>Speed 4.2 km/h Distance 3.24 km</desc>
<time>2010-02-27T10:40:52.13</time>
<name>2344</name>
</trkpt>
<trkpt lat="48.947705" lon="8.644935">
<ele>278.0</ele>
<speed>3.9</speed>
<course>0.0</course>
<desc>Speed 3.9 km/h Distance 3.24 km</desc>
<time>2010-02-27T10:40:53.14</time>
<name>2345</name>
</trkpt>
<trkpt lat="48.947722" lon="8.644935">
<ele>278.5</ele>
<speed>3.8</speed>
<course>0.0</course>
<desc>Speed 3.8 km/h Distance 3.24 km</desc>
<time>2010-02-27T10:40:54.14</time>
<name>2346</name>
</trkpt>
<trkpt lat="48.947732" lon="8.644935">
<ele>278.0</ele>
<speed>4.2</speed>
<course>0.0</course>
<desc>Speed 4.2 km/h Distance 3.24 km</desc>
<time>2010-02-27T10:40:55.14</time>
<name>2347</name>
</trkpt>
<trkpt lat="48.947742" lon="8.644935">
<ele>277.5</ele>
<speed>3.6</speed>
<course>348.8</course>
<desc>Speed 3.6 km/h Distance 3.24 km</desc>
<time>2010-02-27T10:40:56.13</time>
<name>2348</name>
</trkpt>
<trkpt lat="48.947758" lon="8.644930">
<ele>278.5</ele>
<speed>3.6</speed>
<course>10.2</course>
<desc>Speed 3.6 km/h Distance 3.24 km</desc>
<time>2010-02-27T10:40:57.13</time>
<name>2349</name>
</trkpt>
<trkpt lat="48.947777" lon="8.644935">
<ele>280.5</ele>
<speed>4.9</speed>
<course>19.7</course>
<desc>Speed 4.9 km/h Distance 3.25 km</desc>
<time>2010-02-27T10:40:58.13</time>
<name>2350</name>
</trkpt>
<trkpt lat="48.947795" lon="8.644945">
<ele>282.5</ele>
<speed>5.2</speed>
<course>22.6</course>
<desc>Speed 5.2 km/h Distance 3.25 km</desc>
<time>2010-02-27T10:40:59.13</time>
<name>2351</name>
</trkpt>
<trkpt lat="48.947813" lon="8.644957">
<ele>284.5</ele>
<speed>4.5</speed>
<course>348.8</course>
<desc>Speed 4.5 km/h Distance 3.25 km</desc>
<time>2010-02-27T10:41:00.13</time>
<name>2352</name>
</trkpt>
<trkpt lat="48.947830" lon="8.644952">
<ele>285.0</ele>
<speed>4.4</speed>
<course>348.8</course>
<desc>Speed 4.4 km/h Distance 3.25 km</desc>
<time>2010-02-27T10:41:01.13</time>
<name>2353</name>
</trkpt>
<trkpt lat="48.947847" lon="8.644947">
<ele>285.0</ele>
<speed>5.4</speed>
<course>11.2</course>
<desc>Speed 5.4 km/h Distance 3.26 km</desc>
<time>2010-02-27T10:41:02.13</time>
<name>2354</name>
</trkpt>
<trkpt lat="48.947863" lon="8.644952">
<ele>285.5</ele>
<speed>5.9</speed>
<course>1.2</course>
<desc>Speed 5.9 km/h Distance 3.26 km</desc>
<time>2010-02-27T10:41:03.13</time>
<name>2355</name>
</trkpt>
<trkpt lat="48.947877" lon="8.644952">
<ele>286.5</ele>
<speed>4.2</speed>
<course>356.2</course>
<desc>Speed 4.2 km/h Distance 3.26 km</desc>
<time>2010-02-27T10:41:04.12</time>
<name>2356</name>
</trkpt>
<trkpt lat="48.947892" lon="8.644950">
<ele>287.0</ele>
<speed>4.5</speed>
<course>337.9</course>
<desc>Speed 4.5 km/h Distance 3.26 km</desc>
<time>2010-02-27T10:41:05.12</time>
<name>2357</name>
</trkpt>
<trkpt lat="48.947905" lon="8.644942">
<ele>287.5</ele>
<speed>4.6</speed>
<course>353.0</course>
<desc>Speed 4.6 km/h Distance 3.26 km</desc>
<time>2010-02-27T10:41:06.12</time>
<name>2358</name>
</trkpt>
<trkpt lat="48.947923" lon="8.644938">
<ele>287.5</ele>
<speed>5.4</speed>
<course>0.0</course>
<desc>Speed 5.4 km/h Distance 3.26 km</desc>
<time>2010-02-27T10:41:07.12</time>
<name>2359</name>
</trkpt>
<trkpt lat="48.947940" lon="8.644938">
<ele>287.5</ele>
<speed>5.8</speed>
<course>350.3</course>
<desc>Speed 5.8 km/h Distance 3.27 km</desc>
<time>2010-02-27T10:41:08.11</time>
<name>2360</name>
</trkpt>
<trkpt lat="48.947953" lon="8.644935">
<ele>285.5</ele>
<speed>4.9</speed>
<course>352.3</course>
<desc>Speed 4.9 km/h Distance 3.27 km</desc>
<time>2010-02-27T10:41:09.11</time>
<name>2361</name>
</trkpt>
<trkpt lat="48.947970" lon="8.644932">
<ele>285.0</ele>
<speed>5.2</speed>
<course>351.2</course>
<desc>Speed 5.2 km/h Distance 3.27 km</desc>
<time>2010-02-27T10:41:10.12</time>
<name>2362</name>
</trkpt>
<trkpt lat="48.947985" lon="8.644928">
<ele>285.0</ele>
<speed>5.5</speed>
<course>351.8</course>
<desc>Speed 5.5 km/h Distance 3.27 km</desc>
<time>2010-02-27T10:41:11.12</time>
<name>2363</name>
</trkpt>
<trkpt lat="48.948002" lon="8.644925">
<ele>285.5</ele>
<speed>5.5</speed>
<course>355.0</course>
<desc>Speed 5.5 km/h Distance 3.27 km</desc>
<time>2010-02-27T10:41:12.12</time>
<name>2364</name>
</trkpt>
<trkpt lat="48.948017" lon="8.644923">
<ele>286.5</ele>
<speed>5.1</speed>
<course>0.0</course>
<desc>Speed 5.1 km/h Distance 3.27 km</desc>
<time>2010-02-27T10:41:13.13</time>
<name>2365</name>
</trkpt>
<trkpt lat="48.948032" lon="8.644923">
<ele>286.5</ele>
<speed>4.8</speed>
<course>3.8</course>
<desc>Speed 4.8 km/h Distance 3.28 km</desc>
<time>2010-02-27T10:41:14.12</time>
<name>2366</name>
</trkpt>
<trkpt lat="48.948047" lon="8.644925">
<ele>287.5</ele>
<speed>5.0</speed>
<course>2.5</course>
<desc>Speed 5.0 km/h Distance 3.28 km</desc>
<time>2010-02-27T10:41:15.12</time>
<name>2367</name>
</trkpt>
<trkpt lat="48.948065" lon="8.644927">
<ele>287.0</ele>
<speed>6.4</speed>
<course>7.5</course>
<desc>Speed 6.4 km/h Distance 3.28 km</desc>
<time>2010-02-27T10:41:16.12</time>
<name>2368</name>
</trkpt>
<trkpt lat="48.948080" lon="8.644930">
<ele>287.0</ele>
<speed>5.4</speed>
<course>337.7</course>
<desc>Speed 5.4 km/h Distance 3.28 km</desc>
<time>2010-02-27T10:41:17.12</time>
<name>2369</name>
</trkpt>
<trkpt lat="48.948093" lon="8.644922">
<ele>286.5</ele>
<speed>5.1</speed>
<course>14.3</course>
<desc>Speed 5.1 km/h Distance 3.28 km</desc>
<time>2010-02-27T10:41:18.12</time>
<name>2370</name>
</trkpt>
<trkpt lat="48.948115" lon="8.644930">
<ele>286.0</ele>
<speed>8.1</speed>
<course>17.1</course>
<desc>Speed 8.1 km/h Distance 3.29 km</desc>
<time>2010-02-27T10:41:19.12</time>
<name>2371</name>
</trkpt>
<trkpt lat="48.948140" lon="8.644942">
<ele>287.5</ele>
<speed>9.3</speed>
<course>349.7</course>
<desc>Speed 9.3 km/h Distance 3.29 km</desc>
<time>2010-02-27T10:41:20.12</time>
<name>2372</name>
</trkpt>
<trkpt lat="48.948153" lon="8.644938">
<ele>286.5</ele>
<speed>4.4</speed>
<course>341.9</course>
<desc>Speed 4.4 km/h Distance 3.29 km</desc>
<time>2010-02-27T10:41:21.13</time>
<name>2373</name>
</trkpt>
<trkpt lat="48.948167" lon="8.644932">
<ele>286.0</ele>
<speed>5.1</speed>
<course>349.6</course>
<desc>Speed 5.1 km/h Distance 3.29 km</desc>
<time>2010-02-27T10:41:22.12</time>
<name>2374</name>
</trkpt>
<trkpt lat="48.948178" lon="8.644928">
<ele>286.0</ele>
<speed>4.9</speed>
<course>323.1</course>
<desc>Speed 4.9 km/h Distance 3.29 km</desc>
<time>2010-02-27T10:41:23.12</time>
<name>2375</name>
</trkpt>
<trkpt lat="48.948190" lon="8.644915">
<ele>285.5</ele>
<speed>5.7</speed>
<course>346.5</course>
<desc>Speed 5.7 km/h Distance 3.29 km</desc>
<time>2010-02-27T10:41:24.12</time>
<name>2376</name>
</trkpt>
<trkpt lat="48.948203" lon="8.644910">
<ele>285.5</ele>
<speed>5.4</speed>
<course>356.2</course>
<desc>Speed 5.4 km/h Distance 3.30 km</desc>
<time>2010-02-27T10:41:25.12</time>
<name>2377</name>
</trkpt>
<trkpt lat="48.948218" lon="8.644908">
<ele>285.0</ele>
<speed>5.6</speed>
<course>3.8</course>
<desc>Speed 5.6 km/h Distance 3.30 km</desc>
<time>2010-02-27T10:41:26.12</time>
<name>2378</name>
</trkpt>
<trkpt lat="48.948233" lon="8.644908">
<ele>285.5</ele>
<speed>5.1</speed>
<course>355.3</course>
<desc>Speed 5.1 km/h Distance 3.30 km</desc>
<time>2010-02-27T10:41:27.12</time>
<name>2379</name>
</trkpt>
<trkpt lat="48.948245" lon="8.644907">
<ele>286.0</ele>
<speed>4.8</speed>
<course>343.7</course>
<desc>Speed 4.8 km/h Distance 3.30 km</desc>
<time>2010-02-27T10:41:28.11</time>
<name>2380</name>
</trkpt>
<trkpt lat="48.948260" lon="8.644900">
<ele>286.0</ele>
<speed>5.1</speed>
<course>344.0</course>
<desc>Speed 5.1 km/h Distance 3.30 km</desc>
<time>2010-02-27T10:41:29.12</time>
<name>2381</name>
</trkpt>
<trkpt lat="48.948275" lon="8.644893">
<ele>286.5</ele>
<speed>5.4</speed>
<course>330.2</course>
<desc>Speed 5.4 km/h Distance 3.30 km</desc>
<time>2010-02-27T10:41:30.11</time>
<name>2382</name>
</trkpt>
<trkpt lat="48.948288" lon="8.644882">
<ele>285.5</ele>
<speed>5.4</speed>
<course>343.4</course>
<desc>Speed 5.4 km/h Distance 3.31 km</desc>
<time>2010-02-27T10:41:31.11</time>
<name>2383</name>
</trkpt>
<trkpt lat="48.948303" lon="8.644875">
<ele>285.5</ele>
<speed>5.3</speed>
<course>348.8</course>
<desc>Speed 5.3 km/h Distance 3.31 km</desc>
<time>2010-02-27T10:41:32.10</time>
<name>2384</name>
</trkpt>
<trkpt lat="48.948320" lon="8.644870">
<ele>284.5</ele>
<speed>5.8</speed>
<course>352.9</course>
<desc>Speed 5.8 km/h Distance 3.31 km</desc>
<time>2010-02-27T10:41:33.11</time>
<name>2385</name>
</trkpt>
<trkpt lat="48.948337" lon="8.644867">
<ele>283.5</ele>
<speed>5.4</speed>
<course>347.8</course>
<desc>Speed 5.4 km/h Distance 3.31 km</desc>
<time>2010-02-27T10:41:34.11</time>
<name>2386</name>
</trkpt>
<trkpt lat="48.948352" lon="8.644862">
<ele>284.0</ele>
<speed>5.8</speed>
<course>35.8</course>
<desc>Speed 5.8 km/h Distance 3.31 km</desc>
<time>2010-02-27T10:41:35.11</time>
<name>2387</name>
</trkpt>
<trkpt lat="48.948368" lon="8.644880">
<ele>286.5</ele>
<speed>6.9</speed>
<course>355.3</course>
<desc>Speed 6.9 km/h Distance 3.32 km</desc>
<time>2010-02-27T10:41:36.11</time>
<name>2388</name>
</trkpt>
<trkpt lat="48.948380" lon="8.644878">
<ele>286.0</ele>
<speed>4.6</speed>
<course>1.9</course>
<desc>Speed 4.6 km/h Distance 3.32 km</desc>
<time>2010-02-27T10:41:37.11</time>
<name>2389</name>
</trkpt>
<trkpt lat="48.948395" lon="8.644880">
<ele>287.0</ele>
<speed>5.9</speed>
<course>356.2</course>
<desc>Speed 5.9 km/h Distance 3.32 km</desc>
<time>2010-02-27T10:41:38.11</time>
<name>2390</name>
</trkpt>
<trkpt lat="48.948410" lon="8.644878">
<ele>287.5</ele>
<speed>5.2</speed>
<course>349.6</course>
<desc>Speed 5.2 km/h Distance 3.32 km</desc>
<time>2010-02-27T10:41:39.11</time>
<name>2391</name>
</trkpt>
<trkpt lat="48.948422" lon="8.644875">
<ele>287.0</ele>
<speed>4.8</speed>
<course>0.0</course>
<desc>Speed 4.8 km/h Distance 3.32 km</desc>
<time>2010-02-27T10:41:40.10</time>
<name>2392</name>
</trkpt>
<trkpt lat="48.948438" lon="8.644875">
<ele>286.0</ele>
<speed>5.7</speed>
<course>9.0</course>
<desc>Speed 5.7 km/h Distance 3.32 km</desc>
<time>2010-02-27T10:41:41.11</time>
<name>2393</name>
</trkpt>
<trkpt lat="48.948452" lon="8.644878">
<ele>286.5</ele>
<speed>4.9</speed>
<course>16.3</course>
<desc>Speed 4.9 km/h Distance 3.32 km</desc>
<time>2010-02-27T10:41:42.10</time>
<name>2394</name>
</trkpt>
<trkpt lat="48.948467" lon="8.644885">
<ele>287.0</ele>
<speed>5.1</speed>
<course>348.8</course>
<desc>Speed 5.1 km/h Distance 3.33 km</desc>
<time>2010-02-27T10:41:43.11</time>
<name>2395</name>
</trkpt>
<trkpt lat="48.948478" lon="8.644882">
<ele>286.0</ele>
<speed>5.2</speed>
<course>0.0</course>
<desc>Speed 5.2 km/h Distance 3.33 km</desc>
<time>2010-02-27T10:41:44.10</time>
<name>2396</name>
</trkpt>
<trkpt lat="48.948493" lon="8.644882">
<ele>286.5</ele>
<speed>5.4</speed>
<course>4.7</course>
<desc>Speed 5.4 km/h Distance 3.33 km</desc>
<time>2010-02-27T10:41:45.10</time>
<name>2397</name>
</trkpt>
<trkpt lat="48.948505" lon="8.644883">
<ele>287.0</ele>
<speed>4.9</speed>
<course>355.0</course>
<desc>Speed 4.9 km/h Distance 3.33 km</desc>
<time>2010-02-27T10:41:46.09</time>
<name>2398</name>
</trkpt>
<trkpt lat="48.948520" lon="8.644882">
<ele>284.5</ele>
<speed>5.4</speed>
<course>351.2</course>
<desc>Speed 5.4 km/h Distance 3.33 km</desc>
<time>2010-02-27T10:41:47.10</time>
<name>2399</name>
</trkpt>
<trkpt lat="48.948535" lon="8.644878">
<ele>281.5</ele>
<speed>5.0</speed>
<course>356.2</course>
<desc>Speed 5.0 km/h Distance 3.33 km</desc>
<time>2010-02-27T10:41:48.09</time>
<name>2400</name>
</trkpt>
<trkpt lat="48.948550" lon="8.644877">
<ele>280.0</ele>
<speed>5.3</speed>
<course>343.4</course>
<desc>Speed 5.3 km/h Distance 3.34 km</desc>
<time>2010-02-27T10:41:49.10</time>
<name>2401</name>
</trkpt>
<trkpt lat="48.948565" lon="8.644870">
<ele>279.5</ele>
<speed>5.5</speed>
<course>344.0</course>
<desc>Speed 5.5 km/h Distance 3.34 km</desc>
<time>2010-02-27T10:41:50.10</time>
<name>2402</name>
</trkpt>
<trkpt lat="48.948577" lon="8.644865">
<ele>279.5</ele>
<speed>5.0</speed>
<course>8.8</course>
<desc>Speed 5.0 km/h Distance 3.34 km</desc>
<time>2010-02-27T10:41:51.10</time>
<name>2403</name>
</trkpt>
<trkpt lat="48.948592" lon="8.644868">
<ele>281.0</ele>
<speed>5.3</speed>
<course>351.2</course>
<desc>Speed 5.3 km/h Distance 3.34 km</desc>
<time>2010-02-27T10:41:52.10</time>
<name>2404</name>
</trkpt>
<trkpt lat="48.948607" lon="8.644865">
<ele>282.0</ele>
<speed>5.5</speed>
<course>348.8</course>
<desc>Speed 5.5 km/h Distance 3.34 km</desc>
<time>2010-02-27T10:41:53.09</time>
<name>2405</name>
</trkpt>
<trkpt lat="48.948618" lon="8.644862">
<ele>281.5</ele>
<speed>4.8</speed>
<course>341.9</course>
<desc>Speed 4.8 km/h Distance 3.34 km</desc>
<time>2010-02-27T10:41:54.09</time>
<name>2406</name>
</trkpt>
<trkpt lat="48.948632" lon="8.644855">
<ele>281.5</ele>
<speed>5.2</speed>
<course>341.9</course>
<desc>Speed 5.2 km/h Distance 3.34 km</desc>
<time>2010-02-27T10:41:55.09</time>
<name>2407</name>
</trkpt>
<trkpt lat="48.948645" lon="8.644848">
<ele>280.5</ele>
<speed>5.2</speed>
<course>352.3</course>
<desc>Speed 5.2 km/h Distance 3.35 km</desc>
<time>2010-02-27T10:41:56.10</time>
<name>2408</name>
</trkpt>
<trkpt lat="48.948662" lon="8.644845">
<ele>280.5</ele>
<speed>5.6</speed>
<course>352.5</course>
<desc>Speed 5.6 km/h Distance 3.35 km</desc>
<time>2010-02-27T10:41:57.19</time>
<name>2409</name>
</trkpt>
<trkpt lat="48.948677" lon="8.644842">
<ele>281.5</ele>
<speed>5.1</speed>
<course>3.8</course>
<desc>Speed 5.1 km/h Distance 3.35 km</desc>
<time>2010-02-27T10:41:58.10</time>
<name>2410</name>
</trkpt>
<trkpt lat="48.948692" lon="8.644843">
<ele>283.5</ele>
<speed>5.3</speed>
<course>355.9</course>
<desc>Speed 5.3 km/h Distance 3.35 km</desc>
<time>2010-02-27T10:41:59.10</time>
<name>2411</name>
</trkpt>
<trkpt lat="48.948708" lon="8.644842">
<ele>284.5</ele>
<speed>5.9</speed>
<course>351.0</course>
<desc>Speed 5.9 km/h Distance 3.35 km</desc>
<time>2010-02-27T10:42:00.10</time>
<name>2412</name>
</trkpt>
<trkpt lat="48.948722" lon="8.644838">
<ele>285.0</ele>
<speed>4.9</speed>
<course>348.3</course>
<desc>Speed 4.9 km/h Distance 3.36 km</desc>
<time>2010-02-27T10:42:01.10</time>
<name>2413</name>
</trkpt>
<trkpt lat="48.948737" lon="8.644833">
<ele>285.5</ele>
<speed>5.9</speed>
<course>0.0</course>
<desc>Speed 5.9 km/h Distance 3.36 km</desc>
<time>2010-02-27T10:42:02.10</time>
<name>2414</name>
</trkpt>
<trkpt lat="48.948752" lon="8.644833">
<ele>286.5</ele>
<speed>5.4</speed>
<course>352.3</course>
<desc>Speed 5.4 km/h Distance 3.36 km</desc>
<time>2010-02-27T10:42:03.10</time>
<name>2415</name>
</trkpt>
<trkpt lat="48.948768" lon="8.644830">
<ele>287.0</ele>
<speed>5.1</speed>
<course>349.6</course>
<desc>Speed 5.1 km/h Distance 3.36 km</desc>
<time>2010-02-27T10:42:04.10</time>
<name>2416</name>
</trkpt>
<trkpt lat="48.948780" lon="8.644827">
<ele>287.5</ele>
<speed>5.0</speed>
<course>351.9</course>
<desc>Speed 5.0 km/h Distance 3.36 km</desc>
<time>2010-02-27T10:42:05.10</time>
<name>2417</name>
</trkpt>
<trkpt lat="48.948795" lon="8.644823">
<ele>287.5</ele>
<speed>5.8</speed>
<course>344.0</course>
<desc>Speed 5.8 km/h Distance 3.36 km</desc>
<time>2010-02-27T10:42:06.10</time>
<name>2418</name>
</trkpt>
<trkpt lat="48.948807" lon="8.644818">
<ele>287.0</ele>
<speed>4.8</speed>
<course>336.2</course>
<desc>Speed 4.8 km/h Distance 3.36 km</desc>
<time>2010-02-27T10:42:07.10</time>
<name>2419</name>
</trkpt>
<trkpt lat="48.948817" lon="8.644812">
<ele>287.5</ele>
<speed>4.4</speed>
<course>0.0</course>
<desc>Speed 4.4 km/h Distance 3.37 km</desc>
<time>2010-02-27T10:42:08.10</time>
<name>2420</name>
</trkpt>
<trkpt lat="48.948820" lon="8.644812">
<ele>287.5</ele>
<speed>1.0</speed>
<course>0.0</course>
<desc>Speed 1.0 km/h Distance 3.37 km</desc>
<time>2010-02-27T10:42:09.10</time>
<name>2421</name>
</trkpt>
<trkpt lat="48.948820" lon="8.644812">
<ele>287.5</ele>
<speed>0.6</speed>
<course>322.8</course>
<desc>Speed 0.6 km/h Distance 3.37 km</desc>
<time>2010-02-27T10:42:10.10</time>
<name>2422</name>
</trkpt>
<trkpt lat="48.948822" lon="8.644810">
<ele>286.5</ele>
<speed>0.9</speed>
<course>326.3</course>
<desc>Speed 0.9 km/h Distance 3.37 km</desc>
<time>2010-02-27T10:42:11.10</time>
<name>2423</name>
</trkpt>
<trkpt lat="48.948825" lon="8.644807">
<ele>286.5</ele>
<speed>1.9</speed>
<course>326.8</course>
<desc>Speed 1.9 km/h Distance 3.37 km</desc>
<time>2010-02-27T10:42:12.10</time>
<name>2424</name>
</trkpt>
<trkpt lat="48.948835" lon="8.644797">
<ele>286.5</ele>
<speed>4.3</speed>
<course>167.4</course>
<desc>Speed 4.3 km/h Distance 3.37 km</desc>
<time>2010-02-27T10:42:13.10</time>
<name>2425</name>
</trkpt>
<trkpt lat="48.948830" lon="8.644798">
<ele>286.0</ele>
<speed>2.2</speed>
<course>136.5</course>
<desc>Speed 2.2 km/h Distance 3.37 km</desc>
<time>2010-02-27T10:42:14.10</time>
<name>2426</name>
</trkpt>
<trkpt lat="48.948827" lon="8.644803">
<ele>286.0</ele>
<speed>1.6</speed>
<course>128.1</course>
<desc>Speed 1.6 km/h Distance 3.37 km</desc>
<time>2010-02-27T10:42:15.11</time>
<name>2427</name>
</trkpt>
<trkpt lat="48.948825" lon="8.644807">
<ele>286.0</ele>
<speed>1.4</speed>
<course>270.0</course>
<desc>Speed 1.4 km/h Distance 3.37 km</desc>
<time>2010-02-27T10:42:16.17</time>
<name>2428</name>
</trkpt>
<trkpt lat="48.948825" lon="8.644805">
<ele>285.5</ele>
<speed>1.0</speed>
<course>270.0</course>
<desc>Speed 1.0 km/h Distance 3.37 km</desc>
<time>2010-02-27T10:42:17.58</time>
<name>2429</name>
</trkpt>
<trkpt lat="48.948825" lon="8.644805">
<ele>285.5</ele>
<speed>0.5</speed>
<course>270.0</course>
<desc>Speed 0.5 km/h Distance 3.37 km</desc>
<time>2010-02-27T10:42:18.16</time>
<name>2430</name>
</trkpt>
<trkpt lat="48.948825" lon="8.644805">
<ele>286.0</ele>
<speed>0.3</speed>
<course>270.0</course>
<desc>Speed 0.3 km/h Distance 3.37 km</desc>
<time>2010-02-27T10:42:19.42</time>
<name>2431</name>
</trkpt>
<trkpt lat="48.948825" lon="8.644805">
<ele>286.0</ele>
<speed>1.0</speed>
<course>115.1</course>
<desc>Speed 1.0 km/h Distance 3.37 km</desc>
<time>2010-02-27T10:42:20.18</time>
<name>2432</name>
</trkpt>
<trkpt lat="48.948818" lon="8.644827">
<ele>286.5</ele>
<speed>7.6</speed>
<course>307.3</course>
<desc>Speed 7.6 km/h Distance 3.37 km</desc>
<time>2010-02-27T10:42:21.20</time>
<name>2433</name>
</trkpt>
<trkpt lat="48.948825" lon="8.644813">
<ele>286.5</ele>
<speed>3.2</speed>
<course>142.8</course>
<desc>Speed 3.2 km/h Distance 3.37 km</desc>
<time>2010-02-27T10:42:22.20</time>
<name>2434</name>
</trkpt>
<trkpt lat="48.948823" lon="8.644815">
<ele>286.5</ele>
<speed>0.5</speed>
<course>142.8</course>
<desc>Speed 0.5 km/h Distance 3.37 km</desc>
<time>2010-02-27T10:42:23.20</time>
<name>2435</name>
</trkpt>
<trkpt lat="48.948822" lon="8.644817">
<ele>286.5</ele>
<speed>0.2</speed>
<course>128.1</course>
<desc>Speed 0.2 km/h Distance 3.37 km</desc>
<time>2010-02-27T10:42:24.20</time>
<name>2436</name>
</trkpt>
<trkpt lat="48.948820" lon="8.644820">
<ele>286.5</ele>
<speed>0.6</speed>
<course>90.0</course>
<desc>Speed 0.6 km/h Distance 3.37 km</desc>
<time>2010-02-27T10:42:25.20</time>
<name>2437</name>
</trkpt>
<trkpt lat="48.948820" lon="8.644822">
<ele>286.5</ele>
<speed>0.3</speed>
<course>233.9</course>
<desc>Speed 0.3 km/h Distance 3.37 km</desc>
<time>2010-02-27T10:42:26.20</time>
<name>2438</name>
</trkpt>
<trkpt lat="48.948818" lon="8.644818">
<ele>287.0</ele>
<speed>1.8</speed>
<course>317.4</course>
<desc>Speed 1.8 km/h Distance 3.37 km</desc>
<time>2010-02-27T10:42:27.85</time>
<name>2439</name>
</trkpt>
<trkpt lat="48.948827" lon="8.644807">
<ele>284.5</ele>
<speed>1.8</speed>
<course>347.4</course>
<desc>Speed 1.8 km/h Distance 3.38 km</desc>
<time>2010-02-27T10:42:29.85</time>
<name>2440</name>
</trkpt>
<trkpt lat="48.948830" lon="8.644805">
<ele>284.5</ele>
<speed>1.8</speed>
<course>75.6</course>
<desc>Speed 1.8 km/h Distance 3.38 km</desc>
<time>2010-02-27T10:42:30.36</time>
<name>2441</name>
</trkpt>
<trkpt lat="48.948832" lon="8.644815">
<ele>284.5</ele>
<speed>1.8</speed>
<course>109.4</course>
<desc>Speed 1.8 km/h Distance 3.38 km</desc>
<time>2010-02-27T10:42:31.36</time>
<name>2442</name>
</trkpt>
<trkpt lat="48.948827" lon="8.644837">
<ele>284.0</ele>
<speed>1.8</speed>
<course>130.9</course>
<desc>Speed 1.8 km/h Distance 3.38 km</desc>
<time>2010-02-27T10:42:32.52</time>
<name>2443</name>
</trkpt>
<trkpt lat="48.948820" lon="8.644848">
<ele>281.5</ele>
<speed>4.0</speed>
<course>270.0</course>
<desc>Speed 4.0 km/h Distance 3.38 km</desc>
<time>2010-02-27T10:42:33.39</time>
<name>2444</name>
</trkpt>
<trkpt lat="48.948820" lon="8.644845">
<ele>281.0</ele>
<speed>0.4</speed>
<course>352.6</course>
<desc>Speed 0.4 km/h Distance 3.38 km</desc>
<time>2010-02-27T10:42:34.38</time>
<name>2445</name>
</trkpt>
<trkpt lat="48.948827" lon="8.644843">
<ele>281.0</ele>
<speed>1.7</speed>
<course>333.8</course>
<desc>Speed 1.7 km/h Distance 3.38 km</desc>
<time>2010-02-27T10:42:35.65</time>
<name>2446</name>
</trkpt>
<trkpt lat="48.948853" lon="8.644823">
<ele>279.5</ele>
<speed>4.6</speed>
<course>227.8</course>
<desc>Speed 4.6 km/h Distance 3.38 km</desc>
<time>2010-02-27T10:42:37.53</time>
<name>2447</name>
</trkpt>
<trkpt lat="48.948848" lon="8.644815">
<ele>278.5</ele>
<speed>4.0</speed>
<course>352.7</course>
<desc>Speed 4.0 km/h Distance 3.38 km</desc>
<time>2010-02-27T10:42:38.41</time>
<name>2448</name>
</trkpt>
<trkpt lat="48.948900" lon="8.644805">
<ele>277.5</ele>
<speed>4.5</speed>
<course>323.4</course>
<desc>Speed 4.5 km/h Distance 3.39 km</desc>
<time>2010-02-27T10:42:40.41</time>
<name>2449</name>
</trkpt>
<trkpt lat="48.948913" lon="8.644790">
<ele>277.5</ele>
<speed>2.2</speed>
<course>347.4</course>
<desc>Speed 2.2 km/h Distance 3.39 km</desc>
<time>2010-02-27T10:42:41.41</time>
<name>2450</name>
</trkpt>
<trkpt lat="48.948933" lon="8.644783">
<ele>278.0</ele>
<speed>2.0</speed>
<course>339.9</course>
<desc>Speed 2.0 km/h Distance 3.39 km</desc>
<time>2010-02-27T10:42:42.41</time>
<name>2451</name>
</trkpt>
<trkpt lat="48.948948" lon="8.644775">
<ele>278.0</ele>
<speed>2.9</speed>
<course>345.1</course>
<desc>Speed 2.9 km/h Distance 3.40 km</desc>
<time>2010-02-27T10:42:43.41</time>
<name>2452</name>
</trkpt>
<trkpt lat="48.948957" lon="8.644772">
<ele>277.5</ele>
<speed>2.1</speed>
<course>295.1</course>
<desc>Speed 2.1 km/h Distance 3.40 km</desc>
<time>2010-02-27T10:42:44.41</time>
<name>2453</name>
</trkpt>
<trkpt lat="48.948963" lon="8.644750">
<ele>278.0</ele>
<speed>2.9</speed>
<course>334.9</course>
<desc>Speed 2.9 km/h Distance 3.40 km</desc>
<time>2010-02-27T10:42:46.41</time>
<name>2454</name>
</trkpt>
<trkpt lat="48.949073" lon="8.644672">
<ele>279.0</ele>
<speed>2.3</speed>
<course>55.9</course>
<desc>Speed 2.3 km/h Distance 3.41 km</desc>
<time>2010-02-27T10:42:49.41</time>
<name>2455</name>
</trkpt>
<trkpt lat="48.949080" lon="8.644687">
<ele>279.5</ele>
<speed>3.9</speed>
<course>0.0</course>
<desc>Speed 3.9 km/h Distance 3.41 km</desc>
<time>2010-02-27T10:42:50.42</time>
<name>2456</name>
</trkpt>
<trkpt lat="48.949095" lon="8.644687">
<ele>280.0</ele>
<speed>1.9</speed>
<course>312.2</course>
<desc>Speed 1.9 km/h Distance 3.42 km</desc>
<time>2010-02-27T10:42:51.42</time>
<name>2457</name>
</trkpt>
<trkpt lat="48.949100" lon="8.644678">
<ele>280.5</ele>
<speed>2.1</speed>
<course>323.4</course>
<desc>Speed 2.1 km/h Distance 3.42 km</desc>
<time>2010-02-27T10:42:52.42</time>
<name>2458</name>
</trkpt>
<trkpt lat="48.949113" lon="8.644663">
<ele>281.0</ele>
<speed>5.3</speed>
<course>333.8</course>
<desc>Speed 5.3 km/h Distance 3.42 km</desc>
<time>2010-02-27T10:42:53.42</time>
<name>2459</name>
</trkpt>
<trkpt lat="48.949127" lon="8.644653">
<ele>282.0</ele>
<speed>4.0</speed>
<course>356.8</course>
<desc>Speed 4.0 km/h Distance 3.42 km</desc>
<time>2010-02-27T10:42:54.42</time>
<name>2460</name>
</trkpt>
<trkpt lat="48.949148" lon="8.644652">
<ele>285.5</ele>
<speed>4.9</speed>
<course>350.3</course>
<desc>Speed 4.9 km/h Distance 3.42 km</desc>
<time>2010-02-27T10:42:55.42</time>
<name>2461</name>
</trkpt>
<trkpt lat="48.949162" lon="8.644648">
<ele>285.5</ele>
<speed>4.5</speed>
<course>339.9</course>
<desc>Speed 4.5 km/h Distance 3.42 km</desc>
<time>2010-02-27T10:42:56.42</time>
<name>2462</name>
</trkpt>
<trkpt lat="48.949177" lon="8.644640">
<ele>286.0</ele>
<speed>5.4</speed>
<course>357.5</course>
<desc>Speed 5.4 km/h Distance 3.43 km</desc>
<time>2010-02-27T10:42:57.42</time>
<name>2463</name>
</trkpt>
<trkpt lat="48.949195" lon="8.644638">
<ele>287.5</ele>
<speed>5.9</speed>
<course>3.8</course>
<desc>Speed 5.9 km/h Distance 3.43 km</desc>
<time>2010-02-27T10:42:58.42</time>
<name>2464</name>
</trkpt>
<trkpt lat="48.949210" lon="8.644640">
<ele>288.5</ele>
<speed>5.2</speed>
<course>13.5</course>
<desc>Speed 5.2 km/h Distance 3.43 km</desc>
<time>2010-02-27T10:42:59.42</time>
<name>2465</name>
</trkpt>
<trkpt lat="48.949223" lon="8.644645">
<ele>289.5</ele>
<speed>3.5</speed>
<course>9.0</course>
<desc>Speed 3.5 km/h Distance 3.43 km</desc>
<time>2010-02-27T10:43:00.42</time>
<name>2466</name>
</trkpt>
<trkpt lat="48.949237" lon="8.644648">
<ele>290.5</ele>
<speed>4.1</speed>
<course>348.8</course>
<desc>Speed 4.1 km/h Distance 3.43 km</desc>
<time>2010-02-27T10:43:01.42</time>
<name>2467</name>
</trkpt>
<trkpt lat="48.949253" lon="8.644643">
<ele>291.5</ele>
<speed>4.4</speed>
<course>316.7</course>
<desc>Speed 4.4 km/h Distance 3.43 km</desc>
<time>2010-02-27T10:43:02.42</time>
<name>2468</name>
</trkpt>
<trkpt lat="48.949265" lon="8.644627">
<ele>291.0</ele>
<speed>5.8</speed>
<course>334.8</course>
<desc>Speed 5.8 km/h Distance 3.44 km</desc>
<time>2010-02-27T10:43:03.42</time>
<name>2469</name>
</trkpt>
<trkpt lat="48.949277" lon="8.644618">
<ele>290.0</ele>
<speed>4.3</speed>
<course>356.1</course>
<desc>Speed 4.3 km/h Distance 3.44 km</desc>
<time>2010-02-27T10:43:04.42</time>
<name>2470</name>
</trkpt>
<trkpt lat="48.949290" lon="8.644617">
<ele>290.5</ele>
<speed>5.4</speed>
<course>4.4</course>
<desc>Speed 5.4 km/h Distance 3.44 km</desc>
<time>2010-02-27T10:43:05.42</time>
<name>2471</name>
</trkpt>
<trkpt lat="48.949300" lon="8.644617">
<ele>291.5</ele>
<speed>3.4</speed>
<course>326.9</course>
<desc>Speed 3.4 km/h Distance 3.44 km</desc>
<time>2010-02-27T10:43:06.42</time>
<name>2472</name>
</trkpt>
<trkpt lat="48.949312" lon="8.644605">
<ele>291.0</ele>
<speed>4.5</speed>
<course>344.0</course>
<desc>Speed 4.5 km/h Distance 3.44 km</desc>
<time>2010-02-27T10:43:07.42</time>
<name>2473</name>
</trkpt>
<trkpt lat="48.949327" lon="8.644598">
<ele>291.5</ele>
<speed>5.1</speed>
<course>326.8</course>
<desc>Speed 5.1 km/h Distance 3.44 km</desc>
<time>2010-02-27T10:43:08.42</time>
<name>2474</name>
</trkpt>
<trkpt lat="48.949340" lon="8.644585">
<ele>290.5</ele>
<speed>4.7</speed>
<course>336.3</course>
<desc>Speed 4.7 km/h Distance 3.44 km</desc>
<time>2010-02-27T10:43:09.42</time>
<name>2475</name>
</trkpt>
<trkpt lat="48.949355" lon="8.644575">
<ele>290.0</ele>
<speed>5.6</speed>
<course>318.8</course>
<desc>Speed 5.6 km/h Distance 3.45 km</desc>
<time>2010-02-27T10:43:10.42</time>
<name>2476</name>
</trkpt>
<trkpt lat="48.949365" lon="8.644562">
<ele>288.5</ele>
<speed>3.7</speed>
<course>334.0</course>
<desc>Speed 3.7 km/h Distance 3.45 km</desc>
<time>2010-02-27T10:43:11.42</time>
<name>2477</name>
</trkpt>
<trkpt lat="48.949378" lon="8.644552">
<ele>288.5</ele>
<speed>5.2</speed>
<course>341.9</course>
<desc>Speed 5.2 km/h Distance 3.45 km</desc>
<time>2010-02-27T10:43:12.42</time>
<name>2478</name>
</trkpt>
<trkpt lat="48.949392" lon="8.644545">
<ele>288.5</ele>
<speed>4.2</speed>
<course>356.1</course>
<desc>Speed 4.2 km/h Distance 3.45 km</desc>
<time>2010-02-27T10:43:13.42</time>
<name>2479</name>
</trkpt>
<trkpt lat="48.949405" lon="8.644543">
<ele>288.0</ele>
<speed>3.7</speed>
<course>348.3</course>
<desc>Speed 3.7 km/h Distance 3.45 km</desc>
<time>2010-02-27T10:43:14.42</time>
<name>2480</name>
</trkpt>
<trkpt lat="48.949420" lon="8.644538">
<ele>287.5</ele>
<speed>4.2</speed>
<course>344.0</course>
<desc>Speed 4.2 km/h Distance 3.45 km</desc>
<time>2010-02-27T10:43:15.42</time>
<name>2481</name>
</trkpt>
<trkpt lat="48.949435" lon="8.644532">
<ele>288.0</ele>
<speed>5.5</speed>
<course>346.5</course>
<desc>Speed 5.5 km/h Distance 3.46 km</desc>
<time>2010-02-27T10:43:16.42</time>
<name>2482</name>
</trkpt>
<trkpt lat="48.949448" lon="8.644527">
<ele>288.0</ele>
<speed>5.0</speed>
<course>344.0</course>
<desc>Speed 5.0 km/h Distance 3.46 km</desc>
<time>2010-02-27T10:43:17.42</time>
<name>2483</name>
</trkpt>
<trkpt lat="48.949460" lon="8.644522">
<ele>288.5</ele>
<speed>4.3</speed>
<course>5.3</course>
<desc>Speed 4.3 km/h Distance 3.46 km</desc>
<time>2010-02-27T10:43:18.42</time>
<name>2484</name>
</trkpt>
<trkpt lat="48.949473" lon="8.644523">
<ele>290.0</ele>
<speed>5.2</speed>
<course>343.4</course>
<desc>Speed 5.2 km/h Distance 3.46 km</desc>
<time>2010-02-27T10:43:19.42</time>
<name>2485</name>
</trkpt>
<trkpt lat="48.949488" lon="8.644517">
<ele>290.0</ele>
<speed>5.5</speed>
<course>347.8</course>
<desc>Speed 5.5 km/h Distance 3.46 km</desc>
<time>2010-02-27T10:43:20.42</time>
<name>2486</name>
</trkpt>
<trkpt lat="48.949503" lon="8.644512">
<ele>290.0</ele>
<speed>5.4</speed>
<course>1.2</course>
<desc>Speed 5.4 km/h Distance 3.46 km</desc>
<time>2010-02-27T10:43:21.42</time>
<name>2487</name>
</trkpt>
<trkpt lat="48.949517" lon="8.644512">
<ele>291.0</ele>
<speed>5.1</speed>
<course>355.0</course>
<desc>Speed 5.1 km/h Distance 3.47 km</desc>
<time>2010-02-27T10:43:22.42</time>
<name>2488</name>
</trkpt>
<trkpt lat="48.949532" lon="8.644510">
<ele>293.0</ele>
<speed>4.7</speed>
<course>342.5</course>
<desc>Speed 4.7 km/h Distance 3.47 km</desc>
<time>2010-02-27T10:43:23.42</time>
<name>2489</name>
</trkpt>
<trkpt lat="48.949538" lon="8.644507">
<ele>293.0</ele>
<speed>2.8</speed>
<course>312.2</course>
<desc>Speed 2.8 km/h Distance 3.47 km</desc>
<time>2010-02-27T10:43:24.42</time>
<name>2490</name>
</trkpt>
<trkpt lat="48.949543" lon="8.644498">
<ele>292.5</ele>
<speed>3.5</speed>
<course>311.1</course>
<desc>Speed 3.5 km/h Distance 3.47 km</desc>
<time>2010-02-27T10:43:25.42</time>
<name>2491</name>
</trkpt>
<trkpt lat="48.949550" lon="8.644487">
<ele>290.0</ele>
<speed>3.1</speed>
<course>0.0</course>
<desc>Speed 3.1 km/h Distance 3.47 km</desc>
<time>2010-02-27T10:43:26.42</time>
<name>2492</name>
</trkpt>
<trkpt lat="48.949558" lon="8.644487">
<ele>290.5</ele>
<speed>2.9</speed>
<course>315.5</course>
<desc>Speed 2.9 km/h Distance 3.47 km</desc>
<time>2010-02-27T10:43:27.42</time>
<name>2493</name>
</trkpt>
<trkpt lat="48.949565" lon="8.644477">
<ele>290.5</ele>
<speed>3.1</speed>
<course>315.7</course>
<desc>Speed 3.1 km/h Distance 3.47 km</desc>
<time>2010-02-27T10:43:28.42</time>
<name>2494</name>
</trkpt>
<trkpt lat="48.949572" lon="8.644467">
<ele>289.0</ele>
<speed>3.6</speed>
<course>95.8</course>
<desc>Speed 3.6 km/h Distance 3.47 km</desc>
<time>2010-02-27T10:43:29.42</time>
<name>2495</name>
</trkpt>
<trkpt lat="48.949570" lon="8.644492">
<ele>289.0</ele>
<speed>6.5</speed>
<course>356.1</course>
<desc>Speed 6.5 km/h Distance 3.47 km</desc>
<time>2010-02-27T10:43:30.42</time>
<name>2496</name>
</trkpt>
<trkpt lat="48.949583" lon="8.644490">
<ele>289.5</ele>
<speed>4.5</speed>
<course>344.5</course>
<desc>Speed 4.5 km/h Distance 3.48 km</desc>
<time>2010-02-27T10:43:31.42</time>
<name>2497</name>
</trkpt>
<trkpt lat="48.949595" lon="8.644485">
<ele>289.5</ele>
<speed>3.9</speed>
<course>351.0</course>
<desc>Speed 3.9 km/h Distance 3.48 km</desc>
<time>2010-02-27T10:43:32.42</time>
<name>2498</name>
</trkpt>
<trkpt lat="48.949608" lon="8.644482">
<ele>291.0</ele>
<speed>3.9</speed>
<course>344.3</course>
<desc>Speed 3.9 km/h Distance 3.48 km</desc>
<time>2010-02-27T10:43:33.42</time>
<name>2499</name>
</trkpt>
<trkpt lat="48.949632" lon="8.644472">
<ele>292.0</ele>
<speed>6.3</speed>
<course>336.2</course>
<desc>Speed 6.3 km/h Distance 3.48 km</desc>
<time>2010-02-27T10:43:34.42</time>
<name>2500</name>
</trkpt>
<trkpt lat="48.949642" lon="8.644465">
<ele>292.0</ele>
<speed>4.9</speed>
<course>339.9</course>
<desc>Speed 4.9 km/h Distance 3.48 km</desc>
<time>2010-02-27T10:43:35.42</time>
<name>2501</name>
</trkpt>
<trkpt lat="48.949657" lon="8.644457">
<ele>291.5</ele>
<speed>6.4</speed>
<course>357.2</course>
<desc>Speed 6.4 km/h Distance 3.48 km</desc>
<time>2010-02-27T10:43:36.42</time>
<name>2502</name>
</trkpt>
<trkpt lat="48.949673" lon="8.644455">
<ele>293.0</ele>
<speed>5.4</speed>
<course>352.3</course>
<desc>Speed 5.4 km/h Distance 3.49 km</desc>
<time>2010-02-27T10:43:37.42</time>
<name>2503</name>
</trkpt>
<trkpt lat="48.949690" lon="8.644452">
<ele>294.5</ele>
<speed>5.6</speed>
<course>348.8</course>
<desc>Speed 5.6 km/h Distance 3.49 km</desc>
<time>2010-02-27T10:43:38.42</time>
<name>2504</name>
</trkpt>
<trkpt lat="48.949707" lon="8.644447">
<ele>295.0</ele>
<speed>5.3</speed>
<course>352.3</course>
<desc>Speed 5.3 km/h Distance 3.49 km</desc>
<time>2010-02-27T10:43:39.42</time>
<name>2505</name>
</trkpt>
<trkpt lat="48.949715" lon="8.644445">
<ele>294.5</ele>
<speed>3.1</speed>
<course>341.8</course>
<desc>Speed 3.1 km/h Distance 3.49 km</desc>
<time>2010-02-27T10:43:40.42</time>
<name>2506</name>
</trkpt>
<trkpt lat="48.949725" lon="8.644440">
<ele>293.5</ele>
<speed>2.3</speed>
<course>351.0</course>
<desc>Speed 2.3 km/h Distance 3.49 km</desc>
<time>2010-02-27T10:43:41.42</time>
<name>2507</name>
</trkpt>
<trkpt lat="48.949738" lon="8.644437">
<ele>292.0</ele>
<speed>4.2</speed>
<course>354.7</course>
<desc>Speed 4.2 km/h Distance 3.49 km</desc>
<time>2010-02-27T10:43:42.42</time>
<name>2508</name>
</trkpt>
<trkpt lat="48.949752" lon="8.644435">
<ele>292.5</ele>
<speed>5.0</speed>
<course>339.9</course>
<desc>Speed 5.0 km/h Distance 3.50 km</desc>
<time>2010-02-27T10:43:43.42</time>
<name>2509</name>
</trkpt>
<trkpt lat="48.949767" lon="8.644427">
<ele>290.0</ele>
<speed>5.7</speed>
<course>333.6</course>
<desc>Speed 5.7 km/h Distance 3.50 km</desc>
<time>2010-02-27T10:43:44.42</time>
<name>2510</name>
</trkpt>
<trkpt lat="48.949773" lon="8.644422">
<ele>289.0</ele>
<speed>2.6</speed>
<course>5.0</course>
<desc>Speed 2.6 km/h Distance 3.50 km</desc>
<time>2010-02-27T10:43:45.42</time>
<name>2511</name>
</trkpt>
<trkpt lat="48.949782" lon="8.644422">
<ele>288.0</ele>
<speed>2.9</speed>
<course>341.8</course>
<desc>Speed 2.9 km/h Distance 3.50 km</desc>
<time>2010-02-27T10:43:46.42</time>
<name>2512</name>
</trkpt>
<trkpt lat="48.949792" lon="8.644417">
<ele>286.0</ele>
<speed>3.7</speed>
<course>317.4</course>
<desc>Speed 3.7 km/h Distance 3.50 km</desc>
<time>2010-02-27T10:43:47.42</time>
<name>2513</name>
</trkpt>
<trkpt lat="48.949800" lon="8.644405">
<ele>283.5</ele>
<speed>4.1</speed>
<course>296.9</course>
<desc>Speed 4.1 km/h Distance 3.50 km</desc>
<time>2010-02-27T10:43:48.42</time>
<name>2514</name>
</trkpt>
<trkpt lat="48.949807" lon="8.644385">
<ele>279.5</ele>
<speed>3.5</speed>
<course>349.2</course>
<desc>Speed 3.5 km/h Distance 3.50 km</desc>
<time>2010-02-27T10:43:49.42</time>
<name>2515</name>
</trkpt>
<trkpt lat="48.949823" lon="8.644380">
<ele>279.0</ele>
<speed>4.4</speed>
<course>317.5</course>
<desc>Speed 4.4 km/h Distance 3.51 km</desc>
<time>2010-02-27T10:43:50.42</time>
<name>2516</name>
</trkpt>
<trkpt lat="48.949832" lon="8.644368">
<ele>276.5</ele>
<speed>3.0</speed>
<course>330.6</course>
<desc>Speed 3.0 km/h Distance 3.51 km</desc>
<time>2010-02-27T10:43:51.42</time>
<name>2517</name>
</trkpt>
<trkpt lat="48.949843" lon="8.644358">
<ele>274.5</ele>
<speed>3.7</speed>
<course>342.4</course>
<desc>Speed 3.7 km/h Distance 3.51 km</desc>
<time>2010-02-27T10:43:52.42</time>
<name>2518</name>
</trkpt>
<trkpt lat="48.949892" lon="8.644335">
<ele>272.0</ele>
<speed>4.3</speed>
<course>347.4</course>
<desc>Speed 4.3 km/h Distance 3.51 km</desc>
<time>2010-02-27T10:43:54.42</time>
<name>2519</name>
</trkpt>
<trkpt lat="48.949902" lon="8.644332">
<ele>270.0</ele>
<speed>3.3</speed>
<course>343.6</course>
<desc>Speed 3.3 km/h Distance 3.51 km</desc>
<time>2010-02-27T10:43:55.42</time>
<name>2520</name>
</trkpt>
<trkpt lat="48.949920" lon="8.644323">
<ele>269.0</ele>
<speed>4.0</speed>
<course>9.8</course>
<desc>Speed 4.0 km/h Distance 3.52 km</desc>
<time>2010-02-27T10:43:56.42</time>
<name>2521</name>
</trkpt>
<trkpt lat="48.949945" lon="8.644330">
<ele>271.5</ele>
<speed>6.3</speed>
<course>341.8</course>
<desc>Speed 6.3 km/h Distance 3.52 km</desc>
<time>2010-02-27T10:43:57.42</time>
<name>2522</name>
</trkpt>
<trkpt lat="48.949968" lon="8.644318">
<ele>270.0</ele>
<speed>6.8</speed>
<course>357.3</course>
<desc>Speed 6.8 km/h Distance 3.52 km</desc>
<time>2010-02-27T10:43:58.42</time>
<name>2523</name>
</trkpt>
<trkpt lat="48.949988" lon="8.644317">
<ele>271.5</ele>
<speed>6.1</speed>
<course>348.4</course>
<desc>Speed 6.1 km/h Distance 3.52 km</desc>
<time>2010-02-27T10:43:59.42</time>
<name>2524</name>
</trkpt>
<trkpt lat="48.950010" lon="8.644310">
<ele>270.5</ele>
<speed>5.8</speed>
<course>355.9</course>
<desc>Speed 5.8 km/h Distance 3.53 km</desc>
<time>2010-02-27T10:44:00.42</time>
<name>2525</name>
</trkpt>
<trkpt lat="48.950027" lon="8.644308">
<ele>271.5</ele>
<speed>6.1</speed>
<course>341.7</course>
<desc>Speed 6.1 km/h Distance 3.53 km</desc>
<time>2010-02-27T10:44:01.42</time>
<name>2526</name>
</trkpt>
<trkpt lat="48.950053" lon="8.644295">
<ele>269.5</ele>
<speed>5.6</speed>
<course>7.7</course>
<desc>Speed 5.6 km/h Distance 3.53 km</desc>
<time>2010-02-27T10:44:02.42</time>
<name>2527</name>
</trkpt>
<trkpt lat="48.950070" lon="8.644298">
<ele>271.0</ele>
<speed>5.7</speed>
<course>4.1</course>
<desc>Speed 5.7 km/h Distance 3.53 km</desc>
<time>2010-02-27T10:44:03.42</time>
<name>2528</name>
</trkpt>
<trkpt lat="48.950087" lon="8.644300">
<ele>272.5</ele>
<speed>4.9</speed>
<course>1.2</course>
<desc>Speed 4.9 km/h Distance 3.54 km</desc>
<time>2010-02-27T10:44:04.42</time>
<name>2529</name>
</trkpt>
<trkpt lat="48.950100" lon="8.644300">
<ele>273.0</ele>
<speed>4.9</speed>
<course>0.0</course>
<desc>Speed 4.9 km/h Distance 3.54 km</desc>
<time>2010-02-27T10:44:05.42</time>
<name>2530</name>
</trkpt>
<trkpt lat="48.950115" lon="8.644300">
<ele>273.5</ele>
<speed>5.6</speed>
<course>356.2</course>
<desc>Speed 5.6 km/h Distance 3.54 km</desc>
<time>2010-02-27T10:44:06.42</time>
<name>2531</name>
</trkpt>
<trkpt lat="48.950130" lon="8.644298">
<ele>273.0</ele>
<speed>4.7</speed>
<course>3.7</course>
<desc>Speed 4.7 km/h Distance 3.54 km</desc>
<time>2010-02-27T10:44:07.42</time>
<name>2532</name>
</trkpt>
<trkpt lat="48.950148" lon="8.644300">
<ele>275.0</ele>
<speed>5.7</speed>
<course>9.7</course>
<desc>Speed 5.7 km/h Distance 3.54 km</desc>
<time>2010-02-27T10:44:08.42</time>
<name>2533</name>
</trkpt>
<trkpt lat="48.950162" lon="8.644303">
<ele>276.0</ele>
<speed>5.2</speed>
<course>12.2</course>
<desc>Speed 5.2 km/h Distance 3.54 km</desc>
<time>2010-02-27T10:44:09.42</time>
<name>2534</name>
</trkpt>
<trkpt lat="48.950177" lon="8.644308">
<ele>276.5</ele>
<speed>5.2</speed>
<course>352.9</course>
<desc>Speed 5.2 km/h Distance 3.55 km</desc>
<time>2010-02-27T10:44:10.42</time>
<name>2535</name>
</trkpt>
<trkpt lat="48.950193" lon="8.644305">
<ele>278.0</ele>
<speed>6.3</speed>
<course>1.2</course>
<desc>Speed 6.3 km/h Distance 3.55 km</desc>
<time>2010-02-27T10:44:11.42</time>
<name>2536</name>
</trkpt>
<trkpt lat="48.950207" lon="8.644307">
<ele>278.0</ele>
<speed>5.0</speed>
<course>9.0</course>
<desc>Speed 5.0 km/h Distance 3.55 km</desc>
<time>2010-02-27T10:44:12.42</time>
<name>2537</name>
</trkpt>
<trkpt lat="48.950220" lon="8.644310">
<ele>279.5</ele>
<speed>5.3</speed>
<course>352.2</course>
<desc>Speed 5.3 km/h Distance 3.55 km</desc>
<time>2010-02-27T10:44:13.42</time>
<name>2538</name>
</trkpt>
<trkpt lat="48.950243" lon="8.644305">
<ele>278.0</ele>
<speed>5.4</speed>
<course>12.6</course>
<desc>Speed 5.4 km/h Distance 3.55 km</desc>
<time>2010-02-27T10:44:14.42</time>
<name>2539</name>
</trkpt>
<trkpt lat="48.950258" lon="8.644310">
<ele>279.0</ele>
<speed>5.4</speed>
<course>2.8</course>
<desc>Speed 5.4 km/h Distance 3.55 km</desc>
<time>2010-02-27T10:44:15.42</time>
<name>2540</name>
</trkpt>
<trkpt lat="48.950275" lon="8.644312">
<ele>279.5</ele>
<speed>5.8</speed>
<course>0.0</course>
<desc>Speed 5.8 km/h Distance 3.56 km</desc>
<time>2010-02-27T10:44:16.42</time>
<name>2541</name>
</trkpt>
<trkpt lat="48.950290" lon="8.644312">
<ele>280.0</ele>
<speed>4.5</speed>
<course>337.7</course>
<desc>Speed 4.5 km/h Distance 3.56 km</desc>
<time>2010-02-27T10:44:17.42</time>
<name>2542</name>
</trkpt>
<trkpt lat="48.950303" lon="8.644303">
<ele>277.5</ele>
<speed>3.2</speed>
<course>337.9</course>
<desc>Speed 3.2 km/h Distance 3.56 km</desc>
<time>2010-02-27T10:44:18.42</time>
<name>2543</name>
</trkpt>
<trkpt lat="48.950317" lon="8.644295">
<ele>275.5</ele>
<speed>4.6</speed>
<course>8.1</course>
<desc>Speed 4.6 km/h Distance 3.56 km</desc>
<time>2010-02-27T10:44:19.42</time>
<name>2544</name>
</trkpt>
<trkpt lat="48.950332" lon="8.644298">
<ele>276.5</ele>
<speed>4.4</speed>
<course>9.0</course>
<desc>Speed 4.4 km/h Distance 3.56 km</desc>
<time>2010-02-27T10:44:20.42</time>
<name>2545</name>
</trkpt>
<trkpt lat="48.950345" lon="8.644302">
<ele>276.5</ele>
<speed>3.4</speed>
<course>348.8</course>
<desc>Speed 3.4 km/h Distance 3.56 km</desc>
<time>2010-02-27T10:44:21.42</time>
<name>2546</name>
</trkpt>
<trkpt lat="48.950362" lon="8.644297">
<ele>276.0</ele>
<speed>5.7</speed>
<course>344.0</course>
<desc>Speed 5.7 km/h Distance 3.57 km</desc>
<time>2010-02-27T10:44:22.42</time>
<name>2547</name>
</trkpt>
<trkpt lat="48.950373" lon="8.644292">
<ele>276.5</ele>
<speed>4.4</speed>
<course>341.8</course>
<desc>Speed 4.4 km/h Distance 3.57 km</desc>
<time>2010-02-27T10:44:23.42</time>
<name>2548</name>
</trkpt>
<trkpt lat="48.950383" lon="8.644287">
<ele>275.5</ele>
<speed>3.5</speed>
<course>355.3</course>
<desc>Speed 3.5 km/h Distance 3.57 km</desc>
<time>2010-02-27T10:44:24.42</time>
<name>2549</name>
</trkpt>
<trkpt lat="48.950395" lon="8.644285">
<ele>275.5</ele>
<speed>4.1</speed>
<course>4.4</course>
<desc>Speed 4.1 km/h Distance 3.57 km</desc>
<time>2010-02-27T10:44:25.42</time>
<name>2550</name>
</trkpt>
<trkpt lat="48.950405" lon="8.644285">
<ele>275.0</ele>
<speed>4.0</speed>
<course>4.4</course>
<desc>Speed 4.0 km/h Distance 3.57 km</desc>
<time>2010-02-27T10:44:26.42</time>
<name>2551</name>
</trkpt>
<trkpt lat="48.950415" lon="8.644285">
<ele>274.5</ele>
<speed>3.8</speed>
<course>4.7</course>
<desc>Speed 3.8 km/h Distance 3.57 km</desc>
<time>2010-02-27T10:44:27.42</time>
<name>2552</name>
</trkpt>
<trkpt lat="48.950427" lon="8.644285">
<ele>273.5</ele>
<speed>4.1</speed>
<course>5.3</course>
<desc>Speed 4.1 km/h Distance 3.57 km</desc>
<time>2010-02-27T10:44:28.42</time>
<name>2553</name>
</trkpt>
<trkpt lat="48.950440" lon="8.644287">
<ele>272.5</ele>
<speed>4.3</speed>
<course>355.0</course>
<desc>Speed 4.3 km/h Distance 3.58 km</desc>
<time>2010-02-27T10:44:29.42</time>
<name>2554</name>
</trkpt>
<trkpt lat="48.950455" lon="8.644285">
<ele>272.0</ele>
<speed>4.7</speed>
<course>41.2</course>
<desc>Speed 4.7 km/h Distance 3.58 km</desc>
<time>2010-02-27T10:44:30.42</time>
<name>2555</name>
</trkpt>
<trkpt lat="48.950465" lon="8.644298">
<ele>273.5</ele>
<speed>3.6</speed>
<course>2.5</course>
<desc>Speed 3.6 km/h Distance 3.58 km</desc>
<time>2010-02-27T10:44:31.42</time>
<name>2556</name>
</trkpt>
<trkpt lat="48.950483" lon="8.644298">
<ele>273.0</ele>
<speed>5.7</speed>
<course>356.1</course>
<desc>Speed 5.7 km/h Distance 3.58 km</desc>
<time>2010-02-27T10:44:32.42</time>
<name>2557</name>
</trkpt>
<trkpt lat="48.950515" lon="8.644295">
<ele>276.0</ele>
<speed>10.0</speed>
<course>9.5</course>
<desc>Speed 10.0 km/h Distance 3.58 km</desc>
<time>2010-02-27T10:44:33.42</time>
<name>2558</name>
</trkpt>
<trkpt lat="48.950535" lon="8.644300">
<ele>277.0</ele>
<speed>5.7</speed>
<course>349.2</course>
<desc>Speed 5.7 km/h Distance 3.59 km</desc>
<time>2010-02-27T10:44:34.42</time>
<name>2559</name>
</trkpt>
<trkpt lat="48.950552" lon="8.644295">
<ele>277.0</ele>
<speed>5.4</speed>
<course>19.9</course>
<desc>Speed 5.4 km/h Distance 3.59 km</desc>
<time>2010-02-27T10:44:35.42</time>
<name>2560</name>
</trkpt>
<trkpt lat="48.950567" lon="8.644303">
<ele>278.5</ele>
<speed>5.3</speed>
<course>22.3</course>
<desc>Speed 5.3 km/h Distance 3.59 km</desc>
<time>2010-02-27T10:44:36.42</time>
<name>2561</name>
</trkpt>
<trkpt lat="48.950580" lon="8.644312">
<ele>279.5</ele>
<speed>5.1</speed>
<course>3.7</course>
<desc>Speed 5.1 km/h Distance 3.59 km</desc>
<time>2010-02-27T10:44:37.42</time>
<name>2562</name>
</trkpt>
<trkpt lat="48.950598" lon="8.644313">
<ele>281.5</ele>
<speed>5.6</speed>
<course>2.8</course>
<desc>Speed 5.6 km/h Distance 3.59 km</desc>
<time>2010-02-27T10:44:38.42</time>
<name>2563</name>
</trkpt>
<trkpt lat="48.950615" lon="8.644315">
<ele>282.5</ele>
<speed>5.7</speed>
<course>3.8</course>
<desc>Speed 5.7 km/h Distance 3.60 km</desc>
<time>2010-02-27T10:44:39.42</time>
<name>2564</name>
</trkpt>
<trkpt lat="48.950630" lon="8.644317">
<ele>283.0</ele>
<speed>5.8</speed>
<course>4.1</course>
<desc>Speed 5.8 km/h Distance 3.60 km</desc>
<time>2010-02-27T10:44:40.42</time>
<name>2565</name>
</trkpt>
<trkpt lat="48.950647" lon="8.644318">
<ele>283.5</ele>
<speed>5.9</speed>
<course>357.2</course>
<desc>Speed 5.9 km/h Distance 3.60 km</desc>
<time>2010-02-27T10:44:41.42</time>
<name>2566</name>
</trkpt>
<trkpt lat="48.950663" lon="8.644317">
<ele>284.0</ele>
<speed>6.1</speed>
<course>354.7</course>
<desc>Speed 6.1 km/h Distance 3.60 km</desc>
<time>2010-02-27T10:44:42.42</time>
<name>2567</name>
</trkpt>
<trkpt lat="48.950677" lon="8.644315">
<ele>284.0</ele>
<speed>5.8</speed>
<course>352.5</course>
<desc>Speed 5.8 km/h Distance 3.60 km</desc>
<time>2010-02-27T10:44:43.42</time>
<name>2568</name>
</trkpt>
<trkpt lat="48.950692" lon="8.644312">
<ele>283.0</ele>
<speed>5.8</speed>
<course>28.6</course>
<desc>Speed 5.8 km/h Distance 3.60 km</desc>
<time>2010-02-27T10:44:44.42</time>
<name>2569</name>
</trkpt>
<trkpt lat="48.950702" lon="8.644320">
<ele>285.0</ele>
<speed>3.8</speed>
<course>344.0</course>
<desc>Speed 3.8 km/h Distance 3.61 km</desc>
<time>2010-02-27T10:44:45.42</time>
<name>2570</name>
</trkpt>
<trkpt lat="48.950717" lon="8.644313">
<ele>284.0</ele>
<speed>6.5</speed>
<course>355.3</course>
<desc>Speed 6.5 km/h Distance 3.61 km</desc>
<time>2010-02-27T10:44:46.42</time>
<name>2571</name>
</trkpt>
<trkpt lat="48.950728" lon="8.644312">
<ele>284.0</ele>
<speed>4.9</speed>
<course>354.7</course>
<desc>Speed 4.9 km/h Distance 3.61 km</desc>
<time>2010-02-27T10:44:47.42</time>
<name>2572</name>
</trkpt>
<trkpt lat="48.950742" lon="8.644310">
<ele>284.0</ele>
<speed>5.0</speed>
<course>347.4</course>
<desc>Speed 5.0 km/h Distance 3.61 km</desc>
<time>2010-02-27T10:44:48.42</time>
<name>2573</name>
</trkpt>
<trkpt lat="48.950757" lon="8.644305">
<ele>283.0</ele>
<speed>6.3</speed>
<course>339.1</course>
<desc>Speed 6.3 km/h Distance 3.61 km</desc>
<time>2010-02-27T10:44:49.42</time>
<name>2574</name>
</trkpt>
<trkpt lat="48.950768" lon="8.644298">
<ele>283.0</ele>
<speed>5.8</speed>
<course>0.0</course>
<desc>Speed 5.8 km/h Distance 3.61 km</desc>
<time>2010-02-27T10:44:50.42</time>
<name>2575</name>
</trkpt>
<trkpt lat="48.950778" lon="8.644298">
<ele>283.0</ele>
<speed>4.0</speed>
<course>326.7</course>
<desc>Speed 4.0 km/h Distance 3.61 km</desc>
<time>2010-02-27T10:44:51.42</time>
<name>2576</name>
</trkpt>
<trkpt lat="48.950800" lon="8.644277">
<ele>281.0</ele>
<speed>9.2</speed>
<course>341.7</course>
<desc>Speed 9.2 km/h Distance 3.62 km</desc>
<time>2010-02-27T10:44:52.42</time>
<name>2577</name>
</trkpt>
<trkpt lat="48.950817" lon="8.644268">
<ele>280.0</ele>
<speed>5.1</speed>
<course>1.2</course>
<desc>Speed 5.1 km/h Distance 3.62 km</desc>
<time>2010-02-27T10:44:53.42</time>
<name>2578</name>
</trkpt>
<trkpt lat="48.950830" lon="8.644268">
<ele>279.5</ele>
<speed>4.8</speed>
<course>356.1</course>
<desc>Speed 4.8 km/h Distance 3.62 km</desc>
<time>2010-02-27T10:44:54.42</time>
<name>2579</name>
</trkpt>
<trkpt lat="48.950843" lon="8.644267">
<ele>279.5</ele>
<speed>5.0</speed>
<course>348.8</course>
<desc>Speed 5.0 km/h Distance 3.62 km</desc>
<time>2010-02-27T10:44:55.42</time>
<name>2580</name>
</trkpt>
<trkpt lat="48.950855" lon="8.644263">
<ele>279.0</ele>
<speed>5.4</speed>
<course>346.0</course>
<desc>Speed 5.4 km/h Distance 3.62 km</desc>
<time>2010-02-27T10:44:56.42</time>
<name>2581</name>
</trkpt>
<trkpt lat="48.950868" lon="8.644258">
<ele>278.5</ele>
<speed>5.3</speed>
<course>349.6</course>
<desc>Speed 5.3 km/h Distance 3.62 km</desc>
<time>2010-02-27T10:44:57.42</time>
<name>2582</name>
</trkpt>
<trkpt lat="48.950880" lon="8.644255">
<ele>278.0</ele>
<speed>5.2</speed>
<course>339.9</course>
<desc>Speed 5.2 km/h Distance 3.63 km</desc>
<time>2010-02-27T10:44:58.42</time>
<name>2583</name>
</trkpt>
<trkpt lat="48.950895" lon="8.644247">
<ele>277.5</ele>
<speed>5.6</speed>
<course>341.9</course>
<desc>Speed 5.6 km/h Distance 3.63 km</desc>
<time>2010-02-27T10:44:59.42</time>
<name>2584</name>
</trkpt>
<trkpt lat="48.950912" lon="8.644238">
<ele>278.0</ele>
<speed>5.3</speed>
<course>339.4</course>
<desc>Speed 5.3 km/h Distance 3.63 km</desc>
<time>2010-02-27T10:45:00.42</time>
<name>2585</name>
</trkpt>
<trkpt lat="48.950923" lon="8.644232">
<ele>277.5</ele>
<speed>5.4</speed>
<course>0.0</course>
<desc>Speed 5.4 km/h Distance 3.63 km</desc>
<time>2010-02-27T10:45:01.42</time>
<name>2586</name>
</trkpt>
<trkpt lat="48.950935" lon="8.644232">
<ele>278.5</ele>
<speed>4.8</speed>
<course>339.9</course>
<desc>Speed 4.8 km/h Distance 3.63 km</desc>
<time>2010-02-27T10:45:02.42</time>
<name>2587</name>
</trkpt>
<trkpt lat="48.950950" lon="8.644223">
<ele>278.0</ele>
<speed>6.3</speed>
<course>355.3</course>
<desc>Speed 6.3 km/h Distance 3.63 km</desc>
<time>2010-02-27T10:45:03.42</time>
<name>2588</name>
</trkpt>
<trkpt lat="48.950962" lon="8.644222">
<ele>278.0</ele>
<speed>4.8</speed>
<course>357.2</course>
<desc>Speed 4.8 km/h Distance 3.64 km</desc>
<time>2010-02-27T10:45:04.42</time>
<name>2589</name>
</trkpt>
<trkpt lat="48.950978" lon="8.644220">
<ele>277.0</ele>
<speed>6.2</speed>
<course>351.0</course>
<desc>Speed 6.2 km/h Distance 3.64 km</desc>
<time>2010-02-27T10:45:05.42</time>
<name>2590</name>
</trkpt>
<trkpt lat="48.950992" lon="8.644217">
<ele>276.0</ele>
<speed>5.5</speed>
<course>343.7</course>
<desc>Speed 5.5 km/h Distance 3.64 km</desc>
<time>2010-02-27T10:45:06.42</time>
<name>2591</name>
</trkpt>
<trkpt lat="48.951007" lon="8.644210">
<ele>275.0</ele>
<speed>6.0</speed>
<course>341.9</course>
<desc>Speed 6.0 km/h Distance 3.64 km</desc>
<time>2010-02-27T10:45:07.42</time>
<name>2592</name>
</trkpt>
<trkpt lat="48.951023" lon="8.644202">
<ele>274.5</ele>
<speed>6.2</speed>
<course>354.7</course>
<desc>Speed 6.2 km/h Distance 3.64 km</desc>
<time>2010-02-27T10:45:08.42</time>
<name>2593</name>
</trkpt>
<trkpt lat="48.951037" lon="8.644200">
<ele>275.0</ele>
<speed>4.8</speed>
<course>339.9</course>
<desc>Speed 4.8 km/h Distance 3.64 km</desc>
<time>2010-02-27T10:45:09.42</time>
<name>2594</name>
</trkpt>
<trkpt lat="48.951052" lon="8.644192">
<ele>274.5</ele>
<speed>6.3</speed>
<course>341.9</course>
<desc>Speed 6.3 km/h Distance 3.65 km</desc>
<time>2010-02-27T10:45:10.42</time>
<name>2595</name>
</trkpt>
<trkpt lat="48.951065" lon="8.644185">
<ele>274.0</ele>
<speed>5.5</speed>
<course>326.9</course>
<desc>Speed 5.5 km/h Distance 3.65 km</desc>
<time>2010-02-27T10:45:11.42</time>
<name>2596</name>
</trkpt>
<trkpt lat="48.951077" lon="8.644173">
<ele>274.0</ele>
<speed>4.9</speed>
<course>21.5</course>
<desc>Speed 4.9 km/h Distance 3.65 km</desc>
<time>2010-02-27T10:45:12.42</time>
<name>2597</name>
</trkpt>
<trkpt lat="48.951085" lon="8.644178">
<ele>275.5</ele>
<speed>2.8</speed>
<course>8.1</course>
<desc>Speed 2.8 km/h Distance 3.65 km</desc>
<time>2010-02-27T10:45:13.42</time>
<name>2598</name>
</trkpt>
<trkpt lat="48.951095" lon="8.644180">
<ele>277.0</ele>
<speed>3.5</speed>
<course>357.5</course>
<desc>Speed 3.5 km/h Distance 3.65 km</desc>
<time>2010-02-27T10:45:14.42</time>
<name>2599</name>
</trkpt>
<trkpt lat="48.951113" lon="8.644178">
<ele>277.0</ele>
<speed>6.5</speed>
<course>355.3</course>
<desc>Speed 6.5 km/h Distance 3.65 km</desc>
<time>2010-02-27T10:45:15.42</time>
<name>2600</name>
</trkpt>
<trkpt lat="48.951125" lon="8.644177">
<ele>278.0</ele>
<speed>4.8</speed>
<course>356.2</course>
<desc>Speed 4.8 km/h Distance 3.65 km</desc>
<time>2010-02-27T10:45:16.42</time>
<name>2601</name>
</trkpt>
<trkpt lat="48.951140" lon="8.644175">
<ele>279.0</ele>
<speed>4.4</speed>
<course>349.6</course>
<desc>Speed 4.4 km/h Distance 3.66 km</desc>
<time>2010-02-27T10:45:17.42</time>
<name>2602</name>
</trkpt>
<trkpt lat="48.951152" lon="8.644172">
<ele>279.5</ele>
<speed>4.9</speed>
<course>10.3</course>
<desc>Speed 4.9 km/h Distance 3.66 km</desc>
<time>2010-02-27T10:45:18.42</time>
<name>2603</name>
</trkpt>
<trkpt lat="48.951158" lon="8.644173">
<ele>281.0</ele>
<speed>2.3</speed>
<course>17.5</course>
<desc>Speed 2.3 km/h Distance 3.66 km</desc>
<time>2010-02-27T10:45:19.42</time>
<name>2604</name>
</trkpt>
<trkpt lat="48.951165" lon="8.644177">
<ele>282.5</ele>
<speed>2.3</speed>
<course>349.6</course>
<desc>Speed 2.3 km/h Distance 3.66 km</desc>
<time>2010-02-27T10:45:20.42</time>
<name>2605</name>
</trkpt>
<trkpt lat="48.951177" lon="8.644173">
<ele>283.0</ele>
<speed>4.4</speed>
<course>4.4</course>
<desc>Speed 4.4 km/h Distance 3.66 km</desc>
<time>2010-02-27T10:45:21.42</time>
<name>2606</name>
</trkpt>
<trkpt lat="48.951187" lon="8.644173">
<ele>284.0</ele>
<speed>3.6</speed>
<course>14.9</course>
<desc>Speed 3.6 km/h Distance 3.66 km</desc>
<time>2010-02-27T10:45:22.42</time>
<name>2607</name>
</trkpt>
<trkpt lat="48.951195" lon="8.644177">
<ele>285.5</ele>
<speed>2.7</speed>
<course>49.1</course>
<desc>Speed 2.7 km/h Distance 3.66 km</desc>
<time>2010-02-27T10:45:23.42</time>
<name>2608</name>
</trkpt>
<trkpt lat="48.951202" lon="8.644188">
<ele>287.5</ele>
<speed>2.5</speed>
<course>351.9</course>
<desc>Speed 2.5 km/h Distance 3.66 km</desc>
<time>2010-02-27T10:45:24.42</time>
<name>2609</name>
</trkpt>
<trkpt lat="48.951217" lon="8.644185">
<ele>287.0</ele>
<speed>2.4</speed>
<course>349.7</course>
<desc>Speed 2.4 km/h Distance 3.67 km</desc>
<time>2010-02-27T10:45:25.42</time>
<name>2610</name>
</trkpt>
<trkpt lat="48.951223" lon="8.644183">
<ele>287.5</ele>
<speed>2.5</speed>
<course>0.0</course>
<desc>Speed 2.5 km/h Distance 3.67 km</desc>
<time>2010-02-27T10:45:26.42</time>
<name>2611</name>
</trkpt>
<trkpt lat="48.951232" lon="8.644183">
<ele>288.5</ele>
<speed>2.6</speed>
<course>351.2</course>
<desc>Speed 2.6 km/h Distance 3.67 km</desc>
<time>2010-02-27T10:45:27.42</time>
<name>2612</name>
</trkpt>
<trkpt lat="48.951247" lon="8.644180">
<ele>288.5</ele>
<speed>5.4</speed>
<course>340.3</course>
<desc>Speed 5.4 km/h Distance 3.67 km</desc>
<time>2010-02-27T10:45:28.42</time>
<name>2613</name>
</trkpt>
<trkpt lat="48.951265" lon="8.644170">
<ele>288.0</ele>
<speed>5.0</speed>
<course>341.8</course>
<desc>Speed 5.0 km/h Distance 3.67 km</desc>
<time>2010-02-27T10:45:29.42</time>
<name>2614</name>
</trkpt>
<trkpt lat="48.951285" lon="8.644160">
<ele>287.0</ele>
<speed>6.9</speed>
<course>345.1</course>
<desc>Speed 6.9 km/h Distance 3.67 km</desc>
<time>2010-02-27T10:45:30.42</time>
<name>2615</name>
</trkpt>
<trkpt lat="48.951302" lon="8.644153">
<ele>287.0</ele>
<speed>5.9</speed>
<course>343.7</course>
<desc>Speed 5.9 km/h Distance 3.68 km</desc>
<time>2010-02-27T10:45:31.42</time>
<name>2616</name>
</trkpt>
<trkpt lat="48.951317" lon="8.644147">
<ele>287.0</ele>
<speed>6.3</speed>
<course>354.7</course>
<desc>Speed 6.3 km/h Distance 3.68 km</desc>
<time>2010-02-27T10:45:32.42</time>
<name>2617</name>
</trkpt>
<trkpt lat="48.951330" lon="8.644145">
<ele>287.5</ele>
<speed>5.5</speed>
<course>7.7</course>
<desc>Speed 5.5 km/h Distance 3.68 km</desc>
<time>2010-02-27T10:45:33.42</time>
<name>2618</name>
</trkpt>
<trkpt lat="48.951347" lon="8.644148">
<ele>288.0</ele>
<speed>5.2</speed>
<course>349.6</course>
<desc>Speed 5.2 km/h Distance 3.68 km</desc>
<time>2010-02-27T10:45:34.42</time>
<name>2619</name>
</trkpt>
<trkpt lat="48.951363" lon="8.644143">
<ele>287.5</ele>
<speed>6.3</speed>
<course>351.0</course>
<desc>Speed 6.3 km/h Distance 3.68 km</desc>
<time>2010-02-27T10:45:35.42</time>
<name>2620</name>
</trkpt>
<trkpt lat="48.951377" lon="8.644140">
<ele>288.5</ele>
<speed>5.0</speed>
<course>355.3</course>
<desc>Speed 5.0 km/h Distance 3.68 km</desc>
<time>2010-02-27T10:45:36.42</time>
<name>2621</name>
</trkpt>
<trkpt lat="48.951388" lon="8.644138">
<ele>289.0</ele>
<speed>4.2</speed>
<course>352.3</course>
<desc>Speed 4.2 km/h Distance 3.69 km</desc>
<time>2010-02-27T10:45:37.42</time>
<name>2622</name>
</trkpt>
<trkpt lat="48.951405" lon="8.644135">
<ele>289.0</ele>
<speed>5.7</speed>
<course>341.9</course>
<desc>Speed 5.7 km/h Distance 3.69 km</desc>
<time>2010-02-27T10:45:38.42</time>
<name>2623</name>
</trkpt>
<trkpt lat="48.951418" lon="8.644128">
<ele>289.0</ele>
<speed>5.6</speed>
<course>1.2</course>
<desc>Speed 5.6 km/h Distance 3.69 km</desc>
<time>2010-02-27T10:45:39.42</time>
<name>2624</name>
</trkpt>
<trkpt lat="48.951432" lon="8.644128">
<ele>289.5</ele>
<speed>5.2</speed>
<course>353.0</course>
<desc>Speed 5.2 km/h Distance 3.69 km</desc>
<time>2010-02-27T10:45:40.42</time>
<name>2625</name>
</trkpt>
<trkpt lat="48.951450" lon="8.644125">
<ele>288.0</ele>
<speed>6.5</speed>
<course>332.3</course>
<desc>Speed 6.5 km/h Distance 3.69 km</desc>
<time>2010-02-27T10:45:41.42</time>
<name>2626</name>
</trkpt>
<trkpt lat="48.951467" lon="8.644112">
<ele>287.5</ele>
<speed>7.0</speed>
<course>4.4</course>
<desc>Speed 7.0 km/h Distance 3.69 km</desc>
<time>2010-02-27T10:45:42.42</time>
<name>2627</name>
</trkpt>
<trkpt lat="48.951477" lon="8.644112">
<ele>287.5</ele>
<speed>2.3</speed>
<course>7.4</course>
<desc>Speed 2.3 km/h Distance 3.70 km</desc>
<time>2010-02-27T10:45:43.42</time>
<name>2628</name>
</trkpt>
<trkpt lat="48.951483" lon="8.644113">
<ele>287.0</ele>
<speed>1.2</speed>
<course>0.0</course>
<desc>Speed 1.2 km/h Distance 3.70 km</desc>
<time>2010-02-27T10:45:44.42</time>
<name>2629</name>
</trkpt>
<trkpt lat="48.951493" lon="8.644113">
<ele>287.0</ele>
<speed>3.3</speed>
<course>270.0</course>
<desc>Speed 3.3 km/h Distance 3.70 km</desc>
<time>2010-02-27T10:45:45.42</time>
<name>2630</name>
</trkpt>
<trkpt lat="48.951493" lon="8.644112">
<ele>287.5</ele>
<speed>1.6</speed>
<course>270.0</course>
<desc>Speed 1.6 km/h Distance 3.70 km</desc>
<time>2010-02-27T10:45:46.42</time>
<name>2631</name>
</trkpt>
<trkpt lat="48.951493" lon="8.644108">
<ele>286.5</ele>
<speed>3.5</speed>
<course>331.4</course>
<desc>Speed 3.5 km/h Distance 3.70 km</desc>
<time>2010-02-27T10:45:47.42</time>
<name>2632</name>
</trkpt>
<trkpt lat="48.951503" lon="8.644100">
<ele>286.0</ele>
<speed>4.0</speed>
<course>352.5</course>
<desc>Speed 4.0 km/h Distance 3.70 km</desc>
<time>2010-02-27T10:45:48.42</time>
<name>2633</name>
</trkpt>
<trkpt lat="48.951518" lon="8.644097">
<ele>286.5</ele>
<speed>5.3</speed>
<course>344.0</course>
<desc>Speed 5.3 km/h Distance 3.70 km</desc>
<time>2010-02-27T10:45:49.42</time>
<name>2634</name>
</trkpt>
<trkpt lat="48.951533" lon="8.644090">
<ele>286.5</ele>
<speed>4.3</speed>
<course>340.3</course>
<desc>Speed 4.3 km/h Distance 3.70 km</desc>
<time>2010-02-27T10:45:50.42</time>
<name>2635</name>
</trkpt>
<trkpt lat="48.951552" lon="8.644080">
<ele>287.0</ele>
<speed>6.2</speed>
<course>334.5</course>
<desc>Speed 6.2 km/h Distance 3.70 km</desc>
<time>2010-02-27T10:45:51.42</time>
<name>2636</name>
</trkpt>
<trkpt lat="48.951570" lon="8.644067">
<ele>287.0</ele>
<speed>6.1</speed>
<course>341.9</course>
<desc>Speed 6.1 km/h Distance 3.71 km</desc>
<time>2010-02-27T10:45:52.42</time>
<name>2637</name>
</trkpt>
<trkpt lat="48.951587" lon="8.644058">
<ele>287.0</ele>
<speed>5.9</speed>
<course>347.8</course>
<desc>Speed 5.9 km/h Distance 3.71 km</desc>
<time>2010-02-27T10:45:53.42</time>
<name>2638</name>
</trkpt>
<trkpt lat="48.951602" lon="8.644053">
<ele>287.5</ele>
<speed>5.0</speed>
<course>352.3</course>
<desc>Speed 5.0 km/h Distance 3.71 km</desc>
<time>2010-02-27T10:45:54.42</time>
<name>2639</name>
</trkpt>
<trkpt lat="48.951618" lon="8.644050">
<ele>287.5</ele>
<speed>5.1</speed>
<course>349.8</course>
<desc>Speed 5.1 km/h Distance 3.71 km</desc>
<time>2010-02-27T10:45:55.42</time>
<name>2640</name>
</trkpt>
<trkpt lat="48.951637" lon="8.644045">
<ele>287.5</ele>
<speed>5.7</speed>
<course>354.7</course>
<desc>Speed 5.7 km/h Distance 3.71 km</desc>
<time>2010-02-27T10:45:56.42</time>
<name>2641</name>
</trkpt>
<trkpt lat="48.951650" lon="8.644043">
<ele>287.5</ele>
<speed>4.2</speed>
<course>0.0</course>
<desc>Speed 4.2 km/h Distance 3.72 km</desc>
<time>2010-02-27T10:45:57.42</time>
<name>2642</name>
</trkpt>
<trkpt lat="48.951665" lon="8.644043">
<ele>287.5</ele>
<speed>5.4</speed>
<course>0.0</course>
<desc>Speed 5.4 km/h Distance 3.72 km</desc>
<time>2010-02-27T10:45:58.42</time>
<name>2643</name>
</trkpt>
<trkpt lat="48.951675" lon="8.644043">
<ele>287.5</ele>
<speed>2.4</speed>
<course>341.9</course>
<desc>Speed 2.4 km/h Distance 3.72 km</desc>
<time>2010-02-27T10:45:59.42</time>
<name>2644</name>
</trkpt>
<trkpt lat="48.951692" lon="8.644035">
<ele>286.5</ele>
<speed>4.2</speed>
<course>326.7</course>
<desc>Speed 4.2 km/h Distance 3.72 km</desc>
<time>2010-02-27T10:46:00.42</time>
<name>2645</name>
</trkpt>
<trkpt lat="48.951710" lon="8.644017">
<ele>286.5</ele>
<speed>8.2</speed>
<course>25.2</course>
<desc>Speed 8.2 km/h Distance 3.72 km</desc>
<time>2010-02-27T10:46:01.42</time>
<name>2646</name>
</trkpt>
<trkpt lat="48.951722" lon="8.644025">
<ele>286.0</ele>
<speed>2.6</speed>
<course>351.0</course>
<desc>Speed 2.6 km/h Distance 3.72 km</desc>
<time>2010-02-27T10:46:02.42</time>
<name>2647</name>
</trkpt>
<trkpt lat="48.951735" lon="8.644022">
<ele>284.5</ele>
<speed>4.4</speed>
<course>348.8</course>
<desc>Speed 4.4 km/h Distance 3.73 km</desc>
<time>2010-02-27T10:46:03.42</time>
<name>2648</name>
</trkpt>
<trkpt lat="48.951752" lon="8.644017">
<ele>284.5</ele>
<speed>5.2</speed>
<course>346.0</course>
<desc>Speed 5.2 km/h Distance 3.73 km</desc>
<time>2010-02-27T10:46:04.42</time>
<name>2649</name>
</trkpt>
<trkpt lat="48.951765" lon="8.644012">
<ele>284.0</ele>
<speed>4.3</speed>
<course>347.8</course>
<desc>Speed 4.3 km/h Distance 3.73 km</desc>
<time>2010-02-27T10:46:05.42</time>
<name>2650</name>
</trkpt>
<trkpt lat="48.951780" lon="8.644007">
<ele>284.0</ele>
<speed>5.2</speed>
<course>347.9</course>
<desc>Speed 5.2 km/h Distance 3.73 km</desc>
<time>2010-02-27T10:46:06.42</time>
<name>2651</name>
</trkpt>
<trkpt lat="48.951800" lon="8.644000">
<ele>283.0</ele>
<speed>5.5</speed>
<course>334.0</course>
<desc>Speed 5.5 km/h Distance 3.73 km</desc>
<time>2010-02-27T10:46:07.42</time>
<name>2652</name>
</trkpt>
<trkpt lat="48.951813" lon="8.643990">
<ele>282.0</ele>
<speed>3.7</speed>
<course>339.4</course>
<desc>Speed 3.7 km/h Distance 3.73 km</desc>
<time>2010-02-27T10:46:08.42</time>
<name>2653</name>
</trkpt>
<trkpt lat="48.951837" lon="8.643977">
<ele>279.5</ele>
<speed>5.1</speed>
<course>341.9</course>
<desc>Speed 5.1 km/h Distance 3.74 km</desc>
<time>2010-02-27T10:46:09.42</time>
<name>2654</name>
</trkpt>
<trkpt lat="48.951850" lon="8.643970">
<ele>279.0</ele>
<speed>4.9</speed>
<course>345.1</course>
<desc>Speed 4.9 km/h Distance 3.74 km</desc>
<time>2010-02-27T10:46:10.42</time>
<name>2655</name>
</trkpt>
<trkpt lat="48.951862" lon="8.643965">
<ele>279.0</ele>
<speed>4.2</speed>
<course>348.8</course>
<desc>Speed 4.2 km/h Distance 3.74 km</desc>
<time>2010-02-27T10:46:11.42</time>
<name>2656</name>
</trkpt>
<trkpt lat="48.951873" lon="8.643962">
<ele>278.5</ele>
<speed>3.6</speed>
<course>344.0</course>
<desc>Speed 3.6 km/h Distance 3.74 km</desc>
<time>2010-02-27T10:46:12.42</time>
<name>2657</name>
</trkpt>
<trkpt lat="48.951885" lon="8.643957">
<ele>278.5</ele>
<speed>3.7</speed>
<course>337.9</course>
<desc>Speed 3.7 km/h Distance 3.74 km</desc>
<time>2010-02-27T10:46:13.42</time>
<name>2658</name>
</trkpt>
<trkpt lat="48.951898" lon="8.643948">
<ele>278.5</ele>
<speed>4.8</speed>
<course>344.5</course>
<desc>Speed 4.8 km/h Distance 3.74 km</desc>
<time>2010-02-27T10:46:14.42</time>
<name>2659</name>
</trkpt>
<trkpt lat="48.951910" lon="8.643943">
<ele>278.0</ele>
<speed>5.0</speed>
<course>346.5</course>
<desc>Speed 5.0 km/h Distance 3.75 km</desc>
<time>2010-02-27T10:46:15.42</time>
<name>2660</name>
</trkpt>
<trkpt lat="48.951923" lon="8.643938">
<ele>278.0</ele>
<speed>5.7</speed>
<course>335.1</course>
<desc>Speed 5.7 km/h Distance 3.75 km</desc>
<time>2010-02-27T10:46:16.42</time>
<name>2661</name>
</trkpt>
<trkpt lat="48.951935" lon="8.643930">
<ele>277.5</ele>
<speed>5.1</speed>
<course>339.4</course>
<desc>Speed 5.1 km/h Distance 3.75 km</desc>
<time>2010-02-27T10:46:17.42</time>
<name>2662</name>
</trkpt>
<trkpt lat="48.951947" lon="8.643923">
<ele>277.5</ele>
<speed>5.1</speed>
<course>344.0</course>
<desc>Speed 5.1 km/h Distance 3.75 km</desc>
<time>2010-02-27T10:46:18.42</time>
<name>2663</name>
</trkpt>
<trkpt lat="48.951958" lon="8.643918">
<ele>277.5</ele>
<speed>4.5</speed>
<course>4.4</course>
<desc>Speed 4.5 km/h Distance 3.75 km</desc>
<time>2010-02-27T10:46:19.42</time>
<name>2664</name>
</trkpt>
<trkpt lat="48.951968" lon="8.643918">
<ele>277.0</ele>
<speed>3.6</speed>
<course>326.3</course>
<desc>Speed 3.6 km/h Distance 3.75 km</desc>
<time>2010-02-27T10:46:20.42</time>
<name>2665</name>
</trkpt>
<trkpt lat="48.951972" lon="8.643915">
<ele>277.0</ele>
<speed>1.8</speed>
<course>321.9</course>
<desc>Speed 1.8 km/h Distance 3.75 km</desc>
<time>2010-02-27T10:46:21.42</time>
<name>2666</name>
</trkpt>
<trkpt lat="48.951980" lon="8.643905">
<ele>277.0</ele>
<speed>4.4</speed>
<course>334.8</course>
<desc>Speed 4.4 km/h Distance 3.75 km</desc>
<time>2010-02-27T10:46:22.42</time>
<name>2667</name>
</trkpt>
<trkpt lat="48.951992" lon="8.643897">
<ele>277.0</ele>
<speed>4.1</speed>
<course>323.1</course>
<desc>Speed 4.1 km/h Distance 3.76 km</desc>
<time>2010-02-27T10:46:23.42</time>
<name>2668</name>
</trkpt>
<trkpt lat="48.952003" lon="8.643883">
<ele>276.0</ele>
<speed>4.6</speed>
<course>319.8</course>
<desc>Speed 4.6 km/h Distance 3.76 km</desc>
<time>2010-02-27T10:46:24.42</time>
<name>2669</name>
</trkpt>
<trkpt lat="48.952015" lon="8.643868">
<ele>276.0</ele>
<speed>4.5</speed>
<course>337.3</course>
<desc>Speed 4.5 km/h Distance 3.76 km</desc>
<time>2010-02-27T10:46:25.42</time>
<name>2670</name>
</trkpt>
<trkpt lat="48.952033" lon="8.643857">
<ele>275.5</ele>
<speed>5.6</speed>
<course>315.5</course>
<desc>Speed 5.6 km/h Distance 3.76 km</desc>
<time>2010-02-27T10:46:26.42</time>
<name>2671</name>
</trkpt>
<trkpt lat="48.952047" lon="8.643837">
<ele>275.5</ele>
<speed>4.5</speed>
<course>312.4</course>
<desc>Speed 4.5 km/h Distance 3.76 km</desc>
<time>2010-02-27T10:46:27.42</time>
<name>2672</name>
</trkpt>
<trkpt lat="48.952057" lon="8.643820">
<ele>274.5</ele>
<speed>3.7</speed>
<course>270.0</course>
<desc>Speed 3.7 km/h Distance 3.77 km</desc>
<time>2010-02-27T10:46:28.42</time>
<name>2673</name>
</trkpt>
<trkpt lat="48.952057" lon="8.643805">
<ele>274.5</ele>
<speed>2.2</speed>
<course>341.9</course>
<desc>Speed 2.2 km/h Distance 3.77 km</desc>
<time>2010-02-27T10:46:29.42</time>
<name>2674</name>
</trkpt>
<trkpt lat="48.952073" lon="8.643797">
<ele>274.5</ele>
<speed>5.9</speed>
<course>326.8</course>
<desc>Speed 5.9 km/h Distance 3.77 km</desc>
<time>2010-02-27T10:46:30.42</time>
<name>2675</name>
</trkpt>
<trkpt lat="48.952083" lon="8.643787">
<ele>274.0</ele>
<speed>3.4</speed>
<course>314.4</course>
<desc>Speed 3.4 km/h Distance 3.77 km</desc>
<time>2010-02-27T10:46:31.42</time>
<name>2676</name>
</trkpt>
<trkpt lat="48.952098" lon="8.643763">
<ele>273.5</ele>
<speed>4.7</speed>
<course>261.3</course>
<desc>Speed 4.7 km/h Distance 3.77 km</desc>
<time>2010-02-27T10:46:32.42</time>
<name>2677</name>
</trkpt>
<trkpt lat="48.952097" lon="8.643747">
<ele>274.0</ele>
<speed>3.3</speed>
<course>312.4</course>
<desc>Speed 3.3 km/h Distance 3.77 km</desc>
<time>2010-02-27T10:46:33.42</time>
<name>2678</name>
</trkpt>
<trkpt lat="48.952107" lon="8.643730">
<ele>274.5</ele>
<speed>4.2</speed>
<course>307.3</course>
<desc>Speed 4.2 km/h Distance 3.77 km</desc>
<time>2010-02-27T10:46:34.42</time>
<name>2679</name>
</trkpt>
<trkpt lat="48.952115" lon="8.643713">
<ele>274.0</ele>
<speed>5.0</speed>
<course>319.8</course>
<desc>Speed 5.0 km/h Distance 3.78 km</desc>
<time>2010-02-27T10:46:35.42</time>
<name>2680</name>
</trkpt>
<trkpt lat="48.952127" lon="8.643698">
<ele>274.0</ele>
<speed>5.3</speed>
<course>318.8</course>
<desc>Speed 5.3 km/h Distance 3.78 km</desc>
<time>2010-02-27T10:46:36.42</time>
<name>2681</name>
</trkpt>
<trkpt lat="48.952137" lon="8.643685">
<ele>274.0</ele>
<speed>4.4</speed>
<course>308.9</course>
<desc>Speed 4.4 km/h Distance 3.78 km</desc>
<time>2010-02-27T10:46:37.42</time>
<name>2682</name>
</trkpt>
<trkpt lat="48.952152" lon="8.643657">
<ele>273.5</ele>
<speed>5.5</speed>
<course>299.7</course>
<desc>Speed 5.5 km/h Distance 3.78 km</desc>
<time>2010-02-27T10:46:38.42</time>
<name>2683</name>
</trkpt>
<trkpt lat="48.952162" lon="8.643630">
<ele>273.5</ele>
<speed>4.4</speed>
<course>310.9</course>
<desc>Speed 4.4 km/h Distance 3.78 km</desc>
<time>2010-02-27T10:46:39.42</time>
<name>2684</name>
</trkpt>
<trkpt lat="48.952168" lon="8.643618">
<ele>273.0</ele>
<speed>3.2</speed>
<course>310.3</course>
<desc>Speed 3.2 km/h Distance 3.79 km</desc>
<time>2010-02-27T10:46:40.42</time>
<name>2685</name>
</trkpt>
<trkpt lat="48.952177" lon="8.643603">
<ele>273.0</ele>
<speed>5.0</speed>
<course>307.0</course>
<desc>Speed 5.0 km/h Distance 3.79 km</desc>
<time>2010-02-27T10:46:41.42</time>
<name>2686</name>
</trkpt>
<trkpt lat="48.952180" lon="8.643597">
<ele>272.5</ele>
<speed>1.8</speed>
<course>315.5</course>
<desc>Speed 1.8 km/h Distance 3.79 km</desc>
<time>2010-02-27T10:46:42.42</time>
<name>2687</name>
</trkpt>
<trkpt lat="48.952187" lon="8.643587">
<ele>273.0</ele>
<speed>4.0</speed>
<course>318.8</course>
<desc>Speed 4.0 km/h Distance 3.79 km</desc>
<time>2010-02-27T10:46:43.42</time>
<name>2688</name>
</trkpt>
<trkpt lat="48.952197" lon="8.643573">
<ele>272.5</ele>
<speed>4.5</speed>
<course>318.8</course>
<desc>Speed 4.5 km/h Distance 3.79 km</desc>
<time>2010-02-27T10:46:44.42</time>
<name>2689</name>
</trkpt>
<trkpt lat="48.952207" lon="8.643560">
<ele>272.5</ele>
<speed>4.4</speed>
<course>322.5</course>
<desc>Speed 4.4 km/h Distance 3.79 km</desc>
<time>2010-02-27T10:46:45.42</time>
<name>2690</name>
</trkpt>
<trkpt lat="48.952217" lon="8.643548">
<ele>272.5</ele>
<speed>3.4</speed>
<course>288.7</course>
<desc>Speed 3.4 km/h Distance 3.79 km</desc>
<time>2010-02-27T10:46:46.42</time>
<name>2691</name>
</trkpt>
<trkpt lat="48.952220" lon="8.643533">
<ele>272.5</ele>
<speed>3.2</speed>
<course>327.4</course>
<desc>Speed 3.2 km/h Distance 3.79 km</desc>
<time>2010-02-27T10:46:47.42</time>
<name>2692</name>
</trkpt>
<trkpt lat="48.952227" lon="8.643527">
<ele>272.0</ele>
<speed>2.4</speed>
<course>324.2</course>
<desc>Speed 2.4 km/h Distance 3.80 km</desc>
<time>2010-02-27T10:46:48.42</time>
<name>2693</name>
</trkpt>
<trkpt lat="48.952243" lon="8.643508">
<ele>272.0</ele>
<speed>4.3</speed>
<course>321.2</course>
<desc>Speed 4.3 km/h Distance 3.80 km</desc>
<time>2010-02-27T10:46:49.42</time>
<name>2694</name>
</trkpt>
<trkpt lat="48.952258" lon="8.643490">
<ele>272.0</ele>
<speed>3.2</speed>
<course>333.2</course>
<desc>Speed 3.2 km/h Distance 3.80 km</desc>
<time>2010-02-27T10:46:50.42</time>
<name>2695</name>
</trkpt>
<trkpt lat="48.952280" lon="8.643473">
<ele>272.0</ele>
<speed>4.7</speed>
<course>326.7</course>
<desc>Speed 4.7 km/h Distance 3.80 km</desc>
<time>2010-02-27T10:46:51.42</time>
<name>2696</name>
</trkpt>
<trkpt lat="48.952302" lon="8.643452">
<ele>272.0</ele>
<speed>5.4</speed>
<course>330.2</course>
<desc>Speed 5.4 km/h Distance 3.81 km</desc>
<time>2010-02-27T10:46:52.42</time>
<name>2697</name>
</trkpt>
<trkpt lat="48.952315" lon="8.643440">
<ele>272.0</ele>
<speed>5.3</speed>
<course>345.7</course>
<desc>Speed 5.3 km/h Distance 3.81 km</desc>
<time>2010-02-27T10:46:53.42</time>
<name>2698</name>
</trkpt>
<trkpt lat="48.952332" lon="8.643433">
<ele>272.0</ele>
<speed>5.2</speed>
<course>346.2</course>
<desc>Speed 5.2 km/h Distance 3.81 km</desc>
<time>2010-02-27T10:46:54.42</time>
<name>2699</name>
</trkpt>
<trkpt lat="48.952340" lon="8.643430">
<ele>271.5</ele>
<speed>3.0</speed>
<course>325.9</course>
<desc>Speed 3.0 km/h Distance 3.81 km</desc>
<time>2010-02-27T10:46:55.42</time>
<name>2700</name>
</trkpt>
<trkpt lat="48.952345" lon="8.643425">
<ele>271.5</ele>
<speed>2.1</speed>
<course>307.0</course>
<desc>Speed 2.1 km/h Distance 3.81 km</desc>
<time>2010-02-27T10:46:56.42</time>
<name>2701</name>
</trkpt>
<trkpt lat="48.952348" lon="8.643418">
<ele>270.0</ele>
<speed>2.3</speed>
<course>22.2</course>
<desc>Speed 2.3 km/h Distance 3.81 km</desc>
<time>2010-02-27T10:46:57.42</time>
<name>2702</name>
</trkpt>
<trkpt lat="48.952353" lon="8.643422">
<ele>271.0</ele>
<speed>2.2</speed>
<course>12.6</course>
<desc>Speed 2.2 km/h Distance 3.81 km</desc>
<time>2010-02-27T10:46:58.42</time>
<name>2703</name>
</trkpt>
<trkpt lat="48.952355" lon="8.643422">
<ele>270.5</ele>
<speed>1.0</speed>
<course>333.6</course>
<desc>Speed 1.0 km/h Distance 3.81 km</desc>
<time>2010-02-27T10:46:59.42</time>
<name>2704</name>
</trkpt>
<trkpt lat="48.952362" lon="8.643417">
<ele>270.5</ele>
<speed>1.6</speed>
<course>345.1</course>
<desc>Speed 1.6 km/h Distance 3.81 km</desc>
<time>2010-02-27T10:47:00.42</time>
<name>2705</name>
</trkpt>
<trkpt lat="48.952370" lon="8.643413">
<ele>270.5</ele>
<speed>3.5</speed>
<course>4.7</course>
<desc>Speed 3.5 km/h Distance 3.81 km</desc>
<time>2010-02-27T10:47:01.42</time>
<name>2706</name>
</trkpt>
<trkpt lat="48.952382" lon="8.643415">
<ele>271.0</ele>
<speed>4.0</speed>
<course>3.8</course>
<desc>Speed 4.0 km/h Distance 3.81 km</desc>
<time>2010-02-27T10:47:02.42</time>
<name>2707</name>
</trkpt>
<trkpt lat="48.952397" lon="8.643417">
<ele>271.5</ele>
<speed>5.6</speed>
<course>23.8</course>
<desc>Speed 5.6 km/h Distance 3.82 km</desc>
<time>2010-02-27T10:47:03.42</time>
<name>2708</name>
</trkpt>
<trkpt lat="48.952407" lon="8.643423">
<ele>271.5</ele>
<speed>4.4</speed>
<course>345.1</course>
<desc>Speed 4.4 km/h Distance 3.82 km</desc>
<time>2010-02-27T10:47:04.42</time>
<name>2709</name>
</trkpt>
<trkpt lat="48.952423" lon="8.643417">
<ele>271.0</ele>
<speed>5.3</speed>
<course>4.4</course>
<desc>Speed 5.3 km/h Distance 3.82 km</desc>
<time>2010-02-27T10:47:05.42</time>
<name>2710</name>
</trkpt>
<trkpt lat="48.952433" lon="8.643417">
<ele>270.0</ele>
<speed>2.8</speed>
<course>17.5</course>
<desc>Speed 2.8 km/h Distance 3.82 km</desc>
<time>2010-02-27T10:47:06.42</time>
<name>2711</name>
</trkpt>
<trkpt lat="48.952440" lon="8.643420">
<ele>270.0</ele>
<speed>1.5</speed>
<course>308.1</course>
<desc>Speed 1.5 km/h Distance 3.82 km</desc>
<time>2010-02-27T10:47:07.42</time>
<name>2712</name>
</trkpt>
<trkpt lat="48.952442" lon="8.643417">
<ele>269.0</ele>
<speed>0.7</speed>
<course>318.1</course>
<desc>Speed 0.7 km/h Distance 3.82 km</desc>
<time>2010-02-27T10:47:08.42</time>
<name>2713</name>
</trkpt>
<trkpt lat="48.952447" lon="8.643410">
<ele>268.5</ele>
<speed>2.6</speed>
<course>301.3</course>
<desc>Speed 2.6 km/h Distance 3.82 km</desc>
<time>2010-02-27T10:47:09.42</time>
<name>2714</name>
</trkpt>
<trkpt lat="48.952453" lon="8.643393">
<ele>266.5</ele>
<speed>2.8</speed>
<course>341.9</course>
<desc>Speed 2.8 km/h Distance 3.82 km</desc>
<time>2010-02-27T10:47:10.42</time>
<name>2715</name>
</trkpt>
<trkpt lat="48.952470" lon="8.643385">
<ele>267.0</ele>
<speed>4.4</speed>
<course>343.2</course>
<desc>Speed 4.4 km/h Distance 3.83 km</desc>
<time>2010-02-27T10:47:11.42</time>
<name>2716</name>
</trkpt>
<trkpt lat="48.952488" lon="8.643377">
<ele>266.5</ele>
<speed>4.5</speed>
<course>337.9</course>
<desc>Speed 4.5 km/h Distance 3.83 km</desc>
<time>2010-02-27T10:47:12.42</time>
<name>2717</name>
</trkpt>
<trkpt lat="48.952510" lon="8.643363">
<ele>266.0</ele>
<speed>5.2</speed>
<course>326.7</course>
<desc>Speed 5.2 km/h Distance 3.83 km</desc>
<time>2010-02-27T10:47:13.42</time>
<name>2718</name>
</trkpt>
<trkpt lat="48.952523" lon="8.643350">
<ele>265.0</ele>
<speed>4.4</speed>
<course>334.8</course>
<desc>Speed 4.4 km/h Distance 3.83 km</desc>
<time>2010-02-27T10:47:14.42</time>
<name>2719</name>
</trkpt>
<trkpt lat="48.952535" lon="8.643342">
<ele>265.5</ele>
<speed>4.2</speed>
<course>331.1</course>
<desc>Speed 4.2 km/h Distance 3.83 km</desc>
<time>2010-02-27T10:47:15.42</time>
<name>2720</name>
</trkpt>
<trkpt lat="48.952545" lon="8.643333">
<ele>265.0</ele>
<speed>3.5</speed>
<course>303.1</course>
<desc>Speed 3.5 km/h Distance 3.84 km</desc>
<time>2010-02-27T10:47:16.42</time>
<name>2721</name>
</trkpt>
<trkpt lat="48.952550" lon="8.643322">
<ele>264.5</ele>
<speed>2.8</speed>
<course>318.1</course>
<desc>Speed 2.8 km/h Distance 3.84 km</desc>
<time>2010-02-27T10:47:17.42</time>
<name>2722</name>
</trkpt>
<trkpt lat="48.952555" lon="8.643315">
<ele>264.0</ele>
<speed>1.4</speed>
<course>329.3</course>
<desc>Speed 1.4 km/h Distance 3.84 km</desc>
<time>2010-02-27T10:47:18.42</time>
<name>2723</name>
</trkpt>
<trkpt lat="48.952572" lon="8.643300">
<ele>263.5</ele>
<speed>7.0</speed>
<course>340.7</course>
<desc>Speed 7.0 km/h Distance 3.84 km</desc>
<time>2010-02-27T10:47:19.42</time>
<name>2724</name>
</trkpt>
<trkpt lat="48.952597" lon="8.643287">
<ele>262.5</ele>
<speed>9.0</speed>
<course>339.7</course>
<desc>Speed 9.0 km/h Distance 3.84 km</desc>
<time>2010-02-27T10:47:20.42</time>
<name>2725</name>
</trkpt>
<trkpt lat="48.952623" lon="8.643272">
<ele>262.0</ele>
<speed>5.4</speed>
<course>351.5</course>
<desc>Speed 5.4 km/h Distance 3.85 km</desc>
<time>2010-02-27T10:47:21.42</time>
<name>2726</name>
</trkpt>
<trkpt lat="48.952653" lon="8.643265">
<ele>263.5</ele>
<speed>6.7</speed>
<course>347.4</course>
<desc>Speed 6.7 km/h Distance 3.85 km</desc>
<time>2010-02-27T10:47:22.42</time>
<name>2727</name>
</trkpt>
<trkpt lat="48.952668" lon="8.643260">
<ele>262.5</ele>
<speed>4.5</speed>
<course>339.9</course>
<desc>Speed 4.5 km/h Distance 3.85 km</desc>
<time>2010-02-27T10:47:23.42</time>
<name>2728</name>
</trkpt>
<trkpt lat="48.952683" lon="8.643252">
<ele>261.5</ele>
<speed>5.2</speed>
<course>326.7</course>
<desc>Speed 5.2 km/h Distance 3.85 km</desc>
<time>2010-02-27T10:47:24.42</time>
<name>2729</name>
</trkpt>
<trkpt lat="48.952698" lon="8.643237">
<ele>260.0</ele>
<speed>4.9</speed>
<course>351.0</course>
<desc>Speed 4.9 km/h Distance 3.85 km</desc>
<time>2010-02-27T10:47:25.42</time>
<name>2730</name>
</trkpt>
<trkpt lat="48.952712" lon="8.643233">
<ele>259.5</ele>
<speed>4.8</speed>
<course>349.2</course>
<desc>Speed 4.8 km/h Distance 3.86 km</desc>
<time>2010-02-27T10:47:26.42</time>
<name>2731</name>
</trkpt>
<trkpt lat="48.952728" lon="8.643228">
<ele>259.0</ele>
<speed>5.1</speed>
<course>339.9</course>
<desc>Speed 5.1 km/h Distance 3.86 km</desc>
<time>2010-02-27T10:47:27.42</time>
<name>2732</name>
</trkpt>
<trkpt lat="48.952743" lon="8.643220">
<ele>258.5</ele>
<speed>5.2</speed>
<course>348.8</course>
<desc>Speed 5.2 km/h Distance 3.86 km</desc>
<time>2010-02-27T10:47:28.42</time>
<name>2733</name>
</trkpt>
<trkpt lat="48.952760" lon="8.643215">
<ele>258.0</ele>
<speed>5.6</speed>
<course>346.5</course>
<desc>Speed 5.6 km/h Distance 3.86 km</desc>
<time>2010-02-27T10:47:29.42</time>
<name>2734</name>
</trkpt>
<trkpt lat="48.952773" lon="8.643210">
<ele>258.0</ele>
<speed>5.3</speed>
<course>339.9</course>
<desc>Speed 5.3 km/h Distance 3.86 km</desc>
<time>2010-02-27T10:47:30.42</time>
<name>2735</name>
</trkpt>
<trkpt lat="48.952788" lon="8.643202">
<ele>257.5</ele>
<speed>5.3</speed>
<course>348.3</course>
<desc>Speed 5.3 km/h Distance 3.86 km</desc>
<time>2010-02-27T10:47:31.42</time>
<name>2736</name>
</trkpt>
<trkpt lat="48.952803" lon="8.643197">
<ele>258.0</ele>
<speed>5.4</speed>
<course>352.9</course>
<desc>Speed 5.4 km/h Distance 3.87 km</desc>
<time>2010-02-27T10:47:32.42</time>
<name>2737</name>
</trkpt>
<trkpt lat="48.952820" lon="8.643193">
<ele>259.0</ele>
<speed>5.7</speed>
<course>334.5</course>
<desc>Speed 5.7 km/h Distance 3.87 km</desc>
<time>2010-02-27T10:47:33.42</time>
<name>2738</name>
</trkpt>
<trkpt lat="48.952838" lon="8.643180">
<ele>258.0</ele>
<speed>5.0</speed>
<course>345.1</course>
<desc>Speed 5.0 km/h Distance 3.87 km</desc>
<time>2010-02-27T10:47:34.42</time>
<name>2739</name>
</trkpt>
<trkpt lat="48.952855" lon="8.643173">
<ele>258.0</ele>
<speed>5.6</speed>
<course>343.4</course>
<desc>Speed 5.6 km/h Distance 3.87 km</desc>
<time>2010-02-27T10:47:35.42</time>
<name>2740</name>
</trkpt>
<trkpt lat="48.952873" lon="8.643165">
<ele>258.0</ele>
<speed>5.7</speed>
<course>348.6</course>
<desc>Speed 5.7 km/h Distance 3.87 km</desc>
<time>2010-02-27T10:47:36.42</time>
<name>2741</name>
</trkpt>
<trkpt lat="48.952895" lon="8.643158">
<ele>258.5</ele>
<speed>5.6</speed>
<course>348.6</course>
<desc>Speed 5.6 km/h Distance 3.88 km</desc>
<time>2010-02-27T10:47:37.42</time>
<name>2742</name>
</trkpt>
<trkpt lat="48.952917" lon="8.643152">
<ele>259.0</ele>
<speed>5.5</speed>
<course>346.4</course>
<desc>Speed 5.5 km/h Distance 3.88 km</desc>
<time>2010-02-27T10:47:38.42</time>
<name>2743</name>
</trkpt>
<trkpt lat="48.952935" lon="8.643145">
<ele>259.5</ele>
<speed>5.5</speed>
<course>351.9</course>
<desc>Speed 5.5 km/h Distance 3.88 km</desc>
<time>2010-02-27T10:47:39.42</time>
<name>2744</name>
</trkpt>
<trkpt lat="48.952950" lon="8.643142">
<ele>259.5</ele>
<speed>5.4</speed>
<course>0.0</course>
<desc>Speed 5.4 km/h Distance 3.88 km</desc>
<time>2010-02-27T10:47:40.42</time>
<name>2745</name>
</trkpt>
<trkpt lat="48.952965" lon="8.643142">
<ele>259.5</ele>
<speed>5.4</speed>
<course>357.5</course>
<desc>Speed 5.4 km/h Distance 3.88 km</desc>
<time>2010-02-27T10:47:41.42</time>
<name>2746</name>
</trkpt>
<trkpt lat="48.952983" lon="8.643140">
<ele>260.5</ele>
<speed>6.0</speed>
<course>357.5</course>
<desc>Speed 6.0 km/h Distance 3.89 km</desc>
<time>2010-02-27T10:47:42.42</time>
<name>2747</name>
</trkpt>
<trkpt lat="48.953002" lon="8.643138">
<ele>260.5</ele>
<speed>5.8</speed>
<course>13.5</course>
<desc>Speed 5.8 km/h Distance 3.89 km</desc>
<time>2010-02-27T10:47:43.42</time>
<name>2748</name>
</trkpt>
<trkpt lat="48.953015" lon="8.643143">
<ele>261.5</ele>
<speed>5.3</speed>
<course>355.6</course>
<desc>Speed 5.3 km/h Distance 3.89 km</desc>
<time>2010-02-27T10:47:44.42</time>
<name>2749</name>
</trkpt>
<trkpt lat="48.953045" lon="8.643140">
<ele>262.5</ele>
<speed>5.6</speed>
<course>2.8</course>
<desc>Speed 5.6 km/h Distance 3.89 km</desc>
<time>2010-02-27T10:47:46.96</time>
<name>2750</name>
</trkpt>
<trkpt lat="48.953073" lon="8.643142">
<ele>262.0</ele>
<speed>5.6</speed>
<course>8.8</course>
<desc>Speed 5.6 km/h Distance 3.90 km</desc>
<time>2010-02-27T10:47:48.96</time>
<name>2751</name>
</trkpt>
<trkpt lat="48.953088" lon="8.643145">
<ele>262.0</ele>
<speed>5.5</speed>
<course>12.6</course>
<desc>Speed 5.5 km/h Distance 3.90 km</desc>
<time>2010-02-27T10:47:50.45</time>
<name>2752</name>
</trkpt>
<trkpt lat="48.953103" lon="8.643150">
<ele>261.5</ele>
<speed>4.9</speed>
<course>15.7</course>
<desc>Speed 4.9 km/h Distance 3.90 km</desc>
<time>2010-02-27T10:47:51.45</time>
<name>2753</name>
</trkpt>
<trkpt lat="48.953127" lon="8.643160">
<ele>260.0</ele>
<speed>4.3</speed>
<course>44.6</course>
<desc>Speed 4.3 km/h Distance 3.90 km</desc>
<time>2010-02-27T10:47:52.95</time>
<name>2754</name>
</trkpt>
<trkpt lat="48.953143" lon="8.643185">
<ele>260.5</ele>
<speed>3.7</speed>
<course>90.0</course>
<desc>Speed 3.7 km/h Distance 3.91 km</desc>
<time>2010-02-27T10:47:54.94</time>
<name>2755</name>
</trkpt>
<trkpt lat="48.953143" lon="8.643200">
<ele>260.0</ele>
<speed>4.5</speed>
<course>106.9</course>
<desc>Speed 4.5 km/h Distance 3.91 km</desc>
<time>2010-02-27T10:47:55.95</time>
<name>2756</name>
</trkpt>
<trkpt lat="48.953140" lon="8.643217">
<ele>259.5</ele>
<speed>4.8</speed>
<course>63.1</course>
<desc>Speed 4.8 km/h Distance 3.91 km</desc>
<time>2010-02-27T10:47:57.45</time>
<name>2757</name>
</trkpt>
<trkpt lat="48.953145" lon="8.643232">
<ele>260.0</ele>
<speed>4.0</speed>
<course>77.7</course>
<desc>Speed 4.0 km/h Distance 3.91 km</desc>
<time>2010-02-27T10:47:58.45</time>
<name>2758</name>
</trkpt>
<trkpt lat="48.953147" lon="8.643243">
<ele>260.0</ele>
<speed>1.1</speed>
<course>77.7</course>
<desc>Speed 1.1 km/h Distance 3.91 km</desc>
<time>2010-02-27T10:47:59.95</time>
<name>2759</name>
</trkpt>
<trkpt lat="48.953147" lon="8.643243">
<ele>260.0</ele>
<speed>1.1</speed>
<course>90.0</course>
<desc>Speed 1.1 km/h Distance 3.91 km</desc>
<time>2010-02-27T10:48:00.45</time>
<name>2760</name>
</trkpt>
<trkpt lat="48.953147" lon="8.643245">
<ele>259.5</ele>
<speed>0.9</speed>
<course>349.7</course>
<desc>Speed 0.9 km/h Distance 3.91 km</desc>
<time>2010-02-27T10:48:01.45</time>
<name>2761</name>
</trkpt>
<trkpt lat="48.953153" lon="8.643243">
<ele>259.0</ele>
<speed>1.4</speed>
<course>26.4</course>
<desc>Speed 1.4 km/h Distance 3.91 km</desc>
<time>2010-02-27T10:48:02.94</time>
<name>2762</name>
</trkpt>
<trkpt lat="48.953160" lon="8.643248">
<ele>259.0</ele>
<speed>2.7</speed>
<course>6.3</course>
<desc>Speed 2.7 km/h Distance 3.91 km</desc>
<time>2010-02-27T10:48:03.94</time>
<name>2763</name>
</trkpt>
<trkpt lat="48.953172" lon="8.643250">
<ele>258.5</ele>
<speed>3.9</speed>
<course>14.0</course>
<desc>Speed 3.9 km/h Distance 3.91 km</desc>
<time>2010-02-27T10:48:04.94</time>
<name>2764</name>
</trkpt>
<trkpt lat="48.953185" lon="8.643255">
<ele>258.5</ele>
<speed>5.2</speed>
<course>18.4</course>
<desc>Speed 5.2 km/h Distance 3.91 km</desc>
<time>2010-02-27T10:48:05.95</time>
<name>2765</name>
</trkpt>
<trkpt lat="48.953198" lon="8.643262">
<ele>258.5</ele>
<speed>5.2</speed>
<course>14.0</course>
<desc>Speed 5.2 km/h Distance 3.92 km</desc>
<time>2010-02-27T10:48:06.95</time>
<name>2766</name>
</trkpt>
<trkpt lat="48.953212" lon="8.643267">
<ele>258.5</ele>
<speed>5.5</speed>
<course>0.0</course>
<desc>Speed 5.5 km/h Distance 3.92 km</desc>
<time>2010-02-27T10:48:07.95</time>
<name>2767</name>
</trkpt>
<trkpt lat="48.953245" lon="8.643267">
<ele>259.0</ele>
<speed>5.4</speed>
<course>352.5</course>
<desc>Speed 5.4 km/h Distance 3.92 km</desc>
<time>2010-02-27T10:48:09.94</time>
<name>2768</name>
</trkpt>
<trkpt lat="48.953260" lon="8.643263">
<ele>258.5</ele>
<speed>5.2</speed>
<course>0.0</course>
<desc>Speed 5.2 km/h Distance 3.92 km</desc>
<time>2010-02-27T10:48:10.95</time>
<name>2769</name>
</trkpt>
<trkpt lat="48.953275" lon="8.643263">
<ele>258.5</ele>
<speed>5.7</speed>
<course>15.1</course>
<desc>Speed 5.7 km/h Distance 3.92 km</desc>
<time>2010-02-27T10:48:12.45</time>
<name>2770</name>
</trkpt>
<trkpt lat="48.953303" lon="8.643275">
<ele>259.0</ele>
<speed>5.1</speed>
<course>19.9</course>
<desc>Speed 5.1 km/h Distance 3.93 km</desc>
<time>2010-02-27T10:48:13.95</time>
<name>2771</name>
</trkpt>
<trkpt lat="48.953318" lon="8.643283">
<ele>260.0</ele>
<speed>4.7</speed>
<course>9.0</course>
<desc>Speed 4.7 km/h Distance 3.93 km</desc>
<time>2010-02-27T10:48:14.94</time>
<name>2772</name>
</trkpt>
<trkpt lat="48.953332" lon="8.643287">
<ele>260.0</ele>
<speed>5.0</speed>
<course>13.5</course>
<desc>Speed 5.0 km/h Distance 3.93 km</desc>
<time>2010-02-27T10:48:15.94</time>
<name>2773</name>
</trkpt>
<trkpt lat="48.953345" lon="8.643292">
<ele>260.0</ele>
<speed>5.6</speed>
<course>13.5</course>
<desc>Speed 5.6 km/h Distance 3.93 km</desc>
<time>2010-02-27T10:48:16.93</time>
<name>2774</name>
</trkpt>
<trkpt lat="48.953358" lon="8.643297">
<ele>259.5</ele>
<speed>5.0</speed>
<course>7.5</course>
<desc>Speed 5.0 km/h Distance 3.93 km</desc>
<time>2010-02-27T10:48:17.94</time>
<name>2775</name>
</trkpt>
<trkpt lat="48.953373" lon="8.643300">
<ele>259.5</ele>
<speed>5.8</speed>
<course>33.2</course>
<desc>Speed 5.8 km/h Distance 3.94 km</desc>
<time>2010-02-27T10:48:18.94</time>
<name>2776</name>
</trkpt>
<trkpt lat="48.953383" lon="8.643310">
<ele>259.0</ele>
<speed>5.0</speed>
<course>29.4</course>
<desc>Speed 5.0 km/h Distance 3.94 km</desc>
<time>2010-02-27T10:48:19.94</time>
<name>2777</name>
</trkpt>
<trkpt lat="48.953395" lon="8.643320">
<ele>258.5</ele>
<speed>5.2</speed>
<course>33.2</course>
<desc>Speed 5.2 km/h Distance 3.94 km</desc>
<time>2010-02-27T10:48:20.94</time>
<name>2778</name>
</trkpt>
<trkpt lat="48.953405" lon="8.643330">
<ele>258.0</ele>
<speed>5.1</speed>
<course>21.1</course>
<desc>Speed 5.1 km/h Distance 3.94 km</desc>
<time>2010-02-27T10:48:21.98</time>
<name>2779</name>
</trkpt>
<trkpt lat="48.953433" lon="8.643347">
<ele>258.0</ele>
<speed>5.7</speed>
<course>25.2</course>
<desc>Speed 5.7 km/h Distance 3.94 km</desc>
<time>2010-02-27T10:48:23.93</time>
<name>2780</name>
</trkpt>
<trkpt lat="48.953445" lon="8.643355">
<ele>257.5</ele>
<speed>5.3</speed>
<course>23.4</course>
<desc>Speed 5.3 km/h Distance 3.95 km</desc>
<time>2010-02-27T10:48:24.94</time>
<name>2781</name>
</trkpt>
<trkpt lat="48.953455" lon="8.643362">
<ele>257.0</ele>
<speed>4.6</speed>
<course>22.1</course>
<desc>Speed 4.6 km/h Distance 3.95 km</desc>
<time>2010-02-27T10:48:25.94</time>
<name>2782</name>
</trkpt>
<trkpt lat="48.953468" lon="8.643370">
<ele>256.5</ele>
<speed>5.3</speed>
<course>22.6</course>
<desc>Speed 5.3 km/h Distance 3.95 km</desc>
<time>2010-02-27T10:48:26.93</time>
<name>2783</name>
</trkpt>
<trkpt lat="48.953482" lon="8.643378">
<ele>256.5</ele>
<speed>5.1</speed>
<course>18.1</course>
<desc>Speed 5.1 km/h Distance 3.95 km</desc>
<time>2010-02-27T10:48:27.93</time>
<name>2784</name>
</trkpt>
<trkpt lat="48.953495" lon="8.643385">
<ele>256.5</ele>
<speed>5.4</speed>
<course>16.0</course>
<desc>Speed 5.4 km/h Distance 3.95 km</desc>
<time>2010-02-27T10:48:28.93</time>
<name>2785</name>
</trkpt>
<trkpt lat="48.953507" lon="8.643390">
<ele>256.0</ele>
<speed>4.7</speed>
<course>20.9</course>
<desc>Speed 4.7 km/h Distance 3.95 km</desc>
<time>2010-02-27T10:48:29.93</time>
<name>2786</name>
</trkpt>
<trkpt lat="48.953518" lon="8.643397">
<ele>256.0</ele>
<speed>4.5</speed>
<course>0.0</course>
<desc>Speed 4.5 km/h Distance 3.95 km</desc>
<time>2010-02-27T10:48:30.94</time>
<name>2787</name>
</trkpt>
<trkpt lat="48.953527" lon="8.643397">
<ele>254.5</ele>
<speed>3.3</speed>
<course>17.6</course>
<desc>Speed 3.3 km/h Distance 3.95 km</desc>
<time>2010-02-27T10:48:31.94</time>
<name>2788</name>
</trkpt>
<trkpt lat="48.953537" lon="8.643402">
<ele>254.0</ele>
<speed>3.7</speed>
<course>28.6</course>
<desc>Speed 3.7 km/h Distance 3.96 km</desc>
<time>2010-02-27T10:48:32.94</time>
<name>2789</name>
</trkpt>
<trkpt lat="48.953547" lon="8.643410">
<ele>253.0</ele>
<speed>3.7</speed>
<course>22.3</course>
<desc>Speed 3.7 km/h Distance 3.96 km</desc>
<time>2010-02-27T10:48:33.94</time>
<name>2790</name>
</trkpt>
<trkpt lat="48.953560" lon="8.643418">
<ele>254.0</ele>
<speed>5.3</speed>
<course>10.4</course>
<desc>Speed 5.3 km/h Distance 3.96 km</desc>
<time>2010-02-27T10:48:34.94</time>
<name>2791</name>
</trkpt>
<trkpt lat="48.953572" lon="8.643422">
<ele>254.0</ele>
<speed>4.1</speed>
<course>13.5</course>
<desc>Speed 4.1 km/h Distance 3.96 km</desc>
<time>2010-02-27T10:48:35.93</time>
<name>2792</name>
</trkpt>
<trkpt lat="48.953585" lon="8.643427">
<ele>254.0</ele>
<speed>5.2</speed>
<course>20.1</course>
<desc>Speed 5.2 km/h Distance 3.96 km</desc>
<time>2010-02-27T10:48:36.94</time>
<name>2793</name>
</trkpt>
<trkpt lat="48.953600" lon="8.643435">
<ele>254.5</ele>
<speed>5.5</speed>
<course>13.5</course>
<desc>Speed 5.5 km/h Distance 3.96 km</desc>
<time>2010-02-27T10:48:37.94</time>
<name>2794</name>
</trkpt>
<trkpt lat="48.953613" lon="8.643440">
<ele>254.5</ele>
<speed>5.4</speed>
<course>337.9</course>
<desc>Speed 5.4 km/h Distance 3.96 km</desc>
<time>2010-02-27T10:48:38.94</time>
<name>2795</name>
</trkpt>
<trkpt lat="48.953627" lon="8.643432">
<ele>253.0</ele>
<speed>5.7</speed>
<course>3.9</course>
<desc>Speed 5.7 km/h Distance 3.97 km</desc>
<time>2010-02-27T10:48:39.93</time>
<name>2796</name>
</trkpt>
<trkpt lat="48.953640" lon="8.643433">
<ele>253.0</ele>
<speed>4.6</speed>
<course>1.2</course>
<desc>Speed 4.6 km/h Distance 3.97 km</desc>
<time>2010-02-27T10:48:40.92</time>
<name>2797</name>
</trkpt>
<trkpt lat="48.953653" lon="8.643433">
<ele>252.5</ele>
<speed>4.8</speed>
<course>18.4</course>
<desc>Speed 4.8 km/h Distance 3.97 km</desc>
<time>2010-02-27T10:48:41.93</time>
<name>2798</name>
</trkpt>
<trkpt lat="48.953667" lon="8.643440">
<ele>252.5</ele>
<speed>4.7</speed>
<course>8.8</course>
<desc>Speed 4.7 km/h Distance 3.97 km</desc>
<time>2010-02-27T10:48:42.93</time>
<name>2799</name>
</trkpt>
<trkpt lat="48.953682" lon="8.643443">
<ele>252.5</ele>
<speed>5.0</speed>
<course>13.5</course>
<desc>Speed 5.0 km/h Distance 3.97 km</desc>
<time>2010-02-27T10:48:43.93</time>
<name>2800</name>
</trkpt>
<trkpt lat="48.953695" lon="8.643448">
<ele>252.5</ele>
<speed>5.2</speed>
<course>33.2</course>
<desc>Speed 5.2 km/h Distance 3.97 km</desc>
<time>2010-02-27T10:48:44.92</time>
<name>2801</name>
</trkpt>
<trkpt lat="48.953703" lon="8.643457">
<ele>251.5</ele>
<speed>3.7</speed>
<course>158.5</course>
<desc>Speed 3.7 km/h Distance 3.98 km</desc>
<time>2010-02-27T10:48:45.94</time>
<name>2802</name>
</trkpt>
<trkpt lat="48.953695" lon="8.643462">
<ele>252.5</ele>
<speed>3.9</speed>
<course>152.5</course>
<desc>Speed 3.9 km/h Distance 3.98 km</desc>
<time>2010-02-27T10:48:46.93</time>
<name>2803</name>
</trkpt>
<trkpt lat="48.953687" lon="8.643468">
<ele>252.0</ele>
<speed>4.0</speed>
<course>152.5</course>
<desc>Speed 4.0 km/h Distance 3.98 km</desc>
<time>2010-02-27T10:48:47.93</time>
<name>2804</name>
</trkpt>
<trkpt lat="48.953687" lon="8.643468">
<ele>252.0</ele>
<speed>0.1</speed>
<course>297.4</course>
<desc>Speed 0.1 km/h Distance 3.98 km</desc>
<time>2010-02-27T10:48:48.93</time>
<name>2805</name>
</trkpt>
<trkpt lat="48.953688" lon="8.643463">
<ele>252.0</ele>
<speed>1.3</speed>
<course>347.4</course>
<desc>Speed 1.3 km/h Distance 3.98 km</desc>
<time>2010-02-27T10:48:49.93</time>
<name>2806</name>
</trkpt>
<trkpt lat="48.953693" lon="8.643462">
<ele>252.5</ele>
<speed>1.5</speed>
<course>347.4</course>
<desc>Speed 1.5 km/h Distance 3.98 km</desc>
<time>2010-02-27T10:48:50.95</time>
<name>2807</name>
</trkpt>
<trkpt lat="48.953693" lon="8.643462">
<ele>252.5</ele>
<speed>1.5</speed>
<course>2.7</course>
<desc>Speed 1.5 km/h Distance 3.98 km</desc>
<time>2010-02-27T10:48:51.45</time>
<name>2808</name>
</trkpt>
<trkpt lat="48.953713" lon="8.643463">
<ele>252.0</ele>
<speed>4.0</speed>
<course>44.3</course>
<desc>Speed 4.0 km/h Distance 3.98 km</desc>
<time>2010-02-27T10:48:52.92</time>
<name>2809</name>
</trkpt>
<trkpt lat="48.953720" lon="8.643473">
<ele>251.0</ele>
<speed>3.1</speed>
<course>44.3</course>
<desc>Speed 3.1 km/h Distance 3.98 km</desc>
<time>2010-02-27T10:48:53.95</time>
<name>2810</name>
</trkpt>
<trkpt lat="48.953720" lon="8.643473">
<ele>251.0</ele>
<speed>3.1</speed>
<course>52.4</course>
<desc>Speed 3.1 km/h Distance 3.98 km</desc>
<time>2010-02-27T10:48:54.45</time>
<name>2811</name>
</trkpt>
<trkpt lat="48.953723" lon="8.643480">
<ele>251.0</ele>
<speed>0.3</speed>
<course>12.6</course>
<desc>Speed 0.3 km/h Distance 3.98 km</desc>
<time>2010-02-27T10:48:55.93</time>
<name>2812</name>
</trkpt>
<trkpt lat="48.953725" lon="8.643480">
<ele>251.5</ele>
<speed>0.1</speed>
<course>12.6</course>
<desc>Speed 0.1 km/h Distance 3.98 km</desc>
<time>2010-02-27T10:48:56.92</time>
<name>2813</name>
</trkpt>
<trkpt lat="48.953725" lon="8.643480">
<ele>251.0</ele>
<speed>0.1</speed>
<course>12.6</course>
<desc>Speed 0.1 km/h Distance 3.98 km</desc>
<time>2010-02-27T10:48:57.91</time>
<name>2814</name>
</trkpt>
<trkpt lat="48.953725" lon="8.643480">
<ele>251.0</ele>
<speed>0.2</speed>
<course>12.6</course>
<desc>Speed 0.2 km/h Distance 3.98 km</desc>
<time>2010-02-27T10:48:58.92</time>
<name>2815</name>
</trkpt>
<trkpt lat="48.953725" lon="8.643480">
<ele>251.0</ele>
<speed>0.1</speed>
<course>12.6</course>
<desc>Speed 0.1 km/h Distance 3.98 km</desc>
<time>2010-02-27T10:48:59.92</time>
<name>2816</name>
</trkpt>
<trkpt lat="48.953725" lon="8.643480">
<ele>250.5</ele>
<speed>0.1</speed>
<course>12.6</course>
<desc>Speed 0.1 km/h Distance 3.98 km</desc>
<time>2010-02-27T10:49:00.92</time>
<name>2817</name>
</trkpt>
<trkpt lat="48.953725" lon="8.643480">
<ele>250.5</ele>
<speed>0.2</speed>
<course>0.0</course>
<desc>Speed 0.2 km/h Distance 3.98 km</desc>
<time>2010-02-27T10:49:01.92</time>
<name>2818</name>
</trkpt>
<trkpt lat="48.953728" lon="8.643480">
<ele>251.0</ele>
<speed>0.2</speed>
<course>12.6</course>
<desc>Speed 0.2 km/h Distance 3.98 km</desc>
<time>2010-02-27T10:49:02.92</time>
<name>2819</name>
</trkpt>
<trkpt lat="48.953732" lon="8.643480">
<ele>251.5</ele>
<speed>0.3</speed>
<course>9.6</course>
<desc>Speed 0.3 km/h Distance 3.98 km</desc>
<time>2010-02-27T10:49:03.92</time>
<name>2820</name>
</trkpt>
<trkpt lat="48.953740" lon="8.643482">
<ele>251.5</ele>
<speed>3.0</speed>
<course>13.5</course>
<desc>Speed 3.0 km/h Distance 3.98 km</desc>
<time>2010-02-27T10:49:04.92</time>
<name>2821</name>
</trkpt>
<trkpt lat="48.953753" lon="8.643487">
<ele>251.0</ele>
<speed>4.1</speed>
<course>5.3</course>
<desc>Speed 4.1 km/h Distance 3.99 km</desc>
<time>2010-02-27T10:49:05.92</time>
<name>2822</name>
</trkpt>
<trkpt lat="48.953767" lon="8.643488">
<ele>251.0</ele>
<speed>4.7</speed>
<course>3.9</course>
<desc>Speed 4.7 km/h Distance 3.99 km</desc>
<time>2010-02-27T10:49:06.92</time>
<name>2823</name>
</trkpt>
<trkpt lat="48.953780" lon="8.643490">
<ele>251.0</ele>
<speed>4.4</speed>
<course>15.5</course>
<desc>Speed 4.4 km/h Distance 3.99 km</desc>
<time>2010-02-27T10:49:07.92</time>
<name>2824</name>
</trkpt>
<trkpt lat="48.953792" lon="8.643495">
<ele>250.5</ele>
<speed>4.1</speed>
<course>2.2</course>
<desc>Speed 4.1 km/h Distance 3.99 km</desc>
<time>2010-02-27T10:49:08.92</time>
<name>2825</name>
</trkpt>
<trkpt lat="48.953803" lon="8.643497">
<ele>250.5</ele>
<speed>4.5</speed>
<course>12.2</course>
<desc>Speed 4.5 km/h Distance 3.99 km</desc>
<time>2010-02-27T10:49:09.92</time>
<name>2826</name>
</trkpt>
<trkpt lat="48.953818" lon="8.643502">
<ele>250.0</ele>
<speed>5.0</speed>
<course>20.9</course>
<desc>Speed 5.0 km/h Distance 3.99 km</desc>
<time>2010-02-27T10:49:10.94</time>
<name>2827</name>
</trkpt>
<trkpt lat="48.953830" lon="8.643508">
<ele>250.0</ele>
<speed>4.8</speed>
<course>24.9</course>
<desc>Speed 4.8 km/h Distance 3.99 km</desc>
<time>2010-02-27T10:49:11.92</time>
<name>2828</name>
</trkpt>
<trkpt lat="48.953842" lon="8.643517">
<ele>249.5</ele>
<speed>4.6</speed>
<course>25.2</course>
<desc>Speed 4.6 km/h Distance 4.00 km</desc>
<time>2010-02-27T10:49:12.91</time>
<name>2829</name>
</trkpt>
<trkpt lat="48.953853" lon="8.643525">
<ele>249.5</ele>
<speed>4.6</speed>
<course>38.1</course>
<desc>Speed 4.6 km/h Distance 4.00 km</desc>
<time>2010-02-27T10:49:13.92</time>
<name>2830</name>
</trkpt>
<trkpt lat="48.953862" lon="8.643535">
<ele>249.0</ele>
<speed>4.3</speed>
<course>21.5</course>
<desc>Speed 4.3 km/h Distance 4.00 km</desc>
<time>2010-02-27T10:49:14.92</time>
<name>2831</name>
</trkpt>
<trkpt lat="48.953870" lon="8.643540">
<ele>249.0</ele>
<speed>3.6</speed>
<course>13.5</course>
<desc>Speed 3.6 km/h Distance 4.00 km</desc>
<time>2010-02-27T10:49:15.92</time>
<name>2832</name>
</trkpt>
<trkpt lat="48.953883" lon="8.643545">
<ele>248.5</ele>
<speed>4.8</speed>
<course>26.4</course>
<desc>Speed 4.8 km/h Distance 4.00 km</desc>
<time>2010-02-27T10:49:16.91</time>
<name>2833</name>
</trkpt>
<trkpt lat="48.953890" lon="8.643550">
<ele>248.5</ele>
<speed>3.0</speed>
<course>41.4</course>
<desc>Speed 3.0 km/h Distance 4.00 km</desc>
<time>2010-02-27T10:49:17.91</time>
<name>2834</name>
</trkpt>
<trkpt lat="48.953895" lon="8.643557">
<ele>248.5</ele>
<speed>1.8</speed>
<course>90.0</course>
<desc>Speed 1.8 km/h Distance 4.00 km</desc>
<time>2010-02-27T10:49:18.91</time>
<name>2835</name>
</trkpt>
<trkpt lat="48.953895" lon="8.643562">
<ele>248.5</ele>
<speed>1.0</speed>
<course>51.9</course>
<desc>Speed 1.0 km/h Distance 4.00 km</desc>
<time>2010-02-27T10:49:19.93</time>
<name>2836</name>
</trkpt>
<trkpt lat="48.953897" lon="8.643565">
<ele>249.0</ele>
<speed>0.5</speed>
<course>27.9</course>
<desc>Speed 0.5 km/h Distance 4.00 km</desc>
<time>2010-02-27T10:49:20.91</time>
<name>2837</name>
</trkpt>
<trkpt lat="48.953905" lon="8.643572">
<ele>249.0</ele>
<speed>2.8</speed>
<course>26.0</course>
<desc>Speed 2.8 km/h Distance 4.00 km</desc>
<time>2010-02-27T10:49:21.92</time>
<name>2838</name>
</trkpt>
<trkpt lat="48.953918" lon="8.643582">
<ele>249.0</ele>
<speed>4.6</speed>
<course>26.9</course>
<desc>Speed 4.6 km/h Distance 4.01 km</desc>
<time>2010-02-27T10:49:22.94</time>
<name>2839</name>
</trkpt>
<trkpt lat="48.953933" lon="8.643593">
<ele>250.0</ele>
<speed>5.4</speed>
<course>14.9</course>
<desc>Speed 5.4 km/h Distance 4.01 km</desc>
<time>2010-02-27T10:49:23.91</time>
<name>2840</name>
</trkpt>
<trkpt lat="48.953950" lon="8.643600">
<ele>251.0</ele>
<speed>5.0</speed>
<course>8.8</course>
<desc>Speed 5.0 km/h Distance 4.01 km</desc>
<time>2010-02-27T10:49:24.90</time>
<name>2841</name>
</trkpt>
<trkpt lat="48.953965" lon="8.643603">
<ele>251.0</ele>
<speed>4.8</speed>
<course>13.5</course>
<desc>Speed 4.8 km/h Distance 4.01 km</desc>
<time>2010-02-27T10:49:25.91</time>
<name>2842</name>
</trkpt>
<trkpt lat="48.953978" lon="8.643608">
<ele>251.5</ele>
<speed>5.2</speed>
<course>20.1</course>
<desc>Speed 5.2 km/h Distance 4.01 km</desc>
<time>2010-02-27T10:49:26.91</time>
<name>2843</name>
</trkpt>
<trkpt lat="48.953993" lon="8.643617">
<ele>252.0</ele>
<speed>5.3</speed>
<course>14.0</course>
<desc>Speed 5.3 km/h Distance 4.01 km</desc>
<time>2010-02-27T10:49:27.91</time>
<name>2844</name>
</trkpt>
<trkpt lat="48.954007" lon="8.643622">
<ele>252.0</ele>
<speed>5.5</speed>
<course>8.1</course>
<desc>Speed 5.5 km/h Distance 4.02 km</desc>
<time>2010-02-27T10:49:28.91</time>
<name>2845</name>
</trkpt>
<trkpt lat="48.954022" lon="8.643625">
<ele>252.0</ele>
<speed>5.8</speed>
<course>20.1</course>
<desc>Speed 5.8 km/h Distance 4.02 km</desc>
<time>2010-02-27T10:49:29.90</time>
<name>2846</name>
</trkpt>
<trkpt lat="48.954037" lon="8.643633">
<ele>252.0</ele>
<speed>6.0</speed>
<course>26.2</course>
<desc>Speed 6.0 km/h Distance 4.02 km</desc>
<time>2010-02-27T10:49:30.91</time>
<name>2847</name>
</trkpt>
<trkpt lat="48.954050" lon="8.643643">
<ele>252.5</ele>
<speed>5.4</speed>
<course>21.5</course>
<desc>Speed 5.4 km/h Distance 4.02 km</desc>
<time>2010-02-27T10:49:31.91</time>
<name>2848</name>
</trkpt>
<trkpt lat="48.954058" lon="8.643648">
<ele>253.0</ele>
<speed>3.7</speed>
<course>9.0</course>
<desc>Speed 3.7 km/h Distance 4.02 km</desc>
<time>2010-02-27T10:49:32.90</time>
<name>2849</name>
</trkpt>
<trkpt lat="48.954072" lon="8.643652">
<ele>253.0</ele>
<speed>4.7</speed>
<course>29.4</course>
<desc>Speed 4.7 km/h Distance 4.02 km</desc>
<time>2010-02-27T10:49:33.90</time>
<name>2850</name>
</trkpt>
<trkpt lat="48.954083" lon="8.643662">
<ele>253.5</ele>
<speed>5.1</speed>
<course>20.9</course>
<desc>Speed 5.1 km/h Distance 4.03 km</desc>
<time>2010-02-27T10:49:34.90</time>
<name>2851</name>
</trkpt>
<trkpt lat="48.954095" lon="8.643668">
<ele>253.5</ele>
<speed>4.9</speed>
<course>14.0</course>
<desc>Speed 4.9 km/h Distance 4.03 km</desc>
<time>2010-02-27T10:49:35.90</time>
<name>2852</name>
</trkpt>
<trkpt lat="48.954108" lon="8.643673">
<ele>253.5</ele>
<speed>4.8</speed>
<course>14.4</course>
<desc>Speed 4.8 km/h Distance 4.03 km</desc>
<time>2010-02-27T10:49:36.90</time>
<name>2853</name>
</trkpt>
<trkpt lat="48.954122" lon="8.643678">
<ele>253.5</ele>
<speed>5.4</speed>
<course>14.0</course>
<desc>Speed 5.4 km/h Distance 4.03 km</desc>
<time>2010-02-27T10:49:37.91</time>
<name>2854</name>
</trkpt>
<trkpt lat="48.954135" lon="8.643683">
<ele>253.5</ele>
<speed>5.3</speed>
<course>9.7</course>
<desc>Speed 5.3 km/h Distance 4.03 km</desc>
<time>2010-02-27T10:49:38.90</time>
<name>2855</name>
</trkpt>
<trkpt lat="48.954148" lon="8.643687">
<ele>253.0</ele>
<speed>5.1</speed>
<course>1.2</course>
<desc>Speed 5.1 km/h Distance 4.03 km</desc>
<time>2010-02-27T10:49:39.90</time>
<name>2856</name>
</trkpt>
<trkpt lat="48.954162" lon="8.643687">
<ele>253.0</ele>
<speed>4.9</speed>
<course>13.5</course>
<desc>Speed 4.9 km/h Distance 4.03 km</desc>
<time>2010-02-27T10:49:40.90</time>
<name>2857</name>
</trkpt>
<trkpt lat="48.954175" lon="8.643692">
<ele>252.5</ele>
<speed>5.5</speed>
<course>33.7</course>
<desc>Speed 5.5 km/h Distance 4.04 km</desc>
<time>2010-02-27T10:49:41.91</time>
<name>2858</name>
</trkpt>
<trkpt lat="48.954185" lon="8.643702">
<ele>252.0</ele>
<speed>4.9</speed>
<course>41.3</course>
<desc>Speed 4.9 km/h Distance 4.04 km</desc>
<time>2010-02-27T10:49:42.91</time>
<name>2859</name>
</trkpt>
<trkpt lat="48.954195" lon="8.643715">
<ele>251.5</ele>
<speed>5.0</speed>
<course>37.5</course>
<desc>Speed 5.0 km/h Distance 4.04 km</desc>
<time>2010-02-27T10:49:43.91</time>
<name>2860</name>
</trkpt>
<trkpt lat="48.954205" lon="8.643727">
<ele>250.5</ele>
<speed>4.9</speed>
<course>63.1</course>
<desc>Speed 4.9 km/h Distance 4.04 km</desc>
<time>2010-02-27T10:49:44.89</time>
<name>2861</name>
</trkpt>
<trkpt lat="48.954213" lon="8.643752">
<ele>252.0</ele>
<speed>6.9</speed>
<course>46.5</course>
<desc>Speed 6.9 km/h Distance 4.04 km</desc>
<time>2010-02-27T10:49:45.90</time>
<name>2862</name>
</trkpt>
<trkpt lat="48.954222" lon="8.643765">
<ele>252.0</ele>
<speed>5.0</speed>
<course>44.6</course>
<desc>Speed 5.0 km/h Distance 4.04 km</desc>
<time>2010-02-27T10:49:46.90</time>
<name>2863</name>
</trkpt>
<trkpt lat="48.954232" lon="8.643780">
<ele>252.0</ele>
<speed>5.2</speed>
<course>46.5</course>
<desc>Speed 5.2 km/h Distance 4.05 km</desc>
<time>2010-02-27T10:49:47.90</time>
<name>2864</name>
</trkpt>
<trkpt lat="48.954240" lon="8.643793">
<ele>252.5</ele>
<speed>5.1</speed>
<course>36.9</course>
<desc>Speed 5.1 km/h Distance 4.05 km</desc>
<time>2010-02-27T10:49:48.90</time>
<name>2865</name>
</trkpt>
<trkpt lat="48.954252" lon="8.643807">
<ele>252.5</ele>
<speed>5.3</speed>
<course>33.2</course>
<desc>Speed 5.3 km/h Distance 4.05 km</desc>
<time>2010-02-27T10:49:49.90</time>
<name>2866</name>
</trkpt>
<trkpt lat="48.954260" lon="8.643815">
<ele>252.5</ele>
<speed>4.4</speed>
<course>51.9</course>
<desc>Speed 4.4 km/h Distance 4.05 km</desc>
<time>2010-02-27T10:49:50.90</time>
<name>2867</name>
</trkpt>
<trkpt lat="48.954262" lon="8.643818">
<ele>252.5</ele>
<speed>1.0</speed>
<course>180.0</course>
<desc>Speed 1.0 km/h Distance 4.05 km</desc>
<time>2010-02-27T10:49:51.90</time>
<name>2868</name>
</trkpt>
<trkpt lat="48.954258" lon="8.643818">
<ele>252.5</ele>
<speed>1.5</speed>
<course>203.8</course>
<desc>Speed 1.5 km/h Distance 4.05 km</desc>
<time>2010-02-27T10:49:52.90</time>
<name>2869</name>
</trkpt>
<trkpt lat="48.954253" lon="8.643815">
<ele>253.0</ele>
<speed>2.3</speed>
<course>110.2</course>
<desc>Speed 2.3 km/h Distance 4.05 km</desc>
<time>2010-02-27T10:49:53.89</time>
<name>2870</name>
</trkpt>
<trkpt lat="48.954252" lon="8.643822">
<ele>252.5</ele>
<speed>1.9</speed>
<course>41.4</course>
<desc>Speed 1.9 km/h Distance 4.05 km</desc>
<time>2010-02-27T10:49:54.89</time>
<name>2871</name>
</trkpt>
<trkpt lat="48.954257" lon="8.643828">
<ele>252.5</ele>
<speed>3.0</speed>
<course>44.5</course>
<desc>Speed 3.0 km/h Distance 4.05 km</desc>
<time>2010-02-27T10:49:55.91</time>
<name>2872</name>
</trkpt>
<trkpt lat="48.954263" lon="8.643838">
<ele>253.0</ele>
<speed>3.5</speed>
<course>22.2</course>
<desc>Speed 3.5 km/h Distance 4.05 km</desc>
<time>2010-02-27T10:49:56.89</time>
<name>2873</name>
</trkpt>
<trkpt lat="48.954268" lon="8.643842">
<ele>253.0</ele>
<speed>1.9</speed>
<course>58.6</course>
<desc>Speed 1.9 km/h Distance 4.05 km</desc>
<time>2010-02-27T10:49:57.89</time>
<name>2874</name>
</trkpt>
<trkpt lat="48.954272" lon="8.643850">
<ele>253.0</ele>
<speed>2.2</speed>
<course>71.3</course>
<desc>Speed 2.2 km/h Distance 4.05 km</desc>
<time>2010-02-27T10:49:58.89</time>
<name>2875</name>
</trkpt>
<trkpt lat="48.954275" lon="8.643865">
<ele>253.0</ele>
<speed>4.4</speed>
<course>41.3</course>
<desc>Speed 4.4 km/h Distance 4.06 km</desc>
<time>2010-02-27T10:49:59.92</time>
<name>2876</name>
</trkpt>
<trkpt lat="48.954285" lon="8.643878">
<ele>253.5</ele>
<speed>4.6</speed>
<course>23.8</course>
<desc>Speed 4.6 km/h Distance 4.06 km</desc>
<time>2010-02-27T10:50:00.89</time>
<name>2877</name>
</trkpt>
<trkpt lat="48.954295" lon="8.643885">
<ele>253.5</ele>
<speed>4.6</speed>
<course>33.1</course>
<desc>Speed 4.6 km/h Distance 4.06 km</desc>
<time>2010-02-27T10:50:01.89</time>
<name>2878</name>
</trkpt>
<trkpt lat="48.954307" lon="8.643897">
<ele>253.5</ele>
<speed>5.4</speed>
<course>29.2</course>
<desc>Speed 5.4 km/h Distance 4.06 km</desc>
<time>2010-02-27T10:50:02.89</time>
<name>2879</name>
</trkpt>
<trkpt lat="48.954318" lon="8.643907">
<ele>254.0</ele>
<speed>4.9</speed>
<course>46.4</course>
<desc>Speed 4.9 km/h Distance 4.06 km</desc>
<time>2010-02-27T10:50:03.90</time>
<name>2880</name>
</trkpt>
<trkpt lat="48.954327" lon="8.643920">
<ele>254.0</ele>
<speed>4.5</speed>
<course>63.1</course>
<desc>Speed 4.5 km/h Distance 4.06 km</desc>
<time>2010-02-27T10:50:04.89</time>
<name>2881</name>
</trkpt>
<trkpt lat="48.954332" lon="8.643935">
<ele>254.0</ele>
<speed>4.4</speed>
<course>63.1</course>
<desc>Speed 4.4 km/h Distance 4.06 km</desc>
<time>2010-02-27T10:50:05.88</time>
<name>2882</name>
</trkpt>
<trkpt lat="48.954337" lon="8.643950">
<ele>254.5</ele>
<speed>3.7</speed>
<course>37.5</course>
<desc>Speed 3.7 km/h Distance 4.06 km</desc>
<time>2010-02-27T10:50:06.88</time>
<name>2883</name>
</trkpt>
<trkpt lat="48.954347" lon="8.643962">
<ele>254.5</ele>
<speed>4.9</speed>
<course>11.2</course>
<desc>Speed 4.9 km/h Distance 4.07 km</desc>
<time>2010-02-27T10:50:07.89</time>
<name>2884</name>
</trkpt>
<trkpt lat="48.954358" lon="8.643965">
<ele>254.5</ele>
<speed>4.8</speed>
<course>9.0</course>
<desc>Speed 4.8 km/h Distance 4.07 km</desc>
<time>2010-02-27T10:50:08.91</time>
<name>2885</name>
</trkpt>
<trkpt lat="48.954372" lon="8.643968">
<ele>254.5</ele>
<speed>4.7</speed>
<course>20.6</course>
<desc>Speed 4.7 km/h Distance 4.07 km</desc>
<time>2010-02-27T10:50:09.89</time>
<name>2886</name>
</trkpt>
<trkpt lat="48.954383" lon="8.643975">
<ele>254.5</ele>
<speed>4.9</speed>
<course>25.2</course>
<desc>Speed 4.9 km/h Distance 4.07 km</desc>
<time>2010-02-27T10:50:10.89</time>
<name>2887</name>
</trkpt>
<trkpt lat="48.954395" lon="8.643983">
<ele>254.5</ele>
<speed>4.4</speed>
<course>20.6</course>
<desc>Speed 4.4 km/h Distance 4.07 km</desc>
<time>2010-02-27T10:50:11.89</time>
<name>2888</name>
</trkpt>
<trkpt lat="48.954407" lon="8.643990">
<ele>254.5</ele>
<speed>5.0</speed>
<course>11.7</course>
<desc>Speed 5.0 km/h Distance 4.07 km</desc>
<time>2010-02-27T10:50:12.88</time>
<name>2889</name>
</trkpt>
<trkpt lat="48.954422" lon="8.643995">
<ele>254.5</ele>
<speed>4.8</speed>
<course>19.9</course>
<desc>Speed 4.8 km/h Distance 4.07 km</desc>
<time>2010-02-27T10:50:13.88</time>
<name>2890</name>
</trkpt>
<trkpt lat="48.954437" lon="8.644003">
<ele>254.5</ele>
<speed>5.0</speed>
<course>26.0</course>
<desc>Speed 5.0 km/h Distance 4.08 km</desc>
<time>2010-02-27T10:50:14.88</time>
<name>2891</name>
</trkpt>
<trkpt lat="48.954450" lon="8.644013">
<ele>254.5</ele>
<speed>4.9</speed>
<course>29.2</course>
<desc>Speed 4.9 km/h Distance 4.08 km</desc>
<time>2010-02-27T10:50:15.88</time>
<name>2892</name>
</trkpt>
<trkpt lat="48.954462" lon="8.644023">
<ele>254.5</ele>
<speed>4.7</speed>
<course>37.5</course>
<desc>Speed 4.7 km/h Distance 4.08 km</desc>
<time>2010-02-27T10:50:16.88</time>
<name>2893</name>
</trkpt>
<trkpt lat="48.954472" lon="8.644035">
<ele>254.0</ele>
<speed>4.6</speed>
<course>52.7</course>
<desc>Speed 4.6 km/h Distance 4.08 km</desc>
<time>2010-02-27T10:50:17.89</time>
<name>2894</name>
</trkpt>
<trkpt lat="48.954478" lon="8.644048">
<ele>254.0</ele>
<speed>3.9</speed>
<course>37.3</course>
<desc>Speed 3.9 km/h Distance 4.08 km</desc>
<time>2010-02-27T10:50:18.89</time>
<name>2895</name>
</trkpt>
<trkpt lat="48.954488" lon="8.644060">
<ele>253.5</ele>
<speed>4.6</speed>
<course>52.6</course>
<desc>Speed 4.6 km/h Distance 4.08 km</desc>
<time>2010-02-27T10:50:19.89</time>
<name>2896</name>
</trkpt>
<trkpt lat="48.954495" lon="8.644073">
<ele>253.5</ele>
<speed>4.5</speed>
<course>98.7</course>
<desc>Speed 4.5 km/h Distance 4.09 km</desc>
<time>2010-02-27T10:50:20.92</time>
<name>2897</name>
</trkpt>
<trkpt lat="48.954493" lon="8.644090">
<ele>254.0</ele>
<speed>4.4</speed>
<course>102.3</course>
<desc>Speed 4.4 km/h Distance 4.09 km</desc>
<time>2010-02-27T10:50:21.89</time>
<name>2898</name>
</trkpt>
<trkpt lat="48.954492" lon="8.644102">
<ele>252.5</ele>
<speed>3.2</speed>
<course>106.9</course>
<desc>Speed 3.2 km/h Distance 4.09 km</desc>
<time>2010-02-27T10:50:22.90</time>
<name>2899</name>
</trkpt>
<trkpt lat="48.954490" lon="8.644110">
<ele>252.0</ele>
<speed>2.4</speed>
<course>110.9</course>
<desc>Speed 2.4 km/h Distance 4.09 km</desc>
<time>2010-02-27T10:50:23.89</time>
<name>2900</name>
</trkpt>
<trkpt lat="48.954487" lon="8.644123">
<ele>251.0</ele>
<speed>3.9</speed>
<course>47.8</course>
<desc>Speed 3.9 km/h Distance 4.09 km</desc>
<time>2010-02-27T10:50:24.89</time>
<name>2901</name>
</trkpt>
<trkpt lat="48.954492" lon="8.644132">
<ele>251.0</ele>
<speed>2.4</speed>
<course>69.1</course>
<desc>Speed 2.4 km/h Distance 4.09 km</desc>
<time>2010-02-27T10:50:25.89</time>
<name>2902</name>
</trkpt>
<trkpt lat="48.954495" lon="8.644145">
<ele>251.0</ele>
<speed>3.3</speed>
<course>38.1</course>
<desc>Speed 3.3 km/h Distance 4.09 km</desc>
<time>2010-02-27T10:50:26.89</time>
<name>2903</name>
</trkpt>
<trkpt lat="48.954503" lon="8.644155">
<ele>251.0</ele>
<speed>3.9</speed>
<course>9.5</course>
<desc>Speed 3.9 km/h Distance 4.09 km</desc>
<time>2010-02-27T10:50:27.88</time>
<name>2904</name>
</trkpt>
<trkpt lat="48.954515" lon="8.644158">
<ele>251.0</ele>
<speed>4.1</speed>
<course>1.2</course>
<desc>Speed 4.1 km/h Distance 4.09 km</desc>
<time>2010-02-27T10:50:28.88</time>
<name>2905</name>
</trkpt>
<trkpt lat="48.954528" lon="8.644158">
<ele>251.0</ele>
<speed>4.5</speed>
<course>348.8</course>
<desc>Speed 4.5 km/h Distance 4.09 km</desc>
<time>2010-02-27T10:50:29.88</time>
<name>2906</name>
</trkpt>
<trkpt lat="48.954540" lon="8.644155">
<ele>251.0</ele>
<speed>4.0</speed>
<course>330.8</course>
<desc>Speed 4.0 km/h Distance 4.10 km</desc>
<time>2010-02-27T10:50:30.87</time>
<name>2907</name>
</trkpt>
<trkpt lat="48.954550" lon="8.644147">
<ele>250.5</ele>
<speed>4.0</speed>
<course>307.3</course>
<desc>Speed 4.0 km/h Distance 4.10 km</desc>
<time>2010-02-27T10:50:31.88</time>
<name>2908</name>
</trkpt>
<trkpt lat="48.954557" lon="8.644133">
<ele>251.0</ele>
<speed>3.9</speed>
<course>26.4</course>
<desc>Speed 3.9 km/h Distance 4.10 km</desc>
<time>2010-02-27T10:50:32.88</time>
<name>2909</name>
</trkpt>
<trkpt lat="48.954563" lon="8.644138">
<ele>251.0</ele>
<speed>2.8</speed>
<course>270.0</course>
<desc>Speed 2.8 km/h Distance 4.10 km</desc>
<time>2010-02-27T10:50:33.88</time>
<name>2910</name>
</trkpt>
<trkpt lat="48.954563" lon="8.644127">
<ele>251.0</ele>
<speed>3.5</speed>
<course>330.8</course>
<desc>Speed 3.5 km/h Distance 4.10 km</desc>
<time>2010-02-27T10:50:34.87</time>
<name>2911</name>
</trkpt>
<trkpt lat="48.954565" lon="8.644125">
<ele>251.5</ele>
<speed>0.6</speed>
<course>40.9</course>
<desc>Speed 0.6 km/h Distance 4.10 km</desc>
<time>2010-02-27T10:50:35.88</time>
<name>2912</name>
</trkpt>
<trkpt lat="48.954570" lon="8.644132">
<ele>251.0</ele>
<speed>2.1</speed>
<course>26.4</course>
<desc>Speed 2.1 km/h Distance 4.10 km</desc>
<time>2010-02-27T10:50:36.91</time>
<name>2913</name>
</trkpt>
<trkpt lat="48.954577" lon="8.644137">
<ele>250.5</ele>
<speed>2.5</speed>
<course>33.7</course>
<desc>Speed 2.5 km/h Distance 4.10 km</desc>
<time>2010-02-27T10:50:37.91</time>
<name>2914</name>
</trkpt>
<trkpt lat="48.954583" lon="8.644143">
<ele>249.5</ele>
<speed>2.5</speed>
<course>38.4</course>
<desc>Speed 2.5 km/h Distance 4.10 km</desc>
<time>2010-02-27T10:50:38.88</time>
<name>2915</name>
</trkpt>
<trkpt lat="48.954592" lon="8.644153">
<ele>249.0</ele>
<speed>4.1</speed>
<course>38.1</course>
<desc>Speed 4.1 km/h Distance 4.10 km</desc>
<time>2010-02-27T10:50:39.88</time>
<name>2916</name>
</trkpt>
<trkpt lat="48.954600" lon="8.644163">
<ele>248.0</ele>
<speed>4.2</speed>
<course>14.9</course>
<desc>Speed 4.2 km/h Distance 4.11 km</desc>
<time>2010-02-27T10:50:40.88</time>
<name>2917</name>
</trkpt>
<trkpt lat="48.954608" lon="8.644167">
<ele>246.5</ele>
<speed>3.1</speed>
<course>23.8</course>
<desc>Speed 3.1 km/h Distance 4.11 km</desc>
<time>2010-02-27T10:50:41.88</time>
<name>2918</name>
</trkpt>
<trkpt lat="48.954618" lon="8.644173">
<ele>245.5</ele>
<speed>4.0</speed>
<course>46.4</course>
<desc>Speed 4.0 km/h Distance 4.11 km</desc>
<time>2010-02-27T10:50:42.91</time>
<name>2919</name>
</trkpt>
<trkpt lat="48.954627" lon="8.644187">
<ele>245.0</ele>
<speed>4.6</speed>
<course>33.3</course>
<desc>Speed 4.6 km/h Distance 4.11 km</desc>
<time>2010-02-27T10:50:43.90</time>
<name>2920</name>
</trkpt>
<trkpt lat="48.954638" lon="8.644198">
<ele>246.0</ele>
<speed>4.5</speed>
<course>39.0</course>
<desc>Speed 4.5 km/h Distance 4.11 km</desc>
<time>2010-02-27T10:50:44.87</time>
<name>2921</name>
</trkpt>
<trkpt lat="48.954645" lon="8.644207">
<ele>246.0</ele>
<speed>3.5</speed>
<course>29.8</course>
<desc>Speed 3.5 km/h Distance 4.11 km</desc>
<time>2010-02-27T10:50:45.88</time>
<name>2922</name>
</trkpt>
<trkpt lat="48.954658" lon="8.644218">
<ele>247.0</ele>
<speed>5.2</speed>
<course>37.3</course>
<desc>Speed 5.2 km/h Distance 4.11 km</desc>
<time>2010-02-27T10:50:46.91</time>
<name>2923</name>
</trkpt>
<trkpt lat="48.954668" lon="8.644230">
<ele>247.0</ele>
<speed>4.9</speed>
<course>37.5</course>
<desc>Speed 4.9 km/h Distance 4.11 km</desc>
<time>2010-02-27T10:50:47.88</time>
<name>2924</name>
</trkpt>
<trkpt lat="48.954678" lon="8.644242">
<ele>248.0</ele>
<speed>4.4</speed>
<course>33.4</course>
<desc>Speed 4.4 km/h Distance 4.12 km</desc>
<time>2010-02-27T10:50:48.88</time>
<name>2925</name>
</trkpt>
<trkpt lat="48.954692" lon="8.644255">
<ele>248.5</ele>
<speed>4.5</speed>
<course>48.9</course>
<desc>Speed 4.5 km/h Distance 4.12 km</desc>
<time>2010-02-27T10:50:49.87</time>
<name>2926</name>
</trkpt>
<trkpt lat="48.954698" lon="8.644267">
<ele>249.0</ele>
<speed>3.6</speed>
<course>33.2</course>
<desc>Speed 3.6 km/h Distance 4.12 km</desc>
<time>2010-02-27T10:50:50.87</time>
<name>2927</name>
</trkpt>
<trkpt lat="48.954707" lon="8.644275">
<ele>249.0</ele>
<speed>3.9</speed>
<course>52.8</course>
<desc>Speed 3.9 km/h Distance 4.12 km</desc>
<time>2010-02-27T10:50:51.88</time>
<name>2928</name>
</trkpt>
<trkpt lat="48.954712" lon="8.644285">
<ele>249.5</ele>
<speed>3.4</speed>
<course>37.5</course>
<desc>Speed 3.4 km/h Distance 4.12 km</desc>
<time>2010-02-27T10:50:52.88</time>
<name>2929</name>
</trkpt>
<trkpt lat="48.954722" lon="8.644297">
<ele>249.5</ele>
<speed>5.2</speed>
<course>26.2</course>
<desc>Speed 5.2 km/h Distance 4.12 km</desc>
<time>2010-02-27T10:50:53.90</time>
<name>2930</name>
</trkpt>
<trkpt lat="48.954735" lon="8.644307">
<ele>249.5</ele>
<speed>4.6</speed>
<course>36.9</course>
<desc>Speed 4.6 km/h Distance 4.12 km</desc>
<time>2010-02-27T10:50:54.87</time>
<name>2931</name>
</trkpt>
<trkpt lat="48.954747" lon="8.644320">
<ele>250.0</ele>
<speed>4.9</speed>
<course>52.7</course>
<desc>Speed 4.9 km/h Distance 4.13 km</desc>
<time>2010-02-27T10:50:55.87</time>
<name>2932</name>
</trkpt>
<trkpt lat="48.954753" lon="8.644333">
<ele>250.5</ele>
<speed>4.4</speed>
<course>37.5</course>
<desc>Speed 4.4 km/h Distance 4.13 km</desc>
<time>2010-02-27T10:50:56.88</time>
<name>2933</name>
</trkpt>
<trkpt lat="48.954763" lon="8.644345">
<ele>250.5</ele>
<speed>4.6</speed>
<course>20.6</course>
<desc>Speed 4.6 km/h Distance 4.13 km</desc>
<time>2010-02-27T10:50:57.87</time>
<name>2934</name>
</trkpt>
<trkpt lat="48.954775" lon="8.644352">
<ele>251.0</ele>
<speed>4.7</speed>
<course>20.6</course>
<desc>Speed 4.7 km/h Distance 4.13 km</desc>
<time>2010-02-27T10:50:58.86</time>
<name>2935</name>
</trkpt>
<trkpt lat="48.954787" lon="8.644358">
<ele>250.5</ele>
<speed>5.0</speed>
<course>12.6</course>
<desc>Speed 5.0 km/h Distance 4.13 km</desc>
<time>2010-02-27T10:50:59.87</time>
<name>2936</name>
</trkpt>
<trkpt lat="48.954797" lon="8.644362">
<ele>250.0</ele>
<speed>4.1</speed>
<course>49.1</course>
<desc>Speed 4.1 km/h Distance 4.13 km</desc>
<time>2010-02-27T10:51:00.87</time>
<name>2937</name>
</trkpt>
<trkpt lat="48.954803" lon="8.644373">
<ele>250.5</ele>
<speed>3.6</speed>
<course>23.8</course>
<desc>Speed 3.6 km/h Distance 4.13 km</desc>
<time>2010-02-27T10:51:01.86</time>
<name>2938</name>
</trkpt>
<trkpt lat="48.954813" lon="8.644380">
<ele>251.0</ele>
<speed>4.0</speed>
<course>28.6</course>
<desc>Speed 4.0 km/h Distance 4.13 km</desc>
<time>2010-02-27T10:51:02.89</time>
<name>2939</name>
</trkpt>
<trkpt lat="48.954823" lon="8.644388">
<ele>250.5</ele>
<speed>4.5</speed>
<course>28.9</course>
<desc>Speed 4.5 km/h Distance 4.14 km</desc>
<time>2010-02-27T10:51:03.87</time>
<name>2940</name>
</trkpt>
<trkpt lat="48.954833" lon="8.644397">
<ele>250.0</ele>
<speed>4.4</speed>
<course>25.2</course>
<desc>Speed 4.4 km/h Distance 4.14 km</desc>
<time>2010-02-27T10:51:04.86</time>
<name>2941</name>
</trkpt>
<trkpt lat="48.954845" lon="8.644405">
<ele>249.5</ele>
<speed>5.1</speed>
<course>18.8</course>
<desc>Speed 5.1 km/h Distance 4.14 km</desc>
<time>2010-02-27T10:51:05.87</time>
<name>2942</name>
</trkpt>
<trkpt lat="48.954852" lon="8.644408">
<ele>248.5</ele>
<speed>3.2</speed>
<course>12.6</course>
<desc>Speed 3.2 km/h Distance 4.14 km</desc>
<time>2010-02-27T10:51:06.86</time>
<name>2943</name>
</trkpt>
<trkpt lat="48.954862" lon="8.644412">
<ele>248.0</ele>
<speed>3.6</speed>
<course>4.4</course>
<desc>Speed 3.6 km/h Distance 4.14 km</desc>
<time>2010-02-27T10:51:07.87</time>
<name>2944</name>
</trkpt>
<trkpt lat="48.954872" lon="8.644413">
<ele>248.0</ele>
<speed>4.2</speed>
<course>12.6</course>
<desc>Speed 4.2 km/h Distance 4.14 km</desc>
<time>2010-02-27T10:51:08.87</time>
<name>2945</name>
</trkpt>
<trkpt lat="48.954882" lon="8.644417">
<ele>247.5</ele>
<speed>3.7</speed>
<course>15.5</course>
<desc>Speed 3.7 km/h Distance 4.14 km</desc>
<time>2010-02-27T10:51:09.87</time>
<name>2946</name>
</trkpt>
<trkpt lat="48.954893" lon="8.644422">
<ele>247.5</ele>
<speed>4.3</speed>
<course>4.4</course>
<desc>Speed 4.3 km/h Distance 4.14 km</desc>
<time>2010-02-27T10:51:10.87</time>
<name>2947</name>
</trkpt>
<trkpt lat="48.954903" lon="8.644422">
<ele>247.0</ele>
<speed>3.9</speed>
<course>4.7</course>
<desc>Speed 3.9 km/h Distance 4.14 km</desc>
<time>2010-02-27T10:51:11.87</time>
<name>2948</name>
</trkpt>
<trkpt lat="48.954915" lon="8.644423">
<ele>247.0</ele>
<speed>4.8</speed>
<course>2.8</course>
<desc>Speed 4.8 km/h Distance 4.15 km</desc>
<time>2010-02-27T10:51:12.86</time>
<name>2949</name>
</trkpt>
<trkpt lat="48.954932" lon="8.644425">
<ele>247.0</ele>
<speed>5.9</speed>
<course>1.2</course>
<desc>Speed 5.9 km/h Distance 4.15 km</desc>
<time>2010-02-27T10:51:13.86</time>
<name>2950</name>
</trkpt>
<trkpt lat="48.954945" lon="8.644425">
<ele>246.5</ele>
<speed>5.1</speed>
<course>354.7</course>
<desc>Speed 5.1 km/h Distance 4.15 km</desc>
<time>2010-02-27T10:51:14.86</time>
<name>2951</name>
</trkpt>
<trkpt lat="48.954958" lon="8.644423">
<ele>246.0</ele>
<speed>5.0</speed>
<course>7.7</course>
<desc>Speed 5.0 km/h Distance 4.15 km</desc>
<time>2010-02-27T10:51:15.86</time>
<name>2952</name>
</trkpt>
<trkpt lat="48.954967" lon="8.644425">
<ele>246.0</ele>
<speed>3.8</speed>
<course>5.3</course>
<desc>Speed 3.8 km/h Distance 4.15 km</desc>
<time>2010-02-27T10:51:16.87</time>
<name>2953</name>
</trkpt>
<trkpt lat="48.954980" lon="8.644427">
<ele>246.0</ele>
<speed>5.1</speed>
<course>12.6</course>
<desc>Speed 5.1 km/h Distance 4.15 km</desc>
<time>2010-02-27T10:51:17.86</time>
<name>2954</name>
</trkpt>
<trkpt lat="48.954990" lon="8.644430">
<ele>245.5</ele>
<speed>3.6</speed>
<course>16.0</course>
<desc>Speed 3.6 km/h Distance 4.15 km</desc>
<time>2010-02-27T10:51:18.87</time>
<name>2955</name>
</trkpt>
<trkpt lat="48.955002" lon="8.644435">
<ele>245.0</ele>
<speed>4.3</speed>
<course>2.2</course>
<desc>Speed 4.3 km/h Distance 4.16 km</desc>
<time>2010-02-27T10:51:19.87</time>
<name>2956</name>
</trkpt>
<trkpt lat="48.955013" lon="8.644435">
<ele>245.0</ele>
<speed>4.6</speed>
<course>12.6</course>
<desc>Speed 4.6 km/h Distance 4.16 km</desc>
<time>2010-02-27T10:51:20.87</time>
<name>2957</name>
</trkpt>
<trkpt lat="48.955023" lon="8.644438">
<ele>245.0</ele>
<speed>4.2</speed>
<course>12.6</course>
<desc>Speed 4.2 km/h Distance 4.16 km</desc>
<time>2010-02-27T10:51:21.87</time>
<name>2958</name>
</trkpt>
<trkpt lat="48.955033" lon="8.644442">
<ele>244.5</ele>
<speed>4.0</speed>
<course>21.5</course>
<desc>Speed 4.0 km/h Distance 4.16 km</desc>
<time>2010-02-27T10:51:22.86</time>
<name>2959</name>
</trkpt>
<trkpt lat="48.955042" lon="8.644447">
<ele>244.0</ele>
<speed>3.3</speed>
<course>27.9</course>
<desc>Speed 3.3 km/h Distance 4.16 km</desc>
<time>2010-02-27T10:51:23.86</time>
<name>2960</name>
</trkpt>
<trkpt lat="48.955050" lon="8.644453">
<ele>243.5</ele>
<speed>3.2</speed>
<course>14.9</course>
<desc>Speed 3.2 km/h Distance 4.16 km</desc>
<time>2010-02-27T10:51:24.86</time>
<name>2961</name>
</trkpt>
<trkpt lat="48.955058" lon="8.644457">
<ele>243.0</ele>
<speed>3.4</speed>
<course>47.4</course>
<desc>Speed 3.4 km/h Distance 4.16 km</desc>
<time>2010-02-27T10:51:25.86</time>
<name>2962</name>
</trkpt>
<trkpt lat="48.955063" lon="8.644465">
<ele>242.0</ele>
<speed>3.0</speed>
<course>42.6</course>
<desc>Speed 3.0 km/h Distance 4.16 km</desc>
<time>2010-02-27T10:51:26.86</time>
<name>2963</name>
</trkpt>
<trkpt lat="48.955072" lon="8.644477">
<ele>241.5</ele>
<speed>3.5</speed>
<course>9.0</course>
<desc>Speed 3.5 km/h Distance 4.16 km</desc>
<time>2010-02-27T10:51:27.86</time>
<name>2964</name>
</trkpt>
<trkpt lat="48.955085" lon="8.644480">
<ele>241.0</ele>
<speed>5.0</speed>
<course>33.2</course>
<desc>Speed 5.0 km/h Distance 4.17 km</desc>
<time>2010-02-27T10:51:28.86</time>
<name>2965</name>
</trkpt>
<trkpt lat="48.955095" lon="8.644490">
<ele>241.0</ele>
<speed>4.7</speed>
<course>27.9</course>
<desc>Speed 4.7 km/h Distance 4.17 km</desc>
<time>2010-02-27T10:51:29.86</time>
<name>2966</name>
</trkpt>
<trkpt lat="48.955103" lon="8.644497">
<ele>240.5</ele>
<speed>3.6</speed>
<course>38.1</course>
<desc>Speed 3.6 km/h Distance 4.17 km</desc>
<time>2010-02-27T10:51:30.85</time>
<name>2967</name>
</trkpt>
<trkpt lat="48.955112" lon="8.644507">
<ele>239.5</ele>
<speed>2.8</speed>
<course>14.9</course>
<desc>Speed 2.8 km/h Distance 4.17 km</desc>
<time>2010-02-27T10:51:31.86</time>
<name>2968</name>
</trkpt>
<trkpt lat="48.955120" lon="8.644510">
<ele>239.5</ele>
<speed>2.8</speed>
<course>26.4</course>
<desc>Speed 2.8 km/h Distance 4.17 km</desc>
<time>2010-02-27T10:51:32.86</time>
<name>2969</name>
</trkpt>
<trkpt lat="48.955127" lon="8.644515">
<ele>239.0</ele>
<speed>3.2</speed>
<course>26.4</course>
<desc>Speed 3.2 km/h Distance 4.17 km</desc>
<time>2010-02-27T10:51:33.86</time>
<name>2970</name>
</trkpt>
<trkpt lat="48.955140" lon="8.644525">
<ele>238.5</ele>
<speed>5.1</speed>
<course>23.8</course>
<desc>Speed 5.1 km/h Distance 4.17 km</desc>
<time>2010-02-27T10:51:34.86</time>
<name>2971</name>
</trkpt>
<trkpt lat="48.955150" lon="8.644532">
<ele>238.0</ele>
<speed>3.9</speed>
<course>41.4</course>
<desc>Speed 3.9 km/h Distance 4.17 km</desc>
<time>2010-02-27T10:51:35.86</time>
<name>2972</name>
</trkpt>
<trkpt lat="48.955155" lon="8.644538">
<ele>237.0</ele>
<speed>2.5</speed>
<course>0.0</course>
<desc>Speed 2.5 km/h Distance 4.18 km</desc>
<time>2010-02-27T10:51:36.86</time>
<name>2973</name>
</trkpt>
<trkpt lat="48.955163" lon="8.644538">
<ele>237.0</ele>
<speed>2.7</speed>
<course>4.4</course>
<desc>Speed 2.7 km/h Distance 4.18 km</desc>
<time>2010-02-27T10:51:37.86</time>
<name>2974</name>
</trkpt>
<trkpt lat="48.955173" lon="8.644540">
<ele>237.0</ele>
<speed>3.3</speed>
<course>7.4</course>
<desc>Speed 3.3 km/h Distance 4.18 km</desc>
<time>2010-02-27T10:51:38.86</time>
<name>2975</name>
</trkpt>
<trkpt lat="48.955180" lon="8.644542">
<ele>236.5</ele>
<speed>3.3</speed>
<course>7.4</course>
<desc>Speed 3.3 km/h Distance 4.18 km</desc>
<time>2010-02-27T10:51:39.85</time>
<name>2976</name>
</trkpt>
<trkpt lat="48.955187" lon="8.644543">
<ele>236.5</ele>
<speed>3.0</speed>
<course>4.7</course>
<desc>Speed 3.0 km/h Distance 4.18 km</desc>
<time>2010-02-27T10:51:40.85</time>
<name>2977</name>
</trkpt>
<trkpt lat="48.955198" lon="8.644545">
<ele>236.5</ele>
<speed>4.0</speed>
<course>15.5</course>
<desc>Speed 4.0 km/h Distance 4.18 km</desc>
<time>2010-02-27T10:51:41.86</time>
<name>2978</name>
</trkpt>
<trkpt lat="48.955210" lon="8.644550">
<ele>236.5</ele>
<speed>4.5</speed>
<course>355.0</course>
<desc>Speed 4.5 km/h Distance 4.18 km</desc>
<time>2010-02-27T10:51:42.85</time>
<name>2979</name>
</trkpt>
<trkpt lat="48.955235" lon="8.644547">
<ele>239.5</ele>
<speed>4.8</speed>
<course>14.0</course>
<desc>Speed 4.8 km/h Distance 4.18 km</desc>
<time>2010-02-27T10:51:43.86</time>
<name>2980</name>
</trkpt>
<trkpt lat="48.955248" lon="8.644552">
<ele>239.5</ele>
<speed>5.0</speed>
<course>12.6</course>
<desc>Speed 5.0 km/h Distance 4.19 km</desc>
<time>2010-02-27T10:51:44.86</time>
<name>2981</name>
</trkpt>
<trkpt lat="48.955258" lon="8.644555">
<ele>239.0</ele>
<speed>3.6</speed>
<course>18.8</course>
<desc>Speed 3.6 km/h Distance 4.19 km</desc>
<time>2010-02-27T10:51:45.86</time>
<name>2982</name>
</trkpt>
<trkpt lat="48.955265" lon="8.644558">
<ele>238.5</ele>
<speed>2.9</speed>
<course>354.7</course>
<desc>Speed 2.9 km/h Distance 4.19 km</desc>
<time>2010-02-27T10:51:46.85</time>
<name>2983</name>
</trkpt>
<trkpt lat="48.955278" lon="8.644557">
<ele>237.5</ele>
<speed>4.2</speed>
<course>3.8</course>
<desc>Speed 4.2 km/h Distance 4.19 km</desc>
<time>2010-02-27T10:51:47.85</time>
<name>2984</name>
</trkpt>
<trkpt lat="48.955293" lon="8.644557">
<ele>238.0</ele>
<speed>5.1</speed>
<course>21.6</course>
<desc>Speed 5.1 km/h Distance 4.19 km</desc>
<time>2010-02-27T10:51:48.85</time>
<name>2985</name>
</trkpt>
<trkpt lat="48.955310" lon="8.644567">
<ele>237.0</ele>
<speed>4.9</speed>
<course>26.4</course>
<desc>Speed 4.9 km/h Distance 4.19 km</desc>
<time>2010-02-27T10:51:49.86</time>
<name>2986</name>
</trkpt>
<trkpt lat="48.955323" lon="8.644577">
<ele>236.5</ele>
<speed>3.9</speed>
<course>33.5</course>
<desc>Speed 3.9 km/h Distance 4.19 km</desc>
<time>2010-02-27T10:51:50.84</time>
<name>2987</name>
</trkpt>
<trkpt lat="48.955332" lon="8.644585">
<ele>235.5</ele>
<speed>3.2</speed>
<course>33.2</course>
<desc>Speed 3.2 km/h Distance 4.20 km</desc>
<time>2010-02-27T10:51:51.85</time>
<name>2988</name>
</trkpt>
<trkpt lat="48.955342" lon="8.644595">
<ele>235.0</ele>
<speed>4.2</speed>
<course>26.2</course>
<desc>Speed 4.2 km/h Distance 4.20 km</desc>
<time>2010-02-27T10:51:52.85</time>
<name>2989</name>
</trkpt>
<trkpt lat="48.955355" lon="8.644605">
<ele>234.5</ele>
<speed>4.8</speed>
<course>47.4</course>
<desc>Speed 4.8 km/h Distance 4.20 km</desc>
<time>2010-02-27T10:51:53.85</time>
<name>2990</name>
</trkpt>
<trkpt lat="48.955360" lon="8.644613">
<ele>234.0</ele>
<speed>2.3</speed>
<course>67.4</course>
<desc>Speed 2.3 km/h Distance 4.20 km</desc>
<time>2010-02-27T10:51:54.85</time>
<name>2991</name>
</trkpt>
<trkpt lat="48.955365" lon="8.644632">
<ele>234.0</ele>
<speed>4.2</speed>
<course>41.2</course>
<desc>Speed 4.2 km/h Distance 4.20 km</desc>
<time>2010-02-27T10:51:55.85</time>
<name>2992</name>
</trkpt>
<trkpt lat="48.955375" lon="8.644645">
<ele>233.5</ele>
<speed>3.8</speed>
<course>47.1</course>
<desc>Speed 3.8 km/h Distance 4.20 km</desc>
<time>2010-02-27T10:51:56.85</time>
<name>2993</name>
</trkpt>
<trkpt lat="48.955380" lon="8.644653">
<ele>232.5</ele>
<speed>1.5</speed>
<course>53.0</course>
<desc>Speed 1.5 km/h Distance 4.20 km</desc>
<time>2010-02-27T10:51:57.84</time>
<name>2994</name>
</trkpt>
<trkpt lat="48.955383" lon="8.644660">
<ele>232.0</ele>
<speed>2.2</speed>
<course>28.6</course>
<desc>Speed 2.2 km/h Distance 4.20 km</desc>
<time>2010-02-27T10:51:58.85</time>
<name>2995</name>
</trkpt>
<trkpt lat="48.955393" lon="8.644668">
<ele>232.0</ele>
<speed>3.4</speed>
<course>13.5</course>
<desc>Speed 3.4 km/h Distance 4.20 km</desc>
<time>2010-02-27T10:51:59.84</time>
<name>2996</name>
</trkpt>
<trkpt lat="48.955407" lon="8.644673">
<ele>231.5</ele>
<speed>5.3</speed>
<course>18.1</course>
<desc>Speed 5.3 km/h Distance 4.21 km</desc>
<time>2010-02-27T10:52:00.85</time>
<name>2997</name>
</trkpt>
<trkpt lat="48.955420" lon="8.644680">
<ele>231.5</ele>
<speed>5.0</speed>
<course>9.0</course>
<desc>Speed 5.0 km/h Distance 4.21 km</desc>
<time>2010-02-27T10:52:01.85</time>
<name>2998</name>
</trkpt>
<trkpt lat="48.955433" lon="8.644683">
<ele>231.0</ele>
<speed>5.3</speed>
<course>18.1</course>
<desc>Speed 5.3 km/h Distance 4.21 km</desc>
<time>2010-02-27T10:52:02.85</time>
<name>2999</name>
</trkpt>
<trkpt lat="48.955447" lon="8.644690">
<ele>231.0</ele>
<speed>5.0</speed>
<course>20.2</course>
<desc>Speed 5.0 km/h Distance 4.21 km</desc>
<time>2010-02-27T10:52:03.85</time>
<name>3000</name>
</trkpt>
<trkpt lat="48.955458" lon="8.644697">
<ele>231.0</ele>
<speed>5.0</speed>
<course>15.3</course>
<desc>Speed 5.0 km/h Distance 4.21 km</desc>
<time>2010-02-27T10:52:04.85</time>
<name>3001</name>
</trkpt>
<trkpt lat="48.955478" lon="8.644705">
<ele>232.0</ele>
<speed>5.6</speed>
<course>7.0</course>
<desc>Speed 5.6 km/h Distance 4.21 km</desc>
<time>2010-02-27T10:52:05.84</time>
<name>3002</name>
</trkpt>
<trkpt lat="48.955497" lon="8.644708">
<ele>232.5</ele>
<speed>5.4</speed>
<course>20.9</course>
<desc>Speed 5.4 km/h Distance 4.22 km</desc>
<time>2010-02-27T10:52:06.83</time>
<name>3003</name>
</trkpt>
<trkpt lat="48.955508" lon="8.644715">
<ele>232.0</ele>
<speed>4.6</speed>
<course>2.2</course>
<desc>Speed 4.6 km/h Distance 4.22 km</desc>
<time>2010-02-27T10:52:07.83</time>
<name>3004</name>
</trkpt>
<trkpt lat="48.955532" lon="8.644715">
<ele>232.5</ele>
<speed>4.5</speed>
<course>1.8</course>
<desc>Speed 4.5 km/h Distance 4.22 km</desc>
<time>2010-02-27T10:52:08.83</time>
<name>3005</name>
</trkpt>
<trkpt lat="48.955593" lon="8.644718">
<ele>234.0</ele>
<speed>6.4</speed>
<course>15.5</course>
<desc>Speed 6.4 km/h Distance 4.23 km</desc>
<time>2010-02-27T10:52:10.84</time>
<name>3006</name>
</trkpt>
<trkpt lat="48.955605" lon="8.644723">
<ele>234.0</ele>
<speed>4.9</speed>
<course>8.1</course>
<desc>Speed 4.9 km/h Distance 4.23 km</desc>
<time>2010-02-27T10:52:11.83</time>
<name>3007</name>
</trkpt>
<trkpt lat="48.955628" lon="8.644728">
<ele>234.5</ele>
<speed>5.5</speed>
<course>20.3</course>
<desc>Speed 5.5 km/h Distance 4.23 km</desc>
<time>2010-02-27T10:52:12.84</time>
<name>3008</name>
</trkpt>
<trkpt lat="48.955643" lon="8.644737">
<ele>234.5</ele>
<speed>5.4</speed>
<course>18.1</course>
<desc>Speed 5.4 km/h Distance 4.23 km</desc>
<time>2010-02-27T10:52:13.84</time>
<name>3009</name>
</trkpt>
<trkpt lat="48.955657" lon="8.644743">
<ele>235.0</ele>
<speed>5.4</speed>
<course>8.3</course>
<desc>Speed 5.4 km/h Distance 4.23 km</desc>
<time>2010-02-27T10:52:14.84</time>
<name>3010</name>
</trkpt>
<trkpt lat="48.955687" lon="8.644750">
<ele>236.0</ele>
<speed>5.3</speed>
<course>8.4</course>
<desc>Speed 5.3 km/h Distance 4.24 km</desc>
<time>2010-02-27T10:52:15.84</time>
<name>3011</name>
</trkpt>
<trkpt lat="48.955708" lon="8.644755">
<ele>236.5</ele>
<speed>3.8</speed>
<course>9.2</course>
<desc>Speed 3.8 km/h Distance 4.24 km</desc>
<time>2010-02-27T10:52:16.84</time>
<name>3012</name>
</trkpt>
<trkpt lat="48.955728" lon="8.644760">
<ele>236.5</ele>
<speed>5.4</speed>
<course>8.8</course>
<desc>Speed 5.4 km/h Distance 4.24 km</desc>
<time>2010-02-27T10:52:17.84</time>
<name>3013</name>
</trkpt>
<trkpt lat="48.955748" lon="8.644765">
<ele>237.0</ele>
<speed>5.4</speed>
<course>16.0</course>
<desc>Speed 5.4 km/h Distance 4.25 km</desc>
<time>2010-02-27T10:52:18.84</time>
<name>3014</name>
</trkpt>
<trkpt lat="48.955760" lon="8.644770">
<ele>237.0</ele>
<speed>4.8</speed>
<course>18.1</course>
<desc>Speed 4.8 km/h Distance 4.25 km</desc>
<time>2010-02-27T10:52:19.83</time>
<name>3015</name>
</trkpt>
<trkpt lat="48.955773" lon="8.644777">
<ele>237.0</ele>
<speed>5.3</speed>
<course>25.5</course>
<desc>Speed 5.3 km/h Distance 4.25 km</desc>
<time>2010-02-27T10:52:20.83</time>
<name>3016</name>
</trkpt>
<trkpt lat="48.955792" lon="8.644790">
<ele>238.0</ele>
<speed>5.7</speed>
<course>9.0</course>
<desc>Speed 5.7 km/h Distance 4.25 km</desc>
<time>2010-02-27T10:52:21.84</time>
<name>3017</name>
</trkpt>
<trkpt lat="48.955813" lon="8.644795">
<ele>238.5</ele>
<speed>5.3</speed>
<course>43.3</course>
<desc>Speed 5.3 km/h Distance 4.25 km</desc>
<time>2010-02-27T10:52:22.84</time>
<name>3018</name>
</trkpt>
<trkpt lat="48.955825" lon="8.644812">
<ele>239.0</ele>
<speed>6.2</speed>
<course>25.2</course>
<desc>Speed 6.2 km/h Distance 4.25 km</desc>
<time>2010-02-27T10:52:23.83</time>
<name>3019</name>
</trkpt>
<trkpt lat="48.955837" lon="8.644820">
<ele>239.0</ele>
<speed>5.6</speed>
<course>20.6</course>
<desc>Speed 5.6 km/h Distance 4.26 km</desc>
<time>2010-02-27T10:52:24.84</time>
<name>3020</name>
</trkpt>
<trkpt lat="48.955848" lon="8.644827">
<ele>239.0</ele>
<speed>5.1</speed>
<course>20.2</course>
<desc>Speed 5.1 km/h Distance 4.26 km</desc>
<time>2010-02-27T10:52:25.84</time>
<name>3021</name>
</trkpt>
<trkpt lat="48.955860" lon="8.644833">
<ele>238.5</ele>
<speed>4.6</speed>
<course>14.0</course>
<desc>Speed 4.6 km/h Distance 4.26 km</desc>
<time>2010-02-27T10:52:26.84</time>
<name>3022</name>
</trkpt>
<trkpt lat="48.955882" lon="8.644842">
<ele>239.5</ele>
<speed>5.3</speed>
<course>20.6</course>
<desc>Speed 5.3 km/h Distance 4.26 km</desc>
<time>2010-02-27T10:52:27.83</time>
<name>3023</name>
</trkpt>
<trkpt lat="48.955893" lon="8.644848">
<ele>239.5</ele>
<speed>4.8</speed>
<course>20.9</course>
<desc>Speed 4.8 km/h Distance 4.26 km</desc>
<time>2010-02-27T10:52:28.83</time>
<name>3024</name>
</trkpt>
<trkpt lat="48.955905" lon="8.644855">
<ele>239.5</ele>
<speed>4.8</speed>
<course>29.4</course>
<desc>Speed 4.8 km/h Distance 4.26 km</desc>
<time>2010-02-27T10:52:29.83</time>
<name>3025</name>
</trkpt>
<trkpt lat="48.955917" lon="8.644865">
<ele>239.5</ele>
<speed>5.1</speed>
<course>16.6</course>
<desc>Speed 5.1 km/h Distance 4.27 km</desc>
<time>2010-02-27T10:52:30.83</time>
<name>3026</name>
</trkpt>
<trkpt lat="48.955935" lon="8.644873">
<ele>240.5</ele>
<speed>4.7</speed>
<course>37.5</course>
<desc>Speed 4.7 km/h Distance 4.27 km</desc>
<time>2010-02-27T10:52:31.83</time>
<name>3027</name>
</trkpt>
<trkpt lat="48.955945" lon="8.644885">
<ele>240.5</ele>
<speed>5.1</speed>
<course>38.1</course>
<desc>Speed 5.1 km/h Distance 4.27 km</desc>
<time>2010-02-27T10:52:32.83</time>
<name>3028</name>
</trkpt>
<trkpt lat="48.955953" lon="8.644895">
<ele>239.5</ele>
<speed>4.1</speed>
<course>55.9</course>
<desc>Speed 4.1 km/h Distance 4.27 km</desc>
<time>2010-02-27T10:52:33.83</time>
<name>3029</name>
</trkpt>
<trkpt lat="48.955960" lon="8.644910">
<ele>239.5</ele>
<speed>4.2</speed>
<course>46.5</course>
<desc>Speed 4.2 km/h Distance 4.27 km</desc>
<time>2010-02-27T10:52:34.83</time>
<name>3030</name>
</trkpt>
<trkpt lat="48.955968" lon="8.644923">
<ele>239.5</ele>
<speed>4.2</speed>
<course>82.1</course>
<desc>Speed 4.2 km/h Distance 4.27 km</desc>
<time>2010-02-27T10:52:35.84</time>
<name>3031</name>
</trkpt>
<trkpt lat="48.955970" lon="8.644942">
<ele>239.0</ele>
<speed>4.7</speed>
<course>90.0</course>
<desc>Speed 4.7 km/h Distance 4.27 km</desc>
<time>2010-02-27T10:52:36.86</time>
<name>3032</name>
</trkpt>
<trkpt lat="48.955970" lon="8.644960">
<ele>239.0</ele>
<speed>4.2</speed>
<course>98.7</course>
<desc>Speed 4.2 km/h Distance 4.28 km</desc>
<time>2010-02-27T10:52:37.82</time>
<name>3033</name>
</trkpt>
<trkpt lat="48.955968" lon="8.644977">
<ele>238.0</ele>
<speed>4.2</speed>
<course>103.2</course>
<desc>Speed 4.2 km/h Distance 4.28 km</desc>
<time>2010-02-27T10:52:38.83</time>
<name>3034</name>
</trkpt>
<trkpt lat="48.955965" lon="8.644998">
<ele>237.5</ele>
<speed>5.2</speed>
<course>110.8</course>
<desc>Speed 5.2 km/h Distance 4.28 km</desc>
<time>2010-02-27T10:52:39.83</time>
<name>3035</name>
</trkpt>
<trkpt lat="48.955960" lon="8.645018">
<ele>238.0</ele>
<speed>5.5</speed>
<course>110.8</course>
<desc>Speed 5.5 km/h Distance 4.28 km</desc>
<time>2010-02-27T10:52:40.83</time>
<name>3036</name>
</trkpt>
<trkpt lat="48.955955" lon="8.645038">
<ele>238.5</ele>
<speed>5.4</speed>
<course>83.3</course>
<desc>Speed 5.4 km/h Distance 4.28 km</desc>
<time>2010-02-27T10:52:41.83</time>
<name>3037</name>
</trkpt>
<trkpt lat="48.955957" lon="8.645060">
<ele>239.5</ele>
<speed>5.2</speed>
<course>105.5</course>
<desc>Speed 5.2 km/h Distance 4.28 km</desc>
<time>2010-02-27T10:52:42.83</time>
<name>3038</name>
</trkpt>
<trkpt lat="48.955953" lon="8.645078">
<ele>239.5</ele>
<speed>5.3</speed>
<course>112.6</course>
<desc>Speed 5.3 km/h Distance 4.28 km</desc>
<time>2010-02-27T10:52:43.83</time>
<name>3039</name>
</trkpt>
<trkpt lat="48.955948" lon="8.645097">
<ele>239.5</ele>
<speed>5.2</speed>
<course>104.2</course>
<desc>Speed 5.2 km/h Distance 4.29 km</desc>
<time>2010-02-27T10:52:44.82</time>
<name>3040</name>
</trkpt>
<trkpt lat="48.955945" lon="8.645117">
<ele>239.5</ele>
<speed>5.2</speed>
<course>105.5</course>
<desc>Speed 5.2 km/h Distance 4.29 km</desc>
<time>2010-02-27T10:52:45.85</time>
<name>3041</name>
</trkpt>
<trkpt lat="48.955942" lon="8.645135">
<ele>239.0</ele>
<speed>5.3</speed>
<course>37.5</course>
<desc>Speed 5.3 km/h Distance 4.29 km</desc>
<time>2010-02-27T10:52:46.82</time>
<name>3042</name>
</trkpt>
<trkpt lat="48.955952" lon="8.645147">
<ele>240.0</ele>
<speed>5.1</speed>
<course>104.3</course>
<desc>Speed 5.1 km/h Distance 4.29 km</desc>
<time>2010-02-27T10:52:47.82</time>
<name>3043</name>
</trkpt>
<trkpt lat="48.955948" lon="8.645167">
<ele>239.5</ele>
<speed>5.0</speed>
<course>104.2</course>
<desc>Speed 5.0 km/h Distance 4.29 km</desc>
<time>2010-02-27T10:52:48.82</time>
<name>3044</name>
</trkpt>
<trkpt lat="48.955945" lon="8.645187">
<ele>239.5</ele>
<speed>5.1</speed>
<course>106.9</course>
<desc>Speed 5.1 km/h Distance 4.29 km</desc>
<time>2010-02-27T10:52:49.82</time>
<name>3045</name>
</trkpt>
<trkpt lat="48.955942" lon="8.645203">
<ele>239.0</ele>
<speed>4.2</speed>
<course>97.9</course>
<desc>Speed 4.2 km/h Distance 4.29 km</desc>
<time>2010-02-27T10:52:50.85</time>
<name>3046</name>
</trkpt>
<trkpt lat="48.955940" lon="8.645222">
<ele>238.5</ele>
<speed>4.9</speed>
<course>105.5</course>
<desc>Speed 4.9 km/h Distance 4.30 km</desc>
<time>2010-02-27T10:52:51.82</time>
<name>3047</name>
</trkpt>
<trkpt lat="48.955937" lon="8.645240">
<ele>238.5</ele>
<speed>5.1</speed>
<course>82.1</course>
<desc>Speed 5.1 km/h Distance 4.30 km</desc>
<time>2010-02-27T10:52:52.82</time>
<name>3048</name>
</trkpt>
<trkpt lat="48.955938" lon="8.645258">
<ele>238.5</ele>
<speed>5.1</speed>
<course>112.5</course>
<desc>Speed 5.1 km/h Distance 4.30 km</desc>
<time>2010-02-27T10:52:53.82</time>
<name>3049</name>
</trkpt>
<trkpt lat="48.955933" lon="8.645277">
<ele>238.5</ele>
<speed>5.2</speed>
<course>105.4</course>
<desc>Speed 5.2 km/h Distance 4.30 km</desc>
<time>2010-02-27T10:52:54.82</time>
<name>3050</name>
</trkpt>
<trkpt lat="48.955930" lon="8.645295">
<ele>238.5</ele>
<speed>4.9</speed>
<course>98.7</course>
<desc>Speed 4.9 km/h Distance 4.30 km</desc>
<time>2010-02-27T10:52:55.82</time>
<name>3051</name>
</trkpt>
<trkpt lat="48.955928" lon="8.645312">
<ele>238.0</ele>
<speed>4.1</speed>
<course>108.7</course>
<desc>Speed 4.1 km/h Distance 4.30 km</desc>
<time>2010-02-27T10:52:56.83</time>
<name>3052</name>
</trkpt>
<trkpt lat="48.955925" lon="8.645327">
<ele>237.5</ele>
<speed>4.5</speed>
<course>114.6</course>
<desc>Speed 4.5 km/h Distance 4.30 km</desc>
<time>2010-02-27T10:52:57.82</time>
<name>3053</name>
</trkpt>
<trkpt lat="48.955920" lon="8.645343">
<ele>237.0</ele>
<speed>4.9</speed>
<course>105.5</course>
<desc>Speed 4.9 km/h Distance 4.31 km</desc>
<time>2010-02-27T10:52:58.82</time>
<name>3054</name>
</trkpt>
<trkpt lat="48.955917" lon="8.645362">
<ele>236.5</ele>
<speed>4.9</speed>
<course>112.6</course>
<desc>Speed 4.9 km/h Distance 4.31 km</desc>
<time>2010-02-27T10:52:59.82</time>
<name>3055</name>
</trkpt>
<trkpt lat="48.955912" lon="8.645380">
<ele>236.5</ele>
<speed>4.9</speed>
<course>63.0</course>
<desc>Speed 4.9 km/h Distance 4.31 km</desc>
<time>2010-02-27T10:53:00.82</time>
<name>3056</name>
</trkpt>
<trkpt lat="48.955917" lon="8.645395">
<ele>237.0</ele>
<speed>4.5</speed>
<course>90.0</course>
<desc>Speed 4.5 km/h Distance 4.31 km</desc>
<time>2010-02-27T10:53:01.82</time>
<name>3057</name>
</trkpt>
<trkpt lat="48.955917" lon="8.645412">
<ele>237.0</ele>
<speed>4.8</speed>
<course>105.5</course>
<desc>Speed 4.8 km/h Distance 4.31 km</desc>
<time>2010-02-27T10:53:02.82</time>
<name>3058</name>
</trkpt>
<trkpt lat="48.955913" lon="8.645430">
<ele>237.0</ele>
<speed>4.7</speed>
<course>119.0</course>
<desc>Speed 4.7 km/h Distance 4.31 km</desc>
<time>2010-02-27T10:53:03.82</time>
<name>3059</name>
</trkpt>
<trkpt lat="48.955907" lon="8.645448">
<ele>237.0</ele>
<speed>5.3</speed>
<course>112.5</course>
<desc>Speed 5.3 km/h Distance 4.31 km</desc>
<time>2010-02-27T10:53:04.82</time>
<name>3060</name>
</trkpt>
<trkpt lat="48.955902" lon="8.645467">
<ele>237.0</ele>
<speed>5.1</speed>
<course>105.4</course>
<desc>Speed 5.1 km/h Distance 4.32 km</desc>
<time>2010-02-27T10:53:05.85</time>
<name>3061</name>
</trkpt>
<trkpt lat="48.955898" lon="8.645485">
<ele>237.0</ele>
<speed>5.3</speed>
<course>119.0</course>
<desc>Speed 5.3 km/h Distance 4.32 km</desc>
<time>2010-02-27T10:53:06.82</time>
<name>3062</name>
</trkpt>
<trkpt lat="48.955892" lon="8.645503">
<ele>237.0</ele>
<speed>4.9</speed>
<course>98.7</course>
<desc>Speed 4.9 km/h Distance 4.32 km</desc>
<time>2010-02-27T10:53:07.82</time>
<name>3063</name>
</trkpt>
<trkpt lat="48.955890" lon="8.645520">
<ele>237.5</ele>
<speed>5.2</speed>
<course>90.0</course>
<desc>Speed 5.2 km/h Distance 4.32 km</desc>
<time>2010-02-27T10:53:08.82</time>
<name>3064</name>
</trkpt>
<trkpt lat="48.955890" lon="8.645537">
<ele>238.0</ele>
<speed>5.4</speed>
<course>121.3</course>
<desc>Speed 5.4 km/h Distance 4.32 km</desc>
<time>2010-02-27T10:53:09.82</time>
<name>3065</name>
</trkpt>
<trkpt lat="48.955883" lon="8.645553">
<ele>238.0</ele>
<speed>5.4</speed>
<course>127.3</course>
<desc>Speed 5.4 km/h Distance 4.32 km</desc>
<time>2010-02-27T10:53:10.82</time>
<name>3066</name>
</trkpt>
<trkpt lat="48.955877" lon="8.645567">
<ele>239.0</ele>
<speed>5.1</speed>
<course>133.6</course>
<desc>Speed 5.1 km/h Distance 4.32 km</desc>
<time>2010-02-27T10:53:11.81</time>
<name>3067</name>
</trkpt>
<trkpt lat="48.955868" lon="8.645580">
<ele>238.5</ele>
<speed>4.8</speed>
<course>110.8</course>
<desc>Speed 4.8 km/h Distance 4.32 km</desc>
<time>2010-02-27T10:53:12.84</time>
<name>3068</name>
</trkpt>
<trkpt lat="48.955865" lon="8.645593">
<ele>238.5</ele>
<speed>4.4</speed>
<course>116.9</course>
<desc>Speed 4.4 km/h Distance 4.33 km</desc>
<time>2010-02-27T10:53:13.81</time>
<name>3069</name>
</trkpt>
<trkpt lat="48.955860" lon="8.645608">
<ele>238.0</ele>
<speed>4.8</speed>
<course>127.6</course>
<desc>Speed 4.8 km/h Distance 4.33 km</desc>
<time>2010-02-27T10:53:14.81</time>
<name>3070</name>
</trkpt>
<trkpt lat="48.955855" lon="8.645618">
<ele>238.5</ele>
<speed>4.0</speed>
<course>121.4</course>
<desc>Speed 4.0 km/h Distance 4.33 km</desc>
<time>2010-02-27T10:53:15.81</time>
<name>3071</name>
</trkpt>
<trkpt lat="48.955852" lon="8.645627">
<ele>238.0</ele>
<speed>4.0</speed>
<course>146.8</course>
<desc>Speed 4.0 km/h Distance 4.33 km</desc>
<time>2010-02-27T10:53:16.84</time>
<name>3072</name>
</trkpt>
<trkpt lat="48.955843" lon="8.645635">
<ele>237.5</ele>
<speed>4.0</speed>
<course>127.0</course>
<desc>Speed 4.0 km/h Distance 4.33 km</desc>
<time>2010-02-27T10:53:17.81</time>
<name>3073</name>
</trkpt>
<trkpt lat="48.955840" lon="8.645642">
<ele>237.5</ele>
<speed>3.5</speed>
<course>116.6</course>
<desc>Speed 3.5 km/h Distance 4.33 km</desc>
<time>2010-02-27T10:53:18.81</time>
<name>3074</name>
</trkpt>
<trkpt lat="48.955838" lon="8.645647">
<ele>238.0</ele>
<speed>2.5</speed>
<course>135.2</course>
<desc>Speed 2.5 km/h Distance 4.33 km</desc>
<time>2010-02-27T10:53:19.84</time>
<name>3075</name>
</trkpt>
<trkpt lat="48.955832" lon="8.645657">
<ele>238.0</ele>
<speed>4.0</speed>
<course>140.6</course>
<desc>Speed 4.0 km/h Distance 4.33 km</desc>
<time>2010-02-27T10:53:20.81</time>
<name>3076</name>
</trkpt>
<trkpt lat="48.955825" lon="8.645665">
<ele>238.0</ele>
<speed>3.6</speed>
<course>133.6</course>
<desc>Speed 3.6 km/h Distance 4.33 km</desc>
<time>2010-02-27T10:53:21.82</time>
<name>3077</name>
</trkpt>
<trkpt lat="48.955817" lon="8.645678">
<ele>238.0</ele>
<speed>4.5</speed>
<course>146.8</course>
<desc>Speed 4.5 km/h Distance 4.33 km</desc>
<time>2010-02-27T10:53:22.81</time>
<name>3078</name>
</trkpt>
<trkpt lat="48.955810" lon="8.645685">
<ele>237.0</ele>
<speed>3.1</speed>
<course>124.7</course>
<desc>Speed 3.1 km/h Distance 4.33 km</desc>
<time>2010-02-27T10:53:23.84</time>
<name>3079</name>
</trkpt>
<trkpt lat="48.955802" lon="8.645703">
<ele>237.5</ele>
<speed>4.4</speed>
<course>127.4</course>
<desc>Speed 4.4 km/h Distance 4.34 km</desc>
<time>2010-02-27T10:53:24.81</time>
<name>3080</name>
</trkpt>
<trkpt lat="48.955795" lon="8.645717">
<ele>237.0</ele>
<speed>4.1</speed>
<course>135.5</course>
<desc>Speed 4.1 km/h Distance 4.34 km</desc>
<time>2010-02-27T10:53:25.81</time>
<name>3081</name>
</trkpt>
<trkpt lat="48.955785" lon="8.645732">
<ele>236.5</ele>
<speed>5.9</speed>
<course>114.6</course>
<desc>Speed 5.9 km/h Distance 4.34 km</desc>
<time>2010-02-27T10:53:26.82</time>
<name>3082</name>
</trkpt>
<trkpt lat="48.955780" lon="8.645748">
<ele>236.5</ele>
<speed>4.4</speed>
<course>131.3</course>
<desc>Speed 4.4 km/h Distance 4.34 km</desc>
<time>2010-02-27T10:53:27.80</time>
<name>3083</name>
</trkpt>
<trkpt lat="48.955773" lon="8.645760">
<ele>236.5</ele>
<speed>4.1</speed>
<course>105.5</course>
<desc>Speed 4.1 km/h Distance 4.34 km</desc>
<time>2010-02-27T10:53:28.80</time>
<name>3084</name>
</trkpt>
<trkpt lat="48.955770" lon="8.645778">
<ele>237.0</ele>
<speed>5.1</speed>
<course>112.5</course>
<desc>Speed 5.1 km/h Distance 4.34 km</desc>
<time>2010-02-27T10:53:29.80</time>
<name>3085</name>
</trkpt>
<trkpt lat="48.955765" lon="8.645797">
<ele>237.0</ele>
<speed>4.6</speed>
<course>114.6</course>
<desc>Speed 4.6 km/h Distance 4.34 km</desc>
<time>2010-02-27T10:53:30.81</time>
<name>3086</name>
</trkpt>
<trkpt lat="48.955760" lon="8.645813">
<ele>238.0</ele>
<speed>5.0</speed>
<course>99.6</course>
<desc>Speed 5.0 km/h Distance 4.35 km</desc>
<time>2010-02-27T10:53:31.80</time>
<name>3087</name>
</trkpt>
<trkpt lat="48.955758" lon="8.645828">
<ele>238.5</ele>
<speed>3.5</speed>
<course>111.0</course>
<desc>Speed 3.5 km/h Distance 4.35 km</desc>
<time>2010-02-27T10:53:32.80</time>
<name>3088</name>
</trkpt>
<trkpt lat="48.955755" lon="8.645842">
<ele>238.5</ele>
<speed>4.1</speed>
<course>122.4</course>
<desc>Speed 4.1 km/h Distance 4.35 km</desc>
<time>2010-02-27T10:53:33.80</time>
<name>3089</name>
</trkpt>
<trkpt lat="48.955747" lon="8.645862">
<ele>238.5</ele>
<speed>6.4</speed>
<course>118.9</course>
<desc>Speed 6.4 km/h Distance 4.35 km</desc>
<time>2010-02-27T10:53:34.80</time>
<name>3090</name>
</trkpt>
<trkpt lat="48.955740" lon="8.645880">
<ele>239.0</ele>
<speed>5.2</speed>
<course>121.4</course>
<desc>Speed 5.2 km/h Distance 4.35 km</desc>
<time>2010-02-27T10:53:35.81</time>
<name>3091</name>
</trkpt>
<trkpt lat="48.955733" lon="8.645897">
<ele>239.0</ele>
<speed>5.1</speed>
<course>108.7</course>
<desc>Speed 5.1 km/h Distance 4.35 km</desc>
<time>2010-02-27T10:53:36.80</time>
<name>3092</name>
</trkpt>
<trkpt lat="48.955730" lon="8.645912">
<ele>239.5</ele>
<speed>4.0</speed>
<course>112.5</course>
<desc>Speed 4.0 km/h Distance 4.35 km</desc>
<time>2010-02-27T10:53:37.80</time>
<name>3093</name>
</trkpt>
<trkpt lat="48.955725" lon="8.645930">
<ele>239.5</ele>
<speed>4.5</speed>
<course>121.3</course>
<desc>Speed 4.5 km/h Distance 4.36 km</desc>
<time>2010-02-27T10:53:38.80</time>
<name>3094</name>
</trkpt>
<trkpt lat="48.955718" lon="8.645947">
<ele>239.5</ele>
<speed>5.1</speed>
<course>119.0</course>
<desc>Speed 5.1 km/h Distance 4.36 km</desc>
<time>2010-02-27T10:53:39.80</time>
<name>3095</name>
</trkpt>
<trkpt lat="48.955712" lon="8.645965">
<ele>239.0</ele>
<speed>4.6</speed>
<course>97.2</course>
<desc>Speed 4.6 km/h Distance 4.36 km</desc>
<time>2010-02-27T10:53:40.81</time>
<name>3096</name>
</trkpt>
<trkpt lat="48.955710" lon="8.645985">
<ele>239.5</ele>
<speed>4.2</speed>
<course>112.5</course>
<desc>Speed 4.2 km/h Distance 4.36 km</desc>
<time>2010-02-27T10:53:41.80</time>
<name>3097</name>
</trkpt>
<trkpt lat="48.955705" lon="8.646003">
<ele>240.0</ele>
<speed>4.4</speed>
<course>108.7</course>
<desc>Speed 4.4 km/h Distance 4.36 km</desc>
<time>2010-02-27T10:53:42.80</time>
<name>3098</name>
</trkpt>
<trkpt lat="48.955702" lon="8.646018">
<ele>240.5</ele>
<speed>4.0</speed>
<course>114.5</course>
<desc>Speed 4.0 km/h Distance 4.36 km</desc>
<time>2010-02-27T10:53:43.80</time>
<name>3099</name>
</trkpt>
<trkpt lat="48.955697" lon="8.646035">
<ele>241.0</ele>
<speed>4.4</speed>
<course>121.3</course>
<desc>Speed 4.4 km/h Distance 4.36 km</desc>
<time>2010-02-27T10:53:44.80</time>
<name>3100</name>
</trkpt>
<trkpt lat="48.955690" lon="8.646052">
<ele>241.5</ele>
<speed>4.4</speed>
<course>113.5</course>
<desc>Speed 4.4 km/h Distance 4.37 km</desc>
<time>2010-02-27T10:53:45.79</time>
<name>3101</name>
</trkpt>
<trkpt lat="48.955687" lon="8.646063">
<ele>241.5</ele>
<speed>3.3</speed>
<course>127.2</course>
<desc>Speed 3.3 km/h Distance 4.37 km</desc>
<time>2010-02-27T10:53:46.80</time>
<name>3102</name>
</trkpt>
<trkpt lat="48.955682" lon="8.646073">
<ele>241.5</ele>
<speed>3.0</speed>
<course>110.9</course>
<desc>Speed 3.0 km/h Distance 4.37 km</desc>
<time>2010-02-27T10:53:47.80</time>
<name>3103</name>
</trkpt>
<trkpt lat="48.955678" lon="8.646087">
<ele>241.5</ele>
<speed>3.6</speed>
<course>114.5</course>
<desc>Speed 3.6 km/h Distance 4.37 km</desc>
<time>2010-02-27T10:53:48.79</time>
<name>3104</name>
</trkpt>
<trkpt lat="48.955673" lon="8.646103">
<ele>241.5</ele>
<speed>3.9</speed>
<course>127.6</course>
<desc>Speed 3.9 km/h Distance 4.37 km</desc>
<time>2010-02-27T10:53:49.80</time>
<name>3105</name>
</trkpt>
<trkpt lat="48.955668" lon="8.646113">
<ele>241.5</ele>
<speed>3.4</speed>
<course>147.4</course>
<desc>Speed 3.4 km/h Distance 4.37 km</desc>
<time>2010-02-27T10:53:50.80</time>
<name>3106</name>
</trkpt>
<trkpt lat="48.955662" lon="8.646120">
<ele>241.0</ele>
<speed>3.1</speed>
<course>116.9</course>
<desc>Speed 3.1 km/h Distance 4.37 km</desc>
<time>2010-02-27T10:53:51.80</time>
<name>3107</name>
</trkpt>
<trkpt lat="48.955655" lon="8.646140">
<ele>242.0</ele>
<speed>5.9</speed>
<course>121.4</course>
<desc>Speed 5.9 km/h Distance 4.37 km</desc>
<time>2010-02-27T10:53:52.80</time>
<name>3108</name>
</trkpt>
<trkpt lat="48.955652" lon="8.646148">
<ele>242.0</ele>
<speed>2.5</speed>
<course>127.0</course>
<desc>Speed 2.5 km/h Distance 4.37 km</desc>
<time>2010-02-27T10:53:53.80</time>
<name>3109</name>
</trkpt>
<trkpt lat="48.955648" lon="8.646155">
<ele>241.0</ele>
<speed>3.0</speed>
<course>140.6</course>
<desc>Speed 3.0 km/h Distance 4.37 km</desc>
<time>2010-02-27T10:53:54.80</time>
<name>3110</name>
</trkpt>
<trkpt lat="48.955642" lon="8.646163">
<ele>240.5</ele>
<speed>3.3</speed>
<course>135.2</course>
<desc>Speed 3.3 km/h Distance 4.38 km</desc>
<time>2010-02-27T10:53:55.80</time>
<name>3111</name>
</trkpt>
<trkpt lat="48.955635" lon="8.646173">
<ele>240.5</ele>
<speed>4.0</speed>
<course>127.2</course>
<desc>Speed 4.0 km/h Distance 4.38 km</desc>
<time>2010-02-27T10:53:56.80</time>
<name>3112</name>
</trkpt>
<trkpt lat="48.955630" lon="8.646183">
<ele>240.0</ele>
<speed>3.4</speed>
<course>116.8</course>
<desc>Speed 3.4 km/h Distance 4.38 km</desc>
<time>2010-02-27T10:53:57.80</time>
<name>3113</name>
</trkpt>
<trkpt lat="48.955627" lon="8.646193">
<ele>240.5</ele>
<speed>2.7</speed>
<course>146.3</course>
<desc>Speed 2.7 km/h Distance 4.38 km</desc>
<time>2010-02-27T10:53:58.80</time>
<name>3114</name>
</trkpt>
<trkpt lat="48.955620" lon="8.646200">
<ele>240.0</ele>
<speed>3.2</speed>
<course>104.2</course>
<desc>Speed 3.2 km/h Distance 4.38 km</desc>
<time>2010-02-27T10:53:59.80</time>
<name>3115</name>
</trkpt>
<trkpt lat="48.955618" lon="8.646210">
<ele>240.0</ele>
<speed>4.3</speed>
<course>117.0</course>
<desc>Speed 4.3 km/h Distance 4.38 km</desc>
<time>2010-02-27T10:54:00.80</time>
<name>3116</name>
</trkpt>
<trkpt lat="48.955615" lon="8.646220">
<ele>240.0</ele>
<speed>3.7</speed>
<course>132.6</course>
<desc>Speed 3.7 km/h Distance 4.38 km</desc>
<time>2010-02-27T10:54:01.80</time>
<name>3117</name>
</trkpt>
<trkpt lat="48.955610" lon="8.646228">
<ele>239.5</ele>
<speed>2.6</speed>
<course>127.0</course>
<desc>Speed 2.6 km/h Distance 4.38 km</desc>
<time>2010-02-27T10:54:02.80</time>
<name>3118</name>
</trkpt>
<trkpt lat="48.955607" lon="8.646235">
<ele>239.0</ele>
<speed>2.3</speed>
<course>121.4</course>
<desc>Speed 2.3 km/h Distance 4.38 km</desc>
<time>2010-02-27T10:54:03.80</time>
<name>3119</name>
</trkpt>
<trkpt lat="48.955603" lon="8.646243">
<ele>238.5</ele>
<speed>2.7</speed>
<course>128.1</course>
<desc>Speed 2.7 km/h Distance 4.38 km</desc>
<time>2010-02-27T10:54:04.80</time>
<name>3120</name>
</trkpt>
<trkpt lat="48.955600" lon="8.646250">
<ele>238.5</ele>
<speed>2.6</speed>
<course>110.9</course>
<desc>Speed 2.6 km/h Distance 4.38 km</desc>
<time>2010-02-27T10:54:05.80</time>
<name>3121</name>
</trkpt>
<trkpt lat="48.955598" lon="8.646257">
<ele>238.0</ele>
<speed>2.5</speed>
<course>77.7</course>
<desc>Speed 2.5 km/h Distance 4.38 km</desc>
<time>2010-02-27T10:54:06.80</time>
<name>3122</name>
</trkpt>
<trkpt lat="48.955600" lon="8.646268">
<ele>238.0</ele>
<speed>2.9</speed>
<course>127.6</course>
<desc>Speed 2.9 km/h Distance 4.38 km</desc>
<time>2010-02-27T10:54:07.80</time>
<name>3123</name>
</trkpt>
<trkpt lat="48.955597" lon="8.646275">
<ele>237.0</ele>
<speed>2.5</speed>
<course>90.0</course>
<desc>Speed 2.5 km/h Distance 4.39 km</desc>
<time>2010-02-27T10:54:08.80</time>
<name>3124</name>
</trkpt>
<trkpt lat="48.955597" lon="8.646282">
<ele>236.5</ele>
<speed>1.8</speed>
<course>102.3</course>
<desc>Speed 1.8 km/h Distance 4.39 km</desc>
<time>2010-02-27T10:54:09.80</time>
<name>3125</name>
</trkpt>
<trkpt lat="48.955593" lon="8.646305">
<ele>238.0</ele>
<speed>6.6</speed>
<course>102.3</course>
<desc>Speed 6.6 km/h Distance 4.39 km</desc>
<time>2010-02-27T10:54:10.80</time>
<name>3126</name>
</trkpt>
<trkpt lat="48.955592" lon="8.646317">
<ele>238.0</ele>
<speed>3.6</speed>
<course>213.7</course>
<desc>Speed 3.6 km/h Distance 4.39 km</desc>
<time>2010-02-27T10:54:11.79</time>
<name>3127</name>
</trkpt>
<trkpt lat="48.955588" lon="8.646313">
<ele>236.5</ele>
<speed>2.5</speed>
<course>121.4</course>
<desc>Speed 2.5 km/h Distance 4.39 km</desc>
<time>2010-02-27T10:54:12.79</time>
<name>3128</name>
</trkpt>
<trkpt lat="48.955585" lon="8.646322">
<ele>236.0</ele>
<speed>3.2</speed>
<course>107.1</course>
<desc>Speed 3.2 km/h Distance 4.39 km</desc>
<time>2010-02-27T10:54:13.79</time>
<name>3129</name>
</trkpt>
<trkpt lat="48.955583" lon="8.646330">
<ele>236.0</ele>
<speed>2.8</speed>
<course>113.5</course>
<desc>Speed 2.8 km/h Distance 4.39 km</desc>
<time>2010-02-27T10:54:14.79</time>
<name>3130</name>
</trkpt>
<trkpt lat="48.955580" lon="8.646342">
<ele>235.5</ele>
<speed>3.6</speed>
<course>127.2</course>
<desc>Speed 3.6 km/h Distance 4.39 km</desc>
<time>2010-02-27T10:54:15.79</time>
<name>3131</name>
</trkpt>
<trkpt lat="48.955575" lon="8.646352">
<ele>235.5</ele>
<speed>3.2</speed>
<course>90.0</course>
<desc>Speed 3.2 km/h Distance 4.39 km</desc>
<time>2010-02-27T10:54:16.79</time>
<name>3132</name>
</trkpt>
<trkpt lat="48.955575" lon="8.646362">
<ele>235.5</ele>
<speed>3.1</speed>
<course>146.3</course>
<desc>Speed 3.1 km/h Distance 4.39 km</desc>
<time>2010-02-27T10:54:17.79</time>
<name>3133</name>
</trkpt>
<trkpt lat="48.955572" lon="8.646365">
<ele>235.5</ele>
<speed>1.9</speed>
<course>127.2</course>
<desc>Speed 1.9 km/h Distance 4.39 km</desc>
<time>2010-02-27T10:54:18.79</time>
<name>3134</name>
</trkpt>
<trkpt lat="48.955567" lon="8.646375">
<ele>236.0</ele>
<speed>3.5</speed>
<course>123.3</course>
<desc>Speed 3.5 km/h Distance 4.39 km</desc>
<time>2010-02-27T10:54:19.79</time>
<name>3135</name>
</trkpt>
<trkpt lat="48.955562" lon="8.646387">
<ele>236.0</ele>
<speed>3.6</speed>
<course>114.6</course>
<desc>Speed 3.6 km/h Distance 4.39 km</desc>
<time>2010-02-27T10:54:20.79</time>
<name>3136</name>
</trkpt>
<trkpt lat="48.955557" lon="8.646403">
<ele>237.0</ele>
<speed>4.6</speed>
<course>112.6</course>
<desc>Speed 4.6 km/h Distance 4.40 km</desc>
<time>2010-02-27T10:54:21.79</time>
<name>3137</name>
</trkpt>
<trkpt lat="48.955552" lon="8.646422">
<ele>237.5</ele>
<speed>5.0</speed>
<course>116.9</course>
<desc>Speed 5.0 km/h Distance 4.40 km</desc>
<time>2010-02-27T10:54:22.79</time>
<name>3138</name>
</trkpt>
<trkpt lat="48.955547" lon="8.646437">
<ele>238.0</ele>
<speed>3.8</speed>
<course>99.6</course>
<desc>Speed 3.8 km/h Distance 4.40 km</desc>
<time>2010-02-27T10:54:23.79</time>
<name>3139</name>
</trkpt>
<trkpt lat="48.955545" lon="8.646452">
<ele>239.0</ele>
<speed>3.1</speed>
<course>157.8</course>
<desc>Speed 3.1 km/h Distance 4.40 km</desc>
<time>2010-02-27T10:54:24.79</time>
<name>3140</name>
</trkpt>
<trkpt lat="48.955540" lon="8.646455">
<ele>238.0</ele>
<speed>2.3</speed>
<course>121.4</course>
<desc>Speed 2.3 km/h Distance 4.40 km</desc>
<time>2010-02-27T10:54:25.79</time>
<name>3141</name>
</trkpt>
<trkpt lat="48.955537" lon="8.646463">
<ele>238.0</ele>
<speed>2.9</speed>
<course>117.0</course>
<desc>Speed 2.9 km/h Distance 4.40 km</desc>
<time>2010-02-27T10:54:26.79</time>
<name>3142</name>
</trkpt>
<trkpt lat="48.955533" lon="8.646473">
<ele>238.0</ele>
<speed>2.7</speed>
<course>127.0</course>
<desc>Speed 2.7 km/h Distance 4.40 km</desc>
<time>2010-02-27T10:54:27.79</time>
<name>3143</name>
</trkpt>
<trkpt lat="48.955530" lon="8.646480">
<ele>238.0</ele>
<speed>2.4</speed>
<course>152.1</course>
<desc>Speed 2.4 km/h Distance 4.40 km</desc>
<time>2010-02-27T10:54:28.79</time>
<name>3144</name>
</trkpt>
<trkpt lat="48.955522" lon="8.646487">
<ele>236.5</ele>
<speed>4.4</speed>
<course>117.0</course>
<desc>Speed 4.4 km/h Distance 4.40 km</desc>
<time>2010-02-27T10:54:29.79</time>
<name>3145</name>
</trkpt>
<trkpt lat="48.955518" lon="8.646497">
<ele>236.5</ele>
<speed>2.8</speed>
<course>127.3</course>
<desc>Speed 2.8 km/h Distance 4.40 km</desc>
<time>2010-02-27T10:54:30.79</time>
<name>3146</name>
</trkpt>
<trkpt lat="48.955508" lon="8.646517">
<ele>236.5</ele>
<speed>6.2</speed>
<course>110.8</course>
<desc>Speed 6.2 km/h Distance 4.41 km</desc>
<time>2010-02-27T10:54:31.78</time>
<name>3147</name>
</trkpt>
<trkpt lat="48.955505" lon="8.646530">
<ele>237.5</ele>
<speed>3.2</speed>
<course>122.9</course>
<desc>Speed 3.2 km/h Distance 4.41 km</desc>
<time>2010-02-27T10:54:32.78</time>
<name>3148</name>
</trkpt>
<trkpt lat="48.955500" lon="8.646542">
<ele>238.0</ele>
<speed>3.8</speed>
<course>141.9</course>
<desc>Speed 3.8 km/h Distance 4.41 km</desc>
<time>2010-02-27T10:54:33.78</time>
<name>3149</name>
</trkpt>
<trkpt lat="48.955492" lon="8.646552">
<ele>237.5</ele>
<speed>3.7</speed>
<course>135.5</course>
<desc>Speed 3.7 km/h Distance 4.41 km</desc>
<time>2010-02-27T10:54:34.78</time>
<name>3150</name>
</trkpt>
<trkpt lat="48.955485" lon="8.646562">
<ele>238.0</ele>
<speed>3.5</speed>
<course>127.0</course>
<desc>Speed 3.5 km/h Distance 4.41 km</desc>
<time>2010-02-27T10:54:35.78</time>
<name>3151</name>
</trkpt>
<trkpt lat="48.955482" lon="8.646568">
<ele>238.0</ele>
<speed>2.5</speed>
<course>127.2</course>
<desc>Speed 2.5 km/h Distance 4.41 km</desc>
<time>2010-02-27T10:54:36.78</time>
<name>3152</name>
</trkpt>
<trkpt lat="48.955477" lon="8.646578">
<ele>238.5</ele>
<speed>3.0</speed>
<course>138.6</course>
<desc>Speed 3.0 km/h Distance 4.41 km</desc>
<time>2010-02-27T10:54:37.78</time>
<name>3153</name>
</trkpt>
<trkpt lat="48.955472" lon="8.646585">
<ele>239.0</ele>
<speed>3.2</speed>
<course>178.8</course>
<desc>Speed 3.2 km/h Distance 4.41 km</desc>
<time>2010-02-27T10:54:38.78</time>
<name>3154</name>
</trkpt>
<trkpt lat="48.955465" lon="8.646585">
<ele>239.0</ele>
<speed>2.3</speed>
<course>187.4</course>
<desc>Speed 2.3 km/h Distance 4.41 km</desc>
<time>2010-02-27T10:54:39.78</time>
<name>3155</name>
</trkpt>
<trkpt lat="48.955458" lon="8.646583">
<ele>238.5</ele>
<speed>2.6</speed>
<course>156.2</course>
<desc>Speed 2.6 km/h Distance 4.41 km</desc>
<time>2010-02-27T10:54:40.78</time>
<name>3156</name>
</trkpt>
<trkpt lat="48.955453" lon="8.646587">
<ele>238.5</ele>
<speed>2.3</speed>
<course>142.5</course>
<desc>Speed 2.3 km/h Distance 4.42 km</desc>
<time>2010-02-27T10:54:41.78</time>
<name>3157</name>
</trkpt>
<trkpt lat="48.955443" lon="8.646598">
<ele>239.0</ele>
<speed>2.6</speed>
<course>171.2</course>
<desc>Speed 2.6 km/h Distance 4.42 km</desc>
<time>2010-02-27T10:54:42.78</time>
<name>3158</name>
</trkpt>
<trkpt lat="48.955428" lon="8.646602">
<ele>239.0</ele>
<speed>4.0</speed>
<course>189.5</course>
<desc>Speed 4.0 km/h Distance 4.42 km</desc>
<time>2010-02-27T10:54:43.78</time>
<name>3159</name>
</trkpt>
<trkpt lat="48.955417" lon="8.646598">
<ele>238.0</ele>
<speed>3.6</speed>
<course>200.2</course>
<desc>Speed 3.6 km/h Distance 4.42 km</desc>
<time>2010-02-27T10:54:44.78</time>
<name>3160</name>
</trkpt>
<trkpt lat="48.955405" lon="8.646592">
<ele>238.5</ele>
<speed>3.6</speed>
<course>201.5</course>
<desc>Speed 3.6 km/h Distance 4.42 km</desc>
<time>2010-02-27T10:54:45.80</time>
<name>3161</name>
</trkpt>
<trkpt lat="48.955397" lon="8.646587">
<ele>238.5</ele>
<speed>3.6</speed>
<course>236.7</course>
<desc>Speed 3.6 km/h Distance 4.42 km</desc>
<time>2010-02-27T10:54:46.78</time>
<name>3162</name>
</trkpt>
<trkpt lat="48.955392" lon="8.646575">
<ele>238.5</ele>
<speed>3.3</speed>
<course>224.5</course>
<desc>Speed 3.3 km/h Distance 4.42 km</desc>
<time>2010-02-27T10:54:47.77</time>
<name>3163</name>
</trkpt>
<trkpt lat="48.955388" lon="8.646570">
<ele>239.5</ele>
<speed>3.9</speed>
<course>150.8</course>
<desc>Speed 3.9 km/h Distance 4.42 km</desc>
<time>2010-02-27T10:54:48.78</time>
<name>3164</name>
</trkpt>
<trkpt lat="48.955387" lon="8.646572">
<ele>241.0</ele>
<speed>2.8</speed>
<course>243.0</course>
<desc>Speed 2.8 km/h Distance 4.42 km</desc>
<time>2010-02-27T10:54:49.78</time>
<name>3165</name>
</trkpt>
<trkpt lat="48.955383" lon="8.646562">
<ele>241.0</ele>
<speed>4.1</speed>
<course>224.5</course>
<desc>Speed 4.1 km/h Distance 4.42 km</desc>
<time>2010-02-27T10:54:50.78</time>
<name>3166</name>
</trkpt>
<trkpt lat="48.955380" lon="8.646557">
<ele>241.5</ele>
<speed>3.3</speed>
<course>270.0</course>
<desc>Speed 3.3 km/h Distance 4.43 km</desc>
<time>2010-02-27T10:54:51.78</time>
<name>3167</name>
</trkpt>
<trkpt lat="48.955380" lon="8.646555">
<ele>242.0</ele>
<speed>3.3</speed>
<course>253.1</course>
<desc>Speed 3.3 km/h Distance 4.43 km</desc>
<time>2010-02-27T10:54:52.77</time>
<name>3168</name>
</trkpt>
<trkpt lat="48.955378" lon="8.646547">
<ele>242.0</ele>
<speed>3.0</speed>
<course>270.0</course>
<desc>Speed 3.0 km/h Distance 4.43 km</desc>
<time>2010-02-27T10:54:53.78</time>
<name>3169</name>
</trkpt>
<trkpt lat="48.955378" lon="8.646545">
<ele>241.5</ele>
<speed>1.6</speed>
<course>270.0</course>
<desc>Speed 1.6 km/h Distance 4.43 km</desc>
<time>2010-02-27T10:54:54.78</time>
<name>3170</name>
</trkpt>
<trkpt lat="48.955378" lon="8.646538">
<ele>241.0</ele>
<speed>1.8</speed>
<course>270.0</course>
<desc>Speed 1.8 km/h Distance 4.43 km</desc>
<time>2010-02-27T10:54:55.77</time>
<name>3171</name>
</trkpt>
<trkpt lat="48.955378" lon="8.646530">
<ele>240.5</ele>
<speed>2.4</speed>
<course>301.1</course>
<desc>Speed 2.4 km/h Distance 4.43 km</desc>
<time>2010-02-27T10:54:56.77</time>
<name>3172</name>
</trkpt>
<trkpt lat="48.955382" lon="8.646522">
<ele>240.5</ele>
<speed>3.1</speed>
<course>37.2</course>
<desc>Speed 3.1 km/h Distance 4.43 km</desc>
<time>2010-02-27T10:54:57.78</time>
<name>3173</name>
</trkpt>
<trkpt lat="48.955383" lon="8.646523">
<ele>242.0</ele>
<speed>2.2</speed>
<course>341.2</course>
<desc>Speed 2.2 km/h Distance 4.43 km</desc>
<time>2010-02-27T10:54:58.77</time>
<name>3174</name>
</trkpt>
<trkpt lat="48.955387" lon="8.646522">
<ele>242.5</ele>
<speed>1.8</speed>
<course>347.4</course>
<desc>Speed 1.8 km/h Distance 4.43 km</desc>
<time>2010-02-27T10:54:59.77</time>
<name>3175</name>
</trkpt>
<trkpt lat="48.955392" lon="8.646520">
<ele>243.0</ele>
<speed>2.9</speed>
<course>347.4</course>
<desc>Speed 2.9 km/h Distance 4.43 km</desc>
<time>2010-02-27T10:55:00.78</time>
<name>3176</name>
</trkpt>
<trkpt lat="48.955395" lon="8.646518">
<ele>243.0</ele>
<speed>2.6</speed>
<course>287.1</course>
<desc>Speed 2.6 km/h Distance 4.43 km</desc>
<time>2010-02-27T10:55:01.77</time>
<name>3177</name>
</trkpt>
<trkpt lat="48.955397" lon="8.646510">
<ele>243.5</ele>
<speed>2.8</speed>
<course>257.7</course>
<desc>Speed 2.8 km/h Distance 4.43 km</desc>
<time>2010-02-27T10:55:02.77</time>
<name>3178</name>
</trkpt>
<trkpt lat="48.955395" lon="8.646498">
<ele>243.5</ele>
<speed>3.1</speed>
<course>257.7</course>
<desc>Speed 3.1 km/h Distance 4.43 km</desc>
<time>2010-02-27T10:55:03.77</time>
<name>3179</name>
</trkpt>
<trkpt lat="48.955393" lon="8.646487">
<ele>243.0</ele>
<speed>2.2</speed>
<course>326.8</course>
<desc>Speed 2.2 km/h Distance 4.43 km</desc>
<time>2010-02-27T10:55:04.77</time>
<name>3180</name>
</trkpt>
<trkpt lat="48.955400" lon="8.646480">
<ele>242.5</ele>
<speed>3.1</speed>
<course>307.4</course>
<desc>Speed 3.1 km/h Distance 4.43 km</desc>
<time>2010-02-27T10:55:05.77</time>
<name>3181</name>
</trkpt>
<trkpt lat="48.955405" lon="8.646470">
<ele>243.0</ele>
<speed>3.7</speed>
<course>290.9</course>
<desc>Speed 3.7 km/h Distance 4.43 km</desc>
<time>2010-02-27T10:55:06.77</time>
<name>3182</name>
</trkpt>
<trkpt lat="48.955408" lon="8.646457">
<ele>243.0</ele>
<speed>3.9</speed>
<course>319.1</course>
<desc>Speed 3.9 km/h Distance 4.43 km</desc>
<time>2010-02-27T10:55:07.77</time>
<name>3183</name>
</trkpt>
<trkpt lat="48.955413" lon="8.646450">
<ele>243.5</ele>
<speed>3.1</speed>
<course>297.4</course>
<desc>Speed 3.1 km/h Distance 4.44 km</desc>
<time>2010-02-27T10:55:08.91</time>
<name>3184</name>
</trkpt>
<trkpt lat="48.955415" lon="8.646445">
<ele>243.5</ele>
<speed>1.5</speed>
<course>270.0</course>
<desc>Speed 1.5 km/h Distance 4.44 km</desc>
<time>2010-02-27T10:55:09.77</time>
<name>3185</name>
</trkpt>
<trkpt lat="48.955415" lon="8.646435">
<ele>243.5</ele>
<speed>2.4</speed>
<course>301.4</course>
<desc>Speed 2.4 km/h Distance 4.44 km</desc>
<time>2010-02-27T10:55:10.77</time>
<name>3186</name>
</trkpt>
<trkpt lat="48.955418" lon="8.646427">
<ele>243.0</ele>
<speed>2.6</speed>
<course>249.1</course>
<desc>Speed 2.6 km/h Distance 4.44 km</desc>
<time>2010-02-27T10:55:11.80</time>
<name>3187</name>
</trkpt>
<trkpt lat="48.955417" lon="8.646420">
<ele>242.5</ele>
<speed>1.8</speed>
<course>280.8</course>
<desc>Speed 1.8 km/h Distance 4.44 km</desc>
<time>2010-02-27T10:55:12.76</time>
<name>3188</name>
</trkpt>
<trkpt lat="48.955418" lon="8.646407">
<ele>243.0</ele>
<speed>3.5</speed>
<course>290.9</course>
<desc>Speed 3.5 km/h Distance 4.44 km</desc>
<time>2010-02-27T10:55:13.76</time>
<name>3189</name>
</trkpt>
<trkpt lat="48.955420" lon="8.646400">
<ele>243.0</ele>
<speed>2.2</speed>
<course>312.9</course>
<desc>Speed 2.2 km/h Distance 4.44 km</desc>
<time>2010-02-27T10:55:14.76</time>
<name>3190</name>
</trkpt>
<trkpt lat="48.955425" lon="8.646392">
<ele>243.5</ele>
<speed>2.2</speed>
<course>282.3</course>
<desc>Speed 2.2 km/h Distance 4.44 km</desc>
<time>2010-02-27T10:55:15.76</time>
<name>3191</name>
</trkpt>
<trkpt lat="48.955427" lon="8.646380">
<ele>243.0</ele>
<speed>2.1</speed>
<course>167.4</course>
<desc>Speed 2.1 km/h Distance 4.44 km</desc>
<time>2010-02-27T10:55:16.76</time>
<name>3192</name>
</trkpt>
<trkpt lat="48.955425" lon="8.646380">
<ele>242.0</ele>
<speed>1.2</speed>
<course>289.4</course>
<desc>Speed 1.2 km/h Distance 4.44 km</desc>
<time>2010-02-27T10:55:17.89</time>
<name>3193</name>
</trkpt>
<trkpt lat="48.955435" lon="8.646337">
<ele>244.0</ele>
<speed>2.9</speed>
<course>270.0</course>
<desc>Speed 2.9 km/h Distance 4.44 km</desc>
<time>2010-02-27T10:55:19.75</time>
<name>3194</name>
</trkpt>
<trkpt lat="48.955435" lon="8.646330">
<ele>243.5</ele>
<speed>2.2</speed>
<course>290.5</course>
<desc>Speed 2.2 km/h Distance 4.44 km</desc>
<time>2010-02-27T10:55:20.75</time>
<name>3195</name>
</trkpt>
<trkpt lat="48.955437" lon="8.646323">
<ele>243.5</ele>
<speed>1.8</speed>
<course>306.1</course>
<desc>Speed 1.8 km/h Distance 4.45 km</desc>
<time>2010-02-27T10:55:21.76</time>
<name>3196</name>
</trkpt>
<trkpt lat="48.955438" lon="8.646320">
<ele>243.5</ele>
<speed>1.4</speed>
<course>253.3</course>
<desc>Speed 1.4 km/h Distance 4.45 km</desc>
<time>2010-02-27T10:55:22.75</time>
<name>3197</name>
</trkpt>
<trkpt lat="48.955437" lon="8.646312">
<ele>243.5</ele>
<speed>2.0</speed>
<course>253.3</course>
<desc>Speed 2.0 km/h Distance 4.45 km</desc>
<time>2010-02-27T10:55:23.81</time>
<name>3198</name>
</trkpt>
<trkpt lat="48.955437" lon="8.646312">
<ele>243.5</ele>
<speed>0.1</speed>
<course>12.6</course>
<desc>Speed 0.1 km/h Distance 4.45 km</desc>
<time>2010-02-27T10:55:24.74</time>
<name>3199</name>
</trkpt>
<trkpt lat="48.955438" lon="8.646312">
<ele>244.0</ele>
<speed>0.2</speed>
<course>12.6</course>
<desc>Speed 0.2 km/h Distance 4.45 km</desc>
<time>2010-02-27T10:55:25.74</time>
<name>3200</name>
</trkpt>
<trkpt lat="48.955438" lon="8.646312">
<ele>244.0</ele>
<speed>0.4</speed>
<course>0.0</course>
<desc>Speed 0.4 km/h Distance 4.45 km</desc>
<time>2010-02-27T10:55:26.74</time>
<name>3201</name>
</trkpt>
<trkpt lat="48.955440" lon="8.646312">
<ele>244.0</ele>
<speed>0.2</speed>
<course>0.0</course>
<desc>Speed 0.2 km/h Distance 4.45 km</desc>
<time>2010-02-27T10:55:27.74</time>
<name>3202</name>
</trkpt>
<trkpt lat="48.955440" lon="8.646312">
<ele>244.0</ele>
<speed>0.4</speed>
<course>231.9</course>
<desc>Speed 0.4 km/h Distance 4.45 km</desc>
<time>2010-02-27T10:55:28.74</time>
<name>3203</name>
</trkpt>
<trkpt lat="48.955438" lon="8.646308">
<ele>244.5</ele>
<speed>0.3</speed>
<course>233.9</course>
<desc>Speed 0.3 km/h Distance 4.45 km</desc>
<time>2010-02-27T10:55:29.79</time>
<name>3204</name>
</trkpt>
<trkpt lat="48.955437" lon="8.646305">
<ele>245.0</ele>
<speed>0.1</speed>
<course>270.0</course>
<desc>Speed 0.1 km/h Distance 4.45 km</desc>
<time>2010-02-27T10:55:30.73</time>
<name>3205</name>
</trkpt>
<trkpt lat="48.955437" lon="8.646302">
<ele>246.0</ele>
<speed>0.3</speed>
<course>243.4</course>
<desc>Speed 0.3 km/h Distance 4.45 km</desc>
<time>2010-02-27T10:55:31.73</time>
<name>3206</name>
</trkpt>
<trkpt lat="48.955435" lon="8.646297">
<ele>247.0</ele>
<speed>0.5</speed>
<course>270.0</course>
<desc>Speed 0.5 km/h Distance 4.45 km</desc>
<time>2010-02-27T10:55:32.73</time>
<name>3207</name>
</trkpt>
<trkpt lat="48.955435" lon="8.646293">
<ele>247.5</ele>
<speed>0.1</speed>
<course>270.0</course>
<desc>Speed 0.1 km/h Distance 4.45 km</desc>
<time>2010-02-27T10:55:33.73</time>
<name>3208</name>
</trkpt>
<trkpt lat="48.955435" lon="8.646293">
<ele>247.5</ele>
<speed>0.2</speed>
<course>270.0</course>
<desc>Speed 0.2 km/h Distance 4.45 km</desc>
<time>2010-02-27T10:55:34.73</time>
<name>3209</name>
</trkpt>
<trkpt lat="48.955435" lon="8.646288">
<ele>247.0</ele>
<speed>0.8</speed>
<course>270.0</course>
<desc>Speed 0.8 km/h Distance 4.45 km</desc>
<time>2010-02-27T10:55:35.84</time>
<name>3210</name>
</trkpt>
<trkpt lat="48.955435" lon="8.646288">
<ele>247.0</ele>
<speed>0.2</speed>
<course>270.0</course>
<desc>Speed 0.2 km/h Distance 4.45 km</desc>
<time>2010-02-27T10:55:36.73</time>
<name>3211</name>
</trkpt>
<trkpt lat="48.955435" lon="8.646288">
<ele>247.0</ele>
<speed>0.5</speed>
<course>270.0</course>
<desc>Speed 0.5 km/h Distance 4.45 km</desc>
<time>2010-02-27T10:55:37.73</time>
<name>3212</name>
</trkpt>
<trkpt lat="48.955435" lon="8.646285">
<ele>247.0</ele>
<speed>0.8</speed>
<course>326.3</course>
<desc>Speed 0.8 km/h Distance 4.45 km</desc>
<time>2010-02-27T10:55:38.72</time>
<name>3213</name>
</trkpt>
<trkpt lat="48.955438" lon="8.646282">
<ele>247.5</ele>
<speed>1.1</speed>
<course>347.4</course>
<desc>Speed 1.1 km/h Distance 4.45 km</desc>
<time>2010-02-27T10:55:39.72</time>
<name>3214</name>
</trkpt>
<trkpt lat="48.955440" lon="8.646280">
<ele>246.5</ele>
<speed>1.4</speed>
<course>251.3</course>
<desc>Speed 1.4 km/h Distance 4.45 km</desc>
<time>2010-02-27T10:55:40.93</time>
<name>3215</name>
</trkpt>
<trkpt lat="48.955437" lon="8.646265">
<ele>246.5</ele>
<speed>4.0</speed>
<course>255.8</course>
<desc>Speed 4.0 km/h Distance 4.45 km</desc>
<time>2010-02-27T10:55:41.72</time>
<name>3216</name>
</trkpt>
<trkpt lat="48.955433" lon="8.646245">
<ele>246.5</ele>
<speed>5.1</speed>
<course>243.0</course>
<desc>Speed 5.1 km/h Distance 4.45 km</desc>
<time>2010-02-27T10:55:42.72</time>
<name>3217</name>
</trkpt>
<trkpt lat="48.955430" lon="8.646235">
<ele>246.0</ele>
<speed>2.6</speed>
<course>249.2</course>
<desc>Speed 2.6 km/h Distance 4.45 km</desc>
<time>2010-02-27T10:55:43.72</time>
<name>3218</name>
</trkpt>
<trkpt lat="48.955425" lon="8.646215">
<ele>246.5</ele>
<speed>5.8</speed>
<course>261.3</course>
<desc>Speed 5.8 km/h Distance 4.45 km</desc>
<time>2010-02-27T10:55:44.77</time>
<name>3219</name>
</trkpt>
<trkpt lat="48.955423" lon="8.646198">
<ele>246.5</ele>
<speed>4.2</speed>
<course>253.1</course>
<desc>Speed 4.2 km/h Distance 4.46 km</desc>
<time>2010-02-27T10:55:45.71</time>
<name>3220</name>
</trkpt>
<trkpt lat="48.955422" lon="8.646190">
<ele>246.0</ele>
<speed>2.1</speed>
<course>270.0</course>
<desc>Speed 2.1 km/h Distance 4.46 km</desc>
<time>2010-02-27T10:55:46.71</time>
<name>3221</name>
</trkpt>
<trkpt lat="48.955422" lon="8.646183">
<ele>245.5</ele>
<speed>1.7</speed>
<course>284.2</course>
<desc>Speed 1.7 km/h Distance 4.46 km</desc>
<time>2010-02-27T10:55:47.71</time>
<name>3222</name>
</trkpt>
<trkpt lat="48.955423" lon="8.646173">
<ele>245.0</ele>
<speed>2.1</speed>
<course>270.0</course>
<desc>Speed 2.1 km/h Distance 4.46 km</desc>
<time>2010-02-27T10:55:48.71</time>
<name>3223</name>
</trkpt>
<trkpt lat="48.955423" lon="8.646158">
<ele>245.0</ele>
<speed>3.5</speed>
<course>270.0</course>
<desc>Speed 3.5 km/h Distance 4.46 km</desc>
<time>2010-02-27T10:55:49.71</time>
<name>3224</name>
</trkpt>
<trkpt lat="48.955423" lon="8.646142">
<ele>245.0</ele>
<speed>3.3</speed>
<course>213.4</course>
<desc>Speed 3.3 km/h Distance 4.46 km</desc>
<time>2010-02-27T10:55:50.74</time>
<name>3225</name>
</trkpt>
<trkpt lat="48.955412" lon="8.646130">
<ele>244.0</ele>
<speed>4.8</speed>
<course>12.6</course>
<desc>Speed 4.8 km/h Distance 4.46 km</desc>
<time>2010-02-27T10:55:51.71</time>
<name>3226</name>
</trkpt>
<trkpt lat="48.955415" lon="8.646130">
<ele>243.5</ele>
<speed>1.4</speed>
<course>251.3</course>
<desc>Speed 1.4 km/h Distance 4.46 km</desc>
<time>2010-02-27T10:55:52.79</time>
<name>3227</name>
</trkpt>
<trkpt lat="48.955412" lon="8.646115">
<ele>243.5</ele>
<speed>3.0</speed>
<course>243.0</course>
<desc>Speed 3.0 km/h Distance 4.46 km</desc>
<time>2010-02-27T10:55:53.71</time>
<name>3228</name>
</trkpt>
<trkpt lat="48.955408" lon="8.646105">
<ele>243.5</ele>
<speed>2.6</speed>
<course>227.4</course>
<desc>Speed 2.6 km/h Distance 4.46 km</desc>
<time>2010-02-27T10:55:54.71</time>
<name>3229</name>
</trkpt>
<trkpt lat="48.955403" lon="8.646097">
<ele>242.5</ele>
<speed>2.6</speed>
<course>326.8</course>
<desc>Speed 2.6 km/h Distance 4.46 km</desc>
<time>2010-02-27T10:55:55.70</time>
<name>3230</name>
</trkpt>
<trkpt lat="48.955413" lon="8.646087">
<ele>243.0</ele>
<speed>5.1</speed>
<course>167.4</course>
<desc>Speed 5.1 km/h Distance 4.47 km</desc>
<time>2010-02-27T10:55:56.70</time>
<name>3231</name>
</trkpt>
<trkpt lat="48.955410" lon="8.646087">
<ele>243.0</ele>
<speed>1.2</speed>
<course>246.5</course>
<desc>Speed 1.2 km/h Distance 4.47 km</desc>
<time>2010-02-27T10:55:57.69</time>
<name>3232</name>
</trkpt>
<trkpt lat="48.955407" lon="8.646075">
<ele>242.5</ele>
<speed>3.0</speed>
<course>218.1</course>
<desc>Speed 3.0 km/h Distance 4.47 km</desc>
<time>2010-02-27T10:55:58.70</time>
<name>3233</name>
</trkpt>
<trkpt lat="48.955398" lon="8.646065">
<ele>243.0</ele>
<speed>3.4</speed>
<course>224.5</course>
<desc>Speed 3.4 km/h Distance 4.47 km</desc>
<time>2010-02-27T10:55:59.70</time>
<name>3234</name>
</trkpt>
<trkpt lat="48.955385" lon="8.646045">
<ele>243.0</ele>
<speed>4.7</speed>
<course>236.9</course>
<desc>Speed 4.7 km/h Distance 4.47 km</desc>
<time>2010-02-27T10:56:00.70</time>
<name>3235</name>
</trkpt>
<trkpt lat="48.955375" lon="8.646022">
<ele>243.0</ele>
<speed>4.2</speed>
<course>241.4</course>
<desc>Speed 4.2 km/h Distance 4.47 km</desc>
<time>2010-02-27T10:56:01.70</time>
<name>3236</name>
</trkpt>
<trkpt lat="48.955367" lon="8.645998">
<ele>243.5</ele>
<speed>4.1</speed>
<course>234.6</course>
<desc>Speed 4.1 km/h Distance 4.47 km</desc>
<time>2010-02-27T10:56:02.69</time>
<name>3237</name>
</trkpt>
<trkpt lat="48.955355" lon="8.645973">
<ele>245.0</ele>
<speed>4.1</speed>
<course>245.5</course>
<desc>Speed 4.1 km/h Distance 4.48 km</desc>
<time>2010-02-27T10:56:03.70</time>
<name>3238</name>
</trkpt>
<trkpt lat="48.955350" lon="8.645957">
<ele>246.0</ele>
<speed>4.4</speed>
<course>251.3</course>
<desc>Speed 4.4 km/h Distance 4.48 km</desc>
<time>2010-02-27T10:56:04.70</time>
<name>3239</name>
</trkpt>
<trkpt lat="48.955347" lon="8.645942">
<ele>246.5</ele>
<speed>4.0</speed>
<course>232.7</course>
<desc>Speed 4.0 km/h Distance 4.48 km</desc>
<time>2010-02-27T10:56:05.69</time>
<name>3240</name>
</trkpt>
<trkpt lat="48.955340" lon="8.645928">
<ele>246.5</ele>
<speed>4.2</speed>
<course>222.5</course>
<desc>Speed 4.2 km/h Distance 4.48 km</desc>
<time>2010-02-27T10:56:06.70</time>
<name>3241</name>
</trkpt>
<trkpt lat="48.955332" lon="8.645917">
<ele>246.5</ele>
<speed>4.2</speed>
<course>236.7</course>
<desc>Speed 4.2 km/h Distance 4.48 km</desc>
<time>2010-02-27T10:56:07.70</time>
<name>3242</name>
</trkpt>
<trkpt lat="48.955327" lon="8.645905">
<ele>246.5</ele>
<speed>3.8</speed>
<course>224.5</course>
<desc>Speed 3.8 km/h Distance 4.48 km</desc>
<time>2010-02-27T10:56:08.69</time>
<name>3243</name>
</trkpt>
<trkpt lat="48.955320" lon="8.645895">
<ele>247.0</ele>
<speed>3.6</speed>
<course>232.7</course>
<desc>Speed 3.6 km/h Distance 4.48 km</desc>
<time>2010-02-27T10:56:09.69</time>
<name>3244</name>
</trkpt>
<trkpt lat="48.955313" lon="8.645882">
<ele>247.5</ele>
<speed>2.9</speed>
<course>253.1</course>
<desc>Speed 2.9 km/h Distance 4.49 km</desc>
<time>2010-02-27T10:56:10.69</time>
<name>3245</name>
</trkpt>
<trkpt lat="48.955312" lon="8.645873">
<ele>248.0</ele>
<speed>2.1</speed>
<course>231.9</course>
<desc>Speed 2.1 km/h Distance 4.49 km</desc>
<time>2010-02-27T10:56:11.70</time>
<name>3246</name>
</trkpt>
<trkpt lat="48.955310" lon="8.645870">
<ele>248.0</ele>
<speed>1.2</speed>
<course>236.9</course>
<desc>Speed 1.2 km/h Distance 4.49 km</desc>
<time>2010-02-27T10:56:12.69</time>
<name>3247</name>
</trkpt>
<trkpt lat="48.955305" lon="8.645858">
<ele>248.5</ele>
<speed>3.2</speed>
<course>236.9</course>
<desc>Speed 3.2 km/h Distance 4.49 km</desc>
<time>2010-02-27T10:56:13.69</time>
<name>3248</name>
</trkpt>
<trkpt lat="48.955305" lon="8.645858">
<ele>248.5</ele>
<speed>0.5</speed>
<course>171.9</course>
<desc>Speed 0.5 km/h Distance 4.49 km</desc>
<time>2010-02-27T10:56:14.69</time>
<name>3249</name>
</trkpt>
<trkpt lat="48.955300" lon="8.645858">
<ele>248.5</ele>
<speed>1.9</speed>
<course>232.7</course>
<desc>Speed 1.9 km/h Distance 4.49 km</desc>
<time>2010-02-27T10:56:15.69</time>
<name>3250</name>
</trkpt>
<trkpt lat="48.955288" lon="8.645835">
<ele>249.0</ele>
<speed>7.4</speed>
<course>235.4</course>
<desc>Speed 7.4 km/h Distance 4.49 km</desc>
<time>2010-02-27T10:56:16.69</time>
<name>3251</name>
</trkpt>
<trkpt lat="48.955280" lon="8.645817">
<ele>250.0</ele>
<speed>2.8</speed>
<course>236.9</course>
<desc>Speed 2.8 km/h Distance 4.49 km</desc>
<time>2010-02-27T10:56:17.69</time>
<name>3252</name>
</trkpt>
<trkpt lat="48.955275" lon="8.645805">
<ele>250.0</ele>
<speed>3.6</speed>
<course>240.2</course>
<desc>Speed 3.6 km/h Distance 4.49 km</desc>
<time>2010-02-27T10:56:18.69</time>
<name>3253</name>
</trkpt>
<trkpt lat="48.955270" lon="8.645792">
<ele>249.5</ele>
<speed>3.7</speed>
<course>205.6</course>
<desc>Speed 3.7 km/h Distance 4.49 km</desc>
<time>2010-02-27T10:56:19.69</time>
<name>3254</name>
</trkpt>
<trkpt lat="48.955263" lon="8.645787">
<ele>249.0</ele>
<speed>2.6</speed>
<course>224.5</course>
<desc>Speed 2.6 km/h Distance 4.49 km</desc>
<time>2010-02-27T10:56:20.69</time>
<name>3255</name>
</trkpt>
<trkpt lat="48.955257" lon="8.645777">
<ele>249.0</ele>
<speed>3.2</speed>
<course>219.4</course>
<desc>Speed 3.2 km/h Distance 4.50 km</desc>
<time>2010-02-27T10:56:21.69</time>
<name>3256</name>
</trkpt>
<trkpt lat="48.955250" lon="8.645768">
<ele>248.5</ele>
<speed>2.6</speed>
<course>201.5</course>
<desc>Speed 2.6 km/h Distance 4.50 km</desc>
<time>2010-02-27T10:56:22.69</time>
<name>3257</name>
</trkpt>
<trkpt lat="48.955242" lon="8.645763">
<ele>248.0</ele>
<speed>3.3</speed>
<course>219.4</course>
<desc>Speed 3.3 km/h Distance 4.50 km</desc>
<time>2010-02-27T10:56:23.69</time>
<name>3258</name>
</trkpt>
<trkpt lat="48.955235" lon="8.645755">
<ele>247.5</ele>
<speed>3.0</speed>
<course>224.8</course>
<desc>Speed 3.0 km/h Distance 4.50 km</desc>
<time>2010-02-27T10:56:24.69</time>
<name>3259</name>
</trkpt>
<trkpt lat="48.955228" lon="8.645745">
<ele>247.0</ele>
<speed>2.7</speed>
<course>224.5</course>
<desc>Speed 2.7 km/h Distance 4.50 km</desc>
<time>2010-02-27T10:56:25.69</time>
<name>3260</name>
</trkpt>
<trkpt lat="48.955218" lon="8.645730">
<ele>247.0</ele>
<speed>4.1</speed>
<course>184.4</course>
<desc>Speed 4.1 km/h Distance 4.50 km</desc>
<time>2010-02-27T10:56:26.69</time>
<name>3261</name>
</trkpt>
<trkpt lat="48.955208" lon="8.645728">
<ele>246.5</ele>
<speed>4.1</speed>
<course>207.9</course>
<desc>Speed 4.1 km/h Distance 4.50 km</desc>
<time>2010-02-27T10:56:27.69</time>
<name>3262</name>
</trkpt>
<trkpt lat="48.955200" lon="8.645722">
<ele>246.5</ele>
<speed>3.7</speed>
<course>194.9</course>
<desc>Speed 3.7 km/h Distance 4.50 km</desc>
<time>2010-02-27T10:56:28.69</time>
<name>3263</name>
</trkpt>
<trkpt lat="48.955192" lon="8.645718">
<ele>246.0</ele>
<speed>3.4</speed>
<course>178.8</course>
<desc>Speed 3.4 km/h Distance 4.50 km</desc>
<time>2010-02-27T10:56:29.68</time>
<name>3264</name>
</trkpt>
<trkpt lat="48.955178" lon="8.645718">
<ele>246.5</ele>
<speed>3.1</speed>
<course>171.0</course>
<desc>Speed 3.1 km/h Distance 4.51 km</desc>
<time>2010-02-27T10:56:30.68</time>
<name>3265</name>
</trkpt>
<trkpt lat="48.955165" lon="8.645722">
<ele>247.5</ele>
<speed>2.4</speed>
<course>185.0</course>
<desc>Speed 2.4 km/h Distance 4.51 km</desc>
<time>2010-02-27T10:56:31.68</time>
<name>3266</name>
</trkpt>
<trkpt lat="48.955157" lon="8.645720">
<ele>247.0</ele>
<speed>2.1</speed>
<course>185.0</course>
<desc>Speed 2.1 km/h Distance 4.51 km</desc>
<time>2010-02-27T10:56:32.68</time>
<name>3267</name>
</trkpt>
<trkpt lat="48.955148" lon="8.645718">
<ele>246.0</ele>
<speed>2.5</speed>
<course>185.0</course>
<desc>Speed 2.5 km/h Distance 4.51 km</desc>
<time>2010-02-27T10:56:33.68</time>
<name>3268</name>
</trkpt>
<trkpt lat="48.955140" lon="8.645717">
<ele>245.0</ele>
<speed>2.1</speed>
<course>164.5</course>
<desc>Speed 2.1 km/h Distance 4.51 km</desc>
<time>2010-02-27T10:56:34.69</time>
<name>3269</name>
</trkpt>
<trkpt lat="48.955128" lon="8.645722">
<ele>244.5</ele>
<speed>4.6</speed>
<course>173.4</course>
<desc>Speed 4.6 km/h Distance 4.51 km</desc>
<time>2010-02-27T10:56:35.69</time>
<name>3270</name>
</trkpt>
<trkpt lat="48.955118" lon="8.645723">
<ele>245.0</ele>
<speed>3.9</speed>
<course>175.0</course>
<desc>Speed 3.9 km/h Distance 4.51 km</desc>
<time>2010-02-27T10:56:36.68</time>
<name>3271</name>
</trkpt>
<trkpt lat="48.955110" lon="8.645723">
<ele>244.0</ele>
<speed>3.6</speed>
<course>164.5</course>
<desc>Speed 3.6 km/h Distance 4.51 km</desc>
<time>2010-02-27T10:56:37.68</time>
<name>3272</name>
</trkpt>
<trkpt lat="48.955098" lon="8.645728">
<ele>244.0</ele>
<speed>4.2</speed>
<course>175.0</course>
<desc>Speed 4.2 km/h Distance 4.51 km</desc>
<time>2010-02-27T10:56:38.68</time>
<name>3273</name>
</trkpt>
<trkpt lat="48.955090" lon="8.645728">
<ele>242.5</ele>
<speed>3.1</speed>
<course>156.2</course>
<desc>Speed 3.1 km/h Distance 4.52 km</desc>
<time>2010-02-27T10:56:39.68</time>
<name>3274</name>
</trkpt>
<trkpt lat="48.955080" lon="8.645735">
<ele>242.5</ele>
<speed>4.1</speed>
<course>198.8</course>
<desc>Speed 4.1 km/h Distance 4.52 km</desc>
<time>2010-02-27T10:56:40.68</time>
<name>3275</name>
</trkpt>
<trkpt lat="48.955067" lon="8.645728">
<ele>243.5</ele>
<speed>3.6</speed>
<course>161.8</course>
<desc>Speed 3.6 km/h Distance 4.52 km</desc>
<time>2010-02-27T10:56:41.68</time>
<name>3276</name>
</trkpt>
<trkpt lat="48.955057" lon="8.645733">
<ele>243.5</ele>
<speed>4.2</speed>
<course>131.1</course>
<desc>Speed 4.2 km/h Distance 4.52 km</desc>
<time>2010-02-27T10:56:42.68</time>
<name>3277</name>
</trkpt>
<trkpt lat="48.955050" lon="8.645745">
<ele>243.5</ele>
<speed>4.1</speed>
<course>177.2</course>
<desc>Speed 4.1 km/h Distance 4.52 km</desc>
<time>2010-02-27T10:56:43.68</time>
<name>3278</name>
</trkpt>
<trkpt lat="48.955033" lon="8.645747">
<ele>246.0</ele>
<speed>3.3</speed>
<course>140.6</course>
<desc>Speed 3.3 km/h Distance 4.52 km</desc>
<time>2010-02-27T10:56:44.68</time>
<name>3279</name>
</trkpt>
<trkpt lat="48.955027" lon="8.645755">
<ele>246.0</ele>
<speed>3.9</speed>
<course>130.4</course>
<desc>Speed 3.9 km/h Distance 4.52 km</desc>
<time>2010-02-27T10:56:45.68</time>
<name>3280</name>
</trkpt>
<trkpt lat="48.955018" lon="8.645770">
<ele>247.5</ele>
<speed>5.4</speed>
<course>151.7</course>
<desc>Speed 5.4 km/h Distance 4.52 km</desc>
<time>2010-02-27T10:56:46.68</time>
<name>3281</name>
</trkpt>
<trkpt lat="48.955008" lon="8.645778">
<ele>247.0</ele>
<speed>4.5</speed>
<course>209.9</course>
<desc>Speed 4.5 km/h Distance 4.53 km</desc>
<time>2010-02-27T10:56:47.68</time>
<name>3282</name>
</trkpt>
<trkpt lat="48.954982" lon="8.645755">
<ele>248.5</ele>
<speed>3.2</speed>
<course>135.5</course>
<desc>Speed 3.2 km/h Distance 4.53 km</desc>
<time>2010-02-27T10:56:49.68</time>
<name>3283</name>
</trkpt>
<trkpt lat="48.954975" lon="8.645765">
<ele>247.5</ele>
<speed>3.5</speed>
<course>132.6</course>
<desc>Speed 3.5 km/h Distance 4.53 km</desc>
<time>2010-02-27T10:56:50.68</time>
<name>3284</name>
</trkpt>
<trkpt lat="48.954970" lon="8.645773">
<ele>247.5</ele>
<speed>3.3</speed>
<course>198.4</course>
<desc>Speed 3.3 km/h Distance 4.53 km</desc>
<time>2010-02-27T10:56:51.67</time>
<name>3285</name>
</trkpt>
<trkpt lat="48.954957" lon="8.645767">
<ele>247.5</ele>
<speed>6.0</speed>
<course>189.0</course>
<desc>Speed 6.0 km/h Distance 4.53 km</desc>
<time>2010-02-27T10:56:52.68</time>
<name>3286</name>
</trkpt>
<trkpt lat="48.954943" lon="8.645763">
<ele>247.5</ele>
<speed>5.5</speed>
<course>138.8</course>
<desc>Speed 5.5 km/h Distance 4.53 km</desc>
<time>2010-02-27T10:56:53.67</time>
<name>3287</name>
</trkpt>
<trkpt lat="48.954933" lon="8.645777">
<ele>249.5</ele>
<speed>6.1</speed>
<course>128.1</course>
<desc>Speed 6.1 km/h Distance 4.54 km</desc>
<time>2010-02-27T10:56:54.67</time>
<name>3288</name>
</trkpt>
<trkpt lat="48.954932" lon="8.645780">
<ele>249.5</ele>
<speed>1.8</speed>
<course>127.4</course>
<desc>Speed 1.8 km/h Distance 4.54 km</desc>
<time>2010-02-27T10:56:55.68</time>
<name>3289</name>
</trkpt>
<trkpt lat="48.954927" lon="8.645790">
<ele>250.0</ele>
<speed>3.6</speed>
<course>203.7</course>
<desc>Speed 3.6 km/h Distance 4.54 km</desc>
<time>2010-02-27T10:56:56.68</time>
<name>3290</name>
</trkpt>
<trkpt lat="48.954912" lon="8.645780">
<ele>251.0</ele>
<speed>7.6</speed>
<course>80.4</course>
<desc>Speed 7.6 km/h Distance 4.54 km</desc>
<time>2010-02-27T10:56:57.68</time>
<name>3291</name>
</trkpt>
<trkpt lat="48.954913" lon="8.645795">
<ele>249.5</ele>
<speed>3.5</speed>
<course>137.4</course>
<desc>Speed 3.5 km/h Distance 4.54 km</desc>
<time>2010-02-27T10:56:58.67</time>
<name>3292</name>
</trkpt>
<trkpt lat="48.954905" lon="8.645807">
<ele>251.5</ele>
<speed>5.0</speed>
<course>90.0</course>
<desc>Speed 5.0 km/h Distance 4.54 km</desc>
<time>2010-02-27T10:56:59.68</time>
<name>3293</name>
</trkpt>
<trkpt lat="48.954905" lon="8.645810">
<ele>251.5</ele>
<speed>1.0</speed>
<course>90.0</course>
<desc>Speed 1.0 km/h Distance 4.54 km</desc>
<time>2010-02-27T10:57:00.68</time>
<name>3294</name>
</trkpt>
<trkpt lat="48.954905" lon="8.645818">
<ele>250.0</ele>
<speed>1.9</speed>
<course>161.2</course>
<desc>Speed 1.9 km/h Distance 4.54 km</desc>
<time>2010-02-27T10:57:01.67</time>
<name>3295</name>
</trkpt>
<trkpt lat="48.954902" lon="8.645820">
<ele>249.5</ele>
<speed>1.8</speed>
<course>180.0</course>
<desc>Speed 1.8 km/h Distance 4.54 km</desc>
<time>2010-02-27T10:57:02.72</time>
<name>3296</name>
</trkpt>
<trkpt lat="48.954892" lon="8.645820">
<ele>251.0</ele>
<speed>2.8</speed>
<course>201.5</course>
<desc>Speed 2.8 km/h Distance 4.54 km</desc>
<time>2010-02-27T10:57:03.67</time>
<name>3297</name>
</trkpt>
<trkpt lat="48.954883" lon="8.645815">
<ele>252.0</ele>
<speed>0.3</speed>
<course>116.9</course>
<desc>Speed 0.3 km/h Distance 4.54 km</desc>
<time>2010-02-27T10:57:04.67</time>
<name>3298</name>
</trkpt>
<trkpt lat="48.954878" lon="8.645830">
<ele>251.5</ele>
<speed>4.5</speed>
<course>222.6</course>
<desc>Speed 4.5 km/h Distance 4.55 km</desc>
<time>2010-02-27T10:57:05.67</time>
<name>3299</name>
</trkpt>
<trkpt lat="48.954870" lon="8.645818">
<ele>251.0</ele>
<speed>1.8</speed>
<course>132.2</course>
<desc>Speed 1.8 km/h Distance 4.55 km</desc>
<time>2010-02-27T10:57:06.68</time>
<name>3300</name>
</trkpt>
<trkpt lat="48.954865" lon="8.645827">
<ele>251.0</ele>
<speed>2.8</speed>
<course>140.6</course>
<desc>Speed 2.8 km/h Distance 4.55 km</desc>
<time>2010-02-27T10:57:07.67</time>
<name>3301</name>
</trkpt>
<trkpt lat="48.954858" lon="8.645835">
<ele>252.0</ele>
<speed>2.9</speed>
<course>153.6</course>
<desc>Speed 2.9 km/h Distance 4.55 km</desc>
<time>2010-02-27T10:57:08.67</time>
<name>3302</name>
</trkpt>
<trkpt lat="48.954852" lon="8.645840">
<ele>252.0</ele>
<speed>2.9</speed>
<course>198.8</course>
<desc>Speed 2.9 km/h Distance 4.55 km</desc>
<time>2010-02-27T10:57:09.67</time>
<name>3303</name>
</trkpt>
<trkpt lat="48.954848" lon="8.645838">
<ele>251.0</ele>
<speed>1.2</speed>
<course>146.3</course>
<desc>Speed 1.2 km/h Distance 4.55 km</desc>
<time>2010-02-27T10:57:10.67</time>
<name>3304</name>
</trkpt>
<trkpt lat="48.954842" lon="8.645845">
<ele>250.0</ele>
<speed>2.7</speed>
<course>110.9</course>
<desc>Speed 2.7 km/h Distance 4.55 km</desc>
<time>2010-02-27T10:57:11.67</time>
<name>3305</name>
</trkpt>
<trkpt lat="48.954835" lon="8.645872">
<ele>253.0</ele>
<speed>6.3</speed>
<course>121.4</course>
<desc>Speed 6.3 km/h Distance 4.55 km</desc>
<time>2010-02-27T10:57:12.67</time>
<name>3306</name>
</trkpt>
<trkpt lat="48.954828" lon="8.645888">
<ele>253.5</ele>
<speed>3.3</speed>
<course>116.9</course>
<desc>Speed 3.3 km/h Distance 4.55 km</desc>
<time>2010-02-27T10:57:13.67</time>
<name>3307</name>
</trkpt>
<trkpt lat="48.954822" lon="8.645908">
<ele>255.5</ele>
<speed>3.0</speed>
<course>104.3</course>
<desc>Speed 3.0 km/h Distance 4.56 km</desc>
<time>2010-02-27T10:57:14.67</time>
<name>3308</name>
</trkpt>
<trkpt lat="48.954818" lon="8.645928">
<ele>257.5</ele>
<speed>2.4</speed>
<course>100.2</course>
<desc>Speed 2.4 km/h Distance 4.56 km</desc>
<time>2010-02-27T10:57:15.67</time>
<name>3309</name>
</trkpt>
<trkpt lat="48.954815" lon="8.645957">
<ele>260.0</ele>
<speed>3.5</speed>
<course>132.2</course>
<desc>Speed 3.5 km/h Distance 4.56 km</desc>
<time>2010-02-27T10:57:16.67</time>
<name>3310</name>
</trkpt>
<trkpt lat="48.954810" lon="8.645965">
<ele>260.0</ele>
<speed>2.7</speed>
<course>121.4</course>
<desc>Speed 2.7 km/h Distance 4.56 km</desc>
<time>2010-02-27T10:57:17.67</time>
<name>3311</name>
</trkpt>
<trkpt lat="48.954807" lon="8.645973">
<ele>259.5</ele>
<speed>2.7</speed>
<course>158.5</course>
<desc>Speed 2.7 km/h Distance 4.56 km</desc>
<time>2010-02-27T10:57:18.67</time>
<name>3312</name>
</trkpt>
<trkpt lat="48.954798" lon="8.645978">
<ele>261.0</ele>
<speed>2.3</speed>
<course>96.7</course>
<desc>Speed 2.3 km/h Distance 4.56 km</desc>
<time>2010-02-27T10:57:19.67</time>
<name>3313</name>
</trkpt>
<trkpt lat="48.954797" lon="8.646000">
<ele>263.0</ele>
<speed>4.1</speed>
<course>100.8</course>
<desc>Speed 4.1 km/h Distance 4.56 km</desc>
<time>2010-02-27T10:57:20.67</time>
<name>3314</name>
</trkpt>
<trkpt lat="48.954795" lon="8.646013">
<ele>263.0</ele>
<speed>3.2</speed>
<course>90.0</course>
<desc>Speed 3.2 km/h Distance 4.56 km</desc>
<time>2010-02-27T10:57:21.68</time>
<name>3315</name>
</trkpt>
<trkpt lat="48.954795" lon="8.646027">
<ele>262.5</ele>
<speed>3.1</speed>
<course>90.0</course>
<desc>Speed 3.1 km/h Distance 4.57 km</desc>
<time>2010-02-27T10:57:22.67</time>
<name>3316</name>
</trkpt>
<trkpt lat="48.954795" lon="8.646043">
<ele>263.5</ele>
<speed>3.3</speed>
<course>90.0</course>
<desc>Speed 3.3 km/h Distance 4.57 km</desc>
<time>2010-02-27T10:57:23.67</time>
<name>3317</name>
</trkpt>
<trkpt lat="48.954795" lon="8.646055">
<ele>263.5</ele>
<speed>3.0</speed>
<course>116.6</course>
<desc>Speed 3.0 km/h Distance 4.57 km</desc>
<time>2010-02-27T10:57:24.67</time>
<name>3318</name>
</trkpt>
<trkpt lat="48.954792" lon="8.646065">
<ele>264.5</ele>
<speed>3.1</speed>
<course>104.4</course>
<desc>Speed 3.1 km/h Distance 4.57 km</desc>
<time>2010-02-27T10:57:25.67</time>
<name>3319</name>
</trkpt>
<trkpt lat="48.954790" lon="8.646075">
<ele>263.0</ele>
<speed>2.2</speed>
<course>90.0</course>
<desc>Speed 2.2 km/h Distance 4.57 km</desc>
<time>2010-02-27T10:57:26.67</time>
<name>3320</name>
</trkpt>
<trkpt lat="48.954790" lon="8.646090">
<ele>263.5</ele>
<speed>3.2</speed>
<course>110.9</course>
<desc>Speed 3.2 km/h Distance 4.57 km</desc>
<time>2010-02-27T10:57:27.67</time>
<name>3321</name>
</trkpt>
<trkpt lat="48.954787" lon="8.646103">
<ele>263.5</ele>
<speed>2.4</speed>
<course>99.6</course>
<desc>Speed 2.4 km/h Distance 4.57 km</desc>
<time>2010-02-27T10:57:28.67</time>
<name>3322</name>
</trkpt>
<trkpt lat="48.954785" lon="8.646118">
<ele>264.0</ele>
<speed>2.9</speed>
<course>104.2</course>
<desc>Speed 2.9 km/h Distance 4.57 km</desc>
<time>2010-02-27T10:57:29.67</time>
<name>3323</name>
</trkpt>
<trkpt lat="48.954782" lon="8.646138">
<ele>264.5</ele>
<speed>3.5</speed>
<course>109.4</course>
<desc>Speed 3.5 km/h Distance 4.57 km</desc>
<time>2010-02-27T10:57:30.66</time>
<name>3324</name>
</trkpt>
<trkpt lat="48.954777" lon="8.646160">
<ele>265.5</ele>
<speed>5.2</speed>
<course>99.6</course>
<desc>Speed 5.2 km/h Distance 4.58 km</desc>
<time>2010-02-27T10:57:31.67</time>
<name>3325</name>
</trkpt>
<trkpt lat="48.954775" lon="8.646175">
<ele>265.0</ele>
<speed>3.8</speed>
<course>90.0</course>
<desc>Speed 3.8 km/h Distance 4.58 km</desc>
<time>2010-02-27T10:57:32.67</time>
<name>3326</name>
</trkpt>
<trkpt lat="48.954775" lon="8.646192">
<ele>264.0</ele>
<speed>3.5</speed>
<course>80.4</course>
<desc>Speed 3.5 km/h Distance 4.58 km</desc>
<time>2010-02-27T10:57:33.66</time>
<name>3327</name>
</trkpt>
<trkpt lat="48.954777" lon="8.646207">
<ele>263.5</ele>
<speed>2.3</speed>
<course>75.8</course>
<desc>Speed 2.3 km/h Distance 4.58 km</desc>
<time>2010-02-27T10:57:34.66</time>
<name>3328</name>
</trkpt>
<trkpt lat="48.954778" lon="8.646217">
<ele>261.5</ele>
<speed>2.3</speed>
<course>106.9</course>
<desc>Speed 2.3 km/h Distance 4.58 km</desc>
<time>2010-02-27T10:57:35.66</time>
<name>3329</name>
</trkpt>
<trkpt lat="48.954777" lon="8.646225">
<ele>261.5</ele>
<speed>1.8</speed>
<course>117.0</course>
<desc>Speed 1.8 km/h Distance 4.58 km</desc>
<time>2010-02-27T10:57:36.66</time>
<name>3330</name>
</trkpt>
<trkpt lat="48.954773" lon="8.646235">
<ele>261.5</ele>
<speed>2.7</speed>
<course>90.0</course>
<desc>Speed 2.7 km/h Distance 4.58 km</desc>
<time>2010-02-27T10:57:37.66</time>
<name>3331</name>
</trkpt>
<trkpt lat="48.954773" lon="8.646250">
<ele>260.5</ele>
<speed>3.6</speed>
<course>102.3</course>
<desc>Speed 3.6 km/h Distance 4.58 km</desc>
<time>2010-02-27T10:57:38.67</time>
<name>3332</name>
</trkpt>
<trkpt lat="48.954772" lon="8.646262">
<ele>261.0</ele>
<speed>3.0</speed>
<course>75.8</course>
<desc>Speed 3.0 km/h Distance 4.58 km</desc>
<time>2010-02-27T10:57:39.66</time>
<name>3333</name>
</trkpt>
<trkpt lat="48.954773" lon="8.646272">
<ele>261.0</ele>
<speed>1.4</speed>
<course>114.6</course>
<desc>Speed 1.4 km/h Distance 4.58 km</desc>
<time>2010-02-27T10:57:40.66</time>
<name>3334</name>
</trkpt>
<trkpt lat="48.954768" lon="8.646288">
<ele>261.0</ele>
<speed>4.6</speed>
<course>90.0</course>
<desc>Speed 4.6 km/h Distance 4.59 km</desc>
<time>2010-02-27T10:57:41.66</time>
<name>3335</name>
</trkpt>
<trkpt lat="48.954768" lon="8.646305">
<ele>261.5</ele>
<speed>3.6</speed>
<course>122.4</course>
<desc>Speed 3.6 km/h Distance 4.59 km</desc>
<time>2010-02-27T10:57:42.66</time>
<name>3336</name>
</trkpt>
<trkpt lat="48.954760" lon="8.646325">
<ele>261.5</ele>
<speed>6.1</speed>
<course>58.6</course>
<desc>Speed 6.1 km/h Distance 4.59 km</desc>
<time>2010-02-27T10:57:43.66</time>
<name>3337</name>
</trkpt>
<trkpt lat="48.954763" lon="8.646333">
<ele>261.5</ele>
<speed>2.1</speed>
<course>110.9</course>
<desc>Speed 2.1 km/h Distance 4.59 km</desc>
<time>2010-02-27T10:57:44.66</time>
<name>3338</name>
</trkpt>
<trkpt lat="48.954760" lon="8.646347">
<ele>262.0</ele>
<speed>3.4</speed>
<course>90.0</course>
<desc>Speed 3.4 km/h Distance 4.59 km</desc>
<time>2010-02-27T10:57:45.66</time>
<name>3339</name>
</trkpt>
<trkpt lat="48.954760" lon="8.646360">
<ele>261.5</ele>
<speed>2.8</speed>
<course>90.0</course>
<desc>Speed 2.8 km/h Distance 4.59 km</desc>
<time>2010-02-27T10:57:46.66</time>
<name>3340</name>
</trkpt>
<trkpt lat="48.954760" lon="8.646375">
<ele>260.0</ele>
<speed>3.1</speed>
<course>123.3</course>
<desc>Speed 3.1 km/h Distance 4.59 km</desc>
<time>2010-02-27T10:57:47.66</time>
<name>3341</name>
</trkpt>
<trkpt lat="48.954755" lon="8.646387">
<ele>259.5</ele>
<speed>2.8</speed>
<course>150.8</course>
<desc>Speed 2.8 km/h Distance 4.59 km</desc>
<time>2010-02-27T10:57:48.66</time>
<name>3342</name>
</trkpt>
<trkpt lat="48.954753" lon="8.646388">
<ele>260.0</ele>
<speed>1.2</speed>
<course>72.9</course>
<desc>Speed 1.2 km/h Distance 4.59 km</desc>
<time>2010-02-27T10:57:49.66</time>
<name>3343</name>
</trkpt>
<trkpt lat="48.954755" lon="8.646397">
<ele>260.5</ele>
<speed>0.9</speed>
<course>12.6</course>
<desc>Speed 0.9 km/h Distance 4.59 km</desc>
<time>2010-02-27T10:57:50.66</time>
<name>3344</name>
</trkpt>
<trkpt lat="48.954757" lon="8.646398">
<ele>260.5</ele>
<speed>0.4</speed>
<course>51.9</course>
<desc>Speed 0.4 km/h Distance 4.59 km</desc>
<time>2010-02-27T10:57:51.66</time>
<name>3345</name>
</trkpt>
<trkpt lat="48.954758" lon="8.646402">
<ele>260.5</ele>
<speed>0.9</speed>
<course>132.2</course>
<desc>Speed 0.9 km/h Distance 4.59 km</desc>
<time>2010-02-27T10:57:52.65</time>
<name>3346</name>
</trkpt>
<trkpt lat="48.954753" lon="8.646410">
<ele>260.5</ele>
<speed>2.6</speed>
<course>124.1</course>
<desc>Speed 2.6 km/h Distance 4.60 km</desc>
<time>2010-02-27T10:57:53.66</time>
<name>3347</name>
</trkpt>
<trkpt lat="48.954747" lon="8.646425">
<ele>261.5</ele>
<speed>4.9</speed>
<course>123.3</course>
<desc>Speed 4.9 km/h Distance 4.60 km</desc>
<time>2010-02-27T10:57:54.66</time>
<name>3348</name>
</trkpt>
<trkpt lat="48.954742" lon="8.646437">
<ele>262.0</ele>
<speed>3.5</speed>
<course>119.8</course>
<desc>Speed 3.5 km/h Distance 4.60 km</desc>
<time>2010-02-27T10:57:55.66</time>
<name>3349</name>
</trkpt>
<trkpt lat="48.954737" lon="8.646450">
<ele>262.5</ele>
<speed>3.4</speed>
<course>112.6</course>
<desc>Speed 3.4 km/h Distance 4.60 km</desc>
<time>2010-02-27T10:57:56.65</time>
<name>3350</name>
</trkpt>
<trkpt lat="48.954732" lon="8.646468">
<ele>262.5</ele>
<speed>5.0</speed>
<course>140.6</course>
<desc>Speed 5.0 km/h Distance 4.60 km</desc>
<time>2010-02-27T10:57:57.66</time>
<name>3351</name>
</trkpt>
<trkpt lat="48.954725" lon="8.646477">
<ele>261.5</ele>
<speed>3.6</speed>
<course>108.7</course>
<desc>Speed 3.6 km/h Distance 4.60 km</desc>
<time>2010-02-27T10:57:58.66</time>
<name>3352</name>
</trkpt>
<trkpt lat="48.954722" lon="8.646492">
<ele>261.0</ele>
<speed>4.1</speed>
<course>131.1</course>
<desc>Speed 4.1 km/h Distance 4.60 km</desc>
<time>2010-02-27T10:57:59.66</time>
<name>3353</name>
</trkpt>
<trkpt lat="48.954715" lon="8.646503">
<ele>260.5</ele>
<speed>4.3</speed>
<course>116.9</course>
<desc>Speed 4.3 km/h Distance 4.60 km</desc>
<time>2010-02-27T10:58:00.66</time>
<name>3354</name>
</trkpt>
<trkpt lat="48.954710" lon="8.646518">
<ele>260.5</ele>
<speed>4.4</speed>
<course>107.0</course>
<desc>Speed 4.4 km/h Distance 4.61 km</desc>
<time>2010-02-27T10:58:01.66</time>
<name>3355</name>
</trkpt>
<trkpt lat="48.954707" lon="8.646535">
<ele>261.0</ele>
<speed>4.3</speed>
<course>108.7</course>
<desc>Speed 4.3 km/h Distance 4.61 km</desc>
<time>2010-02-27T10:58:02.66</time>
<name>3356</name>
</trkpt>
<trkpt lat="48.954703" lon="8.646550">
<ele>261.0</ele>
<speed>4.2</speed>
<course>99.6</course>
<desc>Speed 4.2 km/h Distance 4.61 km</desc>
<time>2010-02-27T10:58:03.66</time>
<name>3357</name>
</trkpt>
<trkpt lat="48.954702" lon="8.646565">
<ele>260.5</ele>
<speed>3.7</speed>
<course>104.1</course>
<desc>Speed 3.7 km/h Distance 4.61 km</desc>
<time>2010-02-27T10:58:04.65</time>
<name>3358</name>
</trkpt>
<trkpt lat="48.954700" lon="8.646575">
<ele>260.0</ele>
<speed>3.2</speed>
<course>108.7</course>
<desc>Speed 3.2 km/h Distance 4.61 km</desc>
<time>2010-02-27T10:58:05.66</time>
<name>3359</name>
</trkpt>
<trkpt lat="48.954697" lon="8.646590">
<ele>260.5</ele>
<speed>4.3</speed>
<course>106.9</course>
<desc>Speed 4.3 km/h Distance 4.61 km</desc>
<time>2010-02-27T10:58:06.65</time>
<name>3360</name>
</trkpt>
<trkpt lat="48.954693" lon="8.646607">
<ele>260.0</ele>
<speed>4.5</speed>
<course>119.7</course>
<desc>Speed 4.5 km/h Distance 4.61 km</desc>
<time>2010-02-27T10:58:07.66</time>
<name>3361</name>
</trkpt>
<trkpt lat="48.954688" lon="8.646620">
<ele>260.0</ele>
<speed>4.5</speed>
<course>123.3</course>
<desc>Speed 4.5 km/h Distance 4.61 km</desc>
<time>2010-02-27T10:58:08.66</time>
<name>3362</name>
</trkpt>
<trkpt lat="48.954683" lon="8.646632">
<ele>259.0</ele>
<speed>3.4</speed>
<course>113.4</course>
<desc>Speed 3.4 km/h Distance 4.61 km</desc>
<time>2010-02-27T10:58:09.65</time>
<name>3363</name>
</trkpt>
<trkpt lat="48.954680" lon="8.646643">
<ele>258.5</ele>
<speed>3.4</speed>
<course>106.7</course>
<desc>Speed 3.4 km/h Distance 4.61 km</desc>
<time>2010-02-27T10:58:10.65</time>
<name>3364</name>
</trkpt>
<trkpt lat="48.954678" lon="8.646652">
<ele>258.0</ele>
<speed>2.7</speed>
<course>121.4</course>
<desc>Speed 2.7 km/h Distance 4.62 km</desc>
<time>2010-02-27T10:58:11.66</time>
<name>3365</name>
</trkpt>
<trkpt lat="48.954675" lon="8.646660">
<ele>257.0</ele>
<speed>2.8</speed>
<course>90.0</course>
<desc>Speed 2.8 km/h Distance 4.62 km</desc>
<time>2010-02-27T10:58:12.66</time>
<name>3366</name>
</trkpt>
<trkpt lat="48.954675" lon="8.646673">
<ele>257.0</ele>
<speed>3.5</speed>
<course>119.8</course>
<desc>Speed 3.5 km/h Distance 4.62 km</desc>
<time>2010-02-27T10:58:13.66</time>
<name>3367</name>
</trkpt>
<trkpt lat="48.954670" lon="8.646687">
<ele>256.0</ele>
<speed>3.7</speed>
<course>100.8</course>
<desc>Speed 3.7 km/h Distance 4.62 km</desc>
<time>2010-02-27T10:58:14.65</time>
<name>3368</name>
</trkpt>
<trkpt lat="48.954668" lon="8.646700">
<ele>255.5</ele>
<speed>3.7</speed>
<course>112.6</course>
<desc>Speed 3.7 km/h Distance 4.62 km</desc>
<time>2010-02-27T10:58:15.66</time>
<name>3369</name>
</trkpt>
<trkpt lat="48.954663" lon="8.646718">
<ele>255.0</ele>
<speed>3.6</speed>
<course>127.2</course>
<desc>Speed 3.6 km/h Distance 4.62 km</desc>
<time>2010-02-27T10:58:16.66</time>
<name>3370</name>
</trkpt>
<trkpt lat="48.954658" lon="8.646728">
<ele>253.5</ele>
<speed>3.1</speed>
<course>117.0</course>
<desc>Speed 3.1 km/h Distance 4.62 km</desc>
<time>2010-02-27T10:58:17.66</time>
<name>3371</name>
</trkpt>
<trkpt lat="48.954655" lon="8.646738">
<ele>253.0</ele>
<speed>3.1</speed>
<course>131.1</course>
<desc>Speed 3.1 km/h Distance 4.62 km</desc>
<time>2010-02-27T10:58:18.65</time>
<name>3372</name>
</trkpt>
<trkpt lat="48.954648" lon="8.646750">
<ele>252.5</ele>
<speed>3.5</speed>
<course>105.5</course>
<desc>Speed 3.5 km/h Distance 4.62 km</desc>
<time>2010-02-27T10:58:19.65</time>
<name>3373</name>
</trkpt>
<trkpt lat="48.954645" lon="8.646768">
<ele>252.5</ele>
<speed>4.5</speed>
<course>106.9</course>
<desc>Speed 4.5 km/h Distance 4.63 km</desc>
<time>2010-02-27T10:58:20.65</time>
<name>3374</name>
</trkpt>
<trkpt lat="48.954642" lon="8.646785">
<ele>252.5</ele>
<speed>4.2</speed>
<course>108.8</course>
<desc>Speed 4.2 km/h Distance 4.63 km</desc>
<time>2010-02-27T10:58:21.66</time>
<name>3375</name>
</trkpt>
<trkpt lat="48.954638" lon="8.646800">
<ele>252.0</ele>
<speed>3.7</speed>
<course>107.0</course>
<desc>Speed 3.7 km/h Distance 4.63 km</desc>
<time>2010-02-27T10:58:22.65</time>
<name>3376</name>
</trkpt>
<trkpt lat="48.954635" lon="8.646817">
<ele>252.0</ele>
<speed>4.0</speed>
<course>131.1</course>
<desc>Speed 4.0 km/h Distance 4.63 km</desc>
<time>2010-02-27T10:58:23.65</time>
<name>3377</name>
</trkpt>
<trkpt lat="48.954628" lon="8.646828">
<ele>251.5</ele>
<speed>3.7</speed>
<course>108.7</course>
<desc>Speed 3.7 km/h Distance 4.63 km</desc>
<time>2010-02-27T10:58:24.65</time>
<name>3378</name>
</trkpt>
<trkpt lat="48.954625" lon="8.646843">
<ele>251.5</ele>
<speed>3.6</speed>
<course>105.5</course>
<desc>Speed 3.6 km/h Distance 4.63 km</desc>
<time>2010-02-27T10:58:25.65</time>
<name>3379</name>
</trkpt>
<trkpt lat="48.954622" lon="8.646862">
<ele>251.5</ele>
<speed>4.0</speed>
<course>119.9</course>
<desc>Speed 4.0 km/h Distance 4.63 km</desc>
<time>2010-02-27T10:58:26.65</time>
<name>3380</name>
</trkpt>
<trkpt lat="48.954617" lon="8.646875">
<ele>251.0</ele>
<speed>3.7</speed>
<course>121.3</course>
<desc>Speed 3.7 km/h Distance 4.63 km</desc>
<time>2010-02-27T10:58:27.65</time>
<name>3381</name>
</trkpt>
<trkpt lat="48.954610" lon="8.646892">
<ele>251.0</ele>
<speed>4.7</speed>
<course>116.9</course>
<desc>Speed 4.7 km/h Distance 4.64 km</desc>
<time>2010-02-27T10:58:28.65</time>
<name>3382</name>
</trkpt>
<trkpt lat="48.954605" lon="8.646907">
<ele>251.5</ele>
<speed>4.5</speed>
<course>105.1</course>
<desc>Speed 4.5 km/h Distance 4.64 km</desc>
<time>2010-02-27T10:58:29.65</time>
<name>3383</name>
</trkpt>
<trkpt lat="48.954600" lon="8.646935">
<ele>253.0</ele>
<speed>4.6</speed>
<course>116.9</course>
<desc>Speed 4.6 km/h Distance 4.64 km</desc>
<time>2010-02-27T10:58:30.65</time>
<name>3384</name>
</trkpt>
<trkpt lat="48.954595" lon="8.646950">
<ele>253.0</ele>
<speed>4.2</speed>
<course>127.3</course>
<desc>Speed 4.2 km/h Distance 4.64 km</desc>
<time>2010-02-27T10:58:31.65</time>
<name>3385</name>
</trkpt>
<trkpt lat="48.954588" lon="8.646963">
<ele>252.5</ele>
<speed>4.2</speed>
<course>124.1</course>
<desc>Speed 4.2 km/h Distance 4.64 km</desc>
<time>2010-02-27T10:58:32.65</time>
<name>3386</name>
</trkpt>
<trkpt lat="48.954582" lon="8.646978">
<ele>252.0</ele>
<speed>4.5</speed>
<course>124.0</course>
<desc>Speed 4.5 km/h Distance 4.64 km</desc>
<time>2010-02-27T10:58:33.65</time>
<name>3387</name>
</trkpt>
<trkpt lat="48.954575" lon="8.646993">
<ele>252.0</ele>
<speed>4.4</speed>
<course>112.5</course>
<desc>Speed 4.4 km/h Distance 4.64 km</desc>
<time>2010-02-27T10:58:34.65</time>
<name>3388</name>
</trkpt>
<trkpt lat="48.954570" lon="8.647012">
<ele>252.0</ele>
<speed>4.6</speed>
<course>146.8</course>
<desc>Speed 4.6 km/h Distance 4.64 km</desc>
<time>2010-02-27T10:58:35.65</time>
<name>3389</name>
</trkpt>
<trkpt lat="48.954562" lon="8.647020">
<ele>252.5</ele>
<speed>3.7</speed>
<course>104.2</course>
<desc>Speed 3.7 km/h Distance 4.65 km</desc>
<time>2010-02-27T10:58:36.65</time>
<name>3390</name>
</trkpt>
<trkpt lat="48.954558" lon="8.647040">
<ele>253.5</ele>
<speed>3.9</speed>
<course>105.0</course>
<desc>Speed 3.9 km/h Distance 4.65 km</desc>
<time>2010-02-27T10:58:37.65</time>
<name>3391</name>
</trkpt>
<trkpt lat="48.954553" lon="8.647068">
<ele>255.0</ele>
<speed>3.8</speed>
<course>114.5</course>
<desc>Speed 3.8 km/h Distance 4.65 km</desc>
<time>2010-02-27T10:58:38.65</time>
<name>3392</name>
</trkpt>
<trkpt lat="48.954548" lon="8.647085">
<ele>254.5</ele>
<speed>3.7</speed>
<course>110.9</course>
<desc>Speed 3.7 km/h Distance 4.65 km</desc>
<time>2010-02-27T10:58:39.65</time>
<name>3393</name>
</trkpt>
<trkpt lat="48.954543" lon="8.647105">
<ele>255.0</ele>
<speed>4.1</speed>
<course>127.2</course>
<desc>Speed 4.1 km/h Distance 4.65 km</desc>
<time>2010-02-27T10:58:40.65</time>
<name>3394</name>
</trkpt>
<trkpt lat="48.954538" lon="8.647115">
<ele>254.0</ele>
<speed>3.4</speed>
<course>119.8</course>
<desc>Speed 3.4 km/h Distance 4.65 km</desc>
<time>2010-02-27T10:58:41.65</time>
<name>3395</name>
</trkpt>
<trkpt lat="48.954533" lon="8.647128">
<ele>253.5</ele>
<speed>3.5</speed>
<course>105.5</course>
<desc>Speed 3.5 km/h Distance 4.65 km</desc>
<time>2010-02-27T10:58:42.65</time>
<name>3396</name>
</trkpt>
<trkpt lat="48.954530" lon="8.647147">
<ele>254.0</ele>
<speed>4.1</speed>
<course>119.7</course>
<desc>Speed 4.1 km/h Distance 4.66 km</desc>
<time>2010-02-27T10:58:43.65</time>
<name>3397</name>
</trkpt>
<trkpt lat="48.954525" lon="8.647160">
<ele>253.5</ele>
<speed>3.6</speed>
<course>116.8</course>
<desc>Speed 3.6 km/h Distance 4.66 km</desc>
<time>2010-02-27T10:58:44.65</time>
<name>3398</name>
</trkpt>
<trkpt lat="48.954522" lon="8.647170">
<ele>252.5</ele>
<speed>2.9</speed>
<course>137.4</course>
<desc>Speed 2.9 km/h Distance 4.66 km</desc>
<time>2010-02-27T10:58:45.65</time>
<name>3399</name>
</trkpt>
<trkpt lat="48.954513" lon="8.647182">
<ele>252.0</ele>
<speed>4.2</speed>
<course>124.1</course>
<desc>Speed 4.2 km/h Distance 4.66 km</desc>
<time>2010-02-27T10:58:46.65</time>
<name>3400</name>
</trkpt>
<trkpt lat="48.954507" lon="8.647197">
<ele>251.5</ele>
<speed>4.3</speed>
<course>135.5</course>
<desc>Speed 4.3 km/h Distance 4.66 km</desc>
<time>2010-02-27T10:58:47.65</time>
<name>3401</name>
</trkpt>
<trkpt lat="48.954500" lon="8.647207">
<ele>250.5</ele>
<speed>4.0</speed>
<course>119.7</course>
<desc>Speed 4.0 km/h Distance 4.66 km</desc>
<time>2010-02-27T10:58:48.65</time>
<name>3402</name>
</trkpt>
<trkpt lat="48.954495" lon="8.647220">
<ele>250.5</ele>
<speed>3.9</speed>
<course>106.9</course>
<desc>Speed 3.9 km/h Distance 4.66 km</desc>
<time>2010-02-27T10:58:49.65</time>
<name>3403</name>
</trkpt>
<trkpt lat="48.954492" lon="8.647237">
<ele>251.0</ele>
<speed>4.7</speed>
<course>110.9</course>
<desc>Speed 4.7 km/h Distance 4.66 km</desc>
<time>2010-02-27T10:58:50.65</time>
<name>3404</name>
</trkpt>
<trkpt lat="48.954488" lon="8.647250">
<ele>250.5</ele>
<speed>3.5</speed>
<course>116.9</course>
<desc>Speed 3.5 km/h Distance 4.67 km</desc>
<time>2010-02-27T10:58:51.65</time>
<name>3405</name>
</trkpt>
<trkpt lat="48.954483" lon="8.647265">
<ele>250.5</ele>
<speed>4.3</speed>
<course>114.6</course>
<desc>Speed 4.3 km/h Distance 4.67 km</desc>
<time>2010-02-27T10:58:52.65</time>
<name>3406</name>
</trkpt>
<trkpt lat="48.954478" lon="8.647282">
<ele>250.0</ele>
<speed>4.7</speed>
<course>97.9</course>
<desc>Speed 4.7 km/h Distance 4.67 km</desc>
<time>2010-02-27T10:58:53.65</time>
<name>3407</name>
</trkpt>
<trkpt lat="48.954477" lon="8.647300">
<ele>250.0</ele>
<speed>5.1</speed>
<course>112.6</course>
<desc>Speed 5.1 km/h Distance 4.67 km</desc>
<time>2010-02-27T10:58:54.65</time>
<name>3408</name>
</trkpt>
<trkpt lat="48.954472" lon="8.647318">
<ele>250.0</ele>
<speed>5.1</speed>
<course>90.0</course>
<desc>Speed 5.1 km/h Distance 4.67 km</desc>
<time>2010-02-27T10:58:55.65</time>
<name>3409</name>
</trkpt>
<trkpt lat="48.954472" lon="8.647333">
<ele>250.5</ele>
<speed>4.2</speed>
<course>108.7</course>
<desc>Speed 4.2 km/h Distance 4.67 km</desc>
<time>2010-02-27T10:58:56.65</time>
<name>3410</name>
</trkpt>
<trkpt lat="48.954468" lon="8.647348">
<ele>250.5</ele>
<speed>4.2</speed>
<course>119.9</course>
<desc>Speed 4.2 km/h Distance 4.67 km</desc>
<time>2010-02-27T10:58:57.65</time>
<name>3411</name>
</trkpt>
<trkpt lat="48.954463" lon="8.647362">
<ele>250.0</ele>
<speed>4.5</speed>
<course>114.5</course>
<desc>Speed 4.5 km/h Distance 4.67 km</desc>
<time>2010-02-27T10:58:58.65</time>
<name>3412</name>
</trkpt>
<trkpt lat="48.954458" lon="8.647378">
<ele>250.0</ele>
<speed>4.5</speed>
<course>110.8</course>
<desc>Speed 4.5 km/h Distance 4.68 km</desc>
<time>2010-02-27T10:58:59.65</time>
<name>3413</name>
</trkpt>
<trkpt lat="48.954455" lon="8.647392">
<ele>250.0</ele>
<speed>4.1</speed>
<course>113.5</course>
<desc>Speed 4.1 km/h Distance 4.68 km</desc>
<time>2010-02-27T10:59:00.65</time>
<name>3414</name>
</trkpt>
<trkpt lat="48.954452" lon="8.647403">
<ele>249.5</ele>
<speed>3.3</speed>
<course>139.1</course>
<desc>Speed 3.3 km/h Distance 4.68 km</desc>
<time>2010-02-27T10:59:01.64</time>
<name>3415</name>
</trkpt>
<trkpt lat="48.954447" lon="8.647410">
<ele>248.5</ele>
<speed>2.6</speed>
<course>116.9</course>
<desc>Speed 2.6 km/h Distance 4.68 km</desc>
<time>2010-02-27T10:59:02.65</time>
<name>3416</name>
</trkpt>
<trkpt lat="48.954442" lon="8.647425">
<ele>248.0</ele>
<speed>4.0</speed>
<course>116.9</course>
<desc>Speed 4.0 km/h Distance 4.68 km</desc>
<time>2010-02-27T10:59:03.65</time>
<name>3417</name>
</trkpt>
<trkpt lat="48.954437" lon="8.647440">
<ele>248.0</ele>
<speed>4.3</speed>
<course>114.6</course>
<desc>Speed 4.3 km/h Distance 4.68 km</desc>
<time>2010-02-27T10:59:04.64</time>
<name>3418</name>
</trkpt>
<trkpt lat="48.954432" lon="8.647457">
<ele>247.5</ele>
<speed>4.4</speed>
<course>90.0</course>
<desc>Speed 4.4 km/h Distance 4.68 km</desc>
<time>2010-02-27T10:59:05.64</time>
<name>3419</name>
</trkpt>
<trkpt lat="48.954432" lon="8.647482">
<ele>247.5</ele>
<speed>4.6</speed>
<course>110.8</course>
<desc>Speed 4.6 km/h Distance 4.68 km</desc>
<time>2010-02-27T10:59:06.64</time>
<name>3420</name>
</trkpt>
<trkpt lat="48.954428" lon="8.647495">
<ele>247.0</ele>
<speed>3.9</speed>
<course>113.5</course>
<desc>Speed 3.9 km/h Distance 4.68 km</desc>
<time>2010-02-27T10:59:07.64</time>
<name>3421</name>
</trkpt>
<trkpt lat="48.954425" lon="8.647507">
<ele>246.5</ele>
<speed>3.0</speed>
<course>105.1</course>
<desc>Speed 3.0 km/h Distance 4.69 km</desc>
<time>2010-02-27T10:59:08.65</time>
<name>3422</name>
</trkpt>
<trkpt lat="48.954420" lon="8.647535">
<ele>248.0</ele>
<speed>4.0</speed>
<course>85.9</course>
<desc>Speed 4.0 km/h Distance 4.69 km</desc>
<time>2010-02-27T10:59:09.64</time>
<name>3423</name>
</trkpt>
<trkpt lat="48.954422" lon="8.647570">
<ele>249.5</ele>
<speed>4.2</speed>
<course>92.9</course>
<desc>Speed 4.2 km/h Distance 4.69 km</desc>
<time>2010-02-27T10:59:10.64</time>
<name>3424</name>
</trkpt>
<trkpt lat="48.954418" lon="8.647672">
<ele>258.5</ele>
<speed>4.9</speed>
<course>106.9</course>
<desc>Speed 4.9 km/h Distance 4.70 km</desc>
<time>2010-02-27T10:59:12.64</time>
<name>3425</name>
</trkpt>
<trkpt lat="48.954415" lon="8.647688">
<ele>258.5</ele>
<speed>4.7</speed>
<course>106.9</course>
<desc>Speed 4.7 km/h Distance 4.70 km</desc>
<time>2010-02-27T10:59:13.64</time>
<name>3426</name>
</trkpt>
<trkpt lat="48.954412" lon="8.647705">
<ele>258.5</ele>
<speed>4.5</speed>
<course>119.9</course>
<desc>Speed 4.5 km/h Distance 4.70 km</desc>
<time>2010-02-27T10:59:14.64</time>
<name>3427</name>
</trkpt>
<trkpt lat="48.954407" lon="8.647718">
<ele>258.5</ele>
<speed>4.0</speed>
<course>98.7</course>
<desc>Speed 4.0 km/h Distance 4.70 km</desc>
<time>2010-02-27T10:59:15.64</time>
<name>3428</name>
</trkpt>
<trkpt lat="48.954405" lon="8.647735">
<ele>258.0</ele>
<speed>4.6</speed>
<course>106.9</course>
<desc>Speed 4.6 km/h Distance 4.70 km</desc>
<time>2010-02-27T10:59:16.64</time>
<name>3429</name>
</trkpt>
<trkpt lat="48.954402" lon="8.647752">
<ele>258.0</ele>
<speed>4.3</speed>
<course>121.3</course>
<desc>Speed 4.3 km/h Distance 4.70 km</desc>
<time>2010-02-27T10:59:17.64</time>
<name>3430</name>
</trkpt>
<trkpt lat="48.954395" lon="8.647768">
<ele>257.5</ele>
<speed>4.8</speed>
<course>114.6</course>
<desc>Speed 4.8 km/h Distance 4.71 km</desc>
<time>2010-02-27T10:59:18.64</time>
<name>3431</name>
</trkpt>
<trkpt lat="48.954390" lon="8.647785">
<ele>257.0</ele>
<speed>4.4</speed>
<course>106.9</course>
<desc>Speed 4.4 km/h Distance 4.71 km</desc>
<time>2010-02-27T10:59:19.64</time>
<name>3432</name>
</trkpt>
<trkpt lat="48.954387" lon="8.647802">
<ele>256.5</ele>
<speed>4.2</speed>
<course>114.6</course>
<desc>Speed 4.2 km/h Distance 4.71 km</desc>
<time>2010-02-27T10:59:20.64</time>
<name>3433</name>
</trkpt>
<trkpt lat="48.954382" lon="8.647818">
<ele>256.5</ele>
<speed>4.6</speed>
<course>98.7</course>
<desc>Speed 4.6 km/h Distance 4.71 km</desc>
<time>2010-02-27T10:59:21.65</time>
<name>3434</name>
</trkpt>
<trkpt lat="48.954380" lon="8.647835">
<ele>256.0</ele>
<speed>4.2</speed>
<course>104.2</course>
<desc>Speed 4.2 km/h Distance 4.71 km</desc>
<time>2010-02-27T10:59:22.64</time>
<name>3435</name>
</trkpt>
<trkpt lat="48.954377" lon="8.647855">
<ele>256.0</ele>
<speed>4.8</speed>
<course>110.8</course>
<desc>Speed 4.8 km/h Distance 4.71 km</desc>
<time>2010-02-27T10:59:23.64</time>
<name>3436</name>
</trkpt>
<trkpt lat="48.954372" lon="8.647875">
<ele>256.5</ele>
<speed>5.0</speed>
<course>105.5</course>
<desc>Speed 5.0 km/h Distance 4.71 km</desc>
<time>2010-02-27T10:59:24.64</time>
<name>3437</name>
</trkpt>
<trkpt lat="48.954368" lon="8.647893">
<ele>256.5</ele>
<speed>4.6</speed>
<course>101.5</course>
<desc>Speed 4.6 km/h Distance 4.71 km</desc>
<time>2010-02-27T10:59:25.64</time>
<name>3438</name>
</trkpt>
<trkpt lat="48.954365" lon="8.647918">
<ele>257.0</ele>
<speed>4.9</speed>
<course>96.9</course>
<desc>Speed 4.9 km/h Distance 4.72 km</desc>
<time>2010-02-27T10:59:26.63</time>
<name>3439</name>
</trkpt>
<trkpt lat="48.954358" lon="8.648002">
<ele>263.5</ele>
<speed>4.6</speed>
<course>97.9</course>
<desc>Speed 4.6 km/h Distance 4.72 km</desc>
<time>2010-02-27T10:59:28.63</time>
<name>3440</name>
</trkpt>
<trkpt lat="48.954357" lon="8.648020">
<ele>263.5</ele>
<speed>4.1</speed>
<course>112.6</course>
<desc>Speed 4.1 km/h Distance 4.72 km</desc>
<time>2010-02-27T10:59:29.63</time>
<name>3441</name>
</trkpt>
<trkpt lat="48.954352" lon="8.648038">
<ele>263.5</ele>
<speed>4.9</speed>
<course>104.2</course>
<desc>Speed 4.9 km/h Distance 4.73 km</desc>
<time>2010-02-27T10:59:30.63</time>
<name>3442</name>
</trkpt>
<trkpt lat="48.954348" lon="8.648058">
<ele>264.0</ele>
<speed>4.7</speed>
<course>105.4</course>
<desc>Speed 4.7 km/h Distance 4.73 km</desc>
<time>2010-02-27T10:59:31.64</time>
<name>3443</name>
</trkpt>
<trkpt lat="48.954345" lon="8.648077">
<ele>264.0</ele>
<speed>4.2</speed>
<course>110.9</course>
<desc>Speed 4.2 km/h Distance 4.73 km</desc>
<time>2010-02-27T10:59:32.66</time>
<name>3444</name>
</trkpt>
<trkpt lat="48.954340" lon="8.648097">
<ele>263.5</ele>
<speed>4.4</speed>
<course>104.2</course>
<desc>Speed 4.4 km/h Distance 4.73 km</desc>
<time>2010-02-27T10:59:33.63</time>
<name>3445</name>
</trkpt>
<trkpt lat="48.954337" lon="8.648117">
<ele>264.5</ele>
<speed>4.3</speed>
<course>114.6</course>
<desc>Speed 4.3 km/h Distance 4.73 km</desc>
<time>2010-02-27T10:59:34.63</time>
<name>3446</name>
</trkpt>
<trkpt lat="48.954332" lon="8.648133">
<ele>264.0</ele>
<speed>4.4</speed>
<course>103.5</course>
<desc>Speed 4.4 km/h Distance 4.73 km</desc>
<time>2010-02-27T10:59:35.64</time>
<name>3447</name>
</trkpt>
<trkpt lat="48.954327" lon="8.648165">
<ele>265.5</ele>
<speed>5.0</speed>
<course>105.4</course>
<desc>Speed 5.0 km/h Distance 4.74 km</desc>
<time>2010-02-27T10:59:36.64</time>
<name>3448</name>
</trkpt>
<trkpt lat="48.954323" lon="8.648183">
<ele>265.5</ele>
<speed>4.7</speed>
<course>127.3</course>
<desc>Speed 4.7 km/h Distance 4.74 km</desc>
<time>2010-02-27T10:59:37.64</time>
<name>3449</name>
</trkpt>
<trkpt lat="48.954317" lon="8.648197">
<ele>265.0</ele>
<speed>4.2</speed>
<course>113.5</course>
<desc>Speed 4.2 km/h Distance 4.74 km</desc>
<time>2010-02-27T10:59:38.64</time>
<name>3450</name>
</trkpt>
<trkpt lat="48.954313" lon="8.648208">
<ele>264.5</ele>
<speed>3.3</speed>
<course>110.9</course>
<desc>Speed 3.3 km/h Distance 4.74 km</desc>
<time>2010-02-27T10:59:39.64</time>
<name>3451</name>
</trkpt>
<trkpt lat="48.954308" lon="8.648228">
<ele>264.5</ele>
<speed>4.2</speed>
<course>117.0</course>
<desc>Speed 4.2 km/h Distance 4.74 km</desc>
<time>2010-02-27T10:59:40.64</time>
<name>3452</name>
</trkpt>
<trkpt lat="48.954303" lon="8.648243">
<ele>263.5</ele>
<speed>4.4</speed>
<course>100.0</course>
<desc>Speed 4.4 km/h Distance 4.74 km</desc>
<time>2010-02-27T10:59:41.64</time>
<name>3453</name>
</trkpt>
<trkpt lat="48.954298" lon="8.648287">
<ele>266.5</ele>
<speed>5.4</speed>
<course>114.5</course>
<desc>Speed 5.4 km/h Distance 4.74 km</desc>
<time>2010-02-27T10:59:42.64</time>
<name>3454</name>
</trkpt>
<trkpt lat="48.954293" lon="8.648303">
<ele>266.5</ele>
<speed>4.5</speed>
<course>110.9</course>
<desc>Speed 4.5 km/h Distance 4.75 km</desc>
<time>2010-02-27T10:59:43.64</time>
<name>3455</name>
</trkpt>
<trkpt lat="48.954288" lon="8.648323">
<ele>266.5</ele>
<speed>5.2</speed>
<course>112.5</course>
<desc>Speed 5.2 km/h Distance 4.75 km</desc>
<time>2010-02-27T10:59:44.63</time>
<name>3456</name>
</trkpt>
<trkpt lat="48.954283" lon="8.648342">
<ele>266.5</ele>
<speed>4.9</speed>
<course>104.2</course>
<desc>Speed 4.9 km/h Distance 4.75 km</desc>
<time>2010-02-27T10:59:45.64</time>
<name>3457</name>
</trkpt>
<trkpt lat="48.954280" lon="8.648362">
<ele>267.0</ele>
<speed>4.3</speed>
<course>110.9</course>
<desc>Speed 4.3 km/h Distance 4.75 km</desc>
<time>2010-02-27T10:59:46.64</time>
<name>3458</name>
</trkpt>
<trkpt lat="48.954275" lon="8.648382">
<ele>267.0</ele>
<speed>4.3</speed>
<course>109.4</course>
<desc>Speed 4.3 km/h Distance 4.75 km</desc>
<time>2010-02-27T10:59:47.64</time>
<name>3459</name>
</trkpt>
<trkpt lat="48.954270" lon="8.648403">
<ele>267.0</ele>
<speed>4.7</speed>
<course>116.9</course>
<desc>Speed 4.7 km/h Distance 4.75 km</desc>
<time>2010-02-27T10:59:48.63</time>
<name>3460</name>
</trkpt>
<trkpt lat="48.954263" lon="8.648423">
<ele>267.5</ele>
<speed>5.1</speed>
<course>110.9</course>
<desc>Speed 5.1 km/h Distance 4.76 km</desc>
<time>2010-02-27T10:59:49.63</time>
<name>3461</name>
</trkpt>
<trkpt lat="48.954258" lon="8.648443">
<ele>267.5</ele>
<speed>4.8</speed>
<course>121.3</course>
<desc>Speed 4.8 km/h Distance 4.76 km</desc>
<time>2010-02-27T10:59:50.63</time>
<name>3462</name>
</trkpt>
<trkpt lat="48.954252" lon="8.648460">
<ele>267.0</ele>
<speed>4.5</speed>
<course>121.3</course>
<desc>Speed 4.5 km/h Distance 4.76 km</desc>
<time>2010-02-27T10:59:51.64</time>
<name>3463</name>
</trkpt>
<trkpt lat="48.954245" lon="8.648477">
<ele>266.5</ele>
<speed>5.0</speed>
<course>104.3</course>
<desc>Speed 5.0 km/h Distance 4.76 km</desc>
<time>2010-02-27T10:59:52.63</time>
<name>3464</name>
</trkpt>
<trkpt lat="48.954240" lon="8.648507">
<ele>268.0</ele>
<speed>5.0</speed>
<course>104.8</course>
<desc>Speed 5.0 km/h Distance 4.76 km</desc>
<time>2010-02-27T10:59:53.63</time>
<name>3465</name>
</trkpt>
<trkpt lat="48.954233" lon="8.648545">
<ele>270.0</ele>
<speed>5.5</speed>
<course>97.2</course>
<desc>Speed 5.5 km/h Distance 4.77 km</desc>
<time>2010-02-27T10:59:54.64</time>
<name>3466</name>
</trkpt>
<trkpt lat="48.954230" lon="8.648585">
<ele>272.5</ele>
<speed>5.2</speed>
<course>109.4</course>
<desc>Speed 5.2 km/h Distance 4.77 km</desc>
<time>2010-02-27T10:59:55.63</time>
<name>3467</name>
</trkpt>
<trkpt lat="48.954225" lon="8.648607">
<ele>273.0</ele>
<speed>5.1</speed>
<course>102.3</course>
<desc>Speed 5.1 km/h Distance 4.77 km</desc>
<time>2010-02-27T10:59:56.63</time>
<name>3468</name>
</trkpt>
<trkpt lat="48.954222" lon="8.648630">
<ele>273.5</ele>
<speed>4.7</speed>
<course>108.1</course>
<desc>Speed 4.7 km/h Distance 4.77 km</desc>
<time>2010-02-27T10:59:57.63</time>
<name>3469</name>
</trkpt>
<trkpt lat="48.954217" lon="8.648653">
<ele>274.0</ele>
<speed>4.9</speed>
<course>108.1</course>
<desc>Speed 4.9 km/h Distance 4.77 km</desc>
<time>2010-02-27T10:59:58.63</time>
<name>3470</name>
</trkpt>
<trkpt lat="48.954212" lon="8.648677">
<ele>274.0</ele>
<speed>4.9</speed>
<course>112.5</course>
<desc>Speed 4.9 km/h Distance 4.78 km</desc>
<time>2010-02-27T10:59:59.63</time>
<name>3471</name>
</trkpt>
<trkpt lat="48.954207" lon="8.648695">
<ele>274.0</ele>
<speed>4.9</speed>
<course>116.9</course>
<desc>Speed 4.9 km/h Distance 4.78 km</desc>
<time>2010-02-27T11:00:00.63</time>
<name>3472</name>
</trkpt>
<trkpt lat="48.954202" lon="8.648710">
<ele>273.5</ele>
<speed>4.1</speed>
<course>112.6</course>
<desc>Speed 4.1 km/h Distance 4.78 km</desc>
<time>2010-02-27T11:00:01.63</time>
<name>3473</name>
</trkpt>
<trkpt lat="48.954197" lon="8.648728">
<ele>273.0</ele>
<speed>4.6</speed>
<course>107.0</course>
<desc>Speed 4.6 km/h Distance 4.78 km</desc>
<time>2010-02-27T11:00:02.63</time>
<name>3474</name>
</trkpt>
<trkpt lat="48.954193" lon="8.648745">
<ele>272.5</ele>
<speed>4.0</speed>
<course>105.4</course>
<desc>Speed 4.0 km/h Distance 4.78 km</desc>
<time>2010-02-27T11:00:03.63</time>
<name>3475</name>
</trkpt>
<trkpt lat="48.954190" lon="8.648763">
<ele>272.5</ele>
<speed>4.6</speed>
<course>114.5</course>
<desc>Speed 4.6 km/h Distance 4.78 km</desc>
<time>2010-02-27T11:00:04.63</time>
<name>3476</name>
</trkpt>
<trkpt lat="48.954185" lon="8.648780">
<ele>272.5</ele>
<speed>4.1</speed>
<course>112.5</course>
<desc>Speed 4.1 km/h Distance 4.78 km</desc>
<time>2010-02-27T11:00:05.63</time>
<name>3477</name>
</trkpt>
<trkpt lat="48.954180" lon="8.648798">
<ele>272.5</ele>
<speed>4.6</speed>
<course>97.2</course>
<desc>Speed 4.6 km/h Distance 4.78 km</desc>
<time>2010-02-27T11:00:06.63</time>
<name>3478</name>
</trkpt>
<trkpt lat="48.954178" lon="8.648818">
<ele>273.0</ele>
<speed>4.4</speed>
<course>97.2</course>
<desc>Speed 4.4 km/h Distance 4.79 km</desc>
<time>2010-02-27T11:00:07.63</time>
<name>3479</name>
</trkpt>
<trkpt lat="48.954177" lon="8.648838">
<ele>273.0</ele>
<speed>4.3</speed>
<course>108.1</course>
<desc>Speed 4.3 km/h Distance 4.79 km</desc>
<time>2010-02-27T11:00:08.63</time>
<name>3480</name>
</trkpt>
<trkpt lat="48.954172" lon="8.648862">
<ele>273.5</ele>
<speed>4.7</speed>
<course>135.5</course>
<desc>Speed 4.7 km/h Distance 4.79 km</desc>
<time>2010-02-27T11:00:09.63</time>
<name>3481</name>
</trkpt>
<trkpt lat="48.954165" lon="8.648872">
<ele>271.5</ele>
<speed>3.4</speed>
<course>133.6</course>
<desc>Speed 3.4 km/h Distance 4.79 km</desc>
<time>2010-02-27T11:00:10.63</time>
<name>3482</name>
</trkpt>
<trkpt lat="48.954157" lon="8.648885">
<ele>270.5</ele>
<speed>4.2</speed>
<course>100.2</course>
<desc>Speed 4.2 km/h Distance 4.79 km</desc>
<time>2010-02-27T11:00:11.63</time>
<name>3483</name>
</trkpt>
<trkpt lat="48.954153" lon="8.648913">
<ele>272.0</ele>
<speed>5.0</speed>
<course>116.9</course>
<desc>Speed 5.0 km/h Distance 4.79 km</desc>
<time>2010-02-27T11:00:12.63</time>
<name>3484</name>
</trkpt>
<trkpt lat="48.954148" lon="8.648928">
<ele>271.5</ele>
<speed>3.9</speed>
<course>124.1</course>
<desc>Speed 3.9 km/h Distance 4.80 km</desc>
<time>2010-02-27T11:00:13.63</time>
<name>3485</name>
</trkpt>
<trkpt lat="48.954142" lon="8.648943">
<ele>271.0</ele>
<speed>4.1</speed>
<course>112.5</course>
<desc>Speed 4.1 km/h Distance 4.80 km</desc>
<time>2010-02-27T11:00:14.63</time>
<name>3486</name>
</trkpt>
<trkpt lat="48.954137" lon="8.648962">
<ele>271.0</ele>
<speed>4.5</speed>
<course>109.4</course>
<desc>Speed 4.5 km/h Distance 4.80 km</desc>
<time>2010-02-27T11:00:15.63</time>
<name>3487</name>
</trkpt>
<trkpt lat="48.954132" lon="8.648983">
<ele>271.0</ele>
<speed>5.2</speed>
<course>112.5</course>
<desc>Speed 5.2 km/h Distance 4.80 km</desc>
<time>2010-02-27T11:00:16.63</time>
<name>3488</name>
</trkpt>
<trkpt lat="48.954127" lon="8.649002">
<ele>271.0</ele>
<speed>4.4</speed>
<course>109.4</course>
<desc>Speed 4.4 km/h Distance 4.80 km</desc>
<time>2010-02-27T11:00:17.63</time>
<name>3489</name>
</trkpt>
<trkpt lat="48.954122" lon="8.649023">
<ele>271.0</ele>
<speed>4.7</speed>
<course>112.5</course>
<desc>Speed 4.7 km/h Distance 4.80 km</desc>
<time>2010-02-27T11:00:18.63</time>
<name>3490</name>
</trkpt>
<trkpt lat="48.954117" lon="8.649042">
<ele>270.0</ele>
<speed>4.2</speed>
<course>119.0</course>
<desc>Speed 4.2 km/h Distance 4.80 km</desc>
<time>2010-02-27T11:00:19.63</time>
<name>3491</name>
</trkpt>
<trkpt lat="48.954110" lon="8.649060">
<ele>270.0</ele>
<speed>5.0</speed>
<course>132.2</course>
<desc>Speed 5.0 km/h Distance 4.81 km</desc>
<time>2010-02-27T11:00:20.63</time>
<name>3492</name>
</trkpt>
<trkpt lat="48.954105" lon="8.649068">
<ele>268.5</ele>
<speed>2.2</speed>
<course>104.1</course>
<desc>Speed 2.2 km/h Distance 4.81 km</desc>
<time>2010-02-27T11:00:21.63</time>
<name>3493</name>
</trkpt>
<trkpt lat="48.954103" lon="8.649078">
<ele>268.0</ele>
<speed>3.0</speed>
<course>131.3</course>
<desc>Speed 3.0 km/h Distance 4.81 km</desc>
<time>2010-02-27T11:00:22.63</time>
<name>3494</name>
</trkpt>
<trkpt lat="48.954097" lon="8.649090">
<ele>267.5</ele>
<speed>3.8</speed>
<course>117.0</course>
<desc>Speed 3.8 km/h Distance 4.81 km</desc>
<time>2010-02-27T11:00:23.63</time>
<name>3495</name>
</trkpt>
<trkpt lat="48.954092" lon="8.649105">
<ele>267.0</ele>
<speed>3.9</speed>
<course>130.9</course>
<desc>Speed 3.9 km/h Distance 4.81 km</desc>
<time>2010-02-27T11:00:24.63</time>
<name>3496</name>
</trkpt>
<trkpt lat="48.954085" lon="8.649117">
<ele>266.0</ele>
<speed>3.9</speed>
<course>124.1</course>
<desc>Speed 3.9 km/h Distance 4.81 km</desc>
<time>2010-02-27T11:00:25.63</time>
<name>3497</name>
</trkpt>
<trkpt lat="48.954078" lon="8.649132">
<ele>265.5</ele>
<speed>4.8</speed>
<course>124.1</course>
<desc>Speed 4.8 km/h Distance 4.81 km</desc>
<time>2010-02-27T11:00:26.63</time>
<name>3498</name>
</trkpt>
<trkpt lat="48.954072" lon="8.649147">
<ele>265.0</ele>
<speed>4.4</speed>
<course>119.0</course>
<desc>Speed 4.4 km/h Distance 4.81 km</desc>
<time>2010-02-27T11:00:27.63</time>
<name>3499</name>
</trkpt>
<trkpt lat="48.954065" lon="8.649165">
<ele>264.5</ele>
<speed>5.0</speed>
<course>112.5</course>
<desc>Speed 5.0 km/h Distance 4.82 km</desc>
<time>2010-02-27T11:00:28.63</time>
<name>3500</name>
</trkpt>
<trkpt lat="48.954060" lon="8.649183">
<ele>265.0</ele>
<speed>5.0</speed>
<course>104.3</course>
<desc>Speed 5.0 km/h Distance 4.82 km</desc>
<time>2010-02-27T11:00:29.63</time>
<name>3501</name>
</trkpt>
<trkpt lat="48.954057" lon="8.649203">
<ele>264.5</ele>
<speed>4.1</speed>
<course>102.3</course>
<desc>Speed 4.1 km/h Distance 4.82 km</desc>
<time>2010-02-27T11:00:30.63</time>
<name>3502</name>
</trkpt>
<trkpt lat="48.954053" lon="8.649227">
<ele>264.5</ele>
<speed>5.0</speed>
<course>105.9</course>
<desc>Speed 5.0 km/h Distance 4.82 km</desc>
<time>2010-02-27T11:00:31.63</time>
<name>3503</name>
</trkpt>
<trkpt lat="48.954048" lon="8.649253">
<ele>265.0</ele>
<speed>4.9</speed>
<course>114.5</course>
<desc>Speed 4.9 km/h Distance 4.82 km</desc>
<time>2010-02-27T11:00:32.63</time>
<name>3504</name>
</trkpt>
<trkpt lat="48.954043" lon="8.649270">
<ele>264.5</ele>
<speed>4.6</speed>
<course>119.0</course>
<desc>Speed 4.6 km/h Distance 4.82 km</desc>
<time>2010-02-27T11:00:33.63</time>
<name>3505</name>
</trkpt>
<trkpt lat="48.954037" lon="8.649288">
<ele>264.0</ele>
<speed>5.3</speed>
<course>127.3</course>
<desc>Speed 5.3 km/h Distance 4.82 km</desc>
<time>2010-02-27T11:00:34.63</time>
<name>3506</name>
</trkpt>
<trkpt lat="48.954028" lon="8.649305">
<ele>263.0</ele>
<speed>4.6</speed>
<course>124.6</course>
<desc>Speed 4.6 km/h Distance 4.83 km</desc>
<time>2010-02-27T11:00:35.63</time>
<name>3507</name>
</trkpt>
<trkpt lat="48.954020" lon="8.649323">
<ele>262.0</ele>
<speed>5.0</speed>
<course>102.3</course>
<desc>Speed 5.0 km/h Distance 4.83 km</desc>
<time>2010-02-27T11:00:36.63</time>
<name>3508</name>
</trkpt>
<trkpt lat="48.954017" lon="8.649347">
<ele>261.5</ele>
<speed>4.7</speed>
<course>116.9</course>
<desc>Speed 4.7 km/h Distance 4.83 km</desc>
<time>2010-02-27T11:00:37.63</time>
<name>3509</name>
</trkpt>
<trkpt lat="48.954010" lon="8.649367">
<ele>261.0</ele>
<speed>5.5</speed>
<course>101.5</course>
<desc>Speed 5.5 km/h Distance 4.83 km</desc>
<time>2010-02-27T11:00:38.63</time>
<name>3510</name>
</trkpt>
<trkpt lat="48.954007" lon="8.649392">
<ele>262.0</ele>
<speed>4.8</speed>
<course>100.8</course>
<desc>Speed 4.8 km/h Distance 4.83 km</desc>
<time>2010-02-27T11:00:39.63</time>
<name>3511</name>
</trkpt>
<trkpt lat="48.954003" lon="8.649418">
<ele>262.5</ele>
<speed>4.4</speed>
<course>121.3</course>
<desc>Speed 4.4 km/h Distance 4.84 km</desc>
<time>2010-02-27T11:00:40.63</time>
<name>3512</name>
</trkpt>
<trkpt lat="48.953997" lon="8.649435">
<ele>262.0</ele>
<speed>4.9</speed>
<course>135.2</course>
<desc>Speed 4.9 km/h Distance 4.84 km</desc>
<time>2010-02-27T11:00:41.63</time>
<name>3513</name>
</trkpt>
<trkpt lat="48.953990" lon="8.649445">
<ele>261.0</ele>
<speed>3.4</speed>
<course>109.4</course>
<desc>Speed 3.4 km/h Distance 4.84 km</desc>
<time>2010-02-27T11:00:42.63</time>
<name>3514</name>
</trkpt>
<trkpt lat="48.953985" lon="8.649467">
<ele>261.0</ele>
<speed>5.7</speed>
<course>112.5</course>
<desc>Speed 5.7 km/h Distance 4.84 km</desc>
<time>2010-02-27T11:00:43.63</time>
<name>3515</name>
</trkpt>
<trkpt lat="48.953980" lon="8.649485">
<ele>260.5</ele>
<speed>5.2</speed>
<course>109.4</course>
<desc>Speed 5.2 km/h Distance 4.84 km</desc>
<time>2010-02-27T11:00:44.63</time>
<name>3516</name>
</trkpt>
<trkpt lat="48.953975" lon="8.649507">
<ele>260.5</ele>
<speed>5.6</speed>
<course>110.8</course>
<desc>Speed 5.6 km/h Distance 4.84 km</desc>
<time>2010-02-27T11:00:45.63</time>
<name>3517</name>
</trkpt>
<trkpt lat="48.953970" lon="8.649527">
<ele>260.0</ele>
<speed>5.0</speed>
<course>110.8</course>
<desc>Speed 5.0 km/h Distance 4.84 km</desc>
<time>2010-02-27T11:00:46.63</time>
<name>3518</name>
</trkpt>
<trkpt lat="48.953965" lon="8.649547">
<ele>260.0</ele>
<speed>5.1</speed>
<course>110.9</course>
<desc>Speed 5.1 km/h Distance 4.85 km</desc>
<time>2010-02-27T11:00:47.63</time>
<name>3519</name>
</trkpt>
<trkpt lat="48.953960" lon="8.649567">
<ele>260.5</ele>
<speed>5.6</speed>
<course>119.8</course>
<desc>Speed 5.6 km/h Distance 4.85 km</desc>
<time>2010-02-27T11:00:48.63</time>
<name>3520</name>
</trkpt>
<trkpt lat="48.953955" lon="8.649580">
<ele>260.0</ele>
<speed>3.1</speed>
<course>113.6</course>
<desc>Speed 3.1 km/h Distance 4.85 km</desc>
<time>2010-02-27T11:00:49.63</time>
<name>3521</name>
</trkpt>
<trkpt lat="48.953952" lon="8.649592">
<ele>259.5</ele>
<speed>3.5</speed>
<course>100.8</course>
<desc>Speed 3.5 km/h Distance 4.85 km</desc>
<time>2010-02-27T11:00:50.63</time>
<name>3522</name>
</trkpt>
<trkpt lat="48.953948" lon="8.649618">
<ele>260.0</ele>
<speed>5.1</speed>
<course>97.2</course>
<desc>Speed 5.1 km/h Distance 4.85 km</desc>
<time>2010-02-27T11:00:51.63</time>
<name>3523</name>
</trkpt>
<trkpt lat="48.953947" lon="8.649638">
<ele>260.0</ele>
<speed>3.2</speed>
<course>138.8</course>
<desc>Speed 3.2 km/h Distance 4.85 km</desc>
<time>2010-02-27T11:00:52.63</time>
<name>3524</name>
</trkpt>
<trkpt lat="48.953937" lon="8.649652">
<ele>259.0</ele>
<speed>5.5</speed>
<course>99.6</course>
<desc>Speed 5.5 km/h Distance 4.85 km</desc>
<time>2010-02-27T11:00:53.63</time>
<name>3525</name>
</trkpt>
<trkpt lat="48.953933" lon="8.649682">
<ele>260.0</ele>
<speed>3.5</speed>
<course>107.8</course>
<desc>Speed 3.5 km/h Distance 4.86 km</desc>
<time>2010-02-27T11:00:54.63</time>
<name>3526</name>
</trkpt>
<trkpt lat="48.953927" lon="8.649713">
<ele>261.0</ele>
<speed>4.1</speed>
<course>116.9</course>
<desc>Speed 4.1 km/h Distance 4.86 km</desc>
<time>2010-02-27T11:00:55.63</time>
<name>3527</name>
</trkpt>
<trkpt lat="48.953922" lon="8.649728">
<ele>260.0</ele>
<speed>4.3</speed>
<course>108.7</course>
<desc>Speed 4.3 km/h Distance 4.86 km</desc>
<time>2010-02-27T11:00:56.63</time>
<name>3528</name>
</trkpt>
<trkpt lat="48.953918" lon="8.649743">
<ele>260.0</ele>
<speed>4.5</speed>
<course>106.9</course>
<desc>Speed 4.5 km/h Distance 4.86 km</desc>
<time>2010-02-27T11:00:57.63</time>
<name>3529</name>
</trkpt>
<trkpt lat="48.953915" lon="8.649760">
<ele>259.5</ele>
<speed>4.5</speed>
<course>127.3</course>
<desc>Speed 4.5 km/h Distance 4.86 km</desc>
<time>2010-02-27T11:00:58.63</time>
<name>3530</name>
</trkpt>
<trkpt lat="48.953908" lon="8.649773">
<ele>258.5</ele>
<speed>4.4</speed>
<course>123.3</course>
<desc>Speed 4.4 km/h Distance 4.86 km</desc>
<time>2010-02-27T11:00:59.63</time>
<name>3531</name>
</trkpt>
<trkpt lat="48.953903" lon="8.649785">
<ele>258.0</ele>
<speed>4.2</speed>
<course>97.9</course>
<desc>Speed 4.2 km/h Distance 4.86 km</desc>
<time>2010-02-27T11:01:00.63</time>
<name>3532</name>
</trkpt>
<trkpt lat="48.953902" lon="8.649803">
<ele>258.0</ele>
<speed>5.5</speed>
<course>106.9</course>
<desc>Speed 5.5 km/h Distance 4.87 km</desc>
<time>2010-02-27T11:01:01.63</time>
<name>3533</name>
</trkpt>
<trkpt lat="48.953895" lon="8.649837">
<ele>259.5</ele>
<speed>5.9</speed>
<course>121.4</course>
<desc>Speed 5.9 km/h Distance 4.87 km</desc>
<time>2010-02-27T11:01:02.63</time>
<name>3534</name>
</trkpt>
<trkpt lat="48.953888" lon="8.649853">
<ele>259.0</ele>
<speed>5.1</speed>
<course>119.0</course>
<desc>Speed 5.1 km/h Distance 4.87 km</desc>
<time>2010-02-27T11:01:03.63</time>
<name>3535</name>
</trkpt>
<trkpt lat="48.953882" lon="8.649872">
<ele>258.5</ele>
<speed>5.1</speed>
<course>116.9</course>
<desc>Speed 5.1 km/h Distance 4.87 km</desc>
<time>2010-02-27T11:01:04.63</time>
<name>3536</name>
</trkpt>
<trkpt lat="48.953877" lon="8.649887">
<ele>258.0</ele>
<speed>4.4</speed>
<course>109.4</course>
<desc>Speed 4.4 km/h Distance 4.87 km</desc>
<time>2010-02-27T11:01:05.63</time>
<name>3537</name>
</trkpt>
<trkpt lat="48.953872" lon="8.649908">
<ele>258.5</ele>
<speed>4.4</speed>
<course>123.1</course>
<desc>Speed 4.4 km/h Distance 4.87 km</desc>
<time>2010-02-27T11:01:06.63</time>
<name>3538</name>
</trkpt>
<trkpt lat="48.953862" lon="8.649932">
<ele>258.0</ele>
<speed>6.4</speed>
<course>138.0</course>
<desc>Speed 6.4 km/h Distance 4.88 km</desc>
<time>2010-02-27T11:01:07.63</time>
<name>3539</name>
</trkpt>
<trkpt lat="48.953848" lon="8.649950">
<ele>256.5</ele>
<speed>7.3</speed>
<course>98.7</course>
<desc>Speed 7.3 km/h Distance 4.88 km</desc>
<time>2010-02-27T11:01:08.63</time>
<name>3540</name>
</trkpt>
<trkpt lat="48.953847" lon="8.649967">
<ele>256.0</ele>
<speed>4.6</speed>
<course>118.9</course>
<desc>Speed 4.6 km/h Distance 4.88 km</desc>
<time>2010-02-27T11:01:09.63</time>
<name>3541</name>
</trkpt>
<trkpt lat="48.953840" lon="8.649985">
<ele>255.5</ele>
<speed>5.0</speed>
<course>90.0</course>
<desc>Speed 5.0 km/h Distance 4.88 km</desc>
<time>2010-02-27T11:01:10.63</time>
<name>3542</name>
</trkpt>
<trkpt lat="48.953840" lon="8.650058">
<ele>260.0</ele>
<speed>4.6</speed>
<course>104.2</course>
<desc>Speed 4.6 km/h Distance 4.89 km</desc>
<time>2010-02-27T11:01:12.63</time>
<name>3543</name>
</trkpt>
<trkpt lat="48.953837" lon="8.650078">
<ele>260.0</ele>
<speed>4.9</speed>
<course>90.0</course>
<desc>Speed 4.9 km/h Distance 4.89 km</desc>
<time>2010-02-27T11:01:13.63</time>
<name>3544</name>
</trkpt>
<trkpt lat="48.953837" lon="8.650122">
<ele>263.0</ele>
<speed>4.4</speed>
<course>98.6</course>
<desc>Speed 4.4 km/h Distance 4.89 km</desc>
<time>2010-02-27T11:01:14.63</time>
<name>3545</name>
</trkpt>
<trkpt lat="48.953835" lon="8.650138">
<ele>263.0</ele>
<speed>4.5</speed>
<course>90.0</course>
<desc>Speed 4.5 km/h Distance 4.89 km</desc>
<time>2010-02-27T11:01:15.63</time>
<name>3546</name>
</trkpt>
<trkpt lat="48.953835" lon="8.650162">
<ele>264.0</ele>
<speed>4.4</speed>
<course>98.6</course>
<desc>Speed 4.4 km/h Distance 4.89 km</desc>
<time>2010-02-27T11:01:16.63</time>
<name>3547</name>
</trkpt>
<trkpt lat="48.953833" lon="8.650178">
<ele>264.0</ele>
<speed>4.1</speed>
<course>97.2</course>
<desc>Speed 4.1 km/h Distance 4.90 km</desc>
<time>2010-02-27T11:01:17.63</time>
<name>3548</name>
</trkpt>
<trkpt lat="48.953832" lon="8.650198">
<ele>264.5</ele>
<speed>4.7</speed>
<course>96.7</course>
<desc>Speed 4.7 km/h Distance 4.90 km</desc>
<time>2010-02-27T11:01:18.63</time>
<name>3549</name>
</trkpt>
<trkpt lat="48.953830" lon="8.650220">
<ele>264.5</ele>
<speed>4.1</speed>
<course>90.0</course>
<desc>Speed 4.1 km/h Distance 4.90 km</desc>
<time>2010-02-27T11:01:19.63</time>
<name>3550</name>
</trkpt>
<trkpt lat="48.953830" lon="8.650243">
<ele>265.0</ele>
<speed>3.8</speed>
<course>103.2</course>
<desc>Speed 3.8 km/h Distance 4.90 km</desc>
<time>2010-02-27T11:01:20.63</time>
<name>3551</name>
</trkpt>
<trkpt lat="48.953827" lon="8.650265">
<ele>264.5</ele>
<speed>3.3</speed>
<course>97.2</course>
<desc>Speed 3.3 km/h Distance 4.90 km</desc>
<time>2010-02-27T11:01:21.63</time>
<name>3552</name>
</trkpt>
<trkpt lat="48.953825" lon="8.650285">
<ele>264.5</ele>
<speed>3.5</speed>
<course>96.7</course>
<desc>Speed 3.5 km/h Distance 4.90 km</desc>
<time>2010-02-27T11:01:22.63</time>
<name>3553</name>
</trkpt>
<trkpt lat="48.953823" lon="8.650307">
<ele>264.5</ele>
<speed>3.4</speed>
<course>82.1</course>
<desc>Speed 3.4 km/h Distance 4.90 km</desc>
<time>2010-02-27T11:01:23.63</time>
<name>3554</name>
</trkpt>
<trkpt lat="48.953827" lon="8.650343">
<ele>267.0</ele>
<speed>3.3</speed>
<course>108.7</course>
<desc>Speed 3.3 km/h Distance 4.91 km</desc>
<time>2010-02-27T11:01:24.63</time>
<name>3555</name>
</trkpt>
<trkpt lat="48.953823" lon="8.650358">
<ele>266.0</ele>
<speed>3.3</speed>
<course>105.5</course>
<desc>Speed 3.3 km/h Distance 4.91 km</desc>
<time>2010-02-27T11:01:25.63</time>
<name>3556</name>
</trkpt>
<trkpt lat="48.953820" lon="8.650377">
<ele>266.0</ele>
<speed>4.2</speed>
<course>119.7</course>
<desc>Speed 4.2 km/h Distance 4.91 km</desc>
<time>2010-02-27T11:01:26.63</time>
<name>3557</name>
</trkpt>
<trkpt lat="48.953815" lon="8.650390">
<ele>265.5</ele>
<speed>4.0</speed>
<course>127.3</course>
<desc>Speed 4.0 km/h Distance 4.91 km</desc>
<time>2010-02-27T11:01:27.63</time>
<name>3558</name>
</trkpt>
<trkpt lat="48.953808" lon="8.650403">
<ele>264.5</ele>
<speed>3.9</speed>
<course>106.9</course>
<desc>Speed 3.9 km/h Distance 4.91 km</desc>
<time>2010-02-27T11:01:28.63</time>
<name>3559</name>
</trkpt>
<trkpt lat="48.953805" lon="8.650420">
<ele>264.5</ele>
<speed>4.9</speed>
<course>112.6</course>
<desc>Speed 4.9 km/h Distance 4.91 km</desc>
<time>2010-02-27T11:01:29.63</time>
<name>3560</name>
</trkpt>
<trkpt lat="48.953800" lon="8.650438">
<ele>264.0</ele>
<speed>4.8</speed>
<course>104.3</course>
<desc>Speed 4.8 km/h Distance 4.92 km</desc>
<time>2010-02-27T11:01:30.63</time>
<name>3561</name>
</trkpt>
<trkpt lat="48.953797" lon="8.650458">
<ele>264.5</ele>
<speed>4.7</speed>
<course>107.0</course>
<desc>Speed 4.7 km/h Distance 4.92 km</desc>
<time>2010-02-27T11:01:31.63</time>
<name>3562</name>
</trkpt>
<trkpt lat="48.953793" lon="8.650475">
<ele>264.0</ele>
<speed>4.4</speed>
<course>90.0</course>
<desc>Speed 4.4 km/h Distance 4.92 km</desc>
<time>2010-02-27T11:01:32.63</time>
<name>3563</name>
</trkpt>
<trkpt lat="48.953793" lon="8.650500">
<ele>264.0</ele>
<speed>3.7</speed>
<course>98.7</course>
<desc>Speed 3.7 km/h Distance 4.92 km</desc>
<time>2010-02-27T11:01:33.63</time>
<name>3564</name>
</trkpt>
<trkpt lat="48.953792" lon="8.650517">
<ele>263.5</ele>
<speed>3.9</speed>
<course>113.7</course>
<desc>Speed 3.9 km/h Distance 4.92 km</desc>
<time>2010-02-27T11:01:34.63</time>
<name>3565</name>
</trkpt>
<trkpt lat="48.953788" lon="8.650528">
<ele>263.0</ele>
<speed>3.2</speed>
<course>110.9</course>
<desc>Speed 3.2 km/h Distance 4.92 km</desc>
<time>2010-02-27T11:01:35.63</time>
<name>3566</name>
</trkpt>
<trkpt lat="48.953785" lon="8.650542">
<ele>262.5</ele>
<speed>3.4</speed>
<course>102.3</course>
<desc>Speed 3.4 km/h Distance 4.92 km</desc>
<time>2010-02-27T11:01:36.63</time>
<name>3567</name>
</trkpt>
<trkpt lat="48.953783" lon="8.650553">
<ele>262.0</ele>
<speed>2.6</speed>
<course>110.8</course>
<desc>Speed 2.6 km/h Distance 4.92 km</desc>
<time>2010-02-27T11:01:37.63</time>
<name>3568</name>
</trkpt>
<trkpt lat="48.953777" lon="8.650580">
<ele>263.0</ele>
<speed>2.8</speed>
<course>130.9</course>
<desc>Speed 2.8 km/h Distance 4.93 km</desc>
<time>2010-02-27T11:01:38.63</time>
<name>3569</name>
</trkpt>
<trkpt lat="48.953770" lon="8.650592">
<ele>262.0</ele>
<speed>3.2</speed>
<course>104.4</course>
<desc>Speed 3.2 km/h Distance 4.93 km</desc>
<time>2010-02-27T11:01:39.63</time>
<name>3570</name>
</trkpt>
<trkpt lat="48.953768" lon="8.650602">
<ele>261.5</ele>
<speed>2.4</speed>
<course>90.0</course>
<desc>Speed 2.4 km/h Distance 4.93 km</desc>
<time>2010-02-27T11:01:40.63</time>
<name>3571</name>
</trkpt>
<trkpt lat="48.953768" lon="8.650613">
<ele>261.5</ele>
<speed>3.3</speed>
<course>121.3</course>
<desc>Speed 3.3 km/h Distance 4.93 km</desc>
<time>2010-02-27T11:01:41.63</time>
<name>3572</name>
</trkpt>
<trkpt lat="48.953762" lon="8.650630">
<ele>260.5</ele>
<speed>4.4</speed>
<course>98.7</course>
<desc>Speed 4.4 km/h Distance 4.93 km</desc>
<time>2010-02-27T11:01:42.63</time>
<name>3573</name>
</trkpt>
<trkpt lat="48.953760" lon="8.650647">
<ele>260.5</ele>
<speed>4.2</speed>
<course>110.9</course>
<desc>Speed 4.2 km/h Distance 4.93 km</desc>
<time>2010-02-27T11:01:43.63</time>
<name>3574</name>
</trkpt>
<trkpt lat="48.953757" lon="8.650660">
<ele>260.0</ele>
<speed>3.6</speed>
<course>114.5</course>
<desc>Speed 3.6 km/h Distance 4.93 km</desc>
<time>2010-02-27T11:01:44.63</time>
<name>3575</name>
</trkpt>
<trkpt lat="48.953752" lon="8.650677">
<ele>259.5</ele>
<speed>3.7</speed>
<course>113.5</course>
<desc>Speed 3.7 km/h Distance 4.93 km</desc>
<time>2010-02-27T11:01:45.63</time>
<name>3576</name>
</trkpt>
<trkpt lat="48.953748" lon="8.650688">
<ele>259.0</ele>
<speed>3.0</speed>
<course>110.9</course>
<desc>Speed 3.0 km/h Distance 4.93 km</desc>
<time>2010-02-27T11:01:46.63</time>
<name>3577</name>
</trkpt>
<trkpt lat="48.953745" lon="8.650702">
<ele>259.0</ele>
<speed>3.9</speed>
<course>98.6</course>
<desc>Speed 3.9 km/h Distance 4.94 km</desc>
<time>2010-02-27T11:01:47.63</time>
<name>3578</name>
</trkpt>
<trkpt lat="48.953743" lon="8.650718">
<ele>258.5</ele>
<speed>3.7</speed>
<course>106.9</course>
<desc>Speed 3.7 km/h Distance 4.94 km</desc>
<time>2010-02-27T11:01:48.63</time>
<name>3579</name>
</trkpt>
<trkpt lat="48.953740" lon="8.650735">
<ele>259.0</ele>
<speed>4.4</speed>
<course>104.4</course>
<desc>Speed 4.4 km/h Distance 4.94 km</desc>
<time>2010-02-27T11:01:49.63</time>
<name>3580</name>
</trkpt>
<trkpt lat="48.953738" lon="8.650745">
<ele>258.0</ele>
<speed>1.5</speed>
<course>90.0</course>
<desc>Speed 1.5 km/h Distance 4.94 km</desc>
<time>2010-02-27T11:01:50.63</time>
<name>3581</name>
</trkpt>
<trkpt lat="48.953738" lon="8.650770">
<ele>259.5</ele>
<speed>2.3</speed>
<course>111.0</course>
<desc>Speed 2.3 km/h Distance 4.94 km</desc>
<time>2010-02-27T11:01:51.63</time>
<name>3582</name>
</trkpt>
<trkpt lat="48.953735" lon="8.650783">
<ele>259.5</ele>
<speed>3.3</speed>
<course>90.0</course>
<desc>Speed 3.3 km/h Distance 4.94 km</desc>
<time>2010-02-27T11:01:52.63</time>
<name>3583</name>
</trkpt>
<trkpt lat="48.953735" lon="8.650798">
<ele>259.5</ele>
<speed>4.1</speed>
<course>99.6</course>
<desc>Speed 4.1 km/h Distance 4.94 km</desc>
<time>2010-02-27T11:01:53.63</time>
<name>3584</name>
</trkpt>
<trkpt lat="48.953733" lon="8.650813">
<ele>259.0</ele>
<speed>3.1</speed>
<course>90.0</course>
<desc>Speed 3.1 km/h Distance 4.94 km</desc>
<time>2010-02-27T11:01:54.63</time>
<name>3585</name>
</trkpt>
<trkpt lat="48.953733" lon="8.650832">
<ele>259.0</ele>
<speed>3.3</speed>
<course>90.0</course>
<desc>Speed 3.3 km/h Distance 4.95 km</desc>
<time>2010-02-27T11:01:55.63</time>
<name>3586</name>
</trkpt>
<trkpt lat="48.953733" lon="8.650858">
<ele>259.0</ele>
<speed>4.6</speed>
<course>85.6</course>
<desc>Speed 4.6 km/h Distance 4.95 km</desc>
<time>2010-02-27T11:01:56.63</time>
<name>3587</name>
</trkpt>
<trkpt lat="48.953735" lon="8.650892">
<ele>260.5</ele>
<speed>2.9</speed>
<course>85.4</course>
<desc>Speed 2.9 km/h Distance 4.95 km</desc>
<time>2010-02-27T11:01:57.63</time>
<name>3588</name>
</trkpt>
<trkpt lat="48.953737" lon="8.650923">
<ele>261.0</ele>
<speed>3.1</speed>
<course>85.2</course>
<desc>Speed 3.1 km/h Distance 4.95 km</desc>
<time>2010-02-27T11:01:58.63</time>
<name>3589</name>
</trkpt>
<trkpt lat="48.953738" lon="8.650953">
<ele>262.0</ele>
<speed>3.5</speed>
<course>108.8</course>
<desc>Speed 3.5 km/h Distance 4.95 km</desc>
<time>2010-02-27T11:01:59.63</time>
<name>3590</name>
</trkpt>
<trkpt lat="48.953735" lon="8.650968">
<ele>261.5</ele>
<speed>3.9</speed>
<course>105.5</course>
<desc>Speed 3.9 km/h Distance 4.96 km</desc>
<time>2010-02-27T11:02:00.63</time>
<name>3591</name>
</trkpt>
<trkpt lat="48.953732" lon="8.650987">
<ele>260.5</ele>
<speed>3.6</speed>
<course>96.7</course>
<desc>Speed 3.6 km/h Distance 4.96 km</desc>
<time>2010-02-27T11:02:01.63</time>
<name>3592</name>
</trkpt>
<trkpt lat="48.953730" lon="8.651008">
<ele>260.0</ele>
<speed>3.1</speed>
<course>90.0</course>
<desc>Speed 3.1 km/h Distance 4.96 km</desc>
<time>2010-02-27T11:02:02.63</time>
<name>3593</name>
</trkpt>
<trkpt lat="48.953730" lon="8.651023">
<ele>259.0</ele>
<speed>2.8</speed>
<course>108.7</course>
<desc>Speed 2.8 km/h Distance 4.96 km</desc>
<time>2010-02-27T11:02:03.63</time>
<name>3594</name>
</trkpt>
<trkpt lat="48.953727" lon="8.651038">
<ele>258.5</ele>
<speed>2.8</speed>
<course>90.0</course>
<desc>Speed 2.8 km/h Distance 4.96 km</desc>
<time>2010-02-27T11:02:04.63</time>
<name>3595</name>
</trkpt>
<trkpt lat="48.953727" lon="8.651055">
<ele>258.5</ele>
<speed>4.3</speed>
<course>99.6</course>
<desc>Speed 4.3 km/h Distance 4.96 km</desc>
<time>2010-02-27T11:02:05.63</time>
<name>3596</name>
</trkpt>
<trkpt lat="48.953725" lon="8.651070">
<ele>258.5</ele>
<speed>3.5</speed>
<course>113.5</course>
<desc>Speed 3.5 km/h Distance 4.96 km</desc>
<time>2010-02-27T11:02:06.63</time>
<name>3597</name>
</trkpt>
<trkpt lat="48.953722" lon="8.651082">
<ele>258.0</ele>
<speed>3.2</speed>
<course>100.8</course>
<desc>Speed 3.2 km/h Distance 4.96 km</desc>
<time>2010-02-27T11:02:07.63</time>
<name>3598</name>
</trkpt>
<trkpt lat="48.953720" lon="8.651095">
<ele>258.0</ele>
<speed>3.3</speed>
<course>155.2</course>
<desc>Speed 3.3 km/h Distance 4.96 km</desc>
<time>2010-02-27T11:02:08.63</time>
<name>3599</name>
</trkpt>
<trkpt lat="48.953713" lon="8.651100">
<ele>257.5</ele>
<speed>2.9</speed>
<course>108.7</course>
<desc>Speed 2.9 km/h Distance 4.97 km</desc>
<time>2010-02-27T11:02:09.63</time>
<name>3600</name>
</trkpt>
<trkpt lat="48.953710" lon="8.651115">
<ele>257.5</ele>
<speed>4.0</speed>
<course>100.8</course>
<desc>Speed 4.0 km/h Distance 4.97 km</desc>
<time>2010-02-27T11:02:10.63</time>
<name>3601</name>
</trkpt>
<trkpt lat="48.953708" lon="8.651128">
<ele>258.0</ele>
<speed>3.1</speed>
<course>105.4</course>
<desc>Speed 3.1 km/h Distance 4.97 km</desc>
<time>2010-02-27T11:02:11.63</time>
<name>3602</name>
</trkpt>
<trkpt lat="48.953705" lon="8.651147">
<ele>258.0</ele>
<speed>3.6</speed>
<course>112.5</course>
<desc>Speed 3.6 km/h Distance 4.97 km</desc>
<time>2010-02-27T11:02:12.63</time>
<name>3603</name>
</trkpt>
<trkpt lat="48.953700" lon="8.651165">
<ele>258.5</ele>
<speed>4.5</speed>
<course>124.1</course>
<desc>Speed 4.5 km/h Distance 4.97 km</desc>
<time>2010-02-27T11:02:13.63</time>
<name>3604</name>
</trkpt>
<trkpt lat="48.953693" lon="8.651180">
<ele>258.5</ele>
<speed>3.5</speed>
<course>106.9</course>
<desc>Speed 3.5 km/h Distance 4.97 km</desc>
<time>2010-02-27T11:02:14.63</time>
<name>3605</name>
</trkpt>
<trkpt lat="48.953690" lon="8.651197">
<ele>259.0</ele>
<speed>3.1</speed>
<course>113.6</course>
<desc>Speed 3.1 km/h Distance 4.97 km</desc>
<time>2010-02-27T11:02:15.63</time>
<name>3606</name>
</trkpt>
<trkpt lat="48.953687" lon="8.651208">
<ele>258.5</ele>
<speed>2.4</speed>
<course>90.0</course>
<desc>Speed 2.4 km/h Distance 4.97 km</desc>
<time>2010-02-27T11:02:16.63</time>
<name>3607</name>
</trkpt>
<trkpt lat="48.953687" lon="8.651227">
<ele>258.5</ele>
<speed>2.8</speed>
<course>105.5</course>
<desc>Speed 2.8 km/h Distance 4.98 km</desc>
<time>2010-02-27T11:02:17.63</time>
<name>3608</name>
</trkpt>
<trkpt lat="48.953683" lon="8.651245">
<ele>258.0</ele>
<speed>2.5</speed>
<course>97.2</course>
<desc>Speed 2.5 km/h Distance 4.98 km</desc>
<time>2010-02-27T11:02:18.63</time>
<name>3609</name>
</trkpt>
<trkpt lat="48.953682" lon="8.651265">
<ele>257.5</ele>
<speed>2.0</speed>
<course>105.3</course>
<desc>Speed 2.0 km/h Distance 4.98 km</desc>
<time>2010-02-27T11:02:19.63</time>
<name>3610</name>
</trkpt>
<trkpt lat="48.953670" lon="8.651330">
<ele>259.5</ele>
<speed>4.2</speed>
<course>98.7</course>
<desc>Speed 4.2 km/h Distance 4.98 km</desc>
<time>2010-02-27T11:02:21.63</time>
<name>3611</name>
</trkpt>
<trkpt lat="48.953668" lon="8.651347">
<ele>259.0</ele>
<speed>3.4</speed>
<course>90.0</course>
<desc>Speed 3.4 km/h Distance 4.98 km</desc>
<time>2010-02-27T11:02:22.63</time>
<name>3612</name>
</trkpt>
<trkpt lat="48.953668" lon="8.651365">
<ele>258.5</ele>
<speed>2.2</speed>
<course>90.0</course>
<desc>Speed 2.2 km/h Distance 4.99 km</desc>
<time>2010-02-27T11:02:23.63</time>
<name>3613</name>
</trkpt>
<trkpt lat="48.953668" lon="8.651392">
<ele>259.5</ele>
<speed>2.3</speed>
<course>100.2</course>
<desc>Speed 2.3 km/h Distance 4.99 km</desc>
<time>2010-02-27T11:02:24.63</time>
<name>3614</name>
</trkpt>
<trkpt lat="48.953665" lon="8.651420">
<ele>261.0</ele>
<speed>6.9</speed>
<course>105.5</course>
<desc>Speed 6.9 km/h Distance 4.99 km</desc>
<time>2010-02-27T11:02:25.63</time>
<name>3615</name>
</trkpt>
<trkpt lat="48.953662" lon="8.651438">
<ele>260.5</ele>
<speed>4.2</speed>
<course>90.0</course>
<desc>Speed 4.2 km/h Distance 4.99 km</desc>
<time>2010-02-27T11:02:26.63</time>
<name>3616</name>
</trkpt>
<trkpt lat="48.953662" lon="8.651457">
<ele>259.5</ele>
<speed>2.5</speed>
<course>90.0</course>
<desc>Speed 2.5 km/h Distance 4.99 km</desc>
<time>2010-02-27T11:02:27.63</time>
<name>3617</name>
</trkpt>
<trkpt lat="48.953662" lon="8.651480">
<ele>259.5</ele>
<speed>2.7</speed>
<course>79.2</course>
<desc>Speed 2.7 km/h Distance 4.99 km</desc>
<time>2010-02-27T11:02:28.63</time>
<name>3618</name>
</trkpt>
<trkpt lat="48.953665" lon="8.651507">
<ele>259.5</ele>
<speed>2.6</speed>
<course>98.7</course>
<desc>Speed 2.6 km/h Distance 5.00 km</desc>
<time>2010-02-27T11:02:29.63</time>
<name>3619</name>
</trkpt>
<trkpt lat="48.953662" lon="8.651540">
<ele>260.5</ele>
<speed>5.0</speed>
<course>93.8</course>
<desc>Speed 5.0 km/h Distance 5.00 km</desc>
<time>2010-02-27T11:02:30.63</time>
<name>3620</name>
</trkpt>
<trkpt lat="48.953658" lon="8.651617">
<ele>263.5</ele>
<speed>3.5</speed>
<course>100.8</course>
<desc>Speed 3.5 km/h Distance 5.00 km</desc>
<time>2010-02-27T11:02:32.63</time>
<name>3621</name>
</trkpt>
<trkpt lat="48.953655" lon="8.651643">
<ele>264.0</ele>
<speed>5.2</speed>
<course>107.0</course>
<desc>Speed 5.2 km/h Distance 5.01 km</desc>
<time>2010-02-27T11:02:33.63</time>
<name>3622</name>
</trkpt>
<trkpt lat="48.953650" lon="8.651668">
<ele>264.5</ele>
<speed>5.4</speed>
<course>104.2</course>
<desc>Speed 5.4 km/h Distance 5.01 km</desc>
<time>2010-02-27T11:02:34.63</time>
<name>3623</name>
</trkpt>
<trkpt lat="48.953647" lon="8.651688">
<ele>264.5</ele>
<speed>3.9</speed>
<course>116.9</course>
<desc>Speed 3.9 km/h Distance 5.01 km</desc>
<time>2010-02-27T11:02:35.63</time>
<name>3624</name>
</trkpt>
<trkpt lat="48.953642" lon="8.651703">
<ele>264.0</ele>
<speed>3.9</speed>
<course>124.1</course>
<desc>Speed 3.9 km/h Distance 5.01 km</desc>
<time>2010-02-27T11:02:36.63</time>
<name>3625</name>
</trkpt>
<trkpt lat="48.953635" lon="8.651718">
<ele>263.5</ele>
<speed>4.3</speed>
<course>119.9</course>
<desc>Speed 4.3 km/h Distance 5.01 km</desc>
<time>2010-02-27T11:02:37.63</time>
<name>3626</name>
</trkpt>
<trkpt lat="48.953630" lon="8.651732">
<ele>263.0</ele>
<speed>3.3</speed>
<course>112.5</course>
<desc>Speed 3.3 km/h Distance 5.01 km</desc>
<time>2010-02-27T11:02:38.63</time>
<name>3627</name>
</trkpt>
<trkpt lat="48.953625" lon="8.651750">
<ele>263.0</ele>
<speed>3.4</speed>
<course>82.1</course>
<desc>Speed 3.4 km/h Distance 5.02 km</desc>
<time>2010-02-27T11:02:39.63</time>
<name>3628</name>
</trkpt>
<trkpt lat="48.953627" lon="8.651768">
<ele>263.5</ele>
<speed>3.3</speed>
<course>95.4</course>
<desc>Speed 3.3 km/h Distance 5.02 km</desc>
<time>2010-02-27T11:02:40.63</time>
<name>3629</name>
</trkpt>
<trkpt lat="48.953625" lon="8.651795">
<ele>264.0</ele>
<speed>4.4</speed>
<course>80.4</course>
<desc>Speed 4.4 km/h Distance 5.02 km</desc>
<time>2010-02-27T11:02:41.63</time>
<name>3630</name>
</trkpt>
<trkpt lat="48.953628" lon="8.651825">
<ele>265.0</ele>
<speed>4.4</speed>
<course>90.0</course>
<desc>Speed 4.4 km/h Distance 5.02 km</desc>
<time>2010-02-27T11:02:42.63</time>
<name>3631</name>
</trkpt>
<trkpt lat="48.953628" lon="8.651855">
<ele>265.5</ele>
<speed>4.2</speed>
<course>99.3</course>
<desc>Speed 4.2 km/h Distance 5.02 km</desc>
<time>2010-02-27T11:02:43.63</time>
<name>3632</name>
</trkpt>
<trkpt lat="48.953622" lon="8.651917">
<ele>269.0</ele>
<speed>4.0</speed>
<course>124.7</course>
<desc>Speed 4.0 km/h Distance 5.03 km</desc>
<time>2010-02-27T11:02:45.63</time>
<name>3633</name>
</trkpt>
<trkpt lat="48.953613" lon="8.651935">
<ele>268.5</ele>
<speed>5.1</speed>
<course>100.2</course>
<desc>Speed 5.1 km/h Distance 5.03 km</desc>
<time>2010-02-27T11:02:46.63</time>
<name>3634</name>
</trkpt>
<trkpt lat="48.953610" lon="8.651963">
<ele>270.5</ele>
<speed>3.7</speed>
<course>100.4</course>
<desc>Speed 3.7 km/h Distance 5.03 km</desc>
<time>2010-02-27T11:02:47.63</time>
<name>3635</name>
</trkpt>
<trkpt lat="48.953600" lon="8.652047">
<ele>276.5</ele>
<speed>5.0</speed>
<course>116.9</course>
<desc>Speed 5.0 km/h Distance 5.04 km</desc>
<time>2010-02-27T11:02:49.63</time>
<name>3636</name>
</trkpt>
<trkpt lat="48.953595" lon="8.652062">
<ele>276.0</ele>
<speed>4.7</speed>
<course>110.8</course>
<desc>Speed 4.7 km/h Distance 5.04 km</desc>
<time>2010-02-27T11:02:50.63</time>
<name>3637</name>
</trkpt>
<trkpt lat="48.953588" lon="8.652088">
<ele>277.0</ele>
<speed>5.1</speed>
<course>104.3</course>
<desc>Speed 5.1 km/h Distance 5.04 km</desc>
<time>2010-02-27T11:02:51.63</time>
<name>3638</name>
</trkpt>
<trkpt lat="48.953583" lon="8.652118">
<ele>278.0</ele>
<speed>6.2</speed>
<course>117.0</course>
<desc>Speed 6.2 km/h Distance 5.04 km</desc>
<time>2010-02-27T11:02:52.63</time>
<name>3639</name>
</trkpt>
<trkpt lat="48.953578" lon="8.652133">
<ele>278.0</ele>
<speed>4.2</speed>
<course>101.5</course>
<desc>Speed 4.2 km/h Distance 5.04 km</desc>
<time>2010-02-27T11:02:53.63</time>
<name>3640</name>
</trkpt>
<trkpt lat="48.953575" lon="8.652158">
<ele>278.5</ele>
<speed>4.9</speed>
<course>112.5</course>
<desc>Speed 4.9 km/h Distance 5.05 km</desc>
<time>2010-02-27T11:02:54.63</time>
<name>3641</name>
</trkpt>
<trkpt lat="48.953570" lon="8.652177">
<ele>278.5</ele>
<speed>5.1</speed>
<course>110.8</course>
<desc>Speed 5.1 km/h Distance 5.05 km</desc>
<time>2010-02-27T11:02:55.63</time>
<name>3642</name>
</trkpt>
<trkpt lat="48.953565" lon="8.652197">
<ele>278.5</ele>
<speed>5.1</speed>
<course>105.4</course>
<desc>Speed 5.1 km/h Distance 5.05 km</desc>
<time>2010-02-27T11:02:56.63</time>
<name>3643</name>
</trkpt>
<trkpt lat="48.953562" lon="8.652215">
<ele>278.5</ele>
<speed>4.7</speed>
<course>98.3</course>
<desc>Speed 4.7 km/h Distance 5.05 km</desc>
<time>2010-02-27T11:02:57.63</time>
<name>3644</name>
</trkpt>
<trkpt lat="48.953555" lon="8.652285">
<ele>282.5</ele>
<speed>4.8</speed>
<course>97.9</course>
<desc>Speed 4.8 km/h Distance 5.06 km</desc>
<time>2010-02-27T11:02:59.63</time>
<name>3645</name>
</trkpt>
<trkpt lat="48.953552" lon="8.652322">
<ele>284.0</ele>
<speed>5.0</speed>
<course>124.7</course>
<desc>Speed 5.0 km/h Distance 5.06 km</desc>
<time>2010-02-27T11:03:00.63</time>
<name>3646</name>
</trkpt>
<trkpt lat="48.953543" lon="8.652340">
<ele>284.0</ele>
<speed>5.3</speed>
<course>106.9</course>
<desc>Speed 5.3 km/h Distance 5.06 km</desc>
<time>2010-02-27T11:03:01.63</time>
<name>3647</name>
</trkpt>
<trkpt lat="48.953540" lon="8.652357">
<ele>284.0</ele>
<speed>4.4</speed>
<course>105.5</course>
<desc>Speed 4.4 km/h Distance 5.06 km</desc>
<time>2010-02-27T11:03:02.63</time>
<name>3648</name>
</trkpt>
<trkpt lat="48.953537" lon="8.652375">
<ele>283.5</ele>
<speed>4.1</speed>
<course>104.4</course>
<desc>Speed 4.1 km/h Distance 5.06 km</desc>
<time>2010-02-27T11:03:03.63</time>
<name>3649</name>
</trkpt>
<trkpt lat="48.953535" lon="8.652385">
<ele>284.0</ele>
<speed>2.0</speed>
<course>117.4</course>
<desc>Speed 2.0 km/h Distance 5.06 km</desc>
<time>2010-02-27T11:03:04.63</time>
<name>3650</name>
</trkpt>
<trkpt lat="48.953533" lon="8.652390">
<ele>285.0</ele>
<speed>1.2</speed>
<course>132.6</course>
<desc>Speed 1.2 km/h Distance 5.06 km</desc>
<time>2010-02-27T11:03:05.63</time>
<name>3651</name>
</trkpt>
<trkpt lat="48.953528" lon="8.652398">
<ele>286.0</ele>
<speed>1.5</speed>
<course>135.5</course>
<desc>Speed 1.5 km/h Distance 5.06 km</desc>
<time>2010-02-27T11:03:06.63</time>
<name>3652</name>
</trkpt>
<trkpt lat="48.953522" lon="8.652408">
<ele>287.5</ele>
<speed>2.3</speed>
<course>123.3</course>
<desc>Speed 2.3 km/h Distance 5.07 km</desc>
<time>2010-02-27T11:03:07.63</time>
<name>3653</name>
</trkpt>
<trkpt lat="48.953517" lon="8.652420">
<ele>288.5</ele>
<speed>1.5</speed>
<course>117.4</course>
<desc>Speed 1.5 km/h Distance 5.07 km</desc>
<time>2010-02-27T11:03:08.63</time>
<name>3654</name>
</trkpt>
<trkpt lat="48.953515" lon="8.652425">
<ele>289.5</ele>
<speed>0.4</speed>
<course>90.0</course>
<desc>Speed 0.4 km/h Distance 5.07 km</desc>
<time>2010-02-27T11:03:09.63</time>
<name>3655</name>
</trkpt>
<trkpt lat="48.953515" lon="8.652428">
<ele>290.0</ele>
<speed>0.2</speed>
<course>117.4</course>
<desc>Speed 0.2 km/h Distance 5.07 km</desc>
<time>2010-02-27T11:03:10.63</time>
<name>3656</name>
</trkpt>
<trkpt lat="48.953513" lon="8.652433">
<ele>291.0</ele>
<speed>0.9</speed>
<course>142.8</course>
<desc>Speed 0.9 km/h Distance 5.07 km</desc>
<time>2010-02-27T11:03:11.63</time>
<name>3657</name>
</trkpt>
<trkpt lat="48.953512" lon="8.652435">
<ele>291.0</ele>
<speed>0.6</speed>
<course>142.8</course>
<desc>Speed 0.6 km/h Distance 5.07 km</desc>
<time>2010-02-27T11:03:12.63</time>
<name>3658</name>
</trkpt>
<trkpt lat="48.953512" lon="8.652435">
<ele>291.0</ele>
<speed>0.3</speed>
<course>117.0</course>
<desc>Speed 0.3 km/h Distance 5.07 km</desc>
<time>2010-02-27T11:03:13.63</time>
<name>3659</name>
</trkpt>
<trkpt lat="48.953508" lon="8.652445">
<ele>292.5</ele>
<speed>2.7</speed>
<course>146.8</course>
<desc>Speed 2.7 km/h Distance 5.07 km</desc>
<time>2010-02-27T11:03:14.63</time>
<name>3660</name>
</trkpt>
<trkpt lat="48.953503" lon="8.652450">
<ele>293.5</ele>
<speed>1.3</speed>
<course>167.4</course>
<desc>Speed 1.3 km/h Distance 5.07 km</desc>
<time>2010-02-27T11:03:15.63</time>
<name>3661</name>
</trkpt>
<trkpt lat="48.953502" lon="8.652450">
<ele>293.5</ele>
<speed>0.2</speed>
<course>146.3</course>
<desc>Speed 0.2 km/h Distance 5.07 km</desc>
<time>2010-02-27T11:03:16.63</time>
<name>3662</name>
</trkpt>
<trkpt lat="48.953498" lon="8.652453">
<ele>293.5</ele>
<speed>0.6</speed>
<course>127.6</course>
<desc>Speed 0.6 km/h Distance 5.07 km</desc>
<time>2010-02-27T11:03:17.63</time>
<name>3663</name>
</trkpt>
<trkpt lat="48.953495" lon="8.652460">
<ele>293.0</ele>
<speed>1.3</speed>
<course>167.4</course>
<desc>Speed 1.3 km/h Distance 5.07 km</desc>
<time>2010-02-27T11:03:18.63</time>
<name>3664</name>
</trkpt>
<trkpt lat="48.953493" lon="8.652462">
<ele>293.0</ele>
<speed>0.8</speed>
<course>90.0</course>
<desc>Speed 0.8 km/h Distance 5.07 km</desc>
<time>2010-02-27T11:03:19.63</time>
<name>3665</name>
</trkpt>
<trkpt lat="48.953493" lon="8.652463">
<ele>293.0</ele>
<speed>0.4</speed>
<course>51.9</course>
<desc>Speed 0.4 km/h Distance 5.07 km</desc>
<time>2010-02-27T11:03:20.63</time>
<name>3666</name>
</trkpt>
<trkpt lat="48.953495" lon="8.652467">
<ele>293.0</ele>
<speed>0.9</speed>
<course>51.9</course>
<desc>Speed 0.9 km/h Distance 5.07 km</desc>
<time>2010-02-27T11:03:21.63</time>
<name>3667</name>
</trkpt>
<trkpt lat="48.953495" lon="8.652467">
<ele>293.0</ele>
<speed>0.5</speed>
<course>167.4</course>
<desc>Speed 0.5 km/h Distance 5.07 km</desc>
<time>2010-02-27T11:03:22.63</time>
<name>3668</name>
</trkpt>
<trkpt lat="48.953493" lon="8.652468">
<ele>293.0</ele>
<speed>0.3</speed>
<course>167.4</course>
<desc>Speed 0.3 km/h Distance 5.07 km</desc>
<time>2010-02-27T11:03:23.63</time>
<name>3669</name>
</trkpt>
<trkpt lat="48.953493" lon="8.652468">
<ele>293.0</ele>
<speed>0.4</speed>
<course>90.0</course>
<desc>Speed 0.4 km/h Distance 5.07 km</desc>
<time>2010-02-27T11:03:24.63</time>
<name>3670</name>
</trkpt>
<trkpt lat="48.953493" lon="8.652470">
<ele>293.0</ele>
<speed>0.5</speed>
<course>90.0</course>
<desc>Speed 0.5 km/h Distance 5.07 km</desc>
<time>2010-02-27T11:03:25.63</time>
<name>3671</name>
</trkpt>
<trkpt lat="48.953493" lon="8.652470">
<ele>293.0</ele>
<speed>0.1</speed>
<course>12.6</course>
<desc>Speed 0.1 km/h Distance 5.07 km</desc>
<time>2010-02-27T11:03:26.63</time>
<name>3672</name>
</trkpt>
<trkpt lat="48.953495" lon="8.652472">
<ele>293.5</ele>
<speed>0.4</speed>
<course>12.6</course>
<desc>Speed 0.4 km/h Distance 5.07 km</desc>
<time>2010-02-27T11:03:27.63</time>
<name>3673</name>
</trkpt>
<trkpt lat="48.953495" lon="8.652472">
<ele>293.5</ele>
<speed>0.4</speed>
<course>12.6</course>
<desc>Speed 0.4 km/h Distance 5.07 km</desc>
<time>2010-02-27T11:03:28.63</time>
<name>3674</name>
</trkpt>
<trkpt lat="48.953495" lon="8.652472">
<ele>293.5</ele>
<speed>0.2</speed>
<course>180.0</course>
<desc>Speed 0.2 km/h Distance 5.07 km</desc>
<time>2010-02-27T11:03:29.63</time>
<name>3675</name>
</trkpt>
<trkpt lat="48.953493" lon="8.652472">
<ele>293.5</ele>
<speed>0.1</speed>
<course>180.0</course>
<desc>Speed 0.1 km/h Distance 5.07 km</desc>
<time>2010-02-27T11:03:30.63</time>
<name>3676</name>
</trkpt>
<trkpt lat="48.953493" lon="8.652472">
<ele>293.5</ele>
<speed>0.4</speed>
<course>90.0</course>
<desc>Speed 0.4 km/h Distance 5.07 km</desc>
<time>2010-02-27T11:03:31.63</time>
<name>3677</name>
</trkpt>
<trkpt lat="48.953493" lon="8.652483">
<ele>293.0</ele>
<speed>2.8</speed>
<course>90.0</course>
<desc>Speed 2.8 km/h Distance 5.07 km</desc>
<time>2010-02-27T11:03:32.63</time>
<name>3678</name>
</trkpt>
<trkpt lat="48.953493" lon="8.652503">
<ele>293.0</ele>
<speed>4.6</speed>
<course>96.7</course>
<desc>Speed 4.6 km/h Distance 5.07 km</desc>
<time>2010-02-27T11:03:33.63</time>
<name>3679</name>
</trkpt>
<trkpt lat="48.953492" lon="8.652525">
<ele>293.0</ele>
<speed>5.7</speed>
<course>96.2</course>
<desc>Speed 5.7 km/h Distance 5.08 km</desc>
<time>2010-02-27T11:03:34.63</time>
<name>3680</name>
</trkpt>
<trkpt lat="48.953490" lon="8.652548">
<ele>292.0</ele>
<speed>3.3</speed>
<course>100.8</course>
<desc>Speed 3.3 km/h Distance 5.08 km</desc>
<time>2010-02-27T11:03:35.63</time>
<name>3681</name>
</trkpt>
<trkpt lat="48.953488" lon="8.652562">
<ele>291.5</ele>
<speed>3.7</speed>
<course>108.1</course>
<desc>Speed 3.7 km/h Distance 5.08 km</desc>
<time>2010-02-27T11:03:36.63</time>
<name>3682</name>
</trkpt>
<trkpt lat="48.953483" lon="8.652585">
<ele>292.0</ele>
<speed>5.0</speed>
<course>110.9</course>
<desc>Speed 5.0 km/h Distance 5.08 km</desc>
<time>2010-02-27T11:03:37.63</time>
<name>3683</name>
</trkpt>
<trkpt lat="48.953480" lon="8.652598">
<ele>290.5</ele>
<speed>3.7</speed>
<course>130.9</course>
<desc>Speed 3.7 km/h Distance 5.08 km</desc>
<time>2010-02-27T11:03:38.63</time>
<name>3684</name>
</trkpt>
<trkpt lat="48.953473" lon="8.652610">
<ele>289.5</ele>
<speed>3.6</speed>
<course>132.2</course>
<desc>Speed 3.6 km/h Distance 5.08 km</desc>
<time>2010-02-27T11:03:39.63</time>
<name>3685</name>
</trkpt>
<trkpt lat="48.953468" lon="8.652618">
<ele>288.0</ele>
<speed>2.6</speed>
<course>116.9</course>
<desc>Speed 2.6 km/h Distance 5.08 km</desc>
<time>2010-02-27T11:03:40.63</time>
<name>3686</name>
</trkpt>
<trkpt lat="48.953462" lon="8.652638">
<ele>287.5</ele>
<speed>5.2</speed>
<course>120.3</course>
<desc>Speed 5.2 km/h Distance 5.09 km</desc>
<time>2010-02-27T11:03:41.63</time>
<name>3687</name>
</trkpt>
<trkpt lat="48.953453" lon="8.652660">
<ele>287.0</ele>
<speed>5.2</speed>
<course>106.9</course>
<desc>Speed 5.2 km/h Distance 5.09 km</desc>
<time>2010-02-27T11:03:42.63</time>
<name>3688</name>
</trkpt>
<trkpt lat="48.953450" lon="8.652677">
<ele>287.0</ele>
<speed>4.3</speed>
<course>116.9</course>
<desc>Speed 4.3 km/h Distance 5.09 km</desc>
<time>2010-02-27T11:03:43.63</time>
<name>3689</name>
</trkpt>
<trkpt lat="48.953443" lon="8.652697">
<ele>287.0</ele>
<speed>5.5</speed>
<course>127.3</course>
<desc>Speed 5.5 km/h Distance 5.09 km</desc>
<time>2010-02-27T11:03:44.63</time>
<name>3690</name>
</trkpt>
<trkpt lat="48.953437" lon="8.652710">
<ele>286.0</ele>
<speed>3.3</speed>
<course>90.0</course>
<desc>Speed 3.3 km/h Distance 5.09 km</desc>
<time>2010-02-27T11:03:45.63</time>
<name>3691</name>
</trkpt>
<trkpt lat="48.953437" lon="8.652728">
<ele>284.5</ele>
<speed>4.5</speed>
<course>119.9</course>
<desc>Speed 4.5 km/h Distance 5.09 km</desc>
<time>2010-02-27T11:03:46.63</time>
<name>3692</name>
</trkpt>
<trkpt lat="48.953432" lon="8.652742">
<ele>283.0</ele>
<speed>3.1</speed>
<course>127.3</course>
<desc>Speed 3.1 km/h Distance 5.09 km</desc>
<time>2010-02-27T11:03:47.63</time>
<name>3693</name>
</trkpt>
<trkpt lat="48.953423" lon="8.652758">
<ele>283.0</ele>
<speed>4.6</speed>
<course>116.9</course>
<desc>Speed 4.6 km/h Distance 5.10 km</desc>
<time>2010-02-27T11:03:48.63</time>
<name>3694</name>
</trkpt>
<trkpt lat="48.953418" lon="8.652773">
<ele>282.5</ele>
<speed>4.1</speed>
<course>127.3</course>
<desc>Speed 4.1 km/h Distance 5.10 km</desc>
<time>2010-02-27T11:03:49.63</time>
<name>3695</name>
</trkpt>
<trkpt lat="48.953412" lon="8.652787">
<ele>281.5</ele>
<speed>4.0</speed>
<course>114.1</course>
<desc>Speed 4.0 km/h Distance 5.10 km</desc>
<time>2010-02-27T11:03:50.63</time>
<name>3696</name>
</trkpt>
<trkpt lat="48.953403" lon="8.652815">
<ele>282.5</ele>
<speed>7.7</speed>
<course>127.3</course>
<desc>Speed 7.7 km/h Distance 5.10 km</desc>
<time>2010-02-27T11:03:51.63</time>
<name>3697</name>
</trkpt>
<trkpt lat="48.953392" lon="8.652838">
<ele>283.0</ele>
<speed>4.9</speed>
<course>108.1</course>
<desc>Speed 4.9 km/h Distance 5.10 km</desc>
<time>2010-02-27T11:03:52.63</time>
<name>3698</name>
</trkpt>
<trkpt lat="48.953387" lon="8.652862">
<ele>283.0</ele>
<speed>5.3</speed>
<course>115.4</course>
<desc>Speed 5.3 km/h Distance 5.10 km</desc>
<time>2010-02-27T11:03:53.63</time>
<name>3699</name>
</trkpt>
<trkpt lat="48.953378" lon="8.652888">
<ele>283.0</ele>
<speed>6.1</speed>
<course>113.5</course>
<desc>Speed 6.1 km/h Distance 5.11 km</desc>
<time>2010-02-27T11:03:54.63</time>
<name>3700</name>
</trkpt>
<trkpt lat="48.953372" lon="8.652912">
<ele>283.0</ele>
<speed>4.5</speed>
<course>116.9</course>
<desc>Speed 4.5 km/h Distance 5.11 km</desc>
<time>2010-02-27T11:03:55.63</time>
<name>3701</name>
</trkpt>
<trkpt lat="48.953363" lon="8.652937">
<ele>283.0</ele>
<speed>4.8</speed>
<course>124.1</course>
<desc>Speed 4.8 km/h Distance 5.11 km</desc>
<time>2010-02-27T11:03:56.63</time>
<name>3702</name>
</trkpt>
<trkpt lat="48.953357" lon="8.652952">
<ele>282.0</ele>
<speed>4.0</speed>
<course>119.0</course>
<desc>Speed 4.0 km/h Distance 5.11 km</desc>
<time>2010-02-27T11:03:57.63</time>
<name>3703</name>
</trkpt>
<trkpt lat="48.953350" lon="8.652970">
<ele>281.5</ele>
<speed>5.4</speed>
<course>121.4</course>
<desc>Speed 5.4 km/h Distance 5.11 km</desc>
<time>2010-02-27T11:03:58.63</time>
<name>3704</name>
</trkpt>
<trkpt lat="48.953343" lon="8.652987">
<ele>281.0</ele>
<speed>5.2</speed>
<course>124.7</course>
<desc>Speed 5.2 km/h Distance 5.11 km</desc>
<time>2010-02-27T11:03:59.63</time>
<name>3705</name>
</trkpt>
<trkpt lat="48.953335" lon="8.653005">
<ele>281.0</ele>
<speed>5.6</speed>
<course>122.4</course>
<desc>Speed 5.6 km/h Distance 5.12 km</desc>
<time>2010-02-27T11:04:00.63</time>
<name>3706</name>
</trkpt>
<trkpt lat="48.953327" lon="8.653025">
<ele>281.0</ele>
<speed>6.1</speed>
<course>135.5</course>
<desc>Speed 6.1 km/h Distance 5.12 km</desc>
<time>2010-02-27T11:04:01.63</time>
<name>3707</name>
</trkpt>
<trkpt lat="48.953317" lon="8.653040">
<ele>280.5</ele>
<speed>5.2</speed>
<course>127.3</course>
<desc>Speed 5.2 km/h Distance 5.12 km</desc>
<time>2010-02-27T11:04:02.63</time>
<name>3708</name>
</trkpt>
<trkpt lat="48.953307" lon="8.653060">
<ele>281.0</ele>
<speed>6.0</speed>
<course>133.6</course>
<desc>Speed 6.0 km/h Distance 5.12 km</desc>
<time>2010-02-27T11:04:03.63</time>
<name>3709</name>
</trkpt>
<trkpt lat="48.953298" lon="8.653073">
<ele>280.0</ele>
<speed>4.1</speed>
<course>124.6</course>
<desc>Speed 4.1 km/h Distance 5.12 km</desc>
<time>2010-02-27T11:04:04.63</time>
<name>3710</name>
</trkpt>
<trkpt lat="48.953290" lon="8.653092">
<ele>280.0</ele>
<speed>5.6</speed>
<course>137.4</course>
<desc>Speed 5.6 km/h Distance 5.12 km</desc>
<time>2010-02-27T11:04:05.63</time>
<name>3711</name>
</trkpt>
<trkpt lat="48.953282" lon="8.653103">
<ele>279.0</ele>
<speed>4.6</speed>
<course>135.5</course>
<desc>Speed 4.6 km/h Distance 5.13 km</desc>
<time>2010-02-27T11:04:06.63</time>
<name>3712</name>
</trkpt>
<trkpt lat="48.953272" lon="8.653118">
<ele>279.0</ele>
<speed>5.0</speed>
<course>137.4</course>
<desc>Speed 5.0 km/h Distance 5.13 km</desc>
<time>2010-02-27T11:04:07.63</time>
<name>3713</name>
</trkpt>
<trkpt lat="48.953263" lon="8.653130">
<ele>278.5</ele>
<speed>3.9</speed>
<course>161.2</course>
<desc>Speed 3.9 km/h Distance 5.13 km</desc>
<time>2010-02-27T11:04:08.63</time>
<name>3714</name>
</trkpt>
<trkpt lat="48.953257" lon="8.653133">
<ele>277.0</ele>
<speed>2.7</speed>
<course>127.3</course>
<desc>Speed 2.7 km/h Distance 5.13 km</desc>
<time>2010-02-27T11:04:09.63</time>
<name>3715</name>
</trkpt>
<trkpt lat="48.953247" lon="8.653153">
<ele>277.0</ele>
<speed>5.7</speed>
<course>135.5</course>
<desc>Speed 5.7 km/h Distance 5.13 km</desc>
<time>2010-02-27T11:04:10.63</time>
<name>3716</name>
</trkpt>
<trkpt lat="48.953237" lon="8.653168">
<ele>276.5</ele>
<speed>5.4</speed>
<course>121.4</course>
<desc>Speed 5.4 km/h Distance 5.13 km</desc>
<time>2010-02-27T11:04:11.63</time>
<name>3717</name>
</trkpt>
<trkpt lat="48.953230" lon="8.653185">
<ele>276.5</ele>
<speed>5.3</speed>
<course>139.8</course>
<desc>Speed 5.3 km/h Distance 5.13 km</desc>
<time>2010-02-27T11:04:12.63</time>
<name>3718</name>
</trkpt>
<trkpt lat="48.953218" lon="8.653200">
<ele>276.5</ele>
<speed>5.3</speed>
<course>133.6</course>
<desc>Speed 5.3 km/h Distance 5.14 km</desc>
<time>2010-02-27T11:04:13.63</time>
<name>3719</name>
</trkpt>
<trkpt lat="48.953210" lon="8.653213">
<ele>276.0</ele>
<speed>4.8</speed>
<course>138.8</course>
<desc>Speed 4.8 km/h Distance 5.14 km</desc>
<time>2010-02-27T11:04:14.63</time>
<name>3720</name>
</trkpt>
<trkpt lat="48.953200" lon="8.653227">
<ele>276.0</ele>
<speed>5.5</speed>
<course>129.4</course>
<desc>Speed 5.5 km/h Distance 5.14 km</desc>
<time>2010-02-27T11:04:15.63</time>
<name>3721</name>
</trkpt>
<trkpt lat="48.953188" lon="8.653248">
<ele>277.0</ele>
<speed>7.2</speed>
<course>135.6</course>
<desc>Speed 7.2 km/h Distance 5.14 km</desc>
<time>2010-02-27T11:04:16.63</time>
<name>3722</name>
</trkpt>
<trkpt lat="48.953178" lon="8.653263">
<ele>277.0</ele>
<speed>5.7</speed>
<course>132.5</course>
<desc>Speed 5.7 km/h Distance 5.14 km</desc>
<time>2010-02-27T11:04:17.63</time>
<name>3723</name>
</trkpt>
<trkpt lat="48.953168" lon="8.653280">
<ele>277.0</ele>
<speed>6.1</speed>
<course>130.3</course>
<desc>Speed 6.1 km/h Distance 5.14 km</desc>
<time>2010-02-27T11:04:18.63</time>
<name>3724</name>
</trkpt>
<trkpt lat="48.953160" lon="8.653295">
<ele>277.0</ele>
<speed>5.4</speed>
<course>175.6</course>
<desc>Speed 5.4 km/h Distance 5.14 km</desc>
<time>2010-02-27T11:04:19.63</time>
<name>3725</name>
</trkpt>
<trkpt lat="48.953150" lon="8.653297">
<ele>275.0</ele>
<speed>3.7</speed>
<course>143.6</course>
<desc>Speed 3.7 km/h Distance 5.15 km</desc>
<time>2010-02-27T11:04:20.63</time>
<name>3726</name>
</trkpt>
<trkpt lat="48.953137" lon="8.653312">
<ele>275.0</ele>
<speed>5.7</speed>
<course>146.6</course>
<desc>Speed 5.7 km/h Distance 5.15 km</desc>
<time>2010-02-27T11:04:21.63</time>
<name>3727</name>
</trkpt>
<trkpt lat="48.953125" lon="8.653323">
<ele>275.0</ele>
<speed>5.5</speed>
<course>175.6</course>
<desc>Speed 5.5 km/h Distance 5.15 km</desc>
<time>2010-02-27T11:04:22.63</time>
<name>3728</name>
</trkpt>
<trkpt lat="48.953115" lon="8.653323">
<ele>273.0</ele>
<speed>3.7</speed>
<course>169.6</course>
<desc>Speed 3.7 km/h Distance 5.15 km</desc>
<time>2010-02-27T11:04:23.63</time>
<name>3729</name>
</trkpt>
<trkpt lat="48.953103" lon="8.653327">
<ele>271.5</ele>
<speed>4.1</speed>
<course>150.6</course>
<desc>Speed 4.1 km/h Distance 5.15 km</desc>
<time>2010-02-27T11:04:24.63</time>
<name>3730</name>
</trkpt>
<trkpt lat="48.953092" lon="8.653337">
<ele>271.5</ele>
<speed>5.3</speed>
<course>187.7</course>
<desc>Speed 5.3 km/h Distance 5.15 km</desc>
<time>2010-02-27T11:04:25.63</time>
<name>3731</name>
</trkpt>
<trkpt lat="48.953083" lon="8.653335">
<ele>270.0</ele>
<speed>3.5</speed>
<course>154.8</course>
<desc>Speed 3.5 km/h Distance 5.15 km</desc>
<time>2010-02-27T11:04:26.63</time>
<name>3732</name>
</trkpt>
<trkpt lat="48.953072" lon="8.653343">
<ele>270.0</ele>
<speed>4.7</speed>
<course>194.9</course>
<desc>Speed 4.7 km/h Distance 5.16 km</desc>
<time>2010-02-27T11:04:27.63</time>
<name>3733</name>
</trkpt>
<trkpt lat="48.953063" lon="8.653340">
<ele>269.0</ele>
<speed>3.0</speed>
<course>150.8</course>
<desc>Speed 3.0 km/h Distance 5.16 km</desc>
<time>2010-02-27T11:04:28.63</time>
<name>3734</name>
</trkpt>
<trkpt lat="48.953053" lon="8.653348">
<ele>269.0</ele>
<speed>4.6</speed>
<course>150.6</course>
<desc>Speed 4.6 km/h Distance 5.16 km</desc>
<time>2010-02-27T11:04:29.63</time>
<name>3735</name>
</trkpt>
<trkpt lat="48.953042" lon="8.653358">
<ele>269.0</ele>
<speed>5.5</speed>
<course>150.6</course>
<desc>Speed 5.5 km/h Distance 5.16 km</desc>
<time>2010-02-27T11:04:30.63</time>
<name>3736</name>
</trkpt>
<trkpt lat="48.953030" lon="8.653368">
<ele>269.0</ele>
<speed>5.4</speed>
<course>157.9</course>
<desc>Speed 5.4 km/h Distance 5.16 km</desc>
<time>2010-02-27T11:04:31.63</time>
<name>3737</name>
</trkpt>
<trkpt lat="48.953017" lon="8.653377">
<ele>268.5</ele>
<speed>5.3</speed>
<course>154.8</course>
<desc>Speed 5.3 km/h Distance 5.16 km</desc>
<time>2010-02-27T11:04:32.63</time>
<name>3738</name>
</trkpt>
<trkpt lat="48.953005" lon="8.653385">
<ele>268.5</ele>
<speed>5.0</speed>
<course>157.9</course>
<desc>Speed 5.0 km/h Distance 5.16 km</desc>
<time>2010-02-27T11:04:33.63</time>
<name>3739</name>
</trkpt>
<trkpt lat="48.952992" lon="8.653393">
<ele>268.5</ele>
<speed>4.7</speed>
<course>156.5</course>
<desc>Speed 4.7 km/h Distance 5.17 km</desc>
<time>2010-02-27T11:04:34.63</time>
<name>3740</name>
</trkpt>
<trkpt lat="48.952977" lon="8.653403">
<ele>268.5</ele>
<speed>5.9</speed>
<course>143.1</course>
<desc>Speed 5.9 km/h Distance 5.17 km</desc>
<time>2010-02-27T11:04:35.63</time>
<name>3741</name>
</trkpt>
<trkpt lat="48.952965" lon="8.653417">
<ele>269.5</ele>
<speed>5.4</speed>
<course>138.6</course>
<desc>Speed 5.4 km/h Distance 5.17 km</desc>
<time>2010-02-27T11:04:36.63</time>
<name>3742</name>
</trkpt>
<trkpt lat="48.952960" lon="8.653423">
<ele>269.0</ele>
<speed>2.3</speed>
<course>159.1</course>
<desc>Speed 2.3 km/h Distance 5.17 km</desc>
<time>2010-02-27T11:04:37.63</time>
<name>3743</name>
</trkpt>
<trkpt lat="48.952948" lon="8.653430">
<ele>269.5</ele>
<speed>5.0</speed>
<course>146.8</course>
<desc>Speed 5.0 km/h Distance 5.17 km</desc>
<time>2010-02-27T11:04:38.63</time>
<name>3744</name>
</trkpt>
<trkpt lat="48.952938" lon="8.653440">
<ele>269.5</ele>
<speed>3.6</speed>
<course>146.7</course>
<desc>Speed 3.6 km/h Distance 5.17 km</desc>
<time>2010-02-27T11:04:39.63</time>
<name>3745</name>
</trkpt>
<trkpt lat="48.952927" lon="8.653452">
<ele>270.0</ele>
<speed>4.3</speed>
<course>150.0</course>
<desc>Speed 4.3 km/h Distance 5.17 km</desc>
<time>2010-02-27T11:04:40.63</time>
<name>3746</name>
</trkpt>
<trkpt lat="48.952913" lon="8.653463">
<ele>270.5</ele>
<speed>4.9</speed>
<course>134.1</course>
<desc>Speed 4.9 km/h Distance 5.18 km</desc>
<time>2010-02-27T11:04:41.63</time>
<name>3747</name>
</trkpt>
<trkpt lat="48.952902" lon="8.653482">
<ele>271.0</ele>
<speed>4.2</speed>
<course>135.5</course>
<desc>Speed 4.2 km/h Distance 5.18 km</desc>
<time>2010-02-27T11:04:42.63</time>
<name>3748</name>
</trkpt>
<trkpt lat="48.952888" lon="8.653502">
<ele>272.0</ele>
<speed>5.0</speed>
<course>132.5</course>
<desc>Speed 5.0 km/h Distance 5.18 km</desc>
<time>2010-02-27T11:04:43.63</time>
<name>3749</name>
</trkpt>
<trkpt lat="48.952873" lon="8.653527">
<ele>273.5</ele>
<speed>5.0</speed>
<course>133.6</course>
<desc>Speed 5.0 km/h Distance 5.18 km</desc>
<time>2010-02-27T11:04:44.63</time>
<name>3750</name>
</trkpt>
<trkpt lat="48.952857" lon="8.653553">
<ele>275.5</ele>
<speed>5.8</speed>
<course>149.8</course>
<desc>Speed 5.8 km/h Distance 5.18 km</desc>
<time>2010-02-27T11:04:45.63</time>
<name>3751</name>
</trkpt>
<trkpt lat="48.952842" lon="8.653567">
<ele>275.5</ele>
<speed>5.0</speed>
<course>149.4</course>
<desc>Speed 5.0 km/h Distance 5.19 km</desc>
<time>2010-02-27T11:04:46.63</time>
<name>3752</name>
</trkpt>
<trkpt lat="48.952825" lon="8.653582">
<ele>274.5</ele>
<speed>5.5</speed>
<course>159.9</course>
<desc>Speed 5.5 km/h Distance 5.19 km</desc>
<time>2010-02-27T11:04:47.63</time>
<name>3753</name>
</trkpt>
<trkpt lat="48.952810" lon="8.653590">
<ele>275.0</ele>
<speed>4.9</speed>
<course>146.6</course>
<desc>Speed 4.9 km/h Distance 5.19 km</desc>
<time>2010-02-27T11:04:48.63</time>
<name>3754</name>
</trkpt>
<trkpt lat="48.952797" lon="8.653603">
<ele>275.5</ele>
<speed>4.8</speed>
<course>175.0</course>
<desc>Speed 4.8 km/h Distance 5.19 km</desc>
<time>2010-02-27T11:04:49.63</time>
<name>3755</name>
</trkpt>
<trkpt lat="48.952788" lon="8.653603">
<ele>275.5</ele>
<speed>2.7</speed>
<course>175.3</course>
<desc>Speed 2.7 km/h Distance 5.19 km</desc>
<time>2010-02-27T11:04:50.63</time>
<name>3756</name>
</trkpt>
<trkpt lat="48.952777" lon="8.653605">
<ele>274.5</ele>
<speed>3.0</speed>
<course>146.6</course>
<desc>Speed 3.0 km/h Distance 5.19 km</desc>
<time>2010-02-27T11:04:51.63</time>
<name>3757</name>
</trkpt>
<trkpt lat="48.952763" lon="8.653618">
<ele>275.5</ele>
<speed>4.9</speed>
<course>109.4</course>
<desc>Speed 4.9 km/h Distance 5.20 km</desc>
<time>2010-02-27T11:04:52.63</time>
<name>3758</name>
</trkpt>
<trkpt lat="48.952758" lon="8.653640">
<ele>277.0</ele>
<speed>5.0</speed>
<course>158.4</course>
<desc>Speed 5.0 km/h Distance 5.20 km</desc>
<time>2010-02-27T11:04:53.63</time>
<name>3759</name>
</trkpt>
<trkpt lat="48.952742" lon="8.653650">
<ele>275.5</ele>
<speed>6.4</speed>
<course>157.7</course>
<desc>Speed 6.4 km/h Distance 5.20 km</desc>
<time>2010-02-27T11:04:54.63</time>
<name>3760</name>
</trkpt>
<trkpt lat="48.952728" lon="8.653658">
<ele>275.0</ele>
<speed>4.6</speed>
<course>165.1</course>
<desc>Speed 4.6 km/h Distance 5.20 km</desc>
<time>2010-02-27T11:04:55.63</time>
<name>3761</name>
</trkpt>
<trkpt lat="48.952720" lon="8.653662">
<ele>274.5</ele>
<speed>3.1</speed>
<course>161.8</course>
<desc>Speed 3.1 km/h Distance 5.20 km</desc>
<time>2010-02-27T11:04:56.63</time>
<name>3762</name>
</trkpt>
<trkpt lat="48.952710" lon="8.653667">
<ele>273.5</ele>
<speed>4.0</speed>
<course>165.7</course>
<desc>Speed 4.0 km/h Distance 5.20 km</desc>
<time>2010-02-27T11:04:57.63</time>
<name>3763</name>
</trkpt>
<trkpt lat="48.952693" lon="8.653673">
<ele>274.0</ele>
<speed>3.3</speed>
<course>165.4</course>
<desc>Speed 3.3 km/h Distance 5.21 km</desc>
<time>2010-02-27T11:04:58.63</time>
<name>3764</name>
</trkpt>
<trkpt lat="48.952677" lon="8.653680">
<ele>275.5</ele>
<speed>3.1</speed>
<course>151.4</course>
<desc>Speed 3.1 km/h Distance 5.21 km</desc>
<time>2010-02-27T11:04:59.63</time>
<name>3765</name>
</trkpt>
<trkpt lat="48.952667" lon="8.653688">
<ele>276.0</ele>
<speed>4.1</speed>
<course>151.4</course>
<desc>Speed 4.1 km/h Distance 5.21 km</desc>
<time>2010-02-27T11:05:00.63</time>
<name>3766</name>
</trkpt>
<trkpt lat="48.952657" lon="8.653697">
<ele>275.5</ele>
<speed>4.4</speed>
<course>185.3</course>
<desc>Speed 4.4 km/h Distance 5.21 km</desc>
<time>2010-02-27T11:05:01.63</time>
<name>3767</name>
</trkpt>
<trkpt lat="48.952643" lon="8.653695">
<ele>274.0</ele>
<speed>3.6</speed>
<course>168.8</course>
<desc>Speed 3.6 km/h Distance 5.21 km</desc>
<time>2010-02-27T11:05:02.63</time>
<name>3768</name>
</trkpt>
<trkpt lat="48.952632" lon="8.653698">
<ele>272.5</ele>
<speed>3.6</speed>
<course>166.5</course>
<desc>Speed 3.6 km/h Distance 5.21 km</desc>
<time>2010-02-27T11:05:03.63</time>
<name>3769</name>
</trkpt>
<trkpt lat="48.952618" lon="8.653703">
<ele>271.5</ele>
<speed>3.6</speed>
<course>156.3</course>
<desc>Speed 3.6 km/h Distance 5.21 km</desc>
<time>2010-02-27T11:05:04.63</time>
<name>3770</name>
</trkpt>
<trkpt lat="48.952603" lon="8.653713">
<ele>270.5</ele>
<speed>3.6</speed>
<course>152.1</course>
<desc>Speed 3.6 km/h Distance 5.22 km</desc>
<time>2010-02-27T11:05:05.63</time>
<name>3771</name>
</trkpt>
<trkpt lat="48.952595" lon="8.653720">
<ele>270.0</ele>
<speed>3.7</speed>
<course>150.2</course>
<desc>Speed 3.7 km/h Distance 5.22 km</desc>
<time>2010-02-27T11:05:06.63</time>
<name>3772</name>
</trkpt>
<trkpt lat="48.952582" lon="8.653732">
<ele>270.0</ele>
<speed>5.0</speed>
<course>114.1</course>
<desc>Speed 5.0 km/h Distance 5.22 km</desc>
<time>2010-02-27T11:05:07.63</time>
<name>3773</name>
</trkpt>
<trkpt lat="48.952573" lon="8.653760">
<ele>272.0</ele>
<speed>4.3</speed>
<course>156.2</course>
<desc>Speed 4.3 km/h Distance 5.22 km</desc>
<time>2010-02-27T11:05:08.63</time>
<name>3774</name>
</trkpt>
<trkpt lat="48.952563" lon="8.653767">
<ele>271.0</ele>
<speed>3.2</speed>
<course>139.7</course>
<desc>Speed 3.2 km/h Distance 5.22 km</desc>
<time>2010-02-27T11:05:09.63</time>
<name>3775</name>
</trkpt>
<trkpt lat="48.952552" lon="8.653782">
<ele>271.0</ele>
<speed>5.5</speed>
<course>135.5</course>
<desc>Speed 5.5 km/h Distance 5.22 km</desc>
<time>2010-02-27T11:05:10.63</time>
<name>3776</name>
</trkpt>
<trkpt lat="48.952542" lon="8.653797">
<ele>271.0</ele>
<speed>5.2</speed>
<course>142.7</course>
<desc>Speed 5.2 km/h Distance 5.23 km</desc>
<time>2010-02-27T11:05:11.63</time>
<name>3777</name>
</trkpt>
<trkpt lat="48.952532" lon="8.653808">
<ele>270.5</ele>
<speed>4.0</speed>
<course>164.5</course>
<desc>Speed 4.0 km/h Distance 5.23 km</desc>
<time>2010-02-27T11:05:12.63</time>
<name>3778</name>
</trkpt>
<trkpt lat="48.952520" lon="8.653813">
<ele>269.5</ele>
<speed>3.7</speed>
<course>138.0</course>
<desc>Speed 3.7 km/h Distance 5.23 km</desc>
<time>2010-02-27T11:05:13.63</time>
<name>3779</name>
</trkpt>
<trkpt lat="48.952507" lon="8.653832">
<ele>270.5</ele>
<speed>5.9</speed>
<course>143.2</course>
<desc>Speed 5.9 km/h Distance 5.23 km</desc>
<time>2010-02-27T11:05:14.63</time>
<name>3780</name>
</trkpt>
<trkpt lat="48.952495" lon="8.653845">
<ele>270.0</ele>
<speed>4.0</speed>
<course>159.1</course>
<desc>Speed 4.0 km/h Distance 5.23 km</desc>
<time>2010-02-27T11:05:15.63</time>
<name>3781</name>
</trkpt>
<trkpt lat="48.952483" lon="8.653852">
<ele>269.0</ele>
<speed>3.6</speed>
<course>161.9</course>
<desc>Speed 3.6 km/h Distance 5.23 km</desc>
<time>2010-02-27T11:05:16.63</time>
<name>3782</name>
</trkpt>
<trkpt lat="48.952470" lon="8.653858">
<ele>268.0</ele>
<speed>4.0</speed>
<course>135.5</course>
<desc>Speed 4.0 km/h Distance 5.24 km</desc>
<time>2010-02-27T11:05:17.63</time>
<name>3783</name>
</trkpt>
<trkpt lat="48.952460" lon="8.653873">
<ele>268.5</ele>
<speed>4.2</speed>
<course>124.8</course>
<desc>Speed 4.2 km/h Distance 5.24 km</desc>
<time>2010-02-27T11:05:18.63</time>
<name>3784</name>
</trkpt>
<trkpt lat="48.952452" lon="8.653892">
<ele>269.0</ele>
<speed>5.4</speed>
<course>120.4</course>
<desc>Speed 5.4 km/h Distance 5.24 km</desc>
<time>2010-02-27T11:05:19.63</time>
<name>3785</name>
</trkpt>
<trkpt lat="48.952443" lon="8.653913">
<ele>269.5</ele>
<speed>6.1</speed>
<course>152.1</course>
<desc>Speed 6.1 km/h Distance 5.24 km</desc>
<time>2010-02-27T11:05:20.63</time>
<name>3786</name>
</trkpt>
<trkpt lat="48.952435" lon="8.653920">
<ele>269.5</ele>
<speed>3.6</speed>
<course>137.4</course>
<desc>Speed 3.6 km/h Distance 5.24 km</desc>
<time>2010-02-27T11:05:21.63</time>
<name>3787</name>
</trkpt>
<trkpt lat="48.952427" lon="8.653932">
<ele>269.5</ele>
<speed>4.2</speed>
<course>162.5</course>
<desc>Speed 4.2 km/h Distance 5.24 km</desc>
<time>2010-02-27T11:05:22.63</time>
<name>3788</name>
</trkpt>
<trkpt lat="48.952420" lon="8.653935">
<ele>268.5</ele>
<speed>2.7</speed>
<course>149.4</course>
<desc>Speed 2.7 km/h Distance 5.24 km</desc>
<time>2010-02-27T11:05:23.63</time>
<name>3789</name>
</trkpt>
<trkpt lat="48.952403" lon="8.653950">
<ele>268.5</ele>
<speed>7.8</speed>
<course>90.0</course>
<desc>Speed 7.8 km/h Distance 5.25 km</desc>
<time>2010-02-27T11:05:24.63</time>
<name>3790</name>
</trkpt>
<trkpt lat="48.952403" lon="8.653955">
<ele>268.5</ele>
<speed>1.3</speed>
<course>90.0</course>
<desc>Speed 1.3 km/h Distance 5.25 km</desc>
<time>2010-02-27T11:05:25.63</time>
<name>3791</name>
</trkpt>
<trkpt lat="48.952403" lon="8.653965">
<ele>269.5</ele>
<speed>0.9</speed>
<course>102.2</course>
<desc>Speed 0.9 km/h Distance 5.25 km</desc>
<time>2010-02-27T11:05:26.63</time>
<name>3792</name>
</trkpt>
<trkpt lat="48.952402" lon="8.653977">
<ele>269.5</ele>
<speed>2.3</speed>
<course>119.7</course>
<desc>Speed 2.3 km/h Distance 5.25 km</desc>
<time>2010-02-27T11:05:27.63</time>
<name>3793</name>
</trkpt>
<trkpt lat="48.952397" lon="8.653990">
<ele>269.0</ele>
<speed>2.0</speed>
<course>174.7</course>
<desc>Speed 2.0 km/h Distance 5.25 km</desc>
<time>2010-02-27T11:05:28.63</time>
<name>3794</name>
</trkpt>
<trkpt lat="48.952383" lon="8.653992">
<ele>269.0</ele>
<speed>5.6</speed>
<course>133.6</course>
<desc>Speed 5.6 km/h Distance 5.25 km</desc>
<time>2010-02-27T11:05:29.63</time>
<name>3795</name>
</trkpt>
<trkpt lat="48.952375" lon="8.654005">
<ele>269.5</ele>
<speed>5.0</speed>
<course>135.5</course>
<desc>Speed 5.0 km/h Distance 5.25 km</desc>
<time>2010-02-27T11:05:30.63</time>
<name>3796</name>
</trkpt>
<trkpt lat="48.952365" lon="8.654020">
<ele>270.0</ele>
<speed>5.4</speed>
<course>113.5</course>
<desc>Speed 5.4 km/h Distance 5.25 km</desc>
<time>2010-02-27T11:05:31.63</time>
<name>3797</name>
</trkpt>
<trkpt lat="48.952358" lon="8.654043">
<ele>269.5</ele>
<speed>6.5</speed>
<course>135.4</course>
<desc>Speed 6.5 km/h Distance 5.25 km</desc>
<time>2010-02-27T11:05:32.63</time>
<name>3798</name>
</trkpt>
<trkpt lat="48.952348" lon="8.654058">
<ele>269.5</ele>
<speed>5.9</speed>
<course>127.3</course>
<desc>Speed 5.9 km/h Distance 5.26 km</desc>
<time>2010-02-27T11:05:33.63</time>
<name>3799</name>
</trkpt>
<trkpt lat="48.952340" lon="8.654075">
<ele>269.5</ele>
<speed>5.7</speed>
<course>142.5</course>
<desc>Speed 5.7 km/h Distance 5.26 km</desc>
<time>2010-02-27T11:05:34.63</time>
<name>3800</name>
</trkpt>
<trkpt lat="48.952330" lon="8.654087">
<ele>269.0</ele>
<speed>4.5</speed>
<course>119.7</course>
<desc>Speed 4.5 km/h Distance 5.26 km</desc>
<time>2010-02-27T11:05:35.63</time>
<name>3801</name>
</trkpt>
<trkpt lat="48.952325" lon="8.654100">
<ele>269.0</ele>
<speed>3.5</speed>
<course>143.4</course>
<desc>Speed 3.5 km/h Distance 5.26 km</desc>
<time>2010-02-27T11:05:36.63</time>
<name>3802</name>
</trkpt>
<trkpt lat="48.952312" lon="8.654115">
<ele>269.0</ele>
<speed>5.0</speed>
<course>129.4</course>
<desc>Speed 5.0 km/h Distance 5.26 km</desc>
<time>2010-02-27T11:05:37.63</time>
<name>3803</name>
</trkpt>
<trkpt lat="48.952300" lon="8.654137">
<ele>270.0</ele>
<speed>4.9</speed>
<course>132.4</course>
<desc>Speed 4.9 km/h Distance 5.26 km</desc>
<time>2010-02-27T11:05:38.63</time>
<name>3804</name>
</trkpt>
<trkpt lat="48.952290" lon="8.654153">
<ele>270.0</ele>
<speed>5.3</speed>
<course>137.4</course>
<desc>Speed 5.3 km/h Distance 5.27 km</desc>
<time>2010-02-27T11:05:39.63</time>
<name>3805</name>
</trkpt>
<trkpt lat="48.952282" lon="8.654165">
<ele>270.0</ele>
<speed>4.0</speed>
<course>127.3</course>
<desc>Speed 4.0 km/h Distance 5.27 km</desc>
<time>2010-02-27T11:05:40.63</time>
<name>3806</name>
</trkpt>
<trkpt lat="48.952268" lon="8.654192">
<ele>271.5</ele>
<speed>4.6</speed>
<course>125.4</course>
<desc>Speed 4.6 km/h Distance 5.27 km</desc>
<time>2010-02-27T11:05:41.63</time>
<name>3807</name>
</trkpt>
<trkpt lat="48.952257" lon="8.654217">
<ele>272.5</ele>
<speed>4.6</speed>
<course>120.4</course>
<desc>Speed 4.6 km/h Distance 5.27 km</desc>
<time>2010-02-27T11:05:42.63</time>
<name>3808</name>
</trkpt>
<trkpt lat="48.952248" lon="8.654238">
<ele>273.0</ele>
<speed>4.8</speed>
<course>137.4</course>
<desc>Speed 4.8 km/h Distance 5.27 km</desc>
<time>2010-02-27T11:05:43.63</time>
<name>3809</name>
</trkpt>
<trkpt lat="48.952240" lon="8.654250">
<ele>273.5</ele>
<speed>4.7</speed>
<course>139.8</course>
<desc>Speed 4.7 km/h Distance 5.27 km</desc>
<time>2010-02-27T11:05:44.63</time>
<name>3810</name>
</trkpt>
<trkpt lat="48.952228" lon="8.654265">
<ele>273.0</ele>
<speed>5.7</speed>
<course>146.7</course>
<desc>Speed 5.7 km/h Distance 5.28 km</desc>
<time>2010-02-27T11:05:45.63</time>
<name>3811</name>
</trkpt>
<trkpt lat="48.952212" lon="8.654282">
<ele>273.0</ele>
<speed>8.1</speed>
<course>141.9</course>
<desc>Speed 8.1 km/h Distance 5.28 km</desc>
<time>2010-02-27T11:05:46.63</time>
<name>3812</name>
</trkpt>
<trkpt lat="48.952203" lon="8.654292">
<ele>272.5</ele>
<speed>4.5</speed>
<course>142.5</course>
<desc>Speed 4.5 km/h Distance 5.28 km</desc>
<time>2010-02-27T11:05:47.63</time>
<name>3813</name>
</trkpt>
<trkpt lat="48.952193" lon="8.654303">
<ele>272.5</ele>
<speed>5.0</speed>
<course>135.5</course>
<desc>Speed 5.0 km/h Distance 5.28 km</desc>
<time>2010-02-27T11:05:48.63</time>
<name>3814</name>
</trkpt>
<trkpt lat="48.952187" lon="8.654313">
<ele>272.0</ele>
<speed>2.9</speed>
<course>137.4</course>
<desc>Speed 2.9 km/h Distance 5.28 km</desc>
<time>2010-02-27T11:05:49.63</time>
<name>3815</name>
</trkpt>
<trkpt lat="48.952178" lon="8.654325">
<ele>271.5</ele>
<speed>4.2</speed>
<course>127.2</course>
<desc>Speed 4.2 km/h Distance 5.28 km</desc>
<time>2010-02-27T11:05:50.63</time>
<name>3816</name>
</trkpt>
<trkpt lat="48.952168" lon="8.654345">
<ele>272.5</ele>
<speed>6.0</speed>
<course>158.5</course>
<desc>Speed 6.0 km/h Distance 5.29 km</desc>
<time>2010-02-27T11:05:51.63</time>
<name>3817</name>
</trkpt>
<trkpt lat="48.952160" lon="8.654350">
<ele>272.0</ele>
<speed>2.4</speed>
<course>125.1</course>
<desc>Speed 2.4 km/h Distance 5.29 km</desc>
<time>2010-02-27T11:05:52.63</time>
<name>3818</name>
</trkpt>
<trkpt lat="48.952150" lon="8.654372">
<ele>272.0</ele>
<speed>5.6</speed>
<course>115.4</course>
<desc>Speed 5.6 km/h Distance 5.29 km</desc>
<time>2010-02-27T11:05:53.63</time>
<name>3819</name>
</trkpt>
<trkpt lat="48.952142" lon="8.654398">
<ele>272.0</ele>
<speed>6.9</speed>
<course>150.6</course>
<desc>Speed 6.9 km/h Distance 5.29 km</desc>
<time>2010-02-27T11:05:54.63</time>
<name>3820</name>
</trkpt>
<trkpt lat="48.952130" lon="8.654408">
<ele>271.5</ele>
<speed>3.6</speed>
<course>146.6</course>
<desc>Speed 3.6 km/h Distance 5.29 km</desc>
<time>2010-02-27T11:05:55.63</time>
<name>3821</name>
</trkpt>
<trkpt lat="48.952118" lon="8.654420">
<ele>272.0</ele>
<speed>4.7</speed>
<course>151.4</course>
<desc>Speed 4.7 km/h Distance 5.29 km</desc>
<time>2010-02-27T11:05:56.63</time>
<name>3822</name>
</trkpt>
<trkpt lat="48.952108" lon="8.654428">
<ele>271.5</ele>
<speed>3.4</speed>
<course>140.6</course>
<desc>Speed 3.4 km/h Distance 5.29 km</desc>
<time>2010-02-27T11:05:57.63</time>
<name>3823</name>
</trkpt>
<trkpt lat="48.952095" lon="8.654445">
<ele>271.5</ele>
<speed>4.8</speed>
<course>151.4</course>
<desc>Speed 4.8 km/h Distance 5.30 km</desc>
<time>2010-02-27T11:05:58.63</time>
<name>3824</name>
</trkpt>
<trkpt lat="48.952085" lon="8.654453">
<ele>270.5</ele>
<speed>3.9</speed>
<course>156.2</course>
<desc>Speed 3.9 km/h Distance 5.30 km</desc>
<time>2010-02-27T11:05:59.63</time>
<name>3825</name>
</trkpt>
<trkpt lat="48.952075" lon="8.654460">
<ele>270.5</ele>
<speed>3.6</speed>
<course>154.8</course>
<desc>Speed 3.6 km/h Distance 5.30 km</desc>
<time>2010-02-27T11:06:00.63</time>
<name>3826</name>
</trkpt>
<trkpt lat="48.952063" lon="8.654468">
<ele>269.5</ele>
<speed>4.0</speed>
<course>146.7</course>
<desc>Speed 4.0 km/h Distance 5.30 km</desc>
<time>2010-02-27T11:06:01.63</time>
<name>3827</name>
</trkpt>
<trkpt lat="48.952043" lon="8.654488">
<ele>270.5</ele>
<speed>3.6</speed>
<course>157.9</course>
<desc>Speed 3.6 km/h Distance 5.30 km</desc>
<time>2010-02-27T11:06:02.63</time>
<name>3828</name>
</trkpt>
<trkpt lat="48.952030" lon="8.654497">
<ele>270.5</ele>
<speed>5.1</speed>
<course>139.8</course>
<desc>Speed 5.1 km/h Distance 5.31 km</desc>
<time>2010-02-27T11:06:03.63</time>
<name>3829</name>
</trkpt>
<trkpt lat="48.952018" lon="8.654512">
<ele>270.5</ele>
<speed>4.9</speed>
<course>146.6</course>
<desc>Speed 4.9 km/h Distance 5.31 km</desc>
<time>2010-02-27T11:06:04.63</time>
<name>3830</name>
</trkpt>
<trkpt lat="48.952005" lon="8.654525">
<ele>270.5</ele>
<speed>4.6</speed>
<course>156.3</course>
<desc>Speed 4.6 km/h Distance 5.31 km</desc>
<time>2010-02-27T11:06:05.63</time>
<name>3831</name>
</trkpt>
<trkpt lat="48.951990" lon="8.654535">
<ele>270.0</ele>
<speed>4.4</speed>
<course>165.4</course>
<desc>Speed 4.4 km/h Distance 5.31 km</desc>
<time>2010-02-27T11:06:06.63</time>
<name>3832</name>
</trkpt>
<trkpt lat="48.951973" lon="8.654542">
<ele>270.0</ele>
<speed>3.2</speed>
<course>135.7</course>
<desc>Speed 3.2 km/h Distance 5.31 km</desc>
<time>2010-02-27T11:06:07.63</time>
<name>3833</name>
</trkpt>
<trkpt lat="48.951967" lon="8.654552">
<ele>270.0</ele>
<speed>3.6</speed>
<course>137.4</course>
<desc>Speed 3.6 km/h Distance 5.31 km</desc>
<time>2010-02-27T11:06:08.63</time>
<name>3834</name>
</trkpt>
<trkpt lat="48.951958" lon="8.654563">
<ele>270.0</ele>
<speed>3.5</speed>
<course>138.8</course>
<desc>Speed 3.5 km/h Distance 5.31 km</desc>
<time>2010-02-27T11:06:09.63</time>
<name>3835</name>
</trkpt>
<trkpt lat="48.951948" lon="8.654577">
<ele>270.0</ele>
<speed>4.2</speed>
<course>129.4</course>
<desc>Speed 4.2 km/h Distance 5.32 km</desc>
<time>2010-02-27T11:06:10.63</time>
<name>3836</name>
</trkpt>
<trkpt lat="48.951937" lon="8.654598">
<ele>271.0</ele>
<speed>6.2</speed>
<course>120.4</course>
<desc>Speed 6.2 km/h Distance 5.32 km</desc>
<time>2010-02-27T11:06:11.63</time>
<name>3837</name>
</trkpt>
<trkpt lat="48.951928" lon="8.654620">
<ele>272.0</ele>
<speed>6.1</speed>
<course>129.7</course>
<desc>Speed 6.1 km/h Distance 5.32 km</desc>
<time>2010-02-27T11:06:12.63</time>
<name>3838</name>
</trkpt>
<trkpt lat="48.951918" lon="8.654638">
<ele>272.0</ele>
<speed>4.9</speed>
<course>149.4</course>
<desc>Speed 4.9 km/h Distance 5.32 km</desc>
<time>2010-02-27T11:06:13.63</time>
<name>3839</name>
</trkpt>
<trkpt lat="48.951902" lon="8.654653">
<ele>271.5</ele>
<speed>4.5</speed>
<course>142.5</course>
<desc>Speed 4.5 km/h Distance 5.32 km</desc>
<time>2010-02-27T11:06:14.63</time>
<name>3840</name>
</trkpt>
<trkpt lat="48.951892" lon="8.654665">
<ele>271.0</ele>
<speed>4.2</speed>
<course>141.0</course>
<desc>Speed 4.2 km/h Distance 5.33 km</desc>
<time>2010-02-27T11:06:15.63</time>
<name>3841</name>
</trkpt>
<trkpt lat="48.951885" lon="8.654673">
<ele>270.5</ele>
<speed>3.5</speed>
<course>130.6</course>
<desc>Speed 3.5 km/h Distance 5.33 km</desc>
<time>2010-02-27T11:06:16.63</time>
<name>3842</name>
</trkpt>
<trkpt lat="48.951870" lon="8.654700">
<ele>271.5</ele>
<speed>7.5</speed>
<course>135.3</course>
<desc>Speed 7.5 km/h Distance 5.33 km</desc>
<time>2010-02-27T11:06:17.63</time>
<name>3843</name>
</trkpt>
<trkpt lat="48.951857" lon="8.654720">
<ele>271.5</ele>
<speed>5.3</speed>
<course>127.3</course>
<desc>Speed 5.3 km/h Distance 5.33 km</desc>
<time>2010-02-27T11:06:18.63</time>
<name>3844</name>
</trkpt>
<trkpt lat="48.951847" lon="8.654740">
<ele>272.0</ele>
<speed>5.0</speed>
<course>125.4</course>
<desc>Speed 5.0 km/h Distance 5.33 km</desc>
<time>2010-02-27T11:06:19.63</time>
<name>3845</name>
</trkpt>
<trkpt lat="48.951835" lon="8.654765">
<ele>273.0</ele>
<speed>6.1</speed>
<course>116.9</course>
<desc>Speed 6.1 km/h Distance 5.33 km</desc>
<time>2010-02-27T11:06:20.63</time>
<name>3846</name>
</trkpt>
<trkpt lat="48.951828" lon="8.654785">
<ele>273.5</ele>
<speed>3.9</speed>
<course>124.6</course>
<desc>Speed 3.9 km/h Distance 5.34 km</desc>
<time>2010-02-27T11:06:21.63</time>
<name>3847</name>
</trkpt>
<trkpt lat="48.951820" lon="8.654803">
<ele>274.0</ele>
<speed>4.9</speed>
<course>149.9</course>
<desc>Speed 4.9 km/h Distance 5.34 km</desc>
<time>2010-02-27T11:06:22.63</time>
<name>3848</name>
</trkpt>
<trkpt lat="48.951807" lon="8.654815">
<ele>273.0</ele>
<speed>2.9</speed>
<course>134.4</course>
<desc>Speed 2.9 km/h Distance 5.34 km</desc>
<time>2010-02-27T11:06:23.63</time>
<name>3849</name>
</trkpt>
<trkpt lat="48.951792" lon="8.654838">
<ele>273.0</ele>
<speed>4.8</speed>
<course>143.6</course>
<desc>Speed 4.8 km/h Distance 5.34 km</desc>
<time>2010-02-27T11:06:24.63</time>
<name>3850</name>
</trkpt>
<trkpt lat="48.951778" lon="8.654853">
<ele>273.0</ele>
<speed>5.0</speed>
<course>127.3</course>
<desc>Speed 5.0 km/h Distance 5.34 km</desc>
<time>2010-02-27T11:06:25.63</time>
<name>3851</name>
</trkpt>
<trkpt lat="48.951770" lon="8.654870">
<ele>273.5</ele>
<speed>4.0</speed>
<course>124.7</course>
<desc>Speed 4.0 km/h Distance 5.35 km</desc>
<time>2010-02-27T11:06:26.63</time>
<name>3852</name>
</trkpt>
<trkpt lat="48.951762" lon="8.654888">
<ele>273.5</ele>
<speed>4.9</speed>
<course>120.4</course>
<desc>Speed 4.9 km/h Distance 5.35 km</desc>
<time>2010-02-27T11:06:27.63</time>
<name>3853</name>
</trkpt>
<trkpt lat="48.951753" lon="8.654910">
<ele>273.5</ele>
<speed>5.1</speed>
<course>125.1</course>
<desc>Speed 5.1 km/h Distance 5.35 km</desc>
<time>2010-02-27T11:06:28.63</time>
<name>3854</name>
</trkpt>
<trkpt lat="48.951743" lon="8.654932">
<ele>273.5</ele>
<speed>5.0</speed>
<course>129.7</course>
<desc>Speed 5.0 km/h Distance 5.35 km</desc>
<time>2010-02-27T11:06:29.63</time>
<name>3855</name>
</trkpt>
<trkpt lat="48.951733" lon="8.654950">
<ele>274.0</ele>
<speed>5.3</speed>
<course>136.9</course>
<desc>Speed 5.3 km/h Distance 5.35 km</desc>
<time>2010-02-27T11:06:30.63</time>
<name>3856</name>
</trkpt>
<trkpt lat="48.951722" lon="8.654967">
<ele>273.0</ele>
<speed>4.2</speed>
<course>131.9</course>
<desc>Speed 4.2 km/h Distance 5.35 km</desc>
<time>2010-02-27T11:06:31.63</time>
<name>3857</name>
</trkpt>
<trkpt lat="48.951705" lon="8.654995">
<ele>274.0</ele>
<speed>6.9</speed>
<course>138.8</course>
<desc>Speed 6.9 km/h Distance 5.36 km</desc>
<time>2010-02-27T11:06:32.63</time>
<name>3858</name>
</trkpt>
<trkpt lat="48.951695" lon="8.655008">
<ele>273.5</ele>
<speed>4.9</speed>
<course>142.7</course>
<desc>Speed 4.9 km/h Distance 5.36 km</desc>
<time>2010-02-27T11:06:33.63</time>
<name>3859</name>
</trkpt>
<trkpt lat="48.951685" lon="8.655020">
<ele>272.0</ele>
<speed>3.0</speed>
<course>132.4</course>
<desc>Speed 3.0 km/h Distance 5.36 km</desc>
<time>2010-02-27T11:06:34.63</time>
<name>3860</name>
</trkpt>
<trkpt lat="48.951675" lon="8.655037">
<ele>272.0</ele>
<speed>3.6</speed>
<course>146.8</course>
<desc>Speed 3.6 km/h Distance 5.36 km</desc>
<time>2010-02-27T11:06:35.63</time>
<name>3861</name>
</trkpt>
<trkpt lat="48.951667" lon="8.655045">
<ele>271.5</ele>
<speed>2.8</speed>
<course>135.5</course>
<desc>Speed 2.8 km/h Distance 5.36 km</desc>
<time>2010-02-27T11:06:36.63</time>
<name>3862</name>
</trkpt>
<trkpt lat="48.951657" lon="8.655060">
<ele>271.5</ele>
<speed>3.7</speed>
<course>135.4</course>
<desc>Speed 3.7 km/h Distance 5.36 km</desc>
<time>2010-02-27T11:06:37.63</time>
<name>3863</name>
</trkpt>
<trkpt lat="48.951643" lon="8.655080">
<ele>271.5</ele>
<speed>4.9</speed>
<course>119.0</course>
<desc>Speed 4.9 km/h Distance 5.37 km</desc>
<time>2010-02-27T11:06:38.63</time>
<name>3864</name>
</trkpt>
<trkpt lat="48.951637" lon="8.655098">
<ele>272.0</ele>
<speed>4.7</speed>
<course>127.3</course>
<desc>Speed 4.7 km/h Distance 5.37 km</desc>
<time>2010-02-27T11:06:39.63</time>
<name>3865</name>
</trkpt>
<trkpt lat="48.951630" lon="8.655112">
<ele>272.0</ele>
<speed>4.4</speed>
<course>127.3</course>
<desc>Speed 4.4 km/h Distance 5.37 km</desc>
<time>2010-02-27T11:06:40.63</time>
<name>3866</name>
</trkpt>
<trkpt lat="48.951622" lon="8.655128">
<ele>272.0</ele>
<speed>4.9</speed>
<course>119.7</course>
<desc>Speed 4.9 km/h Distance 5.37 km</desc>
<time>2010-02-27T11:06:41.63</time>
<name>3867</name>
</trkpt>
<trkpt lat="48.951617" lon="8.655142">
<ele>271.5</ele>
<speed>3.8</speed>
<course>133.6</course>
<desc>Speed 3.8 km/h Distance 5.37 km</desc>
<time>2010-02-27T11:06:42.63</time>
<name>3868</name>
</trkpt>
<trkpt lat="48.951608" lon="8.655155">
<ele>271.5</ele>
<speed>4.6</speed>
<course>124.7</course>
<desc>Speed 4.6 km/h Distance 5.37 km</desc>
<time>2010-02-27T11:06:43.63</time>
<name>3869</name>
</trkpt>
<trkpt lat="48.951600" lon="8.655173">
<ele>271.5</ele>
<speed>5.0</speed>
<course>127.4</course>
<desc>Speed 5.0 km/h Distance 5.38 km</desc>
<time>2010-02-27T11:06:44.63</time>
<name>3870</name>
</trkpt>
<trkpt lat="48.951593" lon="8.655187">
<ele>271.0</ele>
<speed>3.6</speed>
<course>116.9</course>
<desc>Speed 3.6 km/h Distance 5.38 km</desc>
<time>2010-02-27T11:06:45.63</time>
<name>3871</name>
</trkpt>
<trkpt lat="48.951587" lon="8.655207">
<ele>271.5</ele>
<speed>4.5</speed>
<course>121.3</course>
<desc>Speed 4.5 km/h Distance 5.38 km</desc>
<time>2010-02-27T11:06:46.63</time>
<name>3872</name>
</trkpt>
<trkpt lat="48.951580" lon="8.655223">
<ele>272.0</ele>
<speed>3.8</speed>
<course>116.9</course>
<desc>Speed 3.8 km/h Distance 5.38 km</desc>
<time>2010-02-27T11:06:47.63</time>
<name>3873</name>
</trkpt>
<trkpt lat="48.951575" lon="8.655238">
<ele>272.0</ele>
<speed>4.2</speed>
<course>127.3</course>
<desc>Speed 4.2 km/h Distance 5.38 km</desc>
<time>2010-02-27T11:06:48.63</time>
<name>3874</name>
</trkpt>
<trkpt lat="48.951567" lon="8.655255">
<ele>272.5</ele>
<speed>4.3</speed>
<course>127.4</course>
<desc>Speed 4.3 km/h Distance 5.38 km</desc>
<time>2010-02-27T11:06:49.63</time>
<name>3875</name>
</trkpt>
<trkpt lat="48.951558" lon="8.655272">
<ele>272.5</ele>
<speed>4.7</speed>
<course>116.9</course>
<desc>Speed 4.7 km/h Distance 5.38 km</desc>
<time>2010-02-27T11:06:50.63</time>
<name>3876</name>
</trkpt>
<trkpt lat="48.951550" lon="8.655297">
<ele>273.0</ele>
<speed>6.8</speed>
<course>129.4</course>
<desc>Speed 6.8 km/h Distance 5.39 km</desc>
<time>2010-02-27T11:06:51.63</time>
<name>3877</name>
</trkpt>
<trkpt lat="48.951538" lon="8.655318">
<ele>273.0</ele>
<speed>7.1</speed>
<course>122.4</course>
<desc>Speed 7.1 km/h Distance 5.39 km</desc>
<time>2010-02-27T11:06:52.63</time>
<name>3878</name>
</trkpt>
<trkpt lat="48.951530" lon="8.655338">
<ele>273.5</ele>
<speed>5.5</speed>
<course>127.3</course>
<desc>Speed 5.5 km/h Distance 5.39 km</desc>
<time>2010-02-27T11:06:53.63</time>
<name>3879</name>
</trkpt>
<trkpt lat="48.951520" lon="8.655358">
<ele>273.5</ele>
<speed>5.9</speed>
<course>122.4</course>
<desc>Speed 5.9 km/h Distance 5.39 km</desc>
<time>2010-02-27T11:06:54.63</time>
<name>3880</name>
</trkpt>
<trkpt lat="48.951512" lon="8.655378">
<ele>273.5</ele>
<speed>5.4</speed>
<course>119.0</course>
<desc>Speed 5.4 km/h Distance 5.39 km</desc>
<time>2010-02-27T11:06:55.63</time>
<name>3881</name>
</trkpt>
<trkpt lat="48.951505" lon="8.655397">
<ele>274.0</ele>
<speed>4.4</speed>
<course>124.7</course>
<desc>Speed 4.4 km/h Distance 5.39 km</desc>
<time>2010-02-27T11:06:56.63</time>
<name>3882</name>
</trkpt>
<trkpt lat="48.951497" lon="8.655415">
<ele>274.5</ele>
<speed>4.4</speed>
<course>124.1</course>
<desc>Speed 4.4 km/h Distance 5.40 km</desc>
<time>2010-02-27T11:06:57.63</time>
<name>3883</name>
</trkpt>
<trkpt lat="48.951490" lon="8.655430">
<ele>274.0</ele>
<speed>3.1</speed>
<course>135.5</course>
<desc>Speed 3.1 km/h Distance 5.40 km</desc>
<time>2010-02-27T11:06:58.63</time>
<name>3884</name>
</trkpt>
<trkpt lat="48.951480" lon="8.655445">
<ele>274.0</ele>
<speed>4.3</speed>
<course>123.3</course>
<desc>Speed 4.3 km/h Distance 5.40 km</desc>
<time>2010-02-27T11:06:59.63</time>
<name>3885</name>
</trkpt>
<trkpt lat="48.951475" lon="8.655457">
<ele>274.0</ele>
<speed>2.6</speed>
<course>124.7</course>
<desc>Speed 2.6 km/h Distance 5.40 km</desc>
<time>2010-02-27T11:07:00.63</time>
<name>3886</name>
</trkpt>
<trkpt lat="48.951467" lon="8.655475">
<ele>274.0</ele>
<speed>4.4</speed>
<course>123.1</course>
<desc>Speed 4.4 km/h Distance 5.40 km</desc>
<time>2010-02-27T11:07:01.63</time>
<name>3887</name>
</trkpt>
<trkpt lat="48.951457" lon="8.655498">
<ele>274.5</ele>
<speed>5.3</speed>
<course>127.3</course>
<desc>Speed 5.3 km/h Distance 5.40 km</desc>
<time>2010-02-27T11:07:02.63</time>
<name>3888</name>
</trkpt>
<trkpt lat="48.951448" lon="8.655515">
<ele>274.5</ele>
<speed>5.0</speed>
<course>108.7</course>
<desc>Speed 5.0 km/h Distance 5.41 km</desc>
<time>2010-02-27T11:07:03.63</time>
<name>3889</name>
</trkpt>
<trkpt lat="48.951445" lon="8.655530">
<ele>274.0</ele>
<speed>3.9</speed>
<course>115.7</course>
<desc>Speed 3.9 km/h Distance 5.41 km</desc>
<time>2010-02-27T11:07:04.63</time>
<name>3890</name>
</trkpt>
<trkpt lat="48.951435" lon="8.655562">
<ele>275.5</ele>
<speed>9.2</speed>
<course>136.9</course>
<desc>Speed 9.2 km/h Distance 5.41 km</desc>
<time>2010-02-27T11:07:05.63</time>
<name>3891</name>
</trkpt>
<trkpt lat="48.951423" lon="8.655578">
<ele>275.5</ele>
<speed>5.4</speed>
<course>132.4</course>
<desc>Speed 5.4 km/h Distance 5.41 km</desc>
<time>2010-02-27T11:07:06.63</time>
<name>3892</name>
</trkpt>
<trkpt lat="48.951413" lon="8.655595">
<ele>275.5</ele>
<speed>5.2</speed>
<course>131.6</course>
<desc>Speed 5.2 km/h Distance 5.41 km</desc>
<time>2010-02-27T11:07:07.63</time>
<name>3893</name>
</trkpt>
<trkpt lat="48.951402" lon="8.655615">
<ele>275.5</ele>
<speed>6.2</speed>
<course>129.6</course>
<desc>Speed 6.2 km/h Distance 5.41 km</desc>
<time>2010-02-27T11:07:08.63</time>
<name>3894</name>
</trkpt>
<trkpt lat="48.951392" lon="8.655633">
<ele>275.5</ele>
<speed>5.9</speed>
<course>129.7</course>
<desc>Speed 5.9 km/h Distance 5.42 km</desc>
<time>2010-02-27T11:07:09.63</time>
<name>3895</name>
</trkpt>
<trkpt lat="48.951382" lon="8.655652">
<ele>276.0</ele>
<speed>4.8</speed>
<course>130.9</course>
<desc>Speed 4.8 km/h Distance 5.42 km</desc>
<time>2010-02-27T11:07:10.63</time>
<name>3896</name>
</trkpt>
<trkpt lat="48.951375" lon="8.655663">
<ele>276.0</ele>
<speed>3.4</speed>
<course>138.8</course>
<desc>Speed 3.4 km/h Distance 5.42 km</desc>
<time>2010-02-27T11:07:11.63</time>
<name>3897</name>
</trkpt>
<trkpt lat="48.951365" lon="8.655677">
<ele>276.0</ele>
<speed>4.0</speed>
<course>142.5</course>
<desc>Speed 4.0 km/h Distance 5.42 km</desc>
<time>2010-02-27T11:07:12.63</time>
<name>3898</name>
</trkpt>
<trkpt lat="48.951355" lon="8.655688">
<ele>276.0</ele>
<speed>3.9</speed>
<course>133.6</course>
<desc>Speed 3.9 km/h Distance 5.42 km</desc>
<time>2010-02-27T11:07:13.63</time>
<name>3899</name>
</trkpt>
<trkpt lat="48.951347" lon="8.655702">
<ele>276.0</ele>
<speed>4.0</speed>
<course>124.7</course>
<desc>Speed 4.0 km/h Distance 5.42 km</desc>
<time>2010-02-27T11:07:14.63</time>
<name>3900</name>
</trkpt>
<trkpt lat="48.951338" lon="8.655720">
<ele>276.5</ele>
<speed>2.9</speed>
<course>138.8</course>
<desc>Speed 2.9 km/h Distance 5.42 km</desc>
<time>2010-02-27T11:07:15.63</time>
<name>3901</name>
</trkpt>
<trkpt lat="48.951328" lon="8.655733">
<ele>276.0</ele>
<speed>3.6</speed>
<course>141.9</course>
<desc>Speed 3.6 km/h Distance 5.43 km</desc>
<time>2010-02-27T11:07:16.63</time>
<name>3902</name>
</trkpt>
<trkpt lat="48.951320" lon="8.655743">
<ele>275.5</ele>
<speed>3.1</speed>
<course>137.4</course>
<desc>Speed 3.1 km/h Distance 5.43 km</desc>
<time>2010-02-27T11:07:17.63</time>
<name>3903</name>
</trkpt>
<trkpt lat="48.951312" lon="8.655755">
<ele>275.5</ele>
<speed>3.8</speed>
<course>136.5</course>
<desc>Speed 3.8 km/h Distance 5.43 km</desc>
<time>2010-02-27T11:07:18.63</time>
<name>3904</name>
</trkpt>
<trkpt lat="48.951308" lon="8.655760">
<ele>275.0</ele>
<speed>1.6</speed>
<course>135.5</course>
<desc>Speed 1.6 km/h Distance 5.43 km</desc>
<time>2010-02-27T11:07:19.63</time>
<name>3905</name>
</trkpt>
<trkpt lat="48.951298" lon="8.655775">
<ele>275.0</ele>
<speed>4.4</speed>
<course>143.1</course>
<desc>Speed 4.4 km/h Distance 5.43 km</desc>
<time>2010-02-27T11:07:20.63</time>
<name>3906</name>
</trkpt>
<trkpt lat="48.951287" lon="8.655788">
<ele>274.0</ele>
<speed>3.4</speed>
<course>124.1</course>
<desc>Speed 3.4 km/h Distance 5.43 km</desc>
<time>2010-02-27T11:07:21.63</time>
<name>3907</name>
</trkpt>
<trkpt lat="48.951280" lon="8.655803">
<ele>274.5</ele>
<speed>3.7</speed>
<course>130.2</course>
<desc>Speed 3.7 km/h Distance 5.43 km</desc>
<time>2010-02-27T11:07:22.63</time>
<name>3908</name>
</trkpt>
<trkpt lat="48.951272" lon="8.655818">
<ele>274.5</ele>
<speed>4.2</speed>
<course>152.1</course>
<desc>Speed 4.2 km/h Distance 5.44 km</desc>
<time>2010-02-27T11:07:23.63</time>
<name>3909</name>
</trkpt>
<trkpt lat="48.951263" lon="8.655825">
<ele>274.0</ele>
<speed>2.5</speed>
<course>138.6</course>
<desc>Speed 2.5 km/h Distance 5.44 km</desc>
<time>2010-02-27T11:07:24.63</time>
<name>3910</name>
</trkpt>
<trkpt lat="48.951258" lon="8.655832">
<ele>273.5</ele>
<speed>2.0</speed>
<course>146.5</course>
<desc>Speed 2.0 km/h Distance 5.44 km</desc>
<time>2010-02-27T11:07:25.63</time>
<name>3911</name>
</trkpt>
<trkpt lat="48.951250" lon="8.655840">
<ele>273.0</ele>
<speed>3.0</speed>
<course>138.8</course>
<desc>Speed 3.0 km/h Distance 5.44 km</desc>
<time>2010-02-27T11:07:26.63</time>
<name>3912</name>
</trkpt>
<trkpt lat="48.951240" lon="8.655853">
<ele>272.5</ele>
<speed>3.5</speed>
<course>127.6</course>
<desc>Speed 3.5 km/h Distance 5.44 km</desc>
<time>2010-02-27T11:07:27.63</time>
<name>3913</name>
</trkpt>
<trkpt lat="48.951235" lon="8.655863">
<ele>273.0</ele>
<speed>2.9</speed>
<course>130.1</course>
<desc>Speed 2.9 km/h Distance 5.44 km</desc>
<time>2010-02-27T11:07:28.63</time>
<name>3914</name>
</trkpt>
<trkpt lat="48.951227" lon="8.655878">
<ele>272.5</ele>
<speed>4.1</speed>
<course>135.4</course>
<desc>Speed 4.1 km/h Distance 5.44 km</desc>
<time>2010-02-27T11:07:29.63</time>
<name>3915</name>
</trkpt>
<trkpt lat="48.951217" lon="8.655893">
<ele>273.0</ele>
<speed>4.0</speed>
<course>127.2</course>
<desc>Speed 4.0 km/h Distance 5.44 km</desc>
<time>2010-02-27T11:07:30.63</time>
<name>3916</name>
</trkpt>
<trkpt lat="48.951207" lon="8.655913">
<ele>273.5</ele>
<speed>5.0</speed>
<course>124.7</course>
<desc>Speed 5.0 km/h Distance 5.45 km</desc>
<time>2010-02-27T11:07:31.63</time>
<name>3917</name>
</trkpt>
<trkpt lat="48.951198" lon="8.655932">
<ele>273.5</ele>
<speed>4.0</speed>
<course>141.9</course>
<desc>Speed 4.0 km/h Distance 5.45 km</desc>
<time>2010-02-27T11:07:32.63</time>
<name>3918</name>
</trkpt>
<trkpt lat="48.951190" lon="8.655942">
<ele>273.0</ele>
<speed>3.0</speed>
<course>130.3</course>
<desc>Speed 3.0 km/h Distance 5.45 km</desc>
<time>2010-02-27T11:07:33.63</time>
<name>3919</name>
</trkpt>
<trkpt lat="48.951182" lon="8.655957">
<ele>273.0</ele>
<speed>4.1</speed>
<course>137.4</course>
<desc>Speed 4.1 km/h Distance 5.45 km</desc>
<time>2010-02-27T11:07:34.63</time>
<name>3920</name>
</trkpt>
<trkpt lat="48.951173" lon="8.655968">
<ele>272.5</ele>
<speed>3.7</speed>
<course>132.4</course>
<desc>Speed 3.7 km/h Distance 5.45 km</desc>
<time>2010-02-27T11:07:35.63</time>
<name>3921</name>
</trkpt>
<trkpt lat="48.951163" lon="8.655985">
<ele>272.5</ele>
<speed>4.9</speed>
<course>135.4</course>
<desc>Speed 4.9 km/h Distance 5.45 km</desc>
<time>2010-02-27T11:07:36.63</time>
<name>3922</name>
</trkpt>
<trkpt lat="48.951153" lon="8.656000">
<ele>272.5</ele>
<speed>4.7</speed>
<course>135.5</course>
<desc>Speed 4.7 km/h Distance 5.45 km</desc>
<time>2010-02-27T11:07:37.63</time>
<name>3923</name>
</trkpt>
<trkpt lat="48.951143" lon="8.656015">
<ele>272.5</ele>
<speed>5.0</speed>
<course>138.8</course>
<desc>Speed 5.0 km/h Distance 5.46 km</desc>
<time>2010-02-27T11:07:38.63</time>
<name>3924</name>
</trkpt>
<trkpt lat="48.951133" lon="8.656028">
<ele>272.0</ele>
<speed>4.2</speed>
<course>151.4</course>
<desc>Speed 4.2 km/h Distance 5.46 km</desc>
<time>2010-02-27T11:07:39.63</time>
<name>3925</name>
</trkpt>
<trkpt lat="48.951123" lon="8.656037">
<ele>272.0</ele>
<speed>3.5</speed>
<course>167.4</course>
<desc>Speed 3.5 km/h Distance 5.46 km</desc>
<time>2010-02-27T11:07:40.63</time>
<name>3926</name>
</trkpt>
<trkpt lat="48.951113" lon="8.656040">
<ele>271.0</ele>
<speed>3.3</speed>
<course>132.4</course>
<desc>Speed 3.3 km/h Distance 5.46 km</desc>
<time>2010-02-27T11:07:41.63</time>
<name>3927</name>
</trkpt>
<trkpt lat="48.951103" lon="8.656057">
<ele>271.0</ele>
<speed>5.3</speed>
<course>156.2</course>
<desc>Speed 5.3 km/h Distance 5.46 km</desc>
<time>2010-02-27T11:07:42.63</time>
<name>3928</name>
</trkpt>
<trkpt lat="48.951093" lon="8.656063">
<ele>270.5</ele>
<speed>3.0</speed>
<course>143.1</course>
<desc>Speed 3.0 km/h Distance 5.46 km</desc>
<time>2010-02-27T11:07:43.63</time>
<name>3929</name>
</trkpt>
<trkpt lat="48.951082" lon="8.656077">
<ele>270.0</ele>
<speed>4.2</speed>
<course>146.8</course>
<desc>Speed 4.2 km/h Distance 5.46 km</desc>
<time>2010-02-27T11:07:44.63</time>
<name>3930</name>
</trkpt>
<trkpt lat="48.951075" lon="8.656083">
<ele>269.5</ele>
<speed>2.8</speed>
<course>133.6</course>
<desc>Speed 2.8 km/h Distance 5.46 km</desc>
<time>2010-02-27T11:07:45.63</time>
<name>3931</name>
</trkpt>
<trkpt lat="48.951067" lon="8.656097">
<ele>269.5</ele>
<speed>3.9</speed>
<course>130.9</course>
<desc>Speed 3.9 km/h Distance 5.47 km</desc>
<time>2010-02-27T11:07:46.63</time>
<name>3932</name>
</trkpt>
<trkpt lat="48.951060" lon="8.656108">
<ele>269.5</ele>
<speed>3.4</speed>
<course>150.6</course>
<desc>Speed 3.4 km/h Distance 5.47 km</desc>
<time>2010-02-27T11:07:47.63</time>
<name>3933</name>
</trkpt>
<trkpt lat="48.951048" lon="8.656118">
<ele>269.0</ele>
<speed>4.3</speed>
<course>142.5</course>
<desc>Speed 4.3 km/h Distance 5.47 km</desc>
<time>2010-02-27T11:07:48.63</time>
<name>3934</name>
</trkpt>
<trkpt lat="48.951038" lon="8.656130">
<ele>269.0</ele>
<speed>3.6</speed>
<course>150.6</course>
<desc>Speed 3.6 km/h Distance 5.47 km</desc>
<time>2010-02-27T11:07:49.63</time>
<name>3935</name>
</trkpt>
<trkpt lat="48.951027" lon="8.656140">
<ele>269.0</ele>
<speed>3.1</speed>
<course>146.3</course>
<desc>Speed 3.1 km/h Distance 5.47 km</desc>
<time>2010-02-27T11:07:50.63</time>
<name>3936</name>
</trkpt>
<trkpt lat="48.951020" lon="8.656147">
<ele>269.0</ele>
<speed>2.7</speed>
<course>137.4</course>
<desc>Speed 2.7 km/h Distance 5.47 km</desc>
<time>2010-02-27T11:07:51.63</time>
<name>3937</name>
</trkpt>
<trkpt lat="48.951012" lon="8.656158">
<ele>269.0</ele>
<speed>4.1</speed>
<course>130.9</course>
<desc>Speed 4.1 km/h Distance 5.47 km</desc>
<time>2010-02-27T11:07:52.63</time>
<name>3938</name>
</trkpt>
<trkpt lat="48.951005" lon="8.656170">
<ele>269.0</ele>
<speed>3.5</speed>
<course>122.1</course>
<desc>Speed 3.5 km/h Distance 5.48 km</desc>
<time>2010-02-27T11:07:53.63</time>
<name>3939</name>
</trkpt>
<trkpt lat="48.950993" lon="8.656198">
<ele>271.0</ele>
<speed>8.8</speed>
<course>129.7</course>
<desc>Speed 8.8 km/h Distance 5.48 km</desc>
<time>2010-02-27T11:07:54.63</time>
<name>3940</name>
</trkpt>
<trkpt lat="48.950983" lon="8.656217">
<ele>271.5</ele>
<speed>5.5</speed>
<course>135.5</course>
<desc>Speed 5.5 km/h Distance 5.48 km</desc>
<time>2010-02-27T11:07:55.63</time>
<name>3941</name>
</trkpt>
<trkpt lat="48.950977" lon="8.656227">
<ele>271.0</ele>
<speed>3.4</speed>
<course>133.6</course>
<desc>Speed 3.4 km/h Distance 5.48 km</desc>
<time>2010-02-27T11:07:56.63</time>
<name>3942</name>
</trkpt>
<trkpt lat="48.950968" lon="8.656240">
<ele>271.0</ele>
<speed>4.6</speed>
<course>135.5</course>
<desc>Speed 4.6 km/h Distance 5.48 km</desc>
<time>2010-02-27T11:07:57.63</time>
<name>3943</name>
</trkpt>
<trkpt lat="48.950962" lon="8.656250">
<ele>271.0</ele>
<speed>3.7</speed>
<course>146.5</course>
<desc>Speed 3.7 km/h Distance 5.48 km</desc>
<time>2010-02-27T11:07:58.63</time>
<name>3944</name>
</trkpt>
<trkpt lat="48.950953" lon="8.656258">
<ele>271.0</ele>
<speed>3.0</speed>
<course>137.4</course>
<desc>Speed 3.0 km/h Distance 5.48 km</desc>
<time>2010-02-27T11:07:59.63</time>
<name>3945</name>
</trkpt>
<trkpt lat="48.950945" lon="8.656270">
<ele>271.0</ele>
<speed>4.2</speed>
<course>133.5</course>
<desc>Speed 4.2 km/h Distance 5.49 km</desc>
<time>2010-02-27T11:08:00.63</time>
<name>3946</name>
</trkpt>
<trkpt lat="48.950937" lon="8.656283">
<ele>271.0</ele>
<speed>4.3</speed>
<course>140.6</course>
<desc>Speed 4.3 km/h Distance 5.49 km</desc>
<time>2010-02-27T11:08:01.63</time>
<name>3947</name>
</trkpt>
<trkpt lat="48.950930" lon="8.656292">
<ele>270.5</ele>
<speed>3.7</speed>
<course>156.6</course>
<desc>Speed 3.7 km/h Distance 5.49 km</desc>
<time>2010-02-27T11:08:02.63</time>
<name>3948</name>
</trkpt>
<trkpt lat="48.950920" lon="8.656298">
<ele>270.0</ele>
<speed>3.3</speed>
<course>135.4</course>
<desc>Speed 3.3 km/h Distance 5.49 km</desc>
<time>2010-02-27T11:08:03.63</time>
<name>3949</name>
</trkpt>
<trkpt lat="48.950910" lon="8.656313">
<ele>270.0</ele>
<speed>4.7</speed>
<course>138.7</course>
<desc>Speed 4.7 km/h Distance 5.49 km</desc>
<time>2010-02-27T11:08:04.63</time>
<name>3950</name>
</trkpt>
<trkpt lat="48.950900" lon="8.656327">
<ele>270.0</ele>
<speed>4.7</speed>
<course>150.2</course>
<desc>Speed 4.7 km/h Distance 5.49 km</desc>
<time>2010-02-27T11:08:05.63</time>
<name>3951</name>
</trkpt>
<trkpt lat="48.950887" lon="8.656338">
<ele>269.5</ele>
<speed>3.1</speed>
<course>135.5</course>
<desc>Speed 3.1 km/h Distance 5.49 km</desc>
<time>2010-02-27T11:08:06.63</time>
<name>3952</name>
</trkpt>
<trkpt lat="48.950873" lon="8.656358">
<ele>269.0</ele>
<speed>4.8</speed>
<course>137.4</course>
<desc>Speed 4.8 km/h Distance 5.50 km</desc>
<time>2010-02-27T11:08:07.63</time>
<name>3953</name>
</trkpt>
<trkpt lat="48.950865" lon="8.656370">
<ele>268.5</ele>
<speed>3.2</speed>
<course>143.1</course>
<desc>Speed 3.2 km/h Distance 5.50 km</desc>
<time>2010-02-27T11:08:08.63</time>
<name>3954</name>
</trkpt>
<trkpt lat="48.950853" lon="8.656383">
<ele>267.5</ele>
<speed>3.1</speed>
<course>152.1</course>
<desc>Speed 3.1 km/h Distance 5.50 km</desc>
<time>2010-02-27T11:08:09.63</time>
<name>3955</name>
</trkpt>
<trkpt lat="48.950845" lon="8.656390">
<ele>267.0</ele>
<speed>2.4</speed>
<course>127.4</course>
<desc>Speed 2.4 km/h Distance 5.50 km</desc>
<time>2010-02-27T11:08:10.63</time>
<name>3956</name>
</trkpt>
<trkpt lat="48.950838" lon="8.656403">
<ele>267.5</ele>
<speed>3.7</speed>
<course>143.8</course>
<desc>Speed 3.7 km/h Distance 5.50 km</desc>
<time>2010-02-27T11:08:11.63</time>
<name>3957</name>
</trkpt>
<trkpt lat="48.950823" lon="8.656420">
<ele>267.5</ele>
<speed>3.9</speed>
<course>133.5</course>
<desc>Speed 3.9 km/h Distance 5.50 km</desc>
<time>2010-02-27T11:08:12.63</time>
<name>3958</name>
</trkpt>
<trkpt lat="48.950815" lon="8.656433">
<ele>267.5</ele>
<speed>3.9</speed>
<course>141.9</course>
<desc>Speed 3.9 km/h Distance 5.50 km</desc>
<time>2010-02-27T11:08:13.63</time>
<name>3959</name>
</trkpt>
<trkpt lat="48.950807" lon="8.656443">
<ele>267.0</ele>
<speed>2.8</speed>
<course>127.3</course>
<desc>Speed 2.8 km/h Distance 5.51 km</desc>
<time>2010-02-27T11:08:14.63</time>
<name>3960</name>
</trkpt>
<trkpt lat="48.950798" lon="8.656460">
<ele>267.5</ele>
<speed>4.6</speed>
<course>117.0</course>
<desc>Speed 4.6 km/h Distance 5.51 km</desc>
<time>2010-02-27T11:08:15.63</time>
<name>3961</name>
</trkpt>
<trkpt lat="48.950795" lon="8.656470">
<ele>267.5</ele>
<speed>2.0</speed>
<course>133.6</course>
<desc>Speed 2.0 km/h Distance 5.51 km</desc>
<time>2010-02-27T11:08:16.63</time>
<name>3962</name>
</trkpt>
<trkpt lat="48.950787" lon="8.656483">
<ele>268.0</ele>
<speed>4.1</speed>
<course>134.1</course>
<desc>Speed 4.1 km/h Distance 5.51 km</desc>
<time>2010-02-27T11:08:17.63</time>
<name>3963</name>
</trkpt>
<trkpt lat="48.950775" lon="8.656502">
<ele>268.0</ele>
<speed>5.1</speed>
<course>131.1</course>
<desc>Speed 5.1 km/h Distance 5.51 km</desc>
<time>2010-02-27T11:08:18.63</time>
<name>3964</name>
</trkpt>
<trkpt lat="48.950768" lon="8.656513">
<ele>268.0</ele>
<speed>3.1</speed>
<course>137.4</course>
<desc>Speed 3.1 km/h Distance 5.51 km</desc>
<time>2010-02-27T11:08:19.63</time>
<name>3965</name>
</trkpt>
<trkpt lat="48.950760" lon="8.656525">
<ele>267.5</ele>
<speed>4.1</speed>
<course>142.5</course>
<desc>Speed 4.1 km/h Distance 5.51 km</desc>
<time>2010-02-27T11:08:20.63</time>
<name>3966</name>
</trkpt>
<trkpt lat="48.950750" lon="8.656537">
<ele>267.0</ele>
<speed>3.4</speed>
<course>130.1</course>
<desc>Speed 3.4 km/h Distance 5.51 km</desc>
<time>2010-02-27T11:08:21.63</time>
<name>3967</name>
</trkpt>
<trkpt lat="48.950742" lon="8.656552">
<ele>267.0</ele>
<speed>3.7</speed>
<course>127.3</course>
<desc>Speed 3.7 km/h Distance 5.52 km</desc>
<time>2010-02-27T11:08:22.63</time>
<name>3968</name>
</trkpt>
<trkpt lat="48.950733" lon="8.656568">
<ele>267.5</ele>
<speed>3.8</speed>
<course>123.3</course>
<desc>Speed 3.8 km/h Distance 5.52 km</desc>
<time>2010-02-27T11:08:23.63</time>
<name>3969</name>
</trkpt>
<trkpt lat="48.950728" lon="8.656580">
<ele>267.5</ele>
<speed>2.2</speed>
<course>127.3</course>
<desc>Speed 2.2 km/h Distance 5.52 km</desc>
<time>2010-02-27T11:08:24.63</time>
<name>3970</name>
</trkpt>
<trkpt lat="48.950722" lon="8.656593">
<ele>267.5</ele>
<speed>3.0</speed>
<course>127.4</course>
<desc>Speed 3.0 km/h Distance 5.52 km</desc>
<time>2010-02-27T11:08:25.63</time>
<name>3971</name>
</trkpt>
<trkpt lat="48.950717" lon="8.656603">
<ele>267.5</ele>
<speed>1.8</speed>
<course>127.2</course>
<desc>Speed 1.8 km/h Distance 5.52 km</desc>
<time>2010-02-27T11:08:26.63</time>
<name>3972</name>
</trkpt>
<trkpt lat="48.950712" lon="8.656613">
<ele>267.0</ele>
<speed>2.5</speed>
<course>138.6</course>
<desc>Speed 2.5 km/h Distance 5.52 km</desc>
<time>2010-02-27T11:08:27.63</time>
<name>3973</name>
</trkpt>
<trkpt lat="48.950707" lon="8.656620">
<ele>267.0</ele>
<speed>2.0</speed>
<course>124.7</course>
<desc>Speed 2.0 km/h Distance 5.52 km</desc>
<time>2010-02-27T11:08:28.63</time>
<name>3974</name>
</trkpt>
<trkpt lat="48.950698" lon="8.656638">
<ele>267.5</ele>
<speed>4.4</speed>
<course>142.7</course>
<desc>Speed 4.4 km/h Distance 5.52 km</desc>
<time>2010-02-27T11:08:29.63</time>
<name>3975</name>
</trkpt>
<trkpt lat="48.950688" lon="8.656650">
<ele>267.5</ele>
<speed>4.0</speed>
<course>132.4</course>
<desc>Speed 4.0 km/h Distance 5.53 km</desc>
<time>2010-02-27T11:08:30.63</time>
<name>3976</name>
</trkpt>
<trkpt lat="48.950678" lon="8.656667">
<ele>268.0</ele>
<speed>4.2</speed>
<course>146.8</course>
<desc>Speed 4.2 km/h Distance 5.53 km</desc>
<time>2010-02-27T11:08:31.63</time>
<name>3977</name>
</trkpt>
<trkpt lat="48.950668" lon="8.656677">
<ele>267.5</ele>
<speed>3.5</speed>
<course>129.7</course>
<desc>Speed 3.5 km/h Distance 5.53 km</desc>
<time>2010-02-27T11:08:32.63</time>
<name>3978</name>
</trkpt>
<trkpt lat="48.950658" lon="8.656695">
<ele>267.5</ele>
<speed>4.1</speed>
<course>142.5</course>
<desc>Speed 4.1 km/h Distance 5.53 km</desc>
<time>2010-02-27T11:08:33.63</time>
<name>3979</name>
</trkpt>
<trkpt lat="48.950648" lon="8.656707">
<ele>267.0</ele>
<speed>3.4</speed>
<course>146.8</course>
<desc>Speed 3.4 km/h Distance 5.53 km</desc>
<time>2010-02-27T11:08:34.63</time>
<name>3980</name>
</trkpt>
<trkpt lat="48.950638" lon="8.656717">
<ele>266.5</ele>
<speed>1.6</speed>
<course>137.4</course>
<desc>Speed 1.6 km/h Distance 5.53 km</desc>
<time>2010-02-27T11:08:35.63</time>
<name>3981</name>
</trkpt>
<trkpt lat="48.950630" lon="8.656728">
<ele>266.5</ele>
<speed>2.9</speed>
<course>130.2</course>
<desc>Speed 2.9 km/h Distance 5.53 km</desc>
<time>2010-02-27T11:08:36.63</time>
<name>3982</name>
</trkpt>
<trkpt lat="48.950622" lon="8.656743">
<ele>267.0</ele>
<speed>3.8</speed>
<course>122.4</course>
<desc>Speed 3.8 km/h Distance 5.54 km</desc>
<time>2010-02-27T11:08:37.63</time>
<name>3983</name>
</trkpt>
<trkpt lat="48.950613" lon="8.656763">
<ele>267.5</ele>
<speed>4.4</speed>
<course>125.1</course>
<desc>Speed 4.4 km/h Distance 5.54 km</desc>
<time>2010-02-27T11:08:38.63</time>
<name>3984</name>
</trkpt>
<trkpt lat="48.950603" lon="8.656785">
<ele>267.5</ele>
<speed>4.6</speed>
<course>127.3</course>
<desc>Speed 4.6 km/h Distance 5.54 km</desc>
<time>2010-02-27T11:08:39.63</time>
<name>3985</name>
</trkpt>
<trkpt lat="48.950595" lon="8.656802">
<ele>267.0</ele>
<speed>3.0</speed>
<course>141.9</course>
<desc>Speed 3.0 km/h Distance 5.54 km</desc>
<time>2010-02-27T11:08:40.63</time>
<name>3986</name>
</trkpt>
<trkpt lat="48.950587" lon="8.656812">
<ele>267.0</ele>
<speed>3.2</speed>
<course>137.5</course>
<desc>Speed 3.2 km/h Distance 5.54 km</desc>
<time>2010-02-27T11:08:41.63</time>
<name>3987</name>
</trkpt>
<trkpt lat="48.950578" lon="8.656823">
<ele>267.0</ele>
<speed>3.7</speed>
<course>141.9</course>
<desc>Speed 3.7 km/h Distance 5.54 km</desc>
<time>2010-02-27T11:08:42.63</time>
<name>3988</name>
</trkpt>
<trkpt lat="48.950570" lon="8.656833">
<ele>266.5</ele>
<speed>3.1</speed>
<course>141.6</course>
<desc>Speed 3.1 km/h Distance 5.54 km</desc>
<time>2010-02-27T11:08:43.63</time>
<name>3989</name>
</trkpt>
<trkpt lat="48.950562" lon="8.656843">
<ele>266.0</ele>
<speed>2.1</speed>
<course>130.2</course>
<desc>Speed 2.1 km/h Distance 5.55 km</desc>
<time>2010-02-27T11:08:44.63</time>
<name>3990</name>
</trkpt>
<trkpt lat="48.950553" lon="8.656858">
<ele>266.0</ele>
<speed>4.5</speed>
<course>138.8</course>
<desc>Speed 4.5 km/h Distance 5.55 km</desc>
<time>2010-02-27T11:08:45.63</time>
<name>3991</name>
</trkpt>
<trkpt lat="48.950543" lon="8.656872">
<ele>266.5</ele>
<speed>4.6</speed>
<course>127.3</course>
<desc>Speed 4.6 km/h Distance 5.55 km</desc>
<time>2010-02-27T11:08:46.63</time>
<name>3992</name>
</trkpt>
<trkpt lat="48.950537" lon="8.656885">
<ele>266.5</ele>
<speed>3.3</speed>
<course>131.6</course>
<desc>Speed 3.3 km/h Distance 5.55 km</desc>
<time>2010-02-27T11:08:47.63</time>
<name>3993</name>
</trkpt>
<trkpt lat="48.950525" lon="8.656905">
<ele>267.0</ele>
<speed>4.1</speed>
<course>146.8</course>
<desc>Speed 4.1 km/h Distance 5.55 km</desc>
<time>2010-02-27T11:08:48.63</time>
<name>3994</name>
</trkpt>
<trkpt lat="48.950512" lon="8.656918">
<ele>267.0</ele>
<speed>3.7</speed>
<course>146.8</course>
<desc>Speed 3.7 km/h Distance 5.55 km</desc>
<time>2010-02-27T11:08:49.63</time>
<name>3995</name>
</trkpt>
<trkpt lat="48.950503" lon="8.656927">
<ele>267.0</ele>
<speed>3.7</speed>
<course>141.9</course>
<desc>Speed 3.7 km/h Distance 5.55 km</desc>
<time>2010-02-27T11:08:50.63</time>
<name>3996</name>
</trkpt>
<trkpt lat="48.950495" lon="8.656937">
<ele>266.5</ele>
<speed>3.5</speed>
<course>130.3</course>
<desc>Speed 3.5 km/h Distance 5.56 km</desc>
<time>2010-02-27T11:08:51.63</time>
<name>3997</name>
</trkpt>
<trkpt lat="48.950487" lon="8.656952">
<ele>267.0</ele>
<speed>4.1</speed>
<course>152.1</course>
<desc>Speed 4.1 km/h Distance 5.56 km</desc>
<time>2010-02-27T11:08:52.63</time>
<name>3998</name>
</trkpt>
<trkpt lat="48.950478" lon="8.656958">
<ele>267.0</ele>
<speed>3.1</speed>
<course>233.9</course>
<desc>Speed 3.1 km/h Distance 5.56 km</desc>
<time>2010-02-27T11:08:53.63</time>
<name>3999</name>
</trkpt>
<trkpt lat="48.950477" lon="8.656955">
<ele>266.0</ele>
<speed>1.6</speed>
<course>139.1</course>
<desc>Speed 1.6 km/h Distance 5.56 km</desc>
<time>2010-02-27T11:08:54.63</time>
<name>4000</name>
</trkpt>
<trkpt lat="48.950472" lon="8.656962">
<ele>266.0</ele>
<speed>2.2</speed>
<course>146.8</course>
<desc>Speed 2.2 km/h Distance 5.56 km</desc>
<time>2010-02-27T11:08:55.63</time>
<name>4001</name>
</trkpt>
<trkpt lat="48.950463" lon="8.656970">
<ele>266.5</ele>
<speed>3.9</speed>
<course>123.1</course>
<desc>Speed 3.9 km/h Distance 5.56 km</desc>
<time>2010-02-27T11:08:56.63</time>
<name>4002</name>
</trkpt>
<trkpt lat="48.950453" lon="8.656993">
<ele>268.0</ele>
<speed>6.7</speed>
<course>140.1</course>
<desc>Speed 6.7 km/h Distance 5.56 km</desc>
<time>2010-02-27T11:08:57.63</time>
<name>4003</name>
</trkpt>
<trkpt lat="48.950435" lon="8.657017">
<ele>268.5</ele>
<speed>8.8</speed>
<course>132.4</course>
<desc>Speed 8.8 km/h Distance 5.57 km</desc>
<time>2010-02-27T11:08:58.63</time>
<name>4004</name>
</trkpt>
<trkpt lat="48.950425" lon="8.657033">
<ele>269.0</ele>
<speed>5.1</speed>
<course>163.7</course>
<desc>Speed 5.1 km/h Distance 5.57 km</desc>
<time>2010-02-27T11:08:59.63</time>
<name>4005</name>
</trkpt>
<trkpt lat="48.950410" lon="8.657040">
<ele>268.5</ele>
<speed>4.2</speed>
<course>117.0</course>
<desc>Speed 4.2 km/h Distance 5.57 km</desc>
<time>2010-02-27T11:09:00.63</time>
<name>4006</name>
</trkpt>
<trkpt lat="48.950407" lon="8.657050">
<ele>268.5</ele>
<speed>2.6</speed>
<course>178.8</course>
<desc>Speed 2.6 km/h Distance 5.57 km</desc>
<time>2010-02-27T11:09:01.63</time>
<name>4007</name>
</trkpt>
<trkpt lat="48.950400" lon="8.657050">
<ele>267.5</ele>
<speed>2.7</speed>
<course>161.2</course>
<desc>Speed 2.7 km/h Distance 5.57 km</desc>
<time>2010-02-27T11:09:02.63</time>
<name>4008</name>
</trkpt>
<trkpt lat="48.950393" lon="8.657053">
<ele>267.0</ele>
<speed>2.3</speed>
<course>137.4</course>
<desc>Speed 2.3 km/h Distance 5.57 km</desc>
<time>2010-02-27T11:09:03.63</time>
<name>4009</name>
</trkpt>
<trkpt lat="48.950385" lon="8.657065">
<ele>267.5</ele>
<speed>3.1</speed>
<course>137.4</course>
<desc>Speed 3.1 km/h Distance 5.57 km</desc>
<time>2010-02-27T11:09:04.63</time>
<name>4010</name>
</trkpt>
<trkpt lat="48.950377" lon="8.657077">
<ele>268.5</ele>
<speed>3.7</speed>
<course>164.5</course>
<desc>Speed 3.7 km/h Distance 5.57 km</desc>
<time>2010-02-27T11:09:05.63</time>
<name>4011</name>
</trkpt>
<trkpt lat="48.950365" lon="8.657082">
<ele>268.0</ele>
<speed>3.2</speed>
<course>165.1</course>
<desc>Speed 3.2 km/h Distance 5.57 km</desc>
<time>2010-02-27T11:09:06.63</time>
<name>4012</name>
</trkpt>
<trkpt lat="48.950357" lon="8.657085">
<ele>267.5</ele>
<speed>3.1</speed>
<course>172.6</course>
<desc>Speed 3.1 km/h Distance 5.58 km</desc>
<time>2010-02-27T11:09:07.63</time>
<name>4013</name>
</trkpt>
<trkpt lat="48.950350" lon="8.657087">
<ele>267.0</ele>
<speed>2.4</speed>
<course>158.5</course>
<desc>Speed 2.4 km/h Distance 5.58 km</desc>
<time>2010-02-27T11:09:08.63</time>
<name>4014</name>
</trkpt>
<trkpt lat="48.950342" lon="8.657092">
<ele>267.0</ele>
<speed>3.6</speed>
<course>146.7</course>
<desc>Speed 3.6 km/h Distance 5.58 km</desc>
<time>2010-02-27T11:09:09.63</time>
<name>4015</name>
</trkpt>
<trkpt lat="48.950328" lon="8.657105">
<ele>267.0</ele>
<speed>4.3</speed>
<course>168.8</course>
<desc>Speed 4.3 km/h Distance 5.58 km</desc>
<time>2010-02-27T11:09:10.63</time>
<name>4016</name>
</trkpt>
<trkpt lat="48.950312" lon="8.657110">
<ele>266.0</ele>
<speed>3.3</speed>
<course>156.3</course>
<desc>Speed 3.3 km/h Distance 5.58 km</desc>
<time>2010-02-27T11:09:11.63</time>
<name>4017</name>
</trkpt>
<trkpt lat="48.950297" lon="8.657120">
<ele>264.5</ele>
<speed>2.8</speed>
<course>132.4</course>
<desc>Speed 2.8 km/h Distance 5.58 km</desc>
<time>2010-02-27T11:09:12.63</time>
<name>4018</name>
</trkpt>
<trkpt lat="48.950282" lon="8.657145">
<ele>266.5</ele>
<speed>6.8</speed>
<course>169.6</course>
<desc>Speed 6.8 km/h Distance 5.59 km</desc>
<time>2010-02-27T11:09:13.63</time>
<name>4019</name>
</trkpt>
<trkpt lat="48.950270" lon="8.657148">
<ele>265.5</ele>
<speed>2.1</speed>
<course>166.2</course>
<desc>Speed 2.1 km/h Distance 5.59 km</desc>
<time>2010-02-27T11:09:14.63</time>
<name>4020</name>
</trkpt>
<trkpt lat="48.950262" lon="8.657152">
<ele>264.5</ele>
<speed>3.2</speed>
<course>180.0</course>
<desc>Speed 3.2 km/h Distance 5.59 km</desc>
<time>2010-02-27T11:09:15.63</time>
<name>4021</name>
</trkpt>
<trkpt lat="48.950257" lon="8.657152">
<ele>263.5</ele>
<speed>2.6</speed>
<course>143.4</course>
<desc>Speed 2.6 km/h Distance 5.59 km</desc>
<time>2010-02-27T11:09:16.63</time>
<name>4022</name>
</trkpt>
<trkpt lat="48.950243" lon="8.657167">
<ele>264.0</ele>
<speed>5.4</speed>
<course>138.8</course>
<desc>Speed 5.4 km/h Distance 5.59 km</desc>
<time>2010-02-27T11:09:17.63</time>
<name>4023</name>
</trkpt>
<trkpt lat="48.950233" lon="8.657180">
<ele>264.5</ele>
<speed>3.0</speed>
<course>184.7</course>
<desc>Speed 3.0 km/h Distance 5.59 km</desc>
<time>2010-02-27T11:09:18.63</time>
<name>4024</name>
</trkpt>
<trkpt lat="48.950222" lon="8.657178">
<ele>264.0</ele>
<speed>2.6</speed>
<course>146.8</course>
<desc>Speed 2.6 km/h Distance 5.59 km</desc>
<time>2010-02-27T11:09:19.63</time>
<name>4025</name>
</trkpt>
<trkpt lat="48.950208" lon="8.657192">
<ele>264.5</ele>
<speed>3.1</speed>
<course>159.4</course>
<desc>Speed 3.1 km/h Distance 5.59 km</desc>
<time>2010-02-27T11:09:20.63</time>
<name>4026</name>
</trkpt>
<trkpt lat="48.950197" lon="8.657198">
<ele>264.0</ele>
<speed>3.1</speed>
<course>171.2</course>
<desc>Speed 3.1 km/h Distance 5.60 km</desc>
<time>2010-02-27T11:09:21.63</time>
<name>4027</name>
</trkpt>
<trkpt lat="48.950182" lon="8.657202">
<ele>263.5</ele>
<speed>2.6</speed>
<course>205.4</course>
<desc>Speed 2.6 km/h Distance 5.60 km</desc>
<time>2010-02-27T11:09:22.63</time>
<name>4028</name>
</trkpt>
<trkpt lat="48.950177" lon="8.657198">
<ele>263.0</ele>
<speed>2.1</speed>
<course>158.5</course>
<desc>Speed 2.1 km/h Distance 5.60 km</desc>
<time>2010-02-27T11:09:23.63</time>
<name>4029</name>
</trkpt>
<trkpt lat="48.950160" lon="8.657208">
<ele>263.5</ele>
<speed>4.0</speed>
<course>196.0</course>
<desc>Speed 4.0 km/h Distance 5.60 km</desc>
<time>2010-02-27T11:09:24.63</time>
<name>4030</name>
</trkpt>
<trkpt lat="48.950148" lon="8.657203">
<ele>261.5</ele>
<speed>2.6</speed>
<course>198.1</course>
<desc>Speed 2.6 km/h Distance 5.60 km</desc>
<time>2010-02-27T11:09:25.63</time>
<name>4031</name>
</trkpt>
<trkpt lat="48.950135" lon="8.657197">
<ele>259.5</ele>
<speed>3.5</speed>
<course>213.2</course>
<desc>Speed 3.5 km/h Distance 5.60 km</desc>
<time>2010-02-27T11:09:26.63</time>
<name>4032</name>
</trkpt>
<trkpt lat="48.950127" lon="8.657188">
<ele>258.0</ele>
<speed>3.0</speed>
<course>198.2</course>
<desc>Speed 3.0 km/h Distance 5.60 km</desc>
<time>2010-02-27T11:09:27.63</time>
<name>4033</name>
</trkpt>
<trkpt lat="48.950117" lon="8.657183">
<ele>256.5</ele>
<speed>3.6</speed>
<course>153.8</course>
<desc>Speed 3.6 km/h Distance 5.61 km</desc>
<time>2010-02-27T11:09:28.63</time>
<name>4034</name>
</trkpt>
<trkpt lat="48.950103" lon="8.657193">
<ele>257.0</ele>
<speed>3.7</speed>
<course>156.2</course>
<desc>Speed 3.7 km/h Distance 5.61 km</desc>
<time>2010-02-27T11:09:29.63</time>
<name>4035</name>
</trkpt>
<trkpt lat="48.950093" lon="8.657200">
<ele>257.5</ele>
<speed>3.4</speed>
<course>167.4</course>
<desc>Speed 3.4 km/h Distance 5.61 km</desc>
<time>2010-02-27T11:09:30.63</time>
<name>4036</name>
</trkpt>
<trkpt lat="48.950083" lon="8.657203">
<ele>257.0</ele>
<speed>3.3</speed>
<course>164.5</course>
<desc>Speed 3.3 km/h Distance 5.61 km</desc>
<time>2010-02-27T11:09:31.63</time>
<name>4037</name>
</trkpt>
<trkpt lat="48.950072" lon="8.657208">
<ele>256.0</ele>
<speed>3.2</speed>
<course>141.5</course>
<desc>Speed 3.2 km/h Distance 5.61 km</desc>
<time>2010-02-27T11:09:32.63</time>
<name>4038</name>
</trkpt>
<trkpt lat="48.950040" lon="8.657247">
<ele>256.5</ele>
<speed>3.5</speed>
<course>118.9</course>
<desc>Speed 3.5 km/h Distance 5.62 km</desc>
<time>2010-02-27T11:09:34.63</time>
<name>4039</name>
</trkpt>
<trkpt lat="48.950033" lon="8.657265">
<ele>257.5</ele>
<speed>3.1</speed>
<course>143.7</course>
<desc>Speed 3.1 km/h Distance 5.62 km</desc>
<time>2010-02-27T11:09:35.63</time>
<name>4040</name>
</trkpt>
<trkpt lat="48.949992" lon="8.657312">
<ele>263.0</ele>
<speed>2.7</speed>
<course>150.6</course>
<desc>Speed 2.7 km/h Distance 5.62 km</desc>
<time>2010-02-27T11:09:37.63</time>
<name>4041</name>
</trkpt>
<trkpt lat="48.949980" lon="8.657322">
<ele>263.0</ele>
<speed>4.4</speed>
<course>152.1</course>
<desc>Speed 4.4 km/h Distance 5.62 km</desc>
<time>2010-02-27T11:09:38.63</time>
<name>4042</name>
</trkpt>
<trkpt lat="48.949972" lon="8.657328">
<ele>262.5</ele>
<speed>2.5</speed>
<course>166.4</course>
<desc>Speed 2.5 km/h Distance 5.63 km</desc>
<time>2010-02-27T11:09:39.63</time>
<name>4043</name>
</trkpt>
<trkpt lat="48.949953" lon="8.657335">
<ele>263.0</ele>
<speed>5.3</speed>
<course>141.7</course>
<desc>Speed 5.3 km/h Distance 5.63 km</desc>
<time>2010-02-27T11:09:40.63</time>
<name>4044</name>
</trkpt>
<trkpt lat="48.949937" lon="8.657355">
<ele>264.5</ele>
<speed>6.5</speed>
<course>133.6</course>
<desc>Speed 6.5 km/h Distance 5.63 km</desc>
<time>2010-02-27T11:09:41.63</time>
<name>4045</name>
</trkpt>
<trkpt lat="48.949928" lon="8.657368">
<ele>264.5</ele>
<speed>3.9</speed>
<course>172.3</course>
<desc>Speed 3.9 km/h Distance 5.63 km</desc>
<time>2010-02-27T11:09:42.63</time>
<name>4046</name>
</trkpt>
<trkpt lat="48.949920" lon="8.657370">
<ele>263.5</ele>
<speed>2.5</speed>
<course>132.4</course>
<desc>Speed 2.5 km/h Distance 5.63 km</desc>
<time>2010-02-27T11:09:43.63</time>
<name>4047</name>
</trkpt>
<trkpt lat="48.949910" lon="8.657387">
<ele>265.0</ele>
<speed>3.4</speed>
<course>129.1</course>
<desc>Speed 3.4 km/h Distance 5.63 km</desc>
<time>2010-02-27T11:09:44.63</time>
<name>4048</name>
</trkpt>
<trkpt lat="48.949897" lon="8.657412">
<ele>266.5</ele>
<speed>4.1</speed>
<course>137.4</course>
<desc>Speed 4.1 km/h Distance 5.64 km</desc>
<time>2010-02-27T11:09:45.63</time>
<name>4049</name>
</trkpt>
<trkpt lat="48.949880" lon="8.657435">
<ele>269.0</ele>
<speed>3.2</speed>
<course>131.0</course>
<desc>Speed 3.2 km/h Distance 5.64 km</desc>
<time>2010-02-27T11:09:46.63</time>
<name>4050</name>
</trkpt>
<trkpt lat="48.949853" lon="8.657482">
<ele>272.5</ele>
<speed>7.2</speed>
<course>127.3</course>
<desc>Speed 7.2 km/h Distance 5.64 km</desc>
<time>2010-02-27T11:09:48.63</time>
<name>4051</name>
</trkpt>
<trkpt lat="48.949840" lon="8.657508">
<ele>274.5</ele>
<speed>4.7</speed>
<course>134.4</course>
<desc>Speed 4.7 km/h Distance 5.65 km</desc>
<time>2010-02-27T11:09:49.63</time>
<name>4052</name>
</trkpt>
<trkpt lat="48.949825" lon="8.657532">
<ele>277.0</ele>
<speed>3.7</speed>
<course>139.8</course>
<desc>Speed 3.7 km/h Distance 5.65 km</desc>
<time>2010-02-27T11:09:50.63</time>
<name>4053</name>
</trkpt>
<trkpt lat="48.949802" lon="8.657562">
<ele>279.5</ele>
<speed>1.8</speed>
<course>150.2</course>
<desc>Speed 1.8 km/h Distance 5.65 km</desc>
<time>2010-02-27T11:09:52.63</time>
<name>4054</name>
</trkpt>
<trkpt lat="48.949788" lon="8.657573">
<ele>280.5</ele>
<speed>2.9</speed>
<course>236.0</course>
<desc>Speed 2.9 km/h Distance 5.65 km</desc>
<time>2010-02-27T11:09:53.63</time>
<name>4055</name>
</trkpt>
<trkpt lat="48.949782" lon="8.657558">
<ele>280.0</ele>
<speed>2.1</speed>
<course>229.9</course>
<desc>Speed 2.1 km/h Distance 5.65 km</desc>
<time>2010-02-27T11:09:54.63</time>
<name>4056</name>
</trkpt>
<trkpt lat="48.949773" lon="8.657543">
<ele>279.0</ele>
<speed>2.3</speed>
<course>245.5</course>
<desc>Speed 2.3 km/h Distance 5.66 km</desc>
<time>2010-02-27T11:09:55.63</time>
<name>4057</name>
</trkpt>
<trkpt lat="48.949768" lon="8.657527">
<ele>278.0</ele>
<speed>3.9</speed>
<course>186.6</course>
<desc>Speed 3.9 km/h Distance 5.66 km</desc>
<time>2010-02-27T11:09:56.63</time>
<name>4058</name>
</trkpt>
<trkpt lat="48.949758" lon="8.657525">
<ele>279.0</ele>
<speed>3.6</speed>
<course>190.4</course>
<desc>Speed 3.6 km/h Distance 5.66 km</desc>
<time>2010-02-27T11:09:57.63</time>
<name>4059</name>
</trkpt>
<trkpt lat="48.949747" lon="8.657522">
<ele>279.5</ele>
<speed>4.2</speed>
<course>220.9</course>
<desc>Speed 4.2 km/h Distance 5.66 km</desc>
<time>2010-02-27T11:09:58.63</time>
<name>4060</name>
</trkpt>
<trkpt lat="48.949742" lon="8.657515">
<ele>279.5</ele>
<speed>2.4</speed>
<course>207.9</course>
<desc>Speed 2.4 km/h Distance 5.66 km</desc>
<time>2010-02-27T11:09:59.63</time>
<name>4061</name>
</trkpt>
<trkpt lat="48.949733" lon="8.657508">
<ele>280.0</ele>
<speed>3.5</speed>
<course>228.7</course>
<desc>Speed 3.5 km/h Distance 5.66 km</desc>
<time>2010-02-27T11:10:00.63</time>
<name>4062</name>
</trkpt>
<trkpt lat="48.949727" lon="8.657497">
<ele>278.5</ele>
<speed>3.4</speed>
<course>207.5</course>
<desc>Speed 3.4 km/h Distance 5.66 km</desc>
<time>2010-02-27T11:10:01.63</time>
<name>4063</name>
</trkpt>
<trkpt lat="48.949718" lon="8.657490">
<ele>278.5</ele>
<speed>2.7</speed>
<course>180.0</course>
<desc>Speed 2.7 km/h Distance 5.66 km</desc>
<time>2010-02-27T11:10:02.63</time>
<name>4064</name>
</trkpt>
<trkpt lat="48.949710" lon="8.657490">
<ele>278.5</ele>
<speed>3.4</speed>
<course>305.4</course>
<desc>Speed 3.4 km/h Distance 5.66 km</desc>
<time>2010-02-27T11:10:03.63</time>
<name>4065</name>
</trkpt>
<trkpt lat="48.949722" lon="8.657465">
<ele>277.5</ele>
<speed>8.4</speed>
<course>198.1</course>
<desc>Speed 8.4 km/h Distance 5.67 km</desc>
<time>2010-02-27T11:10:04.63</time>
<name>4066</name>
</trkpt>
<trkpt lat="48.949705" lon="8.657457">
<ele>276.5</ele>
<speed>6.0</speed>
<course>203.8</course>
<desc>Speed 6.0 km/h Distance 5.67 km</desc>
<time>2010-02-27T11:10:05.63</time>
<name>4067</name>
</trkpt>
<trkpt lat="48.949700" lon="8.657453">
<ele>275.5</ele>
<speed>2.7</speed>
<course>184.7</course>
<desc>Speed 2.7 km/h Distance 5.67 km</desc>
<time>2010-02-27T11:10:06.63</time>
<name>4068</name>
</trkpt>
<trkpt lat="48.949688" lon="8.657452">
<ele>276.5</ele>
<speed>4.9</speed>
<course>157.8</course>
<desc>Speed 4.9 km/h Distance 5.67 km</desc>
<time>2010-02-27T11:10:07.63</time>
<name>4069</name>
</trkpt>
<trkpt lat="48.949683" lon="8.657455">
<ele>276.5</ele>
<speed>1.8</speed>
<course>132.2</course>
<desc>Speed 1.8 km/h Distance 5.67 km</desc>
<time>2010-02-27T11:10:08.63</time>
<name>4070</name>
</trkpt>
<trkpt lat="48.949678" lon="8.657463">
<ele>277.0</ele>
<speed>1.7</speed>
<course>164.6</course>
<desc>Speed 1.7 km/h Distance 5.67 km</desc>
<time>2010-02-27T11:10:09.63</time>
<name>4071</name>
</trkpt>
<trkpt lat="48.949627" lon="8.657485">
<ele>277.5</ele>
<speed>6.5</speed>
<course>198.2</course>
<desc>Speed 6.5 km/h Distance 5.68 km</desc>
<time>2010-02-27T11:10:11.63</time>
<name>4072</name>
</trkpt>
<trkpt lat="48.949617" lon="8.657480">
<ele>276.5</ele>
<speed>3.2</speed>
<course>299.7</course>
<desc>Speed 3.2 km/h Distance 5.68 km</desc>
<time>2010-02-27T11:10:12.63</time>
<name>4073</name>
</trkpt>
<trkpt lat="48.949622" lon="8.657467">
<ele>277.5</ele>
<speed>3.9</speed>
<course>155.3</course>
<desc>Speed 3.9 km/h Distance 5.68 km</desc>
<time>2010-02-27T11:10:13.63</time>
<name>4074</name>
</trkpt>
<trkpt lat="48.949588" lon="8.657490">
<ele>278.5</ele>
<speed>3.0</speed>
<course>175.6</course>
<desc>Speed 3.0 km/h Distance 5.68 km</desc>
<time>2010-02-27T11:10:15.63</time>
<name>4075</name>
</trkpt>
<trkpt lat="48.949578" lon="8.657492">
<ele>278.0</ele>
<speed>2.9</speed>
<course>161.8</course>
<desc>Speed 2.9 km/h Distance 5.69 km</desc>
<time>2010-02-27T11:10:16.63</time>
<name>4076</name>
</trkpt>
<trkpt lat="48.949568" lon="8.657497">
<ele>278.0</ele>
<speed>2.7</speed>
<course>174.7</course>
<desc>Speed 2.7 km/h Distance 5.69 km</desc>
<time>2010-02-27T11:10:17.63</time>
<name>4077</name>
</trkpt>
<trkpt lat="48.949555" lon="8.657498">
<ele>278.0</ele>
<speed>3.9</speed>
<course>200.9</course>
<desc>Speed 3.9 km/h Distance 5.69 km</desc>
<time>2010-02-27T11:10:18.63</time>
<name>4078</name>
</trkpt>
<trkpt lat="48.949543" lon="8.657492">
<ele>278.0</ele>
<speed>2.7</speed>
<course>171.9</course>
<desc>Speed 2.7 km/h Distance 5.69 km</desc>
<time>2010-02-27T11:10:19.63</time>
<name>4079</name>
</trkpt>
<trkpt lat="48.949533" lon="8.657493">
<ele>278.0</ele>
<speed>3.1</speed>
<course>180.0</course>
<desc>Speed 3.1 km/h Distance 5.69 km</desc>
<time>2010-02-27T11:10:20.63</time>
<name>4080</name>
</trkpt>
<trkpt lat="48.949522" lon="8.657493">
<ele>279.0</ele>
<speed>3.1</speed>
<course>175.3</course>
<desc>Speed 3.1 km/h Distance 5.69 km</desc>
<time>2010-02-27T11:10:21.63</time>
<name>4081</name>
</trkpt>
<trkpt lat="48.949510" lon="8.657495">
<ele>279.0</ele>
<speed>3.3</speed>
<course>175.6</course>
<desc>Speed 3.3 km/h Distance 5.69 km</desc>
<time>2010-02-27T11:10:22.63</time>
<name>4082</name>
</trkpt>
<trkpt lat="48.949500" lon="8.657497">
<ele>279.5</ele>
<speed>3.2</speed>
<course>143.2</course>
<desc>Speed 3.2 km/h Distance 5.69 km</desc>
<time>2010-02-27T11:10:23.63</time>
<name>4083</name>
</trkpt>
<trkpt lat="48.949488" lon="8.657510">
<ele>280.0</ele>
<speed>4.7</speed>
<course>194.9</course>
<desc>Speed 4.7 km/h Distance 5.70 km</desc>
<time>2010-02-27T11:10:24.63</time>
<name>4084</name>
</trkpt>
<trkpt lat="48.949477" lon="8.657505">
<ele>280.0</ele>
<speed>5.1</speed>
<course>193.4</course>
<desc>Speed 5.1 km/h Distance 5.70 km</desc>
<time>2010-02-27T11:10:25.63</time>
<name>4085</name>
</trkpt>
<trkpt lat="48.949467" lon="8.657502">
<ele>280.0</ele>
<speed>3.5</speed>
<course>195.5</course>
<desc>Speed 3.5 km/h Distance 5.70 km</desc>
<time>2010-02-27T11:10:26.63</time>
<name>4086</name>
</trkpt>
<trkpt lat="48.949455" lon="8.657497">
<ele>280.0</ele>
<speed>3.6</speed>
<course>188.1</course>
<desc>Speed 3.6 km/h Distance 5.70 km</desc>
<time>2010-02-27T11:10:27.63</time>
<name>4087</name>
</trkpt>
<trkpt lat="48.949440" lon="8.657493">
<ele>280.0</ele>
<speed>3.4</speed>
<course>198.8</course>
<desc>Speed 3.4 km/h Distance 5.70 km</desc>
<time>2010-02-27T11:10:28.63</time>
<name>4088</name>
</trkpt>
<trkpt lat="48.949427" lon="8.657487">
<ele>279.5</ele>
<speed>2.7</speed>
<course>203.7</course>
<desc>Speed 2.7 km/h Distance 5.70 km</desc>
<time>2010-02-27T11:10:29.63</time>
<name>4089</name>
</trkpt>
<trkpt lat="48.949412" lon="8.657477">
<ele>279.5</ele>
<speed>2.2</speed>
<course>213.3</course>
<desc>Speed 2.2 km/h Distance 5.70 km</desc>
<time>2010-02-27T11:10:30.63</time>
<name>4090</name>
</trkpt>
<trkpt lat="48.949400" lon="8.657465">
<ele>279.5</ele>
<speed>3.0</speed>
<course>205.5</course>
<desc>Speed 3.0 km/h Distance 5.71 km</desc>
<time>2010-02-27T11:10:31.63</time>
<name>4091</name>
</trkpt>
<trkpt lat="48.949382" lon="8.657452">
<ele>279.0</ele>
<speed>3.1</speed>
<course>158.5</course>
<desc>Speed 3.1 km/h Distance 5.71 km</desc>
<time>2010-02-27T11:10:32.63</time>
<name>4092</name>
</trkpt>
<trkpt lat="48.949373" lon="8.657457">
<ele>279.0</ele>
<speed>3.5</speed>
<course>158.5</course>
<desc>Speed 3.5 km/h Distance 5.71 km</desc>
<time>2010-02-27T11:10:33.63</time>
<name>4093</name>
</trkpt>
<trkpt lat="48.949365" lon="8.657462">
<ele>279.5</ele>
<speed>3.0</speed>
<course>152.1</course>
<desc>Speed 3.0 km/h Distance 5.71 km</desc>
<time>2010-02-27T11:10:34.63</time>
<name>4094</name>
</trkpt>
<trkpt lat="48.949357" lon="8.657468">
<ele>279.5</ele>
<speed>3.4</speed>
<course>122.9</course>
<desc>Speed 3.4 km/h Distance 5.71 km</desc>
<time>2010-02-27T11:10:35.63</time>
<name>4095</name>
</trkpt>
<trkpt lat="48.949352" lon="8.657480">
<ele>279.5</ele>
<speed>3.1</speed>
<course>196.0</course>
<desc>Speed 3.1 km/h Distance 5.71 km</desc>
<time>2010-02-27T11:10:36.63</time>
<name>4096</name>
</trkpt>
<trkpt lat="48.949340" lon="8.657475">
<ele>280.0</ele>
<speed>2.6</speed>
<course>198.1</course>
<desc>Speed 2.6 km/h Distance 5.71 km</desc>
<time>2010-02-27T11:10:37.63</time>
<name>4097</name>
</trkpt>
<trkpt lat="48.949327" lon="8.657468">
<ele>280.5</ele>
<speed>3.2</speed>
<course>206.1</course>
<desc>Speed 3.2 km/h Distance 5.72 km</desc>
<time>2010-02-27T11:10:38.63</time>
<name>4098</name>
</trkpt>
<trkpt lat="48.949307" lon="8.657453">
<ele>280.5</ele>
<speed>6.6</speed>
<course>135.5</course>
<desc>Speed 6.6 km/h Distance 5.72 km</desc>
<time>2010-02-27T11:10:39.63</time>
<name>4099</name>
</trkpt>
<trkpt lat="48.949297" lon="8.657468">
<ele>281.0</ele>
<speed>4.0</speed>
<course>208.1</course>
<desc>Speed 4.0 km/h Distance 5.72 km</desc>
<time>2010-02-27T11:10:40.63</time>
<name>4100</name>
</trkpt>
<trkpt lat="48.949252" lon="8.657432">
<ele>282.5</ele>
<speed>3.5</speed>
<course>190.6</course>
<desc>Speed 3.5 km/h Distance 5.73 km</desc>
<time>2010-02-27T11:10:42.63</time>
<name>4101</name>
</trkpt>
<trkpt lat="48.949205" lon="8.657418">
<ele>283.0</ele>
<speed>3.5</speed>
<course>173.5</course>
<desc>Speed 3.5 km/h Distance 5.73 km</desc>
<time>2010-02-27T11:10:44.63</time>
<name>4102</name>
</trkpt>
<trkpt lat="48.949187" lon="8.657422">
<ele>283.0</ele>
<speed>4.7</speed>
<course>192.3</course>
<desc>Speed 4.7 km/h Distance 5.73 km</desc>
<time>2010-02-27T11:10:45.63</time>
<name>4103</name>
</trkpt>
<trkpt lat="48.949167" lon="8.657415">
<ele>282.5</ele>
<speed>3.5</speed>
<course>184.4</course>
<desc>Speed 3.5 km/h Distance 5.73 km</desc>
<time>2010-02-27T11:10:46.63</time>
<name>4104</name>
</trkpt>
<trkpt lat="48.949137" lon="8.657412">
<ele>282.5</ele>
<speed>3.1</speed>
<course>137.4</course>
<desc>Speed 3.1 km/h Distance 5.74 km</desc>
<time>2010-02-27T11:10:48.63</time>
<name>4105</name>
</trkpt>
<trkpt lat="48.949128" lon="8.657423">
<ele>282.5</ele>
<speed>4.1</speed>
<course>151.4</course>
<desc>Speed 4.1 km/h Distance 5.74 km</desc>
<time>2010-02-27T11:10:49.63</time>
<name>4106</name>
</trkpt>
<trkpt lat="48.949118" lon="8.657432">
<ele>282.5</ele>
<speed>4.3</speed>
<course>155.1</course>
<desc>Speed 4.3 km/h Distance 5.74 km</desc>
<time>2010-02-27T11:10:50.63</time>
<name>4107</name>
</trkpt>
<trkpt lat="48.949107" lon="8.657440">
<ele>283.0</ele>
<speed>5.2</speed>
<course>187.5</course>
<desc>Speed 5.2 km/h Distance 5.74 km</desc>
<time>2010-02-27T11:10:51.63</time>
<name>4108</name>
</trkpt>
<trkpt lat="48.949092" lon="8.657437">
<ele>283.5</ele>
<speed>3.6</speed>
<course>186.6</course>
<desc>Speed 3.6 km/h Distance 5.74 km</desc>
<time>2010-02-27T11:10:52.63</time>
<name>4109</name>
</trkpt>
<trkpt lat="48.949072" lon="8.657433">
<ele>284.0</ele>
<speed>3.8</speed>
<course>180.0</course>
<desc>Speed 3.8 km/h Distance 5.75 km</desc>
<time>2010-02-27T11:10:53.63</time>
<name>4110</name>
</trkpt>
<trkpt lat="48.949057" lon="8.657433">
<ele>284.5</ele>
<speed>3.2</speed>
<course>181.2</course>
<desc>Speed 3.2 km/h Distance 5.75 km</desc>
<time>2010-02-27T11:10:54.63</time>
<name>4111</name>
</trkpt>
<trkpt lat="48.949043" lon="8.657432">
<ele>285.5</ele>
<speed>3.2</speed>
<course>170.5</course>
<desc>Speed 3.2 km/h Distance 5.75 km</desc>
<time>2010-02-27T11:10:55.63</time>
<name>4112</name>
</trkpt>
<trkpt lat="48.949032" lon="8.657435">
<ele>286.0</ele>
<speed>3.3</speed>
<course>156.2</course>
<desc>Speed 3.3 km/h Distance 5.75 km</desc>
<time>2010-02-27T11:10:56.63</time>
<name>4113</name>
</trkpt>
<trkpt lat="48.949022" lon="8.657442">
<ele>286.0</ele>
<speed>4.5</speed>
<course>162.4</course>
<desc>Speed 4.5 km/h Distance 5.75 km</desc>
<time>2010-02-27T11:10:57.63</time>
<name>4114</name>
</trkpt>
<trkpt lat="48.949012" lon="8.657447">
<ele>286.0</ele>
<speed>4.5</speed>
<course>146.8</course>
<desc>Speed 4.5 km/h Distance 5.75 km</desc>
<time>2010-02-27T11:10:58.63</time>
<name>4115</name>
</trkpt>
<trkpt lat="48.949002" lon="8.657457">
<ele>286.0</ele>
<speed>4.0</speed>
<course>155.2</course>
<desc>Speed 4.0 km/h Distance 5.75 km</desc>
<time>2010-02-27T11:10:59.63</time>
<name>4116</name>
</trkpt>
<trkpt lat="48.948995" lon="8.657462">
<ele>286.0</ele>
<speed>2.9</speed>
<course>156.2</course>
<desc>Speed 2.9 km/h Distance 5.76 km</desc>
<time>2010-02-27T11:11:00.63</time>
<name>4117</name>
</trkpt>
<trkpt lat="48.948985" lon="8.657468">
<ele>286.0</ele>
<speed>4.4</speed>
<course>146.8</course>
<desc>Speed 4.4 km/h Distance 5.76 km</desc>
<time>2010-02-27T11:11:01.63</time>
<name>4118</name>
</trkpt>
<trkpt lat="48.948977" lon="8.657477">
<ele>286.0</ele>
<speed>3.9</speed>
<course>165.1</course>
<desc>Speed 3.9 km/h Distance 5.76 km</desc>
<time>2010-02-27T11:11:02.63</time>
<name>4119</name>
</trkpt>
<trkpt lat="48.948968" lon="8.657480">
<ele>286.0</ele>
<speed>2.9</speed>
<course>151.4</course>
<desc>Speed 2.9 km/h Distance 5.76 km</desc>
<time>2010-02-27T11:11:03.63</time>
<name>4120</name>
</trkpt>
<trkpt lat="48.948958" lon="8.657488">
<ele>286.0</ele>
<speed>4.1</speed>
<course>156.2</course>
<desc>Speed 4.1 km/h Distance 5.76 km</desc>
<time>2010-02-27T11:11:04.63</time>
<name>4121</name>
</trkpt>
<trkpt lat="48.948948" lon="8.657495">
<ele>286.0</ele>
<speed>3.5</speed>
<course>173.4</course>
<desc>Speed 3.5 km/h Distance 5.76 km</desc>
<time>2010-02-27T11:11:05.63</time>
<name>4122</name>
</trkpt>
<trkpt lat="48.948938" lon="8.657497">
<ele>286.0</ele>
<speed>2.8</speed>
<course>151.4</course>
<desc>Speed 2.8 km/h Distance 5.76 km</desc>
<time>2010-02-27T11:11:06.63</time>
<name>4123</name>
</trkpt>
<trkpt lat="48.948928" lon="8.657505">
<ele>286.0</ele>
<speed>3.6</speed>
<course>160.1</course>
<desc>Speed 3.6 km/h Distance 5.76 km</desc>
<time>2010-02-27T11:11:07.63</time>
<name>4124</name>
</trkpt>
<trkpt lat="48.948913" lon="8.657513">
<ele>286.0</ele>
<speed>4.1</speed>
<course>173.4</course>
<desc>Speed 4.1 km/h Distance 5.77 km</desc>
<time>2010-02-27T11:11:08.63</time>
<name>4125</name>
</trkpt>
<trkpt lat="48.948903" lon="8.657515">
<ele>286.0</ele>
<speed>3.5</speed>
<course>175.6</course>
<desc>Speed 3.5 km/h Distance 5.77 km</desc>
<time>2010-02-27T11:11:09.63</time>
<name>4126</name>
</trkpt>
<trkpt lat="48.948893" lon="8.657517">
<ele>285.5</ele>
<speed>3.2</speed>
<course>172.9</course>
<desc>Speed 3.2 km/h Distance 5.77 km</desc>
<time>2010-02-27T11:11:10.63</time>
<name>4127</name>
</trkpt>
<trkpt lat="48.948877" lon="8.657520">
<ele>285.5</ele>
<speed>5.7</speed>
<course>146.7</course>
<desc>Speed 5.7 km/h Distance 5.77 km</desc>
<time>2010-02-27T11:11:11.63</time>
<name>4128</name>
</trkpt>
<trkpt lat="48.948862" lon="8.657535">
<ele>285.5</ele>
<speed>6.6</speed>
<course>158.5</course>
<desc>Speed 6.6 km/h Distance 5.77 km</desc>
<time>2010-02-27T11:11:12.63</time>
<name>4129</name>
</trkpt>
<trkpt lat="48.948853" lon="8.657540">
<ele>286.0</ele>
<speed>2.9</speed>
<course>326.7</course>
<desc>Speed 2.9 km/h Distance 5.77 km</desc>
<time>2010-02-27T11:11:13.63</time>
<name>4130</name>
</trkpt>
<trkpt lat="48.948868" lon="8.657525">
<ele>286.0</ele>
<speed>7.3</speed>
<course>90.0</course>
<desc>Speed 7.3 km/h Distance 5.77 km</desc>
<time>2010-02-27T11:11:14.63</time>
<name>4131</name>
</trkpt>
<trkpt lat="48.948868" lon="8.657527">
<ele>286.0</ele>
<speed>0.5</speed>
<course>161.2</course>
<desc>Speed 0.5 km/h Distance 5.77 km</desc>
<time>2010-02-27T11:11:15.67</time>
<name>4132</name>
</trkpt>
<trkpt lat="48.948862" lon="8.657530">
<ele>286.0</ele>
<speed>2.4</speed>
<course>140.6</course>
<desc>Speed 2.4 km/h Distance 5.78 km</desc>
<time>2010-02-27T11:11:16.86</time>
<name>4133</name>
</trkpt>
<trkpt lat="48.948855" lon="8.657538">
<ele>286.5</ele>
<speed>2.3</speed>
<course>156.6</course>
<desc>Speed 2.3 km/h Distance 5.78 km</desc>
<time>2010-02-27T11:11:17.65</time>
<name>4134</name>
</trkpt>
<trkpt lat="48.948713" lon="8.657632">
<ele>290.5</ele>
<speed>3.6</speed>
<course>253.1</course>
<desc>Speed 3.6 km/h Distance 5.78 km</desc>
<time>2010-02-27T11:11:18.94</time>
<name>4135</name>
</trkpt>
<trkpt lat="48.948710" lon="8.657615">
<ele>291.0</ele>
<speed>0.9</speed>
<course>299.7</course>
<desc>Speed 0.9 km/h Distance 5.78 km</desc>
<time>2010-02-27T11:11:19.81</time>
<name>4136</name>
</trkpt>
<trkpt lat="48.948715" lon="8.657602">
<ele>291.0</ele>
<speed>5.1</speed>
<course>250.7</course>
<desc>Speed 5.1 km/h Distance 5.78 km</desc>
<time>2010-02-27T11:11:20.81</time>
<name>4137</name>
</trkpt>
<trkpt lat="48.948710" lon="8.657580">
<ele>291.5</ele>
<speed>7.5</speed>
<course>319.9</course>
<desc>Speed 7.5 km/h Distance 5.78 km</desc>
<time>2010-02-27T11:11:21.81</time>
<name>4138</name>
</trkpt>
<trkpt lat="48.948833" lon="8.657422">
<ele>292.0</ele>
<speed>5.0</speed>
<course>167.4</course>
<desc>Speed 5.0 km/h Distance 5.80 km</desc>
<time>2010-02-27T11:11:24.81</time>
<name>4139</name>
</trkpt>
<trkpt lat="48.948830" lon="8.657423">
<ele>292.0</ele>
<speed>3.4</speed>
<course>243.0</course>
<desc>Speed 3.4 km/h Distance 5.80 km</desc>
<time>2010-02-27T11:11:25.81</time>
<name>4140</name>
</trkpt>
<trkpt lat="48.948827" lon="8.657413">
<ele>292.5</ele>
<speed>2.8</speed>
<course>201.5</course>
<desc>Speed 2.8 km/h Distance 5.80 km</desc>
<time>2010-02-27T11:11:27.06</time>
<name>4141</name>
</trkpt>
<trkpt lat="48.948818" lon="8.657408">
<ele>293.0</ele>
<speed>3.1</speed>
<course>236.9</course>
<desc>Speed 3.1 km/h Distance 5.80 km</desc>
<time>2010-02-27T11:11:27.82</time>
<name>4142</name>
</trkpt>
<trkpt lat="48.948813" lon="8.657397">
<ele>293.0</ele>
<speed>2.4</speed>
<course>160.7</course>
<desc>Speed 2.4 km/h Distance 5.80 km</desc>
<time>2010-02-27T11:11:28.82</time>
<name>4143</name>
</trkpt>
<trkpt lat="48.948785" lon="8.657412">
<ele>293.5</ele>
<speed>4.7</speed>
<course>33.7</course>
<desc>Speed 4.7 km/h Distance 5.80 km</desc>
<time>2010-02-27T11:11:30.03</time>
<name>4144</name>
</trkpt>
<trkpt lat="48.948788" lon="8.657415">
<ele>293.5</ele>
<speed>2.2</speed>
<course>279.1</course>
<desc>Speed 2.2 km/h Distance 5.81 km</desc>
<time>2010-02-27T11:11:30.82</time>
<name>4145</name>
</trkpt>
<trkpt lat="48.948792" lon="8.657383">
<ele>293.5</ele>
<speed>8.4</speed>
<course>226.8</course>
<desc>Speed 8.4 km/h Distance 5.81 km</desc>
<time>2010-02-27T11:11:31.82</time>
<name>4146</name>
</trkpt>
<trkpt lat="48.948778" lon="8.657362">
<ele>293.5</ele>
<speed>8.9</speed>
<course>288.1</course>
<desc>Speed 8.9 km/h Distance 5.81 km</desc>
<time>2010-02-27T11:11:32.82</time>
<name>4147</name>
</trkpt>
<trkpt lat="48.948783" lon="8.657338">
<ele>294.0</ele>
<speed>10.8</speed>
<course>205.2</course>
<desc>Speed 10.8 km/h Distance 5.81 km</desc>
<time>2010-02-27T11:11:33.82</time>
<name>4148</name>
</trkpt>
<trkpt lat="48.948772" lon="8.657330">
<ele>294.5</ele>
<speed>6.4</speed>
<course>278.7</course>
<desc>Speed 6.4 km/h Distance 5.81 km</desc>
<time>2010-02-27T11:11:36.09</time>
<name>4149</name>
</trkpt>
<trkpt lat="48.948773" lon="8.657313">
<ele>294.0</ele>
<speed>2.4</speed>
<course>243.0</course>
<desc>Speed 2.4 km/h Distance 5.81 km</desc>
<time>2010-02-27T11:11:36.92</time>
<name>4150</name>
</trkpt>
<trkpt lat="48.948770" lon="8.657303">
<ele>294.5</ele>
<speed>1.5</speed>
<course>270.0</course>
<desc>Speed 1.5 km/h Distance 5.81 km</desc>
<time>2010-02-27T11:11:37.92</time>
<name>4151</name>
</trkpt>
<trkpt lat="48.948770" lon="8.657293">
<ele>293.5</ele>
<speed>1.3</speed>
<course>217.4</course>
<desc>Speed 1.3 km/h Distance 5.82 km</desc>
<time>2010-02-27T11:11:38.92</time>
<name>4152</name>
</trkpt>
<trkpt lat="48.948750" lon="8.657270">
<ele>294.0</ele>
<speed>2.8</speed>
<course>294.5</course>
<desc>Speed 2.8 km/h Distance 5.82 km</desc>
<time>2010-02-27T11:11:41.17</time>
<name>4153</name>
</trkpt>
<trkpt lat="48.948755" lon="8.657253">
<ele>294.0</ele>
<speed>2.9</speed>
<course>298.1</course>
<desc>Speed 2.9 km/h Distance 5.82 km</desc>
<time>2010-02-27T11:11:42.00</time>
<name>4154</name>
</trkpt>
<trkpt lat="48.948767" lon="8.657220">
<ele>294.0</ele>
<speed>7.5</speed>
<course>256.8</course>
<desc>Speed 7.5 km/h Distance 5.82 km</desc>
<time>2010-02-27T11:11:43.00</time>
<name>4155</name>
</trkpt>
<trkpt lat="48.948763" lon="8.657198">
<ele>294.0</ele>
<speed>1.8</speed>
<course>264.2</course>
<desc>Speed 1.8 km/h Distance 5.82 km</desc>
<time>2010-02-27T11:11:44.00</time>
<name>4156</name>
</trkpt>
<trkpt lat="48.948762" lon="8.657173">
<ele>293.5</ele>
<speed>2.5</speed>
<course>307.0</course>
<desc>Speed 2.5 km/h Distance 5.83 km</desc>
<time>2010-02-27T11:11:45.49</time>
<name>4157</name>
</trkpt>
<trkpt lat="48.948765" lon="8.657167">
<ele>294.0</ele>
<speed>0.3</speed>
<course>307.0</course>
<desc>Speed 0.3 km/h Distance 5.83 km</desc>
<time>2010-02-27T11:11:46.65</time>
<name>4158</name>
</trkpt>
<trkpt lat="48.948765" lon="8.657167">
<ele>294.0</ele>
<speed>0.3</speed>
<course>168.5</course>
<desc>Speed 0.3 km/h Distance 5.83 km</desc>
<time>2010-02-27T11:11:47.09</time>
<name>4159</name>
</trkpt>
<trkpt lat="48.948642" lon="8.657205">
<ele>294.5</ele>
<speed>1.0</speed>
<course>322.5</course>
<desc>Speed 1.0 km/h Distance 5.84 km</desc>
<time>2010-02-27T11:11:50.49</time>
<name>4160</name>
</trkpt>
<trkpt lat="48.948662" lon="8.657182">
<ele>294.5</ele>
<speed>2.4</speed>
<course>304.9</course>
<desc>Speed 2.4 km/h Distance 5.84 km</desc>
<time>2010-02-27T11:11:51.63</time>
<name>4161</name>
</trkpt>
<trkpt lat="48.948707" lon="8.657083">
<ele>295.5</ele>
<speed>2.3</speed>
<course>283.5</course>
<desc>Speed 2.3 km/h Distance 5.85 km</desc>
<time>2010-02-27T11:11:54.48</time>
<name>4162</name>
</trkpt>
<trkpt lat="48.948712" lon="8.657052">
<ele>295.5</ele>
<speed>3.7</speed>
<course>285.0</course>
<desc>Speed 3.7 km/h Distance 5.85 km</desc>
<time>2010-02-27T11:11:55.48</time>
<name>4163</name>
</trkpt>
<trkpt lat="48.948717" lon="8.657023">
<ele>295.5</ele>
<speed>4.8</speed>
<course>270.0</course>
<desc>Speed 4.8 km/h Distance 5.86 km</desc>
<time>2010-02-27T11:11:56.48</time>
<name>4164</name>
</trkpt>
<trkpt lat="48.948717" lon="8.657013">
<ele>295.5</ele>
<speed>5.2</speed>
<course>240.3</course>
<desc>Speed 5.2 km/h Distance 5.86 km</desc>
<time>2010-02-27T11:11:57.47</time>
<name>4165</name>
</trkpt>
<trkpt lat="48.948712" lon="8.657000">
<ele>295.5</ele>
<speed>2.5</speed>
<course>169.2</course>
<desc>Speed 2.5 km/h Distance 5.86 km</desc>
<time>2010-02-27T11:11:58.47</time>
<name>4166</name>
</trkpt>
<trkpt lat="48.948688" lon="8.657007">
<ele>296.0</ele>
<speed>3.4</speed>
<course>165.7</course>
<desc>Speed 3.4 km/h Distance 5.86 km</desc>
<time>2010-02-27T11:11:59.47</time>
<name>4167</name>
</trkpt>
<trkpt lat="48.948667" lon="8.657015">
<ele>296.5</ele>
<speed>2.3</speed>
<course>303.1</course>
<desc>Speed 2.3 km/h Distance 5.86 km</desc>
<time>2010-02-27T11:12:00.47</time>
<name>4168</name>
</trkpt>
<trkpt lat="48.948672" lon="8.657003">
<ele>297.0</ele>
<speed>1.5</speed>
<course>286.9</course>
<desc>Speed 1.5 km/h Distance 5.86 km</desc>
<time>2010-02-27T11:12:01.47</time>
<name>4169</name>
</trkpt>
<trkpt lat="48.948673" lon="8.656995">
<ele>297.5</ele>
<speed>2.4</speed>
<course>164.0</course>
<desc>Speed 2.4 km/h Distance 5.87 km</desc>
<time>2010-02-27T11:12:02.47</time>
<name>4170</name>
</trkpt>
<trkpt lat="48.948658" lon="8.657002">
<ele>297.5</ele>
<speed>5.8</speed>
<course>175.0</course>
<desc>Speed 5.8 km/h Distance 5.87 km</desc>
<time>2010-02-27T11:12:03.47</time>
<name>4171</name>
</trkpt>
<trkpt lat="48.948650" lon="8.657003">
<ele>296.5</ele>
<speed>2.0</speed>
<course>254.1</course>
<desc>Speed 2.0 km/h Distance 5.87 km</desc>
<time>2010-02-27T11:12:04.46</time>
<name>4172</name>
</trkpt>
<trkpt lat="48.948645" lon="8.656977">
<ele>297.0</ele>
<speed>6.3</speed>
<course>270.0</course>
<desc>Speed 6.3 km/h Distance 5.87 km</desc>
<time>2010-02-27T11:12:05.47</time>
<name>4173</name>
</trkpt>
<trkpt lat="48.948645" lon="8.656957">
<ele>297.5</ele>
<speed>3.7</speed>
<course>270.0</course>
<desc>Speed 3.7 km/h Distance 5.87 km</desc>
<time>2010-02-27T11:12:06.47</time>
<name>4174</name>
</trkpt>
<trkpt lat="48.948645" lon="8.656932">
<ele>298.0</ele>
<speed>3.6</speed>
<course>239.6</course>
<desc>Speed 3.6 km/h Distance 5.87 km</desc>
<time>2010-02-27T11:12:07.47</time>
<name>4175</name>
</trkpt>
<trkpt lat="48.948620" lon="8.656867">
<ele>298.5</ele>
<speed>4.5</speed>
<course>314.4</course>
<desc>Speed 4.5 km/h Distance 5.88 km</desc>
<time>2010-02-27T11:12:09.46</time>
<name>4176</name>
</trkpt>
<trkpt lat="48.948683" lon="8.656768">
<ele>299.5</ele>
<speed>3.3</speed>
<course>270.0</course>
<desc>Speed 3.3 km/h Distance 5.89 km</desc>
<time>2010-02-27T11:12:11.46</time>
<name>4177</name>
</trkpt>
<trkpt lat="48.948683" lon="8.656760">
<ele>300.0</ele>
<speed>2.7</speed>
<course>302.9</course>
<desc>Speed 2.7 km/h Distance 5.89 km</desc>
<time>2010-02-27T11:12:12.45</time>
<name>4178</name>
</trkpt>
<trkpt lat="48.948688" lon="8.656748">
<ele>300.0</ele>
<speed>2.2</speed>
<course>287.3</course>
<desc>Speed 2.2 km/h Distance 5.89 km</desc>
<time>2010-02-27T11:12:13.46</time>
<name>4179</name>
</trkpt>
<trkpt lat="48.948702" lon="8.656683">
<ele>301.0</ele>
<speed>4.4</speed>
<course>301.4</course>
<desc>Speed 4.4 km/h Distance 5.90 km</desc>
<time>2010-02-27T11:12:15.46</time>
<name>4180</name>
</trkpt>
<trkpt lat="48.948705" lon="8.656675">
<ele>301.5</ele>
<speed>3.2</speed>
<course>180.0</course>
<desc>Speed 3.2 km/h Distance 5.90 km</desc>
<time>2010-02-27T11:12:16.45</time>
<name>4181</name>
</trkpt>
<trkpt lat="48.948700" lon="8.656675">
<ele>301.5</ele>
<speed>2.0</speed>
<course>282.3</course>
<desc>Speed 2.0 km/h Distance 5.90 km</desc>
<time>2010-02-27T11:12:17.45</time>
<name>4182</name>
</trkpt>
<trkpt lat="48.948702" lon="8.656663">
<ele>301.5</ele>
<speed>2.5</speed>
<course>272.7</course>
<desc>Speed 2.5 km/h Distance 5.90 km</desc>
<time>2010-02-27T11:12:18.45</time>
<name>4183</name>
</trkpt>
<trkpt lat="48.948703" lon="8.656610">
<ele>302.5</ele>
<speed>5.3</speed>
<course>293.5</course>
<desc>Speed 5.3 km/h Distance 5.90 km</desc>
<time>2010-02-27T11:12:20.45</time>
<name>4184</name>
</trkpt>
<trkpt lat="48.948710" lon="8.656587">
<ele>303.5</ele>
<speed>3.1</speed>
<course>260.4</course>
<desc>Speed 3.1 km/h Distance 5.90 km</desc>
<time>2010-02-27T11:12:21.45</time>
<name>4185</name>
</trkpt>
<trkpt lat="48.948708" lon="8.656572">
<ele>303.5</ele>
<speed>3.1</speed>
<course>245.5</course>
<desc>Speed 3.1 km/h Distance 5.90 km</desc>
<time>2010-02-27T11:12:22.44</time>
<name>4186</name>
</trkpt>
<trkpt lat="48.948703" lon="8.656555">
<ele>304.5</ele>
<speed>3.6</speed>
<course>136.7</course>
<desc>Speed 3.6 km/h Distance 5.91 km</desc>
<time>2010-02-27T11:12:23.45</time>
<name>4187</name>
</trkpt>
<trkpt lat="48.948692" lon="8.656572">
<ele>303.0</ele>
<speed>4.7</speed>
<course>296.9</course>
<desc>Speed 4.7 km/h Distance 5.91 km</desc>
<time>2010-02-27T11:12:24.45</time>
<name>4188</name>
</trkpt>
<trkpt lat="48.948697" lon="8.656557">
<ele>303.5</ele>
<speed>3.7</speed>
<course>293.5</course>
<desc>Speed 3.7 km/h Distance 5.91 km</desc>
<time>2010-02-27T11:12:25.44</time>
<name>4189</name>
</trkpt>
<trkpt lat="48.948700" lon="8.656545">
<ele>304.0</ele>
<speed>3.7</speed>
<course>65.4</course>
<desc>Speed 3.7 km/h Distance 5.91 km</desc>
<time>2010-02-27T11:12:26.44</time>
<name>4190</name>
</trkpt>
<trkpt lat="48.948705" lon="8.656562">
<ele>304.5</ele>
<speed>6.4</speed>
<course>321.4</course>
<desc>Speed 6.4 km/h Distance 5.91 km</desc>
<time>2010-02-27T11:12:27.45</time>
<name>4191</name>
</trkpt>
<trkpt lat="48.948728" lon="8.656533">
<ele>305.5</ele>
<speed>8.2</speed>
<course>338.4</course>
<desc>Speed 8.2 km/h Distance 5.91 km</desc>
<time>2010-02-27T11:12:28.44</time>
<name>4192</name>
</trkpt>
<trkpt lat="48.948745" lon="8.656523">
<ele>306.0</ele>
<speed>3.3</speed>
<course>12.6</course>
<desc>Speed 3.3 km/h Distance 5.92 km</desc>
<time>2010-02-27T11:12:29.44</time>
<name>4193</name>
</trkpt>
<trkpt lat="48.948750" lon="8.656525">
<ele>307.0</ele>
<speed>2.8</speed>
<course>318.6</course>
<desc>Speed 2.8 km/h Distance 5.92 km</desc>
<time>2010-02-27T11:12:30.44</time>
<name>4194</name>
</trkpt>
<trkpt lat="48.948755" lon="8.656518">
<ele>307.5</ele>
<speed>3.2</speed>
<course>288.1</course>
<desc>Speed 3.2 km/h Distance 5.92 km</desc>
<time>2010-02-27T11:12:31.44</time>
<name>4195</name>
</trkpt>
<trkpt lat="48.948760" lon="8.656495">
<ele>307.5</ele>
<speed>5.4</speed>
<course>159.9</course>
<desc>Speed 5.4 km/h Distance 5.92 km</desc>
<time>2010-02-27T11:12:32.44</time>
<name>4196</name>
</trkpt>
<trkpt lat="48.948745" lon="8.656503">
<ele>308.0</ele>
<speed>6.2</speed>
<course>301.4</course>
<desc>Speed 6.2 km/h Distance 5.92 km</desc>
<time>2010-02-27T11:12:33.47</time>
<name>4197</name>
</trkpt>
<trkpt lat="48.948755" lon="8.656478">
<ele>308.5</ele>
<speed>6.3</speed>
<course>290.9</course>
<desc>Speed 6.3 km/h Distance 5.92 km</desc>
<time>2010-02-27T11:12:34.44</time>
<name>4198</name>
</trkpt>
<trkpt lat="48.948757" lon="8.656472">
<ele>308.5</ele>
<speed>2.1</speed>
<course>270.0</course>
<desc>Speed 2.1 km/h Distance 5.92 km</desc>
<time>2010-02-27T11:12:35.43</time>
<name>4199</name>
</trkpt>
<trkpt lat="48.948757" lon="8.656470">
<ele>308.5</ele>
<speed>1.4</speed>
<course>301.4</course>
<desc>Speed 1.4 km/h Distance 5.92 km</desc>
<time>2010-02-27T11:12:36.43</time>
<name>4200</name>
</trkpt>
<trkpt lat="48.948760" lon="8.656462">
<ele>309.0</ele>
<speed>2.6</speed>
<course>257.1</course>
<desc>Speed 2.6 km/h Distance 5.92 km</desc>
<time>2010-02-27T11:12:37.44</time>
<name>4201</name>
</trkpt>
<trkpt lat="48.948755" lon="8.656428">
<ele>309.0</ele>
<speed>9.1</speed>
<course>311.9</course>
<desc>Speed 9.1 km/h Distance 5.93 km</desc>
<time>2010-02-27T11:12:38.44</time>
<name>4202</name>
</trkpt>
<trkpt lat="48.948772" lon="8.656400">
<ele>309.0</ele>
<speed>9.5</speed>
<course>286.9</course>
<desc>Speed 9.5 km/h Distance 5.93 km</desc>
<time>2010-02-27T11:12:39.43</time>
<name>4203</name>
</trkpt>
<trkpt lat="48.948775" lon="8.656383">
<ele>309.5</ele>
<speed>4.1</speed>
<course>270.0</course>
<desc>Speed 4.1 km/h Distance 5.93 km</desc>
<time>2010-02-27T11:12:40.43</time>
<name>4204</name>
</trkpt>
<trkpt lat="48.948775" lon="8.656368">
<ele>309.5</ele>
<speed>3.5</speed>
<course>270.0</course>
<desc>Speed 3.5 km/h Distance 5.93 km</desc>
<time>2010-02-27T11:12:41.43</time>
<name>4205</name>
</trkpt>
<trkpt lat="48.948775" lon="8.656353">
<ele>310.0</ele>
<speed>3.4</speed>
<course>285.5</course>
<desc>Speed 3.4 km/h Distance 5.93 km</desc>
<time>2010-02-27T11:12:42.43</time>
<name>4206</name>
</trkpt>
<trkpt lat="48.948778" lon="8.656335">
<ele>310.0</ele>
<speed>3.2</speed>
<course>270.0</course>
<desc>Speed 3.2 km/h Distance 5.93 km</desc>
<time>2010-02-27T11:12:43.43</time>
<name>4207</name>
</trkpt>
<trkpt lat="48.948778" lon="8.656313">
<ele>310.5</ele>
<speed>3.6</speed>
<course>270.0</course>
<desc>Speed 3.6 km/h Distance 5.94 km</desc>
<time>2010-02-27T11:12:44.43</time>
<name>4208</name>
</trkpt>
<trkpt lat="48.948778" lon="8.656298">
<ele>310.5</ele>
<speed>2.5</speed>
<course>270.0</course>
<desc>Speed 2.5 km/h Distance 5.94 km</desc>
<time>2010-02-27T11:12:45.43</time>
<name>4209</name>
</trkpt>
<trkpt lat="48.948778" lon="8.656280">
<ele>311.0</ele>
<speed>3.4</speed>
<course>262.8</course>
<desc>Speed 3.4 km/h Distance 5.94 km</desc>
<time>2010-02-27T11:12:46.43</time>
<name>4210</name>
</trkpt>
<trkpt lat="48.948777" lon="8.656260">
<ele>311.0</ele>
<speed>2.3</speed>
<course>286.9</course>
<desc>Speed 2.3 km/h Distance 5.94 km</desc>
<time>2010-02-27T11:12:47.43</time>
<name>4211</name>
</trkpt>
<trkpt lat="48.948780" lon="8.656243">
<ele>311.5</ele>
<speed>3.5</speed>
<course>286.9</course>
<desc>Speed 3.5 km/h Distance 5.94 km</desc>
<time>2010-02-27T11:12:48.43</time>
<name>4212</name>
</trkpt>
<trkpt lat="48.948783" lon="8.656227">
<ele>311.5</ele>
<speed>3.5</speed>
<course>315.5</course>
<desc>Speed 3.5 km/h Distance 5.94 km</desc>
<time>2010-02-27T11:12:49.43</time>
<name>4213</name>
</trkpt>
<trkpt lat="48.948790" lon="8.656217">
<ele>311.5</ele>
<speed>3.9</speed>
<course>304.1</course>
<desc>Speed 3.9 km/h Distance 5.94 km</desc>
<time>2010-02-27T11:12:50.45</time>
<name>4214</name>
</trkpt>
<trkpt lat="48.948797" lon="8.656202">
<ele>311.5</ele>
<speed>3.4</speed>
<course>301.4</course>
<desc>Speed 3.4 km/h Distance 5.95 km</desc>
<time>2010-02-27T11:12:51.43</time>
<name>4215</name>
</trkpt>
<trkpt lat="48.948803" lon="8.656185">
<ele>311.5</ele>
<speed>4.0</speed>
<course>288.7</course>
<desc>Speed 4.0 km/h Distance 5.95 km</desc>
<time>2010-02-27T11:12:52.43</time>
<name>4216</name>
</trkpt>
<trkpt lat="48.948807" lon="8.656170">
<ele>312.0</ele>
<speed>3.7</speed>
<course>282.3</course>
<desc>Speed 3.7 km/h Distance 5.95 km</desc>
<time>2010-02-27T11:12:53.43</time>
<name>4217</name>
</trkpt>
<trkpt lat="48.948808" lon="8.656158">
<ele>312.5</ele>
<speed>3.6</speed>
<course>290.8</course>
<desc>Speed 3.6 km/h Distance 5.95 km</desc>
<time>2010-02-27T11:12:54.42</time>
<name>4218</name>
</trkpt>
<trkpt lat="48.948812" lon="8.656145">
<ele>312.5</ele>
<speed>2.7</speed>
<course>307.0</course>
<desc>Speed 2.7 km/h Distance 5.95 km</desc>
<time>2010-02-27T11:12:55.42</time>
<name>4219</name>
</trkpt>
<trkpt lat="48.948815" lon="8.656138">
<ele>313.0</ele>
<speed>0.9</speed>
<course>319.1</course>
<desc>Speed 0.9 km/h Distance 5.95 km</desc>
<time>2010-02-27T11:12:56.43</time>
<name>4220</name>
</trkpt>
<trkpt lat="48.948820" lon="8.656132">
<ele>313.0</ele>
<speed>1.8</speed>
<course>58.7</course>
<desc>Speed 1.8 km/h Distance 5.95 km</desc>
<time>2010-02-27T11:12:57.43</time>
<name>4221</name>
</trkpt>
<trkpt lat="48.948827" lon="8.656148">
<ele>313.0</ele>
<speed>5.4</speed>
<course>284.4</course>
<desc>Speed 5.4 km/h Distance 5.95 km</desc>
<time>2010-02-27T11:12:58.43</time>
<name>4222</name>
</trkpt>
<trkpt lat="48.948828" lon="8.656138">
<ele>313.5</ele>
<speed>1.7</speed>
<course>277.2</course>
<desc>Speed 1.7 km/h Distance 5.95 km</desc>
<time>2010-02-27T11:12:59.43</time>
<name>4223</name>
</trkpt>
<trkpt lat="48.948830" lon="8.656118">
<ele>313.5</ele>
<speed>4.0</speed>
<course>277.2</course>
<desc>Speed 4.0 km/h Distance 5.95 km</desc>
<time>2010-02-27T11:13:00.43</time>
<name>4224</name>
</trkpt>
<trkpt lat="48.948832" lon="8.656098">
<ele>314.0</ele>
<speed>3.2</speed>
<course>276.2</course>
<desc>Speed 3.2 km/h Distance 5.96 km</desc>
<time>2010-02-27T11:13:01.42</time>
<name>4225</name>
</trkpt>
<trkpt lat="48.948833" lon="8.656075">
<ele>314.5</ele>
<speed>2.7</speed>
<course>284.4</course>
<desc>Speed 2.7 km/h Distance 5.96 km</desc>
<time>2010-02-27T11:13:02.45</time>
<name>4226</name>
</trkpt>
<trkpt lat="48.948835" lon="8.656065">
<ele>315.0</ele>
<speed>3.0</speed>
<course>231.9</course>
<desc>Speed 3.0 km/h Distance 5.96 km</desc>
<time>2010-02-27T11:13:03.42</time>
<name>4227</name>
</trkpt>
<trkpt lat="48.948833" lon="8.656062">
<ele>315.5</ele>
<speed>1.9</speed>
<course>249.1</course>
<desc>Speed 1.9 km/h Distance 5.96 km</desc>
<time>2010-02-27T11:13:04.42</time>
<name>4228</name>
</trkpt>
<trkpt lat="48.948832" lon="8.656055">
<ele>315.5</ele>
<speed>1.8</speed>
<course>167.4</course>
<desc>Speed 1.8 km/h Distance 5.96 km</desc>
<time>2010-02-27T11:13:05.42</time>
<name>4229</name>
</trkpt>
<trkpt lat="48.948828" lon="8.656057">
<ele>316.5</ele>
<speed>2.2</speed>
<course>284.2</course>
<desc>Speed 2.2 km/h Distance 5.96 km</desc>
<time>2010-02-27T11:13:06.42</time>
<name>4230</name>
</trkpt>
<trkpt lat="48.948832" lon="8.656037">
<ele>316.5</ele>
<speed>5.0</speed>
<course>232.6</course>
<desc>Speed 5.0 km/h Distance 5.96 km</desc>
<time>2010-02-27T11:13:07.42</time>
<name>4231</name>
</trkpt>
<trkpt lat="48.948827" lon="8.656027">
<ele>316.5</ele>
<speed>3.4</speed>
<course>295.1</course>
<desc>Speed 3.4 km/h Distance 5.96 km</desc>
<time>2010-02-27T11:13:08.42</time>
<name>4232</name>
</trkpt>
<trkpt lat="48.948833" lon="8.656005">
<ele>316.5</ele>
<speed>4.6</speed>
<course>270.0</course>
<desc>Speed 4.6 km/h Distance 5.96 km</desc>
<time>2010-02-27T11:13:09.42</time>
<name>4233</name>
</trkpt>
<trkpt lat="48.948833" lon="8.655985">
<ele>316.5</ele>
<speed>3.6</speed>
<course>263.3</course>
<desc>Speed 3.6 km/h Distance 5.97 km</desc>
<time>2010-02-27T11:13:10.43</time>
<name>4234</name>
</trkpt>
<trkpt lat="48.948832" lon="8.655963">
<ele>316.5</ele>
<speed>3.2</speed>
<course>257.7</course>
<desc>Speed 3.2 km/h Distance 5.97 km</desc>
<time>2010-02-27T11:13:11.42</time>
<name>4235</name>
</trkpt>
<trkpt lat="48.948830" lon="8.655952">
<ele>316.5</ele>
<speed>3.1</speed>
<course>259.2</course>
<desc>Speed 3.1 km/h Distance 5.97 km</desc>
<time>2010-02-27T11:13:12.42</time>
<name>4236</name>
</trkpt>
<trkpt lat="48.948828" lon="8.655938">
<ele>316.5</ele>
<speed>2.2</speed>
<course>270.0</course>
<desc>Speed 2.2 km/h Distance 5.97 km</desc>
<time>2010-02-27T11:13:13.42</time>
<name>4237</name>
</trkpt>
<trkpt lat="48.948828" lon="8.655920">
<ele>316.5</ele>
<speed>4.2</speed>
<course>235.9</course>
<desc>Speed 4.2 km/h Distance 5.97 km</desc>
<time>2010-02-27T11:13:14.42</time>
<name>4238</name>
</trkpt>
<trkpt lat="48.948822" lon="8.655905">
<ele>316.5</ele>
<speed>3.7</speed>
<course>291.8</course>
<desc>Speed 3.7 km/h Distance 5.97 km</desc>
<time>2010-02-27T11:13:15.42</time>
<name>4239</name>
</trkpt>
<trkpt lat="48.948830" lon="8.655873">
<ele>317.0</ele>
<speed>7.7</speed>
<course>270.0</course>
<desc>Speed 7.7 km/h Distance 5.97 km</desc>
<time>2010-02-27T11:13:16.44</time>
<name>4240</name>
</trkpt>
<trkpt lat="48.948830" lon="8.655847">
<ele>317.0</ele>
<speed>4.8</speed>
<course>232.7</course>
<desc>Speed 4.8 km/h Distance 5.98 km</desc>
<time>2010-02-27T11:13:17.42</time>
<name>4241</name>
</trkpt>
<trkpt lat="48.948822" lon="8.655830">
<ele>317.5</ele>
<speed>3.7</speed>
<course>270.0</course>
<desc>Speed 3.7 km/h Distance 5.98 km</desc>
<time>2010-02-27T11:13:18.42</time>
<name>4242</name>
</trkpt>
<trkpt lat="48.948822" lon="8.655812">
<ele>318.0</ele>
<speed>3.5</speed>
<course>254.5</course>
<desc>Speed 3.5 km/h Distance 5.98 km</desc>
<time>2010-02-27T11:13:19.42</time>
<name>4243</name>
</trkpt>
<trkpt lat="48.948818" lon="8.655793">
<ele>318.0</ele>
<speed>4.1</speed>
<course>275.8</course>
<desc>Speed 4.1 km/h Distance 5.98 km</desc>
<time>2010-02-27T11:13:20.42</time>
<name>4244</name>
</trkpt>
<trkpt lat="48.948820" lon="8.655768">
<ele>318.5</ele>
<speed>4.0</speed>
<course>301.3</course>
<desc>Speed 4.0 km/h Distance 5.98 km</desc>
<time>2010-02-27T11:13:21.42</time>
<name>4245</name>
</trkpt>
<trkpt lat="48.948830" lon="8.655743">
<ele>318.5</ele>
<speed>9.5</speed>
<course>220.9</course>
<desc>Speed 9.5 km/h Distance 5.98 km</desc>
<time>2010-02-27T11:13:22.42</time>
<name>4246</name>
</trkpt>
<trkpt lat="48.948825" lon="8.655737">
<ele>319.0</ele>
<speed>4.7</speed>
<course>285.5</course>
<desc>Speed 4.7 km/h Distance 5.99 km</desc>
<time>2010-02-27T11:13:23.42</time>
<name>4247</name>
</trkpt>
<trkpt lat="48.948828" lon="8.655718">
<ele>319.0</ele>
<speed>3.5</speed>
<course>220.9</course>
<desc>Speed 3.5 km/h Distance 5.99 km</desc>
<time>2010-02-27T11:13:24.41</time>
<name>4248</name>
</trkpt>
<trkpt lat="48.948823" lon="8.655712">
<ele>319.0</ele>
<speed>1.5</speed>
<course>213.2</course>
<desc>Speed 1.5 km/h Distance 5.99 km</desc>
<time>2010-02-27T11:13:25.41</time>
<name>4249</name>
</trkpt>
<trkpt lat="48.948815" lon="8.655703">
<ele>319.5</ele>
<speed>2.8</speed>
<course>285.0</course>
<desc>Speed 2.8 km/h Distance 5.99 km</desc>
<time>2010-02-27T11:13:26.41</time>
<name>4250</name>
</trkpt>
<trkpt lat="48.948820" lon="8.655675">
<ele>319.5</ele>
<speed>7.1</speed>
<course>175.6</course>
<desc>Speed 7.1 km/h Distance 5.99 km</desc>
<time>2010-02-27T11:13:27.41</time>
<name>4251</name>
</trkpt>
<trkpt lat="48.948810" lon="8.655677">
<ele>320.0</ele>
<speed>2.5</speed>
<course>270.0</course>
<desc>Speed 2.5 km/h Distance 5.99 km</desc>
<time>2010-02-27T11:13:28.41</time>
<name>4252</name>
</trkpt>
<trkpt lat="48.948810" lon="8.655657">
<ele>319.5</ele>
<speed>4.9</speed>
<course>293.5</course>
<desc>Speed 4.9 km/h Distance 5.99 km</desc>
<time>2010-02-27T11:13:29.42</time>
<name>4253</name>
</trkpt>
<trkpt lat="48.948813" lon="8.655645">
<ele>319.5</ele>
<speed>3.6</speed>
<course>262.1</course>
<desc>Speed 3.6 km/h Distance 5.99 km</desc>
<time>2010-02-27T11:13:30.41</time>
<name>4254</name>
</trkpt>
<trkpt lat="48.948812" lon="8.655627">
<ele>319.5</ele>
<speed>4.2</speed>
<course>270.0</course>
<desc>Speed 4.2 km/h Distance 6.00 km</desc>
<time>2010-02-27T11:13:31.40</time>
<name>4255</name>
</trkpt>
<trkpt lat="48.948812" lon="8.655612">
<ele>319.5</ele>
<speed>3.9</speed>
<course>257.7</course>
<desc>Speed 3.9 km/h Distance 6.00 km</desc>
<time>2010-02-27T11:13:32.40</time>
<name>4256</name>
</trkpt>
<trkpt lat="48.948810" lon="8.655600">
<ele>320.0</ele>
<speed>3.6</speed>
<course>257.7</course>
<desc>Speed 3.6 km/h Distance 6.00 km</desc>
<time>2010-02-27T11:13:33.44</time>
<name>4257</name>
</trkpt>
<trkpt lat="48.948808" lon="8.655588">
<ele>320.0</ele>
<speed>2.6</speed>
<course>243.2</course>
<desc>Speed 2.6 km/h Distance 6.00 km</desc>
<time>2010-02-27T11:13:34.40</time>
<name>4258</name>
</trkpt>
<trkpt lat="48.948805" lon="8.655578">
<ele>320.0</ele>
<speed>2.4</speed>
<course>270.0</course>
<desc>Speed 2.4 km/h Distance 6.00 km</desc>
<time>2010-02-27T11:13:35.41</time>
<name>4259</name>
</trkpt>
<trkpt lat="48.948805" lon="8.655568">
<ele>320.0</ele>
<speed>1.6</speed>
<course>194.9</course>
<desc>Speed 1.6 km/h Distance 6.00 km</desc>
<time>2010-02-27T11:13:36.40</time>
<name>4260</name>
</trkpt>
<trkpt lat="48.948797" lon="8.655565">
<ele>320.5</ele>
<speed>3.4</speed>
<course>311.9</course>
<desc>Speed 3.4 km/h Distance 6.00 km</desc>
<time>2010-02-27T11:13:37.41</time>
<name>4261</name>
</trkpt>
<trkpt lat="48.948813" lon="8.655537">
<ele>320.5</ele>
<speed>9.3</speed>
<course>309.3</course>
<desc>Speed 9.3 km/h Distance 6.00 km</desc>
<time>2010-02-27T11:13:38.41</time>
<name>4262</name>
</trkpt>
<trkpt lat="48.948825" lon="8.655515">
<ele>320.5</ele>
<speed>5.6</speed>
<course>187.0</course>
<desc>Speed 5.6 km/h Distance 6.01 km</desc>
<time>2010-02-27T11:13:39.41</time>
<name>4263</name>
</trkpt>
<trkpt lat="48.948745" lon="8.655500">
<ele>321.5</ele>
<speed>4.9</speed>
<course>263.3</course>
<desc>Speed 4.9 km/h Distance 6.01 km</desc>
<time>2010-02-27T11:13:41.41</time>
<name>4264</name>
</trkpt>
<trkpt lat="48.948742" lon="8.655457">
<ele>322.0</ele>
<speed>3.6</speed>
<course>255.6</course>
<desc>Speed 3.6 km/h Distance 6.02 km</desc>
<time>2010-02-27T11:13:42.41</time>
<name>4265</name>
</trkpt>
<trkpt lat="48.948740" lon="8.655447">
<ele>322.0</ele>
<speed>2.1</speed>
<course>281.5</course>
<desc>Speed 2.1 km/h Distance 6.02 km</desc>
<time>2010-02-27T11:13:43.41</time>
<name>4266</name>
</trkpt>
<trkpt lat="48.948743" lon="8.655422">
<ele>322.0</ele>
<speed>3.9</speed>
<course>279.1</course>
<desc>Speed 3.9 km/h Distance 6.02 km</desc>
<time>2010-02-27T11:13:44.41</time>
<name>4267</name>
</trkpt>
<trkpt lat="48.948747" lon="8.655390">
<ele>322.0</ele>
<speed>4.6</speed>
<course>259.2</course>
<desc>Speed 4.6 km/h Distance 6.02 km</desc>
<time>2010-02-27T11:13:45.43</time>
<name>4268</name>
</trkpt>
<trkpt lat="48.948743" lon="8.655363">
<ele>322.5</ele>
<speed>4.9</speed>
<course>247.9</course>
<desc>Speed 4.9 km/h Distance 6.02 km</desc>
<time>2010-02-27T11:13:46.40</time>
<name>4269</name>
</trkpt>
<trkpt lat="48.948737" lon="8.655338">
<ele>323.0</ele>
<speed>4.4</speed>
<course>239.7</course>
<desc>Speed 4.4 km/h Distance 6.03 km</desc>
<time>2010-02-27T11:13:47.41</time>
<name>4270</name>
</trkpt>
<trkpt lat="48.948728" lon="8.655317">
<ele>323.5</ele>
<speed>3.2</speed>
<course>243.1</course>
<desc>Speed 3.2 km/h Distance 6.03 km</desc>
<time>2010-02-27T11:13:48.40</time>
<name>4271</name>
</trkpt>
<trkpt lat="48.948720" lon="8.655292">
<ele>324.0</ele>
<speed>3.0</speed>
<course>238.6</course>
<desc>Speed 3.0 km/h Distance 6.03 km</desc>
<time>2010-02-27T11:13:49.41</time>
<name>4272</name>
</trkpt>
<trkpt lat="48.948713" lon="8.655275">
<ele>324.0</ele>
<speed>4.4</speed>
<course>263.8</course>
<desc>Speed 4.4 km/h Distance 6.03 km</desc>
<time>2010-02-27T11:13:50.40</time>
<name>4273</name>
</trkpt>
<trkpt lat="48.948712" lon="8.655252">
<ele>324.0</ele>
<speed>4.2</speed>
<course>232.6</course>
<desc>Speed 4.2 km/h Distance 6.03 km</desc>
<time>2010-02-27T11:13:51.43</time>
<name>4274</name>
</trkpt>
<trkpt lat="48.948707" lon="8.655242">
<ele>324.0</ele>
<speed>3.0</speed>
<course>270.0</course>
<desc>Speed 3.0 km/h Distance 6.03 km</desc>
<time>2010-02-27T11:13:52.40</time>
<name>4275</name>
</trkpt>
<trkpt lat="48.948707" lon="8.655232">
<ele>324.0</ele>
<speed>2.3</speed>
<course>243.1</course>
<desc>Speed 2.3 km/h Distance 6.04 km</desc>
<time>2010-02-27T11:13:53.40</time>
<name>4276</name>
</trkpt>
<trkpt lat="48.948702" lon="8.655217">
<ele>323.5</ele>
<speed>3.1</speed>
<course>221.2</course>
<desc>Speed 3.1 km/h Distance 6.04 km</desc>
<time>2010-02-27T11:13:54.40</time>
<name>4277</name>
</trkpt>
<trkpt lat="48.948692" lon="8.655203">
<ele>323.5</ele>
<speed>3.1</speed>
<course>299.0</course>
<desc>Speed 3.1 km/h Distance 6.04 km</desc>
<time>2010-02-27T11:13:55.40</time>
<name>4278</name>
</trkpt>
<trkpt lat="48.948698" lon="8.655185">
<ele>324.0</ele>
<speed>3.2</speed>
<course>220.9</course>
<desc>Speed 3.2 km/h Distance 6.04 km</desc>
<time>2010-02-27T11:13:56.39</time>
<name>4279</name>
</trkpt>
<trkpt lat="48.948693" lon="8.655178">
<ele>324.0</ele>
<speed>3.0</speed>
<course>307.6</course>
<desc>Speed 3.0 km/h Distance 6.04 km</desc>
<time>2010-02-27T11:13:57.40</time>
<name>4280</name>
</trkpt>
<trkpt lat="48.948697" lon="8.655172">
<ele>324.0</ele>
<speed>0.5</speed>
<course>4.4</course>
<desc>Speed 0.5 km/h Distance 6.04 km</desc>
<time>2010-02-27T11:13:58.40</time>
<name>4281</name>
</trkpt>
<trkpt lat="48.948707" lon="8.655173">
<ele>324.5</ele>
<speed>3.0</speed>
<course>240.2</course>
<desc>Speed 3.0 km/h Distance 6.04 km</desc>
<time>2010-02-27T11:13:59.39</time>
<name>4282</name>
</trkpt>
<trkpt lat="48.948702" lon="8.655160">
<ele>324.0</ele>
<speed>3.1</speed>
<course>44.6</course>
<desc>Speed 3.1 km/h Distance 6.04 km</desc>
<time>2010-02-27T11:14:00.39</time>
<name>4283</name>
</trkpt>
<trkpt lat="48.948712" lon="8.655175">
<ele>324.0</ele>
<speed>6.5</speed>
<course>157.8</course>
<desc>Speed 6.5 km/h Distance 6.04 km</desc>
<time>2010-02-27T11:14:01.40</time>
<name>4284</name>
</trkpt>
<trkpt lat="48.948707" lon="8.655178">
<ele>325.0</ele>
<speed>3.5</speed>
<course>341.2</course>
<desc>Speed 3.5 km/h Distance 6.05 km</desc>
<time>2010-02-27T11:14:02.40</time>
<name>4285</name>
</trkpt>
<trkpt lat="48.948710" lon="8.655177">
<ele>325.0</ele>
<speed>1.5</speed>
<course>12.6</course>
<desc>Speed 1.5 km/h Distance 6.05 km</desc>
<time>2010-02-27T11:14:03.40</time>
<name>4286</name>
</trkpt>
<trkpt lat="48.948713" lon="8.655178">
<ele>325.5</ele>
<speed>3.7</speed>
<course>162.5</course>
<desc>Speed 3.7 km/h Distance 6.05 km</desc>
<time>2010-02-27T11:14:04.40</time>
<name>4287</name>
</trkpt>
<trkpt lat="48.948707" lon="8.655182">
<ele>325.5</ele>
<speed>3.6</speed>
<course>204.9</course>
<desc>Speed 3.6 km/h Distance 6.05 km</desc>
<time>2010-02-27T11:14:05.40</time>
<name>4288</name>
</trkpt>
<trkpt lat="48.948695" lon="8.655173">
<ele>326.0</ele>
<speed>4.8</speed>
<course>229.9</course>
<desc>Speed 4.8 km/h Distance 6.05 km</desc>
<time>2010-02-27T11:14:06.40</time>
<name>4289</name>
</trkpt>
<trkpt lat="48.948687" lon="8.655158">
<ele>326.0</ele>
<speed>2.6</speed>
<course>243.1</course>
<desc>Speed 2.6 km/h Distance 6.05 km</desc>
<time>2010-02-27T11:14:07.40</time>
<name>4290</name>
</trkpt>
<trkpt lat="48.948677" lon="8.655128">
<ele>327.0</ele>
<speed>4.9</speed>
<course>90.0</course>
<desc>Speed 4.9 km/h Distance 6.05 km</desc>
<time>2010-02-27T11:14:08.40</time>
<name>4291</name>
</trkpt>
<trkpt lat="48.948677" lon="8.655133">
<ele>327.0</ele>
<speed>2.1</speed>
<course>226.4</course>
<desc>Speed 2.1 km/h Distance 6.05 km</desc>
<time>2010-02-27T11:14:09.39</time>
<name>4292</name>
</trkpt>
<trkpt lat="48.948668" lon="8.655120">
<ele>328.0</ele>
<speed>3.7</speed>
<course>194.9</course>
<desc>Speed 3.7 km/h Distance 6.05 km</desc>
<time>2010-02-27T11:14:10.41</time>
<name>4293</name>
</trkpt>
<trkpt lat="48.948660" lon="8.655117">
<ele>328.0</ele>
<speed>1.4</speed>
<course>180.0</course>
<desc>Speed 1.4 km/h Distance 6.05 km</desc>
<time>2010-02-27T11:14:11.40</time>
<name>4294</name>
</trkpt>
<trkpt lat="48.948657" lon="8.655117">
<ele>328.0</ele>
<speed>0.8</speed>
<course>180.0</course>
<desc>Speed 0.8 km/h Distance 6.06 km</desc>
<time>2010-02-27T11:14:12.39</time>
<name>4295</name>
</trkpt>
<trkpt lat="48.948652" lon="8.655117">
<ele>328.5</ele>
<speed>0.8</speed>
<course>180.0</course>
<desc>Speed 0.8 km/h Distance 6.06 km</desc>
<time>2010-02-27T11:14:13.40</time>
<name>4296</name>
</trkpt>
<trkpt lat="48.948652" lon="8.655117">
<ele>328.5</ele>
<speed>0.5</speed>
<course>157.0</course>
<desc>Speed 0.5 km/h Distance 6.06 km</desc>
<time>2010-02-27T11:14:14.40</time>
<name>4297</name>
</trkpt>
<trkpt lat="48.948648" lon="8.655118">
<ele>328.0</ele>
<speed>1.1</speed>
<course>217.2</course>
<desc>Speed 1.1 km/h Distance 6.06 km</desc>
<time>2010-02-27T11:14:15.40</time>
<name>4298</name>
</trkpt>
<trkpt lat="48.948647" lon="8.655117">
<ele>328.0</ele>
<speed>0.2</speed>
<course>157.0</course>
<desc>Speed 0.2 km/h Distance 6.06 km</desc>
<time>2010-02-27T11:14:16.40</time>
<name>4299</name>
</trkpt>
<trkpt lat="48.948643" lon="8.655118">
<ele>328.0</ele>
<speed>1.1</speed>
<course>75.8</course>
<desc>Speed 1.1 km/h Distance 6.06 km</desc>
<time>2010-02-27T11:14:17.42</time>
<name>4300</name>
</trkpt>
<trkpt lat="48.948647" lon="8.655138">
<ele>328.0</ele>
<speed>5.5</speed>
<course>186.3</course>
<desc>Speed 5.5 km/h Distance 6.06 km</desc>
<time>2010-02-27T11:14:18.39</time>
<name>4301</name>
</trkpt>
<trkpt lat="48.948635" lon="8.655137">
<ele>328.5</ele>
<speed>3.5</speed>
<course>90.0</course>
<desc>Speed 3.5 km/h Distance 6.06 km</desc>
<time>2010-02-27T11:14:19.39</time>
<name>4302</name>
</trkpt>
<trkpt lat="48.948635" lon="8.655150">
<ele>328.0</ele>
<speed>4.5</speed>
<course>208.9</course>
<desc>Speed 4.5 km/h Distance 6.06 km</desc>
<time>2010-02-27T11:14:20.39</time>
<name>4303</name>
</trkpt>
<trkpt lat="48.948625" lon="8.655142">
<ele>328.0</ele>
<speed>3.7</speed>
<course>217.2</course>
<desc>Speed 3.7 km/h Distance 6.06 km</desc>
<time>2010-02-27T11:14:21.39</time>
<name>4304</name>
</trkpt>
<trkpt lat="48.948623" lon="8.655140">
<ele>328.0</ele>
<speed>0.9</speed>
<course>153.2</course>
<desc>Speed 0.9 km/h Distance 6.06 km</desc>
<time>2010-02-27T11:14:22.39</time>
<name>4305</name>
</trkpt>
<trkpt lat="48.948602" lon="8.655157">
<ele>328.0</ele>
<speed>0.5</speed>
<course>258.9</course>
<desc>Speed 0.5 km/h Distance 6.06 km</desc>
<time>2010-02-27T11:14:24.39</time>
<name>4306</name>
</trkpt>
<trkpt lat="48.948595" lon="8.655105">
<ele>328.0</ele>
<speed>2.6</speed>
<course>232.7</course>
<desc>Speed 2.6 km/h Distance 6.07 km</desc>
<time>2010-02-27T11:14:26.39</time>
<name>4307</name>
</trkpt>
<trkpt lat="48.948588" lon="8.655092">
<ele>328.0</ele>
<speed>1.3</speed>
<course>207.8</course>
<desc>Speed 1.3 km/h Distance 6.07 km</desc>
<time>2010-02-27T11:14:27.38</time>
<name>4308</name>
</trkpt>
<trkpt lat="48.948572" lon="8.655078">
<ele>328.5</ele>
<speed>9.0</speed>
<course>208.8</course>
<desc>Speed 9.0 km/h Distance 6.07 km</desc>
<time>2010-02-27T11:14:29.38</time>
<name>4309</name>
</trkpt>
<trkpt lat="48.948552" lon="8.655062">
<ele>328.5</ele>
<speed>2.8</speed>
<course>146.3</course>
<desc>Speed 2.8 km/h Distance 6.07 km</desc>
<time>2010-02-27T11:14:30.39</time>
<name>4310</name>
</trkpt>
<trkpt lat="48.948545" lon="8.655068">
<ele>328.5</ele>
<speed>3.2</speed>
<course>201.5</course>
<desc>Speed 3.2 km/h Distance 6.08 km</desc>
<time>2010-02-27T11:14:31.39</time>
<name>4311</name>
</trkpt>
<trkpt lat="48.948528" lon="8.655058">
<ele>328.5</ele>
<speed>5.9</speed>
<course>133.6</course>
<desc>Speed 5.9 km/h Distance 6.08 km</desc>
<time>2010-02-27T11:14:32.39</time>
<name>4312</name>
</trkpt>
<trkpt lat="48.948520" lon="8.655072">
<ele>328.5</ele>
<speed>5.1</speed>
<course>127.3</course>
<desc>Speed 5.1 km/h Distance 6.08 km</desc>
<time>2010-02-27T11:14:33.38</time>
<name>4313</name>
</trkpt>
<trkpt lat="48.948512" lon="8.655088">
<ele>328.5</ele>
<speed>5.7</speed>
<course>184.1</course>
<desc>Speed 5.7 km/h Distance 6.08 km</desc>
<time>2010-02-27T11:14:34.38</time>
<name>4314</name>
</trkpt>
<trkpt lat="48.948495" lon="8.655087">
<ele>329.0</ele>
<speed>5.0</speed>
<course>95.4</course>
<desc>Speed 5.0 km/h Distance 6.08 km</desc>
<time>2010-02-27T11:14:35.38</time>
<name>4315</name>
</trkpt>
<trkpt lat="48.948493" lon="8.655113">
<ele>329.0</ele>
<speed>5.4</speed>
<course>96.7</course>
<desc>Speed 5.4 km/h Distance 6.08 km</desc>
<time>2010-02-27T11:14:36.38</time>
<name>4316</name>
</trkpt>
<trkpt lat="48.948492" lon="8.655135">
<ele>329.0</ele>
<speed>5.6</speed>
<course>180.0</course>
<desc>Speed 5.6 km/h Distance 6.09 km</desc>
<time>2010-02-27T11:14:37.38</time>
<name>4317</name>
</trkpt>
<trkpt lat="48.948480" lon="8.655135">
<ele>329.0</ele>
<speed>3.7</speed>
<course>177.8</course>
<desc>Speed 3.7 km/h Distance 6.09 km</desc>
<time>2010-02-27T11:14:38.38</time>
<name>4318</name>
</trkpt>
<trkpt lat="48.948468" lon="8.655135">
<ele>329.0</ele>
<speed>4.4</speed>
<course>184.7</course>
<desc>Speed 4.4 km/h Distance 6.09 km</desc>
<time>2010-02-27T11:14:39.38</time>
<name>4319</name>
</trkpt>
<trkpt lat="48.948457" lon="8.655133">
<ele>329.5</ele>
<speed>4.9</speed>
<course>114.5</course>
<desc>Speed 4.9 km/h Distance 6.09 km</desc>
<time>2010-02-27T11:14:40.38</time>
<name>4320</name>
</trkpt>
<trkpt lat="48.948452" lon="8.655150">
<ele>329.5</ele>
<speed>4.6</speed>
<course>112.5</course>
<desc>Speed 4.6 km/h Distance 6.09 km</desc>
<time>2010-02-27T11:14:41.38</time>
<name>4321</name>
</trkpt>
<trkpt lat="48.948447" lon="8.655168">
<ele>329.5</ele>
<speed>5.0</speed>
<course>189.0</course>
<desc>Speed 5.0 km/h Distance 6.09 km</desc>
<time>2010-02-27T11:14:42.38</time>
<name>4322</name>
</trkpt>
<trkpt lat="48.948433" lon="8.655165">
<ele>329.5</ele>
<speed>6.6</speed>
<course>108.7</course>
<desc>Speed 6.6 km/h Distance 6.09 km</desc>
<time>2010-02-27T11:14:43.38</time>
<name>4323</name>
</trkpt>
<trkpt lat="48.948430" lon="8.655180">
<ele>329.5</ele>
<speed>4.4</speed>
<course>90.0</course>
<desc>Speed 4.4 km/h Distance 6.10 km</desc>
<time>2010-02-27T11:14:44.38</time>
<name>4324</name>
</trkpt>
<trkpt lat="48.948430" lon="8.655208">
<ele>330.0</ele>
<speed>5.1</speed>
<course>158.5</course>
<desc>Speed 5.1 km/h Distance 6.10 km</desc>
<time>2010-02-27T11:14:45.38</time>
<name>4325</name>
</trkpt>
<trkpt lat="48.948422" lon="8.655213">
<ele>330.0</ele>
<speed>3.7</speed>
<course>152.1</course>
<desc>Speed 3.7 km/h Distance 6.10 km</desc>
<time>2010-02-27T11:14:46.38</time>
<name>4326</name>
</trkpt>
<trkpt lat="48.948413" lon="8.655220">
<ele>330.0</ele>
<speed>4.0</speed>
<course>141.6</course>
<desc>Speed 4.0 km/h Distance 6.10 km</desc>
<time>2010-02-27T11:14:47.38</time>
<name>4327</name>
</trkpt>
<trkpt lat="48.948405" lon="8.655230">
<ele>330.0</ele>
<speed>5.1</speed>
<course>161.8</course>
<desc>Speed 5.1 km/h Distance 6.10 km</desc>
<time>2010-02-27T11:14:48.38</time>
<name>4328</name>
</trkpt>
<trkpt lat="48.948395" lon="8.655235">
<ele>330.5</ele>
<speed>6.1</speed>
<course>103.2</course>
<desc>Speed 6.1 km/h Distance 6.10 km</desc>
<time>2010-02-27T11:14:49.38</time>
<name>4329</name>
</trkpt>
<trkpt lat="48.948392" lon="8.655257">
<ele>330.5</ele>
<speed>5.1</speed>
<course>138.8</course>
<desc>Speed 5.1 km/h Distance 6.10 km</desc>
<time>2010-02-27T11:14:50.38</time>
<name>4330</name>
</trkpt>
<trkpt lat="48.948382" lon="8.655270">
<ele>330.5</ele>
<speed>5.0</speed>
<course>135.5</course>
<desc>Speed 5.0 km/h Distance 6.10 km</desc>
<time>2010-02-27T11:14:51.38</time>
<name>4331</name>
</trkpt>
<trkpt lat="48.948375" lon="8.655280">
<ele>331.0</ele>
<speed>4.5</speed>
<course>196.0</course>
<desc>Speed 4.5 km/h Distance 6.11 km</desc>
<time>2010-02-27T11:14:52.38</time>
<name>4332</name>
</trkpt>
<trkpt lat="48.948363" lon="8.655275">
<ele>331.0</ele>
<speed>5.4</speed>
<course>152.1</course>
<desc>Speed 5.4 km/h Distance 6.11 km</desc>
<time>2010-02-27T11:14:53.38</time>
<name>4333</name>
</trkpt>
<trkpt lat="48.948355" lon="8.655282">
<ele>331.0</ele>
<speed>3.9</speed>
<course>202.3</course>
<desc>Speed 3.9 km/h Distance 6.11 km</desc>
<time>2010-02-27T11:14:54.38</time>
<name>4334</name>
</trkpt>
<trkpt lat="48.948342" lon="8.655273">
<ele>331.0</ele>
<speed>6.3</speed>
<course>135.5</course>
<desc>Speed 6.3 km/h Distance 6.11 km</desc>
<time>2010-02-27T11:14:55.38</time>
<name>4335</name>
</trkpt>
<trkpt lat="48.948335" lon="8.655283">
<ele>331.0</ele>
<speed>4.4</speed>
<course>152.1</course>
<desc>Speed 4.4 km/h Distance 6.11 km</desc>
<time>2010-02-27T11:14:56.38</time>
<name>4336</name>
</trkpt>
<trkpt lat="48.948327" lon="8.655290">
<ele>331.5</ele>
<speed>4.2</speed>
<course>132.2</course>
<desc>Speed 4.2 km/h Distance 6.11 km</desc>
<time>2010-02-27T11:14:57.38</time>
<name>4337</name>
</trkpt>
<trkpt lat="48.948322" lon="8.655298">
<ele>331.5</ele>
<speed>4.0</speed>
<course>171.9</course>
<desc>Speed 4.0 km/h Distance 6.11 km</desc>
<time>2010-02-27T11:14:58.38</time>
<name>4338</name>
</trkpt>
<trkpt lat="48.948312" lon="8.655300">
<ele>331.5</ele>
<speed>3.7</speed>
<course>309.3</course>
<desc>Speed 3.7 km/h Distance 6.11 km</desc>
<time>2010-02-27T11:14:59.38</time>
<name>4339</name>
</trkpt>
<trkpt lat="48.948323" lon="8.655278">
<ele>331.5</ele>
<speed>6.8</speed>
<course>290.9</course>
<desc>Speed 6.8 km/h Distance 6.12 km</desc>
<time>2010-02-27T11:15:00.37</time>
<name>4340</name>
</trkpt>
<trkpt lat="48.948327" lon="8.655265">
<ele>332.0</ele>
<speed>5.1</speed>
<course>90.0</course>
<desc>Speed 5.1 km/h Distance 6.12 km</desc>
<time>2010-02-27T11:15:01.37</time>
<name>4341</name>
</trkpt>
<trkpt lat="48.948327" lon="8.655278">
<ele>332.0</ele>
<speed>3.3</speed>
<course>119.7</course>
<desc>Speed 3.3 km/h Distance 6.12 km</desc>
<time>2010-02-27T11:15:02.38</time>
<name>4342</name>
</trkpt>
<trkpt lat="48.948322" lon="8.655292">
<ele>332.0</ele>
<speed>3.0</speed>
<course>108.7</course>
<desc>Speed 3.0 km/h Distance 6.12 km</desc>
<time>2010-02-27T11:15:03.38</time>
<name>4343</name>
</trkpt>
<trkpt lat="48.948318" lon="8.655307">
<ele>332.0</ele>
<speed>4.2</speed>
<course>113.5</course>
<desc>Speed 4.2 km/h Distance 6.12 km</desc>
<time>2010-02-27T11:15:04.38</time>
<name>4344</name>
</trkpt>
<trkpt lat="48.948315" lon="8.655318">
<ele>332.5</ele>
<speed>2.7</speed>
<course>127.4</course>
<desc>Speed 2.7 km/h Distance 6.12 km</desc>
<time>2010-02-27T11:15:05.37</time>
<name>4345</name>
</trkpt>
<trkpt lat="48.948310" lon="8.655328">
<ele>332.5</ele>
<speed>3.5</speed>
<course>154.6</course>
<desc>Speed 3.5 km/h Distance 6.12 km</desc>
<time>2010-02-27T11:15:06.38</time>
<name>4346</name>
</trkpt>
<trkpt lat="48.948305" lon="8.655332">
<ele>332.5</ele>
<speed>3.0</speed>
<course>156.2</course>
<desc>Speed 3.0 km/h Distance 6.12 km</desc>
<time>2010-02-27T11:15:07.37</time>
<name>4347</name>
</trkpt>
<trkpt lat="48.948300" lon="8.655335">
<ele>333.0</ele>
<speed>3.3</speed>
<course>105.0</course>
<desc>Speed 3.3 km/h Distance 6.12 km</desc>
<time>2010-02-27T11:15:08.37</time>
<name>4348</name>
</trkpt>
<trkpt lat="48.948295" lon="8.655363">
<ele>333.0</ele>
<speed>4.3</speed>
<course>164.0</course>
<desc>Speed 4.3 km/h Distance 6.13 km</desc>
<time>2010-02-27T11:15:09.37</time>
<name>4349</name>
</trkpt>
<trkpt lat="48.948283" lon="8.655368">
<ele>333.5</ele>
<speed>4.7</speed>
<course>85.4</course>
<desc>Speed 4.7 km/h Distance 6.13 km</desc>
<time>2010-02-27T11:15:10.38</time>
<name>4350</name>
</trkpt>
<trkpt lat="48.948285" lon="8.655400">
<ele>333.5</ele>
<speed>7.3</speed>
<course>116.9</course>
<desc>Speed 7.3 km/h Distance 6.13 km</desc>
<time>2010-02-27T11:15:11.37</time>
<name>4351</name>
</trkpt>
<trkpt lat="48.948280" lon="8.655415">
<ele>333.5</ele>
<speed>3.9</speed>
<course>133.6</course>
<desc>Speed 3.9 km/h Distance 6.13 km</desc>
<time>2010-02-27T11:15:12.37</time>
<name>4352</name>
</trkpt>
<trkpt lat="48.948272" lon="8.655428">
<ele>334.0</ele>
<speed>4.8</speed>
<course>203.8</course>
<desc>Speed 4.8 km/h Distance 6.13 km</desc>
<time>2010-02-27T11:15:13.39</time>
<name>4353</name>
</trkpt>
<trkpt lat="48.948262" lon="8.655422">
<ele>334.0</ele>
<speed>3.5</speed>
<course>191.7</course>
<desc>Speed 3.5 km/h Distance 6.13 km</desc>
<time>2010-02-27T11:15:14.36</time>
<name>4354</name>
</trkpt>
<trkpt lat="48.948247" lon="8.655417">
<ele>334.5</ele>
<speed>4.5</speed>
<course>181.9</course>
<desc>Speed 4.5 km/h Distance 6.13 km</desc>
<time>2010-02-27T11:15:15.37</time>
<name>4355</name>
</trkpt>
<trkpt lat="48.948232" lon="8.655415">
<ele>334.5</ele>
<speed>5.7</speed>
<course>161.6</course>
<desc>Speed 5.7 km/h Distance 6.14 km</desc>
<time>2010-02-27T11:15:16.36</time>
<name>4356</name>
</trkpt>
<trkpt lat="48.948218" lon="8.655422">
<ele>335.0</ele>
<speed>4.7</speed>
<course>175.3</course>
<desc>Speed 4.7 km/h Distance 6.14 km</desc>
<time>2010-02-27T11:15:17.39</time>
<name>4357</name>
</trkpt>
<trkpt lat="48.948207" lon="8.655423">
<ele>335.0</ele>
<speed>3.9</speed>
<course>135.5</course>
<desc>Speed 3.9 km/h Distance 6.14 km</desc>
<time>2010-02-27T11:15:18.36</time>
<name>4358</name>
</trkpt>
<trkpt lat="48.948197" lon="8.655438">
<ele>335.5</ele>
<speed>6.5</speed>
<course>127.0</course>
<desc>Speed 6.5 km/h Distance 6.14 km</desc>
<time>2010-02-27T11:15:19.36</time>
<name>4359</name>
</trkpt>
<trkpt lat="48.948193" lon="8.655445">
<ele>335.5</ele>
<speed>2.1</speed>
<course>137.5</course>
<desc>Speed 2.1 km/h Distance 6.14 km</desc>
<time>2010-02-27T11:15:20.37</time>
<name>4360</name>
</trkpt>
<trkpt lat="48.948185" lon="8.655457">
<ele>335.5</ele>
<speed>3.3</speed>
<course>124.7</course>
<desc>Speed 3.3 km/h Distance 6.14 km</desc>
<time>2010-02-27T11:15:21.36</time>
<name>4361</name>
</trkpt>
<trkpt lat="48.948177" lon="8.655475">
<ele>336.0</ele>
<speed>4.3</speed>
<course>180.0</course>
<desc>Speed 4.3 km/h Distance 6.14 km</desc>
<time>2010-02-27T11:15:22.36</time>
<name>4362</name>
</trkpt>
<trkpt lat="48.948165" lon="8.655475">
<ele>336.0</ele>
<speed>4.2</speed>
<course>166.2</course>
<desc>Speed 4.2 km/h Distance 6.15 km</desc>
<time>2010-02-27T11:15:23.36</time>
<name>4363</name>
</trkpt>
<trkpt lat="48.948157" lon="8.655478">
<ele>336.0</ele>
<speed>3.2</speed>
<course>152.1</course>
<desc>Speed 3.2 km/h Distance 6.15 km</desc>
<time>2010-02-27T11:15:24.37</time>
<name>4364</name>
</trkpt>
<trkpt lat="48.948148" lon="8.655485">
<ele>336.0</ele>
<speed>3.2</speed>
<course>178.1</course>
<desc>Speed 3.2 km/h Distance 6.15 km</desc>
<time>2010-02-27T11:15:25.36</time>
<name>4365</name>
</trkpt>
<trkpt lat="48.948133" lon="8.655485">
<ele>336.0</ele>
<speed>5.0</speed>
<course>202.7</course>
<desc>Speed 5.0 km/h Distance 6.15 km</desc>
<time>2010-02-27T11:15:26.39</time>
<name>4366</name>
</trkpt>
<trkpt lat="48.948115" lon="8.655473">
<ele>336.0</ele>
<speed>8.0</speed>
<course>163.4</course>
<desc>Speed 8.0 km/h Distance 6.15 km</desc>
<time>2010-02-27T11:15:27.36</time>
<name>4367</name>
</trkpt>
<trkpt lat="48.948100" lon="8.655480">
<ele>336.0</ele>
<speed>4.5</speed>
<course>102.3</course>
<desc>Speed 4.5 km/h Distance 6.15 km</desc>
<time>2010-02-27T11:15:28.36</time>
<name>4368</name>
</trkpt>
<trkpt lat="48.948097" lon="8.655503">
<ele>336.0</ele>
<speed>4.8</speed>
<course>110.9</course>
<desc>Speed 4.8 km/h Distance 6.15 km</desc>
<time>2010-02-27T11:15:29.36</time>
<name>4369</name>
</trkpt>
<trkpt lat="48.948092" lon="8.655523">
<ele>336.0</ele>
<speed>4.5</speed>
<course>120.3</course>
<desc>Speed 4.5 km/h Distance 6.16 km</desc>
<time>2010-02-27T11:15:30.39</time>
<name>4370</name>
</trkpt>
<trkpt lat="48.948083" lon="8.655545">
<ele>336.0</ele>
<speed>4.5</speed>
<course>101.5</course>
<desc>Speed 4.5 km/h Distance 6.16 km</desc>
<time>2010-02-27T11:15:31.36</time>
<name>4371</name>
</trkpt>
<trkpt lat="48.948080" lon="8.655570">
<ele>336.0</ele>
<speed>3.3</speed>
<course>95.4</course>
<desc>Speed 3.3 km/h Distance 6.16 km</desc>
<time>2010-02-27T11:15:32.36</time>
<name>4372</name>
</trkpt>
<trkpt lat="48.948078" lon="8.655597">
<ele>336.0</ele>
<speed>3.6</speed>
<course>108.1</course>
<desc>Speed 3.6 km/h Distance 6.16 km</desc>
<time>2010-02-27T11:15:33.36</time>
<name>4373</name>
</trkpt>
<trkpt lat="48.948073" lon="8.655620">
<ele>336.0</ele>
<speed>4.4</speed>
<course>100.2</course>
<desc>Speed 4.4 km/h Distance 6.16 km</desc>
<time>2010-02-27T11:15:34.36</time>
<name>4374</name>
</trkpt>
<trkpt lat="48.948070" lon="8.655648">
<ele>336.5</ele>
<speed>3.3</speed>
<course>90.0</course>
<desc>Speed 3.3 km/h Distance 6.17 km</desc>
<time>2010-02-27T11:15:35.35</time>
<name>4375</name>
</trkpt>
<trkpt lat="48.948070" lon="8.655672">
<ele>336.5</ele>
<speed>3.1</speed>
<course>110.9</course>
<desc>Speed 3.1 km/h Distance 6.17 km</desc>
<time>2010-02-27T11:15:36.36</time>
<name>4376</name>
</trkpt>
<trkpt lat="48.948067" lon="8.655685">
<ele>337.0</ele>
<speed>3.4</speed>
<course>146.8</course>
<desc>Speed 3.4 km/h Distance 6.17 km</desc>
<time>2010-02-27T11:15:37.36</time>
<name>4377</name>
</trkpt>
<trkpt lat="48.948058" lon="8.655693">
<ele>337.0</ele>
<speed>3.5</speed>
<course>170.5</course>
<desc>Speed 3.5 km/h Distance 6.17 km</desc>
<time>2010-02-27T11:15:38.36</time>
<name>4378</name>
</trkpt>
<trkpt lat="48.948047" lon="8.655697">
<ele>337.0</ele>
<speed>4.3</speed>
<course>114.5</course>
<desc>Speed 4.3 km/h Distance 6.17 km</desc>
<time>2010-02-27T11:15:39.36</time>
<name>4379</name>
</trkpt>
<trkpt lat="48.948042" lon="8.655713">
<ele>337.0</ele>
<speed>2.8</speed>
<course>161.8</course>
<desc>Speed 2.8 km/h Distance 6.17 km</desc>
<time>2010-02-27T11:15:40.36</time>
<name>4380</name>
</trkpt>
<trkpt lat="48.948032" lon="8.655718">
<ele>337.5</ele>
<speed>3.4</speed>
<course>90.0</course>
<desc>Speed 3.4 km/h Distance 6.17 km</desc>
<time>2010-02-27T11:15:41.35</time>
<name>4381</name>
</trkpt>
<trkpt lat="48.948032" lon="8.655787">
<ele>337.5</ele>
<speed>3.9</speed>
<course>141.4</course>
<desc>Speed 3.9 km/h Distance 6.18 km</desc>
<time>2010-02-27T11:15:43.35</time>
<name>4382</name>
</trkpt>
<trkpt lat="48.948023" lon="8.655797">
<ele>337.5</ele>
<speed>4.0</speed>
<course>109.4</course>
<desc>Speed 4.0 km/h Distance 6.18 km</desc>
<time>2010-02-27T11:15:44.35</time>
<name>4383</name>
</trkpt>
<trkpt lat="48.948018" lon="8.655818">
<ele>338.0</ele>
<speed>3.0</speed>
<course>97.5</course>
<desc>Speed 3.0 km/h Distance 6.18 km</desc>
<time>2010-02-27T11:15:45.35</time>
<name>4384</name>
</trkpt>
<trkpt lat="48.948015" lon="8.655857">
<ele>338.5</ele>
<speed>5.6</speed>
<course>108.7</course>
<desc>Speed 5.6 km/h Distance 6.18 km</desc>
<time>2010-02-27T11:15:46.36</time>
<name>4385</name>
</trkpt>
<trkpt lat="48.948008" lon="8.655887">
<ele>339.0</ele>
<speed>3.9</speed>
<course>127.0</course>
<desc>Speed 3.9 km/h Distance 6.19 km</desc>
<time>2010-02-27T11:15:47.35</time>
<name>4386</name>
</trkpt>
<trkpt lat="48.948005" lon="8.655893">
<ele>339.0</ele>
<speed>1.1</speed>
<course>222.1</course>
<desc>Speed 1.1 km/h Distance 6.19 km</desc>
<time>2010-02-27T11:15:48.36</time>
<name>4387</name>
</trkpt>
<trkpt lat="48.947992" lon="8.655875">
<ele>339.0</ele>
<speed>1.1</speed>
<course>179.1</course>
<desc>Speed 1.1 km/h Distance 6.19 km</desc>
<time>2010-02-27T11:15:49.36</time>
<name>4388</name>
</trkpt>
<trkpt lat="48.947960" lon="8.655875">
<ele>339.5</ele>
<speed>3.7</speed>
<course>154.8</course>
<desc>Speed 3.7 km/h Distance 6.19 km</desc>
<time>2010-02-27T11:15:51.35</time>
<name>4389</name>
</trkpt>
<trkpt lat="48.947948" lon="8.655883">
<ele>339.5</ele>
<speed>4.0</speed>
<course>146.8</course>
<desc>Speed 4.0 km/h Distance 6.19 km</desc>
<time>2010-02-27T11:15:52.35</time>
<name>4390</name>
</trkpt>
<trkpt lat="48.947938" lon="8.655893">
<ele>339.5</ele>
<speed>2.7</speed>
<course>153.6</course>
<desc>Speed 2.7 km/h Distance 6.20 km</desc>
<time>2010-02-27T11:15:53.36</time>
<name>4391</name>
</trkpt>
<trkpt lat="48.947932" lon="8.655898">
<ele>339.5</ele>
<speed>3.2</speed>
<course>166.5</course>
<desc>Speed 3.2 km/h Distance 6.20 km</desc>
<time>2010-02-27T11:15:54.35</time>
<name>4392</name>
</trkpt>
<trkpt lat="48.947918" lon="8.655903">
<ele>339.5</ele>
<speed>4.2</speed>
<course>137.4</course>
<desc>Speed 4.2 km/h Distance 6.20 km</desc>
<time>2010-02-27T11:15:55.35</time>
<name>4393</name>
</trkpt>
<trkpt lat="48.947910" lon="8.655915">
<ele>339.5</ele>
<speed>3.7</speed>
<course>138.8</course>
<desc>Speed 3.7 km/h Distance 6.20 km</desc>
<time>2010-02-27T11:15:56.35</time>
<name>4394</name>
</trkpt>
<trkpt lat="48.947900" lon="8.655928">
<ele>339.5</ele>
<speed>4.5</speed>
<course>146.8</course>
<desc>Speed 4.5 km/h Distance 6.20 km</desc>
<time>2010-02-27T11:15:57.35</time>
<name>4395</name>
</trkpt>
<trkpt lat="48.947890" lon="8.655938">
<ele>339.5</ele>
<speed>3.4</speed>
<course>154.8</course>
<desc>Speed 3.4 km/h Distance 6.20 km</desc>
<time>2010-02-27T11:15:58.35</time>
<name>4396</name>
</trkpt>
<trkpt lat="48.947878" lon="8.655947">
<ele>339.5</ele>
<speed>3.4</speed>
<course>153.8</course>
<desc>Speed 3.4 km/h Distance 6.20 km</desc>
<time>2010-02-27T11:15:59.35</time>
<name>4397</name>
</trkpt>
<trkpt lat="48.947865" lon="8.655957">
<ele>339.5</ele>
<speed>3.9</speed>
<course>146.3</course>
<desc>Speed 3.9 km/h Distance 6.20 km</desc>
<time>2010-02-27T11:16:00.35</time>
<name>4398</name>
</trkpt>
<trkpt lat="48.947858" lon="8.655963">
<ele>339.5</ele>
<speed>1.1</speed>
<course>127.0</course>
<desc>Speed 1.1 km/h Distance 6.21 km</desc>
<time>2010-02-27T11:16:01.34</time>
<name>4399</name>
</trkpt>
<trkpt lat="48.947855" lon="8.655970">
<ele>339.5</ele>
<speed>1.5</speed>
<course>131.1</course>
<desc>Speed 1.5 km/h Distance 6.21 km</desc>
<time>2010-02-27T11:16:02.35</time>
<name>4400</name>
</trkpt>
<trkpt lat="48.947848" lon="8.655982">
<ele>339.5</ele>
<speed>3.3</speed>
<course>124.1</course>
<desc>Speed 3.3 km/h Distance 6.21 km</desc>
<time>2010-02-27T11:16:03.35</time>
<name>4401</name>
</trkpt>
<trkpt lat="48.947842" lon="8.655997">
<ele>340.0</ele>
<speed>3.0</speed>
<course>127.0</course>
<desc>Speed 3.0 km/h Distance 6.21 km</desc>
<time>2010-02-27T11:16:04.35</time>
<name>4402</name>
</trkpt>
<trkpt lat="48.947835" lon="8.656010">
<ele>340.0</ele>
<speed>3.7</speed>
<course>121.3</course>
<desc>Speed 3.7 km/h Distance 6.21 km</desc>
<time>2010-02-27T11:16:05.35</time>
<name>4403</name>
</trkpt>
<trkpt lat="48.947828" lon="8.656027">
<ele>340.0</ele>
<speed>3.9</speed>
<course>123.3</course>
<desc>Speed 3.9 km/h Distance 6.21 km</desc>
<time>2010-02-27T11:16:06.35</time>
<name>4404</name>
</trkpt>
<trkpt lat="48.947823" lon="8.656038">
<ele>340.0</ele>
<speed>3.3</speed>
<course>80.9</course>
<desc>Speed 3.3 km/h Distance 6.21 km</desc>
<time>2010-02-27T11:16:07.35</time>
<name>4405</name>
</trkpt>
<trkpt lat="48.947827" lon="8.656070">
<ele>340.0</ele>
<speed>7.5</speed>
<course>137.5</course>
<desc>Speed 7.5 km/h Distance 6.21 km</desc>
<time>2010-02-27T11:16:08.35</time>
<name>4406</name>
</trkpt>
<trkpt lat="48.947818" lon="8.656082">
<ele>340.0</ele>
<speed>3.9</speed>
<course>127.3</course>
<desc>Speed 3.9 km/h Distance 6.22 km</desc>
<time>2010-02-27T11:16:09.34</time>
<name>4407</name>
</trkpt>
<trkpt lat="48.947812" lon="8.656095">
<ele>340.0</ele>
<speed>3.6</speed>
<course>146.8</course>
<desc>Speed 3.6 km/h Distance 6.22 km</desc>
<time>2010-02-27T11:16:10.35</time>
<name>4408</name>
</trkpt>
<trkpt lat="48.947805" lon="8.656102">
<ele>340.0</ele>
<speed>3.0</speed>
<course>130.1</course>
<desc>Speed 3.0 km/h Distance 6.22 km</desc>
<time>2010-02-27T11:16:11.35</time>
<name>4409</name>
</trkpt>
<trkpt lat="48.947797" lon="8.656117">
<ele>340.0</ele>
<speed>4.2</speed>
<course>119.9</course>
<desc>Speed 4.2 km/h Distance 6.22 km</desc>
<time>2010-02-27T11:16:12.34</time>
<name>4410</name>
</trkpt>
<trkpt lat="48.947792" lon="8.656130">
<ele>340.0</ele>
<speed>2.6</speed>
<course>121.3</course>
<desc>Speed 2.6 km/h Distance 6.22 km</desc>
<time>2010-02-27T11:16:13.34</time>
<name>4411</name>
</trkpt>
<trkpt lat="48.947785" lon="8.656147">
<ele>340.0</ele>
<speed>4.0</speed>
<course>142.5</course>
<desc>Speed 4.0 km/h Distance 6.22 km</desc>
<time>2010-02-27T11:16:14.34</time>
<name>4412</name>
</trkpt>
<trkpt lat="48.947775" lon="8.656158">
<ele>340.0</ele>
<speed>4.5</speed>
<course>133.6</course>
<desc>Speed 4.5 km/h Distance 6.22 km</desc>
<time>2010-02-27T11:16:15.38</time>
<name>4413</name>
</trkpt>
<trkpt lat="48.947767" lon="8.656172">
<ele>340.5</ele>
<speed>4.9</speed>
<course>124.1</course>
<desc>Speed 4.9 km/h Distance 6.23 km</desc>
<time>2010-02-27T11:16:16.33</time>
<name>4414</name>
</trkpt>
<trkpt lat="48.947760" lon="8.656187">
<ele>340.5</ele>
<speed>4.1</speed>
<course>119.9</course>
<desc>Speed 4.1 km/h Distance 6.23 km</desc>
<time>2010-02-27T11:16:17.34</time>
<name>4415</name>
</trkpt>
<trkpt lat="48.947755" lon="8.656200">
<ele>340.5</ele>
<speed>3.7</speed>
<course>123.3</course>
<desc>Speed 3.7 km/h Distance 6.23 km</desc>
<time>2010-02-27T11:16:18.34</time>
<name>4416</name>
</trkpt>
<trkpt lat="48.947750" lon="8.656212">
<ele>340.5</ele>
<speed>2.5</speed>
<course>135.5</course>
<desc>Speed 2.5 km/h Distance 6.23 km</desc>
<time>2010-02-27T11:16:19.34</time>
<name>4417</name>
</trkpt>
<trkpt lat="48.947743" lon="8.656222">
<ele>340.5</ele>
<speed>3.5</speed>
<course>119.0</course>
<desc>Speed 3.5 km/h Distance 6.23 km</desc>
<time>2010-02-27T11:16:20.34</time>
<name>4418</name>
</trkpt>
<trkpt lat="48.947737" lon="8.656240">
<ele>340.5</ele>
<speed>3.6</speed>
<course>137.4</course>
<desc>Speed 3.6 km/h Distance 6.23 km</desc>
<time>2010-02-27T11:16:21.35</time>
<name>4419</name>
</trkpt>
<trkpt lat="48.947728" lon="8.656252">
<ele>341.0</ele>
<speed>4.1</speed>
<course>140.6</course>
<desc>Speed 4.1 km/h Distance 6.23 km</desc>
<time>2010-02-27T11:16:22.34</time>
<name>4420</name>
</trkpt>
<trkpt lat="48.947722" lon="8.656260">
<ele>341.0</ele>
<speed>2.7</speed>
<course>142.7</course>
<desc>Speed 2.7 km/h Distance 6.23 km</desc>
<time>2010-02-27T11:16:23.34</time>
<name>4421</name>
</trkpt>
<trkpt lat="48.947712" lon="8.656272">
<ele>341.0</ele>
<speed>3.6</speed>
<course>130.2</course>
<desc>Speed 3.6 km/h Distance 6.23 km</desc>
<time>2010-02-27T11:16:24.34</time>
<name>4422</name>
</trkpt>
<trkpt lat="48.947703" lon="8.656287">
<ele>341.0</ele>
<speed>4.3</speed>
<course>133.6</course>
<desc>Speed 4.3 km/h Distance 6.24 km</desc>
<time>2010-02-27T11:16:25.34</time>
<name>4423</name>
</trkpt>
<trkpt lat="48.947695" lon="8.656300">
<ele>341.0</ele>
<speed>3.7</speed>
<course>124.1</course>
<desc>Speed 3.7 km/h Distance 6.24 km</desc>
<time>2010-02-27T11:16:26.34</time>
<name>4424</name>
</trkpt>
<trkpt lat="48.947688" lon="8.656315">
<ele>341.5</ele>
<speed>3.3</speed>
<course>141.9</course>
<desc>Speed 3.3 km/h Distance 6.24 km</desc>
<time>2010-02-27T11:16:27.34</time>
<name>4425</name>
</trkpt>
<trkpt lat="48.947680" lon="8.656325">
<ele>341.5</ele>
<speed>3.0</speed>
<course>133.6</course>
<desc>Speed 3.0 km/h Distance 6.24 km</desc>
<time>2010-02-27T11:16:28.34</time>
<name>4426</name>
</trkpt>
<trkpt lat="48.947672" lon="8.656338">
<ele>341.5</ele>
<speed>3.9</speed>
<course>141.9</course>
<desc>Speed 3.9 km/h Distance 6.24 km</desc>
<time>2010-02-27T11:16:29.34</time>
<name>4427</name>
</trkpt>
<trkpt lat="48.947663" lon="8.656348">
<ele>341.5</ele>
<speed>3.3</speed>
<course>146.3</course>
<desc>Speed 3.3 km/h Distance 6.24 km</desc>
<time>2010-02-27T11:16:30.34</time>
<name>4428</name>
</trkpt>
<trkpt lat="48.947657" lon="8.656355">
<ele>341.5</ele>
<speed>2.9</speed>
<course>150.6</course>
<desc>Speed 2.9 km/h Distance 6.24 km</desc>
<time>2010-02-27T11:16:31.34</time>
<name>4429</name>
</trkpt>
<trkpt lat="48.947645" lon="8.656365">
<ele>341.5</ele>
<speed>4.8</speed>
<course>184.7</course>
<desc>Speed 4.8 km/h Distance 6.24 km</desc>
<time>2010-02-27T11:16:32.33</time>
<name>4430</name>
</trkpt>
<trkpt lat="48.947633" lon="8.656363">
<ele>342.0</ele>
<speed>5.0</speed>
<course>141.6</course>
<desc>Speed 5.0 km/h Distance 6.25 km</desc>
<time>2010-02-27T11:16:33.33</time>
<name>4431</name>
</trkpt>
<trkpt lat="48.947625" lon="8.656373">
<ele>342.0</ele>
<speed>4.0</speed>
<course>90.0</course>
<desc>Speed 4.0 km/h Distance 6.25 km</desc>
<time>2010-02-27T11:16:34.33</time>
<name>4432</name>
</trkpt>
<trkpt lat="48.947625" lon="8.656410">
<ele>342.0</ele>
<speed>10.0</speed>
<course>127.2</course>
<desc>Speed 10.0 km/h Distance 6.25 km</desc>
<time>2010-02-27T11:16:35.33</time>
<name>4433</name>
</trkpt>
<trkpt lat="48.947620" lon="8.656420">
<ele>342.0</ele>
<speed>3.1</speed>
<course>167.4</course>
<desc>Speed 3.1 km/h Distance 6.25 km</desc>
<time>2010-02-27T11:16:36.33</time>
<name>4434</name>
</trkpt>
<trkpt lat="48.947617" lon="8.656420">
<ele>342.0</ele>
<speed>1.8</speed>
<course>167.4</course>
<desc>Speed 1.8 km/h Distance 6.25 km</desc>
<time>2010-02-27T11:16:37.33</time>
<name>4435</name>
</trkpt>
<trkpt lat="48.947613" lon="8.656422">
<ele>342.0</ele>
<speed>1.4</speed>
<course>90.0</course>
<desc>Speed 1.4 km/h Distance 6.25 km</desc>
<time>2010-02-27T11:16:38.33</time>
<name>4436</name>
</trkpt>
<trkpt lat="48.947613" lon="8.656427">
<ele>342.0</ele>
<speed>0.8</speed>
<course>90.0</course>
<desc>Speed 0.8 km/h Distance 6.25 km</desc>
<time>2010-02-27T11:16:39.32</time>
<name>4437</name>
</trkpt>
<trkpt lat="48.947613" lon="8.656427">
<ele>342.0</ele>
<speed>1.3</speed>
<course>90.0</course>
<desc>Speed 1.3 km/h Distance 6.25 km</desc>
<time>2010-02-27T11:16:40.33</time>
<name>4438</name>
</trkpt>
<trkpt lat="48.947613" lon="8.656430">
<ele>342.5</ele>
<speed>0.2</speed>
<course>37.2</course>
<desc>Speed 0.2 km/h Distance 6.25 km</desc>
<time>2010-02-27T11:16:41.33</time>
<name>4439</name>
</trkpt>
<trkpt lat="48.947615" lon="8.656432">
<ele>342.5</ele>
<speed>0.5</speed>
<course>167.4</course>
<desc>Speed 0.5 km/h Distance 6.25 km</desc>
<time>2010-02-27T11:16:42.32</time>
<name>4440</name>
</trkpt>
<trkpt lat="48.947613" lon="8.656432">
<ele>342.5</ele>
<speed>1.1</speed>
<course>90.0</course>
<desc>Speed 1.1 km/h Distance 6.25 km</desc>
<time>2010-02-27T11:16:43.32</time>
<name>4441</name>
</trkpt>
<trkpt lat="48.947613" lon="8.656437">
<ele>342.5</ele>
<speed>0.9</speed>
<course>37.2</course>
<desc>Speed 0.9 km/h Distance 6.25 km</desc>
<time>2010-02-27T11:16:44.32</time>
<name>4442</name>
</trkpt>
<trkpt lat="48.947615" lon="8.656438">
<ele>342.5</ele>
<speed>0.4</speed>
<course>270.0</course>
<desc>Speed 0.4 km/h Distance 6.25 km</desc>
<time>2010-02-27T11:16:45.32</time>
<name>4443</name>
</trkpt>
<trkpt lat="48.947615" lon="8.656437">
<ele>342.5</ele>
<speed>0.3</speed>
<course>117.4</course>
<desc>Speed 0.3 km/h Distance 6.25 km</desc>
<time>2010-02-27T11:16:46.33</time>
<name>4444</name>
</trkpt>
<trkpt lat="48.947613" lon="8.656442">
<ele>342.5</ele>
<speed>2.5</speed>
<course>121.4</course>
<desc>Speed 2.5 km/h Distance 6.25 km</desc>
<time>2010-02-27T11:16:47.33</time>
<name>4445</name>
</trkpt>
<trkpt lat="48.947610" lon="8.656450">
<ele>342.5</ele>
<speed>2.5</speed>
<course>146.8</course>
<desc>Speed 2.5 km/h Distance 6.25 km</desc>
<time>2010-02-27T11:16:48.33</time>
<name>4446</name>
</trkpt>
<trkpt lat="48.947602" lon="8.656458">
<ele>343.0</ele>
<speed>3.9</speed>
<course>152.1</course>
<desc>Speed 3.9 km/h Distance 6.26 km</desc>
<time>2010-02-27T11:16:49.32</time>
<name>4447</name>
</trkpt>
<trkpt lat="48.947593" lon="8.656465">
<ele>343.0</ele>
<speed>3.8</speed>
<course>198.1</course>
<desc>Speed 3.8 km/h Distance 6.26 km</desc>
<time>2010-02-27T11:16:50.32</time>
<name>4448</name>
</trkpt>
<trkpt lat="48.947580" lon="8.656458">
<ele>343.0</ele>
<speed>5.6</speed>
<course>187.7</course>
<desc>Speed 5.6 km/h Distance 6.26 km</desc>
<time>2010-02-27T11:16:51.33</time>
<name>4449</name>
</trkpt>
<trkpt lat="48.947572" lon="8.656457">
<ele>343.0</ele>
<speed>3.5</speed>
<course>184.7</course>
<desc>Speed 3.5 km/h Distance 6.26 km</desc>
<time>2010-02-27T11:16:52.32</time>
<name>4450</name>
</trkpt>
<trkpt lat="48.947560" lon="8.656455">
<ele>343.0</ele>
<speed>4.9</speed>
<course>151.4</course>
<desc>Speed 4.9 km/h Distance 6.26 km</desc>
<time>2010-02-27T11:16:53.33</time>
<name>4451</name>
</trkpt>
<trkpt lat="48.947550" lon="8.656463">
<ele>343.0</ele>
<speed>4.3</speed>
<course>121.3</course>
<desc>Speed 4.3 km/h Distance 6.26 km</desc>
<time>2010-02-27T11:16:54.33</time>
<name>4452</name>
</trkpt>
<trkpt lat="48.947543" lon="8.656480">
<ele>343.0</ele>
<speed>4.6</speed>
<course>159.1</course>
<desc>Speed 4.6 km/h Distance 6.26 km</desc>
<time>2010-02-27T11:16:55.32</time>
<name>4453</name>
</trkpt>
<trkpt lat="48.947532" lon="8.656487">
<ele>343.0</ele>
<speed>4.8</speed>
<course>141.9</course>
<desc>Speed 4.8 km/h Distance 6.26 km</desc>
<time>2010-02-27T11:16:56.33</time>
<name>4454</name>
</trkpt>
<trkpt lat="48.947523" lon="8.656497">
<ele>343.5</ele>
<speed>3.3</speed>
<course>124.6</course>
<desc>Speed 3.3 km/h Distance 6.27 km</desc>
<time>2010-02-27T11:16:57.33</time>
<name>4455</name>
</trkpt>
<trkpt lat="48.947515" lon="8.656515">
<ele>343.5</ele>
<speed>4.2</speed>
<course>137.4</course>
<desc>Speed 4.2 km/h Distance 6.27 km</desc>
<time>2010-02-27T11:16:58.32</time>
<name>4456</name>
</trkpt>
<trkpt lat="48.947507" lon="8.656527">
<ele>343.5</ele>
<speed>3.7</speed>
<course>131.6</course>
<desc>Speed 3.7 km/h Distance 6.27 km</desc>
<time>2010-02-27T11:16:59.33</time>
<name>4457</name>
</trkpt>
<trkpt lat="48.947495" lon="8.656547">
<ele>343.5</ele>
<speed>3.6</speed>
<course>123.7</course>
<desc>Speed 3.6 km/h Distance 6.27 km</desc>
<time>2010-02-27T11:17:00.33</time>
<name>4458</name>
</trkpt>
<trkpt lat="48.947483" lon="8.656573">
<ele>343.5</ele>
<speed>4.3</speed>
<course>120.6</course>
<desc>Speed 4.3 km/h Distance 6.27 km</desc>
<time>2010-02-27T11:17:01.32</time>
<name>4459</name>
</trkpt>
<trkpt lat="48.947472" lon="8.656603">
<ele>344.0</ele>
<speed>4.5</speed>
<course>118.1</course>
<desc>Speed 4.5 km/h Distance 6.28 km</desc>
<time>2010-02-27T11:17:02.32</time>
<name>4460</name>
</trkpt>
<trkpt lat="48.947460" lon="8.656637">
<ele>344.5</ele>
<speed>4.7</speed>
<course>143.1</course>
<desc>Speed 4.7 km/h Distance 6.28 km</desc>
<time>2010-02-27T11:17:03.32</time>
<name>4461</name>
</trkpt>
<trkpt lat="48.947448" lon="8.656650">
<ele>344.5</ele>
<speed>3.5</speed>
<course>137.4</course>
<desc>Speed 3.5 km/h Distance 6.28 km</desc>
<time>2010-02-27T11:17:04.32</time>
<name>4462</name>
</trkpt>
<trkpt lat="48.947440" lon="8.656662">
<ele>344.5</ele>
<speed>4.0</speed>
<course>132.4</course>
<desc>Speed 4.0 km/h Distance 6.28 km</desc>
<time>2010-02-27T11:17:05.32</time>
<name>4463</name>
</trkpt>
<trkpt lat="48.947430" lon="8.656678">
<ele>344.5</ele>
<speed>4.6</speed>
<course>134.1</course>
<desc>Speed 4.6 km/h Distance 6.28 km</desc>
<time>2010-02-27T11:17:06.32</time>
<name>4464</name>
</trkpt>
<trkpt lat="48.947418" lon="8.656697">
<ele>344.5</ele>
<speed>4.4</speed>
<course>133.6</course>
<desc>Speed 4.4 km/h Distance 6.28 km</desc>
<time>2010-02-27T11:17:07.32</time>
<name>4465</name>
</trkpt>
<trkpt lat="48.947410" lon="8.656710">
<ele>345.0</ele>
<speed>3.8</speed>
<course>130.9</course>
<desc>Speed 3.8 km/h Distance 6.29 km</desc>
<time>2010-02-27T11:17:08.32</time>
<name>4466</name>
</trkpt>
<trkpt lat="48.947403" lon="8.656722">
<ele>345.0</ele>
<speed>3.3</speed>
<course>158.5</course>
<desc>Speed 3.3 km/h Distance 6.29 km</desc>
<time>2010-02-27T11:17:09.32</time>
<name>4467</name>
</trkpt>
<trkpt lat="48.947395" lon="8.656727">
<ele>345.0</ele>
<speed>2.7</speed>
<course>146.8</course>
<desc>Speed 2.7 km/h Distance 6.29 km</desc>
<time>2010-02-27T11:17:10.33</time>
<name>4468</name>
</trkpt>
<trkpt lat="48.947385" lon="8.656737">
<ele>345.0</ele>
<speed>3.6</speed>
<course>172.5</course>
<desc>Speed 3.6 km/h Distance 6.29 km</desc>
<time>2010-02-27T11:17:11.32</time>
<name>4469</name>
</trkpt>
<trkpt lat="48.947373" lon="8.656738">
<ele>345.0</ele>
<speed>4.5</speed>
<course>104.2</course>
<desc>Speed 4.5 km/h Distance 6.29 km</desc>
<time>2010-02-27T11:17:12.32</time>
<name>4470</name>
</trkpt>
<trkpt lat="48.947370" lon="8.656758">
<ele>345.0</ele>
<speed>5.8</speed>
<course>108.1</course>
<desc>Speed 5.8 km/h Distance 6.29 km</desc>
<time>2010-02-27T11:17:13.32</time>
<name>4471</name>
</trkpt>
<trkpt lat="48.947365" lon="8.656782">
<ele>345.5</ele>
<speed>4.8</speed>
<course>152.1</course>
<desc>Speed 4.8 km/h Distance 6.29 km</desc>
<time>2010-02-27T11:17:14.32</time>
<name>4472</name>
</trkpt>
<trkpt lat="48.947357" lon="8.656788">
<ele>345.5</ele>
<speed>3.7</speed>
<course>135.5</course>
<desc>Speed 3.7 km/h Distance 6.30 km</desc>
<time>2010-02-27T11:17:15.32</time>
<name>4473</name>
</trkpt>
<trkpt lat="48.947350" lon="8.656798">
<ele>345.5</ele>
<speed>3.2</speed>
<course>146.3</course>
<desc>Speed 3.2 km/h Distance 6.30 km</desc>
<time>2010-02-27T11:17:16.32</time>
<name>4474</name>
</trkpt>
<trkpt lat="48.947343" lon="8.656805">
<ele>345.5</ele>
<speed>2.8</speed>
<course>138.6</course>
<desc>Speed 2.8 km/h Distance 6.30 km</desc>
<time>2010-02-27T11:17:17.32</time>
<name>4475</name>
</trkpt>
<trkpt lat="48.947338" lon="8.656812">
<ele>345.5</ele>
<speed>2.4</speed>
<course>153.6</course>
<desc>Speed 2.4 km/h Distance 6.30 km</desc>
<time>2010-02-27T11:17:18.32</time>
<name>4476</name>
</trkpt>
<trkpt lat="48.947332" lon="8.656817">
<ele>345.5</ele>
<speed>2.3</speed>
<course>130.9</course>
<desc>Speed 2.3 km/h Distance 6.30 km</desc>
<time>2010-02-27T11:17:19.32</time>
<name>4477</name>
</trkpt>
<trkpt lat="48.947325" lon="8.656828">
<ele>345.5</ele>
<speed>3.6</speed>
<course>219.4</course>
<desc>Speed 3.6 km/h Distance 6.30 km</desc>
<time>2010-02-27T11:17:20.31</time>
<name>4478</name>
</trkpt>
<trkpt lat="48.947318" lon="8.656820">
<ele>346.0</ele>
<speed>3.7</speed>
<course>133.5</course>
<desc>Speed 3.7 km/h Distance 6.30 km</desc>
<time>2010-02-27T11:17:21.32</time>
<name>4479</name>
</trkpt>
<trkpt lat="48.947310" lon="8.656833">
<ele>346.0</ele>
<speed>4.5</speed>
<course>137.4</course>
<desc>Speed 4.5 km/h Distance 6.30 km</desc>
<time>2010-02-27T11:17:22.32</time>
<name>4480</name>
</trkpt>
<trkpt lat="48.947302" lon="8.656845">
<ele>346.0</ele>
<speed>3.7</speed>
<course>127.3</course>
<desc>Speed 3.7 km/h Distance 6.30 km</desc>
<time>2010-02-27T11:17:23.31</time>
<name>4481</name>
</trkpt>
<trkpt lat="48.947293" lon="8.656862">
<ele>346.0</ele>
<speed>4.5</speed>
<course>127.3</course>
<desc>Speed 4.5 km/h Distance 6.30 km</desc>
<time>2010-02-27T11:17:24.31</time>
<name>4482</name>
</trkpt>
<trkpt lat="48.947287" lon="8.656875">
<ele>346.0</ele>
<speed>3.6</speed>
<course>127.3</course>
<desc>Speed 3.6 km/h Distance 6.31 km</desc>
<time>2010-02-27T11:17:25.31</time>
<name>4483</name>
</trkpt>
<trkpt lat="48.947280" lon="8.656888">
<ele>346.5</ele>
<speed>3.3</speed>
<course>127.3</course>
<desc>Speed 3.3 km/h Distance 6.31 km</desc>
<time>2010-02-27T11:17:26.32</time>
<name>4484</name>
</trkpt>
<trkpt lat="48.947273" lon="8.656902">
<ele>346.5</ele>
<speed>3.1</speed>
<course>131.1</course>
<desc>Speed 3.1 km/h Distance 6.31 km</desc>
<time>2010-02-27T11:17:27.31</time>
<name>4485</name>
</trkpt>
<trkpt lat="48.947267" lon="8.656913">
<ele>346.5</ele>
<speed>2.1</speed>
<course>131.3</course>
<desc>Speed 2.1 km/h Distance 6.31 km</desc>
<time>2010-02-27T11:17:28.31</time>
<name>4486</name>
</trkpt>
<trkpt lat="48.947260" lon="8.656925">
<ele>346.5</ele>
<speed>1.6</speed>
<course>139.1</course>
<desc>Speed 1.6 km/h Distance 6.31 km</desc>
<time>2010-02-27T11:17:29.31</time>
<name>4487</name>
</trkpt>
<trkpt lat="48.947255" lon="8.656932">
<ele>346.5</ele>
<speed>0.7</speed>
<course>62.6</course>
<desc>Speed 0.7 km/h Distance 6.31 km</desc>
<time>2010-02-27T11:17:30.31</time>
<name>4488</name>
</trkpt>
<trkpt lat="48.947257" lon="8.656937">
<ele>346.5</ele>
<speed>1.4</speed>
<course>69.1</course>
<desc>Speed 1.4 km/h Distance 6.31 km</desc>
<time>2010-02-27T11:17:31.31</time>
<name>4489</name>
</trkpt>
<trkpt lat="48.947258" lon="8.656943">
<ele>346.5</ele>
<speed>1.2</speed>
<course>99.6</course>
<desc>Speed 1.2 km/h Distance 6.31 km</desc>
<time>2010-02-27T11:17:32.31</time>
<name>4490</name>
</trkpt>
<trkpt lat="48.947257" lon="8.656958">
<ele>348.0</ele>
<speed>1.7</speed>
<course>128.1</course>
<desc>Speed 1.7 km/h Distance 6.31 km</desc>
<time>2010-02-27T11:17:33.31</time>
<name>4491</name>
</trkpt>
<trkpt lat="48.947255" lon="8.656962">
<ele>347.5</ele>
<speed>0.8</speed>
<course>175.0</course>
<desc>Speed 0.8 km/h Distance 6.31 km</desc>
<time>2010-02-27T11:17:34.31</time>
<name>4492</name>
</trkpt>
<trkpt lat="48.947247" lon="8.656963">
<ele>345.5</ele>
<speed>2.4</speed>
<course>105.4</course>
<desc>Speed 2.4 km/h Distance 6.31 km</desc>
<time>2010-02-27T11:17:35.31</time>
<name>4493</name>
</trkpt>
<trkpt lat="48.947243" lon="8.656982">
<ele>342.0</ele>
<speed>3.7</speed>
<course>146.6</course>
<desc>Speed 3.7 km/h Distance 6.32 km</desc>
<time>2010-02-27T11:17:36.30</time>
<name>4494</name>
</trkpt>
<trkpt lat="48.947232" lon="8.656993">
<ele>341.0</ele>
<speed>3.1</speed>
<course>95.4</course>
<desc>Speed 3.1 km/h Distance 6.32 km</desc>
<time>2010-02-27T11:17:37.30</time>
<name>4495</name>
</trkpt>
<trkpt lat="48.947230" lon="8.657020">
<ele>341.0</ele>
<speed>3.9</speed>
<course>152.1</course>
<desc>Speed 3.9 km/h Distance 6.32 km</desc>
<time>2010-02-27T11:17:38.31</time>
<name>4496</name>
</trkpt>
<trkpt lat="48.947222" lon="8.657027">
<ele>340.5</ele>
<speed>4.7</speed>
<course>114.5</course>
<desc>Speed 4.7 km/h Distance 6.32 km</desc>
<time>2010-02-27T11:17:39.30</time>
<name>4497</name>
</trkpt>
<trkpt lat="48.947217" lon="8.657043">
<ele>341.0</ele>
<speed>4.4</speed>
<course>113.5</course>
<desc>Speed 4.4 km/h Distance 6.32 km</desc>
<time>2010-02-27T11:17:40.31</time>
<name>4498</name>
</trkpt>
<trkpt lat="48.947213" lon="8.657055">
<ele>342.0</ele>
<speed>1.8</speed>
<course>128.1</course>
<desc>Speed 1.8 km/h Distance 6.32 km</desc>
<time>2010-02-27T11:17:41.30</time>
<name>4499</name>
</trkpt>
<trkpt lat="48.947212" lon="8.657058">
<ele>342.5</ele>
<speed>0.5</speed>
<course>99.6</course>
<desc>Speed 0.5 km/h Distance 6.32 km</desc>
<time>2010-02-27T11:17:42.32</time>
<name>4500</name>
</trkpt>
<trkpt lat="48.947210" lon="8.657073">
<ele>343.0</ele>
<speed>1.9</speed>
<course>141.9</course>
<desc>Speed 1.9 km/h Distance 6.32 km</desc>
<time>2010-02-27T11:17:43.30</time>
<name>4501</name>
</trkpt>
<trkpt lat="48.947202" lon="8.657083">
<ele>343.0</ele>
<speed>3.8</speed>
<course>141.9</course>
<desc>Speed 3.8 km/h Distance 6.33 km</desc>
<time>2010-02-27T11:17:44.30</time>
<name>4502</name>
</trkpt>
<trkpt lat="48.947193" lon="8.657093">
<ele>343.5</ele>
<speed>3.8</speed>
<course>124.1</course>
<desc>Speed 3.8 km/h Distance 6.33 km</desc>
<time>2010-02-27T11:17:45.30</time>
<name>4503</name>
</trkpt>
<trkpt lat="48.947187" lon="8.657108">
<ele>343.5</ele>
<speed>4.0</speed>
<course>161.9</course>
<desc>Speed 4.0 km/h Distance 6.33 km</desc>
<time>2010-02-27T11:17:46.30</time>
<name>4504</name>
</trkpt>
<trkpt lat="48.947173" lon="8.657115">
<ele>344.0</ele>
<speed>4.5</speed>
<course>161.6</course>
<desc>Speed 4.5 km/h Distance 6.33 km</desc>
<time>2010-02-27T11:17:47.30</time>
<name>4505</name>
</trkpt>
<trkpt lat="48.947160" lon="8.657122">
<ele>343.5</ele>
<speed>4.6</speed>
<course>153.6</course>
<desc>Speed 4.6 km/h Distance 6.33 km</desc>
<time>2010-02-27T11:17:48.30</time>
<name>4506</name>
</trkpt>
<trkpt lat="48.947153" lon="8.657127">
<ele>344.0</ele>
<speed>2.6</speed>
<course>194.9</course>
<desc>Speed 2.6 km/h Distance 6.33 km</desc>
<time>2010-02-27T11:17:49.30</time>
<name>4507</name>
</trkpt>
<trkpt lat="48.947145" lon="8.657123">
<ele>344.0</ele>
<speed>3.1</speed>
<course>216.8</course>
<desc>Speed 3.1 km/h Distance 6.33 km</desc>
<time>2010-02-27T11:17:50.30</time>
<name>4508</name>
</trkpt>
<trkpt lat="48.947133" lon="8.657110">
<ele>344.5</ele>
<speed>2.9</speed>
<course>202.2</course>
<desc>Speed 2.9 km/h Distance 6.33 km</desc>
<time>2010-02-27T11:17:51.30</time>
<name>4509</name>
</trkpt>
<trkpt lat="48.947128" lon="8.657107">
<ele>344.5</ele>
<speed>1.0</speed>
<course>139.1</course>
<desc>Speed 1.0 km/h Distance 6.34 km</desc>
<time>2010-02-27T11:17:52.30</time>
<name>4510</name>
</trkpt>
<trkpt lat="48.947123" lon="8.657113">
<ele>344.5</ele>
<speed>1.8</speed>
<course>139.1</course>
<desc>Speed 1.8 km/h Distance 6.34 km</desc>
<time>2010-02-27T11:17:53.32</time>
<name>4511</name>
</trkpt>
<trkpt lat="48.947118" lon="8.657120">
<ele>344.0</ele>
<speed>2.3</speed>
<course>154.8</course>
<desc>Speed 2.3 km/h Distance 6.34 km</desc>
<time>2010-02-27T11:17:54.30</time>
<name>4512</name>
</trkpt>
<trkpt lat="48.947107" lon="8.657128">
<ele>344.0</ele>
<speed>4.4</speed>
<course>209.4</course>
<desc>Speed 4.4 km/h Distance 6.34 km</desc>
<time>2010-02-27T11:17:55.30</time>
<name>4513</name>
</trkpt>
<trkpt lat="48.947083" lon="8.657108">
<ele>344.0</ele>
<speed>5.9</speed>
<course>106.9</course>
<desc>Speed 5.9 km/h Distance 6.34 km</desc>
<time>2010-02-27T11:17:57.29</time>
<name>4514</name>
</trkpt>
<trkpt lat="48.947080" lon="8.657125">
<ele>344.0</ele>
<speed>4.2</speed>
<course>116.9</course>
<desc>Speed 4.2 km/h Distance 6.34 km</desc>
<time>2010-02-27T11:17:58.30</time>
<name>4515</name>
</trkpt>
<trkpt lat="48.947073" lon="8.657145">
<ele>343.5</ele>
<speed>5.3</speed>
<course>118.5</course>
<desc>Speed 5.3 km/h Distance 6.34 km</desc>
<time>2010-02-27T11:17:59.30</time>
<name>4516</name>
</trkpt>
<trkpt lat="48.947065" lon="8.657168">
<ele>343.0</ele>
<speed>6.8</speed>
<course>220.2</course>
<desc>Speed 6.8 km/h Distance 6.35 km</desc>
<time>2010-02-27T11:18:00.29</time>
<name>4517</name>
</trkpt>
<trkpt lat="48.947030" lon="8.657123">
<ele>343.5</ele>
<speed>9.9</speed>
<course>124.6</course>
<desc>Speed 9.9 km/h Distance 6.35 km</desc>
<time>2010-02-27T11:18:02.29</time>
<name>4518</name>
</trkpt>
<trkpt lat="48.947022" lon="8.657142">
<ele>343.5</ele>
<speed>5.9</speed>
<course>121.3</course>
<desc>Speed 5.9 km/h Distance 6.35 km</desc>
<time>2010-02-27T11:18:03.29</time>
<name>4519</name>
</trkpt>
<trkpt lat="48.947015" lon="8.657158">
<ele>343.5</ele>
<speed>5.1</speed>
<course>155.3</course>
<desc>Speed 5.1 km/h Distance 6.35 km</desc>
<time>2010-02-27T11:18:04.29</time>
<name>4520</name>
</trkpt>
<trkpt lat="48.946998" lon="8.657170">
<ele>343.0</ele>
<speed>3.3</speed>
<course>137.4</course>
<desc>Speed 3.3 km/h Distance 6.36 km</desc>
<time>2010-02-27T11:18:05.29</time>
<name>4521</name>
</trkpt>
<trkpt lat="48.946990" lon="8.657182">
<ele>343.5</ele>
<speed>4.5</speed>
<course>130.9</course>
<desc>Speed 4.5 km/h Distance 6.36 km</desc>
<time>2010-02-27T11:18:06.29</time>
<name>4522</name>
</trkpt>
<trkpt lat="48.946983" lon="8.657193">
<ele>343.5</ele>
<speed>3.7</speed>
<course>168.8</course>
<desc>Speed 3.7 km/h Distance 6.36 km</desc>
<time>2010-02-27T11:18:07.29</time>
<name>4523</name>
</trkpt>
<trkpt lat="48.946972" lon="8.657197">
<ele>344.0</ele>
<speed>3.9</speed>
<course>161.8</course>
<desc>Speed 3.9 km/h Distance 6.36 km</desc>
<time>2010-02-27T11:18:08.28</time>
<name>4524</name>
</trkpt>
<trkpt lat="48.946962" lon="8.657202">
<ele>344.0</ele>
<speed>4.3</speed>
<course>157.7</course>
<desc>Speed 4.3 km/h Distance 6.36 km</desc>
<time>2010-02-27T11:18:09.28</time>
<name>4525</name>
</trkpt>
<trkpt lat="48.946948" lon="8.657210">
<ele>344.0</ele>
<speed>5.3</speed>
<course>141.2</course>
<desc>Speed 5.3 km/h Distance 6.36 km</desc>
<time>2010-02-27T11:18:10.30</time>
<name>4526</name>
</trkpt>
<trkpt lat="48.946933" lon="8.657228">
<ele>344.0</ele>
<speed>5.7</speed>
<course>107.8</course>
<desc>Speed 5.7 km/h Distance 6.36 km</desc>
<time>2010-02-27T11:18:11.29</time>
<name>4527</name>
</trkpt>
<trkpt lat="48.946927" lon="8.657260">
<ele>344.0</ele>
<speed>8.3</speed>
<course>123.9</course>
<desc>Speed 8.3 km/h Distance 6.37 km</desc>
<time>2010-02-27T11:18:12.29</time>
<name>4528</name>
</trkpt>
<trkpt lat="48.946920" lon="8.657275">
<ele>344.0</ele>
<speed>3.7</speed>
<course>121.3</course>
<desc>Speed 3.7 km/h Distance 6.37 km</desc>
<time>2010-02-27T11:18:13.28</time>
<name>4529</name>
</trkpt>
<trkpt lat="48.946913" lon="8.657292">
<ele>344.5</ele>
<speed>3.7</speed>
<course>129.7</course>
<desc>Speed 3.7 km/h Distance 6.37 km</desc>
<time>2010-02-27T11:18:14.29</time>
<name>4530</name>
</trkpt>
<trkpt lat="48.946903" lon="8.657310">
<ele>344.5</ele>
<speed>4.9</speed>
<course>118.6</course>
<desc>Speed 4.9 km/h Distance 6.37 km</desc>
<time>2010-02-27T11:18:15.28</time>
<name>4531</name>
</trkpt>
<trkpt lat="48.946895" lon="8.657333">
<ele>345.0</ele>
<speed>5.8</speed>
<course>127.3</course>
<desc>Speed 5.8 km/h Distance 6.37 km</desc>
<time>2010-02-27T11:18:16.29</time>
<name>4532</name>
</trkpt>
<trkpt lat="48.946885" lon="8.657353">
<ele>345.0</ele>
<speed>5.2</speed>
<course>120.3</course>
<desc>Speed 5.2 km/h Distance 6.38 km</desc>
<time>2010-02-27T11:18:17.29</time>
<name>4533</name>
</trkpt>
<trkpt lat="48.946877" lon="8.657375">
<ele>344.5</ele>
<speed>5.6</speed>
<course>130.3</course>
<desc>Speed 5.6 km/h Distance 6.38 km</desc>
<time>2010-02-27T11:18:18.29</time>
<name>4534</name>
</trkpt>
<trkpt lat="48.946868" lon="8.657390">
<ele>345.0</ele>
<speed>4.9</speed>
<course>131.6</course>
<desc>Speed 4.9 km/h Distance 6.38 km</desc>
<time>2010-02-27T11:18:19.29</time>
<name>4535</name>
</trkpt>
<trkpt lat="48.946857" lon="8.657410">
<ele>344.5</ele>
<speed>4.7</speed>
<course>127.3</course>
<desc>Speed 4.7 km/h Distance 6.38 km</desc>
<time>2010-02-27T11:18:20.30</time>
<name>4536</name>
</trkpt>
<trkpt lat="48.946847" lon="8.657430">
<ele>344.5</ele>
<speed>4.1</speed>
<course>121.3</course>
<desc>Speed 4.1 km/h Distance 6.38 km</desc>
<time>2010-02-27T11:18:21.29</time>
<name>4537</name>
</trkpt>
<trkpt lat="48.946840" lon="8.657447">
<ele>344.0</ele>
<speed>2.6</speed>
<course>122.1</course>
<desc>Speed 2.6 km/h Distance 6.38 km</desc>
<time>2010-02-27T11:18:22.29</time>
<name>4538</name>
</trkpt>
<trkpt lat="48.946828" lon="8.657475">
<ele>343.5</ele>
<speed>7.1</speed>
<course>122.1</course>
<desc>Speed 7.1 km/h Distance 6.39 km</desc>
<time>2010-02-27T11:18:23.29</time>
<name>4539</name>
</trkpt>
<trkpt lat="48.946817" lon="8.657503">
<ele>343.0</ele>
<speed>7.8</speed>
<course>101.5</course>
<desc>Speed 7.8 km/h Distance 6.39 km</desc>
<time>2010-02-27T11:18:24.29</time>
<name>4540</name>
</trkpt>
<trkpt lat="48.946813" lon="8.657528">
<ele>343.0</ele>
<speed>5.0</speed>
<course>116.9</course>
<desc>Speed 5.0 km/h Distance 6.39 km</desc>
<time>2010-02-27T11:18:25.28</time>
<name>4541</name>
</trkpt>
<trkpt lat="48.946808" lon="8.657543">
<ele>343.0</ele>
<speed>4.1</speed>
<course>127.3</course>
<desc>Speed 4.1 km/h Distance 6.39 km</desc>
<time>2010-02-27T11:18:26.28</time>
<name>4542</name>
</trkpt>
<trkpt lat="48.946802" lon="8.657557">
<ele>343.0</ele>
<speed>3.9</speed>
<course>127.0</course>
<desc>Speed 3.9 km/h Distance 6.39 km</desc>
<time>2010-02-27T11:18:27.28</time>
<name>4543</name>
</trkpt>
<trkpt lat="48.946798" lon="8.657563">
<ele>342.5</ele>
<speed>4.2</speed>
<course>119.0</course>
<desc>Speed 4.2 km/h Distance 6.39 km</desc>
<time>2010-02-27T11:18:28.29</time>
<name>4544</name>
</trkpt>
<trkpt lat="48.946792" lon="8.657582">
<ele>342.0</ele>
<speed>4.8</speed>
<course>121.4</course>
<desc>Speed 4.8 km/h Distance 6.40 km</desc>
<time>2010-02-27T11:18:29.28</time>
<name>4545</name>
</trkpt>
<trkpt lat="48.946782" lon="8.657607">
<ele>342.0</ele>
<speed>5.6</speed>
<course>116.9</course>
<desc>Speed 5.6 km/h Distance 6.40 km</desc>
<time>2010-02-27T11:18:30.28</time>
<name>4546</name>
</trkpt>
<trkpt lat="48.946773" lon="8.657632">
<ele>342.0</ele>
<speed>4.9</speed>
<course>123.1</course>
<desc>Speed 4.9 km/h Distance 6.40 km</desc>
<time>2010-02-27T11:18:31.28</time>
<name>4547</name>
</trkpt>
<trkpt lat="48.946763" lon="8.657655">
<ele>342.0</ele>
<speed>6.1</speed>
<course>136.7</course>
<desc>Speed 6.1 km/h Distance 6.40 km</desc>
<time>2010-02-27T11:18:32.28</time>
<name>4548</name>
</trkpt>
<trkpt lat="48.946752" lon="8.657672">
<ele>341.5</ele>
<speed>4.7</speed>
<course>136.8</course>
<desc>Speed 4.7 km/h Distance 6.40 km</desc>
<time>2010-02-27T11:18:33.27</time>
<name>4549</name>
</trkpt>
<trkpt lat="48.946740" lon="8.657688">
<ele>342.0</ele>
<speed>4.9</speed>
<course>134.1</course>
<desc>Speed 4.9 km/h Distance 6.41 km</desc>
<time>2010-02-27T11:18:34.28</time>
<name>4550</name>
</trkpt>
<trkpt lat="48.946728" lon="8.657707">
<ele>342.0</ele>
<speed>5.6</speed>
<course>134.4</course>
<desc>Speed 5.6 km/h Distance 6.41 km</desc>
<time>2010-02-27T11:18:35.28</time>
<name>4551</name>
</trkpt>
<trkpt lat="48.946713" lon="8.657730">
<ele>342.0</ele>
<speed>8.1</speed>
<course>349.6</course>
<desc>Speed 8.1 km/h Distance 6.41 km</desc>
<time>2010-02-27T11:18:36.28</time>
<name>4552</name>
</trkpt>
<trkpt lat="48.946725" lon="8.657727">
<ele>342.0</ele>
<speed>4.6</speed>
<course>133.1</course>
<desc>Speed 4.6 km/h Distance 6.41 km</desc>
<time>2010-02-27T11:18:37.28</time>
<name>4553</name>
</trkpt>
<trkpt lat="48.946712" lon="8.657748">
<ele>342.5</ele>
<speed>7.0</speed>
<course>124.7</course>
<desc>Speed 7.0 km/h Distance 6.41 km</desc>
<time>2010-02-27T11:18:38.28</time>
<name>4554</name>
</trkpt>
<trkpt lat="48.946703" lon="8.657767">
<ele>342.5</ele>
<speed>4.8</speed>
<course>133.6</course>
<desc>Speed 4.8 km/h Distance 6.41 km</desc>
<time>2010-02-27T11:18:39.28</time>
<name>4555</name>
</trkpt>
<trkpt lat="48.946695" lon="8.657780">
<ele>342.5</ele>
<speed>5.1</speed>
<course>112.1</course>
<desc>Speed 5.1 km/h Distance 6.42 km</desc>
<time>2010-02-27T11:18:40.27</time>
<name>4556</name>
</trkpt>
<trkpt lat="48.946688" lon="8.657805">
<ele>343.0</ele>
<speed>6.3</speed>
<course>124.7</course>
<desc>Speed 6.3 km/h Distance 6.42 km</desc>
<time>2010-02-27T11:18:41.28</time>
<name>4557</name>
</trkpt>
<trkpt lat="48.946680" lon="8.657823">
<ele>343.0</ele>
<speed>4.8</speed>
<course>133.6</course>
<desc>Speed 4.8 km/h Distance 6.42 km</desc>
<time>2010-02-27T11:18:42.28</time>
<name>4558</name>
</trkpt>
<trkpt lat="48.946672" lon="8.657837">
<ele>343.0</ele>
<speed>4.6</speed>
<course>127.3</course>
<desc>Speed 4.6 km/h Distance 6.42 km</desc>
<time>2010-02-27T11:18:43.27</time>
<name>4559</name>
</trkpt>
<trkpt lat="48.946663" lon="8.657853">
<ele>343.5</ele>
<speed>4.6</speed>
<course>124.1</course>
<desc>Speed 4.6 km/h Distance 6.42 km</desc>
<time>2010-02-27T11:18:44.27</time>
<name>4560</name>
</trkpt>
<trkpt lat="48.946657" lon="8.657868">
<ele>343.5</ele>
<speed>4.8</speed>
<course>129.6</course>
<desc>Speed 4.8 km/h Distance 6.42 km</desc>
<time>2010-02-27T11:18:45.27</time>
<name>4561</name>
</trkpt>
<trkpt lat="48.946647" lon="8.657887">
<ele>343.5</ele>
<speed>5.9</speed>
<course>143.1</course>
<desc>Speed 5.9 km/h Distance 6.43 km</desc>
<time>2010-02-27T11:18:46.28</time>
<name>4562</name>
</trkpt>
<trkpt lat="48.946635" lon="8.657900">
<ele>343.5</ele>
<speed>5.9</speed>
<course>149.1</course>
<desc>Speed 5.9 km/h Distance 6.43 km</desc>
<time>2010-02-27T11:18:47.27</time>
<name>4563</name>
</trkpt>
<trkpt lat="48.946597" lon="8.657935">
<ele>344.0</ele>
<speed>4.5</speed>
<course>150.6</course>
<desc>Speed 4.5 km/h Distance 6.43 km</desc>
<time>2010-02-27T11:18:49.27</time>
<name>4564</name>
</trkpt>
<trkpt lat="48.946585" lon="8.657945">
<ele>344.0</ele>
<speed>5.1</speed>
<course>142.5</course>
<desc>Speed 5.1 km/h Distance 6.43 km</desc>
<time>2010-02-27T11:18:50.27</time>
<name>4565</name>
</trkpt>
<trkpt lat="48.946575" lon="8.657957">
<ele>344.5</ele>
<speed>5.2</speed>
<course>138.8</course>
<desc>Speed 5.2 km/h Distance 6.44 km</desc>
<time>2010-02-27T11:18:51.27</time>
<name>4566</name>
</trkpt>
<trkpt lat="48.946565" lon="8.657970">
<ele>344.5</ele>
<speed>5.2</speed>
<course>136.9</course>
<desc>Speed 5.2 km/h Distance 6.44 km</desc>
<time>2010-02-27T11:18:52.27</time>
<name>4567</name>
</trkpt>
<trkpt lat="48.946553" lon="8.657987">
<ele>344.5</ele>
<speed>6.0</speed>
<course>176.2</course>
<desc>Speed 6.0 km/h Distance 6.44 km</desc>
<time>2010-02-27T11:18:53.27</time>
<name>4568</name>
</trkpt>
<trkpt lat="48.946538" lon="8.657988">
<ele>344.5</ele>
<speed>5.9</speed>
<course>100.8</course>
<desc>Speed 5.9 km/h Distance 6.44 km</desc>
<time>2010-02-27T11:18:54.27</time>
<name>4569</name>
</trkpt>
<trkpt lat="48.946533" lon="8.658028">
<ele>344.5</ele>
<speed>10.3</speed>
<course>124.1</course>
<desc>Speed 10.3 km/h Distance 6.44 km</desc>
<time>2010-02-27T11:18:55.27</time>
<name>4570</name>
</trkpt>
<trkpt lat="48.946527" lon="8.658043">
<ele>344.5</ele>
<speed>4.7</speed>
<course>132.6</course>
<desc>Speed 4.7 km/h Distance 6.44 km</desc>
<time>2010-02-27T11:18:56.27</time>
<name>4571</name>
</trkpt>
<trkpt lat="48.946517" lon="8.658060">
<ele>345.0</ele>
<speed>4.7</speed>
<course>119.1</course>
<desc>Speed 4.7 km/h Distance 6.45 km</desc>
<time>2010-02-27T11:18:57.27</time>
<name>4572</name>
</trkpt>
<trkpt lat="48.946510" lon="8.658078">
<ele>345.0</ele>
<speed>5.5</speed>
<course>109.4</course>
<desc>Speed 5.5 km/h Distance 6.45 km</desc>
<time>2010-02-27T11:18:58.27</time>
<name>4573</name>
</trkpt>
<trkpt lat="48.946505" lon="8.658100">
<ele>345.5</ele>
<speed>4.8</speed>
<course>90.0</course>
<desc>Speed 4.8 km/h Distance 6.45 km</desc>
<time>2010-02-27T11:18:59.27</time>
<name>4574</name>
</trkpt>
<trkpt lat="48.946505" lon="8.658123">
<ele>346.0</ele>
<speed>4.8</speed>
<course>66.5</course>
<desc>Speed 4.8 km/h Distance 6.45 km</desc>
<time>2010-02-27T11:19:00.26</time>
<name>4575</name>
</trkpt>
<trkpt lat="48.946508" lon="8.658135">
<ele>346.5</ele>
<speed>1.6</speed>
<course>270.0</course>
<desc>Speed 1.6 km/h Distance 6.45 km</desc>
<time>2010-02-27T11:19:01.27</time>
<name>4576</name>
</trkpt>
<trkpt lat="48.946508" lon="8.658130">
<ele>346.5</ele>
<speed>1.3</speed>
<course>161.8</course>
<desc>Speed 1.3 km/h Distance 6.45 km</desc>
<time>2010-02-27T11:19:02.27</time>
<name>4577</name>
</trkpt>
<trkpt lat="48.946498" lon="8.658135">
<ele>346.5</ele>
<speed>3.9</speed>
<course>157.4</course>
<desc>Speed 3.9 km/h Distance 6.45 km</desc>
<time>2010-02-27T11:19:03.27</time>
<name>4578</name>
</trkpt>
<trkpt lat="48.946485" lon="8.658143">
<ele>346.5</ele>
<speed>4.9</speed>
<course>146.8</course>
<desc>Speed 4.9 km/h Distance 6.45 km</desc>
<time>2010-02-27T11:19:04.27</time>
<name>4579</name>
</trkpt>
<trkpt lat="48.946475" lon="8.658153">
<ele>346.5</ele>
<speed>4.8</speed>
<course>135.5</course>
<desc>Speed 4.8 km/h Distance 6.46 km</desc>
<time>2010-02-27T11:19:05.27</time>
<name>4580</name>
</trkpt>
<trkpt lat="48.946468" lon="8.658163">
<ele>346.5</ele>
<speed>5.1</speed>
<course>141.8</course>
<desc>Speed 5.1 km/h Distance 6.46 km</desc>
<time>2010-02-27T11:19:06.27</time>
<name>4581</name>
</trkpt>
<trkpt lat="48.946452" lon="8.658183">
<ele>346.5</ele>
<speed>8.7</speed>
<course>133.6</course>
<desc>Speed 8.7 km/h Distance 6.46 km</desc>
<time>2010-02-27T11:19:07.27</time>
<name>4582</name>
</trkpt>
<trkpt lat="48.946443" lon="8.658197">
<ele>346.5</ele>
<speed>5.4</speed>
<course>130.9</course>
<desc>Speed 5.4 km/h Distance 6.46 km</desc>
<time>2010-02-27T11:19:08.26</time>
<name>4583</name>
</trkpt>
<trkpt lat="48.946437" lon="8.658208">
<ele>346.5</ele>
<speed>5.1</speed>
<course>123.1</course>
<desc>Speed 5.1 km/h Distance 6.46 km</desc>
<time>2010-02-27T11:19:09.26</time>
<name>4584</name>
</trkpt>
<trkpt lat="48.946432" lon="8.658220">
<ele>346.5</ele>
<speed>5.4</speed>
<course>135.5</course>
<desc>Speed 5.4 km/h Distance 6.46 km</desc>
<time>2010-02-27T11:19:10.28</time>
<name>4585</name>
</trkpt>
<trkpt lat="48.946422" lon="8.658235">
<ele>346.5</ele>
<speed>5.0</speed>
<course>133.6</course>
<desc>Speed 5.0 km/h Distance 6.46 km</desc>
<time>2010-02-27T11:19:11.26</time>
<name>4586</name>
</trkpt>
<trkpt lat="48.946413" lon="8.658248">
<ele>346.5</ele>
<speed>4.9</speed>
<course>156.2</course>
<desc>Speed 4.9 km/h Distance 6.47 km</desc>
<time>2010-02-27T11:19:12.26</time>
<name>4587</name>
</trkpt>
<trkpt lat="48.946403" lon="8.658255">
<ele>346.5</ele>
<speed>3.7</speed>
<course>138.6</course>
<desc>Speed 3.7 km/h Distance 6.47 km</desc>
<time>2010-02-27T11:19:13.26</time>
<name>4588</name>
</trkpt>
<trkpt lat="48.946398" lon="8.658262">
<ele>346.5</ele>
<speed>2.9</speed>
<course>137.4</course>
<desc>Speed 2.9 km/h Distance 6.47 km</desc>
<time>2010-02-27T11:19:14.26</time>
<name>4589</name>
</trkpt>
<trkpt lat="48.946390" lon="8.658273">
<ele>346.5</ele>
<speed>4.4</speed>
<course>127.2</course>
<desc>Speed 4.4 km/h Distance 6.47 km</desc>
<time>2010-02-27T11:19:15.26</time>
<name>4590</name>
</trkpt>
<trkpt lat="48.946383" lon="8.658287">
<ele>346.0</ele>
<speed>4.1</speed>
<course>132.4</course>
<desc>Speed 4.1 km/h Distance 6.47 km</desc>
<time>2010-02-27T11:19:16.26</time>
<name>4591</name>
</trkpt>
<trkpt lat="48.946373" lon="8.658303">
<ele>346.0</ele>
<speed>5.4</speed>
<course>150.6</course>
<desc>Speed 5.4 km/h Distance 6.47 km</desc>
<time>2010-02-27T11:19:17.26</time>
<name>4592</name>
</trkpt>
<trkpt lat="48.946362" lon="8.658313">
<ele>346.0</ele>
<speed>5.3</speed>
<course>143.1</course>
<desc>Speed 5.3 km/h Distance 6.47 km</desc>
<time>2010-02-27T11:19:18.26</time>
<name>4593</name>
</trkpt>
<trkpt lat="48.946350" lon="8.658327">
<ele>346.0</ele>
<speed>4.0</speed>
<course>141.9</course>
<desc>Speed 4.0 km/h Distance 6.48 km</desc>
<time>2010-02-27T11:19:19.26</time>
<name>4594</name>
</trkpt>
<trkpt lat="48.946342" lon="8.658337">
<ele>346.0</ele>
<speed>3.7</speed>
<course>139.8</course>
<desc>Speed 3.7 km/h Distance 6.48 km</desc>
<time>2010-02-27T11:19:20.26</time>
<name>4595</name>
</trkpt>
<trkpt lat="48.946330" lon="8.658352">
<ele>346.0</ele>
<speed>5.0</speed>
<course>143.1</course>
<desc>Speed 5.0 km/h Distance 6.48 km</desc>
<time>2010-02-27T11:19:21.26</time>
<name>4596</name>
</trkpt>
<trkpt lat="48.946318" lon="8.658365">
<ele>346.0</ele>
<speed>5.2</speed>
<course>137.9</course>
<desc>Speed 5.2 km/h Distance 6.48 km</desc>
<time>2010-02-27T11:19:22.26</time>
<name>4597</name>
</trkpt>
<trkpt lat="48.946305" lon="8.658383">
<ele>345.5</ele>
<speed>5.6</speed>
<course>135.5</course>
<desc>Speed 5.6 km/h Distance 6.48 km</desc>
<time>2010-02-27T11:19:23.26</time>
<name>4598</name>
</trkpt>
<trkpt lat="48.946295" lon="8.658398">
<ele>345.5</ele>
<speed>4.9</speed>
<course>135.5</course>
<desc>Speed 4.9 km/h Distance 6.48 km</desc>
<time>2010-02-27T11:19:24.26</time>
<name>4599</name>
</trkpt>
<trkpt lat="48.946285" lon="8.658413">
<ele>345.5</ele>
<speed>5.2</speed>
<course>146.7</course>
<desc>Speed 5.2 km/h Distance 6.48 km</desc>
<time>2010-02-27T11:19:25.26</time>
<name>4600</name>
</trkpt>
<trkpt lat="48.946273" lon="8.658425">
<ele>345.5</ele>
<speed>5.1</speed>
<course>135.4</course>
<desc>Speed 5.1 km/h Distance 6.49 km</desc>
<time>2010-02-27T11:19:26.26</time>
<name>4601</name>
</trkpt>
<trkpt lat="48.946263" lon="8.658440">
<ele>345.5</ele>
<speed>5.1</speed>
<course>135.4</course>
<desc>Speed 5.1 km/h Distance 6.49 km</desc>
<time>2010-02-27T11:19:27.25</time>
<name>4602</name>
</trkpt>
<trkpt lat="48.946253" lon="8.658455">
<ele>345.5</ele>
<speed>4.9</speed>
<course>130.1</course>
<desc>Speed 4.9 km/h Distance 6.49 km</desc>
<time>2010-02-27T11:19:28.26</time>
<name>4603</name>
</trkpt>
<trkpt lat="48.946245" lon="8.658470">
<ele>345.5</ele>
<speed>4.8</speed>
<course>132.4</course>
<desc>Speed 4.8 km/h Distance 6.49 km</desc>
<time>2010-02-27T11:19:29.26</time>
<name>4604</name>
</trkpt>
<trkpt lat="48.946235" lon="8.658487">
<ele>345.5</ele>
<speed>5.1</speed>
<course>130.3</course>
<desc>Speed 5.1 km/h Distance 6.49 km</desc>
<time>2010-02-27T11:19:30.26</time>
<name>4605</name>
</trkpt>
<trkpt lat="48.946227" lon="8.658502">
<ele>345.5</ele>
<speed>4.6</speed>
<course>130.3</course>
<desc>Speed 4.6 km/h Distance 6.49 km</desc>
<time>2010-02-27T11:19:31.25</time>
<name>4606</name>
</trkpt>
<trkpt lat="48.946218" lon="8.658517">
<ele>345.5</ele>
<speed>5.0</speed>
<course>151.4</course>
<desc>Speed 5.0 km/h Distance 6.50 km</desc>
<time>2010-02-27T11:19:32.26</time>
<name>4607</name>
</trkpt>
<trkpt lat="48.946208" lon="8.658525">
<ele>345.5</ele>
<speed>4.5</speed>
<course>119.0</course>
<desc>Speed 4.5 km/h Distance 6.50 km</desc>
<time>2010-02-27T11:19:33.26</time>
<name>4608</name>
</trkpt>
<trkpt lat="48.946202" lon="8.658543">
<ele>345.5</ele>
<speed>5.3</speed>
<course>131.1</course>
<desc>Speed 5.3 km/h Distance 6.50 km</desc>
<time>2010-02-27T11:19:34.25</time>
<name>4609</name>
</trkpt>
<trkpt lat="48.946195" lon="8.658555">
<ele>345.5</ele>
<speed>3.6</speed>
<course>135.5</course>
<desc>Speed 3.6 km/h Distance 6.50 km</desc>
<time>2010-02-27T11:19:35.26</time>
<name>4610</name>
</trkpt>
<trkpt lat="48.946188" lon="8.658565">
<ele>345.5</ele>
<speed>3.9</speed>
<course>135.5</course>
<desc>Speed 3.9 km/h Distance 6.50 km</desc>
<time>2010-02-27T11:19:36.26</time>
<name>4611</name>
</trkpt>
<trkpt lat="48.946178" lon="8.658580">
<ele>345.5</ele>
<speed>5.1</speed>
<course>355.3</course>
<desc>Speed 5.1 km/h Distance 6.50 km</desc>
<time>2010-02-27T11:19:37.26</time>
<name>4612</name>
</trkpt>
<trkpt lat="48.946190" lon="8.658578">
<ele>345.5</ele>
<speed>4.8</speed>
<course>119.0</course>
<desc>Speed 4.8 km/h Distance 6.50 km</desc>
<time>2010-02-27T11:19:38.27</time>
<name>4613</name>
</trkpt>
<trkpt lat="48.946183" lon="8.658597">
<ele>345.5</ele>
<speed>4.2</speed>
<course>125.4</course>
<desc>Speed 4.2 km/h Distance 6.50 km</desc>
<time>2010-02-27T11:19:39.25</time>
<name>4614</name>
</trkpt>
<trkpt lat="48.946172" lon="8.658622">
<ele>345.5</ele>
<speed>6.6</speed>
<course>129.3</course>
<desc>Speed 6.6 km/h Distance 6.51 km</desc>
<time>2010-02-27T11:19:40.25</time>
<name>4615</name>
</trkpt>
<trkpt lat="48.946160" lon="8.658643">
<ele>346.0</ele>
<speed>5.4</speed>
<course>137.8</course>
<desc>Speed 5.4 km/h Distance 6.51 km</desc>
<time>2010-02-27T11:19:41.25</time>
<name>4616</name>
</trkpt>
<trkpt lat="48.946147" lon="8.658662">
<ele>346.0</ele>
<speed>5.8</speed>
<course>135.4</course>
<desc>Speed 5.8 km/h Distance 6.51 km</desc>
<time>2010-02-27T11:19:42.25</time>
<name>4617</name>
</trkpt>
<trkpt lat="48.946133" lon="8.658682">
<ele>346.0</ele>
<speed>5.6</speed>
<course>136.7</course>
<desc>Speed 5.6 km/h Distance 6.51 km</desc>
<time>2010-02-27T11:19:43.25</time>
<name>4618</name>
</trkpt>
<trkpt lat="48.946122" lon="8.658698">
<ele>346.0</ele>
<speed>5.1</speed>
<course>136.8</course>
<desc>Speed 5.1 km/h Distance 6.52 km</desc>
<time>2010-02-27T11:19:44.25</time>
<name>4619</name>
</trkpt>
<trkpt lat="48.946110" lon="8.658715">
<ele>346.0</ele>
<speed>4.8</speed>
<course>143.1</course>
<desc>Speed 4.8 km/h Distance 6.52 km</desc>
<time>2010-02-27T11:19:45.25</time>
<name>4620</name>
</trkpt>
<trkpt lat="48.946098" lon="8.658728">
<ele>346.0</ele>
<speed>5.1</speed>
<course>136.7</course>
<desc>Speed 5.1 km/h Distance 6.52 km</desc>
<time>2010-02-27T11:19:46.25</time>
<name>4621</name>
</trkpt>
<trkpt lat="48.946087" lon="8.658745">
<ele>346.0</ele>
<speed>4.9</speed>
<course>129.7</course>
<desc>Speed 4.9 km/h Distance 6.52 km</desc>
<time>2010-02-27T11:19:47.25</time>
<name>4622</name>
</trkpt>
<trkpt lat="48.946077" lon="8.658763">
<ele>346.0</ele>
<speed>5.7</speed>
<course>143.1</course>
<desc>Speed 5.7 km/h Distance 6.52 km</desc>
<time>2010-02-27T11:19:48.25</time>
<name>4623</name>
</trkpt>
<trkpt lat="48.946065" lon="8.658777">
<ele>346.0</ele>
<speed>5.2</speed>
<course>135.5</course>
<desc>Speed 5.2 km/h Distance 6.52 km</desc>
<time>2010-02-27T11:19:49.25</time>
<name>4624</name>
</trkpt>
<trkpt lat="48.946055" lon="8.658792">
<ele>346.0</ele>
<speed>4.8</speed>
<course>159.2</course>
<desc>Speed 4.8 km/h Distance 6.53 km</desc>
<time>2010-02-27T11:19:50.25</time>
<name>4625</name>
</trkpt>
<trkpt lat="48.946047" lon="8.658797">
<ele>346.0</ele>
<speed>2.3</speed>
<course>139.8</course>
<desc>Speed 2.3 km/h Distance 6.53 km</desc>
<time>2010-02-27T11:19:51.25</time>
<name>4626</name>
</trkpt>
<trkpt lat="48.946035" lon="8.658812">
<ele>346.0</ele>
<speed>4.6</speed>
<course>139.7</course>
<desc>Speed 4.6 km/h Distance 6.53 km</desc>
<time>2010-02-27T11:19:52.25</time>
<name>4627</name>
</trkpt>
<trkpt lat="48.946023" lon="8.658827">
<ele>346.0</ele>
<speed>5.5</speed>
<course>134.1</course>
<desc>Speed 5.5 km/h Distance 6.53 km</desc>
<time>2010-02-27T11:19:53.25</time>
<name>4628</name>
</trkpt>
<trkpt lat="48.946012" lon="8.658845">
<ele>346.0</ele>
<speed>5.6</speed>
<course>139.8</course>
<desc>Speed 5.6 km/h Distance 6.53 km</desc>
<time>2010-02-27T11:19:54.25</time>
<name>4629</name>
</trkpt>
<trkpt lat="48.946000" lon="8.658860">
<ele>346.0</ele>
<speed>5.4</speed>
<course>127.3</course>
<desc>Speed 5.4 km/h Distance 6.53 km</desc>
<time>2010-02-27T11:19:55.24</time>
<name>4630</name>
</trkpt>
<trkpt lat="48.945992" lon="8.658877">
<ele>346.0</ele>
<speed>5.1</speed>
<course>138.8</course>
<desc>Speed 5.1 km/h Distance 6.53 km</desc>
<time>2010-02-27T11:19:56.25</time>
<name>4631</name>
</trkpt>
<trkpt lat="48.945982" lon="8.658890">
<ele>346.0</ele>
<speed>4.6</speed>
<course>133.6</course>
<desc>Speed 4.6 km/h Distance 6.54 km</desc>
<time>2010-02-27T11:19:57.25</time>
<name>4632</name>
</trkpt>
<trkpt lat="48.945973" lon="8.658903">
<ele>346.0</ele>
<speed>4.2</speed>
<course>139.8</course>
<desc>Speed 4.2 km/h Distance 6.54 km</desc>
<time>2010-02-27T11:19:58.24</time>
<name>4633</name>
</trkpt>
<trkpt lat="48.945962" lon="8.658918">
<ele>346.0</ele>
<speed>5.3</speed>
<course>140.6</course>
<desc>Speed 5.3 km/h Distance 6.54 km</desc>
<time>2010-02-27T11:19:59.25</time>
<name>4634</name>
</trkpt>
<trkpt lat="48.945948" lon="8.658935">
<ele>346.0</ele>
<speed>5.2</speed>
<course>143.1</course>
<desc>Speed 5.2 km/h Distance 6.54 km</desc>
<time>2010-02-27T11:20:00.24</time>
<name>4635</name>
</trkpt>
<trkpt lat="48.945937" lon="8.658948">
<ele>346.0</ele>
<speed>4.5</speed>
<course>146.6</course>
<desc>Speed 4.5 km/h Distance 6.54 km</desc>
<time>2010-02-27T11:20:01.25</time>
<name>4636</name>
</trkpt>
<trkpt lat="48.945923" lon="8.658962">
<ele>346.0</ele>
<speed>4.0</speed>
<course>127.3</course>
<desc>Speed 4.0 km/h Distance 6.54 km</desc>
<time>2010-02-27T11:20:02.24</time>
<name>4637</name>
</trkpt>
<trkpt lat="48.945915" lon="8.658978">
<ele>346.0</ele>
<speed>4.3</speed>
<course>134.1</course>
<desc>Speed 4.3 km/h Distance 6.55 km</desc>
<time>2010-02-27T11:20:03.24</time>
<name>4638</name>
</trkpt>
<trkpt lat="48.945903" lon="8.658997">
<ele>346.0</ele>
<speed>4.9</speed>
<course>137.8</course>
<desc>Speed 4.9 km/h Distance 6.55 km</desc>
<time>2010-02-27T11:20:04.24</time>
<name>4639</name>
</trkpt>
<trkpt lat="48.945890" lon="8.659015">
<ele>346.5</ele>
<speed>5.1</speed>
<course>129.6</course>
<desc>Speed 5.1 km/h Distance 6.55 km</desc>
<time>2010-02-27T11:20:05.24</time>
<name>4640</name>
</trkpt>
<trkpt lat="48.945880" lon="8.659033">
<ele>346.5</ele>
<speed>5.0</speed>
<course>135.4</course>
<desc>Speed 5.0 km/h Distance 6.55 km</desc>
<time>2010-02-27T11:20:06.24</time>
<name>4641</name>
</trkpt>
<trkpt lat="48.945870" lon="8.659048">
<ele>346.5</ele>
<speed>5.0</speed>
<course>135.4</course>
<desc>Speed 5.0 km/h Distance 6.55 km</desc>
<time>2010-02-27T11:20:07.24</time>
<name>4642</name>
</trkpt>
<trkpt lat="48.945860" lon="8.659063">
<ele>346.5</ele>
<speed>4.6</speed>
<course>132.4</course>
<desc>Speed 4.6 km/h Distance 6.55 km</desc>
<time>2010-02-27T11:20:08.25</time>
<name>4643</name>
</trkpt>
<trkpt lat="48.945850" lon="8.659080">
<ele>346.5</ele>
<speed>5.3</speed>
<course>130.2</course>
<desc>Speed 5.3 km/h Distance 6.56 km</desc>
<time>2010-02-27T11:20:09.24</time>
<name>4644</name>
</trkpt>
<trkpt lat="48.945842" lon="8.659095">
<ele>346.5</ele>
<speed>5.3</speed>
<course>135.4</course>
<desc>Speed 5.3 km/h Distance 6.56 km</desc>
<time>2010-02-27T11:20:10.25</time>
<name>4645</name>
</trkpt>
<trkpt lat="48.945832" lon="8.659110">
<ele>346.5</ele>
<speed>4.9</speed>
<course>142.5</course>
<desc>Speed 4.9 km/h Distance 6.56 km</desc>
<time>2010-02-27T11:20:11.24</time>
<name>4646</name>
</trkpt>
<trkpt lat="48.945822" lon="8.659122">
<ele>346.5</ele>
<speed>4.6</speed>
<course>135.4</course>
<desc>Speed 4.6 km/h Distance 6.56 km</desc>
<time>2010-02-27T11:20:12.24</time>
<name>4647</name>
</trkpt>
<trkpt lat="48.945812" lon="8.659137">
<ele>346.5</ele>
<speed>4.7</speed>
<course>132.4</course>
<desc>Speed 4.7 km/h Distance 6.56 km</desc>
<time>2010-02-27T11:20:13.25</time>
<name>4648</name>
</trkpt>
<trkpt lat="48.945802" lon="8.659153">
<ele>346.5</ele>
<speed>5.1</speed>
<course>134.0</course>
<desc>Speed 5.1 km/h Distance 6.56 km</desc>
<time>2010-02-27T11:20:14.24</time>
<name>4649</name>
</trkpt>
<trkpt lat="48.945790" lon="8.659172">
<ele>346.5</ele>
<speed>5.7</speed>
<course>146.8</course>
<desc>Speed 5.7 km/h Distance 6.57 km</desc>
<time>2010-02-27T11:20:15.24</time>
<name>4650</name>
</trkpt>
<trkpt lat="48.945782" lon="8.659180">
<ele>346.5</ele>
<speed>4.3</speed>
<course>146.8</course>
<desc>Speed 4.3 km/h Distance 6.57 km</desc>
<time>2010-02-27T11:20:16.24</time>
<name>4651</name>
</trkpt>
<trkpt lat="48.945772" lon="8.659190">
<ele>346.5</ele>
<speed>4.2</speed>
<course>90.0</course>
<desc>Speed 4.2 km/h Distance 6.57 km</desc>
<time>2010-02-27T11:20:17.24</time>
<name>4652</name>
</trkpt>
<trkpt lat="48.945772" lon="8.659227">
<ele>346.5</ele>
<speed>9.8</speed>
<course>127.3</course>
<desc>Speed 9.8 km/h Distance 6.57 km</desc>
<time>2010-02-27T11:20:18.24</time>
<name>4653</name>
</trkpt>
<trkpt lat="48.945765" lon="8.659240">
<ele>346.5</ele>
<speed>5.0</speed>
<course>135.4</course>
<desc>Speed 5.0 km/h Distance 6.57 km</desc>
<time>2010-02-27T11:20:19.24</time>
<name>4654</name>
</trkpt>
<trkpt lat="48.945755" lon="8.659255">
<ele>346.5</ele>
<speed>5.3</speed>
<course>146.6</course>
<desc>Speed 5.3 km/h Distance 6.57 km</desc>
<time>2010-02-27T11:20:20.24</time>
<name>4655</name>
</trkpt>
<trkpt lat="48.945743" lon="8.659267">
<ele>346.5</ele>
<speed>5.6</speed>
<course>140.6</course>
<desc>Speed 5.6 km/h Distance 6.58 km</desc>
<time>2010-02-27T11:20:21.23</time>
<name>4656</name>
</trkpt>
<trkpt lat="48.945730" lon="8.659283">
<ele>346.5</ele>
<speed>6.6</speed>
<course>134.1</course>
<desc>Speed 6.6 km/h Distance 6.58 km</desc>
<time>2010-02-27T11:20:22.23</time>
<name>4657</name>
</trkpt>
<trkpt lat="48.945718" lon="8.659302">
<ele>346.5</ele>
<speed>6.8</speed>
<course>132.4</course>
<desc>Speed 6.8 km/h Distance 6.58 km</desc>
<time>2010-02-27T11:20:23.24</time>
<name>4658</name>
</trkpt>
<trkpt lat="48.945708" lon="8.659318">
<ele>346.5</ele>
<speed>5.2</speed>
<course>136.8</course>
<desc>Speed 5.2 km/h Distance 6.58 km</desc>
<time>2010-02-27T11:20:24.24</time>
<name>4659</name>
</trkpt>
<trkpt lat="48.945697" lon="8.659335">
<ele>346.5</ele>
<speed>5.3</speed>
<course>150.6</course>
<desc>Speed 5.3 km/h Distance 6.58 km</desc>
<time>2010-02-27T11:20:25.23</time>
<name>4660</name>
</trkpt>
<trkpt lat="48.945685" lon="8.659345">
<ele>346.5</ele>
<speed>4.7</speed>
<course>169.6</course>
<desc>Speed 4.7 km/h Distance 6.58 km</desc>
<time>2010-02-27T11:20:26.24</time>
<name>4661</name>
</trkpt>
<trkpt lat="48.945673" lon="8.659348">
<ele>347.0</ele>
<speed>4.8</speed>
<course>218.8</course>
<desc>Speed 4.8 km/h Distance 6.59 km</desc>
<time>2010-02-27T11:20:27.24</time>
<name>4662</name>
</trkpt>
<trkpt lat="48.945658" lon="8.659330">
<ele>347.0</ele>
<speed>7.7</speed>
<course>167.4</course>
<desc>Speed 7.7 km/h Distance 6.59 km</desc>
<time>2010-02-27T11:20:28.23</time>
<name>4663</name>
</trkpt>
<trkpt lat="48.945648" lon="8.659333">
<ele>347.0</ele>
<speed>3.3</speed>
<course>125.1</course>
<desc>Speed 3.3 km/h Distance 6.59 km</desc>
<time>2010-02-27T11:20:29.24</time>
<name>4664</name>
</trkpt>
<trkpt lat="48.945638" lon="8.659355">
<ele>347.0</ele>
<speed>5.3</speed>
<course>136.7</course>
<desc>Speed 5.3 km/h Distance 6.59 km</desc>
<time>2010-02-27T11:20:30.23</time>
<name>4665</name>
</trkpt>
<trkpt lat="48.945627" lon="8.659372">
<ele>347.0</ele>
<speed>5.6</speed>
<course>130.2</course>
<desc>Speed 5.6 km/h Distance 6.59 km</desc>
<time>2010-02-27T11:20:31.23</time>
<name>4666</name>
</trkpt>
<trkpt lat="48.945618" lon="8.659387">
<ele>347.0</ele>
<speed>5.0</speed>
<course>135.5</course>
<desc>Speed 5.0 km/h Distance 6.59 km</desc>
<time>2010-02-27T11:20:32.24</time>
<name>4667</name>
</trkpt>
<trkpt lat="48.945608" lon="8.659402">
<ele>347.0</ele>
<speed>4.5</speed>
<course>129.7</course>
<desc>Speed 4.5 km/h Distance 6.60 km</desc>
<time>2010-02-27T11:20:33.24</time>
<name>4668</name>
</trkpt>
<trkpt lat="48.945598" lon="8.659420">
<ele>347.5</ele>
<speed>4.2</speed>
<course>127.3</course>
<desc>Speed 4.2 km/h Distance 6.60 km</desc>
<time>2010-02-27T11:20:34.24</time>
<name>4669</name>
</trkpt>
<trkpt lat="48.945587" lon="8.659443">
<ele>347.5</ele>
<speed>4.6</speed>
<course>125.1</course>
<desc>Speed 4.6 km/h Distance 6.60 km</desc>
<time>2010-02-27T11:20:35.24</time>
<name>4670</name>
</trkpt>
<trkpt lat="48.945577" lon="8.659465">
<ele>347.5</ele>
<speed>6.2</speed>
<course>108.7</course>
<desc>Speed 6.2 km/h Distance 6.60 km</desc>
<time>2010-02-27T11:20:36.24</time>
<name>4671</name>
</trkpt>
<trkpt lat="48.945573" lon="8.659480">
<ele>347.5</ele>
<speed>3.3</speed>
<course>138.7</course>
<desc>Speed 3.3 km/h Distance 6.60 km</desc>
<time>2010-02-27T11:20:37.24</time>
<name>4672</name>
</trkpt>
<trkpt lat="48.945563" lon="8.659493">
<ele>348.0</ele>
<speed>4.8</speed>
<course>130.2</course>
<desc>Speed 4.8 km/h Distance 6.60 km</desc>
<time>2010-02-27T11:20:38.24</time>
<name>4673</name>
</trkpt>
<trkpt lat="48.945555" lon="8.659508">
<ele>348.0</ele>
<speed>5.1</speed>
<course>127.3</course>
<desc>Speed 5.1 km/h Distance 6.61 km</desc>
<time>2010-02-27T11:20:39.24</time>
<name>4674</name>
</trkpt>
<trkpt lat="48.945547" lon="8.659525">
<ele>348.0</ele>
<speed>4.8</speed>
<course>139.8</course>
<desc>Speed 4.8 km/h Distance 6.61 km</desc>
<time>2010-02-27T11:20:40.23</time>
<name>4675</name>
</trkpt>
<trkpt lat="48.945535" lon="8.659540">
<ele>348.0</ele>
<speed>4.5</speed>
<course>127.3</course>
<desc>Speed 4.5 km/h Distance 6.61 km</desc>
<time>2010-02-27T11:20:41.23</time>
<name>4676</name>
</trkpt>
<trkpt lat="48.945528" lon="8.659553">
<ele>348.0</ele>
<speed>4.3</speed>
<course>150.0</course>
<desc>Speed 4.3 km/h Distance 6.61 km</desc>
<time>2010-02-27T11:20:42.23</time>
<name>4677</name>
</trkpt>
<trkpt lat="48.945515" lon="8.659565">
<ele>347.5</ele>
<speed>4.0</speed>
<course>143.1</course>
<desc>Speed 4.0 km/h Distance 6.61 km</desc>
<time>2010-02-27T11:20:43.24</time>
<name>4678</name>
</trkpt>
<trkpt lat="48.945503" lon="8.659578">
<ele>347.5</ele>
<speed>4.5</speed>
<course>141.9</course>
<desc>Speed 4.5 km/h Distance 6.61 km</desc>
<time>2010-02-27T11:20:44.23</time>
<name>4679</name>
</trkpt>
<trkpt lat="48.945495" lon="8.659588">
<ele>347.5</ele>
<speed>4.6</speed>
<course>133.5</course>
<desc>Speed 4.6 km/h Distance 6.61 km</desc>
<time>2010-02-27T11:20:45.24</time>
<name>4680</name>
</trkpt>
<trkpt lat="48.945487" lon="8.659602">
<ele>348.0</ele>
<speed>4.7</speed>
<course>105.0</course>
<desc>Speed 4.7 km/h Distance 6.62 km</desc>
<time>2010-02-27T11:20:46.23</time>
<name>4681</name>
</trkpt>
<trkpt lat="48.945482" lon="8.659630">
<ele>347.5</ele>
<speed>7.1</speed>
<course>159.4</course>
<desc>Speed 7.1 km/h Distance 6.62 km</desc>
<time>2010-02-27T11:20:47.23</time>
<name>4682</name>
</trkpt>
<trkpt lat="48.945470" lon="8.659637">
<ele>347.5</ele>
<speed>5.2</speed>
<course>133.5</course>
<desc>Speed 5.2 km/h Distance 6.62 km</desc>
<time>2010-02-27T11:20:48.23</time>
<name>4683</name>
</trkpt>
<trkpt lat="48.945462" lon="8.659650">
<ele>347.5</ele>
<speed>4.4</speed>
<course>138.8</course>
<desc>Speed 4.4 km/h Distance 6.62 km</desc>
<time>2010-02-27T11:20:49.23</time>
<name>4684</name>
</trkpt>
<trkpt lat="48.945452" lon="8.659663">
<ele>347.5</ele>
<speed>4.4</speed>
<course>135.3</course>
<desc>Speed 4.4 km/h Distance 6.62 km</desc>
<time>2010-02-27T11:20:50.23</time>
<name>4685</name>
</trkpt>
<trkpt lat="48.945442" lon="8.659678">
<ele>348.0</ele>
<speed>4.2</speed>
<course>136.8</course>
<desc>Speed 4.2 km/h Distance 6.62 km</desc>
<time>2010-02-27T11:20:51.23</time>
<name>4686</name>
</trkpt>
<trkpt lat="48.945430" lon="8.659695">
<ele>348.0</ele>
<speed>4.4</speed>
<course>124.1</course>
<desc>Speed 4.4 km/h Distance 6.63 km</desc>
<time>2010-02-27T11:20:52.23</time>
<name>4687</name>
</trkpt>
<trkpt lat="48.945423" lon="8.659710">
<ele>348.0</ele>
<speed>3.7</speed>
<course>132.4</course>
<desc>Speed 3.7 km/h Distance 6.63 km</desc>
<time>2010-02-27T11:20:53.22</time>
<name>4688</name>
</trkpt>
<trkpt lat="48.945413" lon="8.659727">
<ele>348.0</ele>
<speed>5.0</speed>
<course>135.3</course>
<desc>Speed 5.0 km/h Distance 6.63 km</desc>
<time>2010-02-27T11:20:54.23</time>
<name>4689</name>
</trkpt>
<trkpt lat="48.945403" lon="8.659742">
<ele>348.0</ele>
<speed>4.5</speed>
<course>131.6</course>
<desc>Speed 4.5 km/h Distance 6.63 km</desc>
<time>2010-02-27T11:20:55.22</time>
<name>4690</name>
</trkpt>
<trkpt lat="48.945392" lon="8.659762">
<ele>347.5</ele>
<speed>5.3</speed>
<course>133.6</course>
<desc>Speed 5.3 km/h Distance 6.63 km</desc>
<time>2010-02-27T11:20:56.22</time>
<name>4691</name>
</trkpt>
<trkpt lat="48.945383" lon="8.659775">
<ele>347.5</ele>
<speed>5.0</speed>
<course>134.1</course>
<desc>Speed 5.0 km/h Distance 6.63 km</desc>
<time>2010-02-27T11:20:57.22</time>
<name>4692</name>
</trkpt>
<trkpt lat="48.945372" lon="8.659793">
<ele>347.5</ele>
<speed>5.6</speed>
<course>138.8</course>
<desc>Speed 5.6 km/h Distance 6.64 km</desc>
<time>2010-02-27T11:20:58.22</time>
<name>4693</name>
</trkpt>
<trkpt lat="48.945362" lon="8.659807">
<ele>347.5</ele>
<speed>4.6</speed>
<course>133.4</course>
<desc>Speed 4.6 km/h Distance 6.64 km</desc>
<time>2010-02-27T11:20:59.22</time>
<name>4694</name>
</trkpt>
<trkpt lat="48.945353" lon="8.659820">
<ele>347.5</ele>
<speed>4.3</speed>
<course>137.8</course>
<desc>Speed 4.3 km/h Distance 6.64 km</desc>
<time>2010-02-27T11:21:00.23</time>
<name>4695</name>
</trkpt>
<trkpt lat="48.945340" lon="8.659838">
<ele>347.5</ele>
<speed>5.5</speed>
<course>143.5</course>
<desc>Speed 5.5 km/h Distance 6.64 km</desc>
<time>2010-02-27T11:21:01.23</time>
<name>4696</name>
</trkpt>
<trkpt lat="48.945327" lon="8.659853">
<ele>347.5</ele>
<speed>5.1</speed>
<course>138.8</course>
<desc>Speed 5.1 km/h Distance 6.64 km</desc>
<time>2010-02-27T11:21:02.23</time>
<name>4697</name>
</trkpt>
<trkpt lat="48.945317" lon="8.659867">
<ele>347.5</ele>
<speed>4.5</speed>
<course>141.9</course>
<desc>Speed 4.5 km/h Distance 6.64 km</desc>
<time>2010-02-27T11:21:03.23</time>
<name>4698</name>
</trkpt>
<trkpt lat="48.945308" lon="8.659877">
<ele>347.5</ele>
<speed>3.5</speed>
<course>137.4</course>
<desc>Speed 3.5 km/h Distance 6.64 km</desc>
<time>2010-02-27T11:21:04.23</time>
<name>4699</name>
</trkpt>
<trkpt lat="48.945300" lon="8.659888">
<ele>347.5</ele>
<speed>3.6</speed>
<course>138.8</course>
<desc>Speed 3.6 km/h Distance 6.65 km</desc>
<time>2010-02-27T11:21:05.22</time>
<name>4700</name>
</trkpt>
<trkpt lat="48.945290" lon="8.659902">
<ele>348.0</ele>
<speed>4.1</speed>
<course>142.5</course>
<desc>Speed 4.1 km/h Distance 6.65 km</desc>
<time>2010-02-27T11:21:06.23</time>
<name>4701</name>
</trkpt>
<trkpt lat="48.945280" lon="8.659913">
<ele>348.0</ele>
<speed>3.7</speed>
<course>138.8</course>
<desc>Speed 3.7 km/h Distance 6.65 km</desc>
<time>2010-02-27T11:21:07.23</time>
<name>4702</name>
</trkpt>
<trkpt lat="48.945270" lon="8.659927">
<ele>348.0</ele>
<speed>4.8</speed>
<course>135.4</course>
<desc>Speed 4.8 km/h Distance 6.65 km</desc>
<time>2010-02-27T11:21:08.23</time>
<name>4703</name>
</trkpt>
<trkpt lat="48.945260" lon="8.659942">
<ele>348.0</ele>
<speed>5.0</speed>
<course>130.2</course>
<desc>Speed 5.0 km/h Distance 6.65 km</desc>
<time>2010-02-27T11:21:09.22</time>
<name>4704</name>
</trkpt>
<trkpt lat="48.945252" lon="8.659957">
<ele>348.0</ele>
<speed>4.7</speed>
<course>136.7</course>
<desc>Speed 4.7 km/h Distance 6.65 km</desc>
<time>2010-02-27T11:21:10.24</time>
<name>4705</name>
</trkpt>
<trkpt lat="48.945240" lon="8.659973">
<ele>348.0</ele>
<speed>5.5</speed>
<course>146.6</course>
<desc>Speed 5.5 km/h Distance 6.65 km</desc>
<time>2010-02-27T11:21:11.23</time>
<name>4706</name>
</trkpt>
<trkpt lat="48.945228" lon="8.659985">
<ele>348.0</ele>
<speed>5.1</speed>
<course>139.8</course>
<desc>Speed 5.1 km/h Distance 6.66 km</desc>
<time>2010-02-27T11:21:12.24</time>
<name>4707</name>
</trkpt>
<trkpt lat="48.945217" lon="8.660000">
<ele>348.0</ele>
<speed>5.0</speed>
<course>127.2</course>
<desc>Speed 5.0 km/h Distance 6.66 km</desc>
<time>2010-02-27T11:21:13.22</time>
<name>4708</name>
</trkpt>
<trkpt lat="48.945210" lon="8.660013">
<ele>348.0</ele>
<speed>4.4</speed>
<course>142.7</course>
<desc>Speed 4.4 km/h Distance 6.66 km</desc>
<time>2010-02-27T11:21:14.22</time>
<name>4709</name>
</trkpt>
<trkpt lat="48.945200" lon="8.660025">
<ele>348.0</ele>
<speed>4.5</speed>
<course>135.5</course>
<desc>Speed 4.5 km/h Distance 6.66 km</desc>
<time>2010-02-27T11:21:15.22</time>
<name>4710</name>
</trkpt>
<trkpt lat="48.945193" lon="8.660035">
<ele>348.0</ele>
<speed>3.6</speed>
<course>137.4</course>
<desc>Speed 3.6 km/h Distance 6.66 km</desc>
<time>2010-02-27T11:21:16.22</time>
<name>4711</name>
</trkpt>
<trkpt lat="48.945185" lon="8.660047">
<ele>348.0</ele>
<speed>4.5</speed>
<course>146.9</course>
<desc>Speed 4.5 km/h Distance 6.66 km</desc>
<time>2010-02-27T11:21:17.22</time>
<name>4712</name>
</trkpt>
<trkpt lat="48.945173" lon="8.660058">
<ele>348.0</ele>
<speed>4.5</speed>
<course>127.3</course>
<desc>Speed 4.5 km/h Distance 6.66 km</desc>
<time>2010-02-27T11:21:18.22</time>
<name>4713</name>
</trkpt>
<trkpt lat="48.945163" lon="8.660078">
<ele>348.0</ele>
<speed>5.3</speed>
<course>116.9</course>
<desc>Speed 5.3 km/h Distance 6.67 km</desc>
<time>2010-02-27T11:21:19.22</time>
<name>4714</name>
</trkpt>
<trkpt lat="48.945157" lon="8.660098">
<ele>348.0</ele>
<speed>4.5</speed>
<course>127.3</course>
<desc>Speed 4.5 km/h Distance 6.67 km</desc>
<time>2010-02-27T11:21:20.22</time>
<name>4715</name>
</trkpt>
<trkpt lat="48.945148" lon="8.660115">
<ele>348.5</ele>
<speed>4.1</speed>
<course>130.3</course>
<desc>Speed 4.1 km/h Distance 6.67 km</desc>
<time>2010-02-27T11:21:21.22</time>
<name>4716</name>
</trkpt>
<trkpt lat="48.945140" lon="8.660130">
<ele>348.5</ele>
<speed>4.4</speed>
<course>146.9</course>
<desc>Speed 4.4 km/h Distance 6.67 km</desc>
<time>2010-02-27T11:21:22.22</time>
<name>4717</name>
</trkpt>
<trkpt lat="48.945128" lon="8.660142">
<ele>348.5</ele>
<speed>4.1</speed>
<course>138.8</course>
<desc>Speed 4.1 km/h Distance 6.67 km</desc>
<time>2010-02-27T11:21:23.22</time>
<name>4718</name>
</trkpt>
<trkpt lat="48.945118" lon="8.660155">
<ele>348.5</ele>
<speed>5.0</speed>
<course>127.2</course>
<desc>Speed 5.0 km/h Distance 6.67 km</desc>
<time>2010-02-27T11:21:24.21</time>
<name>4719</name>
</trkpt>
<trkpt lat="48.945112" lon="8.660168">
<ele>348.5</ele>
<speed>4.3</speed>
<course>153.8</course>
<desc>Speed 4.3 km/h Distance 6.68 km</desc>
<time>2010-02-27T11:21:25.21</time>
<name>4720</name>
</trkpt>
<trkpt lat="48.945098" lon="8.660178">
<ele>349.0</ele>
<speed>5.1</speed>
<course>114.5</course>
<desc>Speed 5.1 km/h Distance 6.68 km</desc>
<time>2010-02-27T11:21:26.21</time>
<name>4721</name>
</trkpt>
<trkpt lat="48.945093" lon="8.660195">
<ele>349.0</ele>
<speed>3.7</speed>
<course>135.5</course>
<desc>Speed 3.7 km/h Distance 6.68 km</desc>
<time>2010-02-27T11:21:27.21</time>
<name>4722</name>
</trkpt>
<trkpt lat="48.945083" lon="8.660210">
<ele>349.0</ele>
<speed>4.5</speed>
<course>127.3</course>
<desc>Speed 4.5 km/h Distance 6.68 km</desc>
<time>2010-02-27T11:21:28.22</time>
<name>4723</name>
</trkpt>
<trkpt lat="48.945073" lon="8.660230">
<ele>349.0</ele>
<speed>4.6</speed>
<course>135.5</course>
<desc>Speed 4.6 km/h Distance 6.68 km</desc>
<time>2010-02-27T11:21:29.21</time>
<name>4724</name>
</trkpt>
<trkpt lat="48.945063" lon="8.660245">
<ele>349.0</ele>
<speed>4.7</speed>
<course>125.1</course>
<desc>Speed 4.7 km/h Distance 6.68 km</desc>
<time>2010-02-27T11:21:30.21</time>
<name>4725</name>
</trkpt>
<trkpt lat="48.945053" lon="8.660267">
<ele>349.5</ele>
<speed>5.2</speed>
<course>118.5</course>
<desc>Speed 5.2 km/h Distance 6.69 km</desc>
<time>2010-02-27T11:21:31.21</time>
<name>4726</name>
</trkpt>
<trkpt lat="48.945045" lon="8.660290">
<ele>349.5</ele>
<speed>4.8</speed>
<course>134.4</course>
<desc>Speed 4.8 km/h Distance 6.69 km</desc>
<time>2010-02-27T11:21:32.21</time>
<name>4727</name>
</trkpt>
<trkpt lat="48.945030" lon="8.660313">
<ele>349.5</ele>
<speed>5.3</speed>
<course>143.5</course>
<desc>Speed 5.3 km/h Distance 6.69 km</desc>
<time>2010-02-27T11:21:33.22</time>
<name>4728</name>
</trkpt>
<trkpt lat="48.945017" lon="8.660328">
<ele>349.5</ele>
<speed>4.6</speed>
<course>146.7</course>
<desc>Speed 4.6 km/h Distance 6.69 km</desc>
<time>2010-02-27T11:21:34.22</time>
<name>4729</name>
</trkpt>
<trkpt lat="48.945002" lon="8.660343">
<ele>350.0</ele>
<speed>4.9</speed>
<course>143.5</course>
<desc>Speed 4.9 km/h Distance 6.69 km</desc>
<time>2010-02-27T11:21:35.22</time>
<name>4730</name>
</trkpt>
<trkpt lat="48.944988" lon="8.660358">
<ele>349.5</ele>
<speed>4.7</speed>
<course>138.0</course>
<desc>Speed 4.7 km/h Distance 6.70 km</desc>
<time>2010-02-27T11:21:36.22</time>
<name>4731</name>
</trkpt>
<trkpt lat="48.944975" lon="8.660377">
<ele>349.5</ele>
<speed>4.4</speed>
<course>137.4</course>
<desc>Speed 4.4 km/h Distance 6.70 km</desc>
<time>2010-02-27T11:21:37.21</time>
<name>4732</name>
</trkpt>
<trkpt lat="48.944967" lon="8.660388">
<ele>349.5</ele>
<speed>4.7</speed>
<course>135.3</course>
<desc>Speed 4.7 km/h Distance 6.70 km</desc>
<time>2010-02-27T11:21:38.21</time>
<name>4733</name>
</trkpt>
<trkpt lat="48.944957" lon="8.660403">
<ele>349.5</ele>
<speed>5.0</speed>
<course>146.7</course>
<desc>Speed 5.0 km/h Distance 6.70 km</desc>
<time>2010-02-27T11:21:39.21</time>
<name>4734</name>
</trkpt>
<trkpt lat="48.944945" lon="8.660415">
<ele>349.5</ele>
<speed>4.9</speed>
<course>141.9</course>
<desc>Speed 4.9 km/h Distance 6.70 km</desc>
<time>2010-02-27T11:21:40.21</time>
<name>4735</name>
</trkpt>
<trkpt lat="48.944937" lon="8.660425">
<ele>349.5</ele>
<speed>4.5</speed>
<course>137.4</course>
<desc>Speed 4.5 km/h Distance 6.70 km</desc>
<time>2010-02-27T11:21:41.21</time>
<name>4736</name>
</trkpt>
<trkpt lat="48.944928" lon="8.660437">
<ele>349.5</ele>
<speed>4.4</speed>
<course>135.5</course>
<desc>Speed 4.4 km/h Distance 6.70 km</desc>
<time>2010-02-27T11:21:42.21</time>
<name>4737</name>
</trkpt>
<trkpt lat="48.944918" lon="8.660452">
<ele>349.5</ele>
<speed>4.7</speed>
<course>142.8</course>
<desc>Speed 4.7 km/h Distance 6.71 km</desc>
<time>2010-02-27T11:21:43.21</time>
<name>4738</name>
</trkpt>
<trkpt lat="48.944908" lon="8.660463">
<ele>349.5</ele>
<speed>4.6</speed>
<course>138.8</course>
<desc>Speed 4.6 km/h Distance 6.71 km</desc>
<time>2010-02-27T11:21:44.21</time>
<name>4739</name>
</trkpt>
<trkpt lat="48.944898" lon="8.660477">
<ele>349.5</ele>
<speed>5.1</speed>
<course>141.9</course>
<desc>Speed 5.1 km/h Distance 6.71 km</desc>
<time>2010-02-27T11:21:45.21</time>
<name>4740</name>
</trkpt>
<trkpt lat="48.944890" lon="8.660487">
<ele>349.5</ele>
<speed>3.9</speed>
<course>141.9</course>
<desc>Speed 3.9 km/h Distance 6.71 km</desc>
<time>2010-02-27T11:21:46.21</time>
<name>4741</name>
</trkpt>
<trkpt lat="48.944882" lon="8.660497">
<ele>350.0</ele>
<speed>4.1</speed>
<course>116.9</course>
<desc>Speed 4.1 km/h Distance 6.71 km</desc>
<time>2010-02-27T11:21:47.21</time>
<name>4742</name>
</trkpt>
<trkpt lat="48.944877" lon="8.660512">
<ele>350.0</ele>
<speed>3.5</speed>
<course>138.8</course>
<desc>Speed 3.5 km/h Distance 6.71 km</desc>
<time>2010-02-27T11:21:48.21</time>
<name>4743</name>
</trkpt>
<trkpt lat="48.944867" lon="8.660525">
<ele>350.0</ele>
<speed>4.7</speed>
<course>127.3</course>
<desc>Speed 4.7 km/h Distance 6.71 km</desc>
<time>2010-02-27T11:21:49.21</time>
<name>4744</name>
</trkpt>
<trkpt lat="48.944858" lon="8.660542">
<ele>350.5</ele>
<speed>4.4</speed>
<course>127.3</course>
<desc>Speed 4.4 km/h Distance 6.71 km</desc>
<time>2010-02-27T11:21:50.21</time>
<name>4745</name>
</trkpt>
<trkpt lat="48.944848" lon="8.660562">
<ele>350.5</ele>
<speed>4.9</speed>
<course>130.1</course>
<desc>Speed 4.9 km/h Distance 6.72 km</desc>
<time>2010-02-27T11:21:51.21</time>
<name>4746</name>
</trkpt>
<trkpt lat="48.944840" lon="8.660577">
<ele>350.5</ele>
<speed>3.6</speed>
<course>131.6</course>
<desc>Speed 3.6 km/h Distance 6.72 km</desc>
<time>2010-02-27T11:21:52.21</time>
<name>4747</name>
</trkpt>
<trkpt lat="48.944828" lon="8.660597">
<ele>351.0</ele>
<speed>4.6</speed>
<course>135.5</course>
<desc>Speed 4.6 km/h Distance 6.72 km</desc>
<time>2010-02-27T11:21:53.21</time>
<name>4748</name>
</trkpt>
<trkpt lat="48.944815" lon="8.660617">
<ele>351.5</ele>
<speed>5.1</speed>
<course>149.4</course>
<desc>Speed 5.1 km/h Distance 6.72 km</desc>
<time>2010-02-27T11:21:54.21</time>
<name>4749</name>
</trkpt>
<trkpt lat="48.944798" lon="8.660632">
<ele>351.5</ele>
<speed>5.7</speed>
<course>129.7</course>
<desc>Speed 5.7 km/h Distance 6.72 km</desc>
<time>2010-02-27T11:21:55.21</time>
<name>4750</name>
</trkpt>
<trkpt lat="48.944788" lon="8.660650">
<ele>351.5</ele>
<speed>3.7</speed>
<course>130.2</course>
<desc>Speed 3.7 km/h Distance 6.73 km</desc>
<time>2010-02-27T11:21:56.21</time>
<name>4751</name>
</trkpt>
<trkpt lat="48.944780" lon="8.660665">
<ele>351.5</ele>
<speed>4.1</speed>
<course>131.6</course>
<desc>Speed 4.1 km/h Distance 6.73 km</desc>
<time>2010-02-27T11:21:57.21</time>
<name>4752</name>
</trkpt>
<trkpt lat="48.944768" lon="8.660685">
<ele>352.0</ele>
<speed>4.6</speed>
<course>172.3</course>
<desc>Speed 4.6 km/h Distance 6.73 km</desc>
<time>2010-02-27T11:21:58.21</time>
<name>4753</name>
</trkpt>
<trkpt lat="48.944752" lon="8.660688">
<ele>351.5</ele>
<speed>5.6</speed>
<course>172.3</course>
<desc>Speed 5.6 km/h Distance 6.73 km</desc>
<time>2010-02-27T11:21:59.21</time>
<name>4754</name>
</trkpt>
<trkpt lat="48.944743" lon="8.660690">
<ele>351.5</ele>
<speed>3.5</speed>
<course>126.5</course>
<desc>Speed 3.5 km/h Distance 6.73 km</desc>
<time>2010-02-27T11:22:00.21</time>
<name>4755</name>
</trkpt>
<trkpt lat="48.944740" lon="8.660697">
<ele>352.0</ele>
<speed>0.9</speed>
<course>90.0</course>
<desc>Speed 0.9 km/h Distance 6.73 km</desc>
<time>2010-02-27T11:22:01.21</time>
<name>4756</name>
</trkpt>
<trkpt lat="48.944740" lon="8.660698">
<ele>352.0</ele>
<speed>0.7</speed>
<course>241.5</course>
<desc>Speed 0.7 km/h Distance 6.73 km</desc>
<time>2010-02-27T11:22:02.21</time>
<name>4757</name>
</trkpt>
<trkpt lat="48.944715" lon="8.660628">
<ele>352.0</ele>
<speed>2.8</speed>
<course>146.8</course>
<desc>Speed 2.8 km/h Distance 6.74 km</desc>
<time>2010-02-27T11:22:04.20</time>
<name>4758</name>
</trkpt>
<trkpt lat="48.944707" lon="8.660637">
<ele>352.0</ele>
<speed>2.6</speed>
<course>156.2</course>
<desc>Speed 2.6 km/h Distance 6.74 km</desc>
<time>2010-02-27T11:22:05.21</time>
<name>4759</name>
</trkpt>
<trkpt lat="48.944697" lon="8.660643">
<ele>352.0</ele>
<speed>3.9</speed>
<course>154.8</course>
<desc>Speed 3.9 km/h Distance 6.74 km</desc>
<time>2010-02-27T11:22:06.20</time>
<name>4760</name>
</trkpt>
<trkpt lat="48.944685" lon="8.660652">
<ele>352.0</ele>
<speed>4.1</speed>
<course>174.7</course>
<desc>Speed 4.1 km/h Distance 6.74 km</desc>
<time>2010-02-27T11:22:07.20</time>
<name>4761</name>
</trkpt>
<trkpt lat="48.944672" lon="8.660653">
<ele>352.0</ele>
<speed>4.0</speed>
<course>167.4</course>
<desc>Speed 4.0 km/h Distance 6.74 km</desc>
<time>2010-02-27T11:22:08.20</time>
<name>4762</name>
</trkpt>
<trkpt lat="48.944657" lon="8.660658">
<ele>352.0</ele>
<speed>4.6</speed>
<course>167.4</course>
<desc>Speed 4.6 km/h Distance 6.75 km</desc>
<time>2010-02-27T11:22:09.20</time>
<name>4763</name>
</trkpt>
<trkpt lat="48.944642" lon="8.660663">
<ele>352.0</ele>
<speed>4.6</speed>
<course>183.8</course>
<desc>Speed 4.6 km/h Distance 6.75 km</desc>
<time>2010-02-27T11:22:10.21</time>
<name>4764</name>
</trkpt>
<trkpt lat="48.944627" lon="8.660662">
<ele>352.5</ele>
<speed>5.9</speed>
<course>100.2</course>
<desc>Speed 5.9 km/h Distance 6.75 km</desc>
<time>2010-02-27T11:22:11.20</time>
<name>4765</name>
</trkpt>
<trkpt lat="48.944623" lon="8.660690">
<ele>352.0</ele>
<speed>4.6</speed>
<course>138.8</course>
<desc>Speed 4.6 km/h Distance 6.75 km</desc>
<time>2010-02-27T11:22:12.20</time>
<name>4766</name>
</trkpt>
<trkpt lat="48.944613" lon="8.660703">
<ele>352.0</ele>
<speed>4.0</speed>
<course>127.3</course>
<desc>Speed 4.0 km/h Distance 6.75 km</desc>
<time>2010-02-27T11:22:13.20</time>
<name>4767</name>
</trkpt>
<trkpt lat="48.944603" lon="8.660723">
<ele>352.0</ele>
<speed>4.8</speed>
<course>124.7</course>
<desc>Speed 4.8 km/h Distance 6.75 km</desc>
<time>2010-02-27T11:22:14.19</time>
<name>4768</name>
</trkpt>
<trkpt lat="48.944595" lon="8.660742">
<ele>352.0</ele>
<speed>3.9</speed>
<course>134.1</course>
<desc>Speed 3.9 km/h Distance 6.76 km</desc>
<time>2010-02-27T11:22:15.19</time>
<name>4769</name>
</trkpt>
<trkpt lat="48.944583" lon="8.660760">
<ele>352.5</ele>
<speed>3.6</speed>
<course>125.4</course>
<desc>Speed 3.6 km/h Distance 6.76 km</desc>
<time>2010-02-27T11:22:16.20</time>
<name>4770</name>
</trkpt>
<trkpt lat="48.944572" lon="8.660785">
<ele>352.5</ele>
<speed>4.4</speed>
<course>102.3</course>
<desc>Speed 4.4 km/h Distance 6.76 km</desc>
<time>2010-02-27T11:22:17.19</time>
<name>4771</name>
</trkpt>
<trkpt lat="48.944568" lon="8.660808">
<ele>352.5</ele>
<speed>4.4</speed>
<course>124.4</course>
<desc>Speed 4.4 km/h Distance 6.76 km</desc>
<time>2010-02-27T11:22:18.19</time>
<name>4772</name>
</trkpt>
<trkpt lat="48.944553" lon="8.660842">
<ele>352.5</ele>
<speed>4.6</speed>
<course>131.1</course>
<desc>Speed 4.6 km/h Distance 6.77 km</desc>
<time>2010-02-27T11:22:19.20</time>
<name>4773</name>
</trkpt>
<trkpt lat="48.944547" lon="8.660853">
<ele>352.5</ele>
<speed>4.2</speed>
<course>146.8</course>
<desc>Speed 4.2 km/h Distance 6.77 km</desc>
<time>2010-02-27T11:22:20.19</time>
<name>4774</name>
</trkpt>
<trkpt lat="48.944537" lon="8.660863">
<ele>352.5</ele>
<speed>4.0</speed>
<course>135.5</course>
<desc>Speed 4.0 km/h Distance 6.77 km</desc>
<time>2010-02-27T11:22:21.20</time>
<name>4775</name>
</trkpt>
<trkpt lat="48.944530" lon="8.660873">
<ele>352.5</ele>
<speed>3.5</speed>
<course>135.5</course>
<desc>Speed 3.5 km/h Distance 6.77 km</desc>
<time>2010-02-27T11:22:22.20</time>
<name>4776</name>
</trkpt>
<trkpt lat="48.944523" lon="8.660883">
<ele>352.5</ele>
<speed>2.7</speed>
<course>133.6</course>
<desc>Speed 2.7 km/h Distance 6.77 km</desc>
<time>2010-02-27T11:22:23.20</time>
<name>4777</name>
</trkpt>
<trkpt lat="48.944515" lon="8.660897">
<ele>352.5</ele>
<speed>4.1</speed>
<course>133.5</course>
<desc>Speed 4.1 km/h Distance 6.77 km</desc>
<time>2010-02-27T11:22:24.20</time>
<name>4778</name>
</trkpt>
<trkpt lat="48.944507" lon="8.660910">
<ele>352.5</ele>
<speed>4.7</speed>
<course>138.7</course>
<desc>Speed 4.7 km/h Distance 6.77 km</desc>
<time>2010-02-27T11:22:25.20</time>
<name>4779</name>
</trkpt>
<trkpt lat="48.944497" lon="8.660923">
<ele>352.5</ele>
<speed>4.1</speed>
<course>123.9</course>
<desc>Speed 4.1 km/h Distance 6.77 km</desc>
<time>2010-02-27T11:22:26.19</time>
<name>4780</name>
</trkpt>
<trkpt lat="48.944490" lon="8.660938">
<ele>352.5</ele>
<speed>4.5</speed>
<course>131.0</course>
<desc>Speed 4.5 km/h Distance 6.78 km</desc>
<time>2010-02-27T11:22:27.19</time>
<name>4781</name>
</trkpt>
<trkpt lat="48.944477" lon="8.660962">
<ele>352.5</ele>
<speed>5.4</speed>
<course>130.6</course>
<desc>Speed 5.4 km/h Distance 6.78 km</desc>
<time>2010-02-27T11:22:28.19</time>
<name>4782</name>
</trkpt>
<trkpt lat="48.944462" lon="8.660988">
<ele>352.5</ele>
<speed>5.4</speed>
<course>153.8</course>
<desc>Speed 5.4 km/h Distance 6.78 km</desc>
<time>2010-02-27T11:22:29.19</time>
<name>4783</name>
</trkpt>
<trkpt lat="48.944448" lon="8.660998">
<ele>352.5</ele>
<speed>4.7</speed>
<course>97.2</course>
<desc>Speed 4.7 km/h Distance 6.78 km</desc>
<time>2010-02-27T11:22:30.19</time>
<name>4784</name>
</trkpt>
<trkpt lat="48.944445" lon="8.661038">
<ele>352.5</ele>
<speed>9.3</speed>
<course>109.4</course>
<desc>Speed 9.3 km/h Distance 6.78 km</desc>
<time>2010-02-27T11:22:31.19</time>
<name>4785</name>
</trkpt>
<trkpt lat="48.944440" lon="8.661060">
<ele>352.5</ele>
<speed>4.6</speed>
<course>132.5</course>
<desc>Speed 4.6 km/h Distance 6.79 km</desc>
<time>2010-02-27T11:22:32.19</time>
<name>4786</name>
</trkpt>
<trkpt lat="48.944430" lon="8.661077">
<ele>352.5</ele>
<speed>4.3</speed>
<course>127.3</course>
<desc>Speed 4.3 km/h Distance 6.79 km</desc>
<time>2010-02-27T11:22:33.18</time>
<name>4787</name>
</trkpt>
<trkpt lat="48.944420" lon="8.661097">
<ele>352.5</ele>
<speed>4.8</speed>
<course>112.1</course>
<desc>Speed 4.8 km/h Distance 6.79 km</desc>
<time>2010-02-27T11:22:34.19</time>
<name>4788</name>
</trkpt>
<trkpt lat="48.944413" lon="8.661122">
<ele>352.5</ele>
<speed>4.1</speed>
<course>115.4</course>
<desc>Speed 4.1 km/h Distance 6.79 km</desc>
<time>2010-02-27T11:22:35.19</time>
<name>4789</name>
</trkpt>
<trkpt lat="48.944405" lon="8.661148">
<ele>352.5</ele>
<speed>3.3</speed>
<course>116.8</course>
<desc>Speed 3.3 km/h Distance 6.79 km</desc>
<time>2010-02-27T11:22:36.19</time>
<name>4790</name>
</trkpt>
<trkpt lat="48.944398" lon="8.661168">
<ele>352.5</ele>
<speed>4.3</speed>
<course>108.7</course>
<desc>Speed 4.3 km/h Distance 6.80 km</desc>
<time>2010-02-27T11:22:37.19</time>
<name>4791</name>
</trkpt>
<trkpt lat="48.944392" lon="8.661198">
<ele>353.0</ele>
<speed>7.2</speed>
<course>141.9</course>
<desc>Speed 7.2 km/h Distance 6.80 km</desc>
<time>2010-02-27T11:22:38.19</time>
<name>4792</name>
</trkpt>
<trkpt lat="48.944383" lon="8.661208">
<ele>353.0</ele>
<speed>3.9</speed>
<course>135.5</course>
<desc>Speed 3.9 km/h Distance 6.80 km</desc>
<time>2010-02-27T11:22:39.19</time>
<name>4793</name>
</trkpt>
<trkpt lat="48.944377" lon="8.661218">
<ele>353.0</ele>
<speed>2.9</speed>
<course>133.4</course>
<desc>Speed 2.9 km/h Distance 6.80 km</desc>
<time>2010-02-27T11:22:40.19</time>
<name>4794</name>
</trkpt>
<trkpt lat="48.944368" lon="8.661232">
<ele>353.0</ele>
<speed>3.8</speed>
<course>124.6</course>
<desc>Speed 3.8 km/h Distance 6.80 km</desc>
<time>2010-02-27T11:22:41.19</time>
<name>4795</name>
</trkpt>
<trkpt lat="48.944360" lon="8.661250">
<ele>353.0</ele>
<speed>4.6</speed>
<course>127.3</course>
<desc>Speed 4.6 km/h Distance 6.80 km</desc>
<time>2010-02-27T11:22:42.18</time>
<name>4796</name>
</trkpt>
<trkpt lat="48.944352" lon="8.661267">
<ele>353.0</ele>
<speed>4.8</speed>
<course>127.3</course>
<desc>Speed 4.8 km/h Distance 6.80 km</desc>
<time>2010-02-27T11:22:43.18</time>
<name>4797</name>
</trkpt>
<trkpt lat="48.944338" lon="8.661293">
<ele>353.0</ele>
<speed>4.6</speed>
<course>131.9</course>
<desc>Speed 4.6 km/h Distance 6.81 km</desc>
<time>2010-02-27T11:22:44.19</time>
<name>4798</name>
</trkpt>
<trkpt lat="48.944322" lon="8.661322">
<ele>353.0</ele>
<speed>4.5</speed>
<course>146.8</course>
<desc>Speed 4.5 km/h Distance 6.81 km</desc>
<time>2010-02-27T11:22:45.19</time>
<name>4799</name>
</trkpt>
<trkpt lat="48.944312" lon="8.661332">
<ele>353.0</ele>
<speed>3.6</speed>
<course>139.8</course>
<desc>Speed 3.6 km/h Distance 6.81 km</desc>
<time>2010-02-27T11:22:46.18</time>
<name>4800</name>
</trkpt>
<trkpt lat="48.944300" lon="8.661347">
<ele>353.0</ele>
<speed>3.5</speed>
<course>143.6</course>
<desc>Speed 3.5 km/h Distance 6.81 km</desc>
<time>2010-02-27T11:22:47.18</time>
<name>4801</name>
</trkpt>
<trkpt lat="48.944287" lon="8.661362">
<ele>353.0</ele>
<speed>3.1</speed>
<course>123.3</course>
<desc>Speed 3.1 km/h Distance 6.81 km</desc>
<time>2010-02-27T11:22:48.18</time>
<name>4802</name>
</trkpt>
<trkpt lat="48.944282" lon="8.661373">
<ele>353.0</ele>
<speed>3.5</speed>
<course>121.3</course>
<desc>Speed 3.5 km/h Distance 6.82 km</desc>
<time>2010-02-27T11:22:49.18</time>
<name>4803</name>
</trkpt>
<trkpt lat="48.944275" lon="8.661390">
<ele>353.0</ele>
<speed>4.2</speed>
<course>123.1</course>
<desc>Speed 4.2 km/h Distance 6.82 km</desc>
<time>2010-02-27T11:22:50.18</time>
<name>4804</name>
</trkpt>
<trkpt lat="48.944265" lon="8.661413">
<ele>353.0</ele>
<speed>5.5</speed>
<course>131.6</course>
<desc>Speed 5.5 km/h Distance 6.82 km</desc>
<time>2010-02-27T11:22:51.17</time>
<name>4805</name>
</trkpt>
<trkpt lat="48.944253" lon="8.661433">
<ele>353.0</ele>
<speed>4.0</speed>
<course>134.1</course>
<desc>Speed 4.0 km/h Distance 6.82 km</desc>
<time>2010-02-27T11:22:52.17</time>
<name>4806</name>
</trkpt>
<trkpt lat="48.944242" lon="8.661452">
<ele>353.0</ele>
<speed>4.4</speed>
<course>134.1</course>
<desc>Speed 4.4 km/h Distance 6.82 km</desc>
<time>2010-02-27T11:22:53.17</time>
<name>4807</name>
</trkpt>
<trkpt lat="48.944230" lon="8.661470">
<ele>353.0</ele>
<speed>4.4</speed>
<course>122.3</course>
<desc>Speed 4.4 km/h Distance 6.82 km</desc>
<time>2010-02-27T11:22:54.17</time>
<name>4808</name>
</trkpt>
<trkpt lat="48.944222" lon="8.661490">
<ele>353.0</ele>
<speed>4.5</speed>
<course>142.5</course>
<desc>Speed 4.5 km/h Distance 6.83 km</desc>
<time>2010-02-27T11:22:55.17</time>
<name>4809</name>
</trkpt>
<trkpt lat="48.944212" lon="8.661502">
<ele>353.0</ele>
<speed>3.4</speed>
<course>135.5</course>
<desc>Speed 3.4 km/h Distance 6.83 km</desc>
<time>2010-02-27T11:22:56.18</time>
<name>4810</name>
</trkpt>
<trkpt lat="48.944205" lon="8.661512">
<ele>353.0</ele>
<speed>3.6</speed>
<course>116.9</course>
<desc>Speed 3.6 km/h Distance 6.83 km</desc>
<time>2010-02-27T11:22:57.17</time>
<name>4811</name>
</trkpt>
<trkpt lat="48.944200" lon="8.661527">
<ele>353.0</ele>
<speed>3.4</speed>
<course>124.1</course>
<desc>Speed 3.4 km/h Distance 6.83 km</desc>
<time>2010-02-27T11:22:58.17</time>
<name>4812</name>
</trkpt>
<trkpt lat="48.944193" lon="8.661542">
<ele>353.0</ele>
<speed>3.7</speed>
<course>130.2</course>
<desc>Speed 3.7 km/h Distance 6.83 km</desc>
<time>2010-02-27T11:22:59.18</time>
<name>4813</name>
</trkpt>
<trkpt lat="48.944185" lon="8.661557">
<ele>353.0</ele>
<speed>4.4</speed>
<course>134.1</course>
<desc>Speed 4.4 km/h Distance 6.83 km</desc>
<time>2010-02-27T11:23:00.18</time>
<name>4814</name>
</trkpt>
<trkpt lat="48.944173" lon="8.661575">
<ele>353.0</ele>
<speed>4.6</speed>
<course>151.7</course>
<desc>Speed 4.6 km/h Distance 6.83 km</desc>
<time>2010-02-27T11:23:01.18</time>
<name>4815</name>
</trkpt>
<trkpt lat="48.944163" lon="8.661583">
<ele>353.0</ele>
<speed>4.4</speed>
<course>142.5</course>
<desc>Speed 4.4 km/h Distance 6.84 km</desc>
<time>2010-02-27T11:23:02.18</time>
<name>4816</name>
</trkpt>
<trkpt lat="48.944153" lon="8.661595">
<ele>353.0</ele>
<speed>4.6</speed>
<course>146.8</course>
<desc>Speed 4.6 km/h Distance 6.84 km</desc>
<time>2010-02-27T11:23:03.18</time>
<name>4817</name>
</trkpt>
<trkpt lat="48.944143" lon="8.661605">
<ele>353.0</ele>
<speed>4.0</speed>
<course>133.6</course>
<desc>Speed 4.0 km/h Distance 6.84 km</desc>
<time>2010-02-27T11:23:04.18</time>
<name>4818</name>
</trkpt>
<trkpt lat="48.944135" lon="8.661618">
<ele>353.0</ele>
<speed>4.2</speed>
<course>142.5</course>
<desc>Speed 4.2 km/h Distance 6.84 km</desc>
<time>2010-02-27T11:23:05.17</time>
<name>4819</name>
</trkpt>
<trkpt lat="48.944125" lon="8.661630">
<ele>353.0</ele>
<speed>3.6</speed>
<course>146.6</course>
<desc>Speed 3.6 km/h Distance 6.84 km</desc>
<time>2010-02-27T11:23:06.17</time>
<name>4820</name>
</trkpt>
<trkpt lat="48.944112" lon="8.661643">
<ele>353.0</ele>
<speed>5.2</speed>
<course>143.1</course>
<desc>Speed 5.2 km/h Distance 6.84 km</desc>
<time>2010-02-27T11:23:07.17</time>
<name>4821</name>
</trkpt>
<trkpt lat="48.944100" lon="8.661657">
<ele>353.0</ele>
<speed>4.9</speed>
<course>150.2</course>
<desc>Speed 4.9 km/h Distance 6.85 km</desc>
<time>2010-02-27T11:23:08.17</time>
<name>4822</name>
</trkpt>
<trkpt lat="48.944087" lon="8.661668">
<ele>353.0</ele>
<speed>3.7</speed>
<course>153.8</course>
<desc>Speed 3.7 km/h Distance 6.85 km</desc>
<time>2010-02-27T11:23:09.17</time>
<name>4823</name>
</trkpt>
<trkpt lat="48.944073" lon="8.661678">
<ele>353.0</ele>
<speed>4.2</speed>
<course>135.5</course>
<desc>Speed 4.2 km/h Distance 6.85 km</desc>
<time>2010-02-27T11:23:10.18</time>
<name>4824</name>
</trkpt>
<trkpt lat="48.944063" lon="8.661693">
<ele>353.0</ele>
<speed>4.2</speed>
<course>135.5</course>
<desc>Speed 4.2 km/h Distance 6.85 km</desc>
<time>2010-02-27T11:23:11.17</time>
<name>4825</name>
</trkpt>
<trkpt lat="48.944057" lon="8.661703">
<ele>353.0</ele>
<speed>3.1</speed>
<course>141.9</course>
<desc>Speed 3.1 km/h Distance 6.85 km</desc>
<time>2010-02-27T11:23:12.16</time>
<name>4826</name>
</trkpt>
<trkpt lat="48.944048" lon="8.661713">
<ele>353.0</ele>
<speed>2.7</speed>
<course>146.8</course>
<desc>Speed 2.7 km/h Distance 6.85 km</desc>
<time>2010-02-27T11:23:13.17</time>
<name>4827</name>
</trkpt>
<trkpt lat="48.944042" lon="8.661720">
<ele>353.0</ele>
<speed>2.8</speed>
<course>164.0</course>
<desc>Speed 2.8 km/h Distance 6.85 km</desc>
<time>2010-02-27T11:23:14.17</time>
<name>4828</name>
</trkpt>
<trkpt lat="48.944035" lon="8.661723">
<ele>353.0</ele>
<speed>1.8</speed>
<course>180.0</course>
<desc>Speed 1.8 km/h Distance 6.85 km</desc>
<time>2010-02-27T11:23:15.17</time>
<name>4829</name>
</trkpt>
<trkpt lat="48.944032" lon="8.661723">
<ele>353.0</ele>
<speed>1.2</speed>
<course>12.6</course>
<desc>Speed 1.2 km/h Distance 6.85 km</desc>
<time>2010-02-27T11:23:16.17</time>
<name>4830</name>
</trkpt>
<trkpt lat="48.944033" lon="8.661723">
<ele>353.0</ele>
<speed>0.5</speed>
<course>150.8</course>
<desc>Speed 0.5 km/h Distance 6.85 km</desc>
<time>2010-02-27T11:23:17.17</time>
<name>4831</name>
</trkpt>
<trkpt lat="48.944032" lon="8.661725">
<ele>352.5</ele>
<speed>0.5</speed>
<course>127.0</course>
<desc>Speed 0.5 km/h Distance 6.85 km</desc>
<time>2010-02-27T11:23:18.17</time>
<name>4832</name>
</trkpt>
<trkpt lat="48.944028" lon="8.661732">
<ele>354.0</ele>
<speed>1.5</speed>
<course>90.0</course>
<desc>Speed 1.5 km/h Distance 6.86 km</desc>
<time>2010-02-27T11:23:19.17</time>
<name>4833</name>
</trkpt>
<trkpt lat="48.944028" lon="8.661733">
<ele>354.0</ele>
<speed>0.1</speed>
<course>167.4</course>
<desc>Speed 0.1 km/h Distance 6.86 km</desc>
<time>2010-02-27T11:23:20.17</time>
<name>4834</name>
</trkpt>
<trkpt lat="48.944027" lon="8.661733">
<ele>354.0</ele>
<speed>0.3</speed>
<course>270.0</course>
<desc>Speed 0.3 km/h Distance 6.86 km</desc>
<time>2010-02-27T11:23:21.17</time>
<name>4835</name>
</trkpt>
<trkpt lat="48.944027" lon="8.661732">
<ele>353.5</ele>
<speed>0.1</speed>
<course>270.0</course>
<desc>Speed 0.1 km/h Distance 6.86 km</desc>
<time>2010-02-27T11:23:22.17</time>
<name>4836</name>
</trkpt>
<trkpt lat="48.944027" lon="8.661728">
<ele>353.5</ele>
<speed>1.4</speed>
<course>175.0</course>
<desc>Speed 1.4 km/h Distance 6.86 km</desc>
<time>2010-02-27T11:23:23.17</time>
<name>4837</name>
</trkpt>
<trkpt lat="48.944018" lon="8.661730">
<ele>353.5</ele>
<speed>0.9</speed>
<course>184.4</course>
<desc>Speed 0.9 km/h Distance 6.86 km</desc>
<time>2010-02-27T11:23:24.17</time>
<name>4838</name>
</trkpt>
<trkpt lat="48.944008" lon="8.661728">
<ele>353.5</ele>
<speed>3.6</speed>
<course>165.1</course>
<desc>Speed 3.6 km/h Distance 6.86 km</desc>
<time>2010-02-27T11:23:25.40</time>
<name>4839</name>
</trkpt>
<trkpt lat="48.943992" lon="8.661735">
<ele>354.5</ele>
<speed>7.0</speed>
<course>165.1</course>
<desc>Speed 7.0 km/h Distance 6.86 km</desc>
<time>2010-02-27T11:23:26.16</time>
<name>4840</name>
</trkpt>
<trkpt lat="48.943992" lon="8.661735">
<ele>354.5</ele>
<speed>0.5</speed>
<course>270.0</course>
<desc>Speed 0.5 km/h Distance 6.86 km</desc>
<time>2010-02-27T11:23:27.20</time>
<name>4841</name>
</trkpt>
<trkpt lat="48.943992" lon="8.661733">
<ele>354.5</ele>
<speed>0.4</speed>
<course>270.0</course>
<desc>Speed 0.4 km/h Distance 6.86 km</desc>
<time>2010-02-27T11:23:28.18</time>
<name>4842</name>
</trkpt>
<trkpt lat="48.943992" lon="8.661732">
<ele>354.5</ele>
<speed>0.4</speed>
<course>303.1</course>
<desc>Speed 0.4 km/h Distance 6.86 km</desc>
<time>2010-02-27T11:23:29.18</time>
<name>4843</name>
</trkpt>
<trkpt lat="48.943997" lon="8.661720">
<ele>354.5</ele>
<speed>3.2</speed>
<course>90.0</course>
<desc>Speed 3.2 km/h Distance 6.86 km</desc>
<time>2010-02-27T11:23:30.18</time>
<name>4844</name>
</trkpt>
<trkpt lat="48.943997" lon="8.661733">
<ele>354.5</ele>
<speed>4.4</speed>
<course>192.6</course>
<desc>Speed 4.4 km/h Distance 6.86 km</desc>
<time>2010-02-27T11:23:31.18</time>
<name>4845</name>
</trkpt>
<trkpt lat="48.943995" lon="8.661732">
<ele>354.5</ele>
<speed>1.2</speed>
<course>270.0</course>
<desc>Speed 1.2 km/h Distance 6.86 km</desc>
<time>2010-02-27T11:23:32.18</time>
<name>4846</name>
</trkpt>
<trkpt lat="48.943995" lon="8.661725">
<ele>354.5</ele>
<speed>1.3</speed>
<course>270.0</course>
<desc>Speed 1.3 km/h Distance 6.86 km</desc>
<time>2010-02-27T11:23:33.18</time>
<name>4847</name>
</trkpt>
<trkpt lat="48.943995" lon="8.661720">
<ele>354.5</ele>
<speed>1.0</speed>
<course>337.8</course>
<desc>Speed 1.0 km/h Distance 6.86 km</desc>
<time>2010-02-27T11:23:34.18</time>
<name>4848</name>
</trkpt>
<trkpt lat="48.944000" lon="8.661717">
<ele>354.5</ele>
<speed>0.8</speed>
<course>12.6</course>
<desc>Speed 0.8 km/h Distance 6.86 km</desc>
<time>2010-02-27T11:23:35.18</time>
<name>4849</name>
</trkpt>
<trkpt lat="48.944003" lon="8.661717">
<ele>354.5</ele>
<speed>0.2</speed>
<course>0.0</course>
<desc>Speed 0.2 km/h Distance 6.86 km</desc>
<time>2010-02-27T11:23:36.18</time>
<name>4850</name>
</trkpt>
<trkpt lat="48.944007" lon="8.661717">
<ele>354.0</ele>
<speed>0.3</speed>
<course>350.5</course>
<desc>Speed 0.3 km/h Distance 6.86 km</desc>
<time>2010-02-27T11:23:37.18</time>
<name>4851</name>
</trkpt>
<trkpt lat="48.944018" lon="8.661713">
<ele>354.0</ele>
<speed>0.8</speed>
<course>331.4</course>
<desc>Speed 0.8 km/h Distance 6.87 km</desc>
<time>2010-02-27T11:23:38.18</time>
<name>4852</name>
</trkpt>
<trkpt lat="48.944028" lon="8.661705">
<ele>354.0</ele>
<speed>1.0</speed>
<course>251.3</course>
<desc>Speed 1.0 km/h Distance 6.87 km</desc>
<time>2010-02-27T11:23:39.27</time>
<name>4853</name>
</trkpt>
<trkpt lat="48.944025" lon="8.661690">
<ele>354.0</ele>
<speed>5.4</speed>
<course>251.3</course>
<desc>Speed 5.4 km/h Distance 6.87 km</desc>
<time>2010-02-27T11:23:40.18</time>
<name>4854</name>
</trkpt>
<trkpt lat="48.944022" lon="8.661675">
<ele>354.0</ele>
<speed>5.4</speed>
<course>250.6</course>
<desc>Speed 5.4 km/h Distance 6.87 km</desc>
<time>2010-02-27T11:23:41.37</time>
<name>4855</name>
</trkpt>
<trkpt lat="48.944017" lon="8.661653">
<ele>354.0</ele>
<speed>5.4</speed>
<course>224.5</course>
<desc>Speed 5.4 km/h Distance 6.87 km</desc>
<time>2010-02-27T11:23:43.22</time>
<name>4856</name>
</trkpt>
<trkpt lat="48.944013" lon="8.661648">
<ele>354.0</ele>
<speed>5.4</speed>
<course>233.0</course>
<desc>Speed 5.4 km/h Distance 6.87 km</desc>
<time>2010-02-27T11:23:44.21</time>
<name>4857</name>
</trkpt>
<trkpt lat="48.944010" lon="8.661642">
<ele>354.0</ele>
<speed>5.4</speed>
<course>194.7</course>
<desc>Speed 5.4 km/h Distance 6.87 km</desc>
<time>2010-02-27T11:23:45.29</time>
<name>4858</name>
</trkpt>
<trkpt lat="48.943977" lon="8.661628">
<ele>354.0</ele>
<speed>1.2</speed>
<course>270.0</course>
<desc>Speed 1.2 km/h Distance 6.88 km</desc>
<time>2010-02-27T11:23:47.21</time>
<name>4859</name>
</trkpt>
<trkpt lat="48.943977" lon="8.661625">
<ele>354.0</ele>
<speed>0.4</speed>
<course>211.6</course>
<desc>Speed 0.4 km/h Distance 6.88 km</desc>
<time>2010-02-27T11:23:48.29</time>
<name>4860</name>
</trkpt>
<trkpt lat="48.943973" lon="8.661622">
<ele>354.0</ele>
<speed>0.5</speed>
<course>240.2</course>
<desc>Speed 0.5 km/h Distance 6.88 km</desc>
<time>2010-02-27T11:23:49.23</time>
<name>4861</name>
</trkpt>
<trkpt lat="48.943968" lon="8.661608">
<ele>354.0</ele>
<speed>0.2</speed>
<course>270.0</course>
<desc>Speed 0.2 km/h Distance 6.88 km</desc>
<time>2010-02-27T11:23:51.26</time>
<name>4862</name>
</trkpt>
<trkpt lat="48.943968" lon="8.661603">
<ele>354.0</ele>
<speed>0.4</speed>
<course>257.7</course>
<desc>Speed 0.4 km/h Distance 6.88 km</desc>
<time>2010-02-27T11:23:52.26</time>
<name>4863</name>
</trkpt>
<trkpt lat="48.943967" lon="8.661592">
<ele>354.0</ele>
<speed>2.2</speed>
<course>157.9</course>
<desc>Speed 2.2 km/h Distance 6.88 km</desc>
<time>2010-02-27T11:23:53.26</time>
<name>4864</name>
</trkpt>
<trkpt lat="48.943953" lon="8.661600">
<ele>354.0</ele>
<speed>2.8</speed>
<course>104.2</course>
<desc>Speed 2.8 km/h Distance 6.88 km</desc>
<time>2010-02-27T11:23:54.26</time>
<name>4865</name>
</trkpt>
<trkpt lat="48.943950" lon="8.661620">
<ele>354.0</ele>
<speed>4.6</speed>
<course>141.9</course>
<desc>Speed 4.6 km/h Distance 6.88 km</desc>
<time>2010-02-27T11:23:55.26</time>
<name>4866</name>
</trkpt>
<trkpt lat="48.943942" lon="8.661630">
<ele>354.0</ele>
<speed>3.6</speed>
<course>78.5</course>
<desc>Speed 3.6 km/h Distance 6.88 km</desc>
<time>2010-02-27T11:23:56.26</time>
<name>4867</name>
</trkpt>
<trkpt lat="48.943945" lon="8.661655">
<ele>354.0</ele>
<speed>3.9</speed>
<course>127.6</course>
<desc>Speed 3.9 km/h Distance 6.89 km</desc>
<time>2010-02-27T11:23:57.26</time>
<name>4868</name>
</trkpt>
<trkpt lat="48.943942" lon="8.661662">
<ele>354.0</ele>
<speed>2.3</speed>
<course>95.8</course>
<desc>Speed 2.3 km/h Distance 6.89 km</desc>
<time>2010-02-27T11:23:58.26</time>
<name>4869</name>
</trkpt>
<trkpt lat="48.943940" lon="8.661687">
<ele>353.5</ele>
<speed>5.3</speed>
<course>39.4</course>
<desc>Speed 5.3 km/h Distance 6.89 km</desc>
<time>2010-02-27T11:23:59.26</time>
<name>4870</name>
</trkpt>
<trkpt lat="48.943953" lon="8.661703">
<ele>353.5</ele>
<speed>3.4</speed>
<course>65.9</course>
<desc>Speed 3.4 km/h Distance 6.89 km</desc>
<time>2010-02-27T11:24:00.26</time>
<name>4871</name>
</trkpt>
<trkpt lat="48.943962" lon="8.661732">
<ele>353.5</ele>
<speed>3.6</speed>
<course>50.6</course>
<desc>Speed 3.6 km/h Distance 6.89 km</desc>
<time>2010-02-27T11:24:01.26</time>
<name>4872</name>
</trkpt>
<trkpt lat="48.943973" lon="8.661753">
<ele>353.5</ele>
<speed>1.3</speed>
<course>124.4</course>
<desc>Speed 1.3 km/h Distance 6.89 km</desc>
<time>2010-02-27T11:24:02.26</time>
<name>4873</name>
</trkpt>
<trkpt lat="48.943958" lon="8.661787">
<ele>353.5</ele>
<speed>3.6</speed>
<course>108.7</course>
<desc>Speed 3.6 km/h Distance 6.90 km</desc>
<time>2010-02-27T11:24:04.26</time>
<name>4874</name>
</trkpt>
<trkpt lat="48.943955" lon="8.661802">
<ele>353.5</ele>
<speed>3.0</speed>
<course>99.6</course>
<desc>Speed 3.0 km/h Distance 6.90 km</desc>
<time>2010-02-27T11:24:05.28</time>
<name>4875</name>
</trkpt>
<trkpt lat="48.943953" lon="8.661817">
<ele>353.5</ele>
<speed>0.9</speed>
<course>69.1</course>
<desc>Speed 0.9 km/h Distance 6.90 km</desc>
<time>2010-02-27T11:24:06.28</time>
<name>4876</name>
</trkpt>
<trkpt lat="48.943957" lon="8.661830">
<ele>353.5</ele>
<speed>2.0</speed>
<course>14.1</course>
<desc>Speed 2.0 km/h Distance 6.90 km</desc>
<time>2010-02-27T11:24:07.28</time>
<name>4877</name>
</trkpt>
<trkpt lat="48.943992" lon="8.661843">
<ele>353.5</ele>
<speed>1.5</speed>
<course>102.2</course>
<desc>Speed 1.5 km/h Distance 6.90 km</desc>
<time>2010-02-27T11:24:09.29</time>
<name>4878</name>
</trkpt>
<trkpt lat="48.943990" lon="8.661855">
<ele>353.5</ele>
<speed>2.9</speed>
<course>85.6</course>
<desc>Speed 2.9 km/h Distance 6.91 km</desc>
<time>2010-02-27T11:24:10.29</time>
<name>4879</name>
</trkpt>
<trkpt lat="48.943992" lon="8.661888">
<ele>353.5</ele>
<speed>3.7</speed>
<course>94.8</course>
<desc>Speed 3.7 km/h Distance 6.91 km</desc>
<time>2010-02-27T11:24:11.29</time>
<name>4880</name>
</trkpt>
<trkpt lat="48.943990" lon="8.661918">
<ele>354.0</ele>
<speed>3.9</speed>
<course>116.9</course>
<desc>Speed 3.9 km/h Distance 6.91 km</desc>
<time>2010-02-27T11:24:12.29</time>
<name>4881</name>
</trkpt>
<trkpt lat="48.943983" lon="8.661938">
<ele>354.0</ele>
<speed>5.1</speed>
<course>112.6</course>
<desc>Speed 5.1 km/h Distance 6.91 km</desc>
<time>2010-02-27T11:24:13.29</time>
<name>4882</name>
</trkpt>
<trkpt lat="48.943978" lon="8.661957">
<ele>354.0</ele>
<speed>5.1</speed>
<course>130.3</course>
<desc>Speed 5.1 km/h Distance 6.91 km</desc>
<time>2010-02-27T11:24:14.31</time>
<name>4883</name>
</trkpt>
<trkpt lat="48.943970" lon="8.661972">
<ele>354.0</ele>
<speed>4.3</speed>
<course>119.6</course>
<desc>Speed 4.3 km/h Distance 6.91 km</desc>
<time>2010-02-27T11:24:15.29</time>
<name>4884</name>
</trkpt>
<trkpt lat="48.943965" lon="8.661985">
<ele>354.0</ele>
<speed>2.4</speed>
<course>43.5</course>
<desc>Speed 2.4 km/h Distance 6.92 km</desc>
<time>2010-02-27T11:24:16.29</time>
<name>4885</name>
</trkpt>
<trkpt lat="48.943968" lon="8.661990">
<ele>352.0</ele>
<speed>1.6</speed>
<course>100.8</course>
<desc>Speed 1.6 km/h Distance 6.92 km</desc>
<time>2010-02-27T11:24:17.29</time>
<name>4886</name>
</trkpt>
<trkpt lat="48.943967" lon="8.662003">
<ele>351.5</ele>
<speed>2.1</speed>
<course>114.5</course>
<desc>Speed 2.1 km/h Distance 6.92 km</desc>
<time>2010-02-27T11:24:18.29</time>
<name>4887</name>
</trkpt>
<trkpt lat="48.943962" lon="8.662020">
<ele>351.5</ele>
<speed>3.9</speed>
<course>127.4</course>
<desc>Speed 3.9 km/h Distance 6.92 km</desc>
<time>2010-02-27T11:24:19.29</time>
<name>4888</name>
</trkpt>
<trkpt lat="48.943957" lon="8.662030">
<ele>351.5</ele>
<speed>2.0</speed>
<course>116.9</course>
<desc>Speed 2.0 km/h Distance 6.92 km</desc>
<time>2010-02-27T11:24:20.29</time>
<name>4889</name>
</trkpt>
<trkpt lat="48.943952" lon="8.662045">
<ele>351.5</ele>
<speed>3.3</speed>
<course>90.0</course>
<desc>Speed 3.3 km/h Distance 6.92 km</desc>
<time>2010-02-27T11:24:21.29</time>
<name>4890</name>
</trkpt>
<trkpt lat="48.943952" lon="8.662057">
<ele>351.0</ele>
<speed>1.6</speed>
<course>138.8</course>
<desc>Speed 1.6 km/h Distance 6.92 km</desc>
<time>2010-02-27T11:24:22.29</time>
<name>4891</name>
</trkpt>
<trkpt lat="48.943932" lon="8.662083">
<ele>351.0</ele>
<speed>1.7</speed>
<course>101.2</course>
<desc>Speed 1.7 km/h Distance 6.92 km</desc>
<time>2010-02-27T11:24:24.29</time>
<name>4892</name>
</trkpt>
<trkpt lat="48.943922" lon="8.662160">
<ele>351.0</ele>
<speed>5.6</speed>
<course>129.7</course>
<desc>Speed 5.6 km/h Distance 6.93 km</desc>
<time>2010-02-27T11:24:26.29</time>
<name>4893</name>
</trkpt>
<trkpt lat="48.943912" lon="8.662178">
<ele>351.0</ele>
<speed>3.2</speed>
<course>135.4</course>
<desc>Speed 3.2 km/h Distance 6.93 km</desc>
<time>2010-02-27T11:24:27.29</time>
<name>4894</name>
</trkpt>
<trkpt lat="48.943898" lon="8.662198">
<ele>351.0</ele>
<speed>4.0</speed>
<course>138.8</course>
<desc>Speed 4.0 km/h Distance 6.93 km</desc>
<time>2010-02-27T11:24:28.29</time>
<name>4895</name>
</trkpt>
<trkpt lat="48.943883" lon="8.662218">
<ele>351.0</ele>
<speed>5.9</speed>
<course>146.6</course>
<desc>Speed 5.9 km/h Distance 6.94 km</desc>
<time>2010-02-27T11:24:29.29</time>
<name>4896</name>
</trkpt>
<trkpt lat="48.943870" lon="8.662232">
<ele>351.0</ele>
<speed>5.7</speed>
<course>149.7</course>
<desc>Speed 5.7 km/h Distance 6.94 km</desc>
<time>2010-02-27T11:24:30.29</time>
<name>4897</name>
</trkpt>
<trkpt lat="48.943855" lon="8.662245">
<ele>351.0</ele>
<speed>4.0</speed>
<course>146.8</course>
<desc>Speed 4.0 km/h Distance 6.94 km</desc>
<time>2010-02-27T11:24:31.29</time>
<name>4898</name>
</trkpt>
<trkpt lat="48.943847" lon="8.662253">
<ele>351.0</ele>
<speed>2.7</speed>
<course>147.7</course>
<desc>Speed 2.7 km/h Distance 6.94 km</desc>
<time>2010-02-27T11:24:32.29</time>
<name>4899</name>
</trkpt>
<trkpt lat="48.943803" lon="8.662295">
<ele>351.0</ele>
<speed>4.5</speed>
<course>170.3</course>
<desc>Speed 4.5 km/h Distance 6.95 km</desc>
<time>2010-02-27T11:24:34.29</time>
<name>4900</name>
</trkpt>
<trkpt lat="48.943790" lon="8.662298">
<ele>351.0</ele>
<speed>4.5</speed>
<course>100.8</course>
<desc>Speed 4.5 km/h Distance 6.95 km</desc>
<time>2010-02-27T11:24:35.29</time>
<name>4901</name>
</trkpt>
<trkpt lat="48.943785" lon="8.662338">
<ele>351.0</ele>
<speed>10.0</speed>
<course>151.1</course>
<desc>Speed 10.0 km/h Distance 6.95 km</desc>
<time>2010-02-27T11:24:36.29</time>
<name>4902</name>
</trkpt>
<trkpt lat="48.943775" lon="8.662347">
<ele>350.5</ele>
<speed>3.8</speed>
<course>146.6</course>
<desc>Speed 3.8 km/h Distance 6.95 km</desc>
<time>2010-02-27T11:24:37.29</time>
<name>4903</name>
</trkpt>
<trkpt lat="48.943765" lon="8.662357">
<ele>350.5</ele>
<speed>4.1</speed>
<course>164.0</course>
<desc>Speed 4.1 km/h Distance 6.95 km</desc>
<time>2010-02-27T11:24:38.29</time>
<name>4904</name>
</trkpt>
<trkpt lat="48.943753" lon="8.662362">
<ele>350.5</ele>
<speed>4.1</speed>
<course>142.5</course>
<desc>Speed 4.1 km/h Distance 6.96 km</desc>
<time>2010-02-27T11:24:39.29</time>
<name>4905</name>
</trkpt>
<trkpt lat="48.943743" lon="8.662373">
<ele>350.5</ele>
<speed>3.9</speed>
<course>140.6</course>
<desc>Speed 3.9 km/h Distance 6.96 km</desc>
<time>2010-02-27T11:24:40.29</time>
<name>4906</name>
</trkpt>
<trkpt lat="48.943737" lon="8.662382">
<ele>350.0</ele>
<speed>2.7</speed>
<course>138.7</course>
<desc>Speed 2.7 km/h Distance 6.96 km</desc>
<time>2010-02-27T11:24:41.29</time>
<name>4907</name>
</trkpt>
<trkpt lat="48.943727" lon="8.662395">
<ele>350.0</ele>
<speed>4.9</speed>
<course>142.5</course>
<desc>Speed 4.9 km/h Distance 6.96 km</desc>
<time>2010-02-27T11:24:42.29</time>
<name>4908</name>
</trkpt>
<trkpt lat="48.943717" lon="8.662407">
<ele>350.5</ele>
<speed>4.8</speed>
<course>154.0</course>
<desc>Speed 4.8 km/h Distance 6.96 km</desc>
<time>2010-02-27T11:24:43.29</time>
<name>4909</name>
</trkpt>
<trkpt lat="48.943703" lon="8.662417">
<ele>350.5</ele>
<speed>4.5</speed>
<course>146.7</course>
<desc>Speed 4.5 km/h Distance 6.96 km</desc>
<time>2010-02-27T11:24:44.29</time>
<name>4910</name>
</trkpt>
<trkpt lat="48.943690" lon="8.662430">
<ele>350.5</ele>
<speed>4.7</speed>
<course>140.7</course>
<desc>Speed 4.7 km/h Distance 6.96 km</desc>
<time>2010-02-27T11:24:45.29</time>
<name>4911</name>
</trkpt>
<trkpt lat="48.943677" lon="8.662447">
<ele>350.5</ele>
<speed>4.5</speed>
<course>141.9</course>
<desc>Speed 4.5 km/h Distance 6.97 km</desc>
<time>2010-02-27T11:24:46.29</time>
<name>4912</name>
</trkpt>
<trkpt lat="48.943668" lon="8.662457">
<ele>350.5</ele>
<speed>3.7</speed>
<course>124.1</course>
<desc>Speed 3.7 km/h Distance 6.97 km</desc>
<time>2010-02-27T11:24:47.29</time>
<name>4913</name>
</trkpt>
<trkpt lat="48.943662" lon="8.662472">
<ele>350.5</ele>
<speed>4.7</speed>
<course>161.9</course>
<desc>Speed 4.7 km/h Distance 6.97 km</desc>
<time>2010-02-27T11:24:48.29</time>
<name>4914</name>
</trkpt>
<trkpt lat="48.943648" lon="8.662478">
<ele>350.5</ele>
<speed>5.3</speed>
<course>115.1</course>
<desc>Speed 5.3 km/h Distance 6.97 km</desc>
<time>2010-02-27T11:24:49.29</time>
<name>4915</name>
</trkpt>
<trkpt lat="48.943642" lon="8.662500">
<ele>350.5</ele>
<speed>7.2</speed>
<course>207.9</course>
<desc>Speed 7.2 km/h Distance 6.97 km</desc>
<time>2010-02-27T11:24:50.29</time>
<name>4916</name>
</trkpt>
<trkpt lat="48.943633" lon="8.662493">
<ele>350.5</ele>
<speed>3.6</speed>
<course>156.2</course>
<desc>Speed 3.6 km/h Distance 6.97 km</desc>
<time>2010-02-27T11:24:51.29</time>
<name>4917</name>
</trkpt>
<trkpt lat="48.943623" lon="8.662500">
<ele>350.5</ele>
<speed>3.9</speed>
<course>213.7</course>
<desc>Speed 3.9 km/h Distance 6.97 km</desc>
<time>2010-02-27T11:24:52.29</time>
<name>4918</name>
</trkpt>
<trkpt lat="48.943620" lon="8.662497">
<ele>350.5</ele>
<speed>1.3</speed>
<course>167.4</course>
<desc>Speed 1.3 km/h Distance 6.97 km</desc>
<time>2010-02-27T11:24:53.29</time>
<name>4919</name>
</trkpt>
<trkpt lat="48.943610" lon="8.662500">
<ele>351.0</ele>
<speed>3.9</speed>
<course>169.7</course>
<desc>Speed 3.9 km/h Distance 6.98 km</desc>
<time>2010-02-27T11:24:54.29</time>
<name>4920</name>
</trkpt>
<trkpt lat="48.943603" lon="8.662502">
<ele>351.0</ele>
<speed>2.2</speed>
<course>156.2</course>
<desc>Speed 2.2 km/h Distance 6.98 km</desc>
<time>2010-02-27T11:24:55.29</time>
<name>4921</name>
</trkpt>
<trkpt lat="48.943593" lon="8.662508">
<ele>351.0</ele>
<speed>4.2</speed>
<course>146.8</course>
<desc>Speed 4.2 km/h Distance 6.98 km</desc>
<time>2010-02-27T11:24:56.29</time>
<name>4922</name>
</trkpt>
<trkpt lat="48.943583" lon="8.662518">
<ele>351.0</ele>
<speed>4.6</speed>
<course>151.4</course>
<desc>Speed 4.6 km/h Distance 6.98 km</desc>
<time>2010-02-27T11:24:57.29</time>
<name>4923</name>
</trkpt>
<trkpt lat="48.943573" lon="8.662527">
<ele>351.0</ele>
<speed>4.1</speed>
<course>157.0</course>
<desc>Speed 4.1 km/h Distance 6.98 km</desc>
<time>2010-02-27T11:24:58.29</time>
<name>4924</name>
</trkpt>
<trkpt lat="48.943563" lon="8.662533">
<ele>351.0</ele>
<speed>3.7</speed>
<course>118.6</course>
<desc>Speed 3.7 km/h Distance 6.98 km</desc>
<time>2010-02-27T11:24:59.29</time>
<name>4925</name>
</trkpt>
<trkpt lat="48.943555" lon="8.662557">
<ele>351.0</ele>
<speed>6.8</speed>
<course>129.7</course>
<desc>Speed 6.8 km/h Distance 6.98 km</desc>
<time>2010-02-27T11:25:00.29</time>
<name>4926</name>
</trkpt>
<trkpt lat="48.943545" lon="8.662575">
<ele>351.0</ele>
<speed>5.4</speed>
<course>138.8</course>
<desc>Speed 5.4 km/h Distance 6.98 km</desc>
<time>2010-02-27T11:25:01.29</time>
<name>4927</name>
</trkpt>
<trkpt lat="48.943535" lon="8.662588">
<ele>351.0</ele>
<speed>5.2</speed>
<course>133.6</course>
<desc>Speed 5.2 km/h Distance 6.99 km</desc>
<time>2010-02-27T11:25:02.29</time>
<name>4928</name>
</trkpt>
<trkpt lat="48.943527" lon="8.662602">
<ele>351.0</ele>
<speed>4.3</speed>
<course>142.5</course>
<desc>Speed 4.3 km/h Distance 6.99 km</desc>
<time>2010-02-27T11:25:03.29</time>
<name>4929</name>
</trkpt>
<trkpt lat="48.943517" lon="8.662613">
<ele>351.0</ele>
<speed>4.5</speed>
<course>143.1</course>
<desc>Speed 4.5 km/h Distance 6.99 km</desc>
<time>2010-02-27T11:25:04.29</time>
<name>4930</name>
</trkpt>
<trkpt lat="48.943505" lon="8.662627">
<ele>351.0</ele>
<speed>4.9</speed>
<course>146.6</course>
<desc>Speed 4.9 km/h Distance 6.99 km</desc>
<time>2010-02-27T11:25:05.29</time>
<name>4931</name>
</trkpt>
<trkpt lat="48.943493" lon="8.662638">
<ele>351.0</ele>
<speed>4.8</speed>
<course>159.9</course>
<desc>Speed 4.8 km/h Distance 6.99 km</desc>
<time>2010-02-27T11:25:06.29</time>
<name>4932</name>
</trkpt>
<trkpt lat="48.943478" lon="8.662647">
<ele>351.0</ele>
<speed>4.4</speed>
<course>167.4</course>
<desc>Speed 4.4 km/h Distance 6.99 km</desc>
<time>2010-02-27T11:25:07.29</time>
<name>4933</name>
</trkpt>
<trkpt lat="48.943468" lon="8.662650">
<ele>351.0</ele>
<speed>4.2</speed>
<course>159.1</course>
<desc>Speed 4.2 km/h Distance 7.00 km</desc>
<time>2010-02-27T11:25:08.29</time>
<name>4934</name>
</trkpt>
<trkpt lat="48.943457" lon="8.662657">
<ele>351.5</ele>
<speed>4.0</speed>
<course>151.4</course>
<desc>Speed 4.0 km/h Distance 7.00 km</desc>
<time>2010-02-27T11:25:09.29</time>
<name>4935</name>
</trkpt>
<trkpt lat="48.943447" lon="8.662665">
<ele>351.5</ele>
<speed>4.3</speed>
<course>138.8</course>
<desc>Speed 4.3 km/h Distance 7.00 km</desc>
<time>2010-02-27T11:25:10.29</time>
<name>4936</name>
</trkpt>
<trkpt lat="48.943437" lon="8.662678">
<ele>351.5</ele>
<speed>4.2</speed>
<course>141.9</course>
<desc>Speed 4.2 km/h Distance 7.00 km</desc>
<time>2010-02-27T11:25:11.29</time>
<name>4937</name>
</trkpt>
<trkpt lat="48.943428" lon="8.662688">
<ele>351.5</ele>
<speed>4.4</speed>
<course>146.8</course>
<desc>Speed 4.4 km/h Distance 7.00 km</desc>
<time>2010-02-27T11:25:12.29</time>
<name>4938</name>
</trkpt>
<trkpt lat="48.943420" lon="8.662697">
<ele>351.5</ele>
<speed>4.1</speed>
<course>141.9</course>
<desc>Speed 4.1 km/h Distance 7.00 km</desc>
<time>2010-02-27T11:25:13.29</time>
<name>4939</name>
</trkpt>
<trkpt lat="48.943412" lon="8.662707">
<ele>351.5</ele>
<speed>4.1</speed>
<course>137.4</course>
<desc>Speed 4.1 km/h Distance 7.00 km</desc>
<time>2010-02-27T11:25:14.29</time>
<name>4940</name>
</trkpt>
<trkpt lat="48.943403" lon="8.662718">
<ele>351.5</ele>
<speed>4.1</speed>
<course>137.4</course>
<desc>Speed 4.1 km/h Distance 7.00 km</desc>
<time>2010-02-27T11:25:15.29</time>
<name>4941</name>
</trkpt>
<trkpt lat="48.943395" lon="8.662730">
<ele>351.5</ele>
<speed>4.3</speed>
<course>156.2</course>
<desc>Speed 4.3 km/h Distance 7.01 km</desc>
<time>2010-02-27T11:25:16.29</time>
<name>4942</name>
</trkpt>
<trkpt lat="48.943385" lon="8.662737">
<ele>351.5</ele>
<speed>3.7</speed>
<course>141.9</course>
<desc>Speed 3.7 km/h Distance 7.01 km</desc>
<time>2010-02-27T11:25:17.29</time>
<name>4943</name>
</trkpt>
<trkpt lat="48.943377" lon="8.662747">
<ele>351.5</ele>
<speed>4.1</speed>
<course>154.4</course>
<desc>Speed 4.1 km/h Distance 7.01 km</desc>
<time>2010-02-27T11:25:18.29</time>
<name>4944</name>
</trkpt>
<trkpt lat="48.943370" lon="8.662752">
<ele>351.5</ele>
<speed>2.7</speed>
<course>113.5</course>
<desc>Speed 2.7 km/h Distance 7.01 km</desc>
<time>2010-02-27T11:25:19.29</time>
<name>4945</name>
</trkpt>
<trkpt lat="48.943367" lon="8.662763">
<ele>351.5</ele>
<speed>3.6</speed>
<course>137.5</course>
<desc>Speed 3.6 km/h Distance 7.01 km</desc>
<time>2010-02-27T11:25:20.29</time>
<name>4946</name>
</trkpt>
<trkpt lat="48.943358" lon="8.662775">
<ele>351.5</ele>
<speed>4.6</speed>
<course>159.1</course>
<desc>Speed 4.6 km/h Distance 7.01 km</desc>
<time>2010-02-27T11:25:21.29</time>
<name>4947</name>
</trkpt>
<trkpt lat="48.943347" lon="8.662782">
<ele>351.5</ele>
<speed>4.1</speed>
<course>127.3</course>
<desc>Speed 4.1 km/h Distance 7.01 km</desc>
<time>2010-02-27T11:25:22.29</time>
<name>4948</name>
</trkpt>
<trkpt lat="48.943340" lon="8.662795">
<ele>351.5</ele>
<speed>4.3</speed>
<course>142.5</course>
<desc>Speed 4.3 km/h Distance 7.01 km</desc>
<time>2010-02-27T11:25:23.29</time>
<name>4949</name>
</trkpt>
<trkpt lat="48.943330" lon="8.662807">
<ele>351.5</ele>
<speed>4.2</speed>
<course>146.7</course>
<desc>Speed 4.2 km/h Distance 7.01 km</desc>
<time>2010-02-27T11:25:24.29</time>
<name>4950</name>
</trkpt>
<trkpt lat="48.943318" lon="8.662818">
<ele>351.5</ele>
<speed>3.7</speed>
<course>150.6</course>
<desc>Speed 3.7 km/h Distance 7.02 km</desc>
<time>2010-02-27T11:25:25.29</time>
<name>4951</name>
</trkpt>
<trkpt lat="48.943307" lon="8.662828">
<ele>351.5</ele>
<speed>3.6</speed>
<course>150.2</course>
<desc>Speed 3.6 km/h Distance 7.02 km</desc>
<time>2010-02-27T11:25:26.29</time>
<name>4952</name>
</trkpt>
<trkpt lat="48.943293" lon="8.662840">
<ele>351.5</ele>
<speed>4.7</speed>
<course>168.8</course>
<desc>Speed 4.7 km/h Distance 7.02 km</desc>
<time>2010-02-27T11:25:27.29</time>
<name>4953</name>
</trkpt>
<trkpt lat="48.943277" lon="8.662845">
<ele>351.5</ele>
<speed>3.9</speed>
<course>174.7</course>
<desc>Speed 3.9 km/h Distance 7.02 km</desc>
<time>2010-02-27T11:25:28.29</time>
<name>4954</name>
</trkpt>
<trkpt lat="48.943263" lon="8.662847">
<ele>351.5</ele>
<speed>4.8</speed>
<course>176.2</course>
<desc>Speed 4.8 km/h Distance 7.02 km</desc>
<time>2010-02-27T11:25:29.29</time>
<name>4955</name>
</trkpt>
<trkpt lat="48.943248" lon="8.662848">
<ele>352.0</ele>
<speed>5.1</speed>
<course>143.4</course>
<desc>Speed 5.1 km/h Distance 7.02 km</desc>
<time>2010-02-27T11:25:30.29</time>
<name>4956</name>
</trkpt>
<trkpt lat="48.943235" lon="8.662863">
<ele>352.0</ele>
<speed>4.9</speed>
<course>127.3</course>
<desc>Speed 4.9 km/h Distance 7.03 km</desc>
<time>2010-02-27T11:25:31.29</time>
<name>4957</name>
</trkpt>
<trkpt lat="48.943225" lon="8.662883">
<ele>352.0</ele>
<speed>4.0</speed>
<course>142.5</course>
<desc>Speed 4.0 km/h Distance 7.03 km</desc>
<time>2010-02-27T11:25:32.29</time>
<name>4958</name>
</trkpt>
<trkpt lat="48.943215" lon="8.662895">
<ele>352.0</ele>
<speed>3.2</speed>
<course>142.5</course>
<desc>Speed 3.2 km/h Distance 7.03 km</desc>
<time>2010-02-27T11:25:33.29</time>
<name>4959</name>
</trkpt>
<trkpt lat="48.943205" lon="8.662907">
<ele>352.0</ele>
<speed>4.4</speed>
<course>125.4</course>
<desc>Speed 4.4 km/h Distance 7.03 km</desc>
<time>2010-02-27T11:25:34.29</time>
<name>4960</name>
</trkpt>
<trkpt lat="48.943193" lon="8.662932">
<ele>352.5</ele>
<speed>4.3</speed>
<course>140.5</course>
<desc>Speed 4.3 km/h Distance 7.03 km</desc>
<time>2010-02-27T11:25:35.29</time>
<name>4961</name>
</trkpt>
<trkpt lat="48.943180" lon="8.662948">
<ele>352.5</ele>
<speed>4.6</speed>
<course>114.4</course>
<desc>Speed 4.6 km/h Distance 7.04 km</desc>
<time>2010-02-27T11:25:36.29</time>
<name>4962</name>
</trkpt>
<trkpt lat="48.943162" lon="8.663010">
<ele>353.0</ele>
<speed>5.0</speed>
<course>103.3</course>
<desc>Speed 5.0 km/h Distance 7.04 km</desc>
<time>2010-02-27T11:25:38.29</time>
<name>4963</name>
</trkpt>
<trkpt lat="48.943150" lon="8.663085">
<ele>353.5</ele>
<speed>4.7</speed>
<course>102.5</course>
<desc>Speed 4.7 km/h Distance 7.05 km</desc>
<time>2010-02-27T11:25:40.29</time>
<name>4964</name>
</trkpt>
<trkpt lat="48.943138" lon="8.663165">
<ele>354.0</ele>
<speed>5.4</speed>
<course>111.4</course>
<desc>Speed 5.4 km/h Distance 7.05 km</desc>
<time>2010-02-27T11:25:42.29</time>
<name>4965</name>
</trkpt>
<trkpt lat="48.943123" lon="8.663223">
<ele>354.5</ele>
<speed>4.6</speed>
<course>123.7</course>
<desc>Speed 4.6 km/h Distance 7.06 km</desc>
<time>2010-02-27T11:25:44.29</time>
<name>4966</name>
</trkpt>
<trkpt lat="48.943112" lon="8.663250">
<ele>354.5</ele>
<speed>5.2</speed>
<course>220.2</course>
<desc>Speed 5.2 km/h Distance 7.06 km</desc>
<time>2010-02-27T11:25:45.29</time>
<name>4967</name>
</trkpt>
<trkpt lat="48.943100" lon="8.663235">
<ele>355.0</ele>
<speed>1.1</speed>
<course>147.0</course>
<desc>Speed 1.1 km/h Distance 7.06 km</desc>
<time>2010-02-27T11:25:46.29</time>
<name>4968</name>
</trkpt>
<trkpt lat="48.943090" lon="8.663245">
<ele>355.0</ele>
<speed>4.5</speed>
<course>162.5</course>
<desc>Speed 4.5 km/h Distance 7.06 km</desc>
<time>2010-02-27T11:25:47.29</time>
<name>4969</name>
</trkpt>
<trkpt lat="48.943083" lon="8.663248">
<ele>355.0</ele>
<speed>2.7</speed>
<course>132.6</course>
<desc>Speed 2.7 km/h Distance 7.06 km</desc>
<time>2010-02-27T11:25:48.29</time>
<name>4970</name>
</trkpt>
<trkpt lat="48.943078" lon="8.663257">
<ele>355.0</ele>
<speed>3.6</speed>
<course>150.6</course>
<desc>Speed 3.6 km/h Distance 7.06 km</desc>
<time>2010-02-27T11:25:49.29</time>
<name>4971</name>
</trkpt>
<trkpt lat="48.943067" lon="8.663267">
<ele>355.0</ele>
<speed>5.1</speed>
<course>176.2</course>
<desc>Speed 5.1 km/h Distance 7.06 km</desc>
<time>2010-02-27T11:25:50.29</time>
<name>4972</name>
</trkpt>
<trkpt lat="48.943052" lon="8.663267">
<ele>355.0</ele>
<speed>5.3</speed>
<course>167.4</course>
<desc>Speed 5.3 km/h Distance 7.07 km</desc>
<time>2010-02-27T11:25:51.29</time>
<name>4973</name>
</trkpt>
<trkpt lat="48.943042" lon="8.663270">
<ele>355.0</ele>
<speed>3.6</speed>
<course>146.8</course>
<desc>Speed 3.6 km/h Distance 7.07 km</desc>
<time>2010-02-27T11:25:52.29</time>
<name>4974</name>
</trkpt>
<trkpt lat="48.943033" lon="8.663278">
<ele>355.0</ele>
<speed>4.1</speed>
<course>158.5</course>
<desc>Speed 4.1 km/h Distance 7.07 km</desc>
<time>2010-02-27T11:25:53.29</time>
<name>4975</name>
</trkpt>
<trkpt lat="48.943025" lon="8.663283">
<ele>355.0</ele>
<speed>3.4</speed>
<course>206.4</course>
<desc>Speed 3.4 km/h Distance 7.07 km</desc>
<time>2010-02-27T11:25:54.29</time>
<name>4976</name>
</trkpt>
<trkpt lat="48.943018" lon="8.663278">
<ele>355.0</ele>
<speed>2.3</speed>
<course>139.1</course>
<desc>Speed 2.3 km/h Distance 7.07 km</desc>
<time>2010-02-27T11:25:55.29</time>
<name>4977</name>
</trkpt>
<trkpt lat="48.943013" lon="8.663285">
<ele>355.0</ele>
<speed>2.4</speed>
<course>12.6</course>
<desc>Speed 2.4 km/h Distance 7.07 km</desc>
<time>2010-02-27T11:25:56.29</time>
<name>4978</name>
</trkpt>
<trkpt lat="48.943015" lon="8.663285">
<ele>355.0</ele>
<speed>1.5</speed>
<course>127.3</course>
<desc>Speed 1.5 km/h Distance 7.07 km</desc>
<time>2010-02-27T11:25:57.29</time>
<name>4979</name>
</trkpt>
<trkpt lat="48.943008" lon="8.663298">
<ele>354.5</ele>
<speed>3.1</speed>
<course>123.1</course>
<desc>Speed 3.1 km/h Distance 7.07 km</desc>
<time>2010-02-27T11:25:58.29</time>
<name>4980</name>
</trkpt>
<trkpt lat="48.943003" lon="8.663310">
<ele>355.0</ele>
<speed>4.5</speed>
<course>135.5</course>
<desc>Speed 4.5 km/h Distance 7.07 km</desc>
<time>2010-02-27T11:25:59.29</time>
<name>4981</name>
</trkpt>
<trkpt lat="48.942997" lon="8.663320">
<ele>355.0</ele>
<speed>4.6</speed>
<course>123.1</course>
<desc>Speed 4.6 km/h Distance 7.07 km</desc>
<time>2010-02-27T11:26:00.29</time>
<name>4982</name>
</trkpt>
<trkpt lat="48.942992" lon="8.663332">
<ele>355.0</ele>
<speed>5.5</speed>
<course>154.4</course>
<desc>Speed 5.5 km/h Distance 7.08 km</desc>
<time>2010-02-27T11:26:01.29</time>
<name>4983</name>
</trkpt>
<trkpt lat="48.942985" lon="8.663337">
<ele>355.0</ele>
<speed>4.5</speed>
<course>117.4</course>
<desc>Speed 4.5 km/h Distance 7.08 km</desc>
<time>2010-02-27T11:26:02.29</time>
<name>4984</name>
</trkpt>
<trkpt lat="48.942983" lon="8.663342">
<ele>355.5</ele>
<speed>4.1</speed>
<course>117.4</course>
<desc>Speed 4.1 km/h Distance 7.08 km</desc>
<time>2010-02-27T11:26:03.29</time>
<name>4985</name>
</trkpt>
<trkpt lat="48.942983" lon="8.663343">
<ele>355.5</ele>
<speed>1.8</speed>
<course>0.0</course>
<desc>Speed 1.8 km/h Distance 7.08 km</desc>
<time>2010-02-27T11:26:04.29</time>
<name>4986</name>
</trkpt>
<trkpt lat="48.942987" lon="8.663343">
<ele>355.5</ele>
<speed>1.4</speed>
<course>322.8</course>
<desc>Speed 1.4 km/h Distance 7.08 km</desc>
<time>2010-02-27T11:26:05.29</time>
<name>4987</name>
</trkpt>
<trkpt lat="48.942988" lon="8.663342">
<ele>355.5</ele>
<speed>1.8</speed>
<course>12.6</course>
<desc>Speed 1.8 km/h Distance 7.08 km</desc>
<time>2010-02-27T11:26:06.29</time>
<name>4988</name>
</trkpt>
<trkpt lat="48.942998" lon="8.663345">
<ele>355.5</ele>
<speed>2.7</speed>
<course>119.0</course>
<desc>Speed 2.7 km/h Distance 7.08 km</desc>
<time>2010-02-27T11:26:07.29</time>
<name>4989</name>
</trkpt>
<trkpt lat="48.942992" lon="8.663363">
<ele>355.5</ele>
<speed>7.0</speed>
<course>104.2</course>
<desc>Speed 7.0 km/h Distance 7.08 km</desc>
<time>2010-02-27T11:26:08.29</time>
<name>4990</name>
</trkpt>
<trkpt lat="48.942988" lon="8.663383">
<ele>355.5</ele>
<speed>7.2</speed>
<course>63.1</course>
<desc>Speed 7.2 km/h Distance 7.08 km</desc>
<time>2010-02-27T11:26:09.29</time>
<name>4991</name>
</trkpt>
<trkpt lat="48.942993" lon="8.663398">
<ele>356.0</ele>
<speed>5.3</speed>
<course>356.8</course>
<desc>Speed 5.3 km/h Distance 7.08 km</desc>
<time>2010-02-27T11:26:10.29</time>
<name>4992</name>
</trkpt>
<trkpt lat="48.943015" lon="8.663397">
<ele>356.0</ele>
<speed>9.3</speed>
<course>33.5</course>
<desc>Speed 9.3 km/h Distance 7.09 km</desc>
<time>2010-02-27T11:26:11.29</time>
<name>4993</name>
</trkpt>
<trkpt lat="48.943023" lon="8.663405">
<ele>356.0</ele>
<speed>4.1</speed>
<course>38.1</course>
<desc>Speed 4.1 km/h Distance 7.09 km</desc>
<time>2010-02-27T11:26:12.29</time>
<name>4994</name>
</trkpt>
<trkpt lat="48.943032" lon="8.663415">
<ele>356.0</ele>
<speed>4.5</speed>
<course>109.4</course>
<desc>Speed 4.5 km/h Distance 7.09 km</desc>
<time>2010-02-27T11:26:13.29</time>
<name>4995</name>
</trkpt>
<trkpt lat="48.943027" lon="8.663437">
<ele>356.0</ele>
<speed>7.9</speed>
<course>90.0</course>
<desc>Speed 7.9 km/h Distance 7.09 km</desc>
<time>2010-02-27T11:26:14.29</time>
<name>4996</name>
</trkpt>
<trkpt lat="48.943027" lon="8.663457">
<ele>356.0</ele>
<speed>5.3</speed>
<course>357.8</course>
<desc>Speed 5.3 km/h Distance 7.09 km</desc>
<time>2010-02-27T11:26:15.29</time>
<name>4997</name>
</trkpt>
<trkpt lat="48.943050" lon="8.663455">
<ele>356.0</ele>
<speed>8.8</speed>
<course>82.1</course>
<desc>Speed 8.8 km/h Distance 7.09 km</desc>
<time>2010-02-27T11:26:16.29</time>
<name>4998</name>
</trkpt>
<trkpt lat="48.943052" lon="8.663473">
<ele>356.0</ele>
<speed>4.4</speed>
<course>65.5</course>
<desc>Speed 4.4 km/h Distance 7.09 km</desc>
<time>2010-02-27T11:26:17.29</time>
<name>4999</name>
</trkpt>
<trkpt lat="48.943057" lon="8.663490">
<ele>355.5</ele>
<speed>4.2</speed>
<course>37.5</course>
<desc>Speed 4.2 km/h Distance 7.10 km</desc>
<time>2010-02-27T11:26:18.29</time>
<name>5000</name>
</trkpt>
<trkpt lat="48.943067" lon="8.663502">
<ele>355.5</ele>
<speed>4.4</speed>
<course>67.4</course>
<desc>Speed 4.4 km/h Distance 7.10 km</desc>
<time>2010-02-27T11:26:19.29</time>
<name>5001</name>
</trkpt>
<trkpt lat="48.943072" lon="8.663520">
<ele>355.5</ele>
<speed>4.1</speed>
<course>63.1</course>
<desc>Speed 4.1 km/h Distance 7.10 km</desc>
<time>2010-02-27T11:26:20.29</time>
<name>5002</name>
</trkpt>
<trkpt lat="48.943077" lon="8.663535">
<ele>355.5</ele>
<speed>3.8</speed>
<course>63.1</course>
<desc>Speed 3.8 km/h Distance 7.10 km</desc>
<time>2010-02-27T11:26:21.29</time>
<name>5003</name>
</trkpt>
<trkpt lat="48.943082" lon="8.663550">
<ele>355.5</ele>
<speed>4.2</speed>
<course>44.5</course>
<desc>Speed 4.2 km/h Distance 7.10 km</desc>
<time>2010-02-27T11:26:22.29</time>
<name>5004</name>
</trkpt>
<trkpt lat="48.943085" lon="8.663555">
<ele>355.5</ele>
<speed>1.4</speed>
<course>37.2</course>
<desc>Speed 1.4 km/h Distance 7.10 km</desc>
<time>2010-02-27T11:26:23.29</time>
<name>5005</name>
</trkpt>
<trkpt lat="48.943087" lon="8.663557">
<ele>355.5</ele>
<speed>0.6</speed>
<course>270.0</course>
<desc>Speed 0.6 km/h Distance 7.10 km</desc>
<time>2010-02-27T11:26:24.29</time>
<name>5006</name>
</trkpt>
<trkpt lat="48.943087" lon="8.663555">
<ele>355.5</ele>
<speed>0.6</speed>
<course>90.0</course>
<desc>Speed 0.6 km/h Distance 7.10 km</desc>
<time>2010-02-27T11:26:25.29</time>
<name>5007</name>
</trkpt>
<trkpt lat="48.943087" lon="8.663558">
<ele>355.5</ele>
<speed>1.0</speed>
<course>77.8</course>
<desc>Speed 1.0 km/h Distance 7.10 km</desc>
<time>2010-02-27T11:26:26.29</time>
<name>5008</name>
</trkpt>
<trkpt lat="48.943088" lon="8.663570">
<ele>355.5</ele>
<speed>3.0</speed>
<course>98.6</course>
<desc>Speed 3.0 km/h Distance 7.10 km</desc>
<time>2010-02-27T11:26:27.29</time>
<name>5009</name>
</trkpt>
<trkpt lat="48.943087" lon="8.663587">
<ele>355.5</ele>
<speed>4.2</speed>
<course>97.2</course>
<desc>Speed 4.2 km/h Distance 7.10 km</desc>
<time>2010-02-27T11:26:28.29</time>
<name>5010</name>
</trkpt>
<trkpt lat="48.943085" lon="8.663607">
<ele>355.5</ele>
<speed>5.2</speed>
<course>82.8</course>
<desc>Speed 5.2 km/h Distance 7.11 km</desc>
<time>2010-02-27T11:26:29.29</time>
<name>5011</name>
</trkpt>
<trkpt lat="48.943087" lon="8.663627">
<ele>355.5</ele>
<speed>4.9</speed>
<course>104.2</course>
<desc>Speed 4.9 km/h Distance 7.11 km</desc>
<time>2010-02-27T11:26:30.29</time>
<name>5012</name>
</trkpt>
<trkpt lat="48.943083" lon="8.663647">
<ele>355.5</ele>
<speed>5.3</speed>
<course>67.5</course>
<desc>Speed 5.3 km/h Distance 7.11 km</desc>
<time>2010-02-27T11:26:31.29</time>
<name>5013</name>
</trkpt>
<trkpt lat="48.943088" lon="8.663665">
<ele>355.5</ele>
<speed>4.9</speed>
<course>75.8</course>
<desc>Speed 4.9 km/h Distance 7.11 km</desc>
<time>2010-02-27T11:26:32.29</time>
<name>5014</name>
</trkpt>
<trkpt lat="48.943092" lon="8.663685">
<ele>355.5</ele>
<speed>4.6</speed>
<course>76.8</course>
<desc>Speed 4.6 km/h Distance 7.11 km</desc>
<time>2010-02-27T11:26:33.29</time>
<name>5015</name>
</trkpt>
<trkpt lat="48.943095" lon="8.663707">
<ele>355.5</ele>
<speed>4.9</speed>
<course>71.9</course>
<desc>Speed 4.9 km/h Distance 7.11 km</desc>
<time>2010-02-27T11:26:34.29</time>
<name>5016</name>
</trkpt>
<trkpt lat="48.943100" lon="8.663730">
<ele>355.5</ele>
<speed>5.2</speed>
<course>70.6</course>
<desc>Speed 5.2 km/h Distance 7.12 km</desc>
<time>2010-02-27T11:26:35.29</time>
<name>5017</name>
</trkpt>
<trkpt lat="48.943105" lon="8.663752">
<ele>355.5</ele>
<speed>5.6</speed>
<course>69.2</course>
<desc>Speed 5.6 km/h Distance 7.12 km</desc>
<time>2010-02-27T11:26:36.29</time>
<name>5018</name>
</trkpt>
<trkpt lat="48.943110" lon="8.663772">
<ele>355.5</ele>
<speed>4.8</speed>
<course>105.9</course>
<desc>Speed 4.8 km/h Distance 7.12 km</desc>
<time>2010-02-27T11:26:37.29</time>
<name>5019</name>
</trkpt>
<trkpt lat="48.943105" lon="8.663798">
<ele>355.5</ele>
<speed>7.2</speed>
<course>83.8</course>
<desc>Speed 7.2 km/h Distance 7.12 km</desc>
<time>2010-02-27T11:26:38.29</time>
<name>5020</name>
</trkpt>
<trkpt lat="48.943107" lon="8.663822">
<ele>355.5</ele>
<speed>6.0</speed>
<course>49.9</course>
<desc>Speed 6.0 km/h Distance 7.12 km</desc>
<time>2010-02-27T11:26:39.29</time>
<name>5021</name>
</trkpt>
<trkpt lat="48.943115" lon="8.663837">
<ele>355.5</ele>
<speed>4.7</speed>
<course>55.9</course>
<desc>Speed 4.7 km/h Distance 7.12 km</desc>
<time>2010-02-27T11:26:40.29</time>
<name>5022</name>
</trkpt>
<trkpt lat="48.943122" lon="8.663852">
<ele>355.5</ele>
<speed>5.3</speed>
<course>55.9</course>
<desc>Speed 5.3 km/h Distance 7.13 km</desc>
<time>2010-02-27T11:26:41.29</time>
<name>5023</name>
</trkpt>
<trkpt lat="48.943128" lon="8.663867">
<ele>355.5</ele>
<speed>4.9</speed>
<course>29.4</course>
<desc>Speed 4.9 km/h Distance 7.13 km</desc>
<time>2010-02-27T11:26:42.29</time>
<name>5024</name>
</trkpt>
<trkpt lat="48.943140" lon="8.663877">
<ele>356.0</ele>
<speed>4.8</speed>
<course>18.4</course>
<desc>Speed 4.8 km/h Distance 7.13 km</desc>
<time>2010-02-27T11:26:43.29</time>
<name>5025</name>
</trkpt>
<trkpt lat="48.943153" lon="8.663883">
<ele>356.0</ele>
<speed>4.4</speed>
<course>63.1</course>
<desc>Speed 4.4 km/h Distance 7.13 km</desc>
<time>2010-02-27T11:26:44.29</time>
<name>5026</name>
</trkpt>
<trkpt lat="48.943158" lon="8.663898">
<ele>356.0</ele>
<speed>4.0</speed>
<course>82.1</course>
<desc>Speed 4.0 km/h Distance 7.13 km</desc>
<time>2010-02-27T11:26:45.29</time>
<name>5027</name>
</trkpt>
<trkpt lat="48.943160" lon="8.663917">
<ele>356.0</ele>
<speed>5.0</speed>
<course>65.5</course>
<desc>Speed 5.0 km/h Distance 7.13 km</desc>
<time>2010-02-27T11:26:46.29</time>
<name>5028</name>
</trkpt>
<trkpt lat="48.943165" lon="8.663933">
<ele>356.0</ele>
<speed>5.0</speed>
<course>108.7</course>
<desc>Speed 5.0 km/h Distance 7.13 km</desc>
<time>2010-02-27T11:26:47.29</time>
<name>5029</name>
</trkpt>
<trkpt lat="48.943162" lon="8.663948">
<ele>356.0</ele>
<speed>4.8</speed>
<course>90.0</course>
<desc>Speed 4.8 km/h Distance 7.13 km</desc>
<time>2010-02-27T11:26:48.29</time>
<name>5030</name>
</trkpt>
<trkpt lat="48.943162" lon="8.663965">
<ele>356.0</ele>
<speed>4.1</speed>
<course>97.2</course>
<desc>Speed 4.1 km/h Distance 7.14 km</desc>
<time>2010-02-27T11:26:49.29</time>
<name>5031</name>
</trkpt>
<trkpt lat="48.943160" lon="8.663985">
<ele>356.0</ele>
<speed>5.4</speed>
<course>95.8</course>
<desc>Speed 5.4 km/h Distance 7.14 km</desc>
<time>2010-02-27T11:26:50.29</time>
<name>5032</name>
</trkpt>
<trkpt lat="48.943158" lon="8.664010">
<ele>356.0</ele>
<speed>6.5</speed>
<course>73.1</course>
<desc>Speed 6.5 km/h Distance 7.14 km</desc>
<time>2010-02-27T11:26:51.29</time>
<name>5033</name>
</trkpt>
<trkpt lat="48.943162" lon="8.664027">
<ele>356.0</ele>
<speed>4.3</speed>
<course>82.8</course>
<desc>Speed 4.3 km/h Distance 7.14 km</desc>
<time>2010-02-27T11:26:52.29</time>
<name>5034</name>
</trkpt>
<trkpt lat="48.943163" lon="8.664047">
<ele>356.0</ele>
<speed>5.3</speed>
<course>46.4</course>
<desc>Speed 5.3 km/h Distance 7.14 km</desc>
<time>2010-02-27T11:26:53.29</time>
<name>5035</name>
</trkpt>
<trkpt lat="48.943172" lon="8.664060">
<ele>356.0</ele>
<speed>4.5</speed>
<course>39.4</course>
<desc>Speed 4.5 km/h Distance 7.14 km</desc>
<time>2010-02-27T11:26:54.29</time>
<name>5036</name>
</trkpt>
<trkpt lat="48.943178" lon="8.664068">
<ele>356.5</ele>
<speed>3.0</speed>
<course>29.4</course>
<desc>Speed 3.0 km/h Distance 7.14 km</desc>
<time>2010-02-27T11:26:55.29</time>
<name>5037</name>
</trkpt>
<trkpt lat="48.943190" lon="8.664078">
<ele>356.5</ele>
<speed>4.2</speed>
<course>90.0</course>
<desc>Speed 4.2 km/h Distance 7.15 km</desc>
<time>2010-02-27T11:26:56.29</time>
<name>5038</name>
</trkpt>
<trkpt lat="48.943190" lon="8.664097">
<ele>356.5</ele>
<speed>5.2</speed>
<course>69.1</course>
<desc>Speed 5.2 km/h Distance 7.15 km</desc>
<time>2010-02-27T11:26:57.29</time>
<name>5039</name>
</trkpt>
<trkpt lat="48.943195" lon="8.664117">
<ele>356.5</ele>
<speed>5.7</speed>
<course>50.3</course>
<desc>Speed 5.7 km/h Distance 7.15 km</desc>
<time>2010-02-27T11:26:58.29</time>
<name>5040</name>
</trkpt>
<trkpt lat="48.943205" lon="8.664135">
<ele>356.5</ele>
<speed>5.9</speed>
<course>69.2</course>
<desc>Speed 5.9 km/h Distance 7.15 km</desc>
<time>2010-02-27T11:26:59.29</time>
<name>5041</name>
</trkpt>
<trkpt lat="48.943208" lon="8.664148">
<ele>356.5</ele>
<speed>5.7</speed>
<course>33.2</course>
<desc>Speed 5.7 km/h Distance 7.15 km</desc>
<time>2010-02-27T11:27:00.29</time>
<name>5042</name>
</trkpt>
<trkpt lat="48.943217" lon="8.664157">
<ele>356.5</ele>
<speed>4.7</speed>
<course>69.1</course>
<desc>Speed 4.7 km/h Distance 7.15 km</desc>
<time>2010-02-27T11:27:01.29</time>
<name>5043</name>
</trkpt>
<trkpt lat="48.943220" lon="8.664170">
<ele>356.5</ele>
<speed>3.9</speed>
<course>81.4</course>
<desc>Speed 3.9 km/h Distance 7.15 km</desc>
<time>2010-02-27T11:27:02.29</time>
<name>5044</name>
</trkpt>
<trkpt lat="48.943222" lon="8.664187">
<ele>356.5</ele>
<speed>4.3</speed>
<course>71.3</course>
<desc>Speed 4.3 km/h Distance 7.15 km</desc>
<time>2010-02-27T11:27:03.29</time>
<name>5045</name>
</trkpt>
<trkpt lat="48.943225" lon="8.664202">
<ele>356.5</ele>
<speed>4.3</speed>
<course>60.3</course>
<desc>Speed 4.3 km/h Distance 7.16 km</desc>
<time>2010-02-27T11:27:04.29</time>
<name>5046</name>
</trkpt>
<trkpt lat="48.943230" lon="8.664215">
<ele>356.5</ele>
<speed>3.2</speed>
<course>73.1</course>
<desc>Speed 3.2 km/h Distance 7.16 km</desc>
<time>2010-02-27T11:27:05.29</time>
<name>5047</name>
</trkpt>
<trkpt lat="48.943232" lon="8.664223">
<ele>356.5</ele>
<speed>2.7</speed>
<course>102.3</course>
<desc>Speed 2.7 km/h Distance 7.16 km</desc>
<time>2010-02-27T11:27:06.29</time>
<name>5048</name>
</trkpt>
<trkpt lat="48.943230" lon="8.664235">
<ele>356.5</ele>
<speed>3.2</speed>
<course>73.1</course>
<desc>Speed 3.2 km/h Distance 7.16 km</desc>
<time>2010-02-27T11:27:07.29</time>
<name>5049</name>
</trkpt>
<trkpt lat="48.943232" lon="8.664243">
<ele>356.5</ele>
<speed>2.4</speed>
<course>153.6</course>
<desc>Speed 2.4 km/h Distance 7.16 km</desc>
<time>2010-02-27T11:27:08.29</time>
<name>5050</name>
</trkpt>
<trkpt lat="48.943225" lon="8.664248">
<ele>356.5</ele>
<speed>3.5</speed>
<course>116.9</course>
<desc>Speed 3.5 km/h Distance 7.16 km</desc>
<time>2010-02-27T11:27:09.29</time>
<name>5051</name>
</trkpt>
<trkpt lat="48.943220" lon="8.664263">
<ele>356.5</ele>
<speed>4.2</speed>
<course>99.6</course>
<desc>Speed 4.2 km/h Distance 7.16 km</desc>
<time>2010-02-27T11:27:10.29</time>
<name>5052</name>
</trkpt>
<trkpt lat="48.943218" lon="8.664278">
<ele>356.5</ele>
<speed>4.2</speed>
<course>97.9</course>
<desc>Speed 4.2 km/h Distance 7.16 km</desc>
<time>2010-02-27T11:27:11.29</time>
<name>5053</name>
</trkpt>
<trkpt lat="48.943217" lon="8.664297">
<ele>356.0</ele>
<speed>4.3</speed>
<course>90.0</course>
<desc>Speed 4.3 km/h Distance 7.16 km</desc>
<time>2010-02-27T11:27:12.29</time>
<name>5054</name>
</trkpt>
<trkpt lat="48.943217" lon="8.664320">
<ele>356.0</ele>
<speed>5.1</speed>
<course>78.5</course>
<desc>Speed 5.1 km/h Distance 7.17 km</desc>
<time>2010-02-27T11:27:13.29</time>
<name>5055</name>
</trkpt>
<trkpt lat="48.943220" lon="8.664345">
<ele>356.0</ele>
<speed>4.5</speed>
<course>78.5</course>
<desc>Speed 4.5 km/h Distance 7.17 km</desc>
<time>2010-02-27T11:27:14.29</time>
<name>5056</name>
</trkpt>
<trkpt lat="48.943223" lon="8.664370">
<ele>356.0</ele>
<speed>4.8</speed>
<course>66.5</course>
<desc>Speed 4.8 km/h Distance 7.17 km</desc>
<time>2010-02-27T11:27:15.29</time>
<name>5057</name>
</trkpt>
<trkpt lat="48.943230" lon="8.664393">
<ele>355.5</ele>
<speed>3.7</speed>
<course>90.0</course>
<desc>Speed 3.7 km/h Distance 7.17 km</desc>
<time>2010-02-27T11:27:16.29</time>
<name>5058</name>
</trkpt>
<trkpt lat="48.943230" lon="8.664412">
<ele>355.5</ele>
<speed>3.5</speed>
<course>84.6</course>
<desc>Speed 3.5 km/h Distance 7.17 km</desc>
<time>2010-02-27T11:27:17.29</time>
<name>5059</name>
</trkpt>
<trkpt lat="48.943232" lon="8.664438">
<ele>355.5</ele>
<speed>4.7</speed>
<course>90.0</course>
<desc>Speed 4.7 km/h Distance 7.17 km</desc>
<time>2010-02-27T11:27:18.29</time>
<name>5060</name>
</trkpt>
<trkpt lat="48.943232" lon="8.664468">
<ele>355.5</ele>
<speed>5.1</speed>
<course>85.2</course>
<desc>Speed 5.1 km/h Distance 7.18 km</desc>
<time>2010-02-27T11:27:19.29</time>
<name>5061</name>
</trkpt>
<trkpt lat="48.943233" lon="8.664498">
<ele>355.5</ele>
<speed>5.4</speed>
<course>71.9</course>
<desc>Speed 5.4 km/h Distance 7.18 km</desc>
<time>2010-02-27T11:27:20.29</time>
<name>5062</name>
</trkpt>
<trkpt lat="48.943238" lon="8.664522">
<ele>355.5</ele>
<speed>4.3</speed>
<course>67.9</course>
<desc>Speed 4.3 km/h Distance 7.18 km</desc>
<time>2010-02-27T11:27:21.29</time>
<name>5063</name>
</trkpt>
<trkpt lat="48.943245" lon="8.664547">
<ele>355.5</ele>
<speed>4.9</speed>
<course>95.6</course>
<desc>Speed 4.9 km/h Distance 7.18 km</desc>
<time>2010-02-27T11:27:22.29</time>
<name>5064</name>
</trkpt>
<trkpt lat="48.943242" lon="8.664598">
<ele>355.5</ele>
<speed>5.8</speed>
<course>77.7</course>
<desc>Speed 5.8 km/h Distance 7.19 km</desc>
<time>2010-02-27T11:27:24.29</time>
<name>5065</name>
</trkpt>
<trkpt lat="48.943245" lon="8.664622">
<ele>355.5</ele>
<speed>5.5</speed>
<course>70.6</course>
<desc>Speed 5.5 km/h Distance 7.19 km</desc>
<time>2010-02-27T11:27:25.29</time>
<name>5066</name>
</trkpt>
<trkpt lat="48.943250" lon="8.664643">
<ele>355.5</ele>
<speed>5.0</speed>
<course>75.8</course>
<desc>Speed 5.0 km/h Distance 7.19 km</desc>
<time>2010-02-27T11:27:26.29</time>
<name>5067</name>
</trkpt>
<trkpt lat="48.943253" lon="8.664663">
<ele>355.5</ele>
<speed>5.3</speed>
<course>82.8</course>
<desc>Speed 5.3 km/h Distance 7.19 km</desc>
<time>2010-02-27T11:27:27.29</time>
<name>5068</name>
</trkpt>
<trkpt lat="48.943255" lon="8.664683">
<ele>355.5</ele>
<speed>4.8</speed>
<course>56.0</course>
<desc>Speed 4.8 km/h Distance 7.19 km</desc>
<time>2010-02-27T11:27:28.29</time>
<name>5069</name>
</trkpt>
<trkpt lat="48.943262" lon="8.664698">
<ele>355.5</ele>
<speed>4.4</speed>
<course>63.1</course>
<desc>Speed 4.4 km/h Distance 7.19 km</desc>
<time>2010-02-27T11:27:29.29</time>
<name>5070</name>
</trkpt>
<trkpt lat="48.943268" lon="8.664718">
<ele>355.5</ele>
<speed>4.7</speed>
<course>61.0</course>
<desc>Speed 4.7 km/h Distance 7.20 km</desc>
<time>2010-02-27T11:27:30.29</time>
<name>5071</name>
</trkpt>
<trkpt lat="48.943275" lon="8.664737">
<ele>355.5</ele>
<speed>4.9</speed>
<course>63.1</course>
<desc>Speed 4.9 km/h Distance 7.20 km</desc>
<time>2010-02-27T11:27:31.29</time>
<name>5072</name>
</trkpt>
<trkpt lat="48.943282" lon="8.664757">
<ele>355.5</ele>
<speed>5.1</speed>
<course>70.6</course>
<desc>Speed 5.1 km/h Distance 7.20 km</desc>
<time>2010-02-27T11:27:32.29</time>
<name>5073</name>
</trkpt>
<trkpt lat="48.943287" lon="8.664778">
<ele>355.5</ele>
<speed>5.4</speed>
<course>58.6</course>
<desc>Speed 5.4 km/h Distance 7.20 km</desc>
<time>2010-02-27T11:27:33.29</time>
<name>5074</name>
</trkpt>
<trkpt lat="48.943293" lon="8.664795">
<ele>355.5</ele>
<speed>4.4</speed>
<course>52.7</course>
<desc>Speed 4.4 km/h Distance 7.20 km</desc>
<time>2010-02-27T11:27:34.29</time>
<name>5075</name>
</trkpt>
<trkpt lat="48.943300" lon="8.664808">
<ele>355.5</ele>
<speed>3.7</speed>
<course>44.5</course>
<desc>Speed 3.7 km/h Distance 7.20 km</desc>
<time>2010-02-27T11:27:35.29</time>
<name>5076</name>
</trkpt>
<trkpt lat="48.943303" lon="8.664813">
<ele>355.5</ele>
<speed>1.6</speed>
<course>63.4</course>
<desc>Speed 1.6 km/h Distance 7.20 km</desc>
<time>2010-02-27T11:27:36.29</time>
<name>5077</name>
</trkpt>
<trkpt lat="48.943307" lon="8.664823">
<ele>355.5</ele>
<speed>1.9</speed>
<course>90.0</course>
<desc>Speed 1.9 km/h Distance 7.20 km</desc>
<time>2010-02-27T11:27:37.29</time>
<name>5078</name>
</trkpt>
<trkpt lat="48.943307" lon="8.664837">
<ele>355.5</ele>
<speed>3.5</speed>
<course>39.7</course>
<desc>Speed 3.5 km/h Distance 7.21 km</desc>
<time>2010-02-27T11:27:38.29</time>
<name>5079</name>
</trkpt>
<trkpt lat="48.943313" lon="8.664845">
<ele>355.5</ele>
<speed>3.3</speed>
<course>345.6</course>
<desc>Speed 3.3 km/h Distance 7.21 km</desc>
<time>2010-02-27T11:27:39.29</time>
<name>5080</name>
</trkpt>
<trkpt lat="48.943343" lon="8.664833">
<ele>355.5</ele>
<speed>2.1</speed>
<course>44.5</course>
<desc>Speed 2.1 km/h Distance 7.21 km</desc>
<time>2010-02-27T11:27:41.29</time>
<name>5081</name>
</trkpt>
<trkpt lat="48.943347" lon="8.664838">
<ele>355.5</ele>
<speed>1.7</speed>
<course>352.6</course>
<desc>Speed 1.7 km/h Distance 7.21 km</desc>
<time>2010-02-27T11:27:42.29</time>
<name>5082</name>
</trkpt>
<trkpt lat="48.943353" lon="8.664837">
<ele>355.5</ele>
<speed>1.9</speed>
<course>345.1</course>
<desc>Speed 1.9 km/h Distance 7.21 km</desc>
<time>2010-02-27T11:27:43.29</time>
<name>5083</name>
</trkpt>
<trkpt lat="48.943362" lon="8.664833">
<ele>355.5</ele>
<speed>1.9</speed>
<course>4.7</course>
<desc>Speed 1.9 km/h Distance 7.21 km</desc>
<time>2010-02-27T11:27:44.29</time>
<name>5084</name>
</trkpt>
<trkpt lat="48.943373" lon="8.664835">
<ele>355.5</ele>
<speed>3.7</speed>
<course>11.2</course>
<desc>Speed 3.7 km/h Distance 7.21 km</desc>
<time>2010-02-27T11:27:45.29</time>
<name>5085</name>
</trkpt>
<trkpt lat="48.943385" lon="8.664838">
<ele>355.5</ele>
<speed>2.2</speed>
<course>58.7</course>
<desc>Speed 2.2 km/h Distance 7.21 km</desc>
<time>2010-02-27T11:27:46.29</time>
<name>5086</name>
</trkpt>
<trkpt lat="48.943392" lon="8.664855">
<ele>355.5</ele>
<speed>3.9</speed>
<course>36.6</course>
<desc>Speed 3.9 km/h Distance 7.22 km</desc>
<time>2010-02-27T11:27:47.29</time>
<name>5087</name>
</trkpt>
<trkpt lat="48.943405" lon="8.664870">
<ele>355.5</ele>
<speed>4.7</speed>
<course>71.3</course>
<desc>Speed 4.7 km/h Distance 7.22 km</desc>
<time>2010-02-27T11:27:48.29</time>
<name>5088</name>
</trkpt>
<trkpt lat="48.943408" lon="8.664885">
<ele>355.5</ele>
<speed>3.7</speed>
<course>33.5</course>
<desc>Speed 3.7 km/h Distance 7.22 km</desc>
<time>2010-02-27T11:27:49.29</time>
<name>5089</name>
</trkpt>
<trkpt lat="48.943417" lon="8.664893">
<ele>355.5</ele>
<speed>2.8</speed>
<course>98.7</course>
<desc>Speed 2.8 km/h Distance 7.22 km</desc>
<time>2010-02-27T11:27:50.29</time>
<name>5090</name>
</trkpt>
<trkpt lat="48.943413" lon="8.664927">
<ele>355.5</ele>
<speed>7.9</speed>
<course>347.0</course>
<desc>Speed 7.9 km/h Distance 7.22 km</desc>
<time>2010-02-27T11:27:51.29</time>
<name>5091</name>
</trkpt>
<trkpt lat="48.943442" lon="8.664917">
<ele>355.5</ele>
<speed>9.9</speed>
<course>346.1</course>
<desc>Speed 9.9 km/h Distance 7.23 km</desc>
<time>2010-02-27T11:27:52.29</time>
<name>5092</name>
</trkpt>
<trkpt lat="48.943468" lon="8.664907">
<ele>355.5</ele>
<speed>8.6</speed>
<course>76.8</course>
<desc>Speed 8.6 km/h Distance 7.23 km</desc>
<time>2010-02-27T11:27:53.29</time>
<name>5093</name>
</trkpt>
<trkpt lat="48.943472" lon="8.664928">
<ele>355.5</ele>
<speed>5.9</speed>
<course>47.6</course>
<desc>Speed 5.9 km/h Distance 7.23 km</desc>
<time>2010-02-27T11:27:54.29</time>
<name>5094</name>
</trkpt>
<trkpt lat="48.943482" lon="8.664945">
<ele>355.5</ele>
<speed>4.9</speed>
<course>16.6</course>
<desc>Speed 4.9 km/h Distance 7.23 km</desc>
<time>2010-02-27T11:27:55.29</time>
<name>5095</name>
</trkpt>
<trkpt lat="48.943500" lon="8.664953">
<ele>355.0</ele>
<speed>5.3</speed>
<course>79.8</course>
<desc>Speed 5.3 km/h Distance 7.23 km</desc>
<time>2010-02-27T11:27:56.29</time>
<name>5096</name>
</trkpt>
<trkpt lat="48.943503" lon="8.664982">
<ele>355.0</ele>
<speed>6.5</speed>
<course>70.3</course>
<desc>Speed 6.5 km/h Distance 7.24 km</desc>
<time>2010-02-27T11:27:57.29</time>
<name>5097</name>
</trkpt>
<trkpt lat="48.943510" lon="8.665010">
<ele>355.0</ele>
<speed>5.8</speed>
<course>70.3</course>
<desc>Speed 5.8 km/h Distance 7.24 km</desc>
<time>2010-02-27T11:27:58.29</time>
<name>5098</name>
</trkpt>
<trkpt lat="48.943517" lon="8.665038">
<ele>355.0</ele>
<speed>5.1</speed>
<course>100.2</course>
<desc>Speed 5.1 km/h Distance 7.24 km</desc>
<time>2010-02-27T11:27:59.29</time>
<name>5099</name>
</trkpt>
<trkpt lat="48.943513" lon="8.665067">
<ele>355.0</ele>
<speed>5.7</speed>
<course>75.8</course>
<desc>Speed 5.7 km/h Distance 7.24 km</desc>
<time>2010-02-27T11:28:00.29</time>
<name>5100</name>
</trkpt>
<trkpt lat="48.943517" lon="8.665087">
<ele>355.0</ele>
<speed>4.0</speed>
<course>108.1</course>
<desc>Speed 4.0 km/h Distance 7.24 km</desc>
<time>2010-02-27T11:28:01.29</time>
<name>5101</name>
</trkpt>
<trkpt lat="48.943512" lon="8.665110">
<ele>355.5</ele>
<speed>4.7</speed>
<course>64.1</course>
<desc>Speed 4.7 km/h Distance 7.25 km</desc>
<time>2010-02-27T11:28:02.29</time>
<name>5102</name>
</trkpt>
<trkpt lat="48.943513" lon="8.665115">
<ele>355.5</ele>
<speed>1.7</speed>
<course>99.6</course>
<desc>Speed 1.7 km/h Distance 7.25 km</desc>
<time>2010-02-27T11:28:03.29</time>
<name>5103</name>
</trkpt>
<trkpt lat="48.943512" lon="8.665130">
<ele>355.5</ele>
<speed>4.2</speed>
<course>53.0</course>
<desc>Speed 4.2 km/h Distance 7.25 km</desc>
<time>2010-02-27T11:28:04.29</time>
<name>5104</name>
</trkpt>
<trkpt lat="48.943518" lon="8.665143">
<ele>355.5</ele>
<speed>3.6</speed>
<course>33.7</course>
<desc>Speed 3.6 km/h Distance 7.25 km</desc>
<time>2010-02-27T11:28:05.29</time>
<name>5105</name>
</trkpt>
<trkpt lat="48.943525" lon="8.665150">
<ele>355.0</ele>
<speed>4.7</speed>
<course>69.1</course>
<desc>Speed 4.7 km/h Distance 7.25 km</desc>
<time>2010-02-27T11:28:06.29</time>
<name>5106</name>
</trkpt>
<trkpt lat="48.943528" lon="8.665163">
<ele>355.0</ele>
<speed>4.4</speed>
<course>353.9</course>
<desc>Speed 4.4 km/h Distance 7.25 km</desc>
<time>2010-02-27T11:28:07.29</time>
<name>5107</name>
</trkpt>
<trkpt lat="48.943548" lon="8.665160">
<ele>355.5</ele>
<speed>6.2</speed>
<course>113.6</course>
<desc>Speed 6.2 km/h Distance 7.25 km</desc>
<time>2010-02-27T11:28:08.29</time>
<name>5108</name>
</trkpt>
<trkpt lat="48.943545" lon="8.665172">
<ele>355.5</ele>
<speed>3.7</speed>
<course>341.8</course>
<desc>Speed 3.7 km/h Distance 7.25 km</desc>
<time>2010-02-27T11:28:09.29</time>
<name>5109</name>
</trkpt>
<trkpt lat="48.943565" lon="8.665162">
<ele>355.5</ele>
<speed>2.5</speed>
<course>116.9</course>
<desc>Speed 2.5 km/h Distance 7.26 km</desc>
<time>2010-02-27T11:28:10.29</time>
<name>5110</name>
</trkpt>
<trkpt lat="48.943558" lon="8.665182">
<ele>355.5</ele>
<speed>6.0</speed>
<course>349.6</course>
<desc>Speed 6.0 km/h Distance 7.26 km</desc>
<time>2010-02-27T11:28:11.29</time>
<name>5111</name>
</trkpt>
<trkpt lat="48.943570" lon="8.665178">
<ele>355.5</ele>
<speed>3.7</speed>
<course>117.4</course>
<desc>Speed 3.7 km/h Distance 7.26 km</desc>
<time>2010-02-27T11:28:12.29</time>
<name>5112</name>
</trkpt>
<trkpt lat="48.943568" lon="8.665183">
<ele>355.5</ele>
<speed>2.9</speed>
<course>21.5</course>
<desc>Speed 2.9 km/h Distance 7.26 km</desc>
<time>2010-02-27T11:28:13.29</time>
<name>5113</name>
</trkpt>
<trkpt lat="48.943577" lon="8.665188">
<ele>355.5</ele>
<speed>3.7</speed>
<course>75.6</course>
<desc>Speed 3.7 km/h Distance 7.26 km</desc>
<time>2010-02-27T11:28:14.29</time>
<name>5114</name>
</trkpt>
<trkpt lat="48.943578" lon="8.665198">
<ele>355.5</ele>
<speed>3.2</speed>
<course>102.3</course>
<desc>Speed 3.2 km/h Distance 7.26 km</desc>
<time>2010-02-27T11:28:15.29</time>
<name>5115</name>
</trkpt>
<trkpt lat="48.943577" lon="8.665210">
<ele>355.5</ele>
<speed>4.3</speed>
<course>125.6</course>
<desc>Speed 4.3 km/h Distance 7.26 km</desc>
<time>2010-02-27T11:28:16.29</time>
<name>5116</name>
</trkpt>
<trkpt lat="48.943563" lon="8.665238">
<ele>355.5</ele>
<speed>5.0</speed>
<course>119.0</course>
<desc>Speed 5.0 km/h Distance 7.27 km</desc>
<time>2010-02-27T11:28:17.29</time>
<name>5117</name>
</trkpt>
<trkpt lat="48.943557" lon="8.665257">
<ele>355.0</ele>
<speed>5.4</speed>
<course>109.7</course>
<desc>Speed 5.4 km/h Distance 7.27 km</desc>
<time>2010-02-27T11:28:18.29</time>
<name>5118</name>
</trkpt>
<trkpt lat="48.943550" lon="8.665285">
<ele>355.5</ele>
<speed>3.5</speed>
<course>125.6</course>
<desc>Speed 3.5 km/h Distance 7.27 km</desc>
<time>2010-02-27T11:28:19.29</time>
<name>5119</name>
</trkpt>
<trkpt lat="48.943537" lon="8.665313">
<ele>355.5</ele>
<speed>6.8</speed>
<course>106.9</course>
<desc>Speed 6.8 km/h Distance 7.27 km</desc>
<time>2010-02-27T11:28:20.29</time>
<name>5120</name>
</trkpt>
<trkpt lat="48.943533" lon="8.665330">
<ele>355.5</ele>
<speed>4.1</speed>
<course>90.0</course>
<desc>Speed 4.1 km/h Distance 7.27 km</desc>
<time>2010-02-27T11:28:21.29</time>
<name>5121</name>
</trkpt>
<trkpt lat="48.943533" lon="8.665340">
<ele>355.5</ele>
<speed>1.8</speed>
<course>99.6</course>
<desc>Speed 1.8 km/h Distance 7.27 km</desc>
<time>2010-02-27T11:28:22.29</time>
<name>5122</name>
</trkpt>
<trkpt lat="48.943532" lon="8.665355">
<ele>355.5</ele>
<speed>3.5</speed>
<course>125.2</course>
<desc>Speed 3.5 km/h Distance 7.27 km</desc>
<time>2010-02-27T11:28:23.29</time>
<name>5123</name>
</trkpt>
<trkpt lat="48.943500" lon="8.665423">
<ele>355.5</ele>
<speed>6.1</speed>
<course>357.5</course>
<desc>Speed 6.1 km/h Distance 7.28 km</desc>
<time>2010-02-27T11:28:25.29</time>
<name>5124</name>
</trkpt>
<trkpt lat="48.943518" lon="8.665422">
<ele>355.5</ele>
<speed>8.6</speed>
<course>130.0</course>
<desc>Speed 8.6 km/h Distance 7.28 km</desc>
<time>2010-02-27T11:28:26.29</time>
<name>5125</name>
</trkpt>
<trkpt lat="48.943500" lon="8.665455">
<ele>355.0</ele>
<speed>11.6</speed>
<course>105.0</course>
<desc>Speed 11.6 km/h Distance 7.29 km</desc>
<time>2010-02-27T11:28:27.29</time>
<name>5126</name>
</trkpt>
<trkpt lat="48.943495" lon="8.665483">
<ele>355.0</ele>
<speed>8.4</speed>
<course>26.4</course>
<desc>Speed 8.4 km/h Distance 7.29 km</desc>
<time>2010-02-27T11:28:29.29</time>
<name>5127</name>
</trkpt>
<trkpt lat="48.943502" lon="8.665488">
<ele>355.0</ele>
<speed>1.7</speed>
<course>108.7</course>
<desc>Speed 1.7 km/h Distance 7.29 km</desc>
<time>2010-02-27T11:28:30.29</time>
<name>5128</name>
</trkpt>
<trkpt lat="48.943498" lon="8.665503">
<ele>355.0</ele>
<speed>4.2</speed>
<course>47.8</course>
<desc>Speed 4.2 km/h Distance 7.29 km</desc>
<time>2010-02-27T11:28:31.29</time>
<name>5129</name>
</trkpt>
<trkpt lat="48.943503" lon="8.665512">
<ele>355.0</ele>
<speed>2.3</speed>
<course>90.0</course>
<desc>Speed 2.3 km/h Distance 7.29 km</desc>
<time>2010-02-27T11:28:32.29</time>
<name>5130</name>
</trkpt>
<trkpt lat="48.943503" lon="8.665523">
<ele>355.0</ele>
<speed>2.7</speed>
<course>116.8</course>
<desc>Speed 2.7 km/h Distance 7.29 km</desc>
<time>2010-02-27T11:28:33.29</time>
<name>5131</name>
</trkpt>
<trkpt lat="48.943498" lon="8.665538">
<ele>355.0</ele>
<speed>4.2</speed>
<course>129.1</course>
<desc>Speed 4.2 km/h Distance 7.29 km</desc>
<time>2010-02-27T11:28:34.29</time>
<name>5132</name>
</trkpt>
<trkpt lat="48.943485" lon="8.665563">
<ele>355.0</ele>
<speed>8.2</speed>
<course>102.3</course>
<desc>Speed 8.2 km/h Distance 7.30 km</desc>
<time>2010-02-27T11:28:35.29</time>
<name>5133</name>
</trkpt>
<trkpt lat="48.943483" lon="8.665575">
<ele>355.0</ele>
<speed>2.1</speed>
<course>112.1</course>
<desc>Speed 2.1 km/h Distance 7.30 km</desc>
<time>2010-02-27T11:28:36.29</time>
<name>5134</name>
</trkpt>
<trkpt lat="48.943477" lon="8.665600">
<ele>355.0</ele>
<speed>5.0</speed>
<course>125.4</course>
<desc>Speed 5.0 km/h Distance 7.30 km</desc>
<time>2010-02-27T11:28:37.29</time>
<name>5135</name>
</trkpt>
<trkpt lat="48.943465" lon="8.665625">
<ele>355.0</ele>
<speed>6.7</speed>
<course>114.5</course>
<desc>Speed 6.7 km/h Distance 7.30 km</desc>
<time>2010-02-27T11:28:38.29</time>
<name>5136</name>
</trkpt>
<trkpt lat="48.943460" lon="8.665642">
<ele>355.0</ele>
<speed>5.8</speed>
<course>34.1</course>
<desc>Speed 5.8 km/h Distance 7.30 km</desc>
<time>2010-02-27T11:28:39.29</time>
<name>5137</name>
</trkpt>
<trkpt lat="48.943465" lon="8.665647">
<ele>355.0</ele>
<speed>2.0</speed>
<course>121.3</course>
<desc>Speed 2.0 km/h Distance 7.30 km</desc>
<time>2010-02-27T11:28:40.29</time>
<name>5138</name>
</trkpt>
<trkpt lat="48.943458" lon="8.665663">
<ele>355.0</ele>
<speed>3.1</speed>
<course>106.9</course>
<desc>Speed 3.1 km/h Distance 7.30 km</desc>
<time>2010-02-27T11:28:41.29</time>
<name>5139</name>
</trkpt>
<trkpt lat="48.943455" lon="8.665680">
<ele>355.0</ele>
<speed>4.1</speed>
<course>44.5</course>
<desc>Speed 4.1 km/h Distance 7.31 km</desc>
<time>2010-02-27T11:28:42.29</time>
<name>5140</name>
</trkpt>
<trkpt lat="48.943458" lon="8.665685">
<ele>355.0</ele>
<speed>2.1</speed>
<course>90.0</course>
<desc>Speed 2.1 km/h Distance 7.31 km</desc>
<time>2010-02-27T11:28:43.29</time>
<name>5141</name>
</trkpt>
<trkpt lat="48.943458" lon="8.665693">
<ele>355.0</ele>
<speed>2.7</speed>
<course>21.5</course>
<desc>Speed 2.7 km/h Distance 7.31 km</desc>
<time>2010-02-27T11:28:44.29</time>
<name>5142</name>
</trkpt>
<trkpt lat="48.943467" lon="8.665698">
<ele>355.0</ele>
<speed>5.3</speed>
<course>41.4</course>
<desc>Speed 5.3 km/h Distance 7.31 km</desc>
<time>2010-02-27T11:28:45.29</time>
<name>5143</name>
</trkpt>
<trkpt lat="48.943472" lon="8.665705">
<ele>355.0</ele>
<speed>2.9</speed>
<course>108.6</course>
<desc>Speed 2.9 km/h Distance 7.31 km</desc>
<time>2010-02-27T11:28:46.29</time>
<name>5144</name>
</trkpt>
<trkpt lat="48.943468" lon="8.665720">
<ele>355.0</ele>
<speed>2.8</speed>
<course>351.9</course>
<desc>Speed 2.8 km/h Distance 7.31 km</desc>
<time>2010-02-27T11:28:47.29</time>
<name>5145</name>
</trkpt>
<trkpt lat="48.943483" lon="8.665717">
<ele>355.0</ele>
<speed>7.5</speed>
<course>73.1</course>
<desc>Speed 7.5 km/h Distance 7.31 km</desc>
<time>2010-02-27T11:28:48.29</time>
<name>5146</name>
</trkpt>
<trkpt lat="48.943485" lon="8.665725">
<ele>355.0</ele>
<speed>2.2</speed>
<course>58.9</course>
<desc>Speed 2.2 km/h Distance 7.31 km</desc>
<time>2010-02-27T11:28:49.29</time>
<name>5147</name>
</trkpt>
<trkpt lat="48.943488" lon="8.665733">
<ele>355.0</ele>
<speed>2.3</speed>
<course>18.8</course>
<desc>Speed 2.3 km/h Distance 7.31 km</desc>
<time>2010-02-27T11:28:50.29</time>
<name>5148</name>
</trkpt>
<trkpt lat="48.943495" lon="8.665737">
<ele>355.0</ele>
<speed>5.5</speed>
<course>125.8</course>
<desc>Speed 5.5 km/h Distance 7.31 km</desc>
<time>2010-02-27T11:28:51.29</time>
<name>5149</name>
</trkpt>
<trkpt lat="48.943480" lon="8.665768">
<ele>355.0</ele>
<speed>4.1</speed>
<course>355.9</course>
<desc>Speed 4.1 km/h Distance 7.32 km</desc>
<time>2010-02-27T11:28:52.29</time>
<name>5150</name>
</trkpt>
<trkpt lat="48.943497" lon="8.665767">
<ele>355.0</ele>
<speed>11.1</speed>
<course>346.4</course>
<desc>Speed 11.1 km/h Distance 7.32 km</desc>
<time>2010-02-27T11:28:53.29</time>
<name>5151</name>
</trkpt>
<trkpt lat="48.943515" lon="8.665760">
<ele>355.0</ele>
<speed>9.7</speed>
<course>128.4</course>
<desc>Speed 9.7 km/h Distance 7.32 km</desc>
<time>2010-02-27T11:28:54.29</time>
<name>5152</name>
</trkpt>
<trkpt lat="48.943472" lon="8.665843">
<ele>355.0</ele>
<speed>6.4</speed>
<course>114.5</course>
<desc>Speed 6.4 km/h Distance 7.33 km</desc>
<time>2010-02-27T11:28:56.29</time>
<name>5153</name>
</trkpt>
<trkpt lat="48.943467" lon="8.665860">
<ele>355.0</ele>
<speed>6.4</speed>
<course>116.8</course>
<desc>Speed 6.4 km/h Distance 7.33 km</desc>
<time>2010-02-27T11:28:57.29</time>
<name>5154</name>
</trkpt>
<trkpt lat="48.943463" lon="8.665870">
<ele>355.0</ele>
<speed>6.4</speed>
<course>2.8</course>
<desc>Speed 6.4 km/h Distance 7.33 km</desc>
<time>2010-02-27T11:28:58.29</time>
<name>5155</name>
</trkpt>
<trkpt lat="48.943480" lon="8.665870">
<ele>355.0</ele>
<speed>6.8</speed>
<course>47.6</course>
<desc>Speed 6.8 km/h Distance 7.33 km</desc>
<time>2010-02-27T11:28:59.29</time>
<name>5156</name>
</trkpt>
<trkpt lat="48.943490" lon="8.665887">
<ele>355.0</ele>
<speed>5.0</speed>
<course>8.1</course>
<desc>Speed 5.0 km/h Distance 7.33 km</desc>
<time>2010-02-27T11:29:00.29</time>
<name>5157</name>
</trkpt>
<trkpt lat="48.943513" lon="8.665892">
<ele>355.0</ele>
<speed>7.6</speed>
<course>45.9</course>
<desc>Speed 7.6 km/h Distance 7.34 km</desc>
<time>2010-02-27T11:29:01.29</time>
<name>5158</name>
</trkpt>
<trkpt lat="48.943525" lon="8.665910">
<ele>355.0</ele>
<speed>5.4</speed>
<course>65.4</course>
<desc>Speed 5.4 km/h Distance 7.34 km</desc>
<time>2010-02-27T11:29:02.29</time>
<name>5159</name>
</trkpt>
<trkpt lat="48.943530" lon="8.665927">
<ele>355.0</ele>
<speed>4.4</speed>
<course>42.6</course>
<desc>Speed 4.4 km/h Distance 7.34 km</desc>
<time>2010-02-27T11:29:03.29</time>
<name>5160</name>
</trkpt>
<trkpt lat="48.943538" lon="8.665938">
<ele>355.0</ele>
<speed>4.8</speed>
<course>11.2</course>
<desc>Speed 4.8 km/h Distance 7.34 km</desc>
<time>2010-02-27T11:29:04.29</time>
<name>5161</name>
</trkpt>
<trkpt lat="48.943555" lon="8.665943">
<ele>355.0</ele>
<speed>5.8</speed>
<course>16.0</course>
<desc>Speed 5.8 km/h Distance 7.34 km</desc>
<time>2010-02-27T11:29:05.29</time>
<name>5162</name>
</trkpt>
<trkpt lat="48.943570" lon="8.665950">
<ele>355.0</ele>
<speed>6.4</speed>
<course>357.5</course>
<desc>Speed 6.4 km/h Distance 7.34 km</desc>
<time>2010-02-27T11:29:06.29</time>
<name>5163</name>
</trkpt>
<trkpt lat="48.943595" lon="8.665948">
<ele>355.0</ele>
<speed>10.1</speed>
<course>42.6</course>
<desc>Speed 10.1 km/h Distance 7.35 km</desc>
<time>2010-02-27T11:29:07.29</time>
<name>5164</name>
</trkpt>
<trkpt lat="48.943603" lon="8.665960">
<ele>355.0</ele>
<speed>7.2</speed>
<course>42.6</course>
<desc>Speed 7.2 km/h Distance 7.35 km</desc>
<time>2010-02-27T11:29:08.29</time>
<name>5165</name>
</trkpt>
<trkpt lat="48.943612" lon="8.665972">
<ele>355.0</ele>
<speed>4.5</speed>
<course>41.2</course>
<desc>Speed 4.5 km/h Distance 7.35 km</desc>
<time>2010-02-27T11:29:09.29</time>
<name>5166</name>
</trkpt>
<trkpt lat="48.943622" lon="8.665985">
<ele>355.0</ele>
<speed>4.1</speed>
<course>63.1</course>
<desc>Speed 4.1 km/h Distance 7.35 km</desc>
<time>2010-02-27T11:29:10.29</time>
<name>5167</name>
</trkpt>
<trkpt lat="48.943627" lon="8.666000">
<ele>354.5</ele>
<speed>4.7</speed>
<course>43.3</course>
<desc>Speed 4.7 km/h Distance 7.35 km</desc>
<time>2010-02-27T11:29:11.29</time>
<name>5168</name>
</trkpt>
<trkpt lat="48.943638" lon="8.666017">
<ele>354.5</ele>
<speed>7.6</speed>
<course>21.5</course>
<desc>Speed 7.6 km/h Distance 7.35 km</desc>
<time>2010-02-27T11:29:12.29</time>
<name>5169</name>
</trkpt>
<trkpt lat="48.943655" lon="8.666027">
<ele>354.5</ele>
<speed>8.4</speed>
<course>105.1</course>
<desc>Speed 8.4 km/h Distance 7.36 km</desc>
<time>2010-02-27T11:29:13.29</time>
<name>5170</name>
</trkpt>
<trkpt lat="48.943650" lon="8.666055">
<ele>354.5</ele>
<speed>8.7</speed>
<course>46.5</course>
<desc>Speed 8.7 km/h Distance 7.36 km</desc>
<time>2010-02-27T11:29:14.29</time>
<name>5171</name>
</trkpt>
<trkpt lat="48.943658" lon="8.666068">
<ele>354.5</ele>
<speed>6.0</speed>
<course>40.2</course>
<desc>Speed 6.0 km/h Distance 7.36 km</desc>
<time>2010-02-27T11:29:15.29</time>
<name>5172</name>
</trkpt>
<trkpt lat="48.943670" lon="8.666083">
<ele>354.5</ele>
<speed>5.7</speed>
<course>58.6</course>
<desc>Speed 5.7 km/h Distance 7.36 km</desc>
<time>2010-02-27T11:29:16.29</time>
<name>5173</name>
</trkpt>
<trkpt lat="48.943677" lon="8.666100">
<ele>354.5</ele>
<speed>5.0</speed>
<course>82.8</course>
<desc>Speed 5.0 km/h Distance 7.36 km</desc>
<time>2010-02-27T11:29:17.29</time>
<name>5174</name>
</trkpt>
<trkpt lat="48.943678" lon="8.666120">
<ele>354.5</ele>
<speed>5.7</speed>
<course>29.8</course>
<desc>Speed 5.7 km/h Distance 7.36 km</desc>
<time>2010-02-27T11:29:18.29</time>
<name>5175</name>
</trkpt>
<trkpt lat="48.943692" lon="8.666132">
<ele>354.0</ele>
<speed>3.0</speed>
<course>124.9</course>
<desc>Speed 3.0 km/h Distance 7.37 km</desc>
<time>2010-02-27T11:29:20.38</time>
<name>5176</name>
</trkpt>
<trkpt lat="48.943655" lon="8.666212">
<ele>354.0</ele>
<speed>5.4</speed>
<course>128.7</course>
<desc>Speed 5.4 km/h Distance 7.37 km</desc>
<time>2010-02-27T11:29:22.29</time>
<name>5177</name>
</trkpt>
<trkpt lat="48.943638" lon="8.666243">
<ele>354.0</ele>
<speed>3.9</speed>
<course>143.4</course>
<desc>Speed 3.9 km/h Distance 7.38 km</desc>
<time>2010-02-27T11:29:23.29</time>
<name>5178</name>
</trkpt>
<trkpt lat="48.943625" lon="8.666258">
<ele>353.5</ele>
<speed>0.7</speed>
<course>173.4</course>
<desc>Speed 0.7 km/h Distance 7.38 km</desc>
<time>2010-02-27T11:29:24.29</time>
<name>5179</name>
</trkpt>
<trkpt lat="48.943587" lon="8.666265">
<ele>353.5</ele>
<speed>6.7</speed>
<course>127.3</course>
<desc>Speed 6.7 km/h Distance 7.38 km</desc>
<time>2010-02-27T11:29:26.31</time>
<name>5180</name>
</trkpt>
<trkpt lat="48.943577" lon="8.666285">
<ele>353.5</ele>
<speed>4.3</speed>
<course>131.0</course>
<desc>Speed 4.3 km/h Distance 7.38 km</desc>
<time>2010-02-27T11:29:27.31</time>
<name>5181</name>
</trkpt>
<trkpt lat="48.943563" lon="8.666308">
<ele>353.0</ele>
<speed>5.4</speed>
<course>127.3</course>
<desc>Speed 5.4 km/h Distance 7.39 km</desc>
<time>2010-02-27T11:29:28.31</time>
<name>5182</name>
</trkpt>
<trkpt lat="48.943550" lon="8.666335">
<ele>353.0</ele>
<speed>5.0</speed>
<course>129.7</course>
<desc>Speed 5.0 km/h Distance 7.39 km</desc>
<time>2010-02-27T11:29:29.31</time>
<name>5183</name>
</trkpt>
<trkpt lat="48.943530" lon="8.666372">
<ele>353.0</ele>
<speed>9.4</speed>
<course>123.5</course>
<desc>Speed 9.4 km/h Distance 7.39 km</desc>
<time>2010-02-27T11:29:30.52</time>
<name>5184</name>
</trkpt>
<trkpt lat="48.943513" lon="8.666410">
<ele>353.0</ele>
<speed>3.6</speed>
<course>109.3</course>
<desc>Speed 3.6 km/h Distance 7.40 km</desc>
<time>2010-02-27T11:29:32.35</time>
<name>5185</name>
</trkpt>
<trkpt lat="48.943508" lon="8.666432">
<ele>352.0</ele>
<speed>3.3</speed>
<course>133.1</course>
<desc>Speed 3.3 km/h Distance 7.40 km</desc>
<time>2010-02-27T11:29:33.35</time>
<name>5186</name>
</trkpt>
<trkpt lat="48.943495" lon="8.666453">
<ele>352.0</ele>
<speed>4.9</speed>
<course>122.4</course>
<desc>Speed 4.9 km/h Distance 7.40 km</desc>
<time>2010-02-27T11:29:34.35</time>
<name>5187</name>
</trkpt>
<trkpt lat="48.943487" lon="8.666473">
<ele>352.0</ele>
<speed>4.3</speed>
<course>0.0</course>
<desc>Speed 4.3 km/h Distance 7.40 km</desc>
<time>2010-02-27T11:29:35.51</time>
<name>5188</name>
</trkpt>
<trkpt lat="48.943502" lon="8.666473">
<ele>352.0</ele>
<speed>6.3</speed>
<course>11.2</course>
<desc>Speed 6.3 km/h Distance 7.40 km</desc>
<time>2010-02-27T11:29:36.37</time>
<name>5189</name>
</trkpt>
<trkpt lat="48.943518" lon="8.666478">
<ele>352.0</ele>
<speed>6.4</speed>
<course>7.0</course>
<desc>Speed 6.4 km/h Distance 7.40 km</desc>
<time>2010-02-27T11:29:37.37</time>
<name>5190</name>
</trkpt>
<trkpt lat="48.943537" lon="8.666482">
<ele>352.5</ele>
<speed>6.7</speed>
<course>132.4</course>
<desc>Speed 6.7 km/h Distance 7.41 km</desc>
<time>2010-02-27T11:29:38.37</time>
<name>5191</name>
</trkpt>
<trkpt lat="48.943522" lon="8.666507">
<ele>352.5</ele>
<speed>8.1</speed>
<course>341.0</course>
<desc>Speed 8.1 km/h Distance 7.41 km</desc>
<time>2010-02-27T11:29:39.37</time>
<name>5192</name>
</trkpt>
<trkpt lat="48.943557" lon="8.666488">
<ele>352.5</ele>
<speed>15.8</speed>
<course>15.3</course>
<desc>Speed 15.8 km/h Distance 7.41 km</desc>
<time>2010-02-27T11:29:40.60</time>
<name>5193</name>
</trkpt>
<trkpt lat="48.943577" lon="8.666497">
<ele>352.5</ele>
<speed>3.1</speed>
<course>128.1</course>
<desc>Speed 3.1 km/h Distance 7.42 km</desc>
<time>2010-02-27T11:29:42.42</time>
<name>5194</name>
</trkpt>
<trkpt lat="48.943575" lon="8.666500">
<ele>352.5</ele>
<speed>1.6</speed>
<course>18.8</course>
<desc>Speed 1.6 km/h Distance 7.42 km</desc>
<time>2010-02-27T11:29:43.42</time>
<name>5195</name>
</trkpt>
<trkpt lat="48.943578" lon="8.666502">
<ele>352.5</ele>
<speed>2.0</speed>
<course>75.6</course>
<desc>Speed 2.0 km/h Distance 7.42 km</desc>
<time>2010-02-27T11:29:44.42</time>
<name>5196</name>
</trkpt>
<trkpt lat="48.943580" lon="8.666512">
<ele>352.0</ele>
<speed>1.5</speed>
<course>4.7</course>
<desc>Speed 1.5 km/h Distance 7.42 km</desc>
<time>2010-02-27T11:29:45.62</time>
<name>5197</name>
</trkpt>
<trkpt lat="48.943592" lon="8.666513">
<ele>352.0</ele>
<speed>2.1</speed>
<course>9.6</course>
<desc>Speed 2.1 km/h Distance 7.42 km</desc>
<time>2010-02-27T11:29:46.45</time>
<name>5198</name>
</trkpt>
<trkpt lat="48.943600" lon="8.666515">
<ele>352.0</ele>
<speed>2.1</speed>
<course>163.7</course>
<desc>Speed 2.1 km/h Distance 7.42 km</desc>
<time>2010-02-27T11:29:47.45</time>
<name>5199</name>
</trkpt>
<trkpt lat="48.943585" lon="8.666522">
<ele>352.0</ele>
<speed>7.4</speed>
<course>281.5</course>
<desc>Speed 7.4 km/h Distance 7.42 km</desc>
<time>2010-02-27T11:29:48.45</time>
<name>5200</name>
</trkpt>
<trkpt lat="48.943588" lon="8.666497">
<ele>352.0</ele>
<speed>7.4</speed>
<course>281.5</course>
<desc>Speed 7.4 km/h Distance 7.42 km</desc>
<time>2010-02-27T11:29:49.98</time>
<name>5201</name>
</trkpt>
</trkseg>
</trk>
</gpx>
